<?xml version="1.0" encoding="UTF-8" standalone="no" ?>
<gpx xmlns="http://www.topografix.com/GPX/1/1" xmlns:xsi="http://www.w3.org/2001/XMLSchema-instance" xsi:schemaLocation="http://www.topografix.com/GPX/1/1 http://www.topografix.com/GPX/1/1/gpx.xsd" version="1.1" creator="VisuGPX - https://www.visugpx.com">
  <metadata>
    <name>13255245-Traversée des pyrénées</name>
    <desc><![CDATA[Trace Mickael Fanguet]]></desc>
  </metadata>
  <trk>
    <name><![CDATA[13255245-Traversée des pyrénées]]></name>
    <trkseg>
      <trkpt lat="43.3745" lon="-1.76807">
        <ele>3</ele>
        <time>2021-06-18T10:39:20Z</time>
      </trkpt>
      <trkpt lat="43.37366" lon="-1.77196">
        <ele>4</ele>
        <time>2021-06-18T10:40:29Z</time>
      </trkpt>
      <trkpt lat="43.37328" lon="-1.77402">
        <ele>7</ele>
        <time>2021-06-18T10:41:05Z</time>
      </trkpt>
      <trkpt lat="43.37304" lon="-1.77401">
        <ele>8</ele>
        <time>2021-06-18T10:41:11Z</time>
      </trkpt>
      <trkpt lat="43.37195" lon="-1.77337">
        <ele>8</ele>
        <time>2021-06-18T10:41:38Z</time>
      </trkpt>
      <trkpt lat="43.37185" lon="-1.77329">
        <ele>8</ele>
        <time>2021-06-18T10:41:41Z</time>
      </trkpt>
      <trkpt lat="43.37182" lon="-1.77336">
        <ele>8</ele>
        <time>2021-06-18T10:41:42Z</time>
      </trkpt>
      <trkpt lat="43.37171" lon="-1.77347">
        <ele>8</ele>
        <time>2021-06-18T10:41:46Z</time>
      </trkpt>
      <trkpt lat="43.37164" lon="-1.77349">
        <ele>8</ele>
        <time>2021-06-18T10:41:47Z</time>
      </trkpt>
      <trkpt lat="43.37156" lon="-1.77348">
        <ele>8</ele>
        <time>2021-06-18T10:41:49Z</time>
      </trkpt>
      <trkpt lat="43.37145" lon="-1.7734">
        <ele>8</ele>
        <time>2021-06-18T10:41:52Z</time>
      </trkpt>
      <trkpt lat="43.37137" lon="-1.77325">
        <ele>7</ele>
        <time>2021-06-18T10:41:55Z</time>
      </trkpt>
      <trkpt lat="43.37017" lon="-1.77369">
        <ele>5</ele>
        <time>2021-06-18T10:42:24Z</time>
      </trkpt>
      <trkpt lat="43.37015" lon="-1.77371">
        <ele>5</ele>
        <time>2021-06-18T10:42:25Z</time>
      </trkpt>
      <trkpt lat="43.37025" lon="-1.7739">
        <ele>5</ele>
        <time>2021-06-18T10:42:29Z</time>
      </trkpt>
      <trkpt lat="43.37019" lon="-1.77396">
        <ele>5</ele>
        <time>2021-06-18T10:42:30Z</time>
      </trkpt>
      <trkpt lat="43.37003" lon="-1.77368">
        <ele>5</ele>
        <time>2021-06-18T10:42:36Z</time>
      </trkpt>
      <trkpt lat="43.36922" lon="-1.77266">
        <ele>2</ele>
        <time>2021-06-18T10:43:02Z</time>
      </trkpt>
      <trkpt lat="43.36881" lon="-1.77226">
        <ele>2</ele>
        <time>2021-06-18T10:43:14Z</time>
      </trkpt>
      <trkpt lat="43.36565" lon="-1.77011">
        <ele>5</ele>
        <time>2021-06-18T10:44:36Z</time>
      </trkpt>
      <trkpt lat="43.36536" lon="-1.76996">
        <ele>4</ele>
        <time>2021-06-18T10:44:43Z</time>
      </trkpt>
      <trkpt lat="43.36524" lon="-1.76995">
        <ele>4</ele>
        <time>2021-06-18T10:44:46Z</time>
      </trkpt>
      <trkpt lat="43.36498" lon="-1.77003">
        <ele>2</ele>
        <time>2021-06-18T10:44:52Z</time>
      </trkpt>
      <trkpt lat="43.36477" lon="-1.77014">
        <ele>5</ele>
        <time>2021-06-18T10:44:58Z</time>
      </trkpt>
      <trkpt lat="43.36455" lon="-1.77034">
        <ele>7</ele>
        <time>2021-06-18T10:45:04Z</time>
      </trkpt>
      <trkpt lat="43.3643" lon="-1.77069">
        <ele>7</ele>
        <time>2021-06-18T10:45:12Z</time>
      </trkpt>
      <trkpt lat="43.36406" lon="-1.77144">
        <ele>5</ele>
        <time>2021-06-18T10:45:26Z</time>
      </trkpt>
      <trkpt lat="43.36383" lon="-1.77197">
        <ele>5</ele>
        <time>2021-06-18T10:45:37Z</time>
      </trkpt>
      <trkpt lat="43.36342" lon="-1.77259">
        <ele>3</ele>
        <time>2021-06-18T10:45:51Z</time>
      </trkpt>
      <trkpt lat="43.36316" lon="-1.77286">
        <ele>3</ele>
        <time>2021-06-18T10:45:58Z</time>
      </trkpt>
      <trkpt lat="43.36297" lon="-1.77301">
        <ele>2</ele>
        <time>2021-06-18T10:46:04Z</time>
      </trkpt>
      <trkpt lat="43.36248" lon="-1.77331">
        <ele>2</ele>
        <time>2021-06-18T10:46:16Z</time>
      </trkpt>
      <trkpt lat="43.36239" lon="-1.77334">
        <ele>3</ele>
        <time>2021-06-18T10:46:18Z</time>
      </trkpt>
      <trkpt lat="43.3623" lon="-1.77333">
        <ele>3</ele>
        <time>2021-06-18T10:46:20Z</time>
      </trkpt>
      <trkpt lat="43.36201" lon="-1.77321">
        <ele>5</ele>
        <time>2021-06-18T10:46:27Z</time>
      </trkpt>
      <trkpt lat="43.3617" lon="-1.773">
        <ele>8</ele>
        <time>2021-06-18T10:46:35Z</time>
      </trkpt>
      <trkpt lat="43.36163" lon="-1.773">
        <ele>8</ele>
        <time>2021-06-18T10:46:37Z</time>
      </trkpt>
      <trkpt lat="43.36123" lon="-1.77279">
        <ele>9</ele>
        <time>2021-06-18T10:46:47Z</time>
      </trkpt>
      <trkpt lat="43.36071" lon="-1.77256">
        <ele>9</ele>
        <time>2021-06-18T10:47:00Z</time>
      </trkpt>
      <trkpt lat="43.36056" lon="-1.77246">
        <ele>10</ele>
        <time>2021-06-18T10:47:04Z</time>
      </trkpt>
      <trkpt lat="43.35997" lon="-1.77192">
        <ele>10</ele>
        <time>2021-06-18T10:47:20Z</time>
      </trkpt>
      <trkpt lat="43.35984" lon="-1.77174">
        <ele>9</ele>
        <time>2021-06-18T10:47:25Z</time>
      </trkpt>
      <trkpt lat="43.35972" lon="-1.77175">
        <ele>9</ele>
        <time>2021-06-18T10:47:27Z</time>
      </trkpt>
      <trkpt lat="43.35967" lon="-1.77168">
        <ele>9</ele>
        <time>2021-06-18T10:47:29Z</time>
      </trkpt>
      <trkpt lat="43.35958" lon="-1.77172">
        <ele>9</ele>
        <time>2021-06-18T10:47:31Z</time>
      </trkpt>
      <trkpt lat="43.35931" lon="-1.77174">
        <ele>9</ele>
        <time>2021-06-18T10:47:38Z</time>
      </trkpt>
      <trkpt lat="43.35904" lon="-1.77169">
        <ele>9</ele>
        <time>2021-06-18T10:47:44Z</time>
      </trkpt>
      <trkpt lat="43.35906" lon="-1.77124">
        <ele>9</ele>
        <time>2021-06-18T10:47:52Z</time>
      </trkpt>
      <trkpt lat="43.35905" lon="-1.7706">
        <ele>11</ele>
        <time>2021-06-18T10:48:02Z</time>
      </trkpt>
      <trkpt lat="43.35897" lon="-1.77012">
        <ele>13</ele>
        <time>2021-06-18T10:48:11Z</time>
      </trkpt>
      <trkpt lat="43.35879" lon="-1.76948">
        <ele>16</ele>
        <time>2021-06-18T10:48:22Z</time>
      </trkpt>
      <trkpt lat="43.35856" lon="-1.76889">
        <ele>20</ele>
        <time>2021-06-18T10:48:34Z</time>
      </trkpt>
      <trkpt lat="43.3585" lon="-1.76888">
        <ele>21</ele>
        <time>2021-06-18T10:48:35Z</time>
      </trkpt>
      <trkpt lat="43.35848" lon="-1.76884">
        <ele>21</ele>
        <time>2021-06-18T10:48:36Z</time>
      </trkpt>
      <trkpt lat="43.35849" lon="-1.76876">
        <ele>21</ele>
        <time>2021-06-18T10:48:37Z</time>
      </trkpt>
      <trkpt lat="43.35853" lon="-1.76874">
        <ele>21</ele>
        <time>2021-06-18T10:48:38Z</time>
      </trkpt>
      <trkpt lat="43.35839" lon="-1.76815">
        <ele>25</ele>
        <time>2021-06-18T10:48:49Z</time>
      </trkpt>
      <trkpt lat="43.35832" lon="-1.76744">
        <ele>29</ele>
        <time>2021-06-18T10:49:01Z</time>
      </trkpt>
      <trkpt lat="43.35848" lon="-1.76639">
        <ele>35</ele>
        <time>2021-06-18T10:49:19Z</time>
      </trkpt>
      <trkpt lat="43.35876" lon="-1.76489">
        <ele>45</ele>
        <time>2021-06-18T10:49:46Z</time>
      </trkpt>
      <trkpt lat="43.35892" lon="-1.76445">
        <ele>47</ele>
        <time>2021-06-18T10:49:54Z</time>
      </trkpt>
      <trkpt lat="43.35894" lon="-1.76424">
        <ele>49</ele>
        <time>2021-06-18T10:49:58Z</time>
      </trkpt>
      <trkpt lat="43.35919" lon="-1.76345">
        <ele>51</ele>
        <time>2021-06-18T10:50:12Z</time>
      </trkpt>
      <trkpt lat="43.35937" lon="-1.7632">
        <ele>53</ele>
        <time>2021-06-18T10:50:18Z</time>
      </trkpt>
      <trkpt lat="43.35934" lon="-1.76312">
        <ele>54</ele>
        <time>2021-06-18T10:50:20Z</time>
      </trkpt>
      <trkpt lat="43.35934" lon="-1.76303">
        <ele>55</ele>
        <time>2021-06-18T10:50:21Z</time>
      </trkpt>
      <trkpt lat="43.35937" lon="-1.76296">
        <ele>55</ele>
        <time>2021-06-18T10:50:23Z</time>
      </trkpt>
      <trkpt lat="43.35943" lon="-1.76292">
        <ele>56</ele>
        <time>2021-06-18T10:50:24Z</time>
      </trkpt>
      <trkpt lat="43.35946" lon="-1.76277">
        <ele>57</ele>
        <time>2021-06-18T10:50:27Z</time>
      </trkpt>
      <trkpt lat="43.35959" lon="-1.75978">
        <ele>74</ele>
        <time>2021-06-18T10:51:18Z</time>
      </trkpt>
      <trkpt lat="43.35871" lon="-1.75964">
        <ele>82</ele>
        <time>2021-06-18T10:51:38Z</time>
      </trkpt>
      <trkpt lat="43.35819" lon="-1.75964">
        <ele>87</ele>
        <time>2021-06-18T10:51:51Z</time>
      </trkpt>
      <trkpt lat="43.35795" lon="-1.75955">
        <ele>91</ele>
        <time>2021-06-18T10:51:56Z</time>
      </trkpt>
      <trkpt lat="43.3572" lon="-1.75897">
        <ele>102</ele>
        <time>2021-06-18T10:52:16Z</time>
      </trkpt>
      <trkpt lat="43.35685" lon="-1.75877">
        <ele>103</ele>
        <time>2021-06-18T10:52:25Z</time>
      </trkpt>
      <trkpt lat="43.35671" lon="-1.75877">
        <ele>103</ele>
        <time>2021-06-18T10:52:29Z</time>
      </trkpt>
      <trkpt lat="43.35616" lon="-1.75902">
        <ele>105</ele>
        <time>2021-06-18T10:52:42Z</time>
      </trkpt>
      <trkpt lat="43.35614" lon="-1.75857">
        <ele>104</ele>
        <time>2021-06-18T10:52:50Z</time>
      </trkpt>
      <trkpt lat="43.35607" lon="-1.7581">
        <ele>103</ele>
        <time>2021-06-18T10:52:58Z</time>
      </trkpt>
      <trkpt lat="43.356" lon="-1.75806">
        <ele>103</ele>
        <time>2021-06-18T10:53:00Z</time>
      </trkpt>
      <trkpt lat="43.35598" lon="-1.75797">
        <ele>104</ele>
        <time>2021-06-18T10:53:01Z</time>
      </trkpt>
      <trkpt lat="43.35582" lon="-1.75666">
        <ele>106</ele>
        <time>2021-06-18T10:53:24Z</time>
      </trkpt>
      <trkpt lat="43.3554" lon="-1.75429">
        <ele>94</ele>
        <time>2021-06-18T10:54:05Z</time>
      </trkpt>
      <trkpt lat="43.35524" lon="-1.75415">
        <ele>94</ele>
        <time>2021-06-18T10:54:10Z</time>
      </trkpt>
      <trkpt lat="43.35517" lon="-1.75405">
        <ele>94</ele>
        <time>2021-06-18T10:54:12Z</time>
      </trkpt>
      <trkpt lat="43.35501" lon="-1.75365">
        <ele>95</ele>
        <time>2021-06-18T10:54:20Z</time>
      </trkpt>
      <trkpt lat="43.35492" lon="-1.7535">
        <ele>94</ele>
        <time>2021-06-18T10:54:23Z</time>
      </trkpt>
      <trkpt lat="43.35475" lon="-1.75337">
        <ele>93</ele>
        <time>2021-06-18T10:54:28Z</time>
      </trkpt>
      <trkpt lat="43.35456" lon="-1.75316">
        <ele>92</ele>
        <time>2021-06-18T10:54:33Z</time>
      </trkpt>
      <trkpt lat="43.35437" lon="-1.75302">
        <ele>92</ele>
        <time>2021-06-18T10:54:38Z</time>
      </trkpt>
      <trkpt lat="43.3539" lon="-1.75256">
        <ele>97</ele>
        <time>2021-06-18T10:54:52Z</time>
      </trkpt>
      <trkpt lat="43.35382" lon="-1.75254">
        <ele>98</ele>
        <time>2021-06-18T10:54:54Z</time>
      </trkpt>
      <trkpt lat="43.3534" lon="-1.75211">
        <ele>101</ele>
        <time>2021-06-18T10:55:06Z</time>
      </trkpt>
      <trkpt lat="43.35314" lon="-1.75195">
        <ele>105</ele>
        <time>2021-06-18T10:55:13Z</time>
      </trkpt>
      <trkpt lat="43.35275" lon="-1.75155">
        <ele>113</ele>
        <time>2021-06-18T10:55:24Z</time>
      </trkpt>
      <trkpt lat="43.35217" lon="-1.75121">
        <ele>118</ele>
        <time>2021-06-18T10:55:39Z</time>
      </trkpt>
      <trkpt lat="43.35181" lon="-1.75113">
        <ele>120</ele>
        <time>2021-06-18T10:55:47Z</time>
      </trkpt>
      <trkpt lat="43.35167" lon="-1.75107">
        <ele>121</ele>
        <time>2021-06-18T10:55:51Z</time>
      </trkpt>
      <trkpt lat="43.35153" lon="-1.75094">
        <ele>121</ele>
        <time>2021-06-18T10:55:55Z</time>
      </trkpt>
      <trkpt lat="43.35105" lon="-1.74999">
        <ele>114</ele>
        <time>2021-06-18T10:56:14Z</time>
      </trkpt>
      <trkpt lat="43.35098" lon="-1.74913">
        <ele>108</ele>
        <time>2021-06-18T10:56:29Z</time>
      </trkpt>
      <trkpt lat="43.35084" lon="-1.748">
        <ele>100</ele>
        <time>2021-06-18T10:56:48Z</time>
      </trkpt>
      <trkpt lat="43.35063" lon="-1.74703">
        <ele>94</ele>
        <time>2021-06-18T10:57:06Z</time>
      </trkpt>
      <trkpt lat="43.35029" lon="-1.74631">
        <ele>92</ele>
        <time>2021-06-18T10:57:20Z</time>
      </trkpt>
      <trkpt lat="43.35001" lon="-1.74596">
        <ele>93</ele>
        <time>2021-06-18T10:57:29Z</time>
      </trkpt>
      <trkpt lat="43.34996" lon="-1.74559">
        <ele>92</ele>
        <time>2021-06-18T10:57:35Z</time>
      </trkpt>
      <trkpt lat="43.34974" lon="-1.74554">
        <ele>88</ele>
        <time>2021-06-18T10:57:41Z</time>
      </trkpt>
      <trkpt lat="43.34968" lon="-1.74449">
        <ele>89</ele>
        <time>2021-06-18T10:57:58Z</time>
      </trkpt>
      <trkpt lat="43.34948" lon="-1.74415">
        <ele>88</ele>
        <time>2021-06-18T10:58:06Z</time>
      </trkpt>
      <trkpt lat="43.34901" lon="-1.74316">
        <ele>90</ele>
        <time>2021-06-18T10:58:26Z</time>
      </trkpt>
      <trkpt lat="43.34876" lon="-1.7428">
        <ele>90</ele>
        <time>2021-06-18T10:58:34Z</time>
      </trkpt>
      <trkpt lat="43.34864" lon="-1.74268">
        <ele>89</ele>
        <time>2021-06-18T10:58:38Z</time>
      </trkpt>
      <trkpt lat="43.34845" lon="-1.74254">
        <ele>88</ele>
        <time>2021-06-18T10:58:43Z</time>
      </trkpt>
      <trkpt lat="43.34834" lon="-1.74251">
        <ele>87</ele>
        <time>2021-06-18T10:58:46Z</time>
      </trkpt>
      <trkpt lat="43.34784" lon="-1.74392">
        <ele>76</ele>
        <time>2021-06-18T10:59:12Z</time>
      </trkpt>
      <trkpt lat="43.34774" lon="-1.7441">
        <ele>76</ele>
        <time>2021-06-18T10:59:16Z</time>
      </trkpt>
      <trkpt lat="43.34749" lon="-1.74438">
        <ele>74</ele>
        <time>2021-06-18T10:59:24Z</time>
      </trkpt>
      <trkpt lat="43.34732" lon="-1.74463">
        <ele>68</ele>
        <time>2021-06-18T10:59:29Z</time>
      </trkpt>
      <trkpt lat="43.34719" lon="-1.7447">
        <ele>65</ele>
        <time>2021-06-18T10:59:33Z</time>
      </trkpt>
      <trkpt lat="43.34689" lon="-1.74473">
        <ele>60</ele>
        <time>2021-06-18T10:59:40Z</time>
      </trkpt>
      <trkpt lat="43.34677" lon="-1.74471">
        <ele>59</ele>
        <time>2021-06-18T10:59:42Z</time>
      </trkpt>
      <trkpt lat="43.34629" lon="-1.74451">
        <ele>52</ele>
        <time>2021-06-18T10:59:54Z</time>
      </trkpt>
      <trkpt lat="43.3461" lon="-1.74447">
        <ele>49</ele>
        <time>2021-06-18T10:59:59Z</time>
      </trkpt>
      <trkpt lat="43.346" lon="-1.7444">
        <ele>47</ele>
        <time>2021-06-18T11:00:01Z</time>
      </trkpt>
      <trkpt lat="43.34605" lon="-1.74431">
        <ele>49</ele>
        <time>2021-06-18T11:00:03Z</time>
      </trkpt>
      <trkpt lat="43.34605" lon="-1.74423">
        <ele>49</ele>
        <time>2021-06-18T11:00:05Z</time>
      </trkpt>
      <trkpt lat="43.34583" lon="-1.74235">
        <ele>47</ele>
        <time>2021-06-18T11:00:37Z</time>
      </trkpt>
      <trkpt lat="43.34587" lon="-1.74216">
        <ele>50</ele>
        <time>2021-06-18T11:00:40Z</time>
      </trkpt>
      <trkpt lat="43.34595" lon="-1.74197">
        <ele>53</ele>
        <time>2021-06-18T11:00:44Z</time>
      </trkpt>
      <trkpt lat="43.34641" lon="-1.74134">
        <ele>63</ele>
        <time>2021-06-18T11:00:59Z</time>
      </trkpt>
      <trkpt lat="43.3464" lon="-1.74128">
        <ele>63</ele>
        <time>2021-06-18T11:01:00Z</time>
      </trkpt>
      <trkpt lat="43.34605" lon="-1.74089">
        <ele>63</ele>
        <time>2021-06-18T11:01:11Z</time>
      </trkpt>
      <trkpt lat="43.34589" lon="-1.74067">
        <ele>64</ele>
        <time>2021-06-18T11:01:16Z</time>
      </trkpt>
      <trkpt lat="43.34571" lon="-1.74016">
        <ele>66</ele>
        <time>2021-06-18T11:01:26Z</time>
      </trkpt>
      <trkpt lat="43.34568" lon="-1.73996">
        <ele>67</ele>
        <time>2021-06-18T11:01:29Z</time>
      </trkpt>
      <trkpt lat="43.34555" lon="-1.73979">
        <ele>65</ele>
        <time>2021-06-18T11:01:33Z</time>
      </trkpt>
      <trkpt lat="43.34484" lon="-1.73997">
        <ele>59</ele>
        <time>2021-06-18T11:01:50Z</time>
      </trkpt>
      <trkpt lat="43.34392" lon="-1.74044">
        <ele>47</ele>
        <time>2021-06-18T11:02:13Z</time>
      </trkpt>
      <trkpt lat="43.34371" lon="-1.74065">
        <ele>46</ele>
        <time>2021-06-18T11:02:19Z</time>
      </trkpt>
      <trkpt lat="43.34356" lon="-1.74088">
        <ele>46</ele>
        <time>2021-06-18T11:02:24Z</time>
      </trkpt>
      <trkpt lat="43.34349" lon="-1.74092">
        <ele>46</ele>
        <time>2021-06-18T11:02:26Z</time>
      </trkpt>
      <trkpt lat="43.34316" lon="-1.74095">
        <ele>41</ele>
        <time>2021-06-18T11:02:34Z</time>
      </trkpt>
      <trkpt lat="43.34306" lon="-1.74103">
        <ele>39</ele>
        <time>2021-06-18T11:02:37Z</time>
      </trkpt>
      <trkpt lat="43.34287" lon="-1.74175">
        <ele>36</ele>
        <time>2021-06-18T11:02:50Z</time>
      </trkpt>
      <trkpt lat="43.34281" lon="-1.7416">
        <ele>34</ele>
        <time>2021-06-18T11:02:53Z</time>
      </trkpt>
      <trkpt lat="43.34269" lon="-1.74102">
        <ele>32</ele>
        <time>2021-06-18T11:03:03Z</time>
      </trkpt>
      <trkpt lat="43.34262" lon="-1.74098">
        <ele>31</ele>
        <time>2021-06-18T11:03:05Z</time>
      </trkpt>
      <trkpt lat="43.34261" lon="-1.74065">
        <ele>29</ele>
        <time>2021-06-18T11:03:10Z</time>
      </trkpt>
      <trkpt lat="43.34252" lon="-1.7402">
        <ele>25</ele>
        <time>2021-06-18T11:03:18Z</time>
      </trkpt>
      <trkpt lat="43.34252" lon="-1.73995">
        <ele>24</ele>
        <time>2021-06-18T11:03:22Z</time>
      </trkpt>
      <trkpt lat="43.34256" lon="-1.73973">
        <ele>25</ele>
        <time>2021-06-18T11:03:26Z</time>
      </trkpt>
      <trkpt lat="43.34218" lon="-1.73973">
        <ele>26</ele>
        <time>2021-06-18T11:03:35Z</time>
      </trkpt>
      <trkpt lat="43.34206" lon="-1.73978">
        <ele>27</ele>
        <time>2021-06-18T11:03:38Z</time>
      </trkpt>
      <trkpt lat="43.34172" lon="-1.74016">
        <ele>31</ele>
        <time>2021-06-18T11:03:48Z</time>
      </trkpt>
      <trkpt lat="43.34148" lon="-1.74033">
        <ele>35</ele>
        <time>2021-06-18T11:03:54Z</time>
      </trkpt>
      <trkpt lat="43.34126" lon="-1.7406">
        <ele>38</ele>
        <time>2021-06-18T11:04:01Z</time>
      </trkpt>
      <trkpt lat="43.34119" lon="-1.74064">
        <ele>39</ele>
        <time>2021-06-18T11:04:03Z</time>
      </trkpt>
      <trkpt lat="43.34082" lon="-1.74067">
        <ele>42</ele>
        <time>2021-06-18T11:04:12Z</time>
      </trkpt>
      <trkpt lat="43.34074" lon="-1.74074">
        <ele>44</ele>
        <time>2021-06-18T11:04:14Z</time>
      </trkpt>
      <trkpt lat="43.34071" lon="-1.74083">
        <ele>44</ele>
        <time>2021-06-18T11:04:16Z</time>
      </trkpt>
      <trkpt lat="43.34067" lon="-1.74119">
        <ele>44</ele>
        <time>2021-06-18T11:04:22Z</time>
      </trkpt>
      <trkpt lat="43.34063" lon="-1.74128">
        <ele>44</ele>
        <time>2021-06-18T11:04:24Z</time>
      </trkpt>
      <trkpt lat="43.34052" lon="-1.74143">
        <ele>45</ele>
        <time>2021-06-18T11:04:27Z</time>
      </trkpt>
      <trkpt lat="43.34044" lon="-1.74146">
        <ele>46</ele>
        <time>2021-06-18T11:04:29Z</time>
      </trkpt>
      <trkpt lat="43.34006" lon="-1.74145">
        <ele>52</ele>
        <time>2021-06-18T11:04:38Z</time>
      </trkpt>
      <trkpt lat="43.33947" lon="-1.74133">
        <ele>58</ele>
        <time>2021-06-18T11:04:52Z</time>
      </trkpt>
      <trkpt lat="43.33939" lon="-1.74127">
        <ele>60</ele>
        <time>2021-06-18T11:04:54Z</time>
      </trkpt>
      <trkpt lat="43.33928" lon="-1.74112">
        <ele>63</ele>
        <time>2021-06-18T11:04:58Z</time>
      </trkpt>
      <trkpt lat="43.33918" lon="-1.7411">
        <ele>64</ele>
        <time>2021-06-18T11:05:00Z</time>
      </trkpt>
      <trkpt lat="43.33883" lon="-1.74116">
        <ele>65</ele>
        <time>2021-06-18T11:05:08Z</time>
      </trkpt>
      <trkpt lat="43.33863" lon="-1.74129">
        <ele>63</ele>
        <time>2021-06-18T11:05:14Z</time>
      </trkpt>
      <trkpt lat="43.33835" lon="-1.74152">
        <ele>59</ele>
        <time>2021-06-18T11:05:21Z</time>
      </trkpt>
      <trkpt lat="43.33815" lon="-1.74159">
        <ele>57</ele>
        <time>2021-06-18T11:05:26Z</time>
      </trkpt>
      <trkpt lat="43.33805" lon="-1.7416">
        <ele>57</ele>
        <time>2021-06-18T11:05:28Z</time>
      </trkpt>
      <trkpt lat="43.33764" lon="-1.74148">
        <ele>59</ele>
        <time>2021-06-18T11:05:38Z</time>
      </trkpt>
      <trkpt lat="43.33729" lon="-1.74144">
        <ele>59</ele>
        <time>2021-06-18T11:05:46Z</time>
      </trkpt>
      <trkpt lat="43.33688" lon="-1.74123">
        <ele>60</ele>
        <time>2021-06-18T11:05:57Z</time>
      </trkpt>
      <trkpt lat="43.33658" lon="-1.74118">
        <ele>59</ele>
        <time>2021-06-18T11:06:04Z</time>
      </trkpt>
      <trkpt lat="43.33573" lon="-1.7412">
        <ele>55</ele>
        <time>2021-06-18T11:06:23Z</time>
      </trkpt>
      <trkpt lat="43.33547" lon="-1.74134">
        <ele>57</ele>
        <time>2021-06-18T11:06:30Z</time>
      </trkpt>
      <trkpt lat="43.33525" lon="-1.74137">
        <ele>58</ele>
        <time>2021-06-18T11:06:35Z</time>
      </trkpt>
      <trkpt lat="43.33501" lon="-1.74144">
        <ele>60</ele>
        <time>2021-06-18T11:06:41Z</time>
      </trkpt>
      <trkpt lat="43.33478" lon="-1.74156">
        <ele>63</ele>
        <time>2021-06-18T11:06:47Z</time>
      </trkpt>
      <trkpt lat="43.33469" lon="-1.74157">
        <ele>64</ele>
        <time>2021-06-18T11:06:49Z</time>
      </trkpt>
      <trkpt lat="43.33428" lon="-1.7414">
        <ele>65</ele>
        <time>2021-06-18T11:06:59Z</time>
      </trkpt>
      <trkpt lat="43.33405" lon="-1.74115">
        <ele>65</ele>
        <time>2021-06-18T11:07:06Z</time>
      </trkpt>
      <trkpt lat="43.33404" lon="-1.74103">
        <ele>64</ele>
        <time>2021-06-18T11:07:08Z</time>
      </trkpt>
      <trkpt lat="43.33351" lon="-1.74021">
        <ele>65</ele>
        <time>2021-06-18T11:07:26Z</time>
      </trkpt>
      <trkpt lat="43.33404" lon="-1.74103">
        <ele>64</ele>
        <time>2021-06-18T11:07:45Z</time>
      </trkpt>
      <trkpt lat="43.33405" lon="-1.74115">
        <ele>65</ele>
        <time>2021-06-18T11:07:47Z</time>
      </trkpt>
      <trkpt lat="43.33375" lon="-1.7408">
        <ele>65</ele>
        <time>2021-06-18T11:07:56Z</time>
      </trkpt>
      <trkpt lat="43.33341" lon="-1.74045">
        <ele>67</ele>
        <time>2021-06-18T11:08:06Z</time>
      </trkpt>
      <trkpt lat="43.33325" lon="-1.74032">
        <ele>67</ele>
        <time>2021-06-18T11:08:10Z</time>
      </trkpt>
      <trkpt lat="43.33309" lon="-1.74025">
        <ele>66</ele>
        <time>2021-06-18T11:08:14Z</time>
      </trkpt>
      <trkpt lat="43.3329" lon="-1.74032">
        <ele>64</ele>
        <time>2021-06-18T11:08:19Z</time>
      </trkpt>
      <trkpt lat="43.33275" lon="-1.73978">
        <ele>68</ele>
        <time>2021-06-18T11:08:29Z</time>
      </trkpt>
      <trkpt lat="43.33265" lon="-1.73952">
        <ele>70</ele>
        <time>2021-06-18T11:08:34Z</time>
      </trkpt>
      <trkpt lat="43.33262" lon="-1.7391">
        <ele>74</ele>
        <time>2021-06-18T11:08:41Z</time>
      </trkpt>
      <trkpt lat="43.33246" lon="-1.73848">
        <ele>83</ele>
        <time>2021-06-18T11:08:52Z</time>
      </trkpt>
      <trkpt lat="43.33249" lon="-1.7378">
        <ele>93</ele>
        <time>2021-06-18T11:09:04Z</time>
      </trkpt>
      <trkpt lat="43.33248" lon="-1.73755">
        <ele>96</ele>
        <time>2021-06-18T11:09:08Z</time>
      </trkpt>
      <trkpt lat="43.33243" lon="-1.73743">
        <ele>97</ele>
        <time>2021-06-18T11:09:10Z</time>
      </trkpt>
      <trkpt lat="43.33243" lon="-1.737">
        <ele>103</ele>
        <time>2021-06-18T11:09:18Z</time>
      </trkpt>
      <trkpt lat="43.3324" lon="-1.73699">
        <ele>103</ele>
        <time>2021-06-18T11:09:18Z</time>
      </trkpt>
      <trkpt lat="43.33226" lon="-1.73715">
        <ele>100</ele>
        <time>2021-06-18T11:09:23Z</time>
      </trkpt>
      <trkpt lat="43.33227" lon="-1.73694">
        <ele>103</ele>
        <time>2021-06-18T11:09:26Z</time>
      </trkpt>
      <trkpt lat="43.33225" lon="-1.73687">
        <ele>105</ele>
        <time>2021-06-18T11:09:27Z</time>
      </trkpt>
      <trkpt lat="43.3322" lon="-1.73684">
        <ele>105</ele>
        <time>2021-06-18T11:09:29Z</time>
      </trkpt>
      <trkpt lat="43.33202" lon="-1.73685">
        <ele>105</ele>
        <time>2021-06-18T11:09:33Z</time>
      </trkpt>
      <trkpt lat="43.33191" lon="-1.73677">
        <ele>107</ele>
        <time>2021-06-18T11:09:36Z</time>
      </trkpt>
      <trkpt lat="43.33189" lon="-1.73671">
        <ele>109</ele>
        <time>2021-06-18T11:09:37Z</time>
      </trkpt>
      <trkpt lat="43.33192" lon="-1.7364">
        <ele>113</ele>
        <time>2021-06-18T11:09:42Z</time>
      </trkpt>
      <trkpt lat="43.33191" lon="-1.73621">
        <ele>116</ele>
        <time>2021-06-18T11:09:45Z</time>
      </trkpt>
      <trkpt lat="43.33182" lon="-1.73575">
        <ele>123</ele>
        <time>2021-06-18T11:09:54Z</time>
      </trkpt>
      <trkpt lat="43.33179" lon="-1.7354">
        <ele>126</ele>
        <time>2021-06-18T11:09:59Z</time>
      </trkpt>
      <trkpt lat="43.33163" lon="-1.73499">
        <ele>132</ele>
        <time>2021-06-18T11:10:07Z</time>
      </trkpt>
      <trkpt lat="43.33143" lon="-1.73487">
        <ele>130</ele>
        <time>2021-06-18T11:10:12Z</time>
      </trkpt>
      <trkpt lat="43.33133" lon="-1.73469">
        <ele>131</ele>
        <time>2021-06-18T11:10:16Z</time>
      </trkpt>
      <trkpt lat="43.3312" lon="-1.73426">
        <ele>139</ele>
        <time>2021-06-18T11:10:24Z</time>
      </trkpt>
      <trkpt lat="43.3312" lon="-1.7341">
        <ele>142</ele>
        <time>2021-06-18T11:10:27Z</time>
      </trkpt>
      <trkpt lat="43.33074" lon="-1.73358">
        <ele>154</ele>
        <time>2021-06-18T11:10:41Z</time>
      </trkpt>
      <trkpt lat="43.33043" lon="-1.73309">
        <ele>158</ele>
        <time>2021-06-18T11:10:52Z</time>
      </trkpt>
      <trkpt lat="43.32997" lon="-1.7325">
        <ele>162</ele>
        <time>2021-06-18T11:11:07Z</time>
      </trkpt>
      <trkpt lat="43.32986" lon="-1.73232">
        <ele>160</ele>
        <time>2021-06-18T11:11:11Z</time>
      </trkpt>
      <trkpt lat="43.32972" lon="-1.73191">
        <ele>160</ele>
        <time>2021-06-18T11:11:18Z</time>
      </trkpt>
      <trkpt lat="43.32973" lon="-1.73182">
        <ele>162</ele>
        <time>2021-06-18T11:11:20Z</time>
      </trkpt>
      <trkpt lat="43.32979" lon="-1.73167">
        <ele>168</ele>
        <time>2021-06-18T11:11:23Z</time>
      </trkpt>
      <trkpt lat="43.32983" lon="-1.73139">
        <ele>174</ele>
        <time>2021-06-18T11:11:28Z</time>
      </trkpt>
      <trkpt lat="43.32983" lon="-1.73108">
        <ele>180</ele>
        <time>2021-06-18T11:11:33Z</time>
      </trkpt>
      <trkpt lat="43.3298" lon="-1.7308">
        <ele>184</ele>
        <time>2021-06-18T11:11:38Z</time>
      </trkpt>
      <trkpt lat="43.32978" lon="-1.73073">
        <ele>186</ele>
        <time>2021-06-18T11:11:39Z</time>
      </trkpt>
      <trkpt lat="43.32972" lon="-1.73067">
        <ele>187</ele>
        <time>2021-06-18T11:11:41Z</time>
      </trkpt>
      <trkpt lat="43.32957" lon="-1.73063">
        <ele>186</ele>
        <time>2021-06-18T11:11:44Z</time>
      </trkpt>
      <trkpt lat="43.32901" lon="-1.73086">
        <ele>172</ele>
        <time>2021-06-18T11:11:58Z</time>
      </trkpt>
      <trkpt lat="43.3282" lon="-1.73114">
        <ele>163</ele>
        <time>2021-06-18T11:12:17Z</time>
      </trkpt>
      <trkpt lat="43.32811" lon="-1.7311">
        <ele>164</ele>
        <time>2021-06-18T11:12:20Z</time>
      </trkpt>
      <trkpt lat="43.32771" lon="-1.73073">
        <ele>174</ele>
        <time>2021-06-18T11:12:31Z</time>
      </trkpt>
      <trkpt lat="43.32755" lon="-1.73037">
        <ele>184</ele>
        <time>2021-06-18T11:12:38Z</time>
      </trkpt>
      <trkpt lat="43.32742" lon="-1.73027">
        <ele>187</ele>
        <time>2021-06-18T11:12:42Z</time>
      </trkpt>
      <trkpt lat="43.32717" lon="-1.73014">
        <ele>191</ele>
        <time>2021-06-18T11:12:48Z</time>
      </trkpt>
      <trkpt lat="43.32707" lon="-1.73016">
        <ele>190</ele>
        <time>2021-06-18T11:12:50Z</time>
      </trkpt>
      <trkpt lat="43.32697" lon="-1.73022">
        <ele>188</ele>
        <time>2021-06-18T11:12:53Z</time>
      </trkpt>
      <trkpt lat="43.32681" lon="-1.73024">
        <ele>187</ele>
        <time>2021-06-18T11:12:56Z</time>
      </trkpt>
      <trkpt lat="43.32656" lon="-1.7302">
        <ele>188</ele>
        <time>2021-06-18T11:13:02Z</time>
      </trkpt>
      <trkpt lat="43.32621" lon="-1.73009">
        <ele>190</ele>
        <time>2021-06-18T11:13:11Z</time>
      </trkpt>
      <trkpt lat="43.32606" lon="-1.73001">
        <ele>192</ele>
        <time>2021-06-18T11:13:14Z</time>
      </trkpt>
      <trkpt lat="43.32566" lon="-1.72962">
        <ele>201</ele>
        <time>2021-06-18T11:13:26Z</time>
      </trkpt>
      <trkpt lat="43.3252" lon="-1.72926">
        <ele>209</ele>
        <time>2021-06-18T11:13:38Z</time>
      </trkpt>
      <trkpt lat="43.32502" lon="-1.72916">
        <ele>211</ele>
        <time>2021-06-18T11:13:43Z</time>
      </trkpt>
      <trkpt lat="43.32484" lon="-1.72914">
        <ele>212</ele>
        <time>2021-06-18T11:13:47Z</time>
      </trkpt>
      <trkpt lat="43.32452" lon="-1.72924">
        <ele>207</ele>
        <time>2021-06-18T11:13:55Z</time>
      </trkpt>
      <trkpt lat="43.3243" lon="-1.72922">
        <ele>208</ele>
        <time>2021-06-18T11:14:00Z</time>
      </trkpt>
      <trkpt lat="43.32416" lon="-1.72913">
        <ele>210</ele>
        <time>2021-06-18T11:14:03Z</time>
      </trkpt>
      <trkpt lat="43.32399" lon="-1.72897">
        <ele>214</ele>
        <time>2021-06-18T11:14:08Z</time>
      </trkpt>
      <trkpt lat="43.32388" lon="-1.72892">
        <ele>216</ele>
        <time>2021-06-18T11:14:11Z</time>
      </trkpt>
      <trkpt lat="43.32368" lon="-1.72898">
        <ele>213</ele>
        <time>2021-06-18T11:14:16Z</time>
      </trkpt>
      <trkpt lat="43.32345" lon="-1.72901">
        <ele>212</ele>
        <time>2021-06-18T11:14:21Z</time>
      </trkpt>
      <trkpt lat="43.32329" lon="-1.72901">
        <ele>211</ele>
        <time>2021-06-18T11:14:25Z</time>
      </trkpt>
      <trkpt lat="43.32314" lon="-1.72894">
        <ele>210</ele>
        <time>2021-06-18T11:14:29Z</time>
      </trkpt>
      <trkpt lat="43.32297" lon="-1.7288">
        <ele>209</ele>
        <time>2021-06-18T11:14:33Z</time>
      </trkpt>
      <trkpt lat="43.3229" lon="-1.7287">
        <ele>210</ele>
        <time>2021-06-18T11:14:36Z</time>
      </trkpt>
      <trkpt lat="43.32287" lon="-1.72841">
        <ele>216</ele>
        <time>2021-06-18T11:14:41Z</time>
      </trkpt>
      <trkpt lat="43.32283" lon="-1.7283">
        <ele>217</ele>
        <time>2021-06-18T11:14:43Z</time>
      </trkpt>
      <trkpt lat="43.32273" lon="-1.72821">
        <ele>218</ele>
        <time>2021-06-18T11:14:45Z</time>
      </trkpt>
      <trkpt lat="43.32261" lon="-1.72816">
        <ele>216</ele>
        <time>2021-06-18T11:14:48Z</time>
      </trkpt>
      <trkpt lat="43.32229" lon="-1.72791">
        <ele>219</ele>
        <time>2021-06-18T11:14:57Z</time>
      </trkpt>
      <trkpt lat="43.322" lon="-1.7278">
        <ele>219</ele>
        <time>2021-06-18T11:15:04Z</time>
      </trkpt>
      <trkpt lat="43.32163" lon="-1.72807">
        <ele>209</ele>
        <time>2021-06-18T11:15:14Z</time>
      </trkpt>
      <trkpt lat="43.31997" lon="-1.72856">
        <ele>202</ele>
        <time>2021-06-18T11:15:53Z</time>
      </trkpt>
      <trkpt lat="43.3196" lon="-1.72861">
        <ele>199</ele>
        <time>2021-06-18T11:16:02Z</time>
      </trkpt>
      <trkpt lat="43.31911" lon="-1.72852">
        <ele>199</ele>
        <time>2021-06-18T11:16:14Z</time>
      </trkpt>
      <trkpt lat="43.31817" lon="-1.7281">
        <ele>203</ele>
        <time>2021-06-18T11:16:37Z</time>
      </trkpt>
      <trkpt lat="43.31763" lon="-1.72803">
        <ele>205</ele>
        <time>2021-06-18T11:16:49Z</time>
      </trkpt>
      <trkpt lat="43.31699" lon="-1.72801">
        <ele>204</ele>
        <time>2021-06-18T11:17:04Z</time>
      </trkpt>
      <trkpt lat="43.31607" lon="-1.72831">
        <ele>196</ele>
        <time>2021-06-18T11:17:26Z</time>
      </trkpt>
      <trkpt lat="43.31596" lon="-1.72832">
        <ele>196</ele>
        <time>2021-06-18T11:17:29Z</time>
      </trkpt>
      <trkpt lat="43.31584" lon="-1.7283">
        <ele>197</ele>
        <time>2021-06-18T11:17:32Z</time>
      </trkpt>
      <trkpt lat="43.3153" lon="-1.7281">
        <ele>199</ele>
        <time>2021-06-18T11:17:45Z</time>
      </trkpt>
      <trkpt lat="43.31451" lon="-1.72771">
        <ele>193</ele>
        <time>2021-06-18T11:18:04Z</time>
      </trkpt>
      <trkpt lat="43.31411" lon="-1.72712">
        <ele>191</ele>
        <time>2021-06-18T11:18:18Z</time>
      </trkpt>
      <trkpt lat="43.31413" lon="-1.72683">
        <ele>196</ele>
        <time>2021-06-18T11:18:23Z</time>
      </trkpt>
      <trkpt lat="43.31419" lon="-1.72655">
        <ele>202</ele>
        <time>2021-06-18T11:18:28Z</time>
      </trkpt>
      <trkpt lat="43.31431" lon="-1.72561">
        <ele>218</ele>
        <time>2021-06-18T11:18:44Z</time>
      </trkpt>
      <trkpt lat="43.31435" lon="-1.72473">
        <ele>229</ele>
        <time>2021-06-18T11:18:59Z</time>
      </trkpt>
      <trkpt lat="43.31445" lon="-1.72388">
        <ele>235</ele>
        <time>2021-06-18T11:19:14Z</time>
      </trkpt>
      <trkpt lat="43.31445" lon="-1.72372">
        <ele>236</ele>
        <time>2021-06-18T11:19:17Z</time>
      </trkpt>
      <trkpt lat="43.31467" lon="-1.72278">
        <ele>246</ele>
        <time>2021-06-18T11:19:33Z</time>
      </trkpt>
      <trkpt lat="43.31488" lon="-1.72222">
        <ele>253</ele>
        <time>2021-06-18T11:19:44Z</time>
      </trkpt>
      <trkpt lat="43.31504" lon="-1.72141">
        <ele>253</ele>
        <time>2021-06-18T11:19:58Z</time>
      </trkpt>
      <trkpt lat="43.31521" lon="-1.72082">
        <ele>258</ele>
        <time>2021-06-18T11:20:09Z</time>
      </trkpt>
      <trkpt lat="43.31533" lon="-1.72058">
        <ele>263</ele>
        <time>2021-06-18T11:20:14Z</time>
      </trkpt>
      <trkpt lat="43.31586" lon="-1.71981">
        <ele>275</ele>
        <time>2021-06-18T11:20:32Z</time>
      </trkpt>
      <trkpt lat="43.31591" lon="-1.71965">
        <ele>277</ele>
        <time>2021-06-18T11:20:35Z</time>
      </trkpt>
      <trkpt lat="43.31597" lon="-1.71927">
        <ele>280</ele>
        <time>2021-06-18T11:20:42Z</time>
      </trkpt>
      <trkpt lat="43.31603" lon="-1.7191">
        <ele>282</ele>
        <time>2021-06-18T11:20:45Z</time>
      </trkpt>
      <trkpt lat="43.31627" lon="-1.71888">
        <ele>292</ele>
        <time>2021-06-18T11:20:52Z</time>
      </trkpt>
      <trkpt lat="43.31648" lon="-1.71881">
        <ele>297</ele>
        <time>2021-06-18T11:20:57Z</time>
      </trkpt>
      <trkpt lat="43.31659" lon="-1.71873">
        <ele>300</ele>
        <time>2021-06-18T11:21:00Z</time>
      </trkpt>
      <trkpt lat="43.31676" lon="-1.71849">
        <ele>304</ele>
        <time>2021-06-18T11:21:05Z</time>
      </trkpt>
      <trkpt lat="43.31678" lon="-1.71839">
        <ele>304</ele>
        <time>2021-06-18T11:21:07Z</time>
      </trkpt>
      <trkpt lat="43.31677" lon="-1.71777">
        <ele>310</ele>
        <time>2021-06-18T11:21:18Z</time>
      </trkpt>
      <trkpt lat="43.31684" lon="-1.71707">
        <ele>317</ele>
        <time>2021-06-18T11:21:30Z</time>
      </trkpt>
      <trkpt lat="43.31703" lon="-1.71692">
        <ele>318</ele>
        <time>2021-06-18T11:21:35Z</time>
      </trkpt>
      <trkpt lat="43.31719" lon="-1.71666">
        <ele>317</ele>
        <time>2021-06-18T11:21:40Z</time>
      </trkpt>
      <trkpt lat="43.31706" lon="-1.71661">
        <ele>318</ele>
        <time>2021-06-18T11:21:44Z</time>
      </trkpt>
      <trkpt lat="43.31679" lon="-1.71618">
        <ele>320</ele>
        <time>2021-06-18T11:21:53Z</time>
      </trkpt>
      <trkpt lat="43.31665" lon="-1.716">
        <ele>323</ele>
        <time>2021-06-18T11:21:58Z</time>
      </trkpt>
      <trkpt lat="43.31646" lon="-1.71563">
        <ele>328</ele>
        <time>2021-06-18T11:22:05Z</time>
      </trkpt>
      <trkpt lat="43.31629" lon="-1.71544">
        <ele>334</ele>
        <time>2021-06-18T11:22:11Z</time>
      </trkpt>
      <trkpt lat="43.31616" lon="-1.71518">
        <ele>339</ele>
        <time>2021-06-18T11:22:16Z</time>
      </trkpt>
      <trkpt lat="43.31593" lon="-1.71485">
        <ele>348</ele>
        <time>2021-06-18T11:22:24Z</time>
      </trkpt>
      <trkpt lat="43.31536" lon="-1.71451">
        <ele>361</ele>
        <time>2021-06-18T11:22:38Z</time>
      </trkpt>
      <trkpt lat="43.31524" lon="-1.71447">
        <ele>365</ele>
        <time>2021-06-18T11:22:41Z</time>
      </trkpt>
      <trkpt lat="43.31512" lon="-1.71438">
        <ele>367</ele>
        <time>2021-06-18T11:22:44Z</time>
      </trkpt>
      <trkpt lat="43.31497" lon="-1.71438">
        <ele>372</ele>
        <time>2021-06-18T11:22:48Z</time>
      </trkpt>
      <trkpt lat="43.31476" lon="-1.71424">
        <ele>375</ele>
        <time>2021-06-18T11:22:53Z</time>
      </trkpt>
      <trkpt lat="43.31469" lon="-1.71428">
        <ele>377</ele>
        <time>2021-06-18T11:22:55Z</time>
      </trkpt>
      <trkpt lat="43.31463" lon="-1.71427">
        <ele>379</ele>
        <time>2021-06-18T11:22:56Z</time>
      </trkpt>
      <trkpt lat="43.31407" lon="-1.71386">
        <ele>382</ele>
        <time>2021-06-18T11:23:11Z</time>
      </trkpt>
      <trkpt lat="43.31361" lon="-1.71365">
        <ele>386</ele>
        <time>2021-06-18T11:23:23Z</time>
      </trkpt>
      <trkpt lat="43.31314" lon="-1.71349">
        <ele>391</ele>
        <time>2021-06-18T11:23:34Z</time>
      </trkpt>
      <trkpt lat="43.31307" lon="-1.71351">
        <ele>393</ele>
        <time>2021-06-18T11:23:36Z</time>
      </trkpt>
      <trkpt lat="43.31303" lon="-1.71347">
        <ele>392</ele>
        <time>2021-06-18T11:23:37Z</time>
      </trkpt>
      <trkpt lat="43.31297" lon="-1.71347">
        <ele>393</ele>
        <time>2021-06-18T11:23:38Z</time>
      </trkpt>
      <trkpt lat="43.31294" lon="-1.7135">
        <ele>395</ele>
        <time>2021-06-18T11:23:39Z</time>
      </trkpt>
      <trkpt lat="43.31287" lon="-1.71347">
        <ele>395</ele>
        <time>2021-06-18T11:23:41Z</time>
      </trkpt>
      <trkpt lat="43.31259" lon="-1.71346">
        <ele>400</ele>
        <time>2021-06-18T11:23:47Z</time>
      </trkpt>
      <trkpt lat="43.31205" lon="-1.7133">
        <ele>405</ele>
        <time>2021-06-18T11:24:00Z</time>
      </trkpt>
      <trkpt lat="43.31142" lon="-1.71285">
        <ele>406</ele>
        <time>2021-06-18T11:24:17Z</time>
      </trkpt>
      <trkpt lat="43.31136" lon="-1.71278">
        <ele>406</ele>
        <time>2021-06-18T11:24:18Z</time>
      </trkpt>
      <trkpt lat="43.31114" lon="-1.71266">
        <ele>410</ele>
        <time>2021-06-18T11:24:24Z</time>
      </trkpt>
      <trkpt lat="43.311" lon="-1.7125">
        <ele>411</ele>
        <time>2021-06-18T11:24:28Z</time>
      </trkpt>
      <trkpt lat="43.31102" lon="-1.71245">
        <ele>411</ele>
        <time>2021-06-18T11:24:29Z</time>
      </trkpt>
      <trkpt lat="43.3108" lon="-1.71143">
        <ele>420</ele>
        <time>2021-06-18T11:24:47Z</time>
      </trkpt>
      <trkpt lat="43.31093" lon="-1.71085">
        <ele>429</ele>
        <time>2021-06-18T11:24:58Z</time>
      </trkpt>
      <trkpt lat="43.31094" lon="-1.71056">
        <ele>434</ele>
        <time>2021-06-18T11:25:03Z</time>
      </trkpt>
      <trkpt lat="43.31092" lon="-1.71043">
        <ele>437</ele>
        <time>2021-06-18T11:25:05Z</time>
      </trkpt>
      <trkpt lat="43.31097" lon="-1.71">
        <ele>445</ele>
        <time>2021-06-18T11:25:12Z</time>
      </trkpt>
      <trkpt lat="43.31079" lon="-1.70889">
        <ele>469</ele>
        <time>2021-06-18T11:25:32Z</time>
      </trkpt>
      <trkpt lat="43.31078" lon="-1.70854">
        <ele>475</ele>
        <time>2021-06-18T11:25:38Z</time>
      </trkpt>
      <trkpt lat="43.31066" lon="-1.70813">
        <ele>479</ele>
        <time>2021-06-18T11:25:45Z</time>
      </trkpt>
      <trkpt lat="43.31062" lon="-1.70783">
        <ele>481</ele>
        <time>2021-06-18T11:25:50Z</time>
      </trkpt>
      <trkpt lat="43.31041" lon="-1.70734">
        <ele>486</ele>
        <time>2021-06-18T11:26:00Z</time>
      </trkpt>
      <trkpt lat="43.31005" lon="-1.70677">
        <ele>498</ele>
        <time>2021-06-18T11:26:13Z</time>
      </trkpt>
      <trkpt lat="43.30993" lon="-1.70642">
        <ele>504</ele>
        <time>2021-06-18T11:26:19Z</time>
      </trkpt>
      <trkpt lat="43.30987" lon="-1.70614">
        <ele>508</ele>
        <time>2021-06-18T11:26:24Z</time>
      </trkpt>
      <trkpt lat="43.30985" lon="-1.70539">
        <ele>517</ele>
        <time>2021-06-18T11:26:37Z</time>
      </trkpt>
      <trkpt lat="43.30996" lon="-1.705">
        <ele>520</ele>
        <time>2021-06-18T11:26:44Z</time>
      </trkpt>
      <trkpt lat="43.31018" lon="-1.70459">
        <ele>518</ele>
        <time>2021-06-18T11:26:53Z</time>
      </trkpt>
      <trkpt lat="43.31033" lon="-1.70412">
        <ele>518</ele>
        <time>2021-06-18T11:27:01Z</time>
      </trkpt>
      <trkpt lat="43.31039" lon="-1.70376">
        <ele>516</ele>
        <time>2021-06-18T11:27:08Z</time>
      </trkpt>
      <trkpt lat="43.3104" lon="-1.70326">
        <ele>517</ele>
        <time>2021-06-18T11:27:16Z</time>
      </trkpt>
      <trkpt lat="43.31038" lon="-1.70294">
        <ele>514</ele>
        <time>2021-06-18T11:27:22Z</time>
      </trkpt>
      <trkpt lat="43.3104" lon="-1.70283">
        <ele>512</ele>
        <time>2021-06-18T11:27:24Z</time>
      </trkpt>
      <trkpt lat="43.31019" lon="-1.70243">
        <ele>519</ele>
        <time>2021-06-18T11:27:32Z</time>
      </trkpt>
      <trkpt lat="43.31018" lon="-1.70214">
        <ele>521</ele>
        <time>2021-06-18T11:27:37Z</time>
      </trkpt>
      <trkpt lat="43.31011" lon="-1.70195">
        <ele>524</ele>
        <time>2021-06-18T11:27:41Z</time>
      </trkpt>
      <trkpt lat="43.31012" lon="-1.70187">
        <ele>524</ele>
        <time>2021-06-18T11:27:42Z</time>
      </trkpt>
      <trkpt lat="43.31017" lon="-1.70184">
        <ele>523</ele>
        <time>2021-06-18T11:27:43Z</time>
      </trkpt>
      <trkpt lat="43.3103" lon="-1.70183">
        <ele>517</ele>
        <time>2021-06-18T11:27:46Z</time>
      </trkpt>
      <trkpt lat="43.31057" lon="-1.70153">
        <ele>511</ele>
        <time>2021-06-18T11:27:54Z</time>
      </trkpt>
      <trkpt lat="43.31081" lon="-1.70139">
        <ele>506</ele>
        <time>2021-06-18T11:28:00Z</time>
      </trkpt>
      <trkpt lat="43.31138" lon="-1.70089">
        <ele>503</ele>
        <time>2021-06-18T11:28:16Z</time>
      </trkpt>
      <trkpt lat="43.31157" lon="-1.7008">
        <ele>499</ele>
        <time>2021-06-18T11:28:21Z</time>
      </trkpt>
      <trkpt lat="43.31162" lon="-1.70075">
        <ele>498</ele>
        <time>2021-06-18T11:28:22Z</time>
      </trkpt>
      <trkpt lat="43.31165" lon="-1.70021">
        <ele>504</ele>
        <time>2021-06-18T11:28:32Z</time>
      </trkpt>
      <trkpt lat="43.3119" lon="-1.69822">
        <ele>495</ele>
        <time>2021-06-18T11:29:06Z</time>
      </trkpt>
      <trkpt lat="43.31185" lon="-1.69803">
        <ele>495</ele>
        <time>2021-06-18T11:29:09Z</time>
      </trkpt>
      <trkpt lat="43.3118" lon="-1.69747">
        <ele>494</ele>
        <time>2021-06-18T11:29:19Z</time>
      </trkpt>
      <trkpt lat="43.31181" lon="-1.6973">
        <ele>492</ele>
        <time>2021-06-18T11:29:22Z</time>
      </trkpt>
      <trkpt lat="43.31172" lon="-1.69694">
        <ele>491</ele>
        <time>2021-06-18T11:29:28Z</time>
      </trkpt>
      <trkpt lat="43.31168" lon="-1.69688">
        <ele>492</ele>
        <time>2021-06-18T11:29:30Z</time>
      </trkpt>
      <trkpt lat="43.31169" lon="-1.69644">
        <ele>486</ele>
        <time>2021-06-18T11:29:37Z</time>
      </trkpt>
      <trkpt lat="43.31171" lon="-1.69635">
        <ele>484</ele>
        <time>2021-06-18T11:29:39Z</time>
      </trkpt>
      <trkpt lat="43.31187" lon="-1.69609">
        <ele>478</ele>
        <time>2021-06-18T11:29:45Z</time>
      </trkpt>
      <trkpt lat="43.31192" lon="-1.69591">
        <ele>475</ele>
        <time>2021-06-18T11:29:48Z</time>
      </trkpt>
      <trkpt lat="43.31194" lon="-1.69506">
        <ele>460</ele>
        <time>2021-06-18T11:30:02Z</time>
      </trkpt>
      <trkpt lat="43.31193" lon="-1.69495">
        <ele>457</ele>
        <time>2021-06-18T11:30:04Z</time>
      </trkpt>
      <trkpt lat="43.31185" lon="-1.69489">
        <ele>456</ele>
        <time>2021-06-18T11:30:06Z</time>
      </trkpt>
      <trkpt lat="43.31182" lon="-1.69482">
        <ele>454</ele>
        <time>2021-06-18T11:30:08Z</time>
      </trkpt>
      <trkpt lat="43.31175" lon="-1.69475">
        <ele>453</ele>
        <time>2021-06-18T11:30:10Z</time>
      </trkpt>
      <trkpt lat="43.31176" lon="-1.69468">
        <ele>451</ele>
        <time>2021-06-18T11:30:11Z</time>
      </trkpt>
      <trkpt lat="43.3117" lon="-1.69449">
        <ele>446</ele>
        <time>2021-06-18T11:30:14Z</time>
      </trkpt>
      <trkpt lat="43.3117" lon="-1.6944">
        <ele>444</ele>
        <time>2021-06-18T11:30:16Z</time>
      </trkpt>
      <trkpt lat="43.31163" lon="-1.69427">
        <ele>440</ele>
        <time>2021-06-18T11:30:19Z</time>
      </trkpt>
      <trkpt lat="43.31156" lon="-1.69384">
        <ele>427</ele>
        <time>2021-06-18T11:30:26Z</time>
      </trkpt>
      <trkpt lat="43.31177" lon="-1.6936">
        <ele>420</ele>
        <time>2021-06-18T11:30:33Z</time>
      </trkpt>
      <trkpt lat="43.31196" lon="-1.69332">
        <ele>409</ele>
        <time>2021-06-18T11:30:39Z</time>
      </trkpt>
      <trkpt lat="43.31205" lon="-1.69314">
        <ele>403</ele>
        <time>2021-06-18T11:30:43Z</time>
      </trkpt>
      <trkpt lat="43.31199" lon="-1.69309">
        <ele>402</ele>
        <time>2021-06-18T11:30:44Z</time>
      </trkpt>
      <trkpt lat="43.31187" lon="-1.6929">
        <ele>398</ele>
        <time>2021-06-18T11:30:49Z</time>
      </trkpt>
      <trkpt lat="43.31184" lon="-1.69293">
        <ele>400</ele>
        <time>2021-06-18T11:30:50Z</time>
      </trkpt>
      <trkpt lat="43.31178" lon="-1.69293">
        <ele>400</ele>
        <time>2021-06-18T11:30:51Z</time>
      </trkpt>
      <trkpt lat="43.3116" lon="-1.69277">
        <ele>396</ele>
        <time>2021-06-18T11:30:56Z</time>
      </trkpt>
      <trkpt lat="43.31156" lon="-1.69246">
        <ele>387</ele>
        <time>2021-06-18T11:31:01Z</time>
      </trkpt>
      <trkpt lat="43.31141" lon="-1.69187">
        <ele>376</ele>
        <time>2021-06-18T11:31:12Z</time>
      </trkpt>
      <trkpt lat="43.31137" lon="-1.69147">
        <ele>370</ele>
        <time>2021-06-18T11:31:19Z</time>
      </trkpt>
      <trkpt lat="43.31138" lon="-1.69133">
        <ele>368</ele>
        <time>2021-06-18T11:31:21Z</time>
      </trkpt>
      <trkpt lat="43.3115" lon="-1.69093">
        <ele>364</ele>
        <time>2021-06-18T11:31:29Z</time>
      </trkpt>
      <trkpt lat="43.31153" lon="-1.69073">
        <ele>362</ele>
        <time>2021-06-18T11:31:32Z</time>
      </trkpt>
      <trkpt lat="43.31151" lon="-1.69039">
        <ele>359</ele>
        <time>2021-06-18T11:31:38Z</time>
      </trkpt>
      <trkpt lat="43.31143" lon="-1.69007">
        <ele>355</ele>
        <time>2021-06-18T11:31:44Z</time>
      </trkpt>
      <trkpt lat="43.31137" lon="-1.68992">
        <ele>354</ele>
        <time>2021-06-18T11:31:46Z</time>
      </trkpt>
      <trkpt lat="43.31123" lon="-1.6897">
        <ele>351</ele>
        <time>2021-06-18T11:31:51Z</time>
      </trkpt>
      <trkpt lat="43.31097" lon="-1.68947">
        <ele>350</ele>
        <time>2021-06-18T11:31:59Z</time>
      </trkpt>
      <trkpt lat="43.31067" lon="-1.68893">
        <ele>346</ele>
        <time>2021-06-18T11:32:10Z</time>
      </trkpt>
      <trkpt lat="43.31003" lon="-1.68762">
        <ele>337</ele>
        <time>2021-06-18T11:32:37Z</time>
      </trkpt>
      <trkpt lat="43.30968" lon="-1.68701">
        <ele>329</ele>
        <time>2021-06-18T11:32:50Z</time>
      </trkpt>
      <trkpt lat="43.30959" lon="-1.68678">
        <ele>327</ele>
        <time>2021-06-18T11:32:55Z</time>
      </trkpt>
      <trkpt lat="43.30945" lon="-1.6862">
        <ele>321</ele>
        <time>2021-06-18T11:33:05Z</time>
      </trkpt>
      <trkpt lat="43.30939" lon="-1.68563">
        <ele>315</ele>
        <time>2021-06-18T11:33:15Z</time>
      </trkpt>
      <trkpt lat="43.30942" lon="-1.68538">
        <ele>314</ele>
        <time>2021-06-18T11:33:19Z</time>
      </trkpt>
      <trkpt lat="43.30957" lon="-1.68464">
        <ele>314</ele>
        <time>2021-06-18T11:33:32Z</time>
      </trkpt>
      <trkpt lat="43.30962" lon="-1.68449">
        <ele>315</ele>
        <time>2021-06-18T11:33:35Z</time>
      </trkpt>
      <trkpt lat="43.30965" lon="-1.68444">
        <ele>316</ele>
        <time>2021-06-18T11:33:36Z</time>
      </trkpt>
      <trkpt lat="43.30971" lon="-1.68442">
        <ele>316</ele>
        <time>2021-06-18T11:33:38Z</time>
      </trkpt>
      <trkpt lat="43.30972" lon="-1.68437">
        <ele>317</ele>
        <time>2021-06-18T11:33:38Z</time>
      </trkpt>
      <trkpt lat="43.3098" lon="-1.68437">
        <ele>317</ele>
        <time>2021-06-18T11:33:40Z</time>
      </trkpt>
      <trkpt lat="43.31034" lon="-1.68456">
        <ele>316</ele>
        <time>2021-06-18T11:33:53Z</time>
      </trkpt>
      <trkpt lat="43.3109" lon="-1.68428">
        <ele>322</ele>
        <time>2021-06-18T11:34:07Z</time>
      </trkpt>
      <trkpt lat="43.31109" lon="-1.68428">
        <ele>322</ele>
        <time>2021-06-18T11:34:12Z</time>
      </trkpt>
      <trkpt lat="43.31122" lon="-1.68419">
        <ele>324</ele>
        <time>2021-06-18T11:34:15Z</time>
      </trkpt>
      <trkpt lat="43.31128" lon="-1.68411">
        <ele>326</ele>
        <time>2021-06-18T11:34:17Z</time>
      </trkpt>
      <trkpt lat="43.3115" lon="-1.68392">
        <ele>332</ele>
        <time>2021-06-18T11:34:23Z</time>
      </trkpt>
      <trkpt lat="43.31154" lon="-1.68383">
        <ele>334</ele>
        <time>2021-06-18T11:34:25Z</time>
      </trkpt>
      <trkpt lat="43.31151" lon="-1.6837">
        <ele>338</ele>
        <time>2021-06-18T11:34:27Z</time>
      </trkpt>
      <trkpt lat="43.31151" lon="-1.68351">
        <ele>344</ele>
        <time>2021-06-18T11:34:30Z</time>
      </trkpt>
      <trkpt lat="43.31159" lon="-1.68325">
        <ele>352</ele>
        <time>2021-06-18T11:34:35Z</time>
      </trkpt>
      <trkpt lat="43.3115" lon="-1.68312">
        <ele>355</ele>
        <time>2021-06-18T11:34:38Z</time>
      </trkpt>
      <trkpt lat="43.31151" lon="-1.68297">
        <ele>359</ele>
        <time>2021-06-18T11:34:41Z</time>
      </trkpt>
      <trkpt lat="43.31158" lon="-1.68278">
        <ele>364</ele>
        <time>2021-06-18T11:34:44Z</time>
      </trkpt>
      <trkpt lat="43.31159" lon="-1.68266">
        <ele>367</ele>
        <time>2021-06-18T11:34:46Z</time>
      </trkpt>
      <trkpt lat="43.31157" lon="-1.68253">
        <ele>370</ele>
        <time>2021-06-18T11:34:49Z</time>
      </trkpt>
      <trkpt lat="43.3115" lon="-1.68244">
        <ele>372</ele>
        <time>2021-06-18T11:34:51Z</time>
      </trkpt>
      <trkpt lat="43.31153" lon="-1.68232">
        <ele>374</ele>
        <time>2021-06-18T11:34:53Z</time>
      </trkpt>
      <trkpt lat="43.31152" lon="-1.68226">
        <ele>375</ele>
        <time>2021-06-18T11:34:54Z</time>
      </trkpt>
      <trkpt lat="43.31121" lon="-1.68217">
        <ele>376</ele>
        <time>2021-06-18T11:35:02Z</time>
      </trkpt>
      <trkpt lat="43.3109" lon="-1.68203">
        <ele>378</ele>
        <time>2021-06-18T11:35:09Z</time>
      </trkpt>
      <trkpt lat="43.31079" lon="-1.6819">
        <ele>378</ele>
        <time>2021-06-18T11:35:13Z</time>
      </trkpt>
      <trkpt lat="43.3107" lon="-1.68174">
        <ele>379</ele>
        <time>2021-06-18T11:35:16Z</time>
      </trkpt>
      <trkpt lat="43.31069" lon="-1.68168">
        <ele>379</ele>
        <time>2021-06-18T11:35:17Z</time>
      </trkpt>
      <trkpt lat="43.31072" lon="-1.68159">
        <ele>381</ele>
        <time>2021-06-18T11:35:19Z</time>
      </trkpt>
      <trkpt lat="43.31094" lon="-1.68148">
        <ele>382</ele>
        <time>2021-06-18T11:35:24Z</time>
      </trkpt>
      <trkpt lat="43.31161" lon="-1.68105">
        <ele>377</ele>
        <time>2021-06-18T11:35:41Z</time>
      </trkpt>
      <trkpt lat="43.31213" lon="-1.68077">
        <ele>373</ele>
        <time>2021-06-18T11:35:55Z</time>
      </trkpt>
      <trkpt lat="43.31225" lon="-1.68066">
        <ele>372</ele>
        <time>2021-06-18T11:35:58Z</time>
      </trkpt>
      <trkpt lat="43.31241" lon="-1.68059">
        <ele>370</ele>
        <time>2021-06-18T11:36:02Z</time>
      </trkpt>
      <trkpt lat="43.31253" lon="-1.68049">
        <ele>368</ele>
        <time>2021-06-18T11:36:05Z</time>
      </trkpt>
      <trkpt lat="43.3126" lon="-1.68037">
        <ele>366</ele>
        <time>2021-06-18T11:36:08Z</time>
      </trkpt>
      <trkpt lat="43.31299" lon="-1.67997">
        <ele>360</ele>
        <time>2021-06-18T11:36:19Z</time>
      </trkpt>
      <trkpt lat="43.31318" lon="-1.67973">
        <ele>360</ele>
        <time>2021-06-18T11:36:25Z</time>
      </trkpt>
      <trkpt lat="43.31331" lon="-1.67964">
        <ele>358</ele>
        <time>2021-06-18T11:36:28Z</time>
      </trkpt>
      <trkpt lat="43.31339" lon="-1.67951">
        <ele>357</ele>
        <time>2021-06-18T11:36:31Z</time>
      </trkpt>
      <trkpt lat="43.31377" lon="-1.67925">
        <ele>353</ele>
        <time>2021-06-18T11:36:41Z</time>
      </trkpt>
      <trkpt lat="43.31389" lon="-1.6791">
        <ele>351</ele>
        <time>2021-06-18T11:36:45Z</time>
      </trkpt>
      <trkpt lat="43.314" lon="-1.67887">
        <ele>349</ele>
        <time>2021-06-18T11:36:50Z</time>
      </trkpt>
      <trkpt lat="43.31468" lon="-1.67849">
        <ele>338</ele>
        <time>2021-06-18T11:37:07Z</time>
      </trkpt>
      <trkpt lat="43.31418" lon="-1.67791">
        <ele>341</ele>
        <time>2021-06-18T11:37:22Z</time>
      </trkpt>
      <trkpt lat="43.31404" lon="-1.67723">
        <ele>341</ele>
        <time>2021-06-18T11:37:34Z</time>
      </trkpt>
      <trkpt lat="43.31348" lon="-1.67571">
        <ele>354</ele>
        <time>2021-06-18T11:38:03Z</time>
      </trkpt>
      <trkpt lat="43.31338" lon="-1.67511">
        <ele>352</ele>
        <time>2021-06-18T11:38:14Z</time>
      </trkpt>
      <trkpt lat="43.31336" lon="-1.67478">
        <ele>347</ele>
        <time>2021-06-18T11:38:19Z</time>
      </trkpt>
      <trkpt lat="43.31315" lon="-1.67418">
        <ele>344</ele>
        <time>2021-06-18T11:38:31Z</time>
      </trkpt>
      <trkpt lat="43.31295" lon="-1.67391">
        <ele>348</ele>
        <time>2021-06-18T11:38:37Z</time>
      </trkpt>
      <trkpt lat="43.31284" lon="-1.6736">
        <ele>346</ele>
        <time>2021-06-18T11:38:43Z</time>
      </trkpt>
      <trkpt lat="43.31277" lon="-1.6732">
        <ele>339</ele>
        <time>2021-06-18T11:38:50Z</time>
      </trkpt>
      <trkpt lat="43.31282" lon="-1.67306">
        <ele>334</ele>
        <time>2021-06-18T11:38:53Z</time>
      </trkpt>
      <trkpt lat="43.31301" lon="-1.67279">
        <ele>322</ele>
        <time>2021-06-18T11:38:59Z</time>
      </trkpt>
      <trkpt lat="43.31346" lon="-1.67256">
        <ele>304</ele>
        <time>2021-06-18T11:39:10Z</time>
      </trkpt>
      <trkpt lat="43.31351" lon="-1.6726">
        <ele>302</ele>
        <time>2021-06-18T11:39:12Z</time>
      </trkpt>
      <trkpt lat="43.31368" lon="-1.67292">
        <ele>298</ele>
        <time>2021-06-18T11:39:18Z</time>
      </trkpt>
      <trkpt lat="43.31381" lon="-1.67254">
        <ele>289</ele>
        <time>2021-06-18T11:39:25Z</time>
      </trkpt>
      <trkpt lat="43.31384" lon="-1.67251">
        <ele>287</ele>
        <time>2021-06-18T11:39:26Z</time>
      </trkpt>
      <trkpt lat="43.31394" lon="-1.67209">
        <ele>277</ele>
        <time>2021-06-18T11:39:34Z</time>
      </trkpt>
      <trkpt lat="43.31396" lon="-1.67186">
        <ele>273</ele>
        <time>2021-06-18T11:39:38Z</time>
      </trkpt>
      <trkpt lat="43.31381" lon="-1.67154">
        <ele>270</ele>
        <time>2021-06-18T11:39:44Z</time>
      </trkpt>
      <trkpt lat="43.31368" lon="-1.67115">
        <ele>258</ele>
        <time>2021-06-18T11:39:51Z</time>
      </trkpt>
      <trkpt lat="43.31372" lon="-1.6711">
        <ele>255</ele>
        <time>2021-06-18T11:39:53Z</time>
      </trkpt>
      <trkpt lat="43.31372" lon="-1.67087">
        <ele>247</ele>
        <time>2021-06-18T11:39:57Z</time>
      </trkpt>
      <trkpt lat="43.31368" lon="-1.67051">
        <ele>235</ele>
        <time>2021-06-18T11:40:03Z</time>
      </trkpt>
      <trkpt lat="43.31374" lon="-1.67037">
        <ele>230</ele>
        <time>2021-06-18T11:40:06Z</time>
      </trkpt>
      <trkpt lat="43.31367" lon="-1.67015">
        <ele>223</ele>
        <time>2021-06-18T11:40:10Z</time>
      </trkpt>
      <trkpt lat="43.31361" lon="-1.67005">
        <ele>220</ele>
        <time>2021-06-18T11:40:12Z</time>
      </trkpt>
      <trkpt lat="43.31359" lon="-1.66986">
        <ele>214</ele>
        <time>2021-06-18T11:40:15Z</time>
      </trkpt>
      <trkpt lat="43.31354" lon="-1.66982">
        <ele>213</ele>
        <time>2021-06-18T11:40:16Z</time>
      </trkpt>
      <trkpt lat="43.3135" lon="-1.66964">
        <ele>208</ele>
        <time>2021-06-18T11:40:20Z</time>
      </trkpt>
      <trkpt lat="43.31342" lon="-1.66955">
        <ele>206</ele>
        <time>2021-06-18T11:40:22Z</time>
      </trkpt>
      <trkpt lat="43.31332" lon="-1.6695">
        <ele>205</ele>
        <time>2021-06-18T11:40:25Z</time>
      </trkpt>
      <trkpt lat="43.31314" lon="-1.66947">
        <ele>205</ele>
        <time>2021-06-18T11:40:29Z</time>
      </trkpt>
      <trkpt lat="43.31306" lon="-1.66942">
        <ele>203</ele>
        <time>2021-06-18T11:40:31Z</time>
      </trkpt>
      <trkpt lat="43.31295" lon="-1.66929">
        <ele>199</ele>
        <time>2021-06-18T11:40:34Z</time>
      </trkpt>
      <trkpt lat="43.31287" lon="-1.66913">
        <ele>195</ele>
        <time>2021-06-18T11:40:38Z</time>
      </trkpt>
      <trkpt lat="43.31261" lon="-1.66894">
        <ele>190</ele>
        <time>2021-06-18T11:40:44Z</time>
      </trkpt>
      <trkpt lat="43.31256" lon="-1.66863">
        <ele>183</ele>
        <time>2021-06-18T11:40:50Z</time>
      </trkpt>
      <trkpt lat="43.31242" lon="-1.6684">
        <ele>179</ele>
        <time>2021-06-18T11:40:55Z</time>
      </trkpt>
      <trkpt lat="43.31218" lon="-1.66814">
        <ele>175</ele>
        <time>2021-06-18T11:41:02Z</time>
      </trkpt>
      <trkpt lat="43.31216" lon="-1.66803">
        <ele>172</ele>
        <time>2021-06-18T11:41:04Z</time>
      </trkpt>
      <trkpt lat="43.31216" lon="-1.66797">
        <ele>171</ele>
        <time>2021-06-18T11:41:05Z</time>
      </trkpt>
      <trkpt lat="43.31219" lon="-1.66793">
        <ele>170</ele>
        <time>2021-06-18T11:41:06Z</time>
      </trkpt>
      <trkpt lat="43.31248" lon="-1.66792">
        <ele>170</ele>
        <time>2021-06-18T11:41:13Z</time>
      </trkpt>
      <trkpt lat="43.31257" lon="-1.66789">
        <ele>168</ele>
        <time>2021-06-18T11:41:15Z</time>
      </trkpt>
      <trkpt lat="43.31262" lon="-1.66775">
        <ele>166</ele>
        <time>2021-06-18T11:41:18Z</time>
      </trkpt>
      <trkpt lat="43.31258" lon="-1.66755">
        <ele>163</ele>
        <time>2021-06-18T11:41:21Z</time>
      </trkpt>
      <trkpt lat="43.3125" lon="-1.66737">
        <ele>164</ele>
        <time>2021-06-18T11:41:25Z</time>
      </trkpt>
      <trkpt lat="43.31238" lon="-1.66727">
        <ele>165</ele>
        <time>2021-06-18T11:41:28Z</time>
      </trkpt>
      <trkpt lat="43.31227" lon="-1.66723">
        <ele>165</ele>
        <time>2021-06-18T11:41:31Z</time>
      </trkpt>
      <trkpt lat="43.31238" lon="-1.66717">
        <ele>166</ele>
        <time>2021-06-18T11:41:33Z</time>
      </trkpt>
      <trkpt lat="43.31253" lon="-1.66718">
        <ele>166</ele>
        <time>2021-06-18T11:41:37Z</time>
      </trkpt>
      <trkpt lat="43.31271" lon="-1.66724">
        <ele>166</ele>
        <time>2021-06-18T11:41:41Z</time>
      </trkpt>
      <trkpt lat="43.31285" lon="-1.66734">
        <ele>164</ele>
        <time>2021-06-18T11:41:45Z</time>
      </trkpt>
      <trkpt lat="43.31313" lon="-1.66769">
        <ele>162</ele>
        <time>2021-06-18T11:41:54Z</time>
      </trkpt>
      <trkpt lat="43.31324" lon="-1.66764">
        <ele>161</ele>
        <time>2021-06-18T11:41:56Z</time>
      </trkpt>
      <trkpt lat="43.3134" lon="-1.66787">
        <ele>161</ele>
        <time>2021-06-18T11:42:02Z</time>
      </trkpt>
      <trkpt lat="43.31352" lon="-1.66815">
        <ele>162</ele>
        <time>2021-06-18T11:42:07Z</time>
      </trkpt>
      <trkpt lat="43.31359" lon="-1.66804">
        <ele>161</ele>
        <time>2021-06-18T11:42:10Z</time>
      </trkpt>
      <trkpt lat="43.31376" lon="-1.66804">
        <ele>160</ele>
        <time>2021-06-18T11:42:14Z</time>
      </trkpt>
      <trkpt lat="43.31382" lon="-1.66801">
        <ele>160</ele>
        <time>2021-06-18T11:42:15Z</time>
      </trkpt>
      <trkpt lat="43.31402" lon="-1.66764">
        <ele>162</ele>
        <time>2021-06-18T11:42:23Z</time>
      </trkpt>
      <trkpt lat="43.31418" lon="-1.66755">
        <ele>163</ele>
        <time>2021-06-18T11:42:27Z</time>
      </trkpt>
      <trkpt lat="43.31411" lon="-1.66743">
        <ele>166</ele>
        <time>2021-06-18T11:42:30Z</time>
      </trkpt>
      <trkpt lat="43.31401" lon="-1.66743">
        <ele>165</ele>
        <time>2021-06-18T11:42:32Z</time>
      </trkpt>
      <trkpt lat="43.31385" lon="-1.66721">
        <ele>172</ele>
        <time>2021-06-18T11:42:37Z</time>
      </trkpt>
      <trkpt lat="43.31359" lon="-1.66699">
        <ele>177</ele>
        <time>2021-06-18T11:42:45Z</time>
      </trkpt>
      <trkpt lat="43.31344" lon="-1.66692">
        <ele>178</ele>
        <time>2021-06-18T11:42:48Z</time>
      </trkpt>
      <trkpt lat="43.31346" lon="-1.66686">
        <ele>180</ele>
        <time>2021-06-18T11:42:49Z</time>
      </trkpt>
      <trkpt lat="43.31256" lon="-1.66641">
        <ele>181</ele>
        <time>2021-06-18T11:43:12Z</time>
      </trkpt>
      <trkpt lat="43.31256" lon="-1.66609">
        <ele>192</ele>
        <time>2021-06-18T11:43:17Z</time>
      </trkpt>
      <trkpt lat="43.31263" lon="-1.66568">
        <ele>207</ele>
        <time>2021-06-18T11:43:24Z</time>
      </trkpt>
      <trkpt lat="43.31276" lon="-1.66459">
        <ele>241</ele>
        <time>2021-06-18T11:43:43Z</time>
      </trkpt>
      <trkpt lat="43.31265" lon="-1.66408">
        <ele>250</ele>
        <time>2021-06-18T11:43:52Z</time>
      </trkpt>
      <trkpt lat="43.31221" lon="-1.66405">
        <ele>246</ele>
        <time>2021-06-18T11:44:02Z</time>
      </trkpt>
      <trkpt lat="43.31183" lon="-1.6637">
        <ele>256</ele>
        <time>2021-06-18T11:44:13Z</time>
      </trkpt>
      <trkpt lat="43.31183" lon="-1.66305">
        <ele>272</ele>
        <time>2021-06-18T11:44:24Z</time>
      </trkpt>
      <trkpt lat="43.31206" lon="-1.66178">
        <ele>305</ele>
        <time>2021-06-18T11:44:46Z</time>
      </trkpt>
      <trkpt lat="43.31231" lon="-1.66018">
        <ele>352</ele>
        <time>2021-06-18T11:45:14Z</time>
      </trkpt>
      <trkpt lat="43.31238" lon="-1.65936">
        <ele>384</ele>
        <time>2021-06-18T11:45:28Z</time>
      </trkpt>
      <trkpt lat="43.31258" lon="-1.65851">
        <ele>416</ele>
        <time>2021-06-18T11:45:43Z</time>
      </trkpt>
      <trkpt lat="43.3126" lon="-1.65802">
        <ele>433</ele>
        <time>2021-06-18T11:45:52Z</time>
      </trkpt>
      <trkpt lat="43.31277" lon="-1.65736">
        <ele>457</ele>
        <time>2021-06-18T11:46:04Z</time>
      </trkpt>
      <trkpt lat="43.31258" lon="-1.65633">
        <ele>493</ele>
        <time>2021-06-18T11:46:22Z</time>
      </trkpt>
      <trkpt lat="43.31212" lon="-1.65526">
        <ele>519</ele>
        <time>2021-06-18T11:46:43Z</time>
      </trkpt>
      <trkpt lat="43.31185" lon="-1.65481">
        <ele>526</ele>
        <time>2021-06-18T11:46:53Z</time>
      </trkpt>
      <trkpt lat="43.31131" lon="-1.65368">
        <ele>530</ele>
        <time>2021-06-18T11:47:16Z</time>
      </trkpt>
      <trkpt lat="43.3113" lon="-1.65371">
        <ele>531</ele>
        <time>2021-06-18T11:47:16Z</time>
      </trkpt>
      <trkpt lat="43.31104" lon="-1.65352">
        <ele>532</ele>
        <time>2021-06-18T11:47:23Z</time>
      </trkpt>
      <trkpt lat="43.31083" lon="-1.65342">
        <ele>535</ele>
        <time>2021-06-18T11:47:28Z</time>
      </trkpt>
      <trkpt lat="43.31063" lon="-1.6532">
        <ele>539</ele>
        <time>2021-06-18T11:47:34Z</time>
      </trkpt>
      <trkpt lat="43.31048" lon="-1.65297">
        <ele>543</ele>
        <time>2021-06-18T11:47:40Z</time>
      </trkpt>
      <trkpt lat="43.31029" lon="-1.65279">
        <ele>549</ele>
        <time>2021-06-18T11:47:45Z</time>
      </trkpt>
      <trkpt lat="43.31006" lon="-1.65237">
        <ele>560</ele>
        <time>2021-06-18T11:47:54Z</time>
      </trkpt>
      <trkpt lat="43.31" lon="-1.65231">
        <ele>562</ele>
        <time>2021-06-18T11:47:56Z</time>
      </trkpt>
      <trkpt lat="43.30981" lon="-1.6518">
        <ele>563</ele>
        <time>2021-06-18T11:48:05Z</time>
      </trkpt>
      <trkpt lat="43.30958" lon="-1.65132">
        <ele>571</ele>
        <time>2021-06-18T11:48:15Z</time>
      </trkpt>
      <trkpt lat="43.30952" lon="-1.65106">
        <ele>574</ele>
        <time>2021-06-18T11:48:20Z</time>
      </trkpt>
      <trkpt lat="43.3094" lon="-1.64985">
        <ele>586</ele>
        <time>2021-06-18T11:48:40Z</time>
      </trkpt>
      <trkpt lat="43.30932" lon="-1.64939">
        <ele>592</ele>
        <time>2021-06-18T11:48:49Z</time>
      </trkpt>
      <trkpt lat="43.30935" lon="-1.64816">
        <ele>583</ele>
        <time>2021-06-18T11:49:09Z</time>
      </trkpt>
      <trkpt lat="43.30932" lon="-1.64782">
        <ele>580</ele>
        <time>2021-06-18T11:49:15Z</time>
      </trkpt>
      <trkpt lat="43.30926" lon="-1.64761">
        <ele>581</ele>
        <time>2021-06-18T11:49:19Z</time>
      </trkpt>
      <trkpt lat="43.30924" lon="-1.64734">
        <ele>580</ele>
        <time>2021-06-18T11:49:24Z</time>
      </trkpt>
      <trkpt lat="43.30907" lon="-1.647">
        <ele>589</ele>
        <time>2021-06-18T11:49:31Z</time>
      </trkpt>
      <trkpt lat="43.30907" lon="-1.64679">
        <ele>587</ele>
        <time>2021-06-18T11:49:34Z</time>
      </trkpt>
      <trkpt lat="43.30887" lon="-1.64623">
        <ele>590</ele>
        <time>2021-06-18T11:49:45Z</time>
      </trkpt>
      <trkpt lat="43.30878" lon="-1.64608">
        <ele>592</ele>
        <time>2021-06-18T11:49:48Z</time>
      </trkpt>
      <trkpt lat="43.30874" lon="-1.64596">
        <ele>591</ele>
        <time>2021-06-18T11:49:50Z</time>
      </trkpt>
      <trkpt lat="43.30859" lon="-1.64573">
        <ele>593</ele>
        <time>2021-06-18T11:49:56Z</time>
      </trkpt>
      <trkpt lat="43.30842" lon="-1.64553">
        <ele>599</ele>
        <time>2021-06-18T11:50:01Z</time>
      </trkpt>
      <trkpt lat="43.30822" lon="-1.64509">
        <ele>603</ele>
        <time>2021-06-18T11:50:10Z</time>
      </trkpt>
      <trkpt lat="43.30815" lon="-1.64481">
        <ele>606</ele>
        <time>2021-06-18T11:50:15Z</time>
      </trkpt>
      <trkpt lat="43.30809" lon="-1.64441">
        <ele>610</ele>
        <time>2021-06-18T11:50:22Z</time>
      </trkpt>
      <trkpt lat="43.30795" lon="-1.64409">
        <ele>619</ele>
        <time>2021-06-18T11:50:28Z</time>
      </trkpt>
      <trkpt lat="43.30793" lon="-1.64393">
        <ele>622</ele>
        <time>2021-06-18T11:50:31Z</time>
      </trkpt>
      <trkpt lat="43.30794" lon="-1.64365">
        <ele>626</ele>
        <time>2021-06-18T11:50:36Z</time>
      </trkpt>
      <trkpt lat="43.30784" lon="-1.64309">
        <ele>642</ele>
        <time>2021-06-18T11:50:45Z</time>
      </trkpt>
      <trkpt lat="43.30784" lon="-1.64278">
        <ele>651</ele>
        <time>2021-06-18T11:50:51Z</time>
      </trkpt>
      <trkpt lat="43.30806" lon="-1.64251">
        <ele>650</ele>
        <time>2021-06-18T11:50:58Z</time>
      </trkpt>
      <trkpt lat="43.30813" lon="-1.6423">
        <ele>651</ele>
        <time>2021-06-18T11:51:01Z</time>
      </trkpt>
      <trkpt lat="43.30802" lon="-1.642">
        <ele>660</ele>
        <time>2021-06-18T11:51:07Z</time>
      </trkpt>
      <trkpt lat="43.30798" lon="-1.64179">
        <ele>665</ele>
        <time>2021-06-18T11:51:11Z</time>
      </trkpt>
      <trkpt lat="43.30798" lon="-1.64106">
        <ele>666</ele>
        <time>2021-06-18T11:51:23Z</time>
      </trkpt>
      <trkpt lat="43.30801" lon="-1.64078">
        <ele>666</ele>
        <time>2021-06-18T11:51:28Z</time>
      </trkpt>
      <trkpt lat="43.30796" lon="-1.64076">
        <ele>667</ele>
        <time>2021-06-18T11:51:29Z</time>
      </trkpt>
      <trkpt lat="43.30777" lon="-1.64077">
        <ele>670</ele>
        <time>2021-06-18T11:51:34Z</time>
      </trkpt>
      <trkpt lat="43.30763" lon="-1.64074">
        <ele>672</ele>
        <time>2021-06-18T11:51:37Z</time>
      </trkpt>
      <trkpt lat="43.30753" lon="-1.64051">
        <ele>676</ele>
        <time>2021-06-18T11:51:42Z</time>
      </trkpt>
      <trkpt lat="43.30746" lon="-1.63976">
        <ele>683</ele>
        <time>2021-06-18T11:51:54Z</time>
      </trkpt>
      <trkpt lat="43.30748" lon="-1.63976">
        <ele>684</ele>
        <time>2021-06-18T11:51:55Z</time>
      </trkpt>
      <trkpt lat="43.30748" lon="-1.63958">
        <ele>687</ele>
        <time>2021-06-18T11:51:58Z</time>
      </trkpt>
      <trkpt lat="43.30742" lon="-1.63915">
        <ele>691</ele>
        <time>2021-06-18T11:52:05Z</time>
      </trkpt>
      <trkpt lat="43.30741" lon="-1.63845">
        <ele>704</ele>
        <time>2021-06-18T11:52:17Z</time>
      </trkpt>
      <trkpt lat="43.30718" lon="-1.63711">
        <ele>721</ele>
        <time>2021-06-18T11:52:41Z</time>
      </trkpt>
      <trkpt lat="43.30703" lon="-1.6364">
        <ele>735</ele>
        <time>2021-06-18T11:52:53Z</time>
      </trkpt>
      <trkpt lat="43.30684" lon="-1.63591">
        <ele>742</ele>
        <time>2021-06-18T11:53:03Z</time>
      </trkpt>
      <trkpt lat="43.30609" lon="-1.63365">
        <ele>787</ele>
        <time>2021-06-18T11:53:45Z</time>
      </trkpt>
      <trkpt lat="43.30564" lon="-1.63273">
        <ele>790</ele>
        <time>2021-06-18T11:54:04Z</time>
      </trkpt>
      <trkpt lat="43.30554" lon="-1.63269">
        <ele>785</ele>
        <time>2021-06-18T11:54:06Z</time>
      </trkpt>
      <trkpt lat="43.3055" lon="-1.63261">
        <ele>784</ele>
        <time>2021-06-18T11:54:08Z</time>
      </trkpt>
      <trkpt lat="43.30562" lon="-1.63239">
        <ele>796</ele>
        <time>2021-06-18T11:54:12Z</time>
      </trkpt>
      <trkpt lat="43.30573" lon="-1.63227">
        <ele>804</ele>
        <time>2021-06-18T11:54:16Z</time>
      </trkpt>
      <trkpt lat="43.30585" lon="-1.63195">
        <ele>813</ele>
        <time>2021-06-18T11:54:22Z</time>
      </trkpt>
      <trkpt lat="43.30586" lon="-1.63176">
        <ele>814</ele>
        <time>2021-06-18T11:54:25Z</time>
      </trkpt>
      <trkpt lat="43.30584" lon="-1.63163">
        <ele>813</ele>
        <time>2021-06-18T11:54:27Z</time>
      </trkpt>
      <trkpt lat="43.30573" lon="-1.63129">
        <ele>805</ele>
        <time>2021-06-18T11:54:34Z</time>
      </trkpt>
      <trkpt lat="43.30574" lon="-1.63116">
        <ele>806</ele>
        <time>2021-06-18T11:54:36Z</time>
      </trkpt>
      <trkpt lat="43.30643" lon="-1.6303">
        <ele>836</ele>
        <time>2021-06-18T11:54:58Z</time>
      </trkpt>
      <trkpt lat="43.30652" lon="-1.63027">
        <ele>840</ele>
        <time>2021-06-18T11:55:00Z</time>
      </trkpt>
      <trkpt lat="43.30657" lon="-1.63032">
        <ele>843</ele>
        <time>2021-06-18T11:55:01Z</time>
      </trkpt>
      <trkpt lat="43.30712" lon="-1.63131">
        <ele>855</ele>
        <time>2021-06-18T11:55:22Z</time>
      </trkpt>
      <trkpt lat="43.30722" lon="-1.63153">
        <ele>858</ele>
        <time>2021-06-18T11:55:27Z</time>
      </trkpt>
      <trkpt lat="43.30765" lon="-1.632">
        <ele>862</ele>
        <time>2021-06-18T11:55:40Z</time>
      </trkpt>
      <trkpt lat="43.30796" lon="-1.63313">
        <ele>865</ele>
        <time>2021-06-18T11:56:00Z</time>
      </trkpt>
      <trkpt lat="43.30827" lon="-1.63336">
        <ele>869</ele>
        <time>2021-06-18T11:56:08Z</time>
      </trkpt>
      <trkpt lat="43.30844" lon="-1.63354">
        <ele>869</ele>
        <time>2021-06-18T11:56:13Z</time>
      </trkpt>
      <trkpt lat="43.30852" lon="-1.63391">
        <ele>870</ele>
        <time>2021-06-18T11:56:20Z</time>
      </trkpt>
      <trkpt lat="43.30865" lon="-1.6341">
        <ele>871</ele>
        <time>2021-06-18T11:56:24Z</time>
      </trkpt>
      <trkpt lat="43.30882" lon="-1.63427">
        <ele>872</ele>
        <time>2021-06-18T11:56:29Z</time>
      </trkpt>
      <trkpt lat="43.30886" lon="-1.63434">
        <ele>873</ele>
        <time>2021-06-18T11:56:31Z</time>
      </trkpt>
      <trkpt lat="43.30903" lon="-1.63484">
        <ele>882</ele>
        <time>2021-06-18T11:56:40Z</time>
      </trkpt>
      <trkpt lat="43.30886" lon="-1.63434">
        <ele>873</ele>
        <time>2021-06-18T11:56:50Z</time>
      </trkpt>
      <trkpt lat="43.30882" lon="-1.63427">
        <ele>872</ele>
        <time>2021-06-18T11:56:51Z</time>
      </trkpt>
      <trkpt lat="43.30865" lon="-1.6341">
        <ele>871</ele>
        <time>2021-06-18T11:56:56Z</time>
      </trkpt>
      <trkpt lat="43.30852" lon="-1.63391">
        <ele>870</ele>
        <time>2021-06-18T11:57:00Z</time>
      </trkpt>
      <trkpt lat="43.30844" lon="-1.63354">
        <ele>869</ele>
        <time>2021-06-18T11:57:07Z</time>
      </trkpt>
      <trkpt lat="43.30827" lon="-1.63336">
        <ele>869</ele>
        <time>2021-06-18T11:57:12Z</time>
      </trkpt>
      <trkpt lat="43.30796" lon="-1.63313">
        <ele>865</ele>
        <time>2021-06-18T11:57:20Z</time>
      </trkpt>
      <trkpt lat="43.30765" lon="-1.632">
        <ele>862</ele>
        <time>2021-06-18T11:57:41Z</time>
      </trkpt>
      <trkpt lat="43.30722" lon="-1.63153">
        <ele>858</ele>
        <time>2021-06-18T11:57:54Z</time>
      </trkpt>
      <trkpt lat="43.30701" lon="-1.63112">
        <ele>852</ele>
        <time>2021-06-18T11:58:02Z</time>
      </trkpt>
      <trkpt lat="43.30672" lon="-1.62935">
        <ele>845</ele>
        <time>2021-06-18T11:58:33Z</time>
      </trkpt>
      <trkpt lat="43.30691" lon="-1.62857">
        <ele>841</ele>
        <time>2021-06-18T11:58:47Z</time>
      </trkpt>
      <trkpt lat="43.30686" lon="-1.6266">
        <ele>820</ele>
        <time>2021-06-18T11:59:20Z</time>
      </trkpt>
      <trkpt lat="43.30663" lon="-1.62512">
        <ele>800</ele>
        <time>2021-06-18T11:59:46Z</time>
      </trkpt>
      <trkpt lat="43.30608" lon="-1.62355">
        <ele>750</ele>
        <time>2021-06-18T12:00:16Z</time>
      </trkpt>
      <trkpt lat="43.30531" lon="-1.62302">
        <ele>710</ele>
        <time>2021-06-18T12:00:36Z</time>
      </trkpt>
      <trkpt lat="43.30459" lon="-1.62231">
        <ele>679</ele>
        <time>2021-06-18T12:00:57Z</time>
      </trkpt>
      <trkpt lat="43.30459" lon="-1.62234">
        <ele>679</ele>
        <time>2021-06-18T12:00:57Z</time>
      </trkpt>
      <trkpt lat="43.30425" lon="-1.62231">
        <ele>672</ele>
        <time>2021-06-18T12:01:05Z</time>
      </trkpt>
      <trkpt lat="43.30409" lon="-1.62219">
        <ele>666</ele>
        <time>2021-06-18T12:01:09Z</time>
      </trkpt>
      <trkpt lat="43.30394" lon="-1.62216">
        <ele>662</ele>
        <time>2021-06-18T12:01:13Z</time>
      </trkpt>
      <trkpt lat="43.30386" lon="-1.62209">
        <ele>659</ele>
        <time>2021-06-18T12:01:15Z</time>
      </trkpt>
      <trkpt lat="43.30383" lon="-1.62203">
        <ele>658</ele>
        <time>2021-06-18T12:01:16Z</time>
      </trkpt>
      <trkpt lat="43.30367" lon="-1.62194">
        <ele>653</ele>
        <time>2021-06-18T12:01:20Z</time>
      </trkpt>
      <trkpt lat="43.3036" lon="-1.62194">
        <ele>652</ele>
        <time>2021-06-18T12:01:22Z</time>
      </trkpt>
      <trkpt lat="43.30356" lon="-1.62266">
        <ele>662</ele>
        <time>2021-06-18T12:01:34Z</time>
      </trkpt>
      <trkpt lat="43.30327" lon="-1.62285">
        <ele>656</ele>
        <time>2021-06-18T12:01:42Z</time>
      </trkpt>
      <trkpt lat="43.30281" lon="-1.62272">
        <ele>643</ele>
        <time>2021-06-18T12:01:53Z</time>
      </trkpt>
      <trkpt lat="43.30249" lon="-1.62269">
        <ele>634</ele>
        <time>2021-06-18T12:02:00Z</time>
      </trkpt>
      <trkpt lat="43.30195" lon="-1.62269">
        <ele>623</ele>
        <time>2021-06-18T12:02:13Z</time>
      </trkpt>
      <trkpt lat="43.30135" lon="-1.62245">
        <ele>614</ele>
        <time>2021-06-18T12:02:27Z</time>
      </trkpt>
      <trkpt lat="43.30074" lon="-1.6226">
        <ele>608</ele>
        <time>2021-06-18T12:02:42Z</time>
      </trkpt>
      <trkpt lat="43.30059" lon="-1.62261">
        <ele>606</ele>
        <time>2021-06-18T12:02:45Z</time>
      </trkpt>
      <trkpt lat="43.30046" lon="-1.62258">
        <ele>605</ele>
        <time>2021-06-18T12:02:48Z</time>
      </trkpt>
      <trkpt lat="43.30017" lon="-1.62242">
        <ele>603</ele>
        <time>2021-06-18T12:02:56Z</time>
      </trkpt>
      <trkpt lat="43.30005" lon="-1.6223">
        <ele>602</ele>
        <time>2021-06-18T12:02:59Z</time>
      </trkpt>
      <trkpt lat="43.29987" lon="-1.6224">
        <ele>599</ele>
        <time>2021-06-18T12:03:04Z</time>
      </trkpt>
      <trkpt lat="43.29943" lon="-1.62239">
        <ele>587</ele>
        <time>2021-06-18T12:03:14Z</time>
      </trkpt>
      <trkpt lat="43.29935" lon="-1.62244">
        <ele>585</ele>
        <time>2021-06-18T12:03:16Z</time>
      </trkpt>
      <trkpt lat="43.29924" lon="-1.62263">
        <ele>580</ele>
        <time>2021-06-18T12:03:20Z</time>
      </trkpt>
      <trkpt lat="43.29906" lon="-1.62278">
        <ele>573</ele>
        <time>2021-06-18T12:03:25Z</time>
      </trkpt>
      <trkpt lat="43.29879" lon="-1.6231">
        <ele>560</ele>
        <time>2021-06-18T12:03:33Z</time>
      </trkpt>
      <trkpt lat="43.29865" lon="-1.62319">
        <ele>555</ele>
        <time>2021-06-18T12:03:37Z</time>
      </trkpt>
      <trkpt lat="43.29827" lon="-1.62365">
        <ele>538</ele>
        <time>2021-06-18T12:03:49Z</time>
      </trkpt>
      <trkpt lat="43.29782" lon="-1.62436">
        <ele>511</ele>
        <time>2021-06-18T12:04:05Z</time>
      </trkpt>
      <trkpt lat="43.29761" lon="-1.62461">
        <ele>499</ele>
        <time>2021-06-18T12:04:11Z</time>
      </trkpt>
      <trkpt lat="43.29758" lon="-1.62479">
        <ele>495</ele>
        <time>2021-06-18T12:04:15Z</time>
      </trkpt>
      <trkpt lat="43.29749" lon="-1.62493">
        <ele>490</ele>
        <time>2021-06-18T12:04:18Z</time>
      </trkpt>
      <trkpt lat="43.29747" lon="-1.62504">
        <ele>487</ele>
        <time>2021-06-18T12:04:20Z</time>
      </trkpt>
      <trkpt lat="43.29738" lon="-1.62513">
        <ele>481</ele>
        <time>2021-06-18T12:04:22Z</time>
      </trkpt>
      <trkpt lat="43.29729" lon="-1.62516">
        <ele>477</ele>
        <time>2021-06-18T12:04:24Z</time>
      </trkpt>
      <trkpt lat="43.29724" lon="-1.62529">
        <ele>472</ele>
        <time>2021-06-18T12:04:27Z</time>
      </trkpt>
      <trkpt lat="43.29696" lon="-1.62516">
        <ele>466</ele>
        <time>2021-06-18T12:04:34Z</time>
      </trkpt>
      <trkpt lat="43.29682" lon="-1.6254">
        <ele>456</ele>
        <time>2021-06-18T12:04:39Z</time>
      </trkpt>
      <trkpt lat="43.29671" lon="-1.62538">
        <ele>453</ele>
        <time>2021-06-18T12:04:42Z</time>
      </trkpt>
      <trkpt lat="43.29662" lon="-1.62532">
        <ele>450</ele>
        <time>2021-06-18T12:04:44Z</time>
      </trkpt>
      <trkpt lat="43.29654" lon="-1.62534">
        <ele>446</ele>
        <time>2021-06-18T12:04:46Z</time>
      </trkpt>
      <trkpt lat="43.29647" lon="-1.62544">
        <ele>441</ele>
        <time>2021-06-18T12:04:48Z</time>
      </trkpt>
      <trkpt lat="43.29641" lon="-1.62559">
        <ele>436</ele>
        <time>2021-06-18T12:04:51Z</time>
      </trkpt>
      <trkpt lat="43.29633" lon="-1.62562">
        <ele>432</ele>
        <time>2021-06-18T12:04:53Z</time>
      </trkpt>
      <trkpt lat="43.29629" lon="-1.62569">
        <ele>429</ele>
        <time>2021-06-18T12:04:55Z</time>
      </trkpt>
      <trkpt lat="43.29618" lon="-1.62572">
        <ele>424</ele>
        <time>2021-06-18T12:04:57Z</time>
      </trkpt>
      <trkpt lat="43.29616" lon="-1.62583">
        <ele>422</ele>
        <time>2021-06-18T12:04:59Z</time>
      </trkpt>
      <trkpt lat="43.29607" lon="-1.62594">
        <ele>415</ele>
        <time>2021-06-18T12:05:02Z</time>
      </trkpt>
      <trkpt lat="43.296" lon="-1.62608">
        <ele>409</ele>
        <time>2021-06-18T12:05:05Z</time>
      </trkpt>
      <trkpt lat="43.29587" lon="-1.62616">
        <ele>402</ele>
        <time>2021-06-18T12:05:08Z</time>
      </trkpt>
      <trkpt lat="43.29577" lon="-1.62619">
        <ele>397</ele>
        <time>2021-06-18T12:05:11Z</time>
      </trkpt>
      <trkpt lat="43.29565" lon="-1.62634">
        <ele>389</ele>
        <time>2021-06-18T12:05:14Z</time>
      </trkpt>
      <trkpt lat="43.29551" lon="-1.62644">
        <ele>382</ele>
        <time>2021-06-18T12:05:18Z</time>
      </trkpt>
      <trkpt lat="43.29535" lon="-1.62644">
        <ele>376</ele>
        <time>2021-06-18T12:05:22Z</time>
      </trkpt>
      <trkpt lat="43.29524" lon="-1.62666">
        <ele>368</ele>
        <time>2021-06-18T12:05:26Z</time>
      </trkpt>
      <trkpt lat="43.29524" lon="-1.62674">
        <ele>367</ele>
        <time>2021-06-18T12:05:28Z</time>
      </trkpt>
      <trkpt lat="43.29515" lon="-1.62702">
        <ele>358</ele>
        <time>2021-06-18T12:05:33Z</time>
      </trkpt>
      <trkpt lat="43.29496" lon="-1.62718">
        <ele>349</ele>
        <time>2021-06-18T12:05:38Z</time>
      </trkpt>
      <trkpt lat="43.29493" lon="-1.62725">
        <ele>347</ele>
        <time>2021-06-18T12:05:39Z</time>
      </trkpt>
      <trkpt lat="43.29485" lon="-1.62725">
        <ele>344</ele>
        <time>2021-06-18T12:05:41Z</time>
      </trkpt>
      <trkpt lat="43.29481" lon="-1.62728">
        <ele>342</ele>
        <time>2021-06-18T12:05:42Z</time>
      </trkpt>
      <trkpt lat="43.2948" lon="-1.62739">
        <ele>340</ele>
        <time>2021-06-18T12:05:44Z</time>
      </trkpt>
      <trkpt lat="43.29451" lon="-1.6274">
        <ele>332</ele>
        <time>2021-06-18T12:05:51Z</time>
      </trkpt>
      <trkpt lat="43.29446" lon="-1.62743">
        <ele>330</ele>
        <time>2021-06-18T12:05:52Z</time>
      </trkpt>
      <trkpt lat="43.29436" lon="-1.6274">
        <ele>327</ele>
        <time>2021-06-18T12:05:55Z</time>
      </trkpt>
      <trkpt lat="43.29419" lon="-1.62746">
        <ele>322</ele>
        <time>2021-06-18T12:05:59Z</time>
      </trkpt>
      <trkpt lat="43.29403" lon="-1.62757">
        <ele>320</ele>
        <time>2021-06-18T12:06:03Z</time>
      </trkpt>
      <trkpt lat="43.29392" lon="-1.6277">
        <ele>319</ele>
        <time>2021-06-18T12:06:06Z</time>
      </trkpt>
      <trkpt lat="43.29387" lon="-1.62792">
        <ele>318</ele>
        <time>2021-06-18T12:06:10Z</time>
      </trkpt>
      <trkpt lat="43.29317" lon="-1.62797">
        <ele>322</ele>
        <time>2021-06-18T12:06:27Z</time>
      </trkpt>
      <trkpt lat="43.29273" lon="-1.62812">
        <ele>333</ele>
        <time>2021-06-18T12:06:37Z</time>
      </trkpt>
      <trkpt lat="43.29233" lon="-1.62831">
        <ele>344</ele>
        <time>2021-06-18T12:06:47Z</time>
      </trkpt>
      <trkpt lat="43.29162" lon="-1.62846">
        <ele>354</ele>
        <time>2021-06-18T12:07:04Z</time>
      </trkpt>
      <trkpt lat="43.29129" lon="-1.62839">
        <ele>351</ele>
        <time>2021-06-18T12:07:12Z</time>
      </trkpt>
      <trkpt lat="43.29111" lon="-1.62829">
        <ele>349</ele>
        <time>2021-06-18T12:07:16Z</time>
      </trkpt>
      <trkpt lat="43.29093" lon="-1.62833">
        <ele>347</ele>
        <time>2021-06-18T12:07:20Z</time>
      </trkpt>
      <trkpt lat="43.29058" lon="-1.62847">
        <ele>339</ele>
        <time>2021-06-18T12:07:29Z</time>
      </trkpt>
      <trkpt lat="43.29033" lon="-1.62861">
        <ele>334</ele>
        <time>2021-06-18T12:07:35Z</time>
      </trkpt>
      <trkpt lat="43.28998" lon="-1.62902">
        <ele>328</ele>
        <time>2021-06-18T12:07:46Z</time>
      </trkpt>
      <trkpt lat="43.2898" lon="-1.62914">
        <ele>327</ele>
        <time>2021-06-18T12:07:51Z</time>
      </trkpt>
      <trkpt lat="43.28945" lon="-1.62944">
        <ele>326</ele>
        <time>2021-06-18T12:08:00Z</time>
      </trkpt>
      <trkpt lat="43.28939" lon="-1.62946">
        <ele>326</ele>
        <time>2021-06-18T12:08:02Z</time>
      </trkpt>
      <trkpt lat="43.28917" lon="-1.6295">
        <ele>326</ele>
        <time>2021-06-18T12:08:07Z</time>
      </trkpt>
      <trkpt lat="43.28906" lon="-1.62943">
        <ele>325</ele>
        <time>2021-06-18T12:08:10Z</time>
      </trkpt>
      <trkpt lat="43.28882" lon="-1.62958">
        <ele>324</ele>
        <time>2021-06-18T12:08:16Z</time>
      </trkpt>
      <trkpt lat="43.28866" lon="-1.6296">
        <ele>322</ele>
        <time>2021-06-18T12:08:20Z</time>
      </trkpt>
      <trkpt lat="43.28814" lon="-1.6296">
        <ele>317</ele>
        <time>2021-06-18T12:08:32Z</time>
      </trkpt>
      <trkpt lat="43.28744" lon="-1.62951">
        <ele>309</ele>
        <time>2021-06-18T12:08:48Z</time>
      </trkpt>
      <trkpt lat="43.28721" lon="-1.62951">
        <ele>306</ele>
        <time>2021-06-18T12:08:54Z</time>
      </trkpt>
      <trkpt lat="43.28681" lon="-1.62978">
        <ele>301</ele>
        <time>2021-06-18T12:09:04Z</time>
      </trkpt>
      <trkpt lat="43.28662" lon="-1.63007">
        <ele>297</ele>
        <time>2021-06-18T12:09:11Z</time>
      </trkpt>
      <trkpt lat="43.28635" lon="-1.63028">
        <ele>288</ele>
        <time>2021-06-18T12:09:18Z</time>
      </trkpt>
      <trkpt lat="43.28604" lon="-1.63045">
        <ele>280</ele>
        <time>2021-06-18T12:09:26Z</time>
      </trkpt>
      <trkpt lat="43.2857" lon="-1.63056">
        <ele>272</ele>
        <time>2021-06-18T12:09:34Z</time>
      </trkpt>
      <trkpt lat="43.28515" lon="-1.63091">
        <ele>257</ele>
        <time>2021-06-18T12:09:48Z</time>
      </trkpt>
      <trkpt lat="43.28486" lon="-1.63128">
        <ele>248</ele>
        <time>2021-06-18T12:09:57Z</time>
      </trkpt>
      <trkpt lat="43.28472" lon="-1.63151">
        <ele>244</ele>
        <time>2021-06-18T12:10:02Z</time>
      </trkpt>
      <trkpt lat="43.28459" lon="-1.63221">
        <ele>236</ele>
        <time>2021-06-18T12:10:15Z</time>
      </trkpt>
      <trkpt lat="43.28454" lon="-1.63218">
        <ele>236</ele>
        <time>2021-06-18T12:10:16Z</time>
      </trkpt>
      <trkpt lat="43.28437" lon="-1.63252">
        <ele>231</ele>
        <time>2021-06-18T12:10:23Z</time>
      </trkpt>
      <trkpt lat="43.28428" lon="-1.63256">
        <ele>230</ele>
        <time>2021-06-18T12:10:25Z</time>
      </trkpt>
      <trkpt lat="43.2842" lon="-1.63255">
        <ele>229</ele>
        <time>2021-06-18T12:10:27Z</time>
      </trkpt>
      <trkpt lat="43.284" lon="-1.63149">
        <ele>232</ele>
        <time>2021-06-18T12:10:46Z</time>
      </trkpt>
      <trkpt lat="43.284" lon="-1.63152">
        <ele>232</ele>
        <time>2021-06-18T12:10:46Z</time>
      </trkpt>
      <trkpt lat="43.28358" lon="-1.63153">
        <ele>227</ele>
        <time>2021-06-18T12:10:56Z</time>
      </trkpt>
      <trkpt lat="43.28336" lon="-1.63146">
        <ele>224</ele>
        <time>2021-06-18T12:11:01Z</time>
      </trkpt>
      <trkpt lat="43.28296" lon="-1.63167">
        <ele>223</ele>
        <time>2021-06-18T12:11:11Z</time>
      </trkpt>
      <trkpt lat="43.2827" lon="-1.63194">
        <ele>222</ele>
        <time>2021-06-18T12:11:19Z</time>
      </trkpt>
      <trkpt lat="43.28237" lon="-1.63219">
        <ele>221</ele>
        <time>2021-06-18T12:11:28Z</time>
      </trkpt>
      <trkpt lat="43.2824" lon="-1.63221">
        <ele>221</ele>
        <time>2021-06-18T12:11:28Z</time>
      </trkpt>
      <trkpt lat="43.28211" lon="-1.63233">
        <ele>221</ele>
        <time>2021-06-18T12:11:35Z</time>
      </trkpt>
      <trkpt lat="43.28195" lon="-1.63237">
        <ele>221</ele>
        <time>2021-06-18T12:11:39Z</time>
      </trkpt>
      <trkpt lat="43.28183" lon="-1.63247">
        <ele>222</ele>
        <time>2021-06-18T12:11:43Z</time>
      </trkpt>
      <trkpt lat="43.28119" lon="-1.63309">
        <ele>226</ele>
        <time>2021-06-18T12:12:01Z</time>
      </trkpt>
      <trkpt lat="43.28064" lon="-1.63398">
        <ele>232</ele>
        <time>2021-06-18T12:12:21Z</time>
      </trkpt>
      <trkpt lat="43.2805" lon="-1.63415">
        <ele>232</ele>
        <time>2021-06-18T12:12:25Z</time>
      </trkpt>
      <trkpt lat="43.28042" lon="-1.63414">
        <ele>232</ele>
        <time>2021-06-18T12:12:27Z</time>
      </trkpt>
      <trkpt lat="43.28038" lon="-1.63411">
        <ele>233</ele>
        <time>2021-06-18T12:12:28Z</time>
      </trkpt>
      <trkpt lat="43.27997" lon="-1.63363">
        <ele>239</ele>
        <time>2021-06-18T12:12:41Z</time>
      </trkpt>
      <trkpt lat="43.27992" lon="-1.6336">
        <ele>240</ele>
        <time>2021-06-18T12:12:42Z</time>
      </trkpt>
      <trkpt lat="43.27971" lon="-1.63358">
        <ele>242</ele>
        <time>2021-06-18T12:12:47Z</time>
      </trkpt>
      <trkpt lat="43.27915" lon="-1.63372">
        <ele>245</ele>
        <time>2021-06-18T12:13:00Z</time>
      </trkpt>
      <trkpt lat="43.27871" lon="-1.63367">
        <ele>254</ele>
        <time>2021-06-18T12:13:10Z</time>
      </trkpt>
      <trkpt lat="43.27855" lon="-1.63378">
        <ele>255</ele>
        <time>2021-06-18T12:13:15Z</time>
      </trkpt>
      <trkpt lat="43.27842" lon="-1.63393">
        <ele>254</ele>
        <time>2021-06-18T12:13:19Z</time>
      </trkpt>
      <trkpt lat="43.27833" lon="-1.63397">
        <ele>254</ele>
        <time>2021-06-18T12:13:21Z</time>
      </trkpt>
      <trkpt lat="43.27823" lon="-1.63394">
        <ele>257</ele>
        <time>2021-06-18T12:13:23Z</time>
      </trkpt>
      <trkpt lat="43.27802" lon="-1.63371">
        <ele>266</ele>
        <time>2021-06-18T12:13:29Z</time>
      </trkpt>
      <trkpt lat="43.2779" lon="-1.63369">
        <ele>269</ele>
        <time>2021-06-18T12:13:32Z</time>
      </trkpt>
      <trkpt lat="43.27781" lon="-1.63374">
        <ele>269</ele>
        <time>2021-06-18T12:13:34Z</time>
      </trkpt>
      <trkpt lat="43.27762" lon="-1.63392">
        <ele>268</ele>
        <time>2021-06-18T12:13:40Z</time>
      </trkpt>
      <trkpt lat="43.27737" lon="-1.63395">
        <ele>274</ele>
        <time>2021-06-18T12:13:46Z</time>
      </trkpt>
      <trkpt lat="43.27687" lon="-1.63452">
        <ele>281</ele>
        <time>2021-06-18T12:14:01Z</time>
      </trkpt>
      <trkpt lat="43.27684" lon="-1.63465">
        <ele>281</ele>
        <time>2021-06-18T12:14:03Z</time>
      </trkpt>
      <trkpt lat="43.27692" lon="-1.63512">
        <ele>275</ele>
        <time>2021-06-18T12:14:11Z</time>
      </trkpt>
      <trkpt lat="43.27672" lon="-1.63591">
        <ele>278</ele>
        <time>2021-06-18T12:14:26Z</time>
      </trkpt>
      <trkpt lat="43.27666" lon="-1.63611">
        <ele>277</ele>
        <time>2021-06-18T12:14:29Z</time>
      </trkpt>
      <trkpt lat="43.27659" lon="-1.63624">
        <ele>277</ele>
        <time>2021-06-18T12:14:32Z</time>
      </trkpt>
      <trkpt lat="43.2764" lon="-1.6364">
        <ele>278</ele>
        <time>2021-06-18T12:14:37Z</time>
      </trkpt>
      <trkpt lat="43.27637" lon="-1.63645">
        <ele>278</ele>
        <time>2021-06-18T12:14:38Z</time>
      </trkpt>
      <trkpt lat="43.27619" lon="-1.63647">
        <ele>280</ele>
        <time>2021-06-18T12:14:43Z</time>
      </trkpt>
      <trkpt lat="43.27538" lon="-1.63621">
        <ele>300</ele>
        <time>2021-06-18T12:15:02Z</time>
      </trkpt>
      <trkpt lat="43.27533" lon="-1.63625">
        <ele>300</ele>
        <time>2021-06-18T12:15:03Z</time>
      </trkpt>
      <trkpt lat="43.27525" lon="-1.63641">
        <ele>299</ele>
        <time>2021-06-18T12:15:07Z</time>
      </trkpt>
      <trkpt lat="43.27516" lon="-1.6367">
        <ele>296</ele>
        <time>2021-06-18T12:15:12Z</time>
      </trkpt>
      <trkpt lat="43.27506" lon="-1.63692">
        <ele>293</ele>
        <time>2021-06-18T12:15:16Z</time>
      </trkpt>
      <trkpt lat="43.27498" lon="-1.63696">
        <ele>293</ele>
        <time>2021-06-18T12:15:18Z</time>
      </trkpt>
      <trkpt lat="43.27479" lon="-1.63692">
        <ele>299</ele>
        <time>2021-06-18T12:15:23Z</time>
      </trkpt>
      <trkpt lat="43.27465" lon="-1.63693">
        <ele>302</ele>
        <time>2021-06-18T12:15:26Z</time>
      </trkpt>
      <trkpt lat="43.27455" lon="-1.63699">
        <ele>303</ele>
        <time>2021-06-18T12:15:29Z</time>
      </trkpt>
      <trkpt lat="43.2744" lon="-1.63703">
        <ele>305</ele>
        <time>2021-06-18T12:15:32Z</time>
      </trkpt>
      <trkpt lat="43.27434" lon="-1.63707">
        <ele>305</ele>
        <time>2021-06-18T12:15:34Z</time>
      </trkpt>
      <trkpt lat="43.27426" lon="-1.63739">
        <ele>299</ele>
        <time>2021-06-18T12:15:40Z</time>
      </trkpt>
      <trkpt lat="43.27419" lon="-1.63754">
        <ele>297</ele>
        <time>2021-06-18T12:15:43Z</time>
      </trkpt>
      <trkpt lat="43.2741" lon="-1.63762">
        <ele>297</ele>
        <time>2021-06-18T12:15:45Z</time>
      </trkpt>
      <trkpt lat="43.27383" lon="-1.63763">
        <ele>303</ele>
        <time>2021-06-18T12:15:51Z</time>
      </trkpt>
      <trkpt lat="43.27375" lon="-1.63766">
        <ele>304</ele>
        <time>2021-06-18T12:15:53Z</time>
      </trkpt>
      <trkpt lat="43.27348" lon="-1.63799">
        <ele>304</ele>
        <time>2021-06-18T12:16:02Z</time>
      </trkpt>
      <trkpt lat="43.27334" lon="-1.63807">
        <ele>306</ele>
        <time>2021-06-18T12:16:05Z</time>
      </trkpt>
      <trkpt lat="43.27307" lon="-1.63814">
        <ele>312</ele>
        <time>2021-06-18T12:16:12Z</time>
      </trkpt>
      <trkpt lat="43.27302" lon="-1.63819">
        <ele>312</ele>
        <time>2021-06-18T12:16:13Z</time>
      </trkpt>
      <trkpt lat="43.27296" lon="-1.63876">
        <ele>305</ele>
        <time>2021-06-18T12:16:23Z</time>
      </trkpt>
      <trkpt lat="43.27289" lon="-1.63902">
        <ele>303</ele>
        <time>2021-06-18T12:16:28Z</time>
      </trkpt>
      <trkpt lat="43.27277" lon="-1.63924">
        <ele>304</ele>
        <time>2021-06-18T12:16:32Z</time>
      </trkpt>
      <trkpt lat="43.27264" lon="-1.63939">
        <ele>304</ele>
        <time>2021-06-18T12:16:36Z</time>
      </trkpt>
      <trkpt lat="43.27202" lon="-1.63988">
        <ele>312</ele>
        <time>2021-06-18T12:16:53Z</time>
      </trkpt>
      <trkpt lat="43.2719" lon="-1.64004">
        <ele>313</ele>
        <time>2021-06-18T12:16:57Z</time>
      </trkpt>
      <trkpt lat="43.27182" lon="-1.64023">
        <ele>314</ele>
        <time>2021-06-18T12:17:01Z</time>
      </trkpt>
      <trkpt lat="43.27176" lon="-1.64048">
        <ele>315</ele>
        <time>2021-06-18T12:17:05Z</time>
      </trkpt>
      <trkpt lat="43.27153" lon="-1.64088">
        <ele>321</ele>
        <time>2021-06-18T12:17:14Z</time>
      </trkpt>
      <trkpt lat="43.27151" lon="-1.64103">
        <ele>320</ele>
        <time>2021-06-18T12:17:16Z</time>
      </trkpt>
      <trkpt lat="43.2716" lon="-1.64149">
        <ele>312</ele>
        <time>2021-06-18T12:17:25Z</time>
      </trkpt>
      <trkpt lat="43.27158" lon="-1.64166">
        <ele>311</ele>
        <time>2021-06-18T12:17:28Z</time>
      </trkpt>
      <trkpt lat="43.27143" lon="-1.64203">
        <ele>310</ele>
        <time>2021-06-18T12:17:35Z</time>
      </trkpt>
      <trkpt lat="43.27106" lon="-1.64254">
        <ele>309</ele>
        <time>2021-06-18T12:17:47Z</time>
      </trkpt>
      <trkpt lat="43.27093" lon="-1.64267">
        <ele>308</ele>
        <time>2021-06-18T12:17:51Z</time>
      </trkpt>
      <trkpt lat="43.27067" lon="-1.64279">
        <ele>309</ele>
        <time>2021-06-18T12:17:57Z</time>
      </trkpt>
      <trkpt lat="43.27041" lon="-1.64277">
        <ele>312</ele>
        <time>2021-06-18T12:18:03Z</time>
      </trkpt>
      <trkpt lat="43.26998" lon="-1.6424">
        <ele>325</ele>
        <time>2021-06-18T12:18:15Z</time>
      </trkpt>
      <trkpt lat="43.2698" lon="-1.6424">
        <ele>327</ele>
        <time>2021-06-18T12:18:19Z</time>
      </trkpt>
      <trkpt lat="43.26974" lon="-1.64243">
        <ele>327</ele>
        <time>2021-06-18T12:18:21Z</time>
      </trkpt>
      <trkpt lat="43.26962" lon="-1.64262">
        <ele>325</ele>
        <time>2021-06-18T12:18:25Z</time>
      </trkpt>
      <trkpt lat="43.26936" lon="-1.64272">
        <ele>327</ele>
        <time>2021-06-18T12:18:31Z</time>
      </trkpt>
      <trkpt lat="43.26917" lon="-1.64272">
        <ele>330</ele>
        <time>2021-06-18T12:18:36Z</time>
      </trkpt>
      <trkpt lat="43.26892" lon="-1.64263">
        <ele>328</ele>
        <time>2021-06-18T12:18:42Z</time>
      </trkpt>
      <trkpt lat="43.26888" lon="-1.64253">
        <ele>328</ele>
        <time>2021-06-18T12:18:44Z</time>
      </trkpt>
      <trkpt lat="43.2689" lon="-1.64247">
        <ele>329</ele>
        <time>2021-06-18T12:18:45Z</time>
      </trkpt>
      <trkpt lat="43.26934" lon="-1.64206">
        <ele>336</ele>
        <time>2021-06-18T12:18:57Z</time>
      </trkpt>
      <trkpt lat="43.26948" lon="-1.64176">
        <ele>339</ele>
        <time>2021-06-18T12:19:03Z</time>
      </trkpt>
      <trkpt lat="43.26961" lon="-1.64123">
        <ele>344</ele>
        <time>2021-06-18T12:19:13Z</time>
      </trkpt>
      <trkpt lat="43.26966" lon="-1.64113">
        <ele>346</ele>
        <time>2021-06-18T12:19:15Z</time>
      </trkpt>
      <trkpt lat="43.26983" lon="-1.64095">
        <ele>351</ele>
        <time>2021-06-18T12:19:20Z</time>
      </trkpt>
      <trkpt lat="43.26994" lon="-1.64039">
        <ele>355</ele>
        <time>2021-06-18T12:19:30Z</time>
      </trkpt>
      <trkpt lat="43.27015" lon="-1.63985">
        <ele>356</ele>
        <time>2021-06-18T12:19:40Z</time>
      </trkpt>
      <trkpt lat="43.27022" lon="-1.63958">
        <ele>355</ele>
        <time>2021-06-18T12:19:45Z</time>
      </trkpt>
      <trkpt lat="43.2703" lon="-1.6387">
        <ele>355</ele>
        <time>2021-06-18T12:20:00Z</time>
      </trkpt>
      <trkpt lat="43.27033" lon="-1.63858">
        <ele>355</ele>
        <time>2021-06-18T12:20:02Z</time>
      </trkpt>
      <trkpt lat="43.27057" lon="-1.63809">
        <ele>361</ele>
        <time>2021-06-18T12:20:12Z</time>
      </trkpt>
      <trkpt lat="43.2706" lon="-1.63795">
        <ele>362</ele>
        <time>2021-06-18T12:20:15Z</time>
      </trkpt>
      <trkpt lat="43.27056" lon="-1.63754">
        <ele>362</ele>
        <time>2021-06-18T12:20:22Z</time>
      </trkpt>
      <trkpt lat="43.27056" lon="-1.63727">
        <ele>365</ele>
        <time>2021-06-18T12:20:26Z</time>
      </trkpt>
      <trkpt lat="43.27062" lon="-1.63695">
        <ele>371</ele>
        <time>2021-06-18T12:20:32Z</time>
      </trkpt>
      <trkpt lat="43.27062" lon="-1.63667">
        <ele>374</ele>
        <time>2021-06-18T12:20:37Z</time>
      </trkpt>
      <trkpt lat="43.2704" lon="-1.63635">
        <ele>375</ele>
        <time>2021-06-18T12:20:44Z</time>
      </trkpt>
      <trkpt lat="43.27027" lon="-1.63604">
        <ele>378</ele>
        <time>2021-06-18T12:20:50Z</time>
      </trkpt>
      <trkpt lat="43.27025" lon="-1.63575">
        <ele>385</ele>
        <time>2021-06-18T12:20:55Z</time>
      </trkpt>
      <trkpt lat="43.27004" lon="-1.63548">
        <ele>387</ele>
        <time>2021-06-18T12:21:02Z</time>
      </trkpt>
      <trkpt lat="43.26976" lon="-1.635">
        <ele>394</ele>
        <time>2021-06-18T12:21:13Z</time>
      </trkpt>
      <trkpt lat="43.26951" lon="-1.63485">
        <ele>391</ele>
        <time>2021-06-18T12:21:19Z</time>
      </trkpt>
      <trkpt lat="43.26934" lon="-1.63488">
        <ele>385</ele>
        <time>2021-06-18T12:21:23Z</time>
      </trkpt>
      <trkpt lat="43.2692" lon="-1.63497">
        <ele>377</ele>
        <time>2021-06-18T12:21:27Z</time>
      </trkpt>
      <trkpt lat="43.2691" lon="-1.63491">
        <ele>377</ele>
        <time>2021-06-18T12:21:29Z</time>
      </trkpt>
      <trkpt lat="43.26907" lon="-1.63438">
        <ele>393</ele>
        <time>2021-06-18T12:21:38Z</time>
      </trkpt>
      <trkpt lat="43.269" lon="-1.63392">
        <ele>405</ele>
        <time>2021-06-18T12:21:46Z</time>
      </trkpt>
      <trkpt lat="43.26888" lon="-1.63337">
        <ele>416</ele>
        <time>2021-06-18T12:21:56Z</time>
      </trkpt>
      <trkpt lat="43.26879" lon="-1.63331">
        <ele>416</ele>
        <time>2021-06-18T12:21:58Z</time>
      </trkpt>
      <trkpt lat="43.26845" lon="-1.63338">
        <ele>407</ele>
        <time>2021-06-18T12:22:06Z</time>
      </trkpt>
      <trkpt lat="43.26824" lon="-1.63332">
        <ele>406</ele>
        <time>2021-06-18T12:22:11Z</time>
      </trkpt>
      <trkpt lat="43.26806" lon="-1.63338">
        <ele>403</ele>
        <time>2021-06-18T12:22:16Z</time>
      </trkpt>
      <trkpt lat="43.26784" lon="-1.63358">
        <ele>398</ele>
        <time>2021-06-18T12:22:22Z</time>
      </trkpt>
      <trkpt lat="43.26772" lon="-1.63359">
        <ele>397</ele>
        <time>2021-06-18T12:22:25Z</time>
      </trkpt>
      <trkpt lat="43.26759" lon="-1.63348">
        <ele>399</ele>
        <time>2021-06-18T12:22:28Z</time>
      </trkpt>
      <trkpt lat="43.26754" lon="-1.63336">
        <ele>401</ele>
        <time>2021-06-18T12:22:30Z</time>
      </trkpt>
      <trkpt lat="43.26766" lon="-1.63304">
        <ele>405</ele>
        <time>2021-06-18T12:22:37Z</time>
      </trkpt>
      <trkpt lat="43.26767" lon="-1.63289">
        <ele>407</ele>
        <time>2021-06-18T12:22:39Z</time>
      </trkpt>
      <trkpt lat="43.26757" lon="-1.63248">
        <ele>408</ele>
        <time>2021-06-18T12:22:46Z</time>
      </trkpt>
      <trkpt lat="43.2675" lon="-1.63231">
        <ele>407</ele>
        <time>2021-06-18T12:22:50Z</time>
      </trkpt>
      <trkpt lat="43.26749" lon="-1.63217">
        <ele>408</ele>
        <time>2021-06-18T12:22:52Z</time>
      </trkpt>
      <trkpt lat="43.26764" lon="-1.63142">
        <ele>422</ele>
        <time>2021-06-18T12:23:05Z</time>
      </trkpt>
      <trkpt lat="43.26758" lon="-1.63082">
        <ele>422</ele>
        <time>2021-06-18T12:23:16Z</time>
      </trkpt>
      <trkpt lat="43.26761" lon="-1.63033">
        <ele>438</ele>
        <time>2021-06-18T12:23:24Z</time>
      </trkpt>
      <trkpt lat="43.26754" lon="-1.63031">
        <ele>436</ele>
        <time>2021-06-18T12:23:26Z</time>
      </trkpt>
      <trkpt lat="43.26721" lon="-1.63042">
        <ele>427</ele>
        <time>2021-06-18T12:23:34Z</time>
      </trkpt>
      <trkpt lat="43.26673" lon="-1.6307">
        <ele>411</ele>
        <time>2021-06-18T12:23:46Z</time>
      </trkpt>
      <trkpt lat="43.26665" lon="-1.63071">
        <ele>410</ele>
        <time>2021-06-18T12:23:48Z</time>
      </trkpt>
      <trkpt lat="43.26651" lon="-1.63053">
        <ele>415</ele>
        <time>2021-06-18T12:23:52Z</time>
      </trkpt>
      <trkpt lat="43.26642" lon="-1.62995">
        <ele>434</ele>
        <time>2021-06-18T12:24:02Z</time>
      </trkpt>
      <trkpt lat="43.26633" lon="-1.62984">
        <ele>437</ele>
        <time>2021-06-18T12:24:05Z</time>
      </trkpt>
      <trkpt lat="43.26622" lon="-1.62984">
        <ele>436</ele>
        <time>2021-06-18T12:24:08Z</time>
      </trkpt>
      <trkpt lat="43.26601" lon="-1.63005">
        <ele>427</ele>
        <time>2021-06-18T12:24:14Z</time>
      </trkpt>
      <trkpt lat="43.26589" lon="-1.6301">
        <ele>424</ele>
        <time>2021-06-18T12:24:17Z</time>
      </trkpt>
      <trkpt lat="43.26569" lon="-1.63002">
        <ele>427</ele>
        <time>2021-06-18T12:24:22Z</time>
      </trkpt>
      <trkpt lat="43.26554" lon="-1.63003">
        <ele>427</ele>
        <time>2021-06-18T12:24:25Z</time>
      </trkpt>
      <trkpt lat="43.26529" lon="-1.6303">
        <ele>419</ele>
        <time>2021-06-18T12:24:32Z</time>
      </trkpt>
      <trkpt lat="43.2651" lon="-1.63033">
        <ele>419</ele>
        <time>2021-06-18T12:24:37Z</time>
      </trkpt>
      <trkpt lat="43.26494" lon="-1.63031">
        <ele>419</ele>
        <time>2021-06-18T12:24:41Z</time>
      </trkpt>
      <trkpt lat="43.26452" lon="-1.63005">
        <ele>420</ele>
        <time>2021-06-18T12:24:51Z</time>
      </trkpt>
      <trkpt lat="43.26402" lon="-1.6299">
        <ele>417</ele>
        <time>2021-06-18T12:25:03Z</time>
      </trkpt>
      <trkpt lat="43.26378" lon="-1.62975">
        <ele>417</ele>
        <time>2021-06-18T12:25:10Z</time>
      </trkpt>
      <trkpt lat="43.26357" lon="-1.62953">
        <ele>419</ele>
        <time>2021-06-18T12:25:16Z</time>
      </trkpt>
      <trkpt lat="43.26325" lon="-1.62905">
        <ele>422</ele>
        <time>2021-06-18T12:25:27Z</time>
      </trkpt>
      <trkpt lat="43.26317" lon="-1.62866">
        <ele>422</ele>
        <time>2021-06-18T12:25:34Z</time>
      </trkpt>
      <trkpt lat="43.26317" lon="-1.62846">
        <ele>423</ele>
        <time>2021-06-18T12:25:37Z</time>
      </trkpt>
      <trkpt lat="43.26326" lon="-1.62803">
        <ele>426</ele>
        <time>2021-06-18T12:25:45Z</time>
      </trkpt>
      <trkpt lat="43.26328" lon="-1.62742">
        <ele>427</ele>
        <time>2021-06-18T12:25:55Z</time>
      </trkpt>
      <trkpt lat="43.26322" lon="-1.62708">
        <ele>427</ele>
        <time>2021-06-18T12:26:01Z</time>
      </trkpt>
      <trkpt lat="43.26356" lon="-1.62608">
        <ele>442</ele>
        <time>2021-06-18T12:26:20Z</time>
      </trkpt>
      <trkpt lat="43.26356" lon="-1.62596">
        <ele>442</ele>
        <time>2021-06-18T12:26:22Z</time>
      </trkpt>
      <trkpt lat="43.26345" lon="-1.62571">
        <ele>438</ele>
        <time>2021-06-18T12:26:27Z</time>
      </trkpt>
      <trkpt lat="43.26352" lon="-1.62544">
        <ele>438</ele>
        <time>2021-06-18T12:26:32Z</time>
      </trkpt>
      <trkpt lat="43.26412" lon="-1.62452">
        <ele>449</ele>
        <time>2021-06-18T12:26:53Z</time>
      </trkpt>
      <trkpt lat="43.26417" lon="-1.62438">
        <ele>450</ele>
        <time>2021-06-18T12:26:55Z</time>
      </trkpt>
      <trkpt lat="43.26417" lon="-1.62429">
        <ele>449</ele>
        <time>2021-06-18T12:26:57Z</time>
      </trkpt>
      <trkpt lat="43.26413" lon="-1.6242">
        <ele>447</ele>
        <time>2021-06-18T12:26:59Z</time>
      </trkpt>
      <trkpt lat="43.26396" lon="-1.62402">
        <ele>442</ele>
        <time>2021-06-18T12:27:04Z</time>
      </trkpt>
      <trkpt lat="43.2639" lon="-1.62392">
        <ele>441</ele>
        <time>2021-06-18T12:27:06Z</time>
      </trkpt>
      <trkpt lat="43.26385" lon="-1.62364">
        <ele>444</ele>
        <time>2021-06-18T12:27:11Z</time>
      </trkpt>
      <trkpt lat="43.26385" lon="-1.62332">
        <ele>448</ele>
        <time>2021-06-18T12:27:16Z</time>
      </trkpt>
      <trkpt lat="43.26351" lon="-1.62308">
        <ele>443</ele>
        <time>2021-06-18T12:27:25Z</time>
      </trkpt>
      <trkpt lat="43.26304" lon="-1.62285">
        <ele>435</ele>
        <time>2021-06-18T12:27:37Z</time>
      </trkpt>
      <trkpt lat="43.2627" lon="-1.62246">
        <ele>436</ele>
        <time>2021-06-18T12:27:47Z</time>
      </trkpt>
      <trkpt lat="43.26262" lon="-1.62232">
        <ele>435</ele>
        <time>2021-06-18T12:27:50Z</time>
      </trkpt>
      <trkpt lat="43.26257" lon="-1.62217">
        <ele>436</ele>
        <time>2021-06-18T12:27:53Z</time>
      </trkpt>
      <trkpt lat="43.26249" lon="-1.62166">
        <ele>443</ele>
        <time>2021-06-18T12:28:02Z</time>
      </trkpt>
      <trkpt lat="43.26223" lon="-1.62094">
        <ele>440</ele>
        <time>2021-06-18T12:28:16Z</time>
      </trkpt>
      <trkpt lat="43.26184" lon="-1.62006">
        <ele>437</ele>
        <time>2021-06-18T12:28:33Z</time>
      </trkpt>
      <trkpt lat="43.26175" lon="-1.61994">
        <ele>436</ele>
        <time>2021-06-18T12:28:36Z</time>
      </trkpt>
      <trkpt lat="43.26115" lon="-1.61948">
        <ele>433</ele>
        <time>2021-06-18T12:28:52Z</time>
      </trkpt>
      <trkpt lat="43.26087" lon="-1.6193">
        <ele>436</ele>
        <time>2021-06-18T12:28:59Z</time>
      </trkpt>
      <trkpt lat="43.26066" lon="-1.61909">
        <ele>437</ele>
        <time>2021-06-18T12:29:05Z</time>
      </trkpt>
      <trkpt lat="43.26015" lon="-1.61875">
        <ele>439</ele>
        <time>2021-06-18T12:29:19Z</time>
      </trkpt>
      <trkpt lat="43.25955" lon="-1.61794">
        <ele>452</ele>
        <time>2021-06-18T12:29:38Z</time>
      </trkpt>
      <trkpt lat="43.25928" lon="-1.61768">
        <ele>459</ele>
        <time>2021-06-18T12:29:46Z</time>
      </trkpt>
      <trkpt lat="43.25918" lon="-1.61762">
        <ele>462</ele>
        <time>2021-06-18T12:29:48Z</time>
      </trkpt>
      <trkpt lat="43.25905" lon="-1.61759">
        <ele>466</ele>
        <time>2021-06-18T12:29:52Z</time>
      </trkpt>
      <trkpt lat="43.2588" lon="-1.6176">
        <ele>472</ele>
        <time>2021-06-18T12:29:57Z</time>
      </trkpt>
      <trkpt lat="43.25868" lon="-1.61763">
        <ele>475</ele>
        <time>2021-06-18T12:30:00Z</time>
      </trkpt>
      <trkpt lat="43.25822" lon="-1.61788">
        <ele>482</ele>
        <time>2021-06-18T12:30:12Z</time>
      </trkpt>
      <trkpt lat="43.25786" lon="-1.61773">
        <ele>486</ele>
        <time>2021-06-18T12:30:21Z</time>
      </trkpt>
      <trkpt lat="43.25778" lon="-1.61764">
        <ele>488</ele>
        <time>2021-06-18T12:30:23Z</time>
      </trkpt>
      <trkpt lat="43.25767" lon="-1.61744">
        <ele>490</ele>
        <time>2021-06-18T12:30:27Z</time>
      </trkpt>
      <trkpt lat="43.25697" lon="-1.61663">
        <ele>474</ele>
        <time>2021-06-18T12:30:49Z</time>
      </trkpt>
      <trkpt lat="43.25648" lon="-1.616">
        <ele>462</ele>
        <time>2021-06-18T12:31:04Z</time>
      </trkpt>
      <trkpt lat="43.25651" lon="-1.61589">
        <ele>463</ele>
        <time>2021-06-18T12:31:06Z</time>
      </trkpt>
      <trkpt lat="43.25634" lon="-1.61567">
        <ele>459</ele>
        <time>2021-06-18T12:31:12Z</time>
      </trkpt>
      <trkpt lat="43.25622" lon="-1.61491">
        <ele>459</ele>
        <time>2021-06-18T12:31:25Z</time>
      </trkpt>
      <trkpt lat="43.25614" lon="-1.6146">
        <ele>458</ele>
        <time>2021-06-18T12:31:31Z</time>
      </trkpt>
      <trkpt lat="43.25587" lon="-1.61407">
        <ele>465</ele>
        <time>2021-06-18T12:31:42Z</time>
      </trkpt>
      <trkpt lat="43.2557" lon="-1.61361">
        <ele>458</ele>
        <time>2021-06-18T12:31:50Z</time>
      </trkpt>
      <trkpt lat="43.25567" lon="-1.61337">
        <ele>454</ele>
        <time>2021-06-18T12:31:54Z</time>
      </trkpt>
      <trkpt lat="43.25559" lon="-1.6132">
        <ele>452</ele>
        <time>2021-06-18T12:31:58Z</time>
      </trkpt>
      <trkpt lat="43.25531" lon="-1.61292">
        <ele>451</ele>
        <time>2021-06-18T12:32:06Z</time>
      </trkpt>
      <trkpt lat="43.25523" lon="-1.61277">
        <ele>451</ele>
        <time>2021-06-18T12:32:09Z</time>
      </trkpt>
      <trkpt lat="43.25516" lon="-1.6125">
        <ele>451</ele>
        <time>2021-06-18T12:32:14Z</time>
      </trkpt>
      <trkpt lat="43.25486" lon="-1.61226">
        <ele>454</ele>
        <time>2021-06-18T12:32:22Z</time>
      </trkpt>
      <trkpt lat="43.25473" lon="-1.61209">
        <ele>453</ele>
        <time>2021-06-18T12:32:26Z</time>
      </trkpt>
      <trkpt lat="43.25451" lon="-1.61148">
        <ele>458</ele>
        <time>2021-06-18T12:32:38Z</time>
      </trkpt>
      <trkpt lat="43.25427" lon="-1.611">
        <ele>463</ele>
        <time>2021-06-18T12:32:48Z</time>
      </trkpt>
      <trkpt lat="43.25391" lon="-1.61045">
        <ele>457</ele>
        <time>2021-06-18T12:33:00Z</time>
      </trkpt>
      <trkpt lat="43.25362" lon="-1.60975">
        <ele>453</ele>
        <time>2021-06-18T12:33:14Z</time>
      </trkpt>
      <trkpt lat="43.25344" lon="-1.60962">
        <ele>451</ele>
        <time>2021-06-18T12:33:19Z</time>
      </trkpt>
      <trkpt lat="43.25331" lon="-1.6096">
        <ele>450</ele>
        <time>2021-06-18T12:33:22Z</time>
      </trkpt>
      <trkpt lat="43.25314" lon="-1.60948">
        <ele>451</ele>
        <time>2021-06-18T12:33:26Z</time>
      </trkpt>
      <trkpt lat="43.25303" lon="-1.60938">
        <ele>453</ele>
        <time>2021-06-18T12:33:29Z</time>
      </trkpt>
      <trkpt lat="43.25297" lon="-1.60923">
        <ele>456</ele>
        <time>2021-06-18T12:33:32Z</time>
      </trkpt>
      <trkpt lat="43.25298" lon="-1.60918">
        <ele>457</ele>
        <time>2021-06-18T12:33:33Z</time>
      </trkpt>
      <trkpt lat="43.25291" lon="-1.60908">
        <ele>457</ele>
        <time>2021-06-18T12:33:36Z</time>
      </trkpt>
      <trkpt lat="43.25263" lon="-1.60893">
        <ele>461</ele>
        <time>2021-06-18T12:33:43Z</time>
      </trkpt>
      <trkpt lat="43.25245" lon="-1.60876">
        <ele>464</ele>
        <time>2021-06-18T12:33:48Z</time>
      </trkpt>
      <trkpt lat="43.25224" lon="-1.60846">
        <ele>466</ele>
        <time>2021-06-18T12:33:55Z</time>
      </trkpt>
      <trkpt lat="43.25195" lon="-1.60773">
        <ele>461</ele>
        <time>2021-06-18T12:34:09Z</time>
      </trkpt>
      <trkpt lat="43.25197" lon="-1.6076">
        <ele>458</ele>
        <time>2021-06-18T12:34:11Z</time>
      </trkpt>
      <trkpt lat="43.25208" lon="-1.60728">
        <ele>455</ele>
        <time>2021-06-18T12:34:17Z</time>
      </trkpt>
      <trkpt lat="43.25222" lon="-1.60695">
        <ele>454</ele>
        <time>2021-06-18T12:34:24Z</time>
      </trkpt>
      <trkpt lat="43.25235" lon="-1.60677">
        <ele>454</ele>
        <time>2021-06-18T12:34:28Z</time>
      </trkpt>
      <trkpt lat="43.25242" lon="-1.60656">
        <ele>457</ele>
        <time>2021-06-18T12:34:32Z</time>
      </trkpt>
      <trkpt lat="43.25242" lon="-1.60598">
        <ele>468</ele>
        <time>2021-06-18T12:34:42Z</time>
      </trkpt>
      <trkpt lat="43.25249" lon="-1.60551">
        <ele>475</ele>
        <time>2021-06-18T12:34:50Z</time>
      </trkpt>
      <trkpt lat="43.25291" lon="-1.60463">
        <ele>479</ele>
        <time>2021-06-18T12:35:08Z</time>
      </trkpt>
      <trkpt lat="43.25294" lon="-1.60466">
        <ele>478</ele>
        <time>2021-06-18T12:35:09Z</time>
      </trkpt>
      <trkpt lat="43.25304" lon="-1.60447">
        <ele>481</ele>
        <time>2021-06-18T12:35:13Z</time>
      </trkpt>
      <trkpt lat="43.25317" lon="-1.60438">
        <ele>483</ele>
        <time>2021-06-18T12:35:16Z</time>
      </trkpt>
      <trkpt lat="43.2534" lon="-1.60428">
        <ele>484</ele>
        <time>2021-06-18T12:35:22Z</time>
      </trkpt>
      <trkpt lat="43.25354" lon="-1.60414">
        <ele>484</ele>
        <time>2021-06-18T12:35:26Z</time>
      </trkpt>
      <trkpt lat="43.25413" lon="-1.60345">
        <ele>488</ele>
        <time>2021-06-18T12:35:44Z</time>
      </trkpt>
      <trkpt lat="43.25439" lon="-1.6032">
        <ele>484</ele>
        <time>2021-06-18T12:35:51Z</time>
      </trkpt>
      <trkpt lat="43.25453" lon="-1.60294">
        <ele>481</ele>
        <time>2021-06-18T12:35:57Z</time>
      </trkpt>
      <trkpt lat="43.25455" lon="-1.60274">
        <ele>482</ele>
        <time>2021-06-18T12:36:00Z</time>
      </trkpt>
      <trkpt lat="43.25453" lon="-1.60256">
        <ele>483</ele>
        <time>2021-06-18T12:36:03Z</time>
      </trkpt>
      <trkpt lat="43.25446" lon="-1.60239">
        <ele>483</ele>
        <time>2021-06-18T12:36:07Z</time>
      </trkpt>
      <trkpt lat="43.25436" lon="-1.60217">
        <ele>482</ele>
        <time>2021-06-18T12:36:11Z</time>
      </trkpt>
      <trkpt lat="43.25396" lon="-1.60165">
        <ele>482</ele>
        <time>2021-06-18T12:36:24Z</time>
      </trkpt>
      <trkpt lat="43.25392" lon="-1.60146">
        <ele>480</ele>
        <time>2021-06-18T12:36:27Z</time>
      </trkpt>
      <trkpt lat="43.25405" lon="-1.60112">
        <ele>475</ele>
        <time>2021-06-18T12:36:34Z</time>
      </trkpt>
      <trkpt lat="43.25402" lon="-1.60093">
        <ele>473</ele>
        <time>2021-06-18T12:36:37Z</time>
      </trkpt>
      <trkpt lat="43.25409" lon="-1.60066">
        <ele>473</ele>
        <time>2021-06-18T12:36:42Z</time>
      </trkpt>
      <trkpt lat="43.25412" lon="-1.60059">
        <ele>473</ele>
        <time>2021-06-18T12:36:43Z</time>
      </trkpt>
      <trkpt lat="43.25429" lon="-1.60037">
        <ele>472</ele>
        <time>2021-06-18T12:36:49Z</time>
      </trkpt>
      <trkpt lat="43.25444" lon="-1.59997">
        <ele>474</ele>
        <time>2021-06-18T12:36:57Z</time>
      </trkpt>
      <trkpt lat="43.25444" lon="-1.59977">
        <ele>477</ele>
        <time>2021-06-18T12:37:00Z</time>
      </trkpt>
      <trkpt lat="43.25428" lon="-1.59873">
        <ele>496</ele>
        <time>2021-06-18T12:37:18Z</time>
      </trkpt>
      <trkpt lat="43.25445" lon="-1.59799">
        <ele>502</ele>
        <time>2021-06-18T12:37:31Z</time>
      </trkpt>
      <trkpt lat="43.25457" lon="-1.59713">
        <ele>500</ele>
        <time>2021-06-18T12:37:46Z</time>
      </trkpt>
      <trkpt lat="43.25452" lon="-1.5966">
        <ele>497</ele>
        <time>2021-06-18T12:37:55Z</time>
      </trkpt>
      <trkpt lat="43.25455" lon="-1.59595">
        <ele>498</ele>
        <time>2021-06-18T12:38:06Z</time>
      </trkpt>
      <trkpt lat="43.2545" lon="-1.59549">
        <ele>502</ele>
        <time>2021-06-18T12:38:14Z</time>
      </trkpt>
      <trkpt lat="43.25454" lon="-1.59507">
        <ele>507</ele>
        <time>2021-06-18T12:38:21Z</time>
      </trkpt>
      <trkpt lat="43.25438" lon="-1.59396">
        <ele>513</ele>
        <time>2021-06-18T12:38:41Z</time>
      </trkpt>
      <trkpt lat="43.25437" lon="-1.59319">
        <ele>515</ele>
        <time>2021-06-18T12:38:54Z</time>
      </trkpt>
      <trkpt lat="43.25428" lon="-1.59289">
        <ele>517</ele>
        <time>2021-06-18T12:38:59Z</time>
      </trkpt>
      <trkpt lat="43.25425" lon="-1.59259">
        <ele>518</ele>
        <time>2021-06-18T12:39:04Z</time>
      </trkpt>
      <trkpt lat="43.25426" lon="-1.59241">
        <ele>518</ele>
        <time>2021-06-18T12:39:07Z</time>
      </trkpt>
      <trkpt lat="43.25414" lon="-1.59207">
        <ele>518</ele>
        <time>2021-06-18T12:39:14Z</time>
      </trkpt>
      <trkpt lat="43.25408" lon="-1.59154">
        <ele>517</ele>
        <time>2021-06-18T12:39:23Z</time>
      </trkpt>
      <trkpt lat="43.25392" lon="-1.5911">
        <ele>513</ele>
        <time>2021-06-18T12:39:31Z</time>
      </trkpt>
      <trkpt lat="43.25376" lon="-1.59052">
        <ele>508</ele>
        <time>2021-06-18T12:39:42Z</time>
      </trkpt>
      <trkpt lat="43.25349" lon="-1.58998">
        <ele>503</ele>
        <time>2021-06-18T12:39:53Z</time>
      </trkpt>
      <trkpt lat="43.25338" lon="-1.58949">
        <ele>504</ele>
        <time>2021-06-18T12:40:02Z</time>
      </trkpt>
      <trkpt lat="43.25335" lon="-1.58893">
        <ele>506</ele>
        <time>2021-06-18T12:40:11Z</time>
      </trkpt>
      <trkpt lat="43.25336" lon="-1.58839">
        <ele>505</ele>
        <time>2021-06-18T12:40:21Z</time>
      </trkpt>
      <trkpt lat="43.25339" lon="-1.58802">
        <ele>501</ele>
        <time>2021-06-18T12:40:27Z</time>
      </trkpt>
      <trkpt lat="43.25351" lon="-1.58761">
        <ele>495</ele>
        <time>2021-06-18T12:40:34Z</time>
      </trkpt>
      <trkpt lat="43.25328" lon="-1.58705">
        <ele>489</ele>
        <time>2021-06-18T12:40:45Z</time>
      </trkpt>
      <trkpt lat="43.25307" lon="-1.5868">
        <ele>487</ele>
        <time>2021-06-18T12:40:52Z</time>
      </trkpt>
      <trkpt lat="43.25288" lon="-1.58629">
        <ele>484</ele>
        <time>2021-06-18T12:41:02Z</time>
      </trkpt>
      <trkpt lat="43.2522" lon="-1.58584">
        <ele>477</ele>
        <time>2021-06-18T12:41:19Z</time>
      </trkpt>
      <trkpt lat="43.25181" lon="-1.58569">
        <ele>474</ele>
        <time>2021-06-18T12:41:29Z</time>
      </trkpt>
      <trkpt lat="43.25166" lon="-1.58567">
        <ele>473</ele>
        <time>2021-06-18T12:41:32Z</time>
      </trkpt>
      <trkpt lat="43.25137" lon="-1.58554">
        <ele>471</ele>
        <time>2021-06-18T12:41:39Z</time>
      </trkpt>
      <trkpt lat="43.251" lon="-1.58529">
        <ele>471</ele>
        <time>2021-06-18T12:41:49Z</time>
      </trkpt>
      <trkpt lat="43.25092" lon="-1.5852">
        <ele>471</ele>
        <time>2021-06-18T12:41:51Z</time>
      </trkpt>
      <trkpt lat="43.25089" lon="-1.58511">
        <ele>471</ele>
        <time>2021-06-18T12:41:53Z</time>
      </trkpt>
      <trkpt lat="43.25104" lon="-1.58502">
        <ele>473</ele>
        <time>2021-06-18T12:41:57Z</time>
      </trkpt>
      <trkpt lat="43.25114" lon="-1.58482">
        <ele>475</ele>
        <time>2021-06-18T12:42:01Z</time>
      </trkpt>
      <trkpt lat="43.25121" lon="-1.58458">
        <ele>477</ele>
        <time>2021-06-18T12:42:05Z</time>
      </trkpt>
      <trkpt lat="43.25127" lon="-1.58431">
        <ele>479</ele>
        <time>2021-06-18T12:42:10Z</time>
      </trkpt>
      <trkpt lat="43.25129" lon="-1.58405">
        <ele>481</ele>
        <time>2021-06-18T12:42:15Z</time>
      </trkpt>
      <trkpt lat="43.25128" lon="-1.58352">
        <ele>485</ele>
        <time>2021-06-18T12:42:24Z</time>
      </trkpt>
      <trkpt lat="43.25121" lon="-1.58321">
        <ele>487</ele>
        <time>2021-06-18T12:42:29Z</time>
      </trkpt>
      <trkpt lat="43.25094" lon="-1.58259">
        <ele>492</ele>
        <time>2021-06-18T12:42:41Z</time>
      </trkpt>
      <trkpt lat="43.25081" lon="-1.58238">
        <ele>494</ele>
        <time>2021-06-18T12:42:46Z</time>
      </trkpt>
      <trkpt lat="43.25079" lon="-1.58222">
        <ele>495</ele>
        <time>2021-06-18T12:42:49Z</time>
      </trkpt>
      <trkpt lat="43.25084" lon="-1.58188">
        <ele>495</ele>
        <time>2021-06-18T12:42:55Z</time>
      </trkpt>
      <trkpt lat="43.25072" lon="-1.58128">
        <ele>497</ele>
        <time>2021-06-18T12:43:05Z</time>
      </trkpt>
      <trkpt lat="43.25073" lon="-1.5811">
        <ele>497</ele>
        <time>2021-06-18T12:43:08Z</time>
      </trkpt>
      <trkpt lat="43.2507" lon="-1.58105">
        <ele>497</ele>
        <time>2021-06-18T12:43:10Z</time>
      </trkpt>
      <trkpt lat="43.25073" lon="-1.5811">
        <ele>497</ele>
        <time>2021-06-18T12:43:11Z</time>
      </trkpt>
      <trkpt lat="43.25079" lon="-1.58086">
        <ele>497</ele>
        <time>2021-06-18T12:43:15Z</time>
      </trkpt>
      <trkpt lat="43.25075" lon="-1.58057">
        <ele>496</ele>
        <time>2021-06-18T12:43:20Z</time>
      </trkpt>
      <trkpt lat="43.2507" lon="-1.58042">
        <ele>494</ele>
        <time>2021-06-18T12:43:23Z</time>
      </trkpt>
      <trkpt lat="43.25061" lon="-1.58034">
        <ele>494</ele>
        <time>2021-06-18T12:43:25Z</time>
      </trkpt>
      <trkpt lat="43.25042" lon="-1.58029">
        <ele>493</ele>
        <time>2021-06-18T12:43:30Z</time>
      </trkpt>
      <trkpt lat="43.25036" lon="-1.58024">
        <ele>492</ele>
        <time>2021-06-18T12:43:31Z</time>
      </trkpt>
      <trkpt lat="43.25026" lon="-1.57998">
        <ele>488</ele>
        <time>2021-06-18T12:43:36Z</time>
      </trkpt>
      <trkpt lat="43.25014" lon="-1.58">
        <ele>488</ele>
        <time>2021-06-18T12:43:39Z</time>
      </trkpt>
      <trkpt lat="43.24995" lon="-1.58017">
        <ele>489</ele>
        <time>2021-06-18T12:43:45Z</time>
      </trkpt>
      <trkpt lat="43.2498" lon="-1.5805">
        <ele>494</ele>
        <time>2021-06-18T12:43:51Z</time>
      </trkpt>
      <trkpt lat="43.24959" lon="-1.5807">
        <ele>496</ele>
        <time>2021-06-18T12:43:57Z</time>
      </trkpt>
      <trkpt lat="43.2492" lon="-1.58086">
        <ele>496</ele>
        <time>2021-06-18T12:44:07Z</time>
      </trkpt>
      <trkpt lat="43.2491" lon="-1.58097">
        <ele>497</ele>
        <time>2021-06-18T12:44:10Z</time>
      </trkpt>
      <trkpt lat="43.24905" lon="-1.58112">
        <ele>498</ele>
        <time>2021-06-18T12:44:12Z</time>
      </trkpt>
      <trkpt lat="43.24882" lon="-1.5813">
        <ele>499</ele>
        <time>2021-06-18T12:44:19Z</time>
      </trkpt>
      <trkpt lat="43.24865" lon="-1.58161">
        <ele>501</ele>
        <time>2021-06-18T12:44:25Z</time>
      </trkpt>
      <trkpt lat="43.24834" lon="-1.58202">
        <ele>503</ele>
        <time>2021-06-18T12:44:35Z</time>
      </trkpt>
      <trkpt lat="43.24818" lon="-1.58211">
        <ele>507</ele>
        <time>2021-06-18T12:44:39Z</time>
      </trkpt>
      <trkpt lat="43.24801" lon="-1.5821">
        <ele>509</ele>
        <time>2021-06-18T12:44:43Z</time>
      </trkpt>
      <trkpt lat="43.24795" lon="-1.58194">
        <ele>507</ele>
        <time>2021-06-18T12:44:46Z</time>
      </trkpt>
      <trkpt lat="43.24811" lon="-1.58133">
        <ele>498</ele>
        <time>2021-06-18T12:44:57Z</time>
      </trkpt>
      <trkpt lat="43.24808" lon="-1.58078">
        <ele>493</ele>
        <time>2021-06-18T12:45:07Z</time>
      </trkpt>
      <trkpt lat="43.24803" lon="-1.58054">
        <ele>492</ele>
        <time>2021-06-18T12:45:11Z</time>
      </trkpt>
      <trkpt lat="43.24781" lon="-1.58038">
        <ele>494</ele>
        <time>2021-06-18T12:45:17Z</time>
      </trkpt>
      <trkpt lat="43.24772" lon="-1.58038">
        <ele>496</ele>
        <time>2021-06-18T12:45:19Z</time>
      </trkpt>
      <trkpt lat="43.24757" lon="-1.58071">
        <ele>500</ele>
        <time>2021-06-18T12:45:26Z</time>
      </trkpt>
      <trkpt lat="43.24746" lon="-1.58084">
        <ele>503</ele>
        <time>2021-06-18T12:45:29Z</time>
      </trkpt>
      <trkpt lat="43.24733" lon="-1.5807">
        <ele>505</ele>
        <time>2021-06-18T12:45:33Z</time>
      </trkpt>
      <trkpt lat="43.24714" lon="-1.58021">
        <ele>506</ele>
        <time>2021-06-18T12:45:42Z</time>
      </trkpt>
      <trkpt lat="43.24652" lon="-1.57971">
        <ele>522</ele>
        <time>2021-06-18T12:45:59Z</time>
      </trkpt>
      <trkpt lat="43.24649" lon="-1.57961">
        <ele>524</ele>
        <time>2021-06-18T12:46:01Z</time>
      </trkpt>
      <trkpt lat="43.24652" lon="-1.5794">
        <ele>524</ele>
        <time>2021-06-18T12:46:04Z</time>
      </trkpt>
      <trkpt lat="43.24733" lon="-1.57894">
        <ele>516</ele>
        <time>2021-06-18T12:46:25Z</time>
      </trkpt>
      <trkpt lat="43.24733" lon="-1.57847">
        <ele>527</ele>
        <time>2021-06-18T12:46:33Z</time>
      </trkpt>
      <trkpt lat="43.24756" lon="-1.57814">
        <ele>528</ele>
        <time>2021-06-18T12:46:41Z</time>
      </trkpt>
      <trkpt lat="43.24786" lon="-1.57815">
        <ele>521</ele>
        <time>2021-06-18T12:46:48Z</time>
      </trkpt>
      <trkpt lat="43.24795" lon="-1.57812">
        <ele>520</ele>
        <time>2021-06-18T12:46:50Z</time>
      </trkpt>
      <trkpt lat="43.24815" lon="-1.57786">
        <ele>520</ele>
        <time>2021-06-18T12:46:56Z</time>
      </trkpt>
      <trkpt lat="43.24831" lon="-1.5768">
        <ele>527</ele>
        <time>2021-06-18T12:47:15Z</time>
      </trkpt>
      <trkpt lat="43.24826" lon="-1.57674">
        <ele>528</ele>
        <time>2021-06-18T12:47:16Z</time>
      </trkpt>
      <trkpt lat="43.24795" lon="-1.57661">
        <ele>530</ele>
        <time>2021-06-18T12:47:24Z</time>
      </trkpt>
      <trkpt lat="43.24777" lon="-1.57646">
        <ele>528</ele>
        <time>2021-06-18T12:47:29Z</time>
      </trkpt>
      <trkpt lat="43.24766" lon="-1.57642">
        <ele>528</ele>
        <time>2021-06-18T12:47:31Z</time>
      </trkpt>
      <trkpt lat="43.24742" lon="-1.57648">
        <ele>530</ele>
        <time>2021-06-18T12:47:37Z</time>
      </trkpt>
      <trkpt lat="43.2473" lon="-1.57645">
        <ele>529</ele>
        <time>2021-06-18T12:47:40Z</time>
      </trkpt>
      <trkpt lat="43.24723" lon="-1.57642">
        <ele>528</ele>
        <time>2021-06-18T12:47:42Z</time>
      </trkpt>
      <trkpt lat="43.24696" lon="-1.57616">
        <ele>520</ele>
        <time>2021-06-18T12:47:49Z</time>
      </trkpt>
      <trkpt lat="43.24681" lon="-1.57617">
        <ele>520</ele>
        <time>2021-06-18T12:47:53Z</time>
      </trkpt>
      <trkpt lat="43.24669" lon="-1.57625">
        <ele>522</ele>
        <time>2021-06-18T12:47:56Z</time>
      </trkpt>
      <trkpt lat="43.2465" lon="-1.57648">
        <ele>525</ele>
        <time>2021-06-18T12:48:02Z</time>
      </trkpt>
      <trkpt lat="43.24625" lon="-1.57694">
        <ele>532</ele>
        <time>2021-06-18T12:48:12Z</time>
      </trkpt>
      <trkpt lat="43.24611" lon="-1.57709">
        <ele>534</ele>
        <time>2021-06-18T12:48:16Z</time>
      </trkpt>
      <trkpt lat="43.24605" lon="-1.57713">
        <ele>535</ele>
        <time>2021-06-18T12:48:17Z</time>
      </trkpt>
      <trkpt lat="43.24584" lon="-1.57719">
        <ele>534</ele>
        <time>2021-06-18T12:48:22Z</time>
      </trkpt>
      <trkpt lat="43.24579" lon="-1.57725">
        <ele>536</ele>
        <time>2021-06-18T12:48:24Z</time>
      </trkpt>
      <trkpt lat="43.2456" lon="-1.57735">
        <ele>542</ele>
        <time>2021-06-18T12:48:29Z</time>
      </trkpt>
      <trkpt lat="43.24533" lon="-1.57705">
        <ele>536</ele>
        <time>2021-06-18T12:48:37Z</time>
      </trkpt>
      <trkpt lat="43.24525" lon="-1.57676">
        <ele>528</ele>
        <time>2021-06-18T12:48:42Z</time>
      </trkpt>
      <trkpt lat="43.24519" lon="-1.5767">
        <ele>527</ele>
        <time>2021-06-18T12:48:44Z</time>
      </trkpt>
      <trkpt lat="43.24511" lon="-1.57668">
        <ele>527</ele>
        <time>2021-06-18T12:48:46Z</time>
      </trkpt>
      <trkpt lat="43.24487" lon="-1.57677">
        <ele>532</ele>
        <time>2021-06-18T12:48:52Z</time>
      </trkpt>
      <trkpt lat="43.24481" lon="-1.57674">
        <ele>531</ele>
        <time>2021-06-18T12:48:53Z</time>
      </trkpt>
      <trkpt lat="43.24466" lon="-1.5765">
        <ele>526</ele>
        <time>2021-06-18T12:48:58Z</time>
      </trkpt>
      <trkpt lat="43.24448" lon="-1.57644">
        <ele>526</ele>
        <time>2021-06-18T12:49:03Z</time>
      </trkpt>
      <trkpt lat="43.24442" lon="-1.57639">
        <ele>525</ele>
        <time>2021-06-18T12:49:04Z</time>
      </trkpt>
      <trkpt lat="43.24436" lon="-1.57629">
        <ele>523</ele>
        <time>2021-06-18T12:49:07Z</time>
      </trkpt>
      <trkpt lat="43.24434" lon="-1.57584">
        <ele>513</ele>
        <time>2021-06-18T12:49:14Z</time>
      </trkpt>
      <trkpt lat="43.24442" lon="-1.5755">
        <ele>507</ele>
        <time>2021-06-18T12:49:20Z</time>
      </trkpt>
      <trkpt lat="43.24442" lon="-1.57529">
        <ele>504</ele>
        <time>2021-06-18T12:49:24Z</time>
      </trkpt>
      <trkpt lat="43.24429" lon="-1.57489">
        <ele>501</ele>
        <time>2021-06-18T12:49:31Z</time>
      </trkpt>
      <trkpt lat="43.24417" lon="-1.57474">
        <ele>500</ele>
        <time>2021-06-18T12:49:35Z</time>
      </trkpt>
      <trkpt lat="43.24408" lon="-1.57468">
        <ele>499</ele>
        <time>2021-06-18T12:49:37Z</time>
      </trkpt>
      <trkpt lat="43.24396" lon="-1.57467">
        <ele>498</ele>
        <time>2021-06-18T12:49:40Z</time>
      </trkpt>
      <trkpt lat="43.24366" lon="-1.57477">
        <ele>499</ele>
        <time>2021-06-18T12:49:47Z</time>
      </trkpt>
      <trkpt lat="43.24347" lon="-1.57494">
        <ele>501</ele>
        <time>2021-06-18T12:49:53Z</time>
      </trkpt>
      <trkpt lat="43.24332" lon="-1.57517">
        <ele>504</ele>
        <time>2021-06-18T12:49:58Z</time>
      </trkpt>
      <trkpt lat="43.24319" lon="-1.5752">
        <ele>506</ele>
        <time>2021-06-18T12:50:01Z</time>
      </trkpt>
      <trkpt lat="43.24296" lon="-1.57513">
        <ele>506</ele>
        <time>2021-06-18T12:50:07Z</time>
      </trkpt>
      <trkpt lat="43.2429" lon="-1.57505">
        <ele>506</ele>
        <time>2021-06-18T12:50:09Z</time>
      </trkpt>
      <trkpt lat="43.24271" lon="-1.57449">
        <ele>499</ele>
        <time>2021-06-18T12:50:19Z</time>
      </trkpt>
      <trkpt lat="43.24266" lon="-1.57445">
        <ele>500</ele>
        <time>2021-06-18T12:50:20Z</time>
      </trkpt>
      <trkpt lat="43.24262" lon="-1.57445">
        <ele>500</ele>
        <time>2021-06-18T12:50:21Z</time>
      </trkpt>
      <trkpt lat="43.24243" lon="-1.57466">
        <ele>502</ele>
        <time>2021-06-18T12:50:27Z</time>
      </trkpt>
      <trkpt lat="43.2423" lon="-1.57493">
        <ele>502</ele>
        <time>2021-06-18T12:50:33Z</time>
      </trkpt>
      <trkpt lat="43.24212" lon="-1.57541">
        <ele>507</ele>
        <time>2021-06-18T12:50:42Z</time>
      </trkpt>
      <trkpt lat="43.24201" lon="-1.57559">
        <ele>509</ele>
        <time>2021-06-18T12:50:46Z</time>
      </trkpt>
      <trkpt lat="43.2416" lon="-1.57604">
        <ele>509</ele>
        <time>2021-06-18T12:50:58Z</time>
      </trkpt>
      <trkpt lat="43.24143" lon="-1.57632">
        <ele>507</ele>
        <time>2021-06-18T12:51:04Z</time>
      </trkpt>
      <trkpt lat="43.24128" lon="-1.57672">
        <ele>510</ele>
        <time>2021-06-18T12:51:12Z</time>
      </trkpt>
      <trkpt lat="43.24092" lon="-1.57747">
        <ele>511</ele>
        <time>2021-06-18T12:51:27Z</time>
      </trkpt>
      <trkpt lat="43.24044" lon="-1.57801">
        <ele>506</ele>
        <time>2021-06-18T12:51:42Z</time>
      </trkpt>
      <trkpt lat="43.2403" lon="-1.57832">
        <ele>506</ele>
        <time>2021-06-18T12:51:48Z</time>
      </trkpt>
      <trkpt lat="43.24009" lon="-1.57927">
        <ele>515</ele>
        <time>2021-06-18T12:52:05Z</time>
      </trkpt>
      <trkpt lat="43.23994" lon="-1.57975">
        <ele>515</ele>
        <time>2021-06-18T12:52:14Z</time>
      </trkpt>
      <trkpt lat="43.23994" lon="-1.57995">
        <ele>518</ele>
        <time>2021-06-18T12:52:17Z</time>
      </trkpt>
      <trkpt lat="43.23991" lon="-1.58004">
        <ele>518</ele>
        <time>2021-06-18T12:52:19Z</time>
      </trkpt>
      <trkpt lat="43.2397" lon="-1.58029">
        <ele>516</ele>
        <time>2021-06-18T12:52:25Z</time>
      </trkpt>
      <trkpt lat="43.23954" lon="-1.58068">
        <ele>519</ele>
        <time>2021-06-18T12:52:33Z</time>
      </trkpt>
      <trkpt lat="43.23933" lon="-1.58083">
        <ele>513</ele>
        <time>2021-06-18T12:52:38Z</time>
      </trkpt>
      <trkpt lat="43.23898" lon="-1.58131">
        <ele>514</ele>
        <time>2021-06-18T12:52:50Z</time>
      </trkpt>
      <trkpt lat="43.23885" lon="-1.58153">
        <ele>515</ele>
        <time>2021-06-18T12:52:55Z</time>
      </trkpt>
      <trkpt lat="43.23878" lon="-1.58176">
        <ele>516</ele>
        <time>2021-06-18T12:52:59Z</time>
      </trkpt>
      <trkpt lat="43.23866" lon="-1.58234">
        <ele>519</ele>
        <time>2021-06-18T12:53:09Z</time>
      </trkpt>
      <trkpt lat="43.23866" lon="-1.58306">
        <ele>526</ele>
        <time>2021-06-18T12:53:21Z</time>
      </trkpt>
      <trkpt lat="43.23875" lon="-1.58356">
        <ele>535</ele>
        <time>2021-06-18T12:53:30Z</time>
      </trkpt>
      <trkpt lat="43.23871" lon="-1.58371">
        <ele>534</ele>
        <time>2021-06-18T12:53:33Z</time>
      </trkpt>
      <trkpt lat="43.23857" lon="-1.58399">
        <ele>530</ele>
        <time>2021-06-18T12:53:39Z</time>
      </trkpt>
      <trkpt lat="43.23854" lon="-1.58418">
        <ele>530</ele>
        <time>2021-06-18T12:53:42Z</time>
      </trkpt>
      <trkpt lat="43.2386" lon="-1.58488">
        <ele>539</ele>
        <time>2021-06-18T12:53:54Z</time>
      </trkpt>
      <trkpt lat="43.23858" lon="-1.58502">
        <ele>539</ele>
        <time>2021-06-18T12:53:56Z</time>
      </trkpt>
      <trkpt lat="43.23853" lon="-1.58515">
        <ele>537</ele>
        <time>2021-06-18T12:53:59Z</time>
      </trkpt>
      <trkpt lat="43.23823" lon="-1.58538">
        <ele>528</ele>
        <time>2021-06-18T12:54:07Z</time>
      </trkpt>
      <trkpt lat="43.23822" lon="-1.58543">
        <ele>528</ele>
        <time>2021-06-18T12:54:08Z</time>
      </trkpt>
      <trkpt lat="43.23837" lon="-1.58592">
        <ele>532</ele>
        <time>2021-06-18T12:54:17Z</time>
      </trkpt>
      <trkpt lat="43.2384" lon="-1.58615">
        <ele>536</ele>
        <time>2021-06-18T12:54:21Z</time>
      </trkpt>
      <trkpt lat="43.23838" lon="-1.58643">
        <ele>538</ele>
        <time>2021-06-18T12:54:26Z</time>
      </trkpt>
      <trkpt lat="43.23834" lon="-1.58662">
        <ele>538</ele>
        <time>2021-06-18T12:54:29Z</time>
      </trkpt>
      <trkpt lat="43.23818" lon="-1.58682">
        <ele>540</ele>
        <time>2021-06-18T12:54:34Z</time>
      </trkpt>
      <trkpt lat="43.23803" lon="-1.5869">
        <ele>541</ele>
        <time>2021-06-18T12:54:38Z</time>
      </trkpt>
      <trkpt lat="43.23778" lon="-1.58691">
        <ele>539</ele>
        <time>2021-06-18T12:54:44Z</time>
      </trkpt>
      <trkpt lat="43.23769" lon="-1.58689">
        <ele>538</ele>
        <time>2021-06-18T12:54:46Z</time>
      </trkpt>
      <trkpt lat="43.23747" lon="-1.58678">
        <ele>534</ele>
        <time>2021-06-18T12:54:51Z</time>
      </trkpt>
      <trkpt lat="43.23739" lon="-1.58677">
        <ele>535</ele>
        <time>2021-06-18T12:54:53Z</time>
      </trkpt>
      <trkpt lat="43.23726" lon="-1.58681">
        <ele>537</ele>
        <time>2021-06-18T12:54:56Z</time>
      </trkpt>
      <trkpt lat="43.23711" lon="-1.58693">
        <ele>539</ele>
        <time>2021-06-18T12:55:00Z</time>
      </trkpt>
      <trkpt lat="43.237" lon="-1.58696">
        <ele>540</ele>
        <time>2021-06-18T12:55:03Z</time>
      </trkpt>
      <trkpt lat="43.23666" lon="-1.587">
        <ele>542</ele>
        <time>2021-06-18T12:55:11Z</time>
      </trkpt>
      <trkpt lat="43.23645" lon="-1.58705">
        <ele>543</ele>
        <time>2021-06-18T12:55:16Z</time>
      </trkpt>
      <trkpt lat="43.2364" lon="-1.58705">
        <ele>544</ele>
        <time>2021-06-18T12:55:17Z</time>
      </trkpt>
      <trkpt lat="43.23633" lon="-1.58699">
        <ele>544</ele>
        <time>2021-06-18T12:55:19Z</time>
      </trkpt>
      <trkpt lat="43.23612" lon="-1.5862">
        <ele>546</ele>
        <time>2021-06-18T12:55:33Z</time>
      </trkpt>
      <trkpt lat="43.23606" lon="-1.58612">
        <ele>546</ele>
        <time>2021-06-18T12:55:35Z</time>
      </trkpt>
      <trkpt lat="43.23593" lon="-1.58602">
        <ele>548</ele>
        <time>2021-06-18T12:55:39Z</time>
      </trkpt>
      <trkpt lat="43.23583" lon="-1.58585">
        <ele>550</ele>
        <time>2021-06-18T12:55:42Z</time>
      </trkpt>
      <trkpt lat="43.23581" lon="-1.58573">
        <ele>550</ele>
        <time>2021-06-18T12:55:45Z</time>
      </trkpt>
      <trkpt lat="43.23587" lon="-1.58553">
        <ele>550</ele>
        <time>2021-06-18T12:55:48Z</time>
      </trkpt>
      <trkpt lat="43.23605" lon="-1.58513">
        <ele>549</ele>
        <time>2021-06-18T12:55:56Z</time>
      </trkpt>
      <trkpt lat="43.23607" lon="-1.58501">
        <ele>549</ele>
        <time>2021-06-18T12:55:58Z</time>
      </trkpt>
      <trkpt lat="43.23609" lon="-1.58439">
        <ele>554</ele>
        <time>2021-06-18T12:56:09Z</time>
      </trkpt>
      <trkpt lat="43.23625" lon="-1.58295">
        <ele>564</ele>
        <time>2021-06-18T12:56:34Z</time>
      </trkpt>
      <trkpt lat="43.23638" lon="-1.58202">
        <ele>569</ele>
        <time>2021-06-18T12:56:50Z</time>
      </trkpt>
      <trkpt lat="43.23641" lon="-1.58139">
        <ele>569</ele>
        <time>2021-06-18T12:57:00Z</time>
      </trkpt>
      <trkpt lat="43.23646" lon="-1.58092">
        <ele>568</ele>
        <time>2021-06-18T12:57:09Z</time>
      </trkpt>
      <trkpt lat="43.23656" lon="-1.58058">
        <ele>569</ele>
        <time>2021-06-18T12:57:15Z</time>
      </trkpt>
      <trkpt lat="43.23702" lon="-1.57939">
        <ele>562</ele>
        <time>2021-06-18T12:57:38Z</time>
      </trkpt>
      <trkpt lat="43.23712" lon="-1.57904">
        <ele>560</ele>
        <time>2021-06-18T12:57:44Z</time>
      </trkpt>
      <trkpt lat="43.23717" lon="-1.57874">
        <ele>556</ele>
        <time>2021-06-18T12:57:49Z</time>
      </trkpt>
      <trkpt lat="43.23716" lon="-1.57863">
        <ele>555</ele>
        <time>2021-06-18T12:57:51Z</time>
      </trkpt>
      <trkpt lat="43.23711" lon="-1.57853">
        <ele>555</ele>
        <time>2021-06-18T12:57:53Z</time>
      </trkpt>
      <trkpt lat="43.23623" lon="-1.57733">
        <ele>544</ele>
        <time>2021-06-18T12:58:22Z</time>
      </trkpt>
      <trkpt lat="43.23612" lon="-1.57704">
        <ele>543</ele>
        <time>2021-06-18T12:58:28Z</time>
      </trkpt>
      <trkpt lat="43.23602" lon="-1.57643">
        <ele>547</ele>
        <time>2021-06-18T12:58:38Z</time>
      </trkpt>
      <trkpt lat="43.23591" lon="-1.57614">
        <ele>550</ele>
        <time>2021-06-18T12:58:44Z</time>
      </trkpt>
      <trkpt lat="43.23578" lon="-1.57587">
        <ele>552</ele>
        <time>2021-06-18T12:58:50Z</time>
      </trkpt>
      <trkpt lat="43.23564" lon="-1.57566">
        <ele>550</ele>
        <time>2021-06-18T12:58:54Z</time>
      </trkpt>
      <trkpt lat="43.23539" lon="-1.57539">
        <ele>546</ele>
        <time>2021-06-18T12:59:02Z</time>
      </trkpt>
      <trkpt lat="43.23512" lon="-1.57499">
        <ele>544</ele>
        <time>2021-06-18T12:59:11Z</time>
      </trkpt>
      <trkpt lat="43.23507" lon="-1.57475">
        <ele>544</ele>
        <time>2021-06-18T12:59:15Z</time>
      </trkpt>
      <trkpt lat="43.23508" lon="-1.57464">
        <ele>545</ele>
        <time>2021-06-18T12:59:17Z</time>
      </trkpt>
      <trkpt lat="43.23516" lon="-1.57446">
        <ele>549</ele>
        <time>2021-06-18T12:59:21Z</time>
      </trkpt>
      <trkpt lat="43.23518" lon="-1.57422">
        <ele>551</ele>
        <time>2021-06-18T12:59:25Z</time>
      </trkpt>
      <trkpt lat="43.23483" lon="-1.57369">
        <ele>545</ele>
        <time>2021-06-18T12:59:37Z</time>
      </trkpt>
      <trkpt lat="43.23452" lon="-1.57299">
        <ele>542</ele>
        <time>2021-06-18T12:59:51Z</time>
      </trkpt>
      <trkpt lat="43.23425" lon="-1.57249">
        <ele>542</ele>
        <time>2021-06-18T13:00:02Z</time>
      </trkpt>
      <trkpt lat="43.23411" lon="-1.57227">
        <ele>540</ele>
        <time>2021-06-18T13:00:07Z</time>
      </trkpt>
      <trkpt lat="43.23379" lon="-1.57245">
        <ele>542</ele>
        <time>2021-06-18T13:00:15Z</time>
      </trkpt>
      <trkpt lat="43.23359" lon="-1.5726">
        <ele>541</ele>
        <time>2021-06-18T13:00:20Z</time>
      </trkpt>
      <trkpt lat="43.23255" lon="-1.57285">
        <ele>552</ele>
        <time>2021-06-18T13:00:45Z</time>
      </trkpt>
      <trkpt lat="43.23237" lon="-1.57309">
        <ele>553</ele>
        <time>2021-06-18T13:00:51Z</time>
      </trkpt>
      <trkpt lat="43.23213" lon="-1.57331">
        <ele>555</ele>
        <time>2021-06-18T13:00:57Z</time>
      </trkpt>
      <trkpt lat="43.232" lon="-1.57347">
        <ele>556</ele>
        <time>2021-06-18T13:01:01Z</time>
      </trkpt>
      <trkpt lat="43.23186" lon="-1.57372">
        <ele>557</ele>
        <time>2021-06-18T13:01:07Z</time>
      </trkpt>
      <trkpt lat="43.23145" lon="-1.57414">
        <ele>562</ele>
        <time>2021-06-18T13:01:19Z</time>
      </trkpt>
      <trkpt lat="43.23121" lon="-1.57434">
        <ele>559</ele>
        <time>2021-06-18T13:01:25Z</time>
      </trkpt>
      <trkpt lat="43.23111" lon="-1.57437">
        <ele>559</ele>
        <time>2021-06-18T13:01:28Z</time>
      </trkpt>
      <trkpt lat="43.231" lon="-1.57433">
        <ele>561</ele>
        <time>2021-06-18T13:01:30Z</time>
      </trkpt>
      <trkpt lat="43.23087" lon="-1.57426">
        <ele>563</ele>
        <time>2021-06-18T13:01:34Z</time>
      </trkpt>
      <trkpt lat="43.23068" lon="-1.57408">
        <ele>567</ele>
        <time>2021-06-18T13:01:39Z</time>
      </trkpt>
      <trkpt lat="43.23055" lon="-1.57402">
        <ele>568</ele>
        <time>2021-06-18T13:01:42Z</time>
      </trkpt>
      <trkpt lat="43.23047" lon="-1.57401">
        <ele>568</ele>
        <time>2021-06-18T13:01:44Z</time>
      </trkpt>
      <trkpt lat="43.23027" lon="-1.57409">
        <ele>568</ele>
        <time>2021-06-18T13:01:49Z</time>
      </trkpt>
      <trkpt lat="43.23014" lon="-1.5741">
        <ele>568</ele>
        <time>2021-06-18T13:01:52Z</time>
      </trkpt>
      <trkpt lat="43.22957" lon="-1.57406">
        <ele>575</ele>
        <time>2021-06-18T13:02:05Z</time>
      </trkpt>
      <trkpt lat="43.22931" lon="-1.574">
        <ele>579</ele>
        <time>2021-06-18T13:02:11Z</time>
      </trkpt>
      <trkpt lat="43.22892" lon="-1.57379">
        <ele>585</ele>
        <time>2021-06-18T13:02:21Z</time>
      </trkpt>
      <trkpt lat="43.22846" lon="-1.57348">
        <ele>589</ele>
        <time>2021-06-18T13:02:33Z</time>
      </trkpt>
      <trkpt lat="43.22819" lon="-1.57297">
        <ele>590</ele>
        <time>2021-06-18T13:02:44Z</time>
      </trkpt>
      <trkpt lat="43.22795" lon="-1.57267">
        <ele>593</ele>
        <time>2021-06-18T13:02:51Z</time>
      </trkpt>
      <trkpt lat="43.22769" lon="-1.5725">
        <ele>597</ele>
        <time>2021-06-18T13:02:58Z</time>
      </trkpt>
      <trkpt lat="43.22738" lon="-1.57225">
        <ele>598</ele>
        <time>2021-06-18T13:03:07Z</time>
      </trkpt>
      <trkpt lat="43.22728" lon="-1.57211">
        <ele>597</ele>
        <time>2021-06-18T13:03:10Z</time>
      </trkpt>
      <trkpt lat="43.22703" lon="-1.57137">
        <ele>592</ele>
        <time>2021-06-18T13:03:24Z</time>
      </trkpt>
      <trkpt lat="43.22639" lon="-1.57076">
        <ele>596</ele>
        <time>2021-06-18T13:03:42Z</time>
      </trkpt>
      <trkpt lat="43.226" lon="-1.57044">
        <ele>598</ele>
        <time>2021-06-18T13:03:53Z</time>
      </trkpt>
      <trkpt lat="43.22553" lon="-1.56995">
        <ele>602</ele>
        <time>2021-06-18T13:04:06Z</time>
      </trkpt>
      <trkpt lat="43.2254" lon="-1.56972">
        <ele>602</ele>
        <time>2021-06-18T13:04:11Z</time>
      </trkpt>
      <trkpt lat="43.22528" lon="-1.56921">
        <ele>602</ele>
        <time>2021-06-18T13:04:20Z</time>
      </trkpt>
      <trkpt lat="43.22512" lon="-1.56875">
        <ele>603</ele>
        <time>2021-06-18T13:04:29Z</time>
      </trkpt>
      <trkpt lat="43.22487" lon="-1.5684">
        <ele>603</ele>
        <time>2021-06-18T13:04:37Z</time>
      </trkpt>
      <trkpt lat="43.22452" lon="-1.56771">
        <ele>599</ele>
        <time>2021-06-18T13:04:52Z</time>
      </trkpt>
      <trkpt lat="43.22421" lon="-1.56734">
        <ele>594</ele>
        <time>2021-06-18T13:05:01Z</time>
      </trkpt>
      <trkpt lat="43.22397" lon="-1.56698">
        <ele>590</ele>
        <time>2021-06-18T13:05:10Z</time>
      </trkpt>
      <trkpt lat="43.22387" lon="-1.56661">
        <ele>588</ele>
        <time>2021-06-18T13:05:16Z</time>
      </trkpt>
      <trkpt lat="43.22384" lon="-1.56635">
        <ele>585</ele>
        <time>2021-06-18T13:05:21Z</time>
      </trkpt>
      <trkpt lat="43.22387" lon="-1.56618">
        <ele>585</ele>
        <time>2021-06-18T13:05:24Z</time>
      </trkpt>
      <trkpt lat="43.22397" lon="-1.56595">
        <ele>587</ele>
        <time>2021-06-18T13:05:28Z</time>
      </trkpt>
      <trkpt lat="43.22398" lon="-1.56583">
        <ele>586</ele>
        <time>2021-06-18T13:05:30Z</time>
      </trkpt>
      <trkpt lat="43.22396" lon="-1.5657">
        <ele>584</ele>
        <time>2021-06-18T13:05:33Z</time>
      </trkpt>
      <trkpt lat="43.22356" lon="-1.56489">
        <ele>562</ele>
        <time>2021-06-18T13:05:49Z</time>
      </trkpt>
      <trkpt lat="43.22354" lon="-1.56472">
        <ele>560</ele>
        <time>2021-06-18T13:05:52Z</time>
      </trkpt>
      <trkpt lat="43.22355" lon="-1.56434">
        <ele>558</ele>
        <time>2021-06-18T13:05:59Z</time>
      </trkpt>
      <trkpt lat="43.2235" lon="-1.56399">
        <ele>554</ele>
        <time>2021-06-18T13:06:05Z</time>
      </trkpt>
      <trkpt lat="43.22348" lon="-1.56362">
        <ele>550</ele>
        <time>2021-06-18T13:06:11Z</time>
      </trkpt>
      <trkpt lat="43.22349" lon="-1.56327">
        <ele>547</ele>
        <time>2021-06-18T13:06:17Z</time>
      </trkpt>
      <trkpt lat="43.22346" lon="-1.56312">
        <ele>546</ele>
        <time>2021-06-18T13:06:20Z</time>
      </trkpt>
      <trkpt lat="43.22337" lon="-1.56293">
        <ele>543</ele>
        <time>2021-06-18T13:06:24Z</time>
      </trkpt>
      <trkpt lat="43.22318" lon="-1.56266">
        <ele>540</ele>
        <time>2021-06-18T13:06:30Z</time>
      </trkpt>
      <trkpt lat="43.22292" lon="-1.56249">
        <ele>536</ele>
        <time>2021-06-18T13:06:37Z</time>
      </trkpt>
      <trkpt lat="43.22282" lon="-1.56206">
        <ele>532</ele>
        <time>2021-06-18T13:06:44Z</time>
      </trkpt>
      <trkpt lat="43.22275" lon="-1.56189">
        <ele>531</ele>
        <time>2021-06-18T13:06:48Z</time>
      </trkpt>
      <trkpt lat="43.22266" lon="-1.56174">
        <ele>530</ele>
        <time>2021-06-18T13:06:51Z</time>
      </trkpt>
      <trkpt lat="43.22229" lon="-1.56135">
        <ele>526</ele>
        <time>2021-06-18T13:07:02Z</time>
      </trkpt>
      <trkpt lat="43.22217" lon="-1.56117">
        <ele>524</ele>
        <time>2021-06-18T13:07:06Z</time>
      </trkpt>
      <trkpt lat="43.22209" lon="-1.56096">
        <ele>521</ele>
        <time>2021-06-18T13:07:10Z</time>
      </trkpt>
      <trkpt lat="43.22202" lon="-1.56088">
        <ele>520</ele>
        <time>2021-06-18T13:07:12Z</time>
      </trkpt>
      <trkpt lat="43.22139" lon="-1.56032">
        <ele>516</ele>
        <time>2021-06-18T13:07:30Z</time>
      </trkpt>
      <trkpt lat="43.2209" lon="-1.56007">
        <ele>515</ele>
        <time>2021-06-18T13:07:42Z</time>
      </trkpt>
      <trkpt lat="43.22029" lon="-1.55943">
        <ele>513</ele>
        <time>2021-06-18T13:08:00Z</time>
      </trkpt>
      <trkpt lat="43.22007" lon="-1.55924">
        <ele>512</ele>
        <time>2021-06-18T13:08:06Z</time>
      </trkpt>
      <trkpt lat="43.21982" lon="-1.55909">
        <ele>516</ele>
        <time>2021-06-18T13:08:12Z</time>
      </trkpt>
      <trkpt lat="43.21947" lon="-1.55902">
        <ele>525</ele>
        <time>2021-06-18T13:08:21Z</time>
      </trkpt>
      <trkpt lat="43.21926" lon="-1.55886">
        <ele>529</ele>
        <time>2021-06-18T13:08:26Z</time>
      </trkpt>
      <trkpt lat="43.21922" lon="-1.55878">
        <ele>529</ele>
        <time>2021-06-18T13:08:28Z</time>
      </trkpt>
      <trkpt lat="43.21918" lon="-1.55866">
        <ele>529</ele>
        <time>2021-06-18T13:08:30Z</time>
      </trkpt>
      <trkpt lat="43.21909" lon="-1.55751">
        <ele>520</ele>
        <time>2021-06-18T13:08:50Z</time>
      </trkpt>
      <trkpt lat="43.21906" lon="-1.55744">
        <ele>520</ele>
        <time>2021-06-18T13:08:51Z</time>
      </trkpt>
      <trkpt lat="43.21871" lon="-1.55711">
        <ele>530</ele>
        <time>2021-06-18T13:09:01Z</time>
      </trkpt>
      <trkpt lat="43.21862" lon="-1.55694">
        <ele>532</ele>
        <time>2021-06-18T13:09:05Z</time>
      </trkpt>
      <trkpt lat="43.21852" lon="-1.55638">
        <ele>529</ele>
        <time>2021-06-18T13:09:14Z</time>
      </trkpt>
      <trkpt lat="43.21849" lon="-1.55584">
        <ele>524</ele>
        <time>2021-06-18T13:09:24Z</time>
      </trkpt>
      <trkpt lat="43.21839" lon="-1.55553">
        <ele>526</ele>
        <time>2021-06-18T13:09:29Z</time>
      </trkpt>
      <trkpt lat="43.21821" lon="-1.55525">
        <ele>532</ele>
        <time>2021-06-18T13:09:36Z</time>
      </trkpt>
      <trkpt lat="43.21818" lon="-1.55512">
        <ele>532</ele>
        <time>2021-06-18T13:09:38Z</time>
      </trkpt>
      <trkpt lat="43.21817" lon="-1.55478">
        <ele>529</ele>
        <time>2021-06-18T13:09:44Z</time>
      </trkpt>
      <trkpt lat="43.21811" lon="-1.55437">
        <ele>527</ele>
        <time>2021-06-18T13:09:51Z</time>
      </trkpt>
      <trkpt lat="43.21808" lon="-1.55391">
        <ele>520</ele>
        <time>2021-06-18T13:09:59Z</time>
      </trkpt>
      <trkpt lat="43.21804" lon="-1.55372">
        <ele>518</ele>
        <time>2021-06-18T13:10:02Z</time>
      </trkpt>
      <trkpt lat="43.21781" lon="-1.5534">
        <ele>518</ele>
        <time>2021-06-18T13:10:10Z</time>
      </trkpt>
      <trkpt lat="43.21767" lon="-1.55327">
        <ele>520</ele>
        <time>2021-06-18T13:10:14Z</time>
      </trkpt>
      <trkpt lat="43.21751" lon="-1.55307">
        <ele>522</ele>
        <time>2021-06-18T13:10:19Z</time>
      </trkpt>
      <trkpt lat="43.21741" lon="-1.55287">
        <ele>519</ele>
        <time>2021-06-18T13:10:23Z</time>
      </trkpt>
      <trkpt lat="43.21736" lon="-1.55245">
        <ele>512</ele>
        <time>2021-06-18T13:10:30Z</time>
      </trkpt>
      <trkpt lat="43.21729" lon="-1.55223">
        <ele>510</ele>
        <time>2021-06-18T13:10:34Z</time>
      </trkpt>
      <trkpt lat="43.21706" lon="-1.55187">
        <ele>506</ele>
        <time>2021-06-18T13:10:43Z</time>
      </trkpt>
      <trkpt lat="43.21698" lon="-1.55162">
        <ele>504</ele>
        <time>2021-06-18T13:10:47Z</time>
      </trkpt>
      <trkpt lat="43.21683" lon="-1.55132">
        <ele>507</ele>
        <time>2021-06-18T13:10:53Z</time>
      </trkpt>
      <trkpt lat="43.21687" lon="-1.55093">
        <ele>509</ele>
        <time>2021-06-18T13:11:00Z</time>
      </trkpt>
      <trkpt lat="43.21683" lon="-1.5508">
        <ele>511</ele>
        <time>2021-06-18T13:11:02Z</time>
      </trkpt>
      <trkpt lat="43.2167" lon="-1.55062">
        <ele>515</ele>
        <time>2021-06-18T13:11:07Z</time>
      </trkpt>
      <trkpt lat="43.21616" lon="-1.54949">
        <ele>530</ele>
        <time>2021-06-18T13:11:30Z</time>
      </trkpt>
      <trkpt lat="43.21538" lon="-1.54747">
        <ele>565</ele>
        <time>2021-06-18T13:12:09Z</time>
      </trkpt>
      <trkpt lat="43.215" lon="-1.54681">
        <ele>583</ele>
        <time>2021-06-18T13:12:23Z</time>
      </trkpt>
      <trkpt lat="43.21443" lon="-1.54603">
        <ele>591</ele>
        <time>2021-06-18T13:12:42Z</time>
      </trkpt>
      <trkpt lat="43.21436" lon="-1.54581">
        <ele>596</ele>
        <time>2021-06-18T13:12:46Z</time>
      </trkpt>
      <trkpt lat="43.21431" lon="-1.54553">
        <ele>599</ele>
        <time>2021-06-18T13:12:51Z</time>
      </trkpt>
      <trkpt lat="43.21432" lon="-1.54533">
        <ele>604</ele>
        <time>2021-06-18T13:12:54Z</time>
      </trkpt>
      <trkpt lat="43.21446" lon="-1.54476">
        <ele>619</ele>
        <time>2021-06-18T13:13:04Z</time>
      </trkpt>
      <trkpt lat="43.21448" lon="-1.54458">
        <ele>622</ele>
        <time>2021-06-18T13:13:08Z</time>
      </trkpt>
      <trkpt lat="43.21446" lon="-1.54429">
        <ele>624</ele>
        <time>2021-06-18T13:13:12Z</time>
      </trkpt>
      <trkpt lat="43.21441" lon="-1.54412">
        <ele>625</ele>
        <time>2021-06-18T13:13:16Z</time>
      </trkpt>
      <trkpt lat="43.2143" lon="-1.5439">
        <ele>626</ele>
        <time>2021-06-18T13:13:20Z</time>
      </trkpt>
      <trkpt lat="43.21423" lon="-1.54382">
        <ele>626</ele>
        <time>2021-06-18T13:13:22Z</time>
      </trkpt>
      <trkpt lat="43.21363" lon="-1.54339">
        <ele>624</ele>
        <time>2021-06-18T13:13:38Z</time>
      </trkpt>
      <trkpt lat="43.21356" lon="-1.5433">
        <ele>624</ele>
        <time>2021-06-18T13:13:40Z</time>
      </trkpt>
      <trkpt lat="43.21352" lon="-1.54319">
        <ele>623</ele>
        <time>2021-06-18T13:13:42Z</time>
      </trkpt>
      <trkpt lat="43.21351" lon="-1.54301">
        <ele>624</ele>
        <time>2021-06-18T13:13:45Z</time>
      </trkpt>
      <trkpt lat="43.21357" lon="-1.54255">
        <ele>630</ele>
        <time>2021-06-18T13:13:53Z</time>
      </trkpt>
      <trkpt lat="43.21358" lon="-1.54207">
        <ele>635</ele>
        <time>2021-06-18T13:14:02Z</time>
      </trkpt>
      <trkpt lat="43.21362" lon="-1.54173">
        <ele>639</ele>
        <time>2021-06-18T13:14:07Z</time>
      </trkpt>
      <trkpt lat="43.21362" lon="-1.54162">
        <ele>640</ele>
        <time>2021-06-18T13:14:09Z</time>
      </trkpt>
      <trkpt lat="43.21356" lon="-1.54141">
        <ele>643</ele>
        <time>2021-06-18T13:14:13Z</time>
      </trkpt>
      <trkpt lat="43.21341" lon="-1.54119">
        <ele>645</ele>
        <time>2021-06-18T13:14:18Z</time>
      </trkpt>
      <trkpt lat="43.21326" lon="-1.54108">
        <ele>645</ele>
        <time>2021-06-18T13:14:22Z</time>
      </trkpt>
      <trkpt lat="43.21253" lon="-1.54097">
        <ele>634</ele>
        <time>2021-06-18T13:14:39Z</time>
      </trkpt>
      <trkpt lat="43.21244" lon="-1.54089">
        <ele>635</ele>
        <time>2021-06-18T13:14:42Z</time>
      </trkpt>
      <trkpt lat="43.2124" lon="-1.5408">
        <ele>636</ele>
        <time>2021-06-18T13:14:44Z</time>
      </trkpt>
      <trkpt lat="43.21242" lon="-1.54056">
        <ele>641</ele>
        <time>2021-06-18T13:14:48Z</time>
      </trkpt>
      <trkpt lat="43.2124" lon="-1.54019">
        <ele>647</ele>
        <time>2021-06-18T13:14:54Z</time>
      </trkpt>
      <trkpt lat="43.2122" lon="-1.53906">
        <ele>659</ele>
        <time>2021-06-18T13:15:14Z</time>
      </trkpt>
      <trkpt lat="43.21208" lon="-1.53885">
        <ele>659</ele>
        <time>2021-06-18T13:15:19Z</time>
      </trkpt>
      <trkpt lat="43.21202" lon="-1.53868">
        <ele>660</ele>
        <time>2021-06-18T13:15:22Z</time>
      </trkpt>
      <trkpt lat="43.21194" lon="-1.53862">
        <ele>661</ele>
        <time>2021-06-18T13:15:24Z</time>
      </trkpt>
      <trkpt lat="43.21179" lon="-1.53858">
        <ele>663</ele>
        <time>2021-06-18T13:15:27Z</time>
      </trkpt>
      <trkpt lat="43.21132" lon="-1.53857">
        <ele>671</ele>
        <time>2021-06-18T13:15:38Z</time>
      </trkpt>
      <trkpt lat="43.21109" lon="-1.53848">
        <ele>677</ele>
        <time>2021-06-18T13:15:44Z</time>
      </trkpt>
      <trkpt lat="43.21093" lon="-1.5383">
        <ele>684</ele>
        <time>2021-06-18T13:15:49Z</time>
      </trkpt>
      <trkpt lat="43.21085" lon="-1.53817">
        <ele>688</ele>
        <time>2021-06-18T13:15:52Z</time>
      </trkpt>
      <trkpt lat="43.21045" lon="-1.53783">
        <ele>696</ele>
        <time>2021-06-18T13:16:03Z</time>
      </trkpt>
      <trkpt lat="43.21033" lon="-1.53758">
        <ele>701</ele>
        <time>2021-06-18T13:16:08Z</time>
      </trkpt>
      <trkpt lat="43.21006" lon="-1.53727">
        <ele>707</ele>
        <time>2021-06-18T13:16:16Z</time>
      </trkpt>
      <trkpt lat="43.2099" lon="-1.537">
        <ele>709</ele>
        <time>2021-06-18T13:16:22Z</time>
      </trkpt>
      <trkpt lat="43.20977" lon="-1.53671">
        <ele>711</ele>
        <time>2021-06-18T13:16:28Z</time>
      </trkpt>
      <trkpt lat="43.20967" lon="-1.53634">
        <ele>714</ele>
        <time>2021-06-18T13:16:34Z</time>
      </trkpt>
      <trkpt lat="43.20968" lon="-1.53643">
        <ele>713</ele>
        <time>2021-06-18T13:16:36Z</time>
      </trkpt>
      <trkpt lat="43.20955" lon="-1.53625">
        <ele>716</ele>
        <time>2021-06-18T13:16:40Z</time>
      </trkpt>
      <trkpt lat="43.20945" lon="-1.53601">
        <ele>719</ele>
        <time>2021-06-18T13:16:45Z</time>
      </trkpt>
      <trkpt lat="43.20935" lon="-1.53591">
        <ele>722</ele>
        <time>2021-06-18T13:16:48Z</time>
      </trkpt>
      <trkpt lat="43.20904" lon="-1.53546">
        <ele>728</ele>
        <time>2021-06-18T13:16:58Z</time>
      </trkpt>
      <trkpt lat="43.20881" lon="-1.53526">
        <ele>730</ele>
        <time>2021-06-18T13:17:05Z</time>
      </trkpt>
      <trkpt lat="43.20856" lon="-1.53497">
        <ele>736</ele>
        <time>2021-06-18T13:17:12Z</time>
      </trkpt>
      <trkpt lat="43.20812" lon="-1.5346">
        <ele>745</ele>
        <time>2021-06-18T13:17:24Z</time>
      </trkpt>
      <trkpt lat="43.20779" lon="-1.53438">
        <ele>752</ele>
        <time>2021-06-18T13:17:33Z</time>
      </trkpt>
      <trkpt lat="43.2075" lon="-1.53434">
        <ele>755</ele>
        <time>2021-06-18T13:17:40Z</time>
      </trkpt>
      <trkpt lat="43.20703" lon="-1.53444">
        <ele>757</ele>
        <time>2021-06-18T13:17:51Z</time>
      </trkpt>
      <trkpt lat="43.20682" lon="-1.5344">
        <ele>760</ele>
        <time>2021-06-18T13:17:56Z</time>
      </trkpt>
      <trkpt lat="43.20663" lon="-1.53435">
        <ele>763</ele>
        <time>2021-06-18T13:18:00Z</time>
      </trkpt>
      <trkpt lat="43.20637" lon="-1.53422">
        <ele>767</ele>
        <time>2021-06-18T13:18:07Z</time>
      </trkpt>
      <trkpt lat="43.206" lon="-1.53392">
        <ele>774</ele>
        <time>2021-06-18T13:18:17Z</time>
      </trkpt>
      <trkpt lat="43.20587" lon="-1.53389">
        <ele>775</ele>
        <time>2021-06-18T13:18:20Z</time>
      </trkpt>
      <trkpt lat="43.20524" lon="-1.53402">
        <ele>780</ele>
        <time>2021-06-18T13:18:35Z</time>
      </trkpt>
      <trkpt lat="43.20487" lon="-1.53401">
        <ele>785</ele>
        <time>2021-06-18T13:18:44Z</time>
      </trkpt>
      <trkpt lat="43.20456" lon="-1.53394">
        <ele>790</ele>
        <time>2021-06-18T13:18:51Z</time>
      </trkpt>
      <trkpt lat="43.20431" lon="-1.53396">
        <ele>793</ele>
        <time>2021-06-18T13:18:57Z</time>
      </trkpt>
      <trkpt lat="43.20415" lon="-1.53401">
        <ele>795</ele>
        <time>2021-06-18T13:19:01Z</time>
      </trkpt>
      <trkpt lat="43.2039" lon="-1.5342">
        <ele>798</ele>
        <time>2021-06-18T13:19:07Z</time>
      </trkpt>
      <trkpt lat="43.20385" lon="-1.5342">
        <ele>799</ele>
        <time>2021-06-18T13:19:08Z</time>
      </trkpt>
      <trkpt lat="43.20347" lon="-1.53488">
        <ele>795</ele>
        <time>2021-06-18T13:19:23Z</time>
      </trkpt>
      <trkpt lat="43.20331" lon="-1.53503">
        <ele>796</ele>
        <time>2021-06-18T13:19:28Z</time>
      </trkpt>
      <trkpt lat="43.20312" lon="-1.53509">
        <ele>795</ele>
        <time>2021-06-18T13:19:32Z</time>
      </trkpt>
      <trkpt lat="43.20299" lon="-1.53507">
        <ele>795</ele>
        <time>2021-06-18T13:19:35Z</time>
      </trkpt>
      <trkpt lat="43.20277" lon="-1.53498">
        <ele>798</ele>
        <time>2021-06-18T13:19:40Z</time>
      </trkpt>
      <trkpt lat="43.20212" lon="-1.53493">
        <ele>797</ele>
        <time>2021-06-18T13:19:56Z</time>
      </trkpt>
      <trkpt lat="43.20187" lon="-1.53487">
        <ele>797</ele>
        <time>2021-06-18T13:20:02Z</time>
      </trkpt>
      <trkpt lat="43.2014" lon="-1.53465">
        <ele>797</ele>
        <time>2021-06-18T13:20:13Z</time>
      </trkpt>
      <trkpt lat="43.20121" lon="-1.5345">
        <ele>799</ele>
        <time>2021-06-18T13:20:18Z</time>
      </trkpt>
      <trkpt lat="43.20102" lon="-1.53439">
        <ele>799</ele>
        <time>2021-06-18T13:20:23Z</time>
      </trkpt>
      <trkpt lat="43.20081" lon="-1.53438">
        <ele>797</ele>
        <time>2021-06-18T13:20:28Z</time>
      </trkpt>
      <trkpt lat="43.20012" lon="-1.53446">
        <ele>790</ele>
        <time>2021-06-18T13:20:44Z</time>
      </trkpt>
      <trkpt lat="43.19954" lon="-1.53431">
        <ele>787</ele>
        <time>2021-06-18T13:20:58Z</time>
      </trkpt>
      <trkpt lat="43.19939" lon="-1.53424">
        <ele>787</ele>
        <time>2021-06-18T13:21:02Z</time>
      </trkpt>
      <trkpt lat="43.19911" lon="-1.53416">
        <ele>785</ele>
        <time>2021-06-18T13:21:08Z</time>
      </trkpt>
      <trkpt lat="43.19889" lon="-1.53416">
        <ele>783</ele>
        <time>2021-06-18T13:21:14Z</time>
      </trkpt>
      <trkpt lat="43.19868" lon="-1.5341">
        <ele>782</ele>
        <time>2021-06-18T13:21:19Z</time>
      </trkpt>
      <trkpt lat="43.19852" lon="-1.53401">
        <ele>781</ele>
        <time>2021-06-18T13:21:23Z</time>
      </trkpt>
      <trkpt lat="43.19842" lon="-1.53399">
        <ele>781</ele>
        <time>2021-06-18T13:21:25Z</time>
      </trkpt>
      <trkpt lat="43.19773" lon="-1.53412">
        <ele>781</ele>
        <time>2021-06-18T13:21:41Z</time>
      </trkpt>
      <trkpt lat="43.19705" lon="-1.53411">
        <ele>787</ele>
        <time>2021-06-18T13:21:57Z</time>
      </trkpt>
      <trkpt lat="43.19646" lon="-1.5342">
        <ele>790</ele>
        <time>2021-06-18T13:22:11Z</time>
      </trkpt>
      <trkpt lat="43.19574" lon="-1.53426">
        <ele>790</ele>
        <time>2021-06-18T13:22:28Z</time>
      </trkpt>
      <trkpt lat="43.19551" lon="-1.53424">
        <ele>791</ele>
        <time>2021-06-18T13:22:33Z</time>
      </trkpt>
      <trkpt lat="43.19531" lon="-1.53416">
        <ele>794</ele>
        <time>2021-06-18T13:22:38Z</time>
      </trkpt>
      <trkpt lat="43.19497" lon="-1.53407">
        <ele>798</ele>
        <time>2021-06-18T13:22:46Z</time>
      </trkpt>
      <trkpt lat="43.19457" lon="-1.53402">
        <ele>803</ele>
        <time>2021-06-18T13:22:56Z</time>
      </trkpt>
      <trkpt lat="43.19425" lon="-1.53407">
        <ele>805</ele>
        <time>2021-06-18T13:23:03Z</time>
      </trkpt>
      <trkpt lat="43.19398" lon="-1.5342">
        <ele>805</ele>
        <time>2021-06-18T13:23:10Z</time>
      </trkpt>
      <trkpt lat="43.19368" lon="-1.53441">
        <ele>803</ele>
        <time>2021-06-18T13:23:18Z</time>
      </trkpt>
      <trkpt lat="43.19326" lon="-1.53444">
        <ele>810</ele>
        <time>2021-06-18T13:23:27Z</time>
      </trkpt>
      <trkpt lat="43.1932" lon="-1.53447">
        <ele>810</ele>
        <time>2021-06-18T13:23:29Z</time>
      </trkpt>
      <trkpt lat="43.19283" lon="-1.53487">
        <ele>804</ele>
        <time>2021-06-18T13:23:40Z</time>
      </trkpt>
      <trkpt lat="43.19264" lon="-1.53499">
        <ele>804</ele>
        <time>2021-06-18T13:23:45Z</time>
      </trkpt>
      <trkpt lat="43.19222" lon="-1.53551">
        <ele>794</ele>
        <time>2021-06-18T13:23:58Z</time>
      </trkpt>
      <trkpt lat="43.19201" lon="-1.53568">
        <ele>791</ele>
        <time>2021-06-18T13:24:04Z</time>
      </trkpt>
      <trkpt lat="43.19162" lon="-1.53573">
        <ele>791</ele>
        <time>2021-06-18T13:24:13Z</time>
      </trkpt>
      <trkpt lat="43.19148" lon="-1.53581">
        <ele>787</ele>
        <time>2021-06-18T13:24:16Z</time>
      </trkpt>
      <trkpt lat="43.1909" lon="-1.53594">
        <ele>775</ele>
        <time>2021-06-18T13:24:30Z</time>
      </trkpt>
      <trkpt lat="43.19031" lon="-1.53597">
        <ele>761</ele>
        <time>2021-06-18T13:24:44Z</time>
      </trkpt>
      <trkpt lat="43.19001" lon="-1.53604">
        <ele>754</ele>
        <time>2021-06-18T13:24:51Z</time>
      </trkpt>
      <trkpt lat="43.18989" lon="-1.53611">
        <ele>753</ele>
        <time>2021-06-18T13:24:54Z</time>
      </trkpt>
      <trkpt lat="43.18979" lon="-1.53628">
        <ele>753</ele>
        <time>2021-06-18T13:24:58Z</time>
      </trkpt>
      <trkpt lat="43.18966" lon="-1.53663">
        <ele>756</ele>
        <time>2021-06-18T13:25:04Z</time>
      </trkpt>
      <trkpt lat="43.18957" lon="-1.5367">
        <ele>755</ele>
        <time>2021-06-18T13:25:07Z</time>
      </trkpt>
      <trkpt lat="43.18928" lon="-1.53682">
        <ele>752</ele>
        <time>2021-06-18T13:25:14Z</time>
      </trkpt>
      <trkpt lat="43.18911" lon="-1.53698">
        <ele>752</ele>
        <time>2021-06-18T13:25:19Z</time>
      </trkpt>
      <trkpt lat="43.18904" lon="-1.537">
        <ele>751</ele>
        <time>2021-06-18T13:25:20Z</time>
      </trkpt>
      <trkpt lat="43.18819" lon="-1.53682">
        <ele>733</ele>
        <time>2021-06-18T13:25:41Z</time>
      </trkpt>
      <trkpt lat="43.18793" lon="-1.5369">
        <ele>730</ele>
        <time>2021-06-18T13:25:47Z</time>
      </trkpt>
      <trkpt lat="43.18782" lon="-1.53688">
        <ele>727</ele>
        <time>2021-06-18T13:25:49Z</time>
      </trkpt>
      <trkpt lat="43.18749" lon="-1.53667">
        <ele>718</ele>
        <time>2021-06-18T13:25:58Z</time>
      </trkpt>
      <trkpt lat="43.18718" lon="-1.53638">
        <ele>712</ele>
        <time>2021-06-18T13:26:07Z</time>
      </trkpt>
      <trkpt lat="43.18721" lon="-1.53629">
        <ele>711</ele>
        <time>2021-06-18T13:26:08Z</time>
      </trkpt>
      <trkpt lat="43.18726" lon="-1.53624">
        <ele>710</ele>
        <time>2021-06-18T13:26:10Z</time>
      </trkpt>
      <trkpt lat="43.1875" lon="-1.5362">
        <ele>712</ele>
        <time>2021-06-18T13:26:15Z</time>
      </trkpt>
      <trkpt lat="43.18765" lon="-1.53612">
        <ele>713</ele>
        <time>2021-06-18T13:26:19Z</time>
      </trkpt>
      <trkpt lat="43.18732" lon="-1.53584">
        <ele>705</ele>
        <time>2021-06-18T13:26:28Z</time>
      </trkpt>
      <trkpt lat="43.18726" lon="-1.53576">
        <ele>703</ele>
        <time>2021-06-18T13:26:30Z</time>
      </trkpt>
      <trkpt lat="43.18686" lon="-1.53566">
        <ele>697</ele>
        <time>2021-06-18T13:26:40Z</time>
      </trkpt>
      <trkpt lat="43.18652" lon="-1.53569">
        <ele>690</ele>
        <time>2021-06-18T13:26:48Z</time>
      </trkpt>
      <trkpt lat="43.18645" lon="-1.53573">
        <ele>689</ele>
        <time>2021-06-18T13:26:49Z</time>
      </trkpt>
      <trkpt lat="43.18634" lon="-1.53587">
        <ele>688</ele>
        <time>2021-06-18T13:26:53Z</time>
      </trkpt>
      <trkpt lat="43.18605" lon="-1.53595">
        <ele>681</ele>
        <time>2021-06-18T13:27:00Z</time>
      </trkpt>
      <trkpt lat="43.18572" lon="-1.53638">
        <ele>680</ele>
        <time>2021-06-18T13:27:10Z</time>
      </trkpt>
      <trkpt lat="43.18565" lon="-1.53639">
        <ele>677</ele>
        <time>2021-06-18T13:27:12Z</time>
      </trkpt>
      <trkpt lat="43.18544" lon="-1.5363">
        <ele>669</ele>
        <time>2021-06-18T13:27:17Z</time>
      </trkpt>
      <trkpt lat="43.18533" lon="-1.53636">
        <ele>667</ele>
        <time>2021-06-18T13:27:20Z</time>
      </trkpt>
      <trkpt lat="43.18511" lon="-1.53674">
        <ele>666</ele>
        <time>2021-06-18T13:27:28Z</time>
      </trkpt>
      <trkpt lat="43.18503" lon="-1.53681">
        <ele>664</ele>
        <time>2021-06-18T13:27:30Z</time>
      </trkpt>
      <trkpt lat="43.18472" lon="-1.53696">
        <ele>666</ele>
        <time>2021-06-18T13:27:38Z</time>
      </trkpt>
      <trkpt lat="43.18465" lon="-1.53706">
        <ele>668</ele>
        <time>2021-06-18T13:27:40Z</time>
      </trkpt>
      <trkpt lat="43.18462" lon="-1.53736">
        <ele>674</ele>
        <time>2021-06-18T13:27:46Z</time>
      </trkpt>
      <trkpt lat="43.18459" lon="-1.53737">
        <ele>675</ele>
        <time>2021-06-18T13:27:46Z</time>
      </trkpt>
      <trkpt lat="43.18449" lon="-1.53727">
        <ele>673</ele>
        <time>2021-06-18T13:27:49Z</time>
      </trkpt>
      <trkpt lat="43.18439" lon="-1.53726">
        <ele>673</ele>
        <time>2021-06-18T13:27:52Z</time>
      </trkpt>
      <trkpt lat="43.18433" lon="-1.53721">
        <ele>672</ele>
        <time>2021-06-18T13:27:53Z</time>
      </trkpt>
      <trkpt lat="43.18406" lon="-1.53664">
        <ele>660</ele>
        <time>2021-06-18T13:28:05Z</time>
      </trkpt>
      <trkpt lat="43.18393" lon="-1.53644">
        <ele>658</ele>
        <time>2021-06-18T13:28:09Z</time>
      </trkpt>
      <trkpt lat="43.18369" lon="-1.53615">
        <ele>656</ele>
        <time>2021-06-18T13:28:17Z</time>
      </trkpt>
      <trkpt lat="43.18323" lon="-1.53562">
        <ele>652</ele>
        <time>2021-06-18T13:28:31Z</time>
      </trkpt>
      <trkpt lat="43.18289" lon="-1.53536">
        <ele>648</ele>
        <time>2021-06-18T13:28:40Z</time>
      </trkpt>
      <trkpt lat="43.18264" lon="-1.53534">
        <ele>648</ele>
        <time>2021-06-18T13:28:46Z</time>
      </trkpt>
      <trkpt lat="43.18243" lon="-1.53544">
        <ele>651</ele>
        <time>2021-06-18T13:28:51Z</time>
      </trkpt>
      <trkpt lat="43.18224" lon="-1.53548">
        <ele>652</ele>
        <time>2021-06-18T13:28:55Z</time>
      </trkpt>
      <trkpt lat="43.18196" lon="-1.53543">
        <ele>651</ele>
        <time>2021-06-18T13:29:02Z</time>
      </trkpt>
      <trkpt lat="43.18171" lon="-1.53527">
        <ele>647</ele>
        <time>2021-06-18T13:29:08Z</time>
      </trkpt>
      <trkpt lat="43.18145" lon="-1.53517">
        <ele>639</ele>
        <time>2021-06-18T13:29:15Z</time>
      </trkpt>
      <trkpt lat="43.18091" lon="-1.53523">
        <ele>630</ele>
        <time>2021-06-18T13:29:27Z</time>
      </trkpt>
      <trkpt lat="43.18062" lon="-1.53521">
        <ele>624</ele>
        <time>2021-06-18T13:29:34Z</time>
      </trkpt>
      <trkpt lat="43.18034" lon="-1.53527">
        <ele>621</ele>
        <time>2021-06-18T13:29:41Z</time>
      </trkpt>
      <trkpt lat="43.18017" lon="-1.53528">
        <ele>619</ele>
        <time>2021-06-18T13:29:45Z</time>
      </trkpt>
      <trkpt lat="43.1799" lon="-1.53511">
        <ele>607</ele>
        <time>2021-06-18T13:29:52Z</time>
      </trkpt>
      <trkpt lat="43.17971" lon="-1.53504">
        <ele>603</ele>
        <time>2021-06-18T13:29:56Z</time>
      </trkpt>
      <trkpt lat="43.17944" lon="-1.53504">
        <ele>601</ele>
        <time>2021-06-18T13:30:03Z</time>
      </trkpt>
      <trkpt lat="43.1787" lon="-1.53514">
        <ele>604</ele>
        <time>2021-06-18T13:30:20Z</time>
      </trkpt>
      <trkpt lat="43.17819" lon="-1.53514">
        <ele>603</ele>
        <time>2021-06-18T13:30:32Z</time>
      </trkpt>
      <trkpt lat="43.17807" lon="-1.53505">
        <ele>599</ele>
        <time>2021-06-18T13:30:35Z</time>
      </trkpt>
      <trkpt lat="43.17796" lon="-1.53491">
        <ele>593</ele>
        <time>2021-06-18T13:30:39Z</time>
      </trkpt>
      <trkpt lat="43.17787" lon="-1.53484">
        <ele>590</ele>
        <time>2021-06-18T13:30:41Z</time>
      </trkpt>
      <trkpt lat="43.17775" lon="-1.53479">
        <ele>588</ele>
        <time>2021-06-18T13:30:44Z</time>
      </trkpt>
      <trkpt lat="43.17766" lon="-1.53478">
        <ele>587</ele>
        <time>2021-06-18T13:30:46Z</time>
      </trkpt>
      <trkpt lat="43.17731" lon="-1.53492">
        <ele>590</ele>
        <time>2021-06-18T13:30:55Z</time>
      </trkpt>
      <trkpt lat="43.17684" lon="-1.53516">
        <ele>591</ele>
        <time>2021-06-18T13:31:06Z</time>
      </trkpt>
      <trkpt lat="43.17656" lon="-1.5352">
        <ele>587</ele>
        <time>2021-06-18T13:31:13Z</time>
      </trkpt>
      <trkpt lat="43.17627" lon="-1.53534">
        <ele>585</ele>
        <time>2021-06-18T13:31:20Z</time>
      </trkpt>
      <trkpt lat="43.17605" lon="-1.53547">
        <ele>584</ele>
        <time>2021-06-18T13:31:26Z</time>
      </trkpt>
      <trkpt lat="43.17548" lon="-1.53592">
        <ele>588</ele>
        <time>2021-06-18T13:31:41Z</time>
      </trkpt>
      <trkpt lat="43.17525" lon="-1.53607">
        <ele>591</ele>
        <time>2021-06-18T13:31:47Z</time>
      </trkpt>
      <trkpt lat="43.17511" lon="-1.53611">
        <ele>592</ele>
        <time>2021-06-18T13:31:50Z</time>
      </trkpt>
      <trkpt lat="43.17461" lon="-1.53612">
        <ele>584</ele>
        <time>2021-06-18T13:32:02Z</time>
      </trkpt>
      <trkpt lat="43.17434" lon="-1.53621">
        <ele>582</ele>
        <time>2021-06-18T13:32:08Z</time>
      </trkpt>
      <trkpt lat="43.17417" lon="-1.53634">
        <ele>582</ele>
        <time>2021-06-18T13:32:13Z</time>
      </trkpt>
      <trkpt lat="43.17404" lon="-1.53654">
        <ele>587</ele>
        <time>2021-06-18T13:32:18Z</time>
      </trkpt>
      <trkpt lat="43.17391" lon="-1.53668">
        <ele>589</ele>
        <time>2021-06-18T13:32:21Z</time>
      </trkpt>
      <trkpt lat="43.1738" lon="-1.5367">
        <ele>589</ele>
        <time>2021-06-18T13:32:24Z</time>
      </trkpt>
      <trkpt lat="43.17371" lon="-1.53668">
        <ele>589</ele>
        <time>2021-06-18T13:32:26Z</time>
      </trkpt>
      <trkpt lat="43.17361" lon="-1.53662">
        <ele>588</ele>
        <time>2021-06-18T13:32:29Z</time>
      </trkpt>
      <trkpt lat="43.17348" lon="-1.53646">
        <ele>586</ele>
        <time>2021-06-18T13:32:33Z</time>
      </trkpt>
      <trkpt lat="43.17342" lon="-1.53634">
        <ele>585</ele>
        <time>2021-06-18T13:32:35Z</time>
      </trkpt>
      <trkpt lat="43.17339" lon="-1.53609">
        <ele>584</ele>
        <time>2021-06-18T13:32:40Z</time>
      </trkpt>
      <trkpt lat="43.17326" lon="-1.53576">
        <ele>584</ele>
        <time>2021-06-18T13:32:46Z</time>
      </trkpt>
      <trkpt lat="43.17311" lon="-1.53559">
        <ele>583</ele>
        <time>2021-06-18T13:32:51Z</time>
      </trkpt>
      <trkpt lat="43.173" lon="-1.53535">
        <ele>580</ele>
        <time>2021-06-18T13:32:55Z</time>
      </trkpt>
      <trkpt lat="43.17274" lon="-1.53497">
        <ele>579</ele>
        <time>2021-06-18T13:33:04Z</time>
      </trkpt>
      <trkpt lat="43.17259" lon="-1.53454">
        <ele>573</ele>
        <time>2021-06-18T13:33:12Z</time>
      </trkpt>
      <trkpt lat="43.17251" lon="-1.53446">
        <ele>573</ele>
        <time>2021-06-18T13:33:15Z</time>
      </trkpt>
      <trkpt lat="43.17235" lon="-1.53441">
        <ele>575</ele>
        <time>2021-06-18T13:33:18Z</time>
      </trkpt>
      <trkpt lat="43.17198" lon="-1.53439">
        <ele>579</ele>
        <time>2021-06-18T13:33:27Z</time>
      </trkpt>
      <trkpt lat="43.17191" lon="-1.53432">
        <ele>579</ele>
        <time>2021-06-18T13:33:29Z</time>
      </trkpt>
      <trkpt lat="43.17167" lon="-1.53378">
        <ele>573</ele>
        <time>2021-06-18T13:33:40Z</time>
      </trkpt>
      <trkpt lat="43.17144" lon="-1.53353">
        <ele>571</ele>
        <time>2021-06-18T13:33:47Z</time>
      </trkpt>
      <trkpt lat="43.17126" lon="-1.53328">
        <ele>568</ele>
        <time>2021-06-18T13:33:53Z</time>
      </trkpt>
      <trkpt lat="43.17114" lon="-1.53316">
        <ele>567</ele>
        <time>2021-06-18T13:33:56Z</time>
      </trkpt>
      <trkpt lat="43.1709" lon="-1.53303">
        <ele>567</ele>
        <time>2021-06-18T13:34:02Z</time>
      </trkpt>
      <trkpt lat="43.17074" lon="-1.53291">
        <ele>567</ele>
        <time>2021-06-18T13:34:07Z</time>
      </trkpt>
      <trkpt lat="43.17055" lon="-1.53269">
        <ele>564</ele>
        <time>2021-06-18T13:34:12Z</time>
      </trkpt>
      <trkpt lat="43.17004" lon="-1.53233">
        <ele>565</ele>
        <time>2021-06-18T13:34:26Z</time>
      </trkpt>
      <trkpt lat="43.16969" lon="-1.53164">
        <ele>559</ele>
        <time>2021-06-18T13:34:40Z</time>
      </trkpt>
      <trkpt lat="43.16959" lon="-1.53154">
        <ele>560</ele>
        <time>2021-06-18T13:34:43Z</time>
      </trkpt>
      <trkpt lat="43.16925" lon="-1.53144">
        <ele>566</ele>
        <time>2021-06-18T13:34:51Z</time>
      </trkpt>
      <trkpt lat="43.16916" lon="-1.53137">
        <ele>567</ele>
        <time>2021-06-18T13:34:53Z</time>
      </trkpt>
      <trkpt lat="43.16896" lon="-1.53107">
        <ele>562</ele>
        <time>2021-06-18T13:35:00Z</time>
      </trkpt>
      <trkpt lat="43.16877" lon="-1.53089">
        <ele>561</ele>
        <time>2021-06-18T13:35:06Z</time>
      </trkpt>
      <trkpt lat="43.16808" lon="-1.53038">
        <ele>558</ele>
        <time>2021-06-18T13:35:24Z</time>
      </trkpt>
      <trkpt lat="43.16788" lon="-1.5303">
        <ele>557</ele>
        <time>2021-06-18T13:35:29Z</time>
      </trkpt>
      <trkpt lat="43.16729" lon="-1.53015">
        <ele>553</ele>
        <time>2021-06-18T13:35:43Z</time>
      </trkpt>
      <trkpt lat="43.1671" lon="-1.53015">
        <ele>551</ele>
        <time>2021-06-18T13:35:47Z</time>
      </trkpt>
      <trkpt lat="43.16699" lon="-1.5302">
        <ele>552</ele>
        <time>2021-06-18T13:35:50Z</time>
      </trkpt>
      <trkpt lat="43.1669" lon="-1.53031">
        <ele>553</ele>
        <time>2021-06-18T13:35:53Z</time>
      </trkpt>
      <trkpt lat="43.16681" lon="-1.53033">
        <ele>553</ele>
        <time>2021-06-18T13:35:55Z</time>
      </trkpt>
      <trkpt lat="43.16658" lon="-1.53014">
        <ele>548</ele>
        <time>2021-06-18T13:36:01Z</time>
      </trkpt>
      <trkpt lat="43.16624" lon="-1.53">
        <ele>545</ele>
        <time>2021-06-18T13:36:10Z</time>
      </trkpt>
      <trkpt lat="43.16562" lon="-1.52984">
        <ele>542</ele>
        <time>2021-06-18T13:36:24Z</time>
      </trkpt>
      <trkpt lat="43.16517" lon="-1.52991">
        <ele>543</ele>
        <time>2021-06-18T13:36:35Z</time>
      </trkpt>
      <trkpt lat="43.16421" lon="-1.52955">
        <ele>533</ele>
        <time>2021-06-18T13:36:58Z</time>
      </trkpt>
      <trkpt lat="43.16364" lon="-1.52941">
        <ele>531</ele>
        <time>2021-06-18T13:37:12Z</time>
      </trkpt>
      <trkpt lat="43.16333" lon="-1.52942">
        <ele>531</ele>
        <time>2021-06-18T13:37:19Z</time>
      </trkpt>
      <trkpt lat="43.16271" lon="-1.52953">
        <ele>524</ele>
        <time>2021-06-18T13:37:34Z</time>
      </trkpt>
      <trkpt lat="43.16251" lon="-1.52952">
        <ele>522</ele>
        <time>2021-06-18T13:37:38Z</time>
      </trkpt>
      <trkpt lat="43.16225" lon="-1.52947">
        <ele>517</ele>
        <time>2021-06-18T13:37:44Z</time>
      </trkpt>
      <trkpt lat="43.16125" lon="-1.52888">
        <ele>502</ele>
        <time>2021-06-18T13:38:10Z</time>
      </trkpt>
      <trkpt lat="43.16064" lon="-1.52832">
        <ele>492</ele>
        <time>2021-06-18T13:38:27Z</time>
      </trkpt>
      <trkpt lat="43.15914" lon="-1.5266">
        <ele>466</ele>
        <time>2021-06-18T13:39:13Z</time>
      </trkpt>
      <trkpt lat="43.15886" lon="-1.52568">
        <ele>460</ele>
        <time>2021-06-18T13:39:30Z</time>
      </trkpt>
      <trkpt lat="43.15859" lon="-1.52512">
        <ele>459</ele>
        <time>2021-06-18T13:39:41Z</time>
      </trkpt>
      <trkpt lat="43.1579" lon="-1.52427">
        <ele>450</ele>
        <time>2021-06-18T13:40:03Z</time>
      </trkpt>
      <trkpt lat="43.15748" lon="-1.52399">
        <ele>447</ele>
        <time>2021-06-18T13:40:14Z</time>
      </trkpt>
      <trkpt lat="43.15693" lon="-1.52382">
        <ele>438</ele>
        <time>2021-06-18T13:40:27Z</time>
      </trkpt>
      <trkpt lat="43.15645" lon="-1.52388">
        <ele>435</ele>
        <time>2021-06-18T13:40:38Z</time>
      </trkpt>
      <trkpt lat="43.15635" lon="-1.52396">
        <ele>436</ele>
        <time>2021-06-18T13:40:41Z</time>
      </trkpt>
      <trkpt lat="43.15632" lon="-1.5242">
        <ele>442</ele>
        <time>2021-06-18T13:40:45Z</time>
      </trkpt>
      <trkpt lat="43.15617" lon="-1.52435">
        <ele>441</ele>
        <time>2021-06-18T13:40:49Z</time>
      </trkpt>
      <trkpt lat="43.15596" lon="-1.52435">
        <ele>436</ele>
        <time>2021-06-18T13:40:54Z</time>
      </trkpt>
      <trkpt lat="43.15587" lon="-1.52444">
        <ele>435</ele>
        <time>2021-06-18T13:40:57Z</time>
      </trkpt>
      <trkpt lat="43.15579" lon="-1.52447">
        <ele>432</ele>
        <time>2021-06-18T13:40:59Z</time>
      </trkpt>
      <trkpt lat="43.15586" lon="-1.52415">
        <ele>430</ele>
        <time>2021-06-18T13:41:04Z</time>
      </trkpt>
      <trkpt lat="43.15605" lon="-1.52381">
        <ele>425</ele>
        <time>2021-06-18T13:41:12Z</time>
      </trkpt>
      <trkpt lat="43.15603" lon="-1.52373">
        <ele>422</ele>
        <time>2021-06-18T13:41:13Z</time>
      </trkpt>
      <trkpt lat="43.15595" lon="-1.52372">
        <ele>421</ele>
        <time>2021-06-18T13:41:15Z</time>
      </trkpt>
      <trkpt lat="43.15582" lon="-1.52376">
        <ele>419</ele>
        <time>2021-06-18T13:41:18Z</time>
      </trkpt>
      <trkpt lat="43.15551" lon="-1.52393">
        <ele>412</ele>
        <time>2021-06-18T13:41:26Z</time>
      </trkpt>
      <trkpt lat="43.15522" lon="-1.52425">
        <ele>408</ele>
        <time>2021-06-18T13:41:35Z</time>
      </trkpt>
      <trkpt lat="43.15515" lon="-1.52419">
        <ele>405</ele>
        <time>2021-06-18T13:41:36Z</time>
      </trkpt>
      <trkpt lat="43.15507" lon="-1.52402">
        <ele>399</ele>
        <time>2021-06-18T13:41:40Z</time>
      </trkpt>
      <trkpt lat="43.15495" lon="-1.52403">
        <ele>394</ele>
        <time>2021-06-18T13:41:43Z</time>
      </trkpt>
      <trkpt lat="43.15466" lon="-1.52467">
        <ele>388</ele>
        <time>2021-06-18T13:41:56Z</time>
      </trkpt>
      <trkpt lat="43.15437" lon="-1.52508">
        <ele>378</ele>
        <time>2021-06-18T13:42:05Z</time>
      </trkpt>
      <trkpt lat="43.15417" lon="-1.52516">
        <ele>369</ele>
        <time>2021-06-18T13:42:10Z</time>
      </trkpt>
      <trkpt lat="43.15363" lon="-1.52656">
        <ele>356</ele>
        <time>2021-06-18T13:42:37Z</time>
      </trkpt>
      <trkpt lat="43.15363" lon="-1.52683">
        <ele>355</ele>
        <time>2021-06-18T13:42:42Z</time>
      </trkpt>
      <trkpt lat="43.15377" lon="-1.52745">
        <ele>355</ele>
        <time>2021-06-18T13:42:53Z</time>
      </trkpt>
      <trkpt lat="43.15383" lon="-1.528">
        <ele>349</ele>
        <time>2021-06-18T13:43:02Z</time>
      </trkpt>
      <trkpt lat="43.1538" lon="-1.52821">
        <ele>345</ele>
        <time>2021-06-18T13:43:06Z</time>
      </trkpt>
      <trkpt lat="43.15371" lon="-1.52848">
        <ele>337</ele>
        <time>2021-06-18T13:43:11Z</time>
      </trkpt>
      <trkpt lat="43.15364" lon="-1.52855">
        <ele>334</ele>
        <time>2021-06-18T13:43:13Z</time>
      </trkpt>
      <trkpt lat="43.15354" lon="-1.5286">
        <ele>331</ele>
        <time>2021-06-18T13:43:15Z</time>
      </trkpt>
      <trkpt lat="43.153" lon="-1.52863">
        <ele>321</ele>
        <time>2021-06-18T13:43:28Z</time>
      </trkpt>
      <trkpt lat="43.15279" lon="-1.5287">
        <ele>318</ele>
        <time>2021-06-18T13:43:33Z</time>
      </trkpt>
      <trkpt lat="43.15261" lon="-1.52866">
        <ele>316</ele>
        <time>2021-06-18T13:43:37Z</time>
      </trkpt>
      <trkpt lat="43.15232" lon="-1.52876">
        <ele>310</ele>
        <time>2021-06-18T13:43:44Z</time>
      </trkpt>
      <trkpt lat="43.15217" lon="-1.52877">
        <ele>306</ele>
        <time>2021-06-18T13:43:48Z</time>
      </trkpt>
      <trkpt lat="43.1519" lon="-1.52863">
        <ele>300</ele>
        <time>2021-06-18T13:43:55Z</time>
      </trkpt>
      <trkpt lat="43.1518" lon="-1.52853">
        <ele>297</ele>
        <time>2021-06-18T13:43:58Z</time>
      </trkpt>
      <trkpt lat="43.15178" lon="-1.52848">
        <ele>297</ele>
        <time>2021-06-18T13:43:58Z</time>
      </trkpt>
      <trkpt lat="43.15178" lon="-1.5284">
        <ele>297</ele>
        <time>2021-06-18T13:44:00Z</time>
      </trkpt>
      <trkpt lat="43.15182" lon="-1.5283">
        <ele>297</ele>
        <time>2021-06-18T13:44:02Z</time>
      </trkpt>
      <trkpt lat="43.15208" lon="-1.52803">
        <ele>301</ele>
        <time>2021-06-18T13:44:09Z</time>
      </trkpt>
      <trkpt lat="43.15218" lon="-1.52798">
        <ele>303</ele>
        <time>2021-06-18T13:44:12Z</time>
      </trkpt>
      <trkpt lat="43.15241" lon="-1.52795">
        <ele>309</ele>
        <time>2021-06-18T13:44:17Z</time>
      </trkpt>
      <trkpt lat="43.15245" lon="-1.5279">
        <ele>310</ele>
        <time>2021-06-18T13:44:19Z</time>
      </trkpt>
      <trkpt lat="43.15243" lon="-1.52777">
        <ele>308</ele>
        <time>2021-06-18T13:44:21Z</time>
      </trkpt>
      <trkpt lat="43.15227" lon="-1.5276">
        <ele>301</ele>
        <time>2021-06-18T13:44:26Z</time>
      </trkpt>
      <trkpt lat="43.15183" lon="-1.52724">
        <ele>285</ele>
        <time>2021-06-18T13:44:38Z</time>
      </trkpt>
      <trkpt lat="43.15169" lon="-1.527">
        <ele>281</ele>
        <time>2021-06-18T13:44:43Z</time>
      </trkpt>
      <trkpt lat="43.15154" lon="-1.52682">
        <ele>277</ele>
        <time>2021-06-18T13:44:47Z</time>
      </trkpt>
      <trkpt lat="43.15141" lon="-1.52655">
        <ele>273</ele>
        <time>2021-06-18T13:44:53Z</time>
      </trkpt>
      <trkpt lat="43.15136" lon="-1.52629">
        <ele>270</ele>
        <time>2021-06-18T13:44:57Z</time>
      </trkpt>
      <trkpt lat="43.151" lon="-1.52572">
        <ele>259</ele>
        <time>2021-06-18T13:45:10Z</time>
      </trkpt>
      <trkpt lat="43.15094" lon="-1.52557">
        <ele>255</ele>
        <time>2021-06-18T13:45:13Z</time>
      </trkpt>
      <trkpt lat="43.15099" lon="-1.52546">
        <ele>255</ele>
        <time>2021-06-18T13:45:15Z</time>
      </trkpt>
      <trkpt lat="43.1513" lon="-1.52534">
        <ele>262</ele>
        <time>2021-06-18T13:45:23Z</time>
      </trkpt>
      <trkpt lat="43.1514" lon="-1.52526">
        <ele>263</ele>
        <time>2021-06-18T13:45:26Z</time>
      </trkpt>
      <trkpt lat="43.15147" lon="-1.52513">
        <ele>263</ele>
        <time>2021-06-18T13:45:28Z</time>
      </trkpt>
      <trkpt lat="43.1515" lon="-1.52497">
        <ele>262</ele>
        <time>2021-06-18T13:45:31Z</time>
      </trkpt>
      <trkpt lat="43.15149" lon="-1.5248">
        <ele>262</ele>
        <time>2021-06-18T13:45:34Z</time>
      </trkpt>
      <trkpt lat="43.15144" lon="-1.52464">
        <ele>260</ele>
        <time>2021-06-18T13:45:37Z</time>
      </trkpt>
      <trkpt lat="43.15132" lon="-1.52444">
        <ele>256</ele>
        <time>2021-06-18T13:45:42Z</time>
      </trkpt>
      <trkpt lat="43.15125" lon="-1.52427">
        <ele>253</ele>
        <time>2021-06-18T13:45:45Z</time>
      </trkpt>
      <trkpt lat="43.15124" lon="-1.52412">
        <ele>252</ele>
        <time>2021-06-18T13:45:47Z</time>
      </trkpt>
      <trkpt lat="43.15132" lon="-1.5236">
        <ele>247</ele>
        <time>2021-06-18T13:45:56Z</time>
      </trkpt>
      <trkpt lat="43.15146" lon="-1.52337">
        <ele>247</ele>
        <time>2021-06-18T13:46:02Z</time>
      </trkpt>
      <trkpt lat="43.15158" lon="-1.52327">
        <ele>248</ele>
        <time>2021-06-18T13:46:05Z</time>
      </trkpt>
      <trkpt lat="43.15136" lon="-1.52325">
        <ele>243</ele>
        <time>2021-06-18T13:46:10Z</time>
      </trkpt>
      <trkpt lat="43.15119" lon="-1.52327">
        <ele>240</ele>
        <time>2021-06-18T13:46:14Z</time>
      </trkpt>
      <trkpt lat="43.15094" lon="-1.52346">
        <ele>237</ele>
        <time>2021-06-18T13:46:21Z</time>
      </trkpt>
      <trkpt lat="43.15074" lon="-1.52342">
        <ele>232</ele>
        <time>2021-06-18T13:46:25Z</time>
      </trkpt>
      <trkpt lat="43.15062" lon="-1.52332">
        <ele>229</ele>
        <time>2021-06-18T13:46:29Z</time>
      </trkpt>
      <trkpt lat="43.15042" lon="-1.52307">
        <ele>224</ele>
        <time>2021-06-18T13:46:35Z</time>
      </trkpt>
      <trkpt lat="43.14999" lon="-1.52245">
        <ele>216</ele>
        <time>2021-06-18T13:46:50Z</time>
      </trkpt>
      <trkpt lat="43.14997" lon="-1.52237">
        <ele>215</ele>
        <time>2021-06-18T13:46:51Z</time>
      </trkpt>
      <trkpt lat="43.15013" lon="-1.52191">
        <ele>214</ele>
        <time>2021-06-18T13:47:00Z</time>
      </trkpt>
      <trkpt lat="43.14997" lon="-1.52175">
        <ele>211</ele>
        <time>2021-06-18T13:47:04Z</time>
      </trkpt>
      <trkpt lat="43.14971" lon="-1.52137">
        <ele>210</ele>
        <time>2021-06-18T13:47:13Z</time>
      </trkpt>
      <trkpt lat="43.14929" lon="-1.52091">
        <ele>205</ele>
        <time>2021-06-18T13:47:26Z</time>
      </trkpt>
      <trkpt lat="43.14892" lon="-1.52088">
        <ele>203</ele>
        <time>2021-06-18T13:47:34Z</time>
      </trkpt>
      <trkpt lat="43.1488" lon="-1.5209">
        <ele>203</ele>
        <time>2021-06-18T13:47:37Z</time>
      </trkpt>
      <trkpt lat="43.14873" lon="-1.52097">
        <ele>204</ele>
        <time>2021-06-18T13:47:39Z</time>
      </trkpt>
      <trkpt lat="43.14861" lon="-1.52086">
        <ele>203</ele>
        <time>2021-06-18T13:47:43Z</time>
      </trkpt>
      <trkpt lat="43.14699" lon="-1.5198">
        <ele>199</ele>
        <time>2021-06-18T13:48:25Z</time>
      </trkpt>
      <trkpt lat="43.14684" lon="-1.51974">
        <ele>199</ele>
        <time>2021-06-18T13:48:28Z</time>
      </trkpt>
      <trkpt lat="43.14722" lon="-1.51892">
        <ele>199</ele>
        <time>2021-06-18T13:48:45Z</time>
      </trkpt>
      <trkpt lat="43.14746" lon="-1.5185">
        <ele>197</ele>
        <time>2021-06-18T13:48:54Z</time>
      </trkpt>
      <trkpt lat="43.14675" lon="-1.51762">
        <ele>199</ele>
        <time>2021-06-18T13:49:16Z</time>
      </trkpt>
      <trkpt lat="43.14658" lon="-1.51715">
        <ele>200</ele>
        <time>2021-06-18T13:49:25Z</time>
      </trkpt>
      <trkpt lat="43.14635" lon="-1.51738">
        <ele>200</ele>
        <time>2021-06-18T13:49:32Z</time>
      </trkpt>
      <trkpt lat="43.14626" lon="-1.51725">
        <ele>201</ele>
        <time>2021-06-18T13:49:35Z</time>
      </trkpt>
      <trkpt lat="43.14621" lon="-1.51727">
        <ele>201</ele>
        <time>2021-06-18T13:49:36Z</time>
      </trkpt>
      <trkpt lat="43.14595" lon="-1.51719">
        <ele>201</ele>
        <time>2021-06-18T13:49:42Z</time>
      </trkpt>
      <trkpt lat="43.14649" lon="-1.51613">
        <ele>202</ele>
        <time>2021-06-18T13:50:04Z</time>
      </trkpt>
      <trkpt lat="43.14634" lon="-1.51564">
        <ele>202</ele>
        <time>2021-06-18T13:50:13Z</time>
      </trkpt>
      <trkpt lat="43.14616" lon="-1.51492">
        <ele>203</ele>
        <time>2021-06-18T13:50:26Z</time>
      </trkpt>
      <trkpt lat="43.1458" lon="-1.51321">
        <ele>206</ele>
        <time>2021-06-18T13:50:57Z</time>
      </trkpt>
      <trkpt lat="43.14579" lon="-1.51308">
        <ele>207</ele>
        <time>2021-06-18T13:50:59Z</time>
      </trkpt>
      <trkpt lat="43.14586" lon="-1.51234">
        <ele>212</ele>
        <time>2021-06-18T13:51:12Z</time>
      </trkpt>
      <trkpt lat="43.14583" lon="-1.51178">
        <ele>215</ele>
        <time>2021-06-18T13:51:21Z</time>
      </trkpt>
      <trkpt lat="43.1457" lon="-1.51189">
        <ele>217</ele>
        <time>2021-06-18T13:51:25Z</time>
      </trkpt>
      <trkpt lat="43.14562" lon="-1.51175">
        <ele>218</ele>
        <time>2021-06-18T13:51:28Z</time>
      </trkpt>
      <trkpt lat="43.14557" lon="-1.51161">
        <ele>219</ele>
        <time>2021-06-18T13:51:30Z</time>
      </trkpt>
      <trkpt lat="43.14558" lon="-1.51153">
        <ele>219</ele>
        <time>2021-06-18T13:51:32Z</time>
      </trkpt>
      <trkpt lat="43.14544" lon="-1.51111">
        <ele>220</ele>
        <time>2021-06-18T13:51:40Z</time>
      </trkpt>
      <trkpt lat="43.14537" lon="-1.51099">
        <ele>221</ele>
        <time>2021-06-18T13:51:42Z</time>
      </trkpt>
      <trkpt lat="43.14522" lon="-1.51047">
        <ele>222</ele>
        <time>2021-06-18T13:51:52Z</time>
      </trkpt>
      <trkpt lat="43.14484" lon="-1.50961">
        <ele>224</ele>
        <time>2021-06-18T13:52:09Z</time>
      </trkpt>
      <trkpt lat="43.14466" lon="-1.50883">
        <ele>222</ele>
        <time>2021-06-18T13:52:23Z</time>
      </trkpt>
      <trkpt lat="43.14415" lon="-1.50754">
        <ele>215</ele>
        <time>2021-06-18T13:52:48Z</time>
      </trkpt>
      <trkpt lat="43.14391" lon="-1.5072">
        <ele>218</ele>
        <time>2021-06-18T13:52:56Z</time>
      </trkpt>
      <trkpt lat="43.14337" lon="-1.50615">
        <ele>223</ele>
        <time>2021-06-18T13:53:18Z</time>
      </trkpt>
      <trkpt lat="43.1429" lon="-1.50536">
        <ele>225</ele>
        <time>2021-06-18T13:53:35Z</time>
      </trkpt>
      <trkpt lat="43.14274" lon="-1.50513">
        <ele>225</ele>
        <time>2021-06-18T13:53:41Z</time>
      </trkpt>
      <trkpt lat="43.1421" lon="-1.5045">
        <ele>231</ele>
        <time>2021-06-18T13:53:59Z</time>
      </trkpt>
      <trkpt lat="43.1419" lon="-1.50434">
        <ele>232</ele>
        <time>2021-06-18T13:54:04Z</time>
      </trkpt>
      <trkpt lat="43.14138" lon="-1.50411">
        <ele>236</ele>
        <time>2021-06-18T13:54:17Z</time>
      </trkpt>
      <trkpt lat="43.14053" lon="-1.50393">
        <ele>250</ele>
        <time>2021-06-18T13:54:37Z</time>
      </trkpt>
      <trkpt lat="43.14037" lon="-1.50386">
        <ele>252</ele>
        <time>2021-06-18T13:54:41Z</time>
      </trkpt>
      <trkpt lat="43.14012" lon="-1.50351">
        <ele>246</ele>
        <time>2021-06-18T13:54:50Z</time>
      </trkpt>
      <trkpt lat="43.1394" lon="-1.50188">
        <ele>241</ele>
        <time>2021-06-18T13:55:22Z</time>
      </trkpt>
      <trkpt lat="43.13924" lon="-1.50172">
        <ele>239</ele>
        <time>2021-06-18T13:55:27Z</time>
      </trkpt>
      <trkpt lat="43.13872" lon="-1.50137">
        <ele>238</ele>
        <time>2021-06-18T13:55:40Z</time>
      </trkpt>
      <trkpt lat="43.13852" lon="-1.50129">
        <ele>237</ele>
        <time>2021-06-18T13:55:45Z</time>
      </trkpt>
      <trkpt lat="43.13821" lon="-1.50122">
        <ele>236</ele>
        <time>2021-06-18T13:55:52Z</time>
      </trkpt>
      <trkpt lat="43.13796" lon="-1.5012">
        <ele>237</ele>
        <time>2021-06-18T13:55:58Z</time>
      </trkpt>
      <trkpt lat="43.13776" lon="-1.5012">
        <ele>237</ele>
        <time>2021-06-18T13:56:03Z</time>
      </trkpt>
      <trkpt lat="43.13716" lon="-1.50137">
        <ele>240</ele>
        <time>2021-06-18T13:56:17Z</time>
      </trkpt>
      <trkpt lat="43.13709" lon="-1.50136">
        <ele>240</ele>
        <time>2021-06-18T13:56:19Z</time>
      </trkpt>
      <trkpt lat="43.13643" lon="-1.50079">
        <ele>240</ele>
        <time>2021-06-18T13:56:37Z</time>
      </trkpt>
      <trkpt lat="43.13631" lon="-1.50073">
        <ele>240</ele>
        <time>2021-06-18T13:56:40Z</time>
      </trkpt>
      <trkpt lat="43.13615" lon="-1.50068">
        <ele>241</ele>
        <time>2021-06-18T13:56:44Z</time>
      </trkpt>
      <trkpt lat="43.13558" lon="-1.50074">
        <ele>242</ele>
        <time>2021-06-18T13:56:57Z</time>
      </trkpt>
      <trkpt lat="43.1355" lon="-1.50072">
        <ele>242</ele>
        <time>2021-06-18T13:56:59Z</time>
      </trkpt>
      <trkpt lat="43.13541" lon="-1.50065">
        <ele>243</ele>
        <time>2021-06-18T13:57:02Z</time>
      </trkpt>
      <trkpt lat="43.13517" lon="-1.50021">
        <ele>247</ele>
        <time>2021-06-18T13:57:11Z</time>
      </trkpt>
      <trkpt lat="43.13505" lon="-1.50006">
        <ele>249</ele>
        <time>2021-06-18T13:57:15Z</time>
      </trkpt>
      <trkpt lat="43.13476" lon="-1.49989">
        <ele>249</ele>
        <time>2021-06-18T13:57:22Z</time>
      </trkpt>
      <trkpt lat="43.13464" lon="-1.49977">
        <ele>250</ele>
        <time>2021-06-18T13:57:26Z</time>
      </trkpt>
      <trkpt lat="43.13412" lon="-1.49908">
        <ele>254</ele>
        <time>2021-06-18T13:57:42Z</time>
      </trkpt>
      <trkpt lat="43.13383" lon="-1.49907">
        <ele>254</ele>
        <time>2021-06-18T13:57:49Z</time>
      </trkpt>
      <trkpt lat="43.13355" lon="-1.49915">
        <ele>253</ele>
        <time>2021-06-18T13:57:56Z</time>
      </trkpt>
      <trkpt lat="43.13317" lon="-1.49933">
        <ele>251</ele>
        <time>2021-06-18T13:58:05Z</time>
      </trkpt>
      <trkpt lat="43.13256" lon="-1.49947">
        <ele>251</ele>
        <time>2021-06-18T13:58:20Z</time>
      </trkpt>
      <trkpt lat="43.13223" lon="-1.49929">
        <ele>252</ele>
        <time>2021-06-18T13:58:28Z</time>
      </trkpt>
      <trkpt lat="43.13188" lon="-1.49921">
        <ele>254</ele>
        <time>2021-06-18T13:58:36Z</time>
      </trkpt>
      <trkpt lat="43.13169" lon="-1.49908">
        <ele>255</ele>
        <time>2021-06-18T13:58:41Z</time>
      </trkpt>
      <trkpt lat="43.13158" lon="-1.49897">
        <ele>256</ele>
        <time>2021-06-18T13:58:44Z</time>
      </trkpt>
      <trkpt lat="43.13149" lon="-1.49875">
        <ele>257</ele>
        <time>2021-06-18T13:58:49Z</time>
      </trkpt>
      <trkpt lat="43.13139" lon="-1.49859">
        <ele>257</ele>
        <time>2021-06-18T13:58:52Z</time>
      </trkpt>
      <trkpt lat="43.13129" lon="-1.49855">
        <ele>258</ele>
        <time>2021-06-18T13:58:55Z</time>
      </trkpt>
      <trkpt lat="43.13113" lon="-1.49857">
        <ele>258</ele>
        <time>2021-06-18T13:58:59Z</time>
      </trkpt>
      <trkpt lat="43.13082" lon="-1.49873">
        <ele>260</ele>
        <time>2021-06-18T13:59:06Z</time>
      </trkpt>
      <trkpt lat="43.13064" lon="-1.49886">
        <ele>262</ele>
        <time>2021-06-18T13:59:11Z</time>
      </trkpt>
      <trkpt lat="43.13051" lon="-1.4989">
        <ele>263</ele>
        <time>2021-06-18T13:59:14Z</time>
      </trkpt>
      <trkpt lat="43.13042" lon="-1.49877">
        <ele>264</ele>
        <time>2021-06-18T13:59:17Z</time>
      </trkpt>
      <trkpt lat="43.13019" lon="-1.49831">
        <ele>264</ele>
        <time>2021-06-18T13:59:27Z</time>
      </trkpt>
      <trkpt lat="43.13011" lon="-1.4982">
        <ele>265</ele>
        <time>2021-06-18T13:59:29Z</time>
      </trkpt>
      <trkpt lat="43.13" lon="-1.49816">
        <ele>266</ele>
        <time>2021-06-18T13:59:32Z</time>
      </trkpt>
      <trkpt lat="43.12992" lon="-1.49802">
        <ele>267</ele>
        <time>2021-06-18T13:59:35Z</time>
      </trkpt>
      <trkpt lat="43.12989" lon="-1.49785">
        <ele>267</ele>
        <time>2021-06-18T13:59:38Z</time>
      </trkpt>
      <trkpt lat="43.12996" lon="-1.49739">
        <ele>267</ele>
        <time>2021-06-18T13:59:46Z</time>
      </trkpt>
      <trkpt lat="43.12994" lon="-1.49727">
        <ele>268</ele>
        <time>2021-06-18T13:59:48Z</time>
      </trkpt>
      <trkpt lat="43.12989" lon="-1.49722">
        <ele>269</ele>
        <time>2021-06-18T13:59:50Z</time>
      </trkpt>
      <trkpt lat="43.12971" lon="-1.4972">
        <ele>273</ele>
        <time>2021-06-18T13:59:54Z</time>
      </trkpt>
      <trkpt lat="43.12959" lon="-1.49714">
        <ele>275</ele>
        <time>2021-06-18T13:59:57Z</time>
      </trkpt>
      <trkpt lat="43.1295" lon="-1.49703">
        <ele>279</ele>
        <time>2021-06-18T14:00:00Z</time>
      </trkpt>
      <trkpt lat="43.12919" lon="-1.49692">
        <ele>287</ele>
        <time>2021-06-18T14:00:07Z</time>
      </trkpt>
      <trkpt lat="43.12904" lon="-1.4968">
        <ele>289</ele>
        <time>2021-06-18T14:00:11Z</time>
      </trkpt>
      <trkpt lat="43.12855" lon="-1.49624">
        <ele>296</ele>
        <time>2021-06-18T14:00:26Z</time>
      </trkpt>
      <trkpt lat="43.12829" lon="-1.49599">
        <ele>300</ele>
        <time>2021-06-18T14:00:33Z</time>
      </trkpt>
      <trkpt lat="43.12809" lon="-1.49567">
        <ele>304</ele>
        <time>2021-06-18T14:00:41Z</time>
      </trkpt>
      <trkpt lat="43.12795" lon="-1.49535">
        <ele>308</ele>
        <time>2021-06-18T14:00:47Z</time>
      </trkpt>
      <trkpt lat="43.12745" lon="-1.49447">
        <ele>323</ele>
        <time>2021-06-18T14:01:06Z</time>
      </trkpt>
      <trkpt lat="43.12714" lon="-1.49414">
        <ele>325</ele>
        <time>2021-06-18T14:01:15Z</time>
      </trkpt>
      <trkpt lat="43.12699" lon="-1.49392">
        <ele>326</ele>
        <time>2021-06-18T14:01:20Z</time>
      </trkpt>
      <trkpt lat="43.12683" lon="-1.49361">
        <ele>331</ele>
        <time>2021-06-18T14:01:27Z</time>
      </trkpt>
      <trkpt lat="43.12653" lon="-1.49284">
        <ele>340</ele>
        <time>2021-06-18T14:01:42Z</time>
      </trkpt>
      <trkpt lat="43.12623" lon="-1.49235">
        <ele>340</ele>
        <time>2021-06-18T14:01:52Z</time>
      </trkpt>
      <trkpt lat="43.12598" lon="-1.49176">
        <ele>343</ele>
        <time>2021-06-18T14:02:04Z</time>
      </trkpt>
      <trkpt lat="43.12557" lon="-1.4913">
        <ele>350</ele>
        <time>2021-06-18T14:02:16Z</time>
      </trkpt>
      <trkpt lat="43.12543" lon="-1.491">
        <ele>353</ele>
        <time>2021-06-18T14:02:23Z</time>
      </trkpt>
      <trkpt lat="43.12536" lon="-1.4907">
        <ele>356</ele>
        <time>2021-06-18T14:02:28Z</time>
      </trkpt>
      <trkpt lat="43.12531" lon="-1.49063">
        <ele>357</ele>
        <time>2021-06-18T14:02:30Z</time>
      </trkpt>
      <trkpt lat="43.12498" lon="-1.49027">
        <ele>368</ele>
        <time>2021-06-18T14:02:39Z</time>
      </trkpt>
      <trkpt lat="43.12483" lon="-1.49025">
        <ele>371</ele>
        <time>2021-06-18T14:02:43Z</time>
      </trkpt>
      <trkpt lat="43.12458" lon="-1.49013">
        <ele>376</ele>
        <time>2021-06-18T14:02:49Z</time>
      </trkpt>
      <trkpt lat="43.12447" lon="-1.49005">
        <ele>379</ele>
        <time>2021-06-18T14:02:52Z</time>
      </trkpt>
      <trkpt lat="43.12441" lon="-1.49011">
        <ele>379</ele>
        <time>2021-06-18T14:02:54Z</time>
      </trkpt>
      <trkpt lat="43.12433" lon="-1.49028">
        <ele>378</ele>
        <time>2021-06-18T14:02:57Z</time>
      </trkpt>
      <trkpt lat="43.12421" lon="-1.49061">
        <ele>375</ele>
        <time>2021-06-18T14:03:04Z</time>
      </trkpt>
      <trkpt lat="43.12416" lon="-1.49062">
        <ele>375</ele>
        <time>2021-06-18T14:03:05Z</time>
      </trkpt>
      <trkpt lat="43.12413" lon="-1.49056">
        <ele>376</ele>
        <time>2021-06-18T14:03:06Z</time>
      </trkpt>
      <trkpt lat="43.12401" lon="-1.48989">
        <ele>385</ele>
        <time>2021-06-18T14:03:18Z</time>
      </trkpt>
      <trkpt lat="43.12426" lon="-1.48957">
        <ele>395</ele>
        <time>2021-06-18T14:03:26Z</time>
      </trkpt>
      <trkpt lat="43.12432" lon="-1.48934">
        <ele>400</ele>
        <time>2021-06-18T14:03:30Z</time>
      </trkpt>
      <trkpt lat="43.12436" lon="-1.48927">
        <ele>402</ele>
        <time>2021-06-18T14:03:31Z</time>
      </trkpt>
      <trkpt lat="43.12442" lon="-1.48921">
        <ele>403</ele>
        <time>2021-06-18T14:03:33Z</time>
      </trkpt>
      <trkpt lat="43.12468" lon="-1.4891">
        <ele>404</ele>
        <time>2021-06-18T14:03:39Z</time>
      </trkpt>
      <trkpt lat="43.12475" lon="-1.48904">
        <ele>405</ele>
        <time>2021-06-18T14:03:41Z</time>
      </trkpt>
      <trkpt lat="43.12473" lon="-1.48895">
        <ele>408</ele>
        <time>2021-06-18T14:03:43Z</time>
      </trkpt>
      <trkpt lat="43.12449" lon="-1.48861">
        <ele>420</ele>
        <time>2021-06-18T14:03:51Z</time>
      </trkpt>
      <trkpt lat="43.12409" lon="-1.48813">
        <ele>428</ele>
        <time>2021-06-18T14:04:03Z</time>
      </trkpt>
      <trkpt lat="43.12395" lon="-1.48804">
        <ele>428</ele>
        <time>2021-06-18T14:04:07Z</time>
      </trkpt>
      <trkpt lat="43.12385" lon="-1.48794">
        <ele>428</ele>
        <time>2021-06-18T14:04:10Z</time>
      </trkpt>
      <trkpt lat="43.12345" lon="-1.48731">
        <ele>430</ele>
        <time>2021-06-18T14:04:24Z</time>
      </trkpt>
      <trkpt lat="43.12323" lon="-1.48672">
        <ele>434</ele>
        <time>2021-06-18T14:04:36Z</time>
      </trkpt>
      <trkpt lat="43.12315" lon="-1.48659">
        <ele>435</ele>
        <time>2021-06-18T14:04:38Z</time>
      </trkpt>
      <trkpt lat="43.1223" lon="-1.48556">
        <ele>424</ele>
        <time>2021-06-18T14:05:05Z</time>
      </trkpt>
      <trkpt lat="43.12203" lon="-1.48507">
        <ele>418</ele>
        <time>2021-06-18T14:05:15Z</time>
      </trkpt>
      <trkpt lat="43.12187" lon="-1.48495">
        <ele>414</ele>
        <time>2021-06-18T14:05:20Z</time>
      </trkpt>
      <trkpt lat="43.12157" lon="-1.48463">
        <ele>411</ele>
        <time>2021-06-18T14:05:29Z</time>
      </trkpt>
      <trkpt lat="43.12118" lon="-1.48443">
        <ele>406</ele>
        <time>2021-06-18T14:05:38Z</time>
      </trkpt>
      <trkpt lat="43.12085" lon="-1.4842">
        <ele>398</ele>
        <time>2021-06-18T14:05:47Z</time>
      </trkpt>
      <trkpt lat="43.12072" lon="-1.48402">
        <ele>398</ele>
        <time>2021-06-18T14:05:51Z</time>
      </trkpt>
      <trkpt lat="43.1207" lon="-1.4839">
        <ele>398</ele>
        <time>2021-06-18T14:05:53Z</time>
      </trkpt>
      <trkpt lat="43.12075" lon="-1.48295">
        <ele>393</ele>
        <time>2021-06-18T14:06:10Z</time>
      </trkpt>
      <trkpt lat="43.12061" lon="-1.48251">
        <ele>392</ele>
        <time>2021-06-18T14:06:18Z</time>
      </trkpt>
      <trkpt lat="43.12061" lon="-1.48245">
        <ele>391</ele>
        <time>2021-06-18T14:06:19Z</time>
      </trkpt>
      <trkpt lat="43.12074" lon="-1.48226">
        <ele>387</ele>
        <time>2021-06-18T14:06:23Z</time>
      </trkpt>
      <trkpt lat="43.12077" lon="-1.48219">
        <ele>385</ele>
        <time>2021-06-18T14:06:25Z</time>
      </trkpt>
      <trkpt lat="43.12077" lon="-1.48211">
        <ele>385</ele>
        <time>2021-06-18T14:06:26Z</time>
      </trkpt>
      <trkpt lat="43.1207" lon="-1.48197">
        <ele>386</ele>
        <time>2021-06-18T14:06:29Z</time>
      </trkpt>
      <trkpt lat="43.12055" lon="-1.48183">
        <ele>389</ele>
        <time>2021-06-18T14:06:33Z</time>
      </trkpt>
      <trkpt lat="43.12053" lon="-1.48172">
        <ele>389</ele>
        <time>2021-06-18T14:06:35Z</time>
      </trkpt>
      <trkpt lat="43.12063" lon="-1.48126">
        <ele>388</ele>
        <time>2021-06-18T14:06:43Z</time>
      </trkpt>
      <trkpt lat="43.12084" lon="-1.48052">
        <ele>384</ele>
        <time>2021-06-18T14:06:57Z</time>
      </trkpt>
      <trkpt lat="43.12085" lon="-1.48021">
        <ele>382</ele>
        <time>2021-06-18T14:07:02Z</time>
      </trkpt>
      <trkpt lat="43.12083" lon="-1.48004">
        <ele>382</ele>
        <time>2021-06-18T14:07:05Z</time>
      </trkpt>
      <trkpt lat="43.12078" lon="-1.47985">
        <ele>381</ele>
        <time>2021-06-18T14:07:08Z</time>
      </trkpt>
      <trkpt lat="43.12072" lon="-1.47977">
        <ele>381</ele>
        <time>2021-06-18T14:07:10Z</time>
      </trkpt>
      <trkpt lat="43.12054" lon="-1.47967">
        <ele>383</ele>
        <time>2021-06-18T14:07:15Z</time>
      </trkpt>
      <trkpt lat="43.12037" lon="-1.47962">
        <ele>385</ele>
        <time>2021-06-18T14:07:19Z</time>
      </trkpt>
      <trkpt lat="43.12001" lon="-1.47959">
        <ele>391</ele>
        <time>2021-06-18T14:07:27Z</time>
      </trkpt>
      <trkpt lat="43.11992" lon="-1.47954">
        <ele>391</ele>
        <time>2021-06-18T14:07:30Z</time>
      </trkpt>
      <trkpt lat="43.11952" lon="-1.47908">
        <ele>390</ele>
        <time>2021-06-18T14:07:42Z</time>
      </trkpt>
      <trkpt lat="43.11948" lon="-1.479">
        <ele>391</ele>
        <time>2021-06-18T14:07:43Z</time>
      </trkpt>
      <trkpt lat="43.11948" lon="-1.47892">
        <ele>391</ele>
        <time>2021-06-18T14:07:45Z</time>
      </trkpt>
      <trkpt lat="43.1195" lon="-1.47879">
        <ele>390</ele>
        <time>2021-06-18T14:07:47Z</time>
      </trkpt>
      <trkpt lat="43.11955" lon="-1.47871">
        <ele>389</ele>
        <time>2021-06-18T14:07:49Z</time>
      </trkpt>
      <trkpt lat="43.11962" lon="-1.47872">
        <ele>388</ele>
        <time>2021-06-18T14:07:51Z</time>
      </trkpt>
      <trkpt lat="43.11972" lon="-1.47878">
        <ele>387</ele>
        <time>2021-06-18T14:07:53Z</time>
      </trkpt>
      <trkpt lat="43.11984" lon="-1.47873">
        <ele>385</ele>
        <time>2021-06-18T14:07:56Z</time>
      </trkpt>
      <trkpt lat="43.11986" lon="-1.47866">
        <ele>385</ele>
        <time>2021-06-18T14:07:57Z</time>
      </trkpt>
      <trkpt lat="43.11983" lon="-1.47856">
        <ele>385</ele>
        <time>2021-06-18T14:07:59Z</time>
      </trkpt>
      <trkpt lat="43.11964" lon="-1.47845">
        <ele>388</ele>
        <time>2021-06-18T14:08:04Z</time>
      </trkpt>
      <trkpt lat="43.11934" lon="-1.47797">
        <ele>394</ele>
        <time>2021-06-18T14:08:15Z</time>
      </trkpt>
      <trkpt lat="43.11924" lon="-1.47769">
        <ele>398</ele>
        <time>2021-06-18T14:08:20Z</time>
      </trkpt>
      <trkpt lat="43.11912" lon="-1.47721">
        <ele>401</ele>
        <time>2021-06-18T14:08:29Z</time>
      </trkpt>
      <trkpt lat="43.11886" lon="-1.47677">
        <ele>401</ele>
        <time>2021-06-18T14:08:38Z</time>
      </trkpt>
      <trkpt lat="43.11876" lon="-1.47635">
        <ele>398</ele>
        <time>2021-06-18T14:08:46Z</time>
      </trkpt>
      <trkpt lat="43.11885" lon="-1.47589">
        <ele>393</ele>
        <time>2021-06-18T14:08:54Z</time>
      </trkpt>
      <trkpt lat="43.11885" lon="-1.47578">
        <ele>391</ele>
        <time>2021-06-18T14:08:56Z</time>
      </trkpt>
      <trkpt lat="43.11888" lon="-1.47568">
        <ele>390</ele>
        <time>2021-06-18T14:08:58Z</time>
      </trkpt>
      <trkpt lat="43.11892" lon="-1.47563">
        <ele>389</ele>
        <time>2021-06-18T14:08:59Z</time>
      </trkpt>
      <trkpt lat="43.11897" lon="-1.47539">
        <ele>386</ele>
        <time>2021-06-18T14:09:03Z</time>
      </trkpt>
      <trkpt lat="43.119" lon="-1.47492">
        <ele>380</ele>
        <time>2021-06-18T14:09:11Z</time>
      </trkpt>
      <trkpt lat="43.11899" lon="-1.47455">
        <ele>379</ele>
        <time>2021-06-18T14:09:18Z</time>
      </trkpt>
      <trkpt lat="43.11889" lon="-1.47419">
        <ele>379</ele>
        <time>2021-06-18T14:09:24Z</time>
      </trkpt>
      <trkpt lat="43.11875" lon="-1.47383">
        <ele>382</ele>
        <time>2021-06-18T14:09:31Z</time>
      </trkpt>
      <trkpt lat="43.11858" lon="-1.47348">
        <ele>385</ele>
        <time>2021-06-18T14:09:38Z</time>
      </trkpt>
      <trkpt lat="43.11863" lon="-1.47333">
        <ele>384</ele>
        <time>2021-06-18T14:09:41Z</time>
      </trkpt>
      <trkpt lat="43.1187" lon="-1.4729">
        <ele>384</ele>
        <time>2021-06-18T14:09:49Z</time>
      </trkpt>
      <trkpt lat="43.11866" lon="-1.47242">
        <ele>384</ele>
        <time>2021-06-18T14:09:57Z</time>
      </trkpt>
      <trkpt lat="43.11867" lon="-1.47189">
        <ele>382</ele>
        <time>2021-06-18T14:10:06Z</time>
      </trkpt>
      <trkpt lat="43.11883" lon="-1.47117">
        <ele>383</ele>
        <time>2021-06-18T14:10:19Z</time>
      </trkpt>
      <trkpt lat="43.11886" lon="-1.47088">
        <ele>384</ele>
        <time>2021-06-18T14:10:24Z</time>
      </trkpt>
      <trkpt lat="43.11882" lon="-1.47042">
        <ele>387</ele>
        <time>2021-06-18T14:10:32Z</time>
      </trkpt>
      <trkpt lat="43.11874" lon="-1.47011">
        <ele>390</ele>
        <time>2021-06-18T14:10:37Z</time>
      </trkpt>
      <trkpt lat="43.11871" lon="-1.46954">
        <ele>395</ele>
        <time>2021-06-18T14:10:47Z</time>
      </trkpt>
      <trkpt lat="43.11872" lon="-1.46946">
        <ele>395</ele>
        <time>2021-06-18T14:10:48Z</time>
      </trkpt>
      <trkpt lat="43.11886" lon="-1.46924">
        <ele>395</ele>
        <time>2021-06-18T14:10:53Z</time>
      </trkpt>
      <trkpt lat="43.11898" lon="-1.46893">
        <ele>395</ele>
        <time>2021-06-18T14:10:59Z</time>
      </trkpt>
      <trkpt lat="43.11904" lon="-1.46887">
        <ele>394</ele>
        <time>2021-06-18T14:11:01Z</time>
      </trkpt>
      <trkpt lat="43.1191" lon="-1.46887">
        <ele>394</ele>
        <time>2021-06-18T14:11:02Z</time>
      </trkpt>
      <trkpt lat="43.11926" lon="-1.46893">
        <ele>392</ele>
        <time>2021-06-18T14:11:06Z</time>
      </trkpt>
      <trkpt lat="43.11954" lon="-1.46921">
        <ele>388</ele>
        <time>2021-06-18T14:11:14Z</time>
      </trkpt>
      <trkpt lat="43.11961" lon="-1.46935">
        <ele>386</ele>
        <time>2021-06-18T14:11:17Z</time>
      </trkpt>
      <trkpt lat="43.11968" lon="-1.46967">
        <ele>383</ele>
        <time>2021-06-18T14:11:23Z</time>
      </trkpt>
      <trkpt lat="43.11978" lon="-1.46986">
        <ele>381</ele>
        <time>2021-06-18T14:11:27Z</time>
      </trkpt>
      <trkpt lat="43.12033" lon="-1.47013">
        <ele>382</ele>
        <time>2021-06-18T14:11:41Z</time>
      </trkpt>
      <trkpt lat="43.12054" lon="-1.47029">
        <ele>384</ele>
        <time>2021-06-18T14:11:46Z</time>
      </trkpt>
      <trkpt lat="43.12072" lon="-1.47004">
        <ele>384</ele>
        <time>2021-06-18T14:11:52Z</time>
      </trkpt>
      <trkpt lat="43.12099" lon="-1.46986">
        <ele>388</ele>
        <time>2021-06-18T14:11:59Z</time>
      </trkpt>
      <trkpt lat="43.12103" lon="-1.46979">
        <ele>388</ele>
        <time>2021-06-18T14:12:01Z</time>
      </trkpt>
      <trkpt lat="43.12128" lon="-1.46826">
        <ele>386</ele>
        <time>2021-06-18T14:12:27Z</time>
      </trkpt>
      <trkpt lat="43.12157" lon="-1.46754">
        <ele>387</ele>
        <time>2021-06-18T14:12:41Z</time>
      </trkpt>
      <trkpt lat="43.12182" lon="-1.46714">
        <ele>390</ele>
        <time>2021-06-18T14:12:50Z</time>
      </trkpt>
      <trkpt lat="43.12191" lon="-1.4671">
        <ele>391</ele>
        <time>2021-06-18T14:12:53Z</time>
      </trkpt>
      <trkpt lat="43.12203" lon="-1.46694">
        <ele>392</ele>
        <time>2021-06-18T14:12:57Z</time>
      </trkpt>
      <trkpt lat="43.12207" lon="-1.46684">
        <ele>393</ele>
        <time>2021-06-18T14:12:58Z</time>
      </trkpt>
      <trkpt lat="43.12208" lon="-1.46667">
        <ele>394</ele>
        <time>2021-06-18T14:13:01Z</time>
      </trkpt>
      <trkpt lat="43.12206" lon="-1.46653">
        <ele>395</ele>
        <time>2021-06-18T14:13:04Z</time>
      </trkpt>
      <trkpt lat="43.12189" lon="-1.46616">
        <ele>397</ele>
        <time>2021-06-18T14:13:11Z</time>
      </trkpt>
      <trkpt lat="43.12183" lon="-1.46596">
        <ele>398</ele>
        <time>2021-06-18T14:13:15Z</time>
      </trkpt>
      <trkpt lat="43.12184" lon="-1.46579">
        <ele>399</ele>
        <time>2021-06-18T14:13:18Z</time>
      </trkpt>
      <trkpt lat="43.12193" lon="-1.46558">
        <ele>403</ele>
        <time>2021-06-18T14:13:22Z</time>
      </trkpt>
      <trkpt lat="43.12213" lon="-1.46475">
        <ele>412</ele>
        <time>2021-06-18T14:13:37Z</time>
      </trkpt>
      <trkpt lat="43.1222" lon="-1.46453">
        <ele>413</ele>
        <time>2021-06-18T14:13:41Z</time>
      </trkpt>
      <trkpt lat="43.12231" lon="-1.46436">
        <ele>413</ele>
        <time>2021-06-18T14:13:45Z</time>
      </trkpt>
      <trkpt lat="43.12277" lon="-1.464">
        <ele>422</ele>
        <time>2021-06-18T14:13:57Z</time>
      </trkpt>
      <trkpt lat="43.1229" lon="-1.46386">
        <ele>425</ele>
        <time>2021-06-18T14:14:01Z</time>
      </trkpt>
      <trkpt lat="43.12339" lon="-1.46306">
        <ele>429</ele>
        <time>2021-06-18T14:14:19Z</time>
      </trkpt>
      <trkpt lat="43.12339" lon="-1.4623">
        <ele>420</ele>
        <time>2021-06-18T14:14:32Z</time>
      </trkpt>
      <trkpt lat="43.12336" lon="-1.46203">
        <ele>418</ele>
        <time>2021-06-18T14:14:37Z</time>
      </trkpt>
      <trkpt lat="43.12329" lon="-1.46187">
        <ele>416</ele>
        <time>2021-06-18T14:14:40Z</time>
      </trkpt>
      <trkpt lat="43.12302" lon="-1.46184">
        <ele>412</ele>
        <time>2021-06-18T14:14:46Z</time>
      </trkpt>
      <trkpt lat="43.12292" lon="-1.46176">
        <ele>411</ele>
        <time>2021-06-18T14:14:49Z</time>
      </trkpt>
      <trkpt lat="43.12286" lon="-1.46166">
        <ele>410</ele>
        <time>2021-06-18T14:14:51Z</time>
      </trkpt>
      <trkpt lat="43.1228" lon="-1.46137">
        <ele>411</ele>
        <time>2021-06-18T14:14:56Z</time>
      </trkpt>
      <trkpt lat="43.12286" lon="-1.461">
        <ele>413</ele>
        <time>2021-06-18T14:15:03Z</time>
      </trkpt>
      <trkpt lat="43.12282" lon="-1.46071">
        <ele>415</ele>
        <time>2021-06-18T14:15:08Z</time>
      </trkpt>
      <trkpt lat="43.12278" lon="-1.46057">
        <ele>417</ele>
        <time>2021-06-18T14:15:10Z</time>
      </trkpt>
      <trkpt lat="43.12259" lon="-1.46025">
        <ele>418</ele>
        <time>2021-06-18T14:15:17Z</time>
      </trkpt>
      <trkpt lat="43.12248" lon="-1.45998">
        <ele>420</ele>
        <time>2021-06-18T14:15:22Z</time>
      </trkpt>
      <trkpt lat="43.12246" lon="-1.45987">
        <ele>422</ele>
        <time>2021-06-18T14:15:24Z</time>
      </trkpt>
      <trkpt lat="43.12248" lon="-1.45955">
        <ele>429</ele>
        <time>2021-06-18T14:15:30Z</time>
      </trkpt>
      <trkpt lat="43.12246" lon="-1.4595">
        <ele>431</ele>
        <time>2021-06-18T14:15:31Z</time>
      </trkpt>
      <trkpt lat="43.12241" lon="-1.4595">
        <ele>432</ele>
        <time>2021-06-18T14:15:32Z</time>
      </trkpt>
      <trkpt lat="43.12224" lon="-1.45963">
        <ele>432</ele>
        <time>2021-06-18T14:15:37Z</time>
      </trkpt>
      <trkpt lat="43.12137" lon="-1.45985">
        <ele>437</ele>
        <time>2021-06-18T14:15:57Z</time>
      </trkpt>
      <trkpt lat="43.12077" lon="-1.45982">
        <ele>442</ele>
        <time>2021-06-18T14:16:11Z</time>
      </trkpt>
      <trkpt lat="43.12035" lon="-1.45965">
        <ele>447</ele>
        <time>2021-06-18T14:16:21Z</time>
      </trkpt>
      <trkpt lat="43.12032" lon="-1.45962">
        <ele>448</ele>
        <time>2021-06-18T14:16:22Z</time>
      </trkpt>
      <trkpt lat="43.12031" lon="-1.45956">
        <ele>450</ele>
        <time>2021-06-18T14:16:23Z</time>
      </trkpt>
      <trkpt lat="43.12033" lon="-1.45951">
        <ele>451</ele>
        <time>2021-06-18T14:16:24Z</time>
      </trkpt>
      <trkpt lat="43.1205" lon="-1.45954">
        <ele>451</ele>
        <time>2021-06-18T14:16:28Z</time>
      </trkpt>
      <trkpt lat="43.12073" lon="-1.4595">
        <ele>453</ele>
        <time>2021-06-18T14:16:34Z</time>
      </trkpt>
      <trkpt lat="43.12101" lon="-1.45931">
        <ele>458</ele>
        <time>2021-06-18T14:16:41Z</time>
      </trkpt>
      <trkpt lat="43.12119" lon="-1.45914">
        <ele>462</ele>
        <time>2021-06-18T14:16:46Z</time>
      </trkpt>
      <trkpt lat="43.12122" lon="-1.45908">
        <ele>464</ele>
        <time>2021-06-18T14:16:47Z</time>
      </trkpt>
      <trkpt lat="43.12122" lon="-1.45901">
        <ele>466</ele>
        <time>2021-06-18T14:16:49Z</time>
      </trkpt>
      <trkpt lat="43.12118" lon="-1.45899">
        <ele>467</ele>
        <time>2021-06-18T14:16:50Z</time>
      </trkpt>
      <trkpt lat="43.12109" lon="-1.45903">
        <ele>467</ele>
        <time>2021-06-18T14:16:52Z</time>
      </trkpt>
      <trkpt lat="43.12101" lon="-1.45903">
        <ele>467</ele>
        <time>2021-06-18T14:16:54Z</time>
      </trkpt>
      <trkpt lat="43.12062" lon="-1.45889">
        <ele>471</ele>
        <time>2021-06-18T14:17:03Z</time>
      </trkpt>
      <trkpt lat="43.12053" lon="-1.45883">
        <ele>472</ele>
        <time>2021-06-18T14:17:05Z</time>
      </trkpt>
      <trkpt lat="43.12047" lon="-1.45876">
        <ele>473</ele>
        <time>2021-06-18T14:17:07Z</time>
      </trkpt>
      <trkpt lat="43.12034" lon="-1.45843">
        <ele>479</ele>
        <time>2021-06-18T14:17:14Z</time>
      </trkpt>
      <trkpt lat="43.12024" lon="-1.45828">
        <ele>481</ele>
        <time>2021-06-18T14:17:17Z</time>
      </trkpt>
      <trkpt lat="43.12009" lon="-1.45814">
        <ele>483</ele>
        <time>2021-06-18T14:17:21Z</time>
      </trkpt>
      <trkpt lat="43.11998" lon="-1.45799">
        <ele>487</ele>
        <time>2021-06-18T14:17:25Z</time>
      </trkpt>
      <trkpt lat="43.11977" lon="-1.45787">
        <ele>487</ele>
        <time>2021-06-18T14:17:30Z</time>
      </trkpt>
      <trkpt lat="43.11891" lon="-1.45763">
        <ele>481</ele>
        <time>2021-06-18T14:17:51Z</time>
      </trkpt>
      <trkpt lat="43.11874" lon="-1.45762">
        <ele>479</ele>
        <time>2021-06-18T14:17:55Z</time>
      </trkpt>
      <trkpt lat="43.11863" lon="-1.45752">
        <ele>480</ele>
        <time>2021-06-18T14:17:58Z</time>
      </trkpt>
      <trkpt lat="43.11849" lon="-1.45746">
        <ele>481</ele>
        <time>2021-06-18T14:18:01Z</time>
      </trkpt>
      <trkpt lat="43.11831" lon="-1.45746">
        <ele>479</ele>
        <time>2021-06-18T14:18:05Z</time>
      </trkpt>
      <trkpt lat="43.11814" lon="-1.45739">
        <ele>478</ele>
        <time>2021-06-18T14:18:10Z</time>
      </trkpt>
      <trkpt lat="43.11748" lon="-1.45698">
        <ele>477</ele>
        <time>2021-06-18T14:18:27Z</time>
      </trkpt>
      <trkpt lat="43.11727" lon="-1.4568">
        <ele>476</ele>
        <time>2021-06-18T14:18:32Z</time>
      </trkpt>
      <trkpt lat="43.11703" lon="-1.4565">
        <ele>477</ele>
        <time>2021-06-18T14:18:40Z</time>
      </trkpt>
      <trkpt lat="43.1169" lon="-1.45624">
        <ele>478</ele>
        <time>2021-06-18T14:18:45Z</time>
      </trkpt>
      <trkpt lat="43.11684" lon="-1.45597">
        <ele>481</ele>
        <time>2021-06-18T14:18:50Z</time>
      </trkpt>
      <trkpt lat="43.11682" lon="-1.45523">
        <ele>488</ele>
        <time>2021-06-18T14:19:03Z</time>
      </trkpt>
      <trkpt lat="43.11677" lon="-1.45476">
        <ele>491</ele>
        <time>2021-06-18T14:19:11Z</time>
      </trkpt>
      <trkpt lat="43.11682" lon="-1.45381">
        <ele>505</ele>
        <time>2021-06-18T14:19:27Z</time>
      </trkpt>
      <trkpt lat="43.11689" lon="-1.45342">
        <ele>512</ele>
        <time>2021-06-18T14:19:34Z</time>
      </trkpt>
      <trkpt lat="43.11713" lon="-1.45295">
        <ele>524</ele>
        <time>2021-06-18T14:19:44Z</time>
      </trkpt>
      <trkpt lat="43.11724" lon="-1.45265">
        <ele>529</ele>
        <time>2021-06-18T14:19:49Z</time>
      </trkpt>
      <trkpt lat="43.11724" lon="-1.45242">
        <ele>529</ele>
        <time>2021-06-18T14:19:53Z</time>
      </trkpt>
      <trkpt lat="43.11716" lon="-1.45206">
        <ele>528</ele>
        <time>2021-06-18T14:20:00Z</time>
      </trkpt>
      <trkpt lat="43.11716" lon="-1.45192">
        <ele>528</ele>
        <time>2021-06-18T14:20:02Z</time>
      </trkpt>
      <trkpt lat="43.11723" lon="-1.45166">
        <ele>532</ele>
        <time>2021-06-18T14:20:07Z</time>
      </trkpt>
      <trkpt lat="43.11745" lon="-1.45117">
        <ele>539</ele>
        <time>2021-06-18T14:20:17Z</time>
      </trkpt>
      <trkpt lat="43.11746" lon="-1.45072">
        <ele>541</ele>
        <time>2021-06-18T14:20:24Z</time>
      </trkpt>
      <trkpt lat="43.1173" lon="-1.45013">
        <ele>545</ele>
        <time>2021-06-18T14:20:35Z</time>
      </trkpt>
      <trkpt lat="43.11726" lon="-1.44987">
        <ele>547</ele>
        <time>2021-06-18T14:20:40Z</time>
      </trkpt>
      <trkpt lat="43.11732" lon="-1.44902">
        <ele>553</ele>
        <time>2021-06-18T14:20:54Z</time>
      </trkpt>
      <trkpt lat="43.11745" lon="-1.44821">
        <ele>553</ele>
        <time>2021-06-18T14:21:08Z</time>
      </trkpt>
      <trkpt lat="43.11753" lon="-1.44544">
        <ele>566</ele>
        <time>2021-06-18T14:21:56Z</time>
      </trkpt>
      <trkpt lat="43.11739" lon="-1.4448">
        <ele>571</ele>
        <time>2021-06-18T14:22:07Z</time>
      </trkpt>
      <trkpt lat="43.11744" lon="-1.44439">
        <ele>571</ele>
        <time>2021-06-18T14:22:14Z</time>
      </trkpt>
      <trkpt lat="43.11774" lon="-1.44412">
        <ele>576</ele>
        <time>2021-06-18T14:22:22Z</time>
      </trkpt>
      <trkpt lat="43.11797" lon="-1.44417">
        <ele>582</ele>
        <time>2021-06-18T14:22:28Z</time>
      </trkpt>
      <trkpt lat="43.11823" lon="-1.44402">
        <ele>588</ele>
        <time>2021-06-18T14:22:34Z</time>
      </trkpt>
      <trkpt lat="43.11863" lon="-1.44337">
        <ele>596</ele>
        <time>2021-06-18T14:22:49Z</time>
      </trkpt>
      <trkpt lat="43.11865" lon="-1.44329">
        <ele>596</ele>
        <time>2021-06-18T14:22:50Z</time>
      </trkpt>
      <trkpt lat="43.11859" lon="-1.44324">
        <ele>594</ele>
        <time>2021-06-18T14:22:52Z</time>
      </trkpt>
      <trkpt lat="43.11849" lon="-1.44326">
        <ele>591</ele>
        <time>2021-06-18T14:22:54Z</time>
      </trkpt>
      <trkpt lat="43.11837" lon="-1.44337">
        <ele>587</ele>
        <time>2021-06-18T14:22:58Z</time>
      </trkpt>
      <trkpt lat="43.11821" lon="-1.44343">
        <ele>585</ele>
        <time>2021-06-18T14:23:02Z</time>
      </trkpt>
      <trkpt lat="43.11813" lon="-1.44343">
        <ele>585</ele>
        <time>2021-06-18T14:23:03Z</time>
      </trkpt>
      <trkpt lat="43.11809" lon="-1.4434">
        <ele>584</ele>
        <time>2021-06-18T14:23:05Z</time>
      </trkpt>
      <trkpt lat="43.1181" lon="-1.44335">
        <ele>584</ele>
        <time>2021-06-18T14:23:05Z</time>
      </trkpt>
      <trkpt lat="43.11825" lon="-1.44324">
        <ele>587</ele>
        <time>2021-06-18T14:23:09Z</time>
      </trkpt>
      <trkpt lat="43.11815" lon="-1.44314">
        <ele>587</ele>
        <time>2021-06-18T14:23:12Z</time>
      </trkpt>
      <trkpt lat="43.11766" lon="-1.4425">
        <ele>592</ele>
        <time>2021-06-18T14:23:28Z</time>
      </trkpt>
      <trkpt lat="43.11754" lon="-1.44228">
        <ele>595</ele>
        <time>2021-06-18T14:23:33Z</time>
      </trkpt>
      <trkpt lat="43.11731" lon="-1.44154">
        <ele>610</ele>
        <time>2021-06-18T14:23:46Z</time>
      </trkpt>
      <trkpt lat="43.1173" lon="-1.44143">
        <ele>612</ele>
        <time>2021-06-18T14:23:48Z</time>
      </trkpt>
      <trkpt lat="43.11736" lon="-1.44136">
        <ele>613</ele>
        <time>2021-06-18T14:23:50Z</time>
      </trkpt>
      <trkpt lat="43.11773" lon="-1.44131">
        <ele>617</ele>
        <time>2021-06-18T14:23:59Z</time>
      </trkpt>
      <trkpt lat="43.11818" lon="-1.44095">
        <ele>630</ele>
        <time>2021-06-18T14:24:11Z</time>
      </trkpt>
      <trkpt lat="43.1186" lon="-1.44087">
        <ele>633</ele>
        <time>2021-06-18T14:24:21Z</time>
      </trkpt>
      <trkpt lat="43.11869" lon="-1.44077">
        <ele>636</ele>
        <time>2021-06-18T14:24:24Z</time>
      </trkpt>
      <trkpt lat="43.11885" lon="-1.44051">
        <ele>643</ele>
        <time>2021-06-18T14:24:29Z</time>
      </trkpt>
      <trkpt lat="43.11891" lon="-1.44053">
        <ele>643</ele>
        <time>2021-06-18T14:24:31Z</time>
      </trkpt>
      <trkpt lat="43.11897" lon="-1.44061">
        <ele>641</ele>
        <time>2021-06-18T14:24:33Z</time>
      </trkpt>
      <trkpt lat="43.11901" lon="-1.44058">
        <ele>642</ele>
        <time>2021-06-18T14:24:34Z</time>
      </trkpt>
      <trkpt lat="43.11901" lon="-1.44045">
        <ele>646</ele>
        <time>2021-06-18T14:24:36Z</time>
      </trkpt>
      <trkpt lat="43.11898" lon="-1.44041">
        <ele>647</ele>
        <time>2021-06-18T14:24:37Z</time>
      </trkpt>
      <trkpt lat="43.11887" lon="-1.4404">
        <ele>646</ele>
        <time>2021-06-18T14:24:40Z</time>
      </trkpt>
      <trkpt lat="43.11866" lon="-1.44046">
        <ele>644</ele>
        <time>2021-06-18T14:24:45Z</time>
      </trkpt>
      <trkpt lat="43.11769" lon="-1.43999">
        <ele>644</ele>
        <time>2021-06-18T14:25:09Z</time>
      </trkpt>
      <trkpt lat="43.11752" lon="-1.43972">
        <ele>647</ele>
        <time>2021-06-18T14:25:15Z</time>
      </trkpt>
      <trkpt lat="43.1175" lon="-1.4395">
        <ele>652</ele>
        <time>2021-06-18T14:25:19Z</time>
      </trkpt>
      <trkpt lat="43.11736" lon="-1.43934">
        <ele>657</ele>
        <time>2021-06-18T14:25:23Z</time>
      </trkpt>
      <trkpt lat="43.11726" lon="-1.43917">
        <ele>662</ele>
        <time>2021-06-18T14:25:27Z</time>
      </trkpt>
      <trkpt lat="43.11714" lon="-1.43869">
        <ele>676</ele>
        <time>2021-06-18T14:25:35Z</time>
      </trkpt>
      <trkpt lat="43.11707" lon="-1.43864">
        <ele>678</ele>
        <time>2021-06-18T14:25:37Z</time>
      </trkpt>
      <trkpt lat="43.11693" lon="-1.43875">
        <ele>676</ele>
        <time>2021-06-18T14:25:41Z</time>
      </trkpt>
      <trkpt lat="43.11678" lon="-1.43909">
        <ele>669</ele>
        <time>2021-06-18T14:25:48Z</time>
      </trkpt>
      <trkpt lat="43.11658" lon="-1.4394">
        <ele>664</ele>
        <time>2021-06-18T14:25:55Z</time>
      </trkpt>
      <trkpt lat="43.11633" lon="-1.43961">
        <ele>662</ele>
        <time>2021-06-18T14:26:02Z</time>
      </trkpt>
      <trkpt lat="43.1159" lon="-1.43961">
        <ele>669</ele>
        <time>2021-06-18T14:26:12Z</time>
      </trkpt>
      <trkpt lat="43.11469" lon="-1.43947">
        <ele>673</ele>
        <time>2021-06-18T14:26:40Z</time>
      </trkpt>
      <trkpt lat="43.11424" lon="-1.43929">
        <ele>676</ele>
        <time>2021-06-18T14:26:51Z</time>
      </trkpt>
      <trkpt lat="43.11388" lon="-1.43911">
        <ele>681</ele>
        <time>2021-06-18T14:27:00Z</time>
      </trkpt>
      <trkpt lat="43.11345" lon="-1.439">
        <ele>685</ele>
        <time>2021-06-18T14:27:10Z</time>
      </trkpt>
      <trkpt lat="43.1132" lon="-1.43901">
        <ele>685</ele>
        <time>2021-06-18T14:27:16Z</time>
      </trkpt>
      <trkpt lat="43.11282" lon="-1.43909">
        <ele>685</ele>
        <time>2021-06-18T14:27:25Z</time>
      </trkpt>
      <trkpt lat="43.1127" lon="-1.43908">
        <ele>685</ele>
        <time>2021-06-18T14:27:28Z</time>
      </trkpt>
      <trkpt lat="43.11233" lon="-1.43885">
        <ele>686</ele>
        <time>2021-06-18T14:27:37Z</time>
      </trkpt>
      <trkpt lat="43.11215" lon="-1.43879">
        <ele>684</ele>
        <time>2021-06-18T14:27:41Z</time>
      </trkpt>
      <trkpt lat="43.11208" lon="-1.43912">
        <ele>682</ele>
        <time>2021-06-18T14:27:47Z</time>
      </trkpt>
      <trkpt lat="43.11199" lon="-1.43915">
        <ele>681</ele>
        <time>2021-06-18T14:27:49Z</time>
      </trkpt>
      <trkpt lat="43.11178" lon="-1.43929">
        <ele>681</ele>
        <time>2021-06-18T14:27:55Z</time>
      </trkpt>
      <trkpt lat="43.11112" lon="-1.4398">
        <ele>682</ele>
        <time>2021-06-18T14:28:13Z</time>
      </trkpt>
      <trkpt lat="43.11096" lon="-1.43997">
        <ele>683</ele>
        <time>2021-06-18T14:28:17Z</time>
      </trkpt>
      <trkpt lat="43.1108" lon="-1.44023">
        <ele>689</ele>
        <time>2021-06-18T14:28:23Z</time>
      </trkpt>
      <trkpt lat="43.11032" lon="-1.44082">
        <ele>711</ele>
        <time>2021-06-18T14:28:38Z</time>
      </trkpt>
      <trkpt lat="43.11017" lon="-1.44054">
        <ele>706</ele>
        <time>2021-06-18T14:28:44Z</time>
      </trkpt>
      <trkpt lat="43.10997" lon="-1.44007">
        <ele>696</ele>
        <time>2021-06-18T14:28:53Z</time>
      </trkpt>
      <trkpt lat="43.10975" lon="-1.43935">
        <ele>688</ele>
        <time>2021-06-18T14:29:07Z</time>
      </trkpt>
      <trkpt lat="43.10965" lon="-1.43918">
        <ele>688</ele>
        <time>2021-06-18T14:29:10Z</time>
      </trkpt>
      <trkpt lat="43.10963" lon="-1.4389">
        <ele>683</ele>
        <time>2021-06-18T14:29:15Z</time>
      </trkpt>
      <trkpt lat="43.10922" lon="-1.43839">
        <ele>686</ele>
        <time>2021-06-18T14:29:28Z</time>
      </trkpt>
      <trkpt lat="43.10899" lon="-1.43806">
        <ele>684</ele>
        <time>2021-06-18T14:29:36Z</time>
      </trkpt>
      <trkpt lat="43.10884" lon="-1.43799">
        <ele>687</ele>
        <time>2021-06-18T14:29:40Z</time>
      </trkpt>
      <trkpt lat="43.10872" lon="-1.43785">
        <ele>687</ele>
        <time>2021-06-18T14:29:43Z</time>
      </trkpt>
      <trkpt lat="43.10858" lon="-1.43761">
        <ele>682</ele>
        <time>2021-06-18T14:29:49Z</time>
      </trkpt>
      <trkpt lat="43.10847" lon="-1.43731">
        <ele>675</ele>
        <time>2021-06-18T14:29:54Z</time>
      </trkpt>
      <trkpt lat="43.10807" lon="-1.43593">
        <ele>643</ele>
        <time>2021-06-18T14:30:20Z</time>
      </trkpt>
      <trkpt lat="43.108" lon="-1.43576">
        <ele>640</ele>
        <time>2021-06-18T14:30:23Z</time>
      </trkpt>
      <trkpt lat="43.10791" lon="-1.43566">
        <ele>640</ele>
        <time>2021-06-18T14:30:26Z</time>
      </trkpt>
      <trkpt lat="43.10783" lon="-1.43563">
        <ele>641</ele>
        <time>2021-06-18T14:30:28Z</time>
      </trkpt>
      <trkpt lat="43.10778" lon="-1.43564">
        <ele>642</ele>
        <time>2021-06-18T14:30:29Z</time>
      </trkpt>
      <trkpt lat="43.10745" lon="-1.43585">
        <ele>656</ele>
        <time>2021-06-18T14:30:37Z</time>
      </trkpt>
      <trkpt lat="43.10742" lon="-1.43548">
        <ele>648</ele>
        <time>2021-06-18T14:30:44Z</time>
      </trkpt>
      <trkpt lat="43.10735" lon="-1.43521">
        <ele>644</ele>
        <time>2021-06-18T14:30:48Z</time>
      </trkpt>
      <trkpt lat="43.10715" lon="-1.43473">
        <ele>637</ele>
        <time>2021-06-18T14:30:58Z</time>
      </trkpt>
      <trkpt lat="43.10707" lon="-1.43462">
        <ele>636</ele>
        <time>2021-06-18T14:31:01Z</time>
      </trkpt>
      <trkpt lat="43.10669" lon="-1.43441">
        <ele>641</ele>
        <time>2021-06-18T14:31:10Z</time>
      </trkpt>
      <trkpt lat="43.10655" lon="-1.43428">
        <ele>637</ele>
        <time>2021-06-18T14:31:14Z</time>
      </trkpt>
      <trkpt lat="43.10616" lon="-1.43376">
        <ele>620</ele>
        <time>2021-06-18T14:31:27Z</time>
      </trkpt>
      <trkpt lat="43.10598" lon="-1.43359">
        <ele>615</ele>
        <time>2021-06-18T14:31:32Z</time>
      </trkpt>
      <trkpt lat="43.10599" lon="-1.43341">
        <ele>611</ele>
        <time>2021-06-18T14:31:35Z</time>
      </trkpt>
      <trkpt lat="43.10587" lon="-1.43289">
        <ele>603</ele>
        <time>2021-06-18T14:31:44Z</time>
      </trkpt>
      <trkpt lat="43.10584" lon="-1.43286">
        <ele>603</ele>
        <time>2021-06-18T14:31:45Z</time>
      </trkpt>
      <trkpt lat="43.1058" lon="-1.43288">
        <ele>602</ele>
        <time>2021-06-18T14:31:46Z</time>
      </trkpt>
      <trkpt lat="43.1055" lon="-1.43334">
        <ele>595</ele>
        <time>2021-06-18T14:31:57Z</time>
      </trkpt>
      <trkpt lat="43.10544" lon="-1.43347">
        <ele>595</ele>
        <time>2021-06-18T14:31:59Z</time>
      </trkpt>
      <trkpt lat="43.10538" lon="-1.43343">
        <ele>592</ele>
        <time>2021-06-18T14:32:01Z</time>
      </trkpt>
      <trkpt lat="43.10541" lon="-1.43329">
        <ele>591</ele>
        <time>2021-06-18T14:32:03Z</time>
      </trkpt>
      <trkpt lat="43.10537" lon="-1.4327">
        <ele>583</ele>
        <time>2021-06-18T14:32:13Z</time>
      </trkpt>
      <trkpt lat="43.10533" lon="-1.43267">
        <ele>581</ele>
        <time>2021-06-18T14:32:14Z</time>
      </trkpt>
      <trkpt lat="43.10527" lon="-1.43269">
        <ele>579</ele>
        <time>2021-06-18T14:32:16Z</time>
      </trkpt>
      <trkpt lat="43.10496" lon="-1.43303">
        <ele>570</ele>
        <time>2021-06-18T14:32:25Z</time>
      </trkpt>
      <trkpt lat="43.10489" lon="-1.43318">
        <ele>569</ele>
        <time>2021-06-18T14:32:28Z</time>
      </trkpt>
      <trkpt lat="43.10478" lon="-1.43376">
        <ele>576</ele>
        <time>2021-06-18T14:32:38Z</time>
      </trkpt>
      <trkpt lat="43.10475" lon="-1.43381">
        <ele>576</ele>
        <time>2021-06-18T14:32:40Z</time>
      </trkpt>
      <trkpt lat="43.10467" lon="-1.43384">
        <ele>574</ele>
        <time>2021-06-18T14:32:42Z</time>
      </trkpt>
      <trkpt lat="43.10405" lon="-1.43384">
        <ele>556</ele>
        <time>2021-06-18T14:32:56Z</time>
      </trkpt>
      <trkpt lat="43.10369" lon="-1.43367">
        <ele>545</ele>
        <time>2021-06-18T14:33:05Z</time>
      </trkpt>
      <trkpt lat="43.10356" lon="-1.43366">
        <ele>542</ele>
        <time>2021-06-18T14:33:08Z</time>
      </trkpt>
      <trkpt lat="43.10341" lon="-1.43361">
        <ele>538</ele>
        <time>2021-06-18T14:33:12Z</time>
      </trkpt>
      <trkpt lat="43.10311" lon="-1.43345">
        <ele>530</ele>
        <time>2021-06-18T14:33:19Z</time>
      </trkpt>
      <trkpt lat="43.10305" lon="-1.43353">
        <ele>528</ele>
        <time>2021-06-18T14:33:21Z</time>
      </trkpt>
      <trkpt lat="43.10299" lon="-1.43433">
        <ele>525</ele>
        <time>2021-06-18T14:33:35Z</time>
      </trkpt>
      <trkpt lat="43.10299" lon="-1.43468">
        <ele>522</ele>
        <time>2021-06-18T14:33:41Z</time>
      </trkpt>
      <trkpt lat="43.10296" lon="-1.43479">
        <ele>520</ele>
        <time>2021-06-18T14:33:43Z</time>
      </trkpt>
      <trkpt lat="43.10293" lon="-1.43481">
        <ele>518</ele>
        <time>2021-06-18T14:33:43Z</time>
      </trkpt>
      <trkpt lat="43.1029" lon="-1.43479">
        <ele>517</ele>
        <time>2021-06-18T14:33:44Z</time>
      </trkpt>
      <trkpt lat="43.1027" lon="-1.43423">
        <ele>512</ele>
        <time>2021-06-18T14:33:55Z</time>
      </trkpt>
      <trkpt lat="43.10259" lon="-1.43405">
        <ele>509</ele>
        <time>2021-06-18T14:33:59Z</time>
      </trkpt>
      <trkpt lat="43.10222" lon="-1.43363">
        <ele>497</ele>
        <time>2021-06-18T14:34:10Z</time>
      </trkpt>
      <trkpt lat="43.10187" lon="-1.43347">
        <ele>483</ele>
        <time>2021-06-18T14:34:19Z</time>
      </trkpt>
      <trkpt lat="43.10157" lon="-1.43321">
        <ele>473</ele>
        <time>2021-06-18T14:34:27Z</time>
      </trkpt>
      <trkpt lat="43.10136" lon="-1.43298">
        <ele>466</ele>
        <time>2021-06-18T14:34:33Z</time>
      </trkpt>
      <trkpt lat="43.101" lon="-1.43222">
        <ele>454</ele>
        <time>2021-06-18T14:34:49Z</time>
      </trkpt>
      <trkpt lat="43.10089" lon="-1.43208">
        <ele>449</ele>
        <time>2021-06-18T14:34:52Z</time>
      </trkpt>
      <trkpt lat="43.10057" lon="-1.43183">
        <ele>440</ele>
        <time>2021-06-18T14:35:01Z</time>
      </trkpt>
      <trkpt lat="43.10009" lon="-1.43094">
        <ele>416</ele>
        <time>2021-06-18T14:35:20Z</time>
      </trkpt>
      <trkpt lat="43.09992" lon="-1.43083">
        <ele>410</ele>
        <time>2021-06-18T14:35:24Z</time>
      </trkpt>
      <trkpt lat="43.09973" lon="-1.43049">
        <ele>397</ele>
        <time>2021-06-18T14:35:31Z</time>
      </trkpt>
      <trkpt lat="43.09955" lon="-1.43033">
        <ele>390</ele>
        <time>2021-06-18T14:35:36Z</time>
      </trkpt>
      <trkpt lat="43.09938" lon="-1.43028">
        <ele>387</ele>
        <time>2021-06-18T14:35:40Z</time>
      </trkpt>
      <trkpt lat="43.09915" lon="-1.42995">
        <ele>381</ele>
        <time>2021-06-18T14:35:48Z</time>
      </trkpt>
      <trkpt lat="43.0991" lon="-1.42994">
        <ele>382</ele>
        <time>2021-06-18T14:35:49Z</time>
      </trkpt>
      <trkpt lat="43.09882" lon="-1.43003">
        <ele>385</ele>
        <time>2021-06-18T14:35:56Z</time>
      </trkpt>
      <trkpt lat="43.0987" lon="-1.43002">
        <ele>386</ele>
        <time>2021-06-18T14:35:59Z</time>
      </trkpt>
      <trkpt lat="43.09864" lon="-1.42998">
        <ele>385</ele>
        <time>2021-06-18T14:36:01Z</time>
      </trkpt>
      <trkpt lat="43.09859" lon="-1.42968">
        <ele>381</ele>
        <time>2021-06-18T14:36:06Z</time>
      </trkpt>
      <trkpt lat="43.0984" lon="-1.42908">
        <ele>374</ele>
        <time>2021-06-18T14:36:17Z</time>
      </trkpt>
      <trkpt lat="43.09854" lon="-1.42856">
        <ele>371</ele>
        <time>2021-06-18T14:36:26Z</time>
      </trkpt>
      <trkpt lat="43.09855" lon="-1.4277">
        <ele>373</ele>
        <time>2021-06-18T14:36:41Z</time>
      </trkpt>
      <trkpt lat="43.0986" lon="-1.42746">
        <ele>376</ele>
        <time>2021-06-18T14:36:45Z</time>
      </trkpt>
      <trkpt lat="43.09845" lon="-1.42728">
        <ele>376</ele>
        <time>2021-06-18T14:36:50Z</time>
      </trkpt>
      <trkpt lat="43.09822" lon="-1.42688">
        <ele>379</ele>
        <time>2021-06-18T14:36:59Z</time>
      </trkpt>
      <trkpt lat="43.09799" lon="-1.42673">
        <ele>379</ele>
        <time>2021-06-18T14:37:05Z</time>
      </trkpt>
      <trkpt lat="43.09761" lon="-1.42653">
        <ele>380</ele>
        <time>2021-06-18T14:37:14Z</time>
      </trkpt>
      <trkpt lat="43.0971" lon="-1.42634">
        <ele>380</ele>
        <time>2021-06-18T14:37:26Z</time>
      </trkpt>
      <trkpt lat="43.09676" lon="-1.42616">
        <ele>379</ele>
        <time>2021-06-18T14:37:35Z</time>
      </trkpt>
      <trkpt lat="43.09578" lon="-1.42576">
        <ele>379</ele>
        <time>2021-06-18T14:37:59Z</time>
      </trkpt>
      <trkpt lat="43.09547" lon="-1.42561">
        <ele>381</ele>
        <time>2021-06-18T14:38:06Z</time>
      </trkpt>
      <trkpt lat="43.09485" lon="-1.42521">
        <ele>382</ele>
        <time>2021-06-18T14:38:22Z</time>
      </trkpt>
      <trkpt lat="43.09467" lon="-1.42512">
        <ele>383</ele>
        <time>2021-06-18T14:38:27Z</time>
      </trkpt>
      <trkpt lat="43.09377" lon="-1.42482">
        <ele>388</ele>
        <time>2021-06-18T14:38:49Z</time>
      </trkpt>
      <trkpt lat="43.09347" lon="-1.42479">
        <ele>389</ele>
        <time>2021-06-18T14:38:56Z</time>
      </trkpt>
      <trkpt lat="43.09328" lon="-1.42483">
        <ele>388</ele>
        <time>2021-06-18T14:39:00Z</time>
      </trkpt>
      <trkpt lat="43.09278" lon="-1.42501">
        <ele>383</ele>
        <time>2021-06-18T14:39:12Z</time>
      </trkpt>
      <trkpt lat="43.09262" lon="-1.42502">
        <ele>383</ele>
        <time>2021-06-18T14:39:16Z</time>
      </trkpt>
      <trkpt lat="43.09254" lon="-1.42501">
        <ele>383</ele>
        <time>2021-06-18T14:39:18Z</time>
      </trkpt>
      <trkpt lat="43.09213" lon="-1.42483">
        <ele>385</ele>
        <time>2021-06-18T14:39:28Z</time>
      </trkpt>
      <trkpt lat="43.09045" lon="-1.42465">
        <ele>385</ele>
        <time>2021-06-18T14:40:07Z</time>
      </trkpt>
      <trkpt lat="43.08984" lon="-1.42443">
        <ele>387</ele>
        <time>2021-06-18T14:40:22Z</time>
      </trkpt>
      <trkpt lat="43.08968" lon="-1.4244">
        <ele>387</ele>
        <time>2021-06-18T14:40:26Z</time>
      </trkpt>
      <trkpt lat="43.08945" lon="-1.4244">
        <ele>386</ele>
        <time>2021-06-18T14:40:31Z</time>
      </trkpt>
      <trkpt lat="43.08927" lon="-1.42444">
        <ele>386</ele>
        <time>2021-06-18T14:40:35Z</time>
      </trkpt>
      <trkpt lat="43.089" lon="-1.42442">
        <ele>385</ele>
        <time>2021-06-18T14:40:42Z</time>
      </trkpt>
      <trkpt lat="43.08672" lon="-1.42382">
        <ele>389</ele>
        <time>2021-06-18T14:41:36Z</time>
      </trkpt>
      <trkpt lat="43.08575" lon="-1.42366">
        <ele>395</ele>
        <time>2021-06-18T14:41:59Z</time>
      </trkpt>
      <trkpt lat="43.08516" lon="-1.42365">
        <ele>395</ele>
        <time>2021-06-18T14:42:12Z</time>
      </trkpt>
      <trkpt lat="43.08418" lon="-1.4234">
        <ele>389</ele>
        <time>2021-06-18T14:42:36Z</time>
      </trkpt>
      <trkpt lat="43.08378" lon="-1.42313">
        <ele>390</ele>
        <time>2021-06-18T14:42:46Z</time>
      </trkpt>
      <trkpt lat="43.08357" lon="-1.42306">
        <ele>390</ele>
        <time>2021-06-18T14:42:51Z</time>
      </trkpt>
      <trkpt lat="43.08284" lon="-1.42303">
        <ele>388</ele>
        <time>2021-06-18T14:43:08Z</time>
      </trkpt>
      <trkpt lat="43.08261" lon="-1.42299">
        <ele>388</ele>
        <time>2021-06-18T14:43:14Z</time>
      </trkpt>
      <trkpt lat="43.08209" lon="-1.42262">
        <ele>390</ele>
        <time>2021-06-18T14:43:27Z</time>
      </trkpt>
      <trkpt lat="43.08094" lon="-1.42223">
        <ele>400</ele>
        <time>2021-06-18T14:43:55Z</time>
      </trkpt>
      <trkpt lat="43.08071" lon="-1.4222">
        <ele>402</ele>
        <time>2021-06-18T14:44:00Z</time>
      </trkpt>
      <trkpt lat="43.07952" lon="-1.42226">
        <ele>402</ele>
        <time>2021-06-18T14:44:28Z</time>
      </trkpt>
      <trkpt lat="43.07938" lon="-1.4222">
        <ele>403</ele>
        <time>2021-06-18T14:44:32Z</time>
      </trkpt>
      <trkpt lat="43.07884" lon="-1.42185">
        <ele>408</ele>
        <time>2021-06-18T14:44:46Z</time>
      </trkpt>
      <trkpt lat="43.07816" lon="-1.42178">
        <ele>404</ele>
        <time>2021-06-18T14:45:02Z</time>
      </trkpt>
      <trkpt lat="43.0771" lon="-1.42115">
        <ele>411</ele>
        <time>2021-06-18T14:45:29Z</time>
      </trkpt>
      <trkpt lat="43.07664" lon="-1.42076">
        <ele>409</ele>
        <time>2021-06-18T14:45:41Z</time>
      </trkpt>
      <trkpt lat="43.07649" lon="-1.42067">
        <ele>411</ele>
        <time>2021-06-18T14:45:45Z</time>
      </trkpt>
      <trkpt lat="43.07596" lon="-1.42058">
        <ele>407</ele>
        <time>2021-06-18T14:45:57Z</time>
      </trkpt>
      <trkpt lat="43.0758" lon="-1.42049">
        <ele>407</ele>
        <time>2021-06-18T14:46:02Z</time>
      </trkpt>
      <trkpt lat="43.07562" lon="-1.42025">
        <ele>408</ele>
        <time>2021-06-18T14:46:07Z</time>
      </trkpt>
      <trkpt lat="43.07528" lon="-1.41991">
        <ele>408</ele>
        <time>2021-06-18T14:46:17Z</time>
      </trkpt>
      <trkpt lat="43.07511" lon="-1.4197">
        <ele>408</ele>
        <time>2021-06-18T14:46:23Z</time>
      </trkpt>
      <trkpt lat="43.07496" lon="-1.41943">
        <ele>409</ele>
        <time>2021-06-18T14:46:28Z</time>
      </trkpt>
      <trkpt lat="43.07474" lon="-1.41883">
        <ele>413</ele>
        <time>2021-06-18T14:46:40Z</time>
      </trkpt>
      <trkpt lat="43.0747" lon="-1.41877">
        <ele>413</ele>
        <time>2021-06-18T14:46:41Z</time>
      </trkpt>
      <trkpt lat="43.07455" lon="-1.4186">
        <ele>413</ele>
        <time>2021-06-18T14:46:46Z</time>
      </trkpt>
      <trkpt lat="43.07411" lon="-1.4182">
        <ele>413</ele>
        <time>2021-06-18T14:46:58Z</time>
      </trkpt>
      <trkpt lat="43.07401" lon="-1.41815">
        <ele>414</ele>
        <time>2021-06-18T14:47:01Z</time>
      </trkpt>
      <trkpt lat="43.07343" lon="-1.41803">
        <ele>415</ele>
        <time>2021-06-18T14:47:14Z</time>
      </trkpt>
      <trkpt lat="43.07287" lon="-1.41773">
        <ele>418</ele>
        <time>2021-06-18T14:47:28Z</time>
      </trkpt>
      <trkpt lat="43.07246" lon="-1.41739">
        <ele>423</ele>
        <time>2021-06-18T14:47:39Z</time>
      </trkpt>
      <trkpt lat="43.07229" lon="-1.41732">
        <ele>425</ele>
        <time>2021-06-18T14:47:44Z</time>
      </trkpt>
      <trkpt lat="43.07216" lon="-1.41733">
        <ele>424</ele>
        <time>2021-06-18T14:47:47Z</time>
      </trkpt>
      <trkpt lat="43.07174" lon="-1.41751">
        <ele>418</ele>
        <time>2021-06-18T14:47:57Z</time>
      </trkpt>
      <trkpt lat="43.07151" lon="-1.41751">
        <ele>417</ele>
        <time>2021-06-18T14:48:02Z</time>
      </trkpt>
      <trkpt lat="43.07142" lon="-1.41748">
        <ele>417</ele>
        <time>2021-06-18T14:48:04Z</time>
      </trkpt>
      <trkpt lat="43.07087" lon="-1.41692">
        <ele>422</ele>
        <time>2021-06-18T14:48:20Z</time>
      </trkpt>
      <trkpt lat="43.07038" lon="-1.41669">
        <ele>421</ele>
        <time>2021-06-18T14:48:33Z</time>
      </trkpt>
      <trkpt lat="43.07011" lon="-1.4167">
        <ele>419</ele>
        <time>2021-06-18T14:48:39Z</time>
      </trkpt>
      <trkpt lat="43.06998" lon="-1.41666">
        <ele>419</ele>
        <time>2021-06-18T14:48:42Z</time>
      </trkpt>
      <trkpt lat="43.06969" lon="-1.41628">
        <ele>419</ele>
        <time>2021-06-18T14:48:51Z</time>
      </trkpt>
      <trkpt lat="43.06965" lon="-1.41614">
        <ele>420</ele>
        <time>2021-06-18T14:48:54Z</time>
      </trkpt>
      <trkpt lat="43.06936" lon="-1.41603">
        <ele>420</ele>
        <time>2021-06-18T14:49:01Z</time>
      </trkpt>
      <trkpt lat="43.06937" lon="-1.41594">
        <ele>420</ele>
        <time>2021-06-18T14:49:03Z</time>
      </trkpt>
      <trkpt lat="43.06909" lon="-1.4157">
        <ele>424</ele>
        <time>2021-06-18T14:49:10Z</time>
      </trkpt>
      <trkpt lat="43.06885" lon="-1.4154">
        <ele>427</ele>
        <time>2021-06-18T14:49:18Z</time>
      </trkpt>
      <trkpt lat="43.06879" lon="-1.41542">
        <ele>425</ele>
        <time>2021-06-18T14:49:19Z</time>
      </trkpt>
      <trkpt lat="43.06864" lon="-1.41523">
        <ele>426</ele>
        <time>2021-06-18T14:49:24Z</time>
      </trkpt>
      <trkpt lat="43.06828" lon="-1.41494">
        <ele>423</ele>
        <time>2021-06-18T14:49:34Z</time>
      </trkpt>
      <trkpt lat="43.0682" lon="-1.4148">
        <ele>425</ele>
        <time>2021-06-18T14:49:37Z</time>
      </trkpt>
      <trkpt lat="43.0678" lon="-1.41387">
        <ele>429</ele>
        <time>2021-06-18T14:49:55Z</time>
      </trkpt>
      <trkpt lat="43.06766" lon="-1.41373">
        <ele>425</ele>
        <time>2021-06-18T14:49:59Z</time>
      </trkpt>
      <trkpt lat="43.06717" lon="-1.41305">
        <ele>423</ele>
        <time>2021-06-18T14:50:16Z</time>
      </trkpt>
      <trkpt lat="43.06653" lon="-1.41239">
        <ele>423</ele>
        <time>2021-06-18T14:50:34Z</time>
      </trkpt>
      <trkpt lat="43.06621" lon="-1.41198">
        <ele>426</ele>
        <time>2021-06-18T14:50:45Z</time>
      </trkpt>
      <trkpt lat="43.06615" lon="-1.41183">
        <ele>427</ele>
        <time>2021-06-18T14:50:47Z</time>
      </trkpt>
      <trkpt lat="43.06602" lon="-1.41163">
        <ele>428</ele>
        <time>2021-06-18T14:50:52Z</time>
      </trkpt>
      <trkpt lat="43.06596" lon="-1.41158">
        <ele>429</ele>
        <time>2021-06-18T14:50:54Z</time>
      </trkpt>
      <trkpt lat="43.06548" lon="-1.41134">
        <ele>428</ele>
        <time>2021-06-18T14:51:06Z</time>
      </trkpt>
      <trkpt lat="43.0654" lon="-1.41121">
        <ele>429</ele>
        <time>2021-06-18T14:51:08Z</time>
      </trkpt>
      <trkpt lat="43.06534" lon="-1.41095">
        <ele>429</ele>
        <time>2021-06-18T14:51:13Z</time>
      </trkpt>
      <trkpt lat="43.06509" lon="-1.41065">
        <ele>425</ele>
        <time>2021-06-18T14:51:21Z</time>
      </trkpt>
      <trkpt lat="43.06491" lon="-1.41013">
        <ele>424</ele>
        <time>2021-06-18T14:51:31Z</time>
      </trkpt>
      <trkpt lat="43.06473" lon="-1.40998">
        <ele>425</ele>
        <time>2021-06-18T14:51:36Z</time>
      </trkpt>
      <trkpt lat="43.06429" lon="-1.40945">
        <ele>427</ele>
        <time>2021-06-18T14:51:49Z</time>
      </trkpt>
      <trkpt lat="43.06416" lon="-1.40938">
        <ele>427</ele>
        <time>2021-06-18T14:51:53Z</time>
      </trkpt>
      <trkpt lat="43.06412" lon="-1.40932">
        <ele>427</ele>
        <time>2021-06-18T14:51:54Z</time>
      </trkpt>
      <trkpt lat="43.06407" lon="-1.40923">
        <ele>428</ele>
        <time>2021-06-18T14:51:56Z</time>
      </trkpt>
      <trkpt lat="43.06392" lon="-1.40865">
        <ele>435</ele>
        <time>2021-06-18T14:52:06Z</time>
      </trkpt>
      <trkpt lat="43.06363" lon="-1.40795">
        <ele>438</ele>
        <time>2021-06-18T14:52:20Z</time>
      </trkpt>
      <trkpt lat="43.0636" lon="-1.4079">
        <ele>438</ele>
        <time>2021-06-18T14:52:21Z</time>
      </trkpt>
      <trkpt lat="43.06332" lon="-1.40773">
        <ele>434</ele>
        <time>2021-06-18T14:52:28Z</time>
      </trkpt>
      <trkpt lat="43.06354" lon="-1.40746">
        <ele>441</ele>
        <time>2021-06-18T14:52:35Z</time>
      </trkpt>
      <trkpt lat="43.06367" lon="-1.40722">
        <ele>446</ele>
        <time>2021-06-18T14:52:40Z</time>
      </trkpt>
      <trkpt lat="43.06371" lon="-1.40711">
        <ele>448</ele>
        <time>2021-06-18T14:52:42Z</time>
      </trkpt>
      <trkpt lat="43.06374" lon="-1.40668">
        <ele>451</ele>
        <time>2021-06-18T14:52:50Z</time>
      </trkpt>
      <trkpt lat="43.06392" lon="-1.40633">
        <ele>458</ele>
        <time>2021-06-18T14:52:57Z</time>
      </trkpt>
      <trkpt lat="43.06387" lon="-1.4063">
        <ele>458</ele>
        <time>2021-06-18T14:52:58Z</time>
      </trkpt>
      <trkpt lat="43.06381" lon="-1.4063">
        <ele>457</ele>
        <time>2021-06-18T14:53:00Z</time>
      </trkpt>
      <trkpt lat="43.06338" lon="-1.40641">
        <ele>449</ele>
        <time>2021-06-18T14:53:10Z</time>
      </trkpt>
      <trkpt lat="43.06323" lon="-1.40635">
        <ele>450</ele>
        <time>2021-06-18T14:53:14Z</time>
      </trkpt>
      <trkpt lat="43.06304" lon="-1.40623">
        <ele>453</ele>
        <time>2021-06-18T14:53:19Z</time>
      </trkpt>
      <trkpt lat="43.06296" lon="-1.40614">
        <ele>455</ele>
        <time>2021-06-18T14:53:21Z</time>
      </trkpt>
      <trkpt lat="43.06288" lon="-1.40596">
        <ele>457</ele>
        <time>2021-06-18T14:53:25Z</time>
      </trkpt>
      <trkpt lat="43.06285" lon="-1.40571">
        <ele>460</ele>
        <time>2021-06-18T14:53:29Z</time>
      </trkpt>
      <trkpt lat="43.06291" lon="-1.40541">
        <ele>465</ele>
        <time>2021-06-18T14:53:34Z</time>
      </trkpt>
      <trkpt lat="43.06291" lon="-1.40522">
        <ele>468</ele>
        <time>2021-06-18T14:53:37Z</time>
      </trkpt>
      <trkpt lat="43.06254" lon="-1.40422">
        <ele>466</ele>
        <time>2021-06-18T14:53:57Z</time>
      </trkpt>
      <trkpt lat="43.06253" lon="-1.40407">
        <ele>466</ele>
        <time>2021-06-18T14:53:59Z</time>
      </trkpt>
      <trkpt lat="43.06258" lon="-1.40383">
        <ele>468</ele>
        <time>2021-06-18T14:54:03Z</time>
      </trkpt>
      <trkpt lat="43.0626" lon="-1.40337">
        <ele>469</ele>
        <time>2021-06-18T14:54:11Z</time>
      </trkpt>
      <trkpt lat="43.06256" lon="-1.4032">
        <ele>471</ele>
        <time>2021-06-18T14:54:14Z</time>
      </trkpt>
      <trkpt lat="43.06249" lon="-1.40305">
        <ele>471</ele>
        <time>2021-06-18T14:54:17Z</time>
      </trkpt>
      <trkpt lat="43.06209" lon="-1.40253">
        <ele>470</ele>
        <time>2021-06-18T14:54:30Z</time>
      </trkpt>
      <trkpt lat="43.06125" lon="-1.40187">
        <ele>469</ele>
        <time>2021-06-18T14:54:53Z</time>
      </trkpt>
      <trkpt lat="43.06109" lon="-1.40187">
        <ele>466</ele>
        <time>2021-06-18T14:54:57Z</time>
      </trkpt>
      <trkpt lat="43.06095" lon="-1.40193">
        <ele>463</ele>
        <time>2021-06-18T14:55:00Z</time>
      </trkpt>
      <trkpt lat="43.06089" lon="-1.40193">
        <ele>462</ele>
        <time>2021-06-18T14:55:01Z</time>
      </trkpt>
      <trkpt lat="43.06083" lon="-1.40189">
        <ele>462</ele>
        <time>2021-06-18T14:55:03Z</time>
      </trkpt>
      <trkpt lat="43.06043" lon="-1.40104">
        <ele>471</ele>
        <time>2021-06-18T14:55:20Z</time>
      </trkpt>
      <trkpt lat="43.06032" lon="-1.40057">
        <ele>474</ele>
        <time>2021-06-18T14:55:29Z</time>
      </trkpt>
      <trkpt lat="43.06014" lon="-1.39958">
        <ele>476</ele>
        <time>2021-06-18T14:55:46Z</time>
      </trkpt>
      <trkpt lat="43.06015" lon="-1.39919">
        <ele>480</ele>
        <time>2021-06-18T14:55:53Z</time>
      </trkpt>
      <trkpt lat="43.06028" lon="-1.39855">
        <ele>490</ele>
        <time>2021-06-18T14:56:04Z</time>
      </trkpt>
      <trkpt lat="43.06006" lon="-1.39771">
        <ele>483</ele>
        <time>2021-06-18T14:56:19Z</time>
      </trkpt>
      <trkpt lat="43.06014" lon="-1.39744">
        <ele>487</ele>
        <time>2021-06-18T14:56:24Z</time>
      </trkpt>
      <trkpt lat="43.0603" lon="-1.39711">
        <ele>493</ele>
        <time>2021-06-18T14:56:31Z</time>
      </trkpt>
      <trkpt lat="43.06083" lon="-1.39616">
        <ele>500</ele>
        <time>2021-06-18T14:56:51Z</time>
      </trkpt>
      <trkpt lat="43.06111" lon="-1.39584">
        <ele>507</ele>
        <time>2021-06-18T14:57:00Z</time>
      </trkpt>
      <trkpt lat="43.06118" lon="-1.3955">
        <ele>506</ele>
        <time>2021-06-18T14:57:06Z</time>
      </trkpt>
      <trkpt lat="43.06125" lon="-1.39532">
        <ele>507</ele>
        <time>2021-06-18T14:57:09Z</time>
      </trkpt>
      <trkpt lat="43.06159" lon="-1.39484">
        <ele>514</ele>
        <time>2021-06-18T14:57:21Z</time>
      </trkpt>
      <trkpt lat="43.06169" lon="-1.39477">
        <ele>517</ele>
        <time>2021-06-18T14:57:23Z</time>
      </trkpt>
      <trkpt lat="43.06217" lon="-1.39463">
        <ele>527</ele>
        <time>2021-06-18T14:57:35Z</time>
      </trkpt>
      <trkpt lat="43.0623" lon="-1.3945">
        <ele>528</ele>
        <time>2021-06-18T14:57:39Z</time>
      </trkpt>
      <trkpt lat="43.06231" lon="-1.39437">
        <ele>526</ele>
        <time>2021-06-18T14:57:41Z</time>
      </trkpt>
      <trkpt lat="43.06227" lon="-1.39423">
        <ele>523</ele>
        <time>2021-06-18T14:57:43Z</time>
      </trkpt>
      <trkpt lat="43.06211" lon="-1.39401">
        <ele>523</ele>
        <time>2021-06-18T14:57:49Z</time>
      </trkpt>
      <trkpt lat="43.06192" lon="-1.39384">
        <ele>522</ele>
        <time>2021-06-18T14:57:54Z</time>
      </trkpt>
      <trkpt lat="43.06154" lon="-1.39327">
        <ele>518</ele>
        <time>2021-06-18T14:58:07Z</time>
      </trkpt>
      <trkpt lat="43.06139" lon="-1.39312">
        <ele>514</ele>
        <time>2021-06-18T14:58:12Z</time>
      </trkpt>
      <trkpt lat="43.0613" lon="-1.39292">
        <ele>512</ele>
        <time>2021-06-18T14:58:16Z</time>
      </trkpt>
      <trkpt lat="43.0613" lon="-1.39282">
        <ele>513</ele>
        <time>2021-06-18T14:58:17Z</time>
      </trkpt>
      <trkpt lat="43.06134" lon="-1.39268">
        <ele>515</ele>
        <time>2021-06-18T14:58:20Z</time>
      </trkpt>
      <trkpt lat="43.06132" lon="-1.39267">
        <ele>515</ele>
        <time>2021-06-18T14:58:20Z</time>
      </trkpt>
      <trkpt lat="43.06133" lon="-1.39263">
        <ele>515</ele>
        <time>2021-06-18T14:58:21Z</time>
      </trkpt>
      <trkpt lat="43.06144" lon="-1.39245">
        <ele>519</ele>
        <time>2021-06-18T14:58:25Z</time>
      </trkpt>
      <trkpt lat="43.06158" lon="-1.3923">
        <ele>521</ele>
        <time>2021-06-18T14:58:29Z</time>
      </trkpt>
      <trkpt lat="43.0617" lon="-1.39224">
        <ele>523</ele>
        <time>2021-06-18T14:58:32Z</time>
      </trkpt>
      <trkpt lat="43.06211" lon="-1.39214">
        <ele>531</ele>
        <time>2021-06-18T14:58:42Z</time>
      </trkpt>
      <trkpt lat="43.06262" lon="-1.39187">
        <ele>536</ele>
        <time>2021-06-18T14:58:55Z</time>
      </trkpt>
      <trkpt lat="43.0629" lon="-1.39165">
        <ele>539</ele>
        <time>2021-06-18T14:59:02Z</time>
      </trkpt>
      <trkpt lat="43.06318" lon="-1.39136">
        <ele>540</ele>
        <time>2021-06-18T14:59:10Z</time>
      </trkpt>
      <trkpt lat="43.06322" lon="-1.39135">
        <ele>541</ele>
        <time>2021-06-18T14:59:11Z</time>
      </trkpt>
      <trkpt lat="43.06326" lon="-1.39126">
        <ele>539</ele>
        <time>2021-06-18T14:59:13Z</time>
      </trkpt>
      <trkpt lat="43.06335" lon="-1.39115">
        <ele>538</ele>
        <time>2021-06-18T14:59:16Z</time>
      </trkpt>
      <trkpt lat="43.06346" lon="-1.39088">
        <ele>534</ele>
        <time>2021-06-18T14:59:21Z</time>
      </trkpt>
      <trkpt lat="43.06383" lon="-1.39038">
        <ele>540</ele>
        <time>2021-06-18T14:59:33Z</time>
      </trkpt>
      <trkpt lat="43.06388" lon="-1.39021">
        <ele>539</ele>
        <time>2021-06-18T14:59:37Z</time>
      </trkpt>
      <trkpt lat="43.06388" lon="-1.39004">
        <ele>537</ele>
        <time>2021-06-18T14:59:39Z</time>
      </trkpt>
      <trkpt lat="43.06382" lon="-1.38984">
        <ele>539</ele>
        <time>2021-06-18T14:59:43Z</time>
      </trkpt>
      <trkpt lat="43.06374" lon="-1.38981">
        <ele>540</ele>
        <time>2021-06-18T14:59:45Z</time>
      </trkpt>
      <trkpt lat="43.06353" lon="-1.38997">
        <ele>536</ele>
        <time>2021-06-18T14:59:51Z</time>
      </trkpt>
      <trkpt lat="43.06337" lon="-1.39004">
        <ele>535</ele>
        <time>2021-06-18T14:59:55Z</time>
      </trkpt>
      <trkpt lat="43.06264" lon="-1.39008">
        <ele>544</ele>
        <time>2021-06-18T15:00:12Z</time>
      </trkpt>
      <trkpt lat="43.06233" lon="-1.39022">
        <ele>544</ele>
        <time>2021-06-18T15:00:19Z</time>
      </trkpt>
      <trkpt lat="43.06226" lon="-1.39023">
        <ele>545</ele>
        <time>2021-06-18T15:00:21Z</time>
      </trkpt>
      <trkpt lat="43.06216" lon="-1.39023">
        <ele>546</ele>
        <time>2021-06-18T15:00:23Z</time>
      </trkpt>
      <trkpt lat="43.06202" lon="-1.39018">
        <ele>550</ele>
        <time>2021-06-18T15:00:27Z</time>
      </trkpt>
      <trkpt lat="43.06186" lon="-1.39001">
        <ele>558</ele>
        <time>2021-06-18T15:00:31Z</time>
      </trkpt>
      <trkpt lat="43.06177" lon="-1.38997">
        <ele>561</ele>
        <time>2021-06-18T15:00:34Z</time>
      </trkpt>
      <trkpt lat="43.06167" lon="-1.38996">
        <ele>562</ele>
        <time>2021-06-18T15:00:36Z</time>
      </trkpt>
      <trkpt lat="43.06141" lon="-1.38999">
        <ele>566</ele>
        <time>2021-06-18T15:00:42Z</time>
      </trkpt>
      <trkpt lat="43.06121" lon="-1.39006">
        <ele>566</ele>
        <time>2021-06-18T15:00:47Z</time>
      </trkpt>
      <trkpt lat="43.06117" lon="-1.39004">
        <ele>568</ele>
        <time>2021-06-18T15:00:48Z</time>
      </trkpt>
      <trkpt lat="43.06116" lon="-1.38998">
        <ele>570</ele>
        <time>2021-06-18T15:00:49Z</time>
      </trkpt>
      <trkpt lat="43.06119" lon="-1.38994">
        <ele>571</ele>
        <time>2021-06-18T15:00:50Z</time>
      </trkpt>
      <trkpt lat="43.06131" lon="-1.38989">
        <ele>571</ele>
        <time>2021-06-18T15:00:53Z</time>
      </trkpt>
      <trkpt lat="43.0614" lon="-1.38982">
        <ele>572</ele>
        <time>2021-06-18T15:00:55Z</time>
      </trkpt>
      <trkpt lat="43.06159" lon="-1.38961">
        <ele>575</ele>
        <time>2021-06-18T15:01:01Z</time>
      </trkpt>
      <trkpt lat="43.06173" lon="-1.38959">
        <ele>574</ele>
        <time>2021-06-18T15:01:04Z</time>
      </trkpt>
      <trkpt lat="43.06213" lon="-1.3897">
        <ele>565</ele>
        <time>2021-06-18T15:01:14Z</time>
      </trkpt>
      <trkpt lat="43.06217" lon="-1.38969">
        <ele>565</ele>
        <time>2021-06-18T15:01:15Z</time>
      </trkpt>
      <trkpt lat="43.06219" lon="-1.38963">
        <ele>567</ele>
        <time>2021-06-18T15:01:16Z</time>
      </trkpt>
      <trkpt lat="43.06217" lon="-1.38956">
        <ele>570</ele>
        <time>2021-06-18T15:01:17Z</time>
      </trkpt>
      <trkpt lat="43.06214" lon="-1.38952">
        <ele>572</ele>
        <time>2021-06-18T15:01:18Z</time>
      </trkpt>
      <trkpt lat="43.06191" lon="-1.38946">
        <ele>576</ele>
        <time>2021-06-18T15:01:24Z</time>
      </trkpt>
      <trkpt lat="43.06172" lon="-1.3893">
        <ele>583</ele>
        <time>2021-06-18T15:01:29Z</time>
      </trkpt>
      <trkpt lat="43.06157" lon="-1.38922">
        <ele>588</ele>
        <time>2021-06-18T15:01:33Z</time>
      </trkpt>
      <trkpt lat="43.06148" lon="-1.3892">
        <ele>591</ele>
        <time>2021-06-18T15:01:35Z</time>
      </trkpt>
      <trkpt lat="43.06136" lon="-1.38926">
        <ele>592</ele>
        <time>2021-06-18T15:01:38Z</time>
      </trkpt>
      <trkpt lat="43.06115" lon="-1.38944">
        <ele>590</ele>
        <time>2021-06-18T15:01:43Z</time>
      </trkpt>
      <trkpt lat="43.06018" lon="-1.38948">
        <ele>608</ele>
        <time>2021-06-18T15:02:06Z</time>
      </trkpt>
      <trkpt lat="43.05982" lon="-1.38943">
        <ele>611</ele>
        <time>2021-06-18T15:02:15Z</time>
      </trkpt>
      <trkpt lat="43.05972" lon="-1.38937">
        <ele>612</ele>
        <time>2021-06-18T15:02:17Z</time>
      </trkpt>
      <trkpt lat="43.05953" lon="-1.38915">
        <ele>618</ele>
        <time>2021-06-18T15:02:23Z</time>
      </trkpt>
      <trkpt lat="43.05925" lon="-1.38871">
        <ele>631</ele>
        <time>2021-06-18T15:02:33Z</time>
      </trkpt>
      <trkpt lat="43.05907" lon="-1.38832">
        <ele>641</ele>
        <time>2021-06-18T15:02:41Z</time>
      </trkpt>
      <trkpt lat="43.0591" lon="-1.38828">
        <ele>643</ele>
        <time>2021-06-18T15:02:42Z</time>
      </trkpt>
      <trkpt lat="43.05914" lon="-1.3883">
        <ele>644</ele>
        <time>2021-06-18T15:02:43Z</time>
      </trkpt>
      <trkpt lat="43.0593" lon="-1.38849">
        <ele>640</ele>
        <time>2021-06-18T15:02:48Z</time>
      </trkpt>
      <trkpt lat="43.05955" lon="-1.38862">
        <ele>639</ele>
        <time>2021-06-18T15:02:54Z</time>
      </trkpt>
      <trkpt lat="43.05965" lon="-1.38864">
        <ele>640</ele>
        <time>2021-06-18T15:02:56Z</time>
      </trkpt>
      <trkpt lat="43.05968" lon="-1.38856">
        <ele>643</ele>
        <time>2021-06-18T15:02:58Z</time>
      </trkpt>
      <trkpt lat="43.05967" lon="-1.38852">
        <ele>645</ele>
        <time>2021-06-18T15:02:59Z</time>
      </trkpt>
      <trkpt lat="43.05942" lon="-1.38824">
        <ele>651</ele>
        <time>2021-06-18T15:03:06Z</time>
      </trkpt>
      <trkpt lat="43.05922" lon="-1.38786">
        <ele>659</ele>
        <time>2021-06-18T15:03:14Z</time>
      </trkpt>
      <trkpt lat="43.05912" lon="-1.38759">
        <ele>664</ele>
        <time>2021-06-18T15:03:19Z</time>
      </trkpt>
      <trkpt lat="43.05885" lon="-1.3863">
        <ele>682</ele>
        <time>2021-06-18T15:03:42Z</time>
      </trkpt>
      <trkpt lat="43.05874" lon="-1.38605">
        <ele>684</ele>
        <time>2021-06-18T15:03:47Z</time>
      </trkpt>
      <trkpt lat="43.05853" lon="-1.38571">
        <ele>689</ele>
        <time>2021-06-18T15:03:55Z</time>
      </trkpt>
      <trkpt lat="43.05842" lon="-1.38548">
        <ele>694</ele>
        <time>2021-06-18T15:03:59Z</time>
      </trkpt>
      <trkpt lat="43.05828" lon="-1.38533">
        <ele>697</ele>
        <time>2021-06-18T15:04:04Z</time>
      </trkpt>
      <trkpt lat="43.05794" lon="-1.38508">
        <ele>705</ele>
        <time>2021-06-18T15:04:13Z</time>
      </trkpt>
      <trkpt lat="43.05765" lon="-1.38487">
        <ele>711</ele>
        <time>2021-06-18T15:04:20Z</time>
      </trkpt>
      <trkpt lat="43.05688" lon="-1.38439">
        <ele>721</ele>
        <time>2021-06-18T15:04:40Z</time>
      </trkpt>
      <trkpt lat="43.05635" lon="-1.38398">
        <ele>728</ele>
        <time>2021-06-18T15:04:54Z</time>
      </trkpt>
      <trkpt lat="43.05605" lon="-1.38372">
        <ele>732</ele>
        <time>2021-06-18T15:05:02Z</time>
      </trkpt>
      <trkpt lat="43.05571" lon="-1.38338">
        <ele>735</ele>
        <time>2021-06-18T15:05:12Z</time>
      </trkpt>
      <trkpt lat="43.05559" lon="-1.38323">
        <ele>736</ele>
        <time>2021-06-18T15:05:16Z</time>
      </trkpt>
      <trkpt lat="43.05545" lon="-1.38296">
        <ele>738</ele>
        <time>2021-06-18T15:05:22Z</time>
      </trkpt>
      <trkpt lat="43.05538" lon="-1.38274">
        <ele>741</ele>
        <time>2021-06-18T15:05:26Z</time>
      </trkpt>
      <trkpt lat="43.05538" lon="-1.38264">
        <ele>743</ele>
        <time>2021-06-18T15:05:28Z</time>
      </trkpt>
      <trkpt lat="43.05545" lon="-1.38253">
        <ele>747</ele>
        <time>2021-06-18T15:05:30Z</time>
      </trkpt>
      <trkpt lat="43.05554" lon="-1.38246">
        <ele>751</ele>
        <time>2021-06-18T15:05:32Z</time>
      </trkpt>
      <trkpt lat="43.05577" lon="-1.38245">
        <ele>757</ele>
        <time>2021-06-18T15:05:38Z</time>
      </trkpt>
      <trkpt lat="43.05675" lon="-1.38252">
        <ele>767</ele>
        <time>2021-06-18T15:06:01Z</time>
      </trkpt>
      <trkpt lat="43.05681" lon="-1.3825">
        <ele>768</ele>
        <time>2021-06-18T15:06:02Z</time>
      </trkpt>
      <trkpt lat="43.05684" lon="-1.38246">
        <ele>768</ele>
        <time>2021-06-18T15:06:03Z</time>
      </trkpt>
      <trkpt lat="43.05689" lon="-1.38235">
        <ele>771</ele>
        <time>2021-06-18T15:06:05Z</time>
      </trkpt>
      <trkpt lat="43.05689" lon="-1.38214">
        <ele>776</ele>
        <time>2021-06-18T15:06:09Z</time>
      </trkpt>
      <trkpt lat="43.05658" lon="-1.38105">
        <ele>794</ele>
        <time>2021-06-18T15:06:29Z</time>
      </trkpt>
      <trkpt lat="43.05658" lon="-1.38093">
        <ele>796</ele>
        <time>2021-06-18T15:06:31Z</time>
      </trkpt>
      <trkpt lat="43.05662" lon="-1.38084">
        <ele>797</ele>
        <time>2021-06-18T15:06:33Z</time>
      </trkpt>
      <trkpt lat="43.05677" lon="-1.38072">
        <ele>801</ele>
        <time>2021-06-18T15:06:37Z</time>
      </trkpt>
      <trkpt lat="43.05719" lon="-1.38052">
        <ele>808</ele>
        <time>2021-06-18T15:06:47Z</time>
      </trkpt>
      <trkpt lat="43.05722" lon="-1.38048">
        <ele>809</ele>
        <time>2021-06-18T15:06:48Z</time>
      </trkpt>
      <trkpt lat="43.05722" lon="-1.38039">
        <ele>812</ele>
        <time>2021-06-18T15:06:50Z</time>
      </trkpt>
      <trkpt lat="43.05719" lon="-1.38034">
        <ele>813</ele>
        <time>2021-06-18T15:06:51Z</time>
      </trkpt>
      <trkpt lat="43.0569" lon="-1.38018">
        <ele>817</ele>
        <time>2021-06-18T15:06:58Z</time>
      </trkpt>
      <trkpt lat="43.05683" lon="-1.38009">
        <ele>819</ele>
        <time>2021-06-18T15:07:00Z</time>
      </trkpt>
      <trkpt lat="43.0564" lon="-1.37908">
        <ele>838</ele>
        <time>2021-06-18T15:07:20Z</time>
      </trkpt>
      <trkpt lat="43.05572" lon="-1.37789">
        <ele>858</ele>
        <time>2021-06-18T15:07:46Z</time>
      </trkpt>
      <trkpt lat="43.05562" lon="-1.37775">
        <ele>860</ele>
        <time>2021-06-18T15:07:49Z</time>
      </trkpt>
      <trkpt lat="43.05537" lon="-1.37746">
        <ele>864</ele>
        <time>2021-06-18T15:07:57Z</time>
      </trkpt>
      <trkpt lat="43.05514" lon="-1.37726">
        <ele>866</ele>
        <time>2021-06-18T15:08:03Z</time>
      </trkpt>
      <trkpt lat="43.05499" lon="-1.37718">
        <ele>867</ele>
        <time>2021-06-18T15:08:07Z</time>
      </trkpt>
      <trkpt lat="43.05468" lon="-1.37716">
        <ele>865</ele>
        <time>2021-06-18T15:08:14Z</time>
      </trkpt>
      <trkpt lat="43.05417" lon="-1.3769">
        <ele>867</ele>
        <time>2021-06-18T15:08:27Z</time>
      </trkpt>
      <trkpt lat="43.05382" lon="-1.37667">
        <ele>872</ele>
        <time>2021-06-18T15:08:36Z</time>
      </trkpt>
      <trkpt lat="43.0536" lon="-1.37645">
        <ele>877</ele>
        <time>2021-06-18T15:08:43Z</time>
      </trkpt>
      <trkpt lat="43.05335" lon="-1.37629">
        <ele>881</ele>
        <time>2021-06-18T15:08:49Z</time>
      </trkpt>
      <trkpt lat="43.05312" lon="-1.37623">
        <ele>884</ele>
        <time>2021-06-18T15:08:55Z</time>
      </trkpt>
      <trkpt lat="43.05273" lon="-1.37619">
        <ele>887</ele>
        <time>2021-06-18T15:09:04Z</time>
      </trkpt>
      <trkpt lat="43.05245" lon="-1.37619">
        <ele>889</ele>
        <time>2021-06-18T15:09:10Z</time>
      </trkpt>
      <trkpt lat="43.05221" lon="-1.3761">
        <ele>889</ele>
        <time>2021-06-18T15:09:16Z</time>
      </trkpt>
      <trkpt lat="43.05195" lon="-1.37596">
        <ele>890</ele>
        <time>2021-06-18T15:09:23Z</time>
      </trkpt>
      <trkpt lat="43.05179" lon="-1.37592">
        <ele>890</ele>
        <time>2021-06-18T15:09:26Z</time>
      </trkpt>
      <trkpt lat="43.05159" lon="-1.37593">
        <ele>889</ele>
        <time>2021-06-18T15:09:31Z</time>
      </trkpt>
      <trkpt lat="43.05139" lon="-1.37583">
        <ele>888</ele>
        <time>2021-06-18T15:09:36Z</time>
      </trkpt>
      <trkpt lat="43.05108" lon="-1.37552">
        <ele>891</ele>
        <time>2021-06-18T15:09:45Z</time>
      </trkpt>
      <trkpt lat="43.05111" lon="-1.37546">
        <ele>893</ele>
        <time>2021-06-18T15:09:46Z</time>
      </trkpt>
      <trkpt lat="43.05099" lon="-1.37533">
        <ele>895</ele>
        <time>2021-06-18T15:09:50Z</time>
      </trkpt>
      <trkpt lat="43.05073" lon="-1.37476">
        <ele>907</ele>
        <time>2021-06-18T15:10:01Z</time>
      </trkpt>
      <trkpt lat="43.05031" lon="-1.37426">
        <ele>918</ele>
        <time>2021-06-18T15:10:14Z</time>
      </trkpt>
      <trkpt lat="43.04979" lon="-1.37372">
        <ele>924</ele>
        <time>2021-06-18T15:10:29Z</time>
      </trkpt>
      <trkpt lat="43.04932" lon="-1.37302">
        <ele>935</ele>
        <time>2021-06-18T15:10:46Z</time>
      </trkpt>
      <trkpt lat="43.04872" lon="-1.37251">
        <ele>947</ele>
        <time>2021-06-18T15:11:02Z</time>
      </trkpt>
      <trkpt lat="43.04818" lon="-1.37214">
        <ele>954</ele>
        <time>2021-06-18T15:11:16Z</time>
      </trkpt>
      <trkpt lat="43.04758" lon="-1.37181">
        <ele>959</ele>
        <time>2021-06-18T15:11:31Z</time>
      </trkpt>
      <trkpt lat="43.04721" lon="-1.37155">
        <ele>963</ele>
        <time>2021-06-18T15:11:41Z</time>
      </trkpt>
      <trkpt lat="43.04707" lon="-1.37148">
        <ele>963</ele>
        <time>2021-06-18T15:11:45Z</time>
      </trkpt>
      <trkpt lat="43.04702" lon="-1.37144">
        <ele>963</ele>
        <time>2021-06-18T15:11:46Z</time>
      </trkpt>
      <trkpt lat="43.04705" lon="-1.37124">
        <ele>962</ele>
        <time>2021-06-18T15:11:49Z</time>
      </trkpt>
      <trkpt lat="43.04696" lon="-1.37128">
        <ele>962</ele>
        <time>2021-06-18T15:11:52Z</time>
      </trkpt>
      <trkpt lat="43.04676" lon="-1.37126">
        <ele>962</ele>
        <time>2021-06-18T15:11:56Z</time>
      </trkpt>
      <trkpt lat="43.04664" lon="-1.37128">
        <ele>962</ele>
        <time>2021-06-18T15:11:59Z</time>
      </trkpt>
      <trkpt lat="43.0464" lon="-1.37138">
        <ele>965</ele>
        <time>2021-06-18T15:12:05Z</time>
      </trkpt>
      <trkpt lat="43.04618" lon="-1.37142">
        <ele>967</ele>
        <time>2021-06-18T15:12:10Z</time>
      </trkpt>
      <trkpt lat="43.04598" lon="-1.3715">
        <ele>970</ele>
        <time>2021-06-18T15:12:15Z</time>
      </trkpt>
      <trkpt lat="43.0458" lon="-1.37162">
        <ele>973</ele>
        <time>2021-06-18T15:12:20Z</time>
      </trkpt>
      <trkpt lat="43.04545" lon="-1.37179">
        <ele>973</ele>
        <time>2021-06-18T15:12:28Z</time>
      </trkpt>
      <trkpt lat="43.04522" lon="-1.37195">
        <ele>974</ele>
        <time>2021-06-18T15:12:34Z</time>
      </trkpt>
      <trkpt lat="43.0451" lon="-1.37209">
        <ele>976</ele>
        <time>2021-06-18T15:12:38Z</time>
      </trkpt>
      <trkpt lat="43.04495" lon="-1.37217">
        <ele>979</ele>
        <time>2021-06-18T15:12:42Z</time>
      </trkpt>
      <trkpt lat="43.04458" lon="-1.37248">
        <ele>991</ele>
        <time>2021-06-18T15:12:52Z</time>
      </trkpt>
      <trkpt lat="43.04426" lon="-1.37253">
        <ele>997</ele>
        <time>2021-06-18T15:13:00Z</time>
      </trkpt>
      <trkpt lat="43.04414" lon="-1.37257">
        <ele>998</ele>
        <time>2021-06-18T15:13:02Z</time>
      </trkpt>
      <trkpt lat="43.04388" lon="-1.37249">
        <ele>1002</ele>
        <time>2021-06-18T15:13:09Z</time>
      </trkpt>
      <trkpt lat="43.04372" lon="-1.37239">
        <ele>1004</ele>
        <time>2021-06-18T15:13:13Z</time>
      </trkpt>
      <trkpt lat="43.04348" lon="-1.37208">
        <ele>1008</ele>
        <time>2021-06-18T15:13:20Z</time>
      </trkpt>
      <trkpt lat="43.04333" lon="-1.37171">
        <ele>1013</ele>
        <time>2021-06-18T15:13:28Z</time>
      </trkpt>
      <trkpt lat="43.04321" lon="-1.37154">
        <ele>1010</ele>
        <time>2021-06-18T15:13:32Z</time>
      </trkpt>
      <trkpt lat="43.04297" lon="-1.37132">
        <ele>1008</ele>
        <time>2021-06-18T15:13:38Z</time>
      </trkpt>
      <trkpt lat="43.04293" lon="-1.37123">
        <ele>1007</ele>
        <time>2021-06-18T15:13:40Z</time>
      </trkpt>
      <trkpt lat="43.04287" lon="-1.37119">
        <ele>1008</ele>
        <time>2021-06-18T15:13:42Z</time>
      </trkpt>
      <trkpt lat="43.04255" lon="-1.37084">
        <ele>1013</ele>
        <time>2021-06-18T15:13:51Z</time>
      </trkpt>
      <trkpt lat="43.04242" lon="-1.37073">
        <ele>1012</ele>
        <time>2021-06-18T15:13:55Z</time>
      </trkpt>
      <trkpt lat="43.0422" lon="-1.37064">
        <ele>1009</ele>
        <time>2021-06-18T15:14:00Z</time>
      </trkpt>
      <trkpt lat="43.04203" lon="-1.3705">
        <ele>1008</ele>
        <time>2021-06-18T15:14:05Z</time>
      </trkpt>
      <trkpt lat="43.04185" lon="-1.3703">
        <ele>1008</ele>
        <time>2021-06-18T15:14:10Z</time>
      </trkpt>
      <trkpt lat="43.04138" lon="-1.36987">
        <ele>1010</ele>
        <time>2021-06-18T15:14:24Z</time>
      </trkpt>
      <trkpt lat="43.04104" lon="-1.36975">
        <ele>1010</ele>
        <time>2021-06-18T15:14:32Z</time>
      </trkpt>
      <trkpt lat="43.04084" lon="-1.36959">
        <ele>1012</ele>
        <time>2021-06-18T15:14:37Z</time>
      </trkpt>
      <trkpt lat="43.04066" lon="-1.3695">
        <ele>1016</ele>
        <time>2021-06-18T15:14:42Z</time>
      </trkpt>
      <trkpt lat="43.04045" lon="-1.36917">
        <ele>1026</ele>
        <time>2021-06-18T15:14:49Z</time>
      </trkpt>
      <trkpt lat="43.0403" lon="-1.36898">
        <ele>1030</ele>
        <time>2021-06-18T15:14:54Z</time>
      </trkpt>
      <trkpt lat="43.03979" lon="-1.36868">
        <ele>1044</ele>
        <time>2021-06-18T15:15:07Z</time>
      </trkpt>
      <trkpt lat="43.03927" lon="-1.36828">
        <ele>1058</ele>
        <time>2021-06-18T15:15:21Z</time>
      </trkpt>
      <trkpt lat="43.03914" lon="-1.36825">
        <ele>1061</ele>
        <time>2021-06-18T15:15:24Z</time>
      </trkpt>
      <trkpt lat="43.03895" lon="-1.3681">
        <ele>1062</ele>
        <time>2021-06-18T15:15:29Z</time>
      </trkpt>
      <trkpt lat="43.03875" lon="-1.36801">
        <ele>1065</ele>
        <time>2021-06-18T15:15:34Z</time>
      </trkpt>
      <trkpt lat="43.03847" lon="-1.36775">
        <ele>1072</ele>
        <time>2021-06-18T15:15:42Z</time>
      </trkpt>
      <trkpt lat="43.03832" lon="-1.36777">
        <ele>1075</ele>
        <time>2021-06-18T15:15:45Z</time>
      </trkpt>
      <trkpt lat="43.03818" lon="-1.3677">
        <ele>1078</ele>
        <time>2021-06-18T15:15:49Z</time>
      </trkpt>
      <trkpt lat="43.0381" lon="-1.36762">
        <ele>1081</ele>
        <time>2021-06-18T15:15:51Z</time>
      </trkpt>
      <trkpt lat="43.03795" lon="-1.36753">
        <ele>1085</ele>
        <time>2021-06-18T15:15:55Z</time>
      </trkpt>
      <trkpt lat="43.03771" lon="-1.36715">
        <ele>1091</ele>
        <time>2021-06-18T15:16:04Z</time>
      </trkpt>
      <trkpt lat="43.03747" lon="-1.36686">
        <ele>1097</ele>
        <time>2021-06-18T15:16:11Z</time>
      </trkpt>
      <trkpt lat="43.03725" lon="-1.36649">
        <ele>1094</ele>
        <time>2021-06-18T15:16:19Z</time>
      </trkpt>
      <trkpt lat="43.03702" lon="-1.36629">
        <ele>1091</ele>
        <time>2021-06-18T15:16:25Z</time>
      </trkpt>
      <trkpt lat="43.03674" lon="-1.36619">
        <ele>1090</ele>
        <time>2021-06-18T15:16:32Z</time>
      </trkpt>
      <trkpt lat="43.03656" lon="-1.36617">
        <ele>1090</ele>
        <time>2021-06-18T15:16:36Z</time>
      </trkpt>
      <trkpt lat="43.03629" lon="-1.36621">
        <ele>1090</ele>
        <time>2021-06-18T15:16:43Z</time>
      </trkpt>
      <trkpt lat="43.03595" lon="-1.36636">
        <ele>1093</ele>
        <time>2021-06-18T15:16:51Z</time>
      </trkpt>
      <trkpt lat="43.03554" lon="-1.3664">
        <ele>1090</ele>
        <time>2021-06-18T15:17:01Z</time>
      </trkpt>
      <trkpt lat="43.03541" lon="-1.36639">
        <ele>1089</ele>
        <time>2021-06-18T15:17:04Z</time>
      </trkpt>
      <trkpt lat="43.03509" lon="-1.36649">
        <ele>1089</ele>
        <time>2021-06-18T15:17:11Z</time>
      </trkpt>
      <trkpt lat="43.03489" lon="-1.36673">
        <ele>1093</ele>
        <time>2021-06-18T15:17:18Z</time>
      </trkpt>
      <trkpt lat="43.03451" lon="-1.36694">
        <ele>1090</ele>
        <time>2021-06-18T15:17:27Z</time>
      </trkpt>
      <trkpt lat="43.03421" lon="-1.36714">
        <ele>1091</ele>
        <time>2021-06-18T15:17:35Z</time>
      </trkpt>
      <trkpt lat="43.03414" lon="-1.36722">
        <ele>1093</ele>
        <time>2021-06-18T15:17:37Z</time>
      </trkpt>
      <trkpt lat="43.03411" lon="-1.36734">
        <ele>1098</ele>
        <time>2021-06-18T15:17:39Z</time>
      </trkpt>
      <trkpt lat="43.03402" lon="-1.36748">
        <ele>1102</ele>
        <time>2021-06-18T15:17:43Z</time>
      </trkpt>
      <trkpt lat="43.03389" lon="-1.36755">
        <ele>1102</ele>
        <time>2021-06-18T15:17:46Z</time>
      </trkpt>
      <trkpt lat="43.03381" lon="-1.36753">
        <ele>1099</ele>
        <time>2021-06-18T15:17:48Z</time>
      </trkpt>
      <trkpt lat="43.03372" lon="-1.36755">
        <ele>1098</ele>
        <time>2021-06-18T15:17:50Z</time>
      </trkpt>
      <trkpt lat="43.03359" lon="-1.36772">
        <ele>1101</ele>
        <time>2021-06-18T15:17:54Z</time>
      </trkpt>
      <trkpt lat="43.03317" lon="-1.36796">
        <ele>1102</ele>
        <time>2021-06-18T15:18:05Z</time>
      </trkpt>
      <trkpt lat="43.03275" lon="-1.3679">
        <ele>1094</ele>
        <time>2021-06-18T15:18:14Z</time>
      </trkpt>
      <trkpt lat="43.03256" lon="-1.36777">
        <ele>1091</ele>
        <time>2021-06-18T15:18:19Z</time>
      </trkpt>
      <trkpt lat="43.03238" lon="-1.36737">
        <ele>1086</ele>
        <time>2021-06-18T15:18:27Z</time>
      </trkpt>
      <trkpt lat="43.03208" lon="-1.36684">
        <ele>1085</ele>
        <time>2021-06-18T15:18:39Z</time>
      </trkpt>
      <trkpt lat="43.0318" lon="-1.36648">
        <ele>1089</ele>
        <time>2021-06-18T15:18:48Z</time>
      </trkpt>
      <trkpt lat="43.03156" lon="-1.36623">
        <ele>1088</ele>
        <time>2021-06-18T15:18:55Z</time>
      </trkpt>
      <trkpt lat="43.03152" lon="-1.36615">
        <ele>1087</ele>
        <time>2021-06-18T15:18:57Z</time>
      </trkpt>
      <trkpt lat="43.03128" lon="-1.3659">
        <ele>1087</ele>
        <time>2021-06-18T15:19:04Z</time>
      </trkpt>
      <trkpt lat="43.03113" lon="-1.36583">
        <ele>1088</ele>
        <time>2021-06-18T15:19:07Z</time>
      </trkpt>
      <trkpt lat="43.03094" lon="-1.3658">
        <ele>1090</ele>
        <time>2021-06-18T15:19:12Z</time>
      </trkpt>
      <trkpt lat="43.03082" lon="-1.36574">
        <ele>1092</ele>
        <time>2021-06-18T15:19:15Z</time>
      </trkpt>
      <trkpt lat="43.03067" lon="-1.36552">
        <ele>1091</ele>
        <time>2021-06-18T15:19:20Z</time>
      </trkpt>
      <trkpt lat="43.0306" lon="-1.36546">
        <ele>1092</ele>
        <time>2021-06-18T15:19:22Z</time>
      </trkpt>
      <trkpt lat="43.03063" lon="-1.36528">
        <ele>1092</ele>
        <time>2021-06-18T15:19:25Z</time>
      </trkpt>
      <trkpt lat="43.03072" lon="-1.36523">
        <ele>1091</ele>
        <time>2021-06-18T15:19:27Z</time>
      </trkpt>
      <trkpt lat="43.03054" lon="-1.36513">
        <ele>1094</ele>
        <time>2021-06-18T15:19:32Z</time>
      </trkpt>
      <trkpt lat="43.02972" lon="-1.36034">
        <ele>1205</ele>
        <time>2021-06-18T15:20:56Z</time>
      </trkpt>
      <trkpt lat="43.02966" lon="-1.35979">
        <ele>1207</ele>
        <time>2021-06-18T15:21:05Z</time>
      </trkpt>
      <trkpt lat="43.02865" lon="-1.35607">
        <ele>1172</ele>
        <time>2021-06-18T15:22:13Z</time>
      </trkpt>
      <trkpt lat="43.02855" lon="-1.3556">
        <ele>1170</ele>
        <time>2021-06-18T15:22:21Z</time>
      </trkpt>
      <trkpt lat="43.02853" lon="-1.3552">
        <ele>1170</ele>
        <time>2021-06-18T15:22:28Z</time>
      </trkpt>
      <trkpt lat="43.02856" lon="-1.35517">
        <ele>1170</ele>
        <time>2021-06-18T15:22:29Z</time>
      </trkpt>
      <trkpt lat="43.02834" lon="-1.35396">
        <ele>1180</ele>
        <time>2021-06-18T15:22:50Z</time>
      </trkpt>
      <trkpt lat="43.02836" lon="-1.35383">
        <ele>1179</ele>
        <time>2021-06-18T15:22:53Z</time>
      </trkpt>
      <trkpt lat="43.02817" lon="-1.35371">
        <ele>1181</ele>
        <time>2021-06-18T15:22:58Z</time>
      </trkpt>
      <trkpt lat="43.028" lon="-1.3535">
        <ele>1184</ele>
        <time>2021-06-18T15:23:03Z</time>
      </trkpt>
      <trkpt lat="43.02787" lon="-1.35316">
        <ele>1187</ele>
        <time>2021-06-18T15:23:09Z</time>
      </trkpt>
      <trkpt lat="43.02776" lon="-1.35252">
        <ele>1187</ele>
        <time>2021-06-18T15:23:21Z</time>
      </trkpt>
      <trkpt lat="43.0277" lon="-1.35165">
        <ele>1177</ele>
        <time>2021-06-18T15:23:36Z</time>
      </trkpt>
      <trkpt lat="43.02755" lon="-1.35103">
        <ele>1175</ele>
        <time>2021-06-18T15:23:47Z</time>
      </trkpt>
      <trkpt lat="43.02738" lon="-1.35017">
        <ele>1163</ele>
        <time>2021-06-18T15:24:02Z</time>
      </trkpt>
      <trkpt lat="43.02706" lon="-1.34926">
        <ele>1155</ele>
        <time>2021-06-18T15:24:19Z</time>
      </trkpt>
      <trkpt lat="43.02697" lon="-1.34894">
        <ele>1151</ele>
        <time>2021-06-18T15:24:25Z</time>
      </trkpt>
      <trkpt lat="43.02677" lon="-1.34743">
        <ele>1136</ele>
        <time>2021-06-18T15:24:51Z</time>
      </trkpt>
      <trkpt lat="43.02668" lon="-1.347">
        <ele>1128</ele>
        <time>2021-06-18T15:24:59Z</time>
      </trkpt>
      <trkpt lat="43.02639" lon="-1.34622">
        <ele>1112</ele>
        <time>2021-06-18T15:25:14Z</time>
      </trkpt>
      <trkpt lat="43.02606" lon="-1.34547">
        <ele>1101</ele>
        <time>2021-06-18T15:25:29Z</time>
      </trkpt>
      <trkpt lat="43.0259" lon="-1.34409">
        <ele>1090</ele>
        <time>2021-06-18T15:25:53Z</time>
      </trkpt>
      <trkpt lat="43.02589" lon="-1.3436">
        <ele>1088</ele>
        <time>2021-06-18T15:26:01Z</time>
      </trkpt>
      <trkpt lat="43.02599" lon="-1.34284">
        <ele>1083</ele>
        <time>2021-06-18T15:26:14Z</time>
      </trkpt>
      <trkpt lat="43.026" lon="-1.34228">
        <ele>1080</ele>
        <time>2021-06-18T15:26:24Z</time>
      </trkpt>
      <trkpt lat="43.02596" lon="-1.34202">
        <ele>1080</ele>
        <time>2021-06-18T15:26:28Z</time>
      </trkpt>
      <trkpt lat="43.02595" lon="-1.3412">
        <ele>1077</ele>
        <time>2021-06-18T15:26:42Z</time>
      </trkpt>
      <trkpt lat="43.02587" lon="-1.34052">
        <ele>1075</ele>
        <time>2021-06-18T15:26:54Z</time>
      </trkpt>
      <trkpt lat="43.02584" lon="-1.33992">
        <ele>1076</ele>
        <time>2021-06-18T15:27:04Z</time>
      </trkpt>
      <trkpt lat="43.02589" lon="-1.33891">
        <ele>1084</ele>
        <time>2021-06-18T15:27:22Z</time>
      </trkpt>
      <trkpt lat="43.02563" lon="-1.33727">
        <ele>1092</ele>
        <time>2021-06-18T15:27:50Z</time>
      </trkpt>
      <trkpt lat="43.02525" lon="-1.33627">
        <ele>1097</ele>
        <time>2021-06-18T15:28:09Z</time>
      </trkpt>
      <trkpt lat="43.0252" lon="-1.33602">
        <ele>1097</ele>
        <time>2021-06-18T15:28:14Z</time>
      </trkpt>
      <trkpt lat="43.02514" lon="-1.33535">
        <ele>1097</ele>
        <time>2021-06-18T15:28:25Z</time>
      </trkpt>
      <trkpt lat="43.02517" lon="-1.33509">
        <ele>1095</ele>
        <time>2021-06-18T15:28:30Z</time>
      </trkpt>
      <trkpt lat="43.02531" lon="-1.3346">
        <ele>1090</ele>
        <time>2021-06-18T15:28:39Z</time>
      </trkpt>
      <trkpt lat="43.02532" lon="-1.33403">
        <ele>1090</ele>
        <time>2021-06-18T15:28:49Z</time>
      </trkpt>
      <trkpt lat="43.02526" lon="-1.33358">
        <ele>1088</ele>
        <time>2021-06-18T15:28:56Z</time>
      </trkpt>
      <trkpt lat="43.0251" lon="-1.33329">
        <ele>1091</ele>
        <time>2021-06-18T15:29:03Z</time>
      </trkpt>
      <trkpt lat="43.02475" lon="-1.3328">
        <ele>1090</ele>
        <time>2021-06-18T15:29:14Z</time>
      </trkpt>
      <trkpt lat="43.02423" lon="-1.33221">
        <ele>1090</ele>
        <time>2021-06-18T15:29:30Z</time>
      </trkpt>
      <trkpt lat="43.02384" lon="-1.3317">
        <ele>1082</ele>
        <time>2021-06-18T15:29:43Z</time>
      </trkpt>
      <trkpt lat="43.02373" lon="-1.3316">
        <ele>1080</ele>
        <time>2021-06-18T15:29:46Z</time>
      </trkpt>
      <trkpt lat="43.02276" lon="-1.33132">
        <ele>1089</ele>
        <time>2021-06-18T15:30:09Z</time>
      </trkpt>
      <trkpt lat="43.02222" lon="-1.33084">
        <ele>1089</ele>
        <time>2021-06-18T15:30:24Z</time>
      </trkpt>
      <trkpt lat="43.02212" lon="-1.33071">
        <ele>1092</ele>
        <time>2021-06-18T15:30:27Z</time>
      </trkpt>
      <trkpt lat="43.02209" lon="-1.33056">
        <ele>1091</ele>
        <time>2021-06-18T15:30:30Z</time>
      </trkpt>
      <trkpt lat="43.02213" lon="-1.3291">
        <ele>1079</ele>
        <time>2021-06-18T15:30:55Z</time>
      </trkpt>
      <trkpt lat="43.02218" lon="-1.32866">
        <ele>1076</ele>
        <time>2021-06-18T15:31:02Z</time>
      </trkpt>
      <trkpt lat="43.02226" lon="-1.32838">
        <ele>1072</ele>
        <time>2021-06-18T15:31:08Z</time>
      </trkpt>
      <trkpt lat="43.02229" lon="-1.32816">
        <ele>1069</ele>
        <time>2021-06-18T15:31:11Z</time>
      </trkpt>
      <trkpt lat="43.02225" lon="-1.32799">
        <ele>1069</ele>
        <time>2021-06-18T15:31:14Z</time>
      </trkpt>
      <trkpt lat="43.02207" lon="-1.32756">
        <ele>1072</ele>
        <time>2021-06-18T15:31:23Z</time>
      </trkpt>
      <trkpt lat="43.02168" lon="-1.32683">
        <ele>1069</ele>
        <time>2021-06-18T15:31:38Z</time>
      </trkpt>
      <trkpt lat="43.02089" lon="-1.32583">
        <ele>1068</ele>
        <time>2021-06-18T15:32:03Z</time>
      </trkpt>
      <trkpt lat="43.01991" lon="-1.32425">
        <ele>1060</ele>
        <time>2021-06-18T15:32:39Z</time>
      </trkpt>
      <trkpt lat="43.01986" lon="-1.32413">
        <ele>1059</ele>
        <time>2021-06-18T15:32:41Z</time>
      </trkpt>
      <trkpt lat="43.01968" lon="-1.32398">
        <ele>1058</ele>
        <time>2021-06-18T15:32:46Z</time>
      </trkpt>
      <trkpt lat="43.01977" lon="-1.32394">
        <ele>1058</ele>
        <time>2021-06-18T15:32:48Z</time>
      </trkpt>
      <trkpt lat="43.01989" lon="-1.32394">
        <ele>1058</ele>
        <time>2021-06-18T15:32:51Z</time>
      </trkpt>
      <trkpt lat="43.02006" lon="-1.32398">
        <ele>1057</ele>
        <time>2021-06-18T15:32:55Z</time>
      </trkpt>
      <trkpt lat="43.02007" lon="-1.32392">
        <ele>1057</ele>
        <time>2021-06-18T15:32:56Z</time>
      </trkpt>
      <trkpt lat="43.01997" lon="-1.32378">
        <ele>1057</ele>
        <time>2021-06-18T15:33:00Z</time>
      </trkpt>
      <trkpt lat="43.01978" lon="-1.32372">
        <ele>1057</ele>
        <time>2021-06-18T15:33:04Z</time>
      </trkpt>
      <trkpt lat="43.01953" lon="-1.32358">
        <ele>1055</ele>
        <time>2021-06-18T15:33:10Z</time>
      </trkpt>
      <trkpt lat="43.01916" lon="-1.32321">
        <ele>1051</ele>
        <time>2021-06-18T15:33:21Z</time>
      </trkpt>
      <trkpt lat="43.01887" lon="-1.32277">
        <ele>1051</ele>
        <time>2021-06-18T15:33:31Z</time>
      </trkpt>
      <trkpt lat="43.01869" lon="-1.32259">
        <ele>1049</ele>
        <time>2021-06-18T15:33:36Z</time>
      </trkpt>
      <trkpt lat="43.01822" lon="-1.32223">
        <ele>1045</ele>
        <time>2021-06-18T15:33:49Z</time>
      </trkpt>
      <trkpt lat="43.01776" lon="-1.32184">
        <ele>1037</ele>
        <time>2021-06-18T15:34:02Z</time>
      </trkpt>
      <trkpt lat="43.01763" lon="-1.3217">
        <ele>1033</ele>
        <time>2021-06-18T15:34:05Z</time>
      </trkpt>
      <trkpt lat="43.01719" lon="-1.32113">
        <ele>1025</ele>
        <time>2021-06-18T15:34:20Z</time>
      </trkpt>
      <trkpt lat="43.01713" lon="-1.32046">
        <ele>1021</ele>
        <time>2021-06-18T15:34:31Z</time>
      </trkpt>
      <trkpt lat="43.01704" lon="-1.32034">
        <ele>1020</ele>
        <time>2021-06-18T15:34:34Z</time>
      </trkpt>
      <trkpt lat="43.0168" lon="-1.32022">
        <ele>1014</ele>
        <time>2021-06-18T15:34:40Z</time>
      </trkpt>
      <trkpt lat="43.01649" lon="-1.31995">
        <ele>1010</ele>
        <time>2021-06-18T15:34:49Z</time>
      </trkpt>
      <trkpt lat="43.01613" lon="-1.31957">
        <ele>1007</ele>
        <time>2021-06-18T15:34:59Z</time>
      </trkpt>
      <trkpt lat="43.01605" lon="-1.31944">
        <ele>1004</ele>
        <time>2021-06-18T15:35:02Z</time>
      </trkpt>
      <trkpt lat="43.01579" lon="-1.3186">
        <ele>995</ele>
        <time>2021-06-18T15:35:18Z</time>
      </trkpt>
      <trkpt lat="43.01546" lon="-1.31826">
        <ele>992</ele>
        <time>2021-06-18T15:35:27Z</time>
      </trkpt>
      <trkpt lat="43.01535" lon="-1.31802">
        <ele>989</ele>
        <time>2021-06-18T15:35:32Z</time>
      </trkpt>
      <trkpt lat="43.0149" lon="-1.31769">
        <ele>976</ele>
        <time>2021-06-18T15:35:44Z</time>
      </trkpt>
      <trkpt lat="43.01479" lon="-1.31764">
        <ele>973</ele>
        <time>2021-06-18T15:35:47Z</time>
      </trkpt>
      <trkpt lat="43.01477" lon="-1.31759">
        <ele>972</ele>
        <time>2021-06-18T15:35:48Z</time>
      </trkpt>
      <trkpt lat="43.01457" lon="-1.31745">
        <ele>967</ele>
        <time>2021-06-18T15:35:53Z</time>
      </trkpt>
      <trkpt lat="43.0145" lon="-1.31743">
        <ele>966</ele>
        <time>2021-06-18T15:35:55Z</time>
      </trkpt>
      <trkpt lat="43.01418" lon="-1.31744">
        <ele>961</ele>
        <time>2021-06-18T15:36:02Z</time>
      </trkpt>
      <trkpt lat="43.0132" lon="-1.3183">
        <ele>969</ele>
        <time>2021-06-18T15:36:29Z</time>
      </trkpt>
      <trkpt lat="43.01302" lon="-1.31839">
        <ele>969</ele>
        <time>2021-06-18T15:36:34Z</time>
      </trkpt>
      <trkpt lat="43.01267" lon="-1.31846">
        <ele>967</ele>
        <time>2021-06-18T15:36:42Z</time>
      </trkpt>
      <trkpt lat="43.01231" lon="-1.31845">
        <ele>964</ele>
        <time>2021-06-18T15:36:51Z</time>
      </trkpt>
      <trkpt lat="43.01222" lon="-1.31847">
        <ele>963</ele>
        <time>2021-06-18T15:36:53Z</time>
      </trkpt>
      <trkpt lat="43.01162" lon="-1.31874">
        <ele>963</ele>
        <time>2021-06-18T15:37:07Z</time>
      </trkpt>
      <trkpt lat="43.01117" lon="-1.3189">
        <ele>962</ele>
        <time>2021-06-18T15:37:18Z</time>
      </trkpt>
      <trkpt lat="43.01092" lon="-1.31893">
        <ele>960</ele>
        <time>2021-06-18T15:37:24Z</time>
      </trkpt>
      <trkpt lat="43.01064" lon="-1.319">
        <ele>958</ele>
        <time>2021-06-18T15:37:31Z</time>
      </trkpt>
      <trkpt lat="43.01058" lon="-1.31909">
        <ele>958</ele>
        <time>2021-06-18T15:37:33Z</time>
      </trkpt>
      <trkpt lat="43.01053" lon="-1.31911">
        <ele>958</ele>
        <time>2021-06-18T15:37:34Z</time>
      </trkpt>
      <trkpt lat="43.01054" lon="-1.31917">
        <ele>959</ele>
        <time>2021-06-18T15:37:35Z</time>
      </trkpt>
      <trkpt lat="43.01047" lon="-1.31971">
        <ele>969</ele>
        <time>2021-06-18T15:37:45Z</time>
      </trkpt>
      <trkpt lat="43.00991" lon="-1.31973">
        <ele>958</ele>
        <time>2021-06-18T15:37:58Z</time>
      </trkpt>
      <trkpt lat="43.00991" lon="-1.31979">
        <ele>959</ele>
        <time>2021-06-18T15:37:59Z</time>
      </trkpt>
      <trkpt lat="43.01075" lon="-1.31897">
        <ele>959</ele>
        <time>2021-06-18T15:38:23Z</time>
      </trkpt>
      <trkpt lat="43.01117" lon="-1.3189">
        <ele>962</ele>
        <time>2021-06-18T15:38:33Z</time>
      </trkpt>
      <trkpt lat="43.01162" lon="-1.31874">
        <ele>963</ele>
        <time>2021-06-18T15:38:43Z</time>
      </trkpt>
      <trkpt lat="43.01222" lon="-1.31847">
        <ele>963</ele>
        <time>2021-06-18T15:38:58Z</time>
      </trkpt>
      <trkpt lat="43.01231" lon="-1.31845">
        <ele>964</ele>
        <time>2021-06-18T15:39:00Z</time>
      </trkpt>
      <trkpt lat="43.01267" lon="-1.31846">
        <ele>967</ele>
        <time>2021-06-18T15:39:09Z</time>
      </trkpt>
      <trkpt lat="43.01302" lon="-1.31839">
        <ele>969</ele>
        <time>2021-06-18T15:39:17Z</time>
      </trkpt>
      <trkpt lat="43.0132" lon="-1.3183">
        <ele>969</ele>
        <time>2021-06-18T15:39:22Z</time>
      </trkpt>
      <trkpt lat="43.01418" lon="-1.31744">
        <ele>961</ele>
        <time>2021-06-18T15:39:49Z</time>
      </trkpt>
      <trkpt lat="43.01448" lon="-1.31742">
        <ele>966</ele>
        <time>2021-06-18T15:39:56Z</time>
      </trkpt>
      <trkpt lat="43.01457" lon="-1.31745">
        <ele>967</ele>
        <time>2021-06-18T15:39:58Z</time>
      </trkpt>
      <trkpt lat="43.01477" lon="-1.31759">
        <ele>972</ele>
        <time>2021-06-18T15:40:03Z</time>
      </trkpt>
      <trkpt lat="43.01479" lon="-1.31764">
        <ele>973</ele>
        <time>2021-06-18T15:40:04Z</time>
      </trkpt>
      <trkpt lat="43.0149" lon="-1.31769">
        <ele>976</ele>
        <time>2021-06-18T15:40:07Z</time>
      </trkpt>
      <trkpt lat="43.01535" lon="-1.31802">
        <ele>989</ele>
        <time>2021-06-18T15:40:19Z</time>
      </trkpt>
      <trkpt lat="43.01546" lon="-1.31826">
        <ele>992</ele>
        <time>2021-06-18T15:40:24Z</time>
      </trkpt>
      <trkpt lat="43.01579" lon="-1.3186">
        <ele>995</ele>
        <time>2021-06-18T15:40:33Z</time>
      </trkpt>
      <trkpt lat="43.01605" lon="-1.31944">
        <ele>1004</ele>
        <time>2021-06-18T15:40:49Z</time>
      </trkpt>
      <trkpt lat="43.01613" lon="-1.31957">
        <ele>1007</ele>
        <time>2021-06-18T15:40:52Z</time>
      </trkpt>
      <trkpt lat="43.01649" lon="-1.31995">
        <ele>1010</ele>
        <time>2021-06-18T15:41:02Z</time>
      </trkpt>
      <trkpt lat="43.0168" lon="-1.32022">
        <ele>1014</ele>
        <time>2021-06-18T15:41:11Z</time>
      </trkpt>
      <trkpt lat="43.01704" lon="-1.32034">
        <ele>1020</ele>
        <time>2021-06-18T15:41:17Z</time>
      </trkpt>
      <trkpt lat="43.01713" lon="-1.32046">
        <ele>1021</ele>
        <time>2021-06-18T15:41:20Z</time>
      </trkpt>
      <trkpt lat="43.01779" lon="-1.3202">
        <ele>1038</ele>
        <time>2021-06-18T15:41:36Z</time>
      </trkpt>
      <trkpt lat="43.01893" lon="-1.32114">
        <ele>1067</ele>
        <time>2021-06-18T15:42:07Z</time>
      </trkpt>
      <trkpt lat="43.01908" lon="-1.32135">
        <ele>1069</ele>
        <time>2021-06-18T15:42:12Z</time>
      </trkpt>
      <trkpt lat="43.01934" lon="-1.32163">
        <ele>1070</ele>
        <time>2021-06-18T15:42:20Z</time>
      </trkpt>
      <trkpt lat="43.01979" lon="-1.32191">
        <ele>1068</ele>
        <time>2021-06-18T15:42:31Z</time>
      </trkpt>
      <trkpt lat="43.01986" lon="-1.32192">
        <ele>1068</ele>
        <time>2021-06-18T15:42:33Z</time>
      </trkpt>
      <trkpt lat="43.01988" lon="-1.32183">
        <ele>1069</ele>
        <time>2021-06-18T15:42:34Z</time>
      </trkpt>
      <trkpt lat="43.02008" lon="-1.32172">
        <ele>1071</ele>
        <time>2021-06-18T15:42:39Z</time>
      </trkpt>
      <trkpt lat="43.02034" lon="-1.32125">
        <ele>1076</ele>
        <time>2021-06-18T15:42:50Z</time>
      </trkpt>
      <trkpt lat="43.02049" lon="-1.32104">
        <ele>1078</ele>
        <time>2021-06-18T15:42:55Z</time>
      </trkpt>
      <trkpt lat="43.02063" lon="-1.32067">
        <ele>1082</ele>
        <time>2021-06-18T15:43:02Z</time>
      </trkpt>
      <trkpt lat="43.02073" lon="-1.32055">
        <ele>1084</ele>
        <time>2021-06-18T15:43:05Z</time>
      </trkpt>
      <trkpt lat="43.02073" lon="-1.32038">
        <ele>1085</ele>
        <time>2021-06-18T15:43:08Z</time>
      </trkpt>
      <trkpt lat="43.02076" lon="-1.32026">
        <ele>1086</ele>
        <time>2021-06-18T15:43:10Z</time>
      </trkpt>
      <trkpt lat="43.02074" lon="-1.32019">
        <ele>1086</ele>
        <time>2021-06-18T15:43:11Z</time>
      </trkpt>
      <trkpt lat="43.02075" lon="-1.3199">
        <ele>1088</ele>
        <time>2021-06-18T15:43:16Z</time>
      </trkpt>
      <trkpt lat="43.02061" lon="-1.31973">
        <ele>1088</ele>
        <time>2021-06-18T15:43:20Z</time>
      </trkpt>
      <trkpt lat="43.02027" lon="-1.31911">
        <ele>1090</ele>
        <time>2021-06-18T15:43:34Z</time>
      </trkpt>
      <trkpt lat="43.02014" lon="-1.31865">
        <ele>1098</ele>
        <time>2021-06-18T15:43:42Z</time>
      </trkpt>
      <trkpt lat="43.02005" lon="-1.31847">
        <ele>1101</ele>
        <time>2021-06-18T15:43:46Z</time>
      </trkpt>
      <trkpt lat="43.01968" lon="-1.31801">
        <ele>1103</ele>
        <time>2021-06-18T15:43:58Z</time>
      </trkpt>
      <trkpt lat="43.01946" lon="-1.31782">
        <ele>1101</ele>
        <time>2021-06-18T15:44:04Z</time>
      </trkpt>
      <trkpt lat="43.01944" lon="-1.31776">
        <ele>1102</ele>
        <time>2021-06-18T15:44:05Z</time>
      </trkpt>
      <trkpt lat="43.01945" lon="-1.31767">
        <ele>1103</ele>
        <time>2021-06-18T15:44:06Z</time>
      </trkpt>
      <trkpt lat="43.01953" lon="-1.31763">
        <ele>1105</ele>
        <time>2021-06-18T15:44:08Z</time>
      </trkpt>
      <trkpt lat="43.0196" lon="-1.31766">
        <ele>1105</ele>
        <time>2021-06-18T15:44:10Z</time>
      </trkpt>
      <trkpt lat="43.02037" lon="-1.31833">
        <ele>1110</ele>
        <time>2021-06-18T15:44:31Z</time>
      </trkpt>
      <trkpt lat="43.0205" lon="-1.31838">
        <ele>1111</ele>
        <time>2021-06-18T15:44:34Z</time>
      </trkpt>
      <trkpt lat="43.02089" lon="-1.31837">
        <ele>1117</ele>
        <time>2021-06-18T15:44:44Z</time>
      </trkpt>
      <trkpt lat="43.02094" lon="-1.31832">
        <ele>1118</ele>
        <time>2021-06-18T15:44:45Z</time>
      </trkpt>
      <trkpt lat="43.02094" lon="-1.31822">
        <ele>1120</ele>
        <time>2021-06-18T15:44:47Z</time>
      </trkpt>
      <trkpt lat="43.02089" lon="-1.31817">
        <ele>1121</ele>
        <time>2021-06-18T15:44:48Z</time>
      </trkpt>
      <trkpt lat="43.02069" lon="-1.31815">
        <ele>1118</ele>
        <time>2021-06-18T15:44:53Z</time>
      </trkpt>
      <trkpt lat="43.02056" lon="-1.31806">
        <ele>1117</ele>
        <time>2021-06-18T15:44:56Z</time>
      </trkpt>
      <trkpt lat="43.02026" lon="-1.31763">
        <ele>1117</ele>
        <time>2021-06-18T15:45:06Z</time>
      </trkpt>
      <trkpt lat="43.02023" lon="-1.31749">
        <ele>1119</ele>
        <time>2021-06-18T15:45:09Z</time>
      </trkpt>
      <trkpt lat="43.02027" lon="-1.31737">
        <ele>1118</ele>
        <time>2021-06-18T15:45:11Z</time>
      </trkpt>
      <trkpt lat="43.02045" lon="-1.31716">
        <ele>1120</ele>
        <time>2021-06-18T15:45:17Z</time>
      </trkpt>
      <trkpt lat="43.02063" lon="-1.317">
        <ele>1122</ele>
        <time>2021-06-18T15:45:22Z</time>
      </trkpt>
      <trkpt lat="43.02087" lon="-1.31692">
        <ele>1127</ele>
        <time>2021-06-18T15:45:27Z</time>
      </trkpt>
      <trkpt lat="43.02176" lon="-1.31676">
        <ele>1138</ele>
        <time>2021-06-18T15:45:48Z</time>
      </trkpt>
      <trkpt lat="43.02275" lon="-1.31643">
        <ele>1145</ele>
        <time>2021-06-18T15:46:12Z</time>
      </trkpt>
      <trkpt lat="43.02309" lon="-1.31646">
        <ele>1148</ele>
        <time>2021-06-18T15:46:20Z</time>
      </trkpt>
      <trkpt lat="43.02313" lon="-1.31644">
        <ele>1149</ele>
        <time>2021-06-18T15:46:21Z</time>
      </trkpt>
      <trkpt lat="43.02317" lon="-1.31636">
        <ele>1149</ele>
        <time>2021-06-18T15:46:23Z</time>
      </trkpt>
      <trkpt lat="43.02314" lon="-1.31609">
        <ele>1149</ele>
        <time>2021-06-18T15:46:27Z</time>
      </trkpt>
      <trkpt lat="43.02319" lon="-1.3153">
        <ele>1153</ele>
        <time>2021-06-18T15:46:41Z</time>
      </trkpt>
      <trkpt lat="43.02333" lon="-1.31447">
        <ele>1161</ele>
        <time>2021-06-18T15:46:56Z</time>
      </trkpt>
      <trkpt lat="43.02333" lon="-1.31423">
        <ele>1161</ele>
        <time>2021-06-18T15:47:00Z</time>
      </trkpt>
      <trkpt lat="43.02337" lon="-1.31403">
        <ele>1161</ele>
        <time>2021-06-18T15:47:03Z</time>
      </trkpt>
      <trkpt lat="43.02352" lon="-1.31381">
        <ele>1164</ele>
        <time>2021-06-18T15:47:08Z</time>
      </trkpt>
      <trkpt lat="43.02365" lon="-1.31371">
        <ele>1167</ele>
        <time>2021-06-18T15:47:12Z</time>
      </trkpt>
      <trkpt lat="43.02403" lon="-1.31361">
        <ele>1178</ele>
        <time>2021-06-18T15:47:21Z</time>
      </trkpt>
      <trkpt lat="43.02412" lon="-1.31356">
        <ele>1181</ele>
        <time>2021-06-18T15:47:23Z</time>
      </trkpt>
      <trkpt lat="43.0243" lon="-1.31335">
        <ele>1185</ele>
        <time>2021-06-18T15:47:29Z</time>
      </trkpt>
      <trkpt lat="43.02454" lon="-1.31291">
        <ele>1193</ele>
        <time>2021-06-18T15:47:38Z</time>
      </trkpt>
      <trkpt lat="43.02459" lon="-1.31288">
        <ele>1195</ele>
        <time>2021-06-18T15:47:39Z</time>
      </trkpt>
      <trkpt lat="43.02462" lon="-1.3129">
        <ele>1196</ele>
        <time>2021-06-18T15:47:40Z</time>
      </trkpt>
      <trkpt lat="43.02464" lon="-1.31299">
        <ele>1197</ele>
        <time>2021-06-18T15:47:42Z</time>
      </trkpt>
      <trkpt lat="43.0246" lon="-1.31378">
        <ele>1192</ele>
        <time>2021-06-18T15:47:55Z</time>
      </trkpt>
      <trkpt lat="43.02462" lon="-1.31388">
        <ele>1192</ele>
        <time>2021-06-18T15:47:57Z</time>
      </trkpt>
      <trkpt lat="43.02465" lon="-1.31392">
        <ele>1192</ele>
        <time>2021-06-18T15:47:58Z</time>
      </trkpt>
      <trkpt lat="43.02473" lon="-1.31394">
        <ele>1193</ele>
        <time>2021-06-18T15:48:00Z</time>
      </trkpt>
      <trkpt lat="43.02483" lon="-1.31387">
        <ele>1196</ele>
        <time>2021-06-18T15:48:02Z</time>
      </trkpt>
      <trkpt lat="43.02485" lon="-1.31379">
        <ele>1197</ele>
        <time>2021-06-18T15:48:04Z</time>
      </trkpt>
      <trkpt lat="43.02499" lon="-1.31255">
        <ele>1214</ele>
        <time>2021-06-18T15:48:25Z</time>
      </trkpt>
      <trkpt lat="43.025" lon="-1.31016">
        <ele>1223</ele>
        <time>2021-06-18T15:49:06Z</time>
      </trkpt>
      <trkpt lat="43.02515" lon="-1.30953">
        <ele>1228</ele>
        <time>2021-06-18T15:49:17Z</time>
      </trkpt>
      <trkpt lat="43.02533" lon="-1.30906">
        <ele>1234</ele>
        <time>2021-06-18T15:49:26Z</time>
      </trkpt>
      <trkpt lat="43.02536" lon="-1.30886">
        <ele>1236</ele>
        <time>2021-06-18T15:49:30Z</time>
      </trkpt>
      <trkpt lat="43.02564" lon="-1.30841">
        <ele>1246</ele>
        <time>2021-06-18T15:49:40Z</time>
      </trkpt>
      <trkpt lat="43.02582" lon="-1.30784">
        <ele>1258</ele>
        <time>2021-06-18T15:49:51Z</time>
      </trkpt>
      <trkpt lat="43.02584" lon="-1.30737">
        <ele>1265</ele>
        <time>2021-06-18T15:49:59Z</time>
      </trkpt>
      <trkpt lat="43.02588" lon="-1.30726">
        <ele>1267</ele>
        <time>2021-06-18T15:50:01Z</time>
      </trkpt>
      <trkpt lat="43.02586" lon="-1.30718">
        <ele>1269</ele>
        <time>2021-06-18T15:50:02Z</time>
      </trkpt>
      <trkpt lat="43.02613" lon="-1.30642">
        <ele>1275</ele>
        <time>2021-06-18T15:50:17Z</time>
      </trkpt>
      <trkpt lat="43.02623" lon="-1.30582">
        <ele>1284</ele>
        <time>2021-06-18T15:50:27Z</time>
      </trkpt>
      <trkpt lat="43.02638" lon="-1.30549">
        <ele>1288</ele>
        <time>2021-06-18T15:50:34Z</time>
      </trkpt>
      <trkpt lat="43.02674" lon="-1.30429">
        <ele>1312</ele>
        <time>2021-06-18T15:50:56Z</time>
      </trkpt>
      <trkpt lat="43.02676" lon="-1.30402">
        <ele>1313</ele>
        <time>2021-06-18T15:51:01Z</time>
      </trkpt>
      <trkpt lat="43.02685" lon="-1.30385">
        <ele>1314</ele>
        <time>2021-06-18T15:51:04Z</time>
      </trkpt>
      <trkpt lat="43.02694" lon="-1.30334">
        <ele>1318</ele>
        <time>2021-06-18T15:51:13Z</time>
      </trkpt>
      <trkpt lat="43.02702" lon="-1.30313">
        <ele>1321</ele>
        <time>2021-06-18T15:51:17Z</time>
      </trkpt>
      <trkpt lat="43.02717" lon="-1.3023">
        <ele>1332</ele>
        <time>2021-06-18T15:51:32Z</time>
      </trkpt>
      <trkpt lat="43.02736" lon="-1.30153">
        <ele>1346</ele>
        <time>2021-06-18T15:51:46Z</time>
      </trkpt>
      <trkpt lat="43.02749" lon="-1.30071">
        <ele>1358</ele>
        <time>2021-06-18T15:52:00Z</time>
      </trkpt>
      <trkpt lat="43.02749" lon="-1.29973">
        <ele>1367</ele>
        <time>2021-06-18T15:52:17Z</time>
      </trkpt>
      <trkpt lat="43.02742" lon="-1.29888">
        <ele>1379</ele>
        <time>2021-06-18T15:52:31Z</time>
      </trkpt>
      <trkpt lat="43.02735" lon="-1.29871">
        <ele>1381</ele>
        <time>2021-06-18T15:52:35Z</time>
      </trkpt>
      <trkpt lat="43.02718" lon="-1.29846">
        <ele>1382</ele>
        <time>2021-06-18T15:52:40Z</time>
      </trkpt>
      <trkpt lat="43.02669" lon="-1.29789">
        <ele>1385</ele>
        <time>2021-06-18T15:52:55Z</time>
      </trkpt>
      <trkpt lat="43.02646" lon="-1.29757">
        <ele>1393</ele>
        <time>2021-06-18T15:53:03Z</time>
      </trkpt>
      <trkpt lat="43.02624" lon="-1.29719">
        <ele>1401</ele>
        <time>2021-06-18T15:53:11Z</time>
      </trkpt>
      <trkpt lat="43.026" lon="-1.2966">
        <ele>1411</ele>
        <time>2021-06-18T15:53:23Z</time>
      </trkpt>
      <trkpt lat="43.0259" lon="-1.2965">
        <ele>1410</ele>
        <time>2021-06-18T15:53:26Z</time>
      </trkpt>
      <trkpt lat="43.02556" lon="-1.29652">
        <ele>1405</ele>
        <time>2021-06-18T15:53:34Z</time>
      </trkpt>
      <trkpt lat="43.02593" lon="-1.29607">
        <ele>1420</ele>
        <time>2021-06-18T15:53:45Z</time>
      </trkpt>
      <trkpt lat="43.02593" lon="-1.29598">
        <ele>1421</ele>
        <time>2021-06-18T15:53:47Z</time>
      </trkpt>
      <trkpt lat="43.02597" lon="-1.29594">
        <ele>1422</ele>
        <time>2021-06-18T15:53:48Z</time>
      </trkpt>
      <trkpt lat="43.02599" lon="-1.29585">
        <ele>1424</ele>
        <time>2021-06-18T15:53:50Z</time>
      </trkpt>
      <trkpt lat="43.02609" lon="-1.29582">
        <ele>1425</ele>
        <time>2021-06-18T15:53:52Z</time>
      </trkpt>
      <trkpt lat="43.02615" lon="-1.29574">
        <ele>1425</ele>
        <time>2021-06-18T15:53:54Z</time>
      </trkpt>
      <trkpt lat="43.02618" lon="-1.29567">
        <ele>1426</ele>
        <time>2021-06-18T15:53:55Z</time>
      </trkpt>
      <trkpt lat="43.02619" lon="-1.29546">
        <ele>1426</ele>
        <time>2021-06-18T15:53:59Z</time>
      </trkpt>
      <trkpt lat="43.02656" lon="-1.29533">
        <ele>1423</ele>
        <time>2021-06-18T15:54:08Z</time>
      </trkpt>
      <trkpt lat="43.02675" lon="-1.29534">
        <ele>1422</ele>
        <time>2021-06-18T15:54:12Z</time>
      </trkpt>
      <trkpt lat="43.02745" lon="-1.29555">
        <ele>1421</ele>
        <time>2021-06-18T15:54:29Z</time>
      </trkpt>
      <trkpt lat="43.02791" lon="-1.29572">
        <ele>1421</ele>
        <time>2021-06-18T15:54:40Z</time>
      </trkpt>
      <trkpt lat="43.0287" lon="-1.29609">
        <ele>1426</ele>
        <time>2021-06-18T15:55:00Z</time>
      </trkpt>
      <trkpt lat="43.02924" lon="-1.29624">
        <ele>1427</ele>
        <time>2021-06-18T15:55:13Z</time>
      </trkpt>
      <trkpt lat="43.02975" lon="-1.29616">
        <ele>1423</ele>
        <time>2021-06-18T15:55:25Z</time>
      </trkpt>
      <trkpt lat="43.03004" lon="-1.29595">
        <ele>1417</ele>
        <time>2021-06-18T15:55:32Z</time>
      </trkpt>
      <trkpt lat="43.03036" lon="-1.29544">
        <ele>1414</ele>
        <time>2021-06-18T15:55:44Z</time>
      </trkpt>
      <trkpt lat="43.03062" lon="-1.2951">
        <ele>1415</ele>
        <time>2021-06-18T15:55:52Z</time>
      </trkpt>
      <trkpt lat="43.03071" lon="-1.29484">
        <ele>1414</ele>
        <time>2021-06-18T15:55:57Z</time>
      </trkpt>
      <trkpt lat="43.03086" lon="-1.29401">
        <ele>1406</ele>
        <time>2021-06-18T15:56:12Z</time>
      </trkpt>
      <trkpt lat="43.03091" lon="-1.29388">
        <ele>1405</ele>
        <time>2021-06-18T15:56:14Z</time>
      </trkpt>
      <trkpt lat="43.03134" lon="-1.29342">
        <ele>1406</ele>
        <time>2021-06-18T15:56:27Z</time>
      </trkpt>
      <trkpt lat="43.03203" lon="-1.29254">
        <ele>1390</ele>
        <time>2021-06-18T15:56:49Z</time>
      </trkpt>
      <trkpt lat="43.03265" lon="-1.29193">
        <ele>1380</ele>
        <time>2021-06-18T15:57:07Z</time>
      </trkpt>
      <trkpt lat="43.03288" lon="-1.29174">
        <ele>1374</ele>
        <time>2021-06-18T15:57:13Z</time>
      </trkpt>
      <trkpt lat="43.03313" lon="-1.29168">
        <ele>1372</ele>
        <time>2021-06-18T15:57:19Z</time>
      </trkpt>
      <trkpt lat="43.03341" lon="-1.29172">
        <ele>1374</ele>
        <time>2021-06-18T15:57:25Z</time>
      </trkpt>
      <trkpt lat="43.03376" lon="-1.29185">
        <ele>1376</ele>
        <time>2021-06-18T15:57:34Z</time>
      </trkpt>
      <trkpt lat="43.03399" lon="-1.29189">
        <ele>1375</ele>
        <time>2021-06-18T15:57:39Z</time>
      </trkpt>
      <trkpt lat="43.03438" lon="-1.29178">
        <ele>1369</ele>
        <time>2021-06-18T15:57:49Z</time>
      </trkpt>
      <trkpt lat="43.03447" lon="-1.29172">
        <ele>1367</ele>
        <time>2021-06-18T15:57:51Z</time>
      </trkpt>
      <trkpt lat="43.03466" lon="-1.29114">
        <ele>1355</ele>
        <time>2021-06-18T15:58:02Z</time>
      </trkpt>
      <trkpt lat="43.03473" lon="-1.29103">
        <ele>1354</ele>
        <time>2021-06-18T15:58:04Z</time>
      </trkpt>
      <trkpt lat="43.0348" lon="-1.291">
        <ele>1353</ele>
        <time>2021-06-18T15:58:06Z</time>
      </trkpt>
      <trkpt lat="43.03491" lon="-1.2911">
        <ele>1354</ele>
        <time>2021-06-18T15:58:09Z</time>
      </trkpt>
      <trkpt lat="43.03529" lon="-1.2918">
        <ele>1361</ele>
        <time>2021-06-18T15:58:24Z</time>
      </trkpt>
      <trkpt lat="43.03537" lon="-1.29189">
        <ele>1362</ele>
        <time>2021-06-18T15:58:26Z</time>
      </trkpt>
      <trkpt lat="43.03545" lon="-1.29188">
        <ele>1361</ele>
        <time>2021-06-18T15:58:28Z</time>
      </trkpt>
      <trkpt lat="43.03564" lon="-1.29178">
        <ele>1357</ele>
        <time>2021-06-18T15:58:33Z</time>
      </trkpt>
      <trkpt lat="43.03593" lon="-1.29167">
        <ele>1352</ele>
        <time>2021-06-18T15:58:40Z</time>
      </trkpt>
      <trkpt lat="43.036" lon="-1.2916">
        <ele>1352</ele>
        <time>2021-06-18T15:58:42Z</time>
      </trkpt>
      <trkpt lat="43.03606" lon="-1.29151">
        <ele>1351</ele>
        <time>2021-06-18T15:58:44Z</time>
      </trkpt>
      <trkpt lat="43.03644" lon="-1.29064">
        <ele>1335</ele>
        <time>2021-06-18T15:59:02Z</time>
      </trkpt>
      <trkpt lat="43.0366" lon="-1.29044">
        <ele>1332</ele>
        <time>2021-06-18T15:59:07Z</time>
      </trkpt>
      <trkpt lat="43.03693" lon="-1.28923">
        <ele>1311</ele>
        <time>2021-06-18T15:59:29Z</time>
      </trkpt>
      <trkpt lat="43.03715" lon="-1.2888">
        <ele>1311</ele>
        <time>2021-06-18T15:59:38Z</time>
      </trkpt>
      <trkpt lat="43.03709" lon="-1.28878">
        <ele>1311</ele>
        <time>2021-06-18T15:59:39Z</time>
      </trkpt>
      <trkpt lat="43.03705" lon="-1.2888">
        <ele>1310</ele>
        <time>2021-06-18T15:59:40Z</time>
      </trkpt>
      <trkpt lat="43.03694" lon="-1.28894">
        <ele>1310</ele>
        <time>2021-06-18T15:59:44Z</time>
      </trkpt>
      <trkpt lat="43.03683" lon="-1.28915">
        <ele>1310</ele>
        <time>2021-06-18T15:59:48Z</time>
      </trkpt>
      <trkpt lat="43.03663" lon="-1.28981">
        <ele>1319</ele>
        <time>2021-06-18T16:00:00Z</time>
      </trkpt>
      <trkpt lat="43.03654" lon="-1.28998">
        <ele>1321</ele>
        <time>2021-06-18T16:00:04Z</time>
      </trkpt>
      <trkpt lat="43.03641" lon="-1.29015">
        <ele>1325</ele>
        <time>2021-06-18T16:00:08Z</time>
      </trkpt>
      <trkpt lat="43.03621" lon="-1.29018">
        <ele>1325</ele>
        <time>2021-06-18T16:00:13Z</time>
      </trkpt>
      <trkpt lat="43.03602" lon="-1.2901">
        <ele>1322</ele>
        <time>2021-06-18T16:00:17Z</time>
      </trkpt>
      <trkpt lat="43.03594" lon="-1.28998">
        <ele>1320</ele>
        <time>2021-06-18T16:00:20Z</time>
      </trkpt>
      <trkpt lat="43.0359" lon="-1.28961">
        <ele>1311</ele>
        <time>2021-06-18T16:00:26Z</time>
      </trkpt>
      <trkpt lat="43.03579" lon="-1.28946">
        <ele>1307</ele>
        <time>2021-06-18T16:00:30Z</time>
      </trkpt>
      <trkpt lat="43.03561" lon="-1.28937">
        <ele>1305</ele>
        <time>2021-06-18T16:00:35Z</time>
      </trkpt>
      <trkpt lat="43.03531" lon="-1.28934">
        <ele>1306</ele>
        <time>2021-06-18T16:00:42Z</time>
      </trkpt>
      <trkpt lat="43.03433" lon="-1.28944">
        <ele>1304</ele>
        <time>2021-06-18T16:01:04Z</time>
      </trkpt>
      <trkpt lat="43.03416" lon="-1.28954">
        <ele>1306</ele>
        <time>2021-06-18T16:01:09Z</time>
      </trkpt>
      <trkpt lat="43.0341" lon="-1.28968">
        <ele>1311</ele>
        <time>2021-06-18T16:01:12Z</time>
      </trkpt>
      <trkpt lat="43.03402" lon="-1.28974">
        <ele>1313</ele>
        <time>2021-06-18T16:01:14Z</time>
      </trkpt>
      <trkpt lat="43.0339" lon="-1.28976">
        <ele>1313</ele>
        <time>2021-06-18T16:01:17Z</time>
      </trkpt>
      <trkpt lat="43.03372" lon="-1.28967">
        <ele>1309</ele>
        <time>2021-06-18T16:01:21Z</time>
      </trkpt>
      <trkpt lat="43.03323" lon="-1.28957">
        <ele>1303</ele>
        <time>2021-06-18T16:01:33Z</time>
      </trkpt>
      <trkpt lat="43.03278" lon="-1.28935">
        <ele>1293</ele>
        <time>2021-06-18T16:01:44Z</time>
      </trkpt>
      <trkpt lat="43.03256" lon="-1.28934">
        <ele>1292</ele>
        <time>2021-06-18T16:01:49Z</time>
      </trkpt>
      <trkpt lat="43.03238" lon="-1.28941">
        <ele>1291</ele>
        <time>2021-06-18T16:01:53Z</time>
      </trkpt>
      <trkpt lat="43.03207" lon="-1.28974">
        <ele>1294</ele>
        <time>2021-06-18T16:02:02Z</time>
      </trkpt>
      <trkpt lat="43.03158" lon="-1.28999">
        <ele>1288</ele>
        <time>2021-06-18T16:02:15Z</time>
      </trkpt>
      <trkpt lat="43.03145" lon="-1.29015">
        <ele>1290</ele>
        <time>2021-06-18T16:02:19Z</time>
      </trkpt>
      <trkpt lat="43.03135" lon="-1.29036">
        <ele>1295</ele>
        <time>2021-06-18T16:02:23Z</time>
      </trkpt>
      <trkpt lat="43.03124" lon="-1.29052">
        <ele>1299</ele>
        <time>2021-06-18T16:02:27Z</time>
      </trkpt>
      <trkpt lat="43.03104" lon="-1.29057">
        <ele>1296</ele>
        <time>2021-06-18T16:02:31Z</time>
      </trkpt>
      <trkpt lat="43.03089" lon="-1.29051">
        <ele>1291</ele>
        <time>2021-06-18T16:02:35Z</time>
      </trkpt>
      <trkpt lat="43.03072" lon="-1.2904">
        <ele>1285</ele>
        <time>2021-06-18T16:02:40Z</time>
      </trkpt>
      <trkpt lat="43.03058" lon="-1.2904">
        <ele>1284</ele>
        <time>2021-06-18T16:02:43Z</time>
      </trkpt>
      <trkpt lat="43.0304" lon="-1.29045">
        <ele>1285</ele>
        <time>2021-06-18T16:02:47Z</time>
      </trkpt>
      <trkpt lat="43.03024" lon="-1.29055">
        <ele>1288</ele>
        <time>2021-06-18T16:02:51Z</time>
      </trkpt>
      <trkpt lat="43.03005" lon="-1.29055">
        <ele>1287</ele>
        <time>2021-06-18T16:02:56Z</time>
      </trkpt>
      <trkpt lat="43.02987" lon="-1.29044">
        <ele>1281</ele>
        <time>2021-06-18T16:03:00Z</time>
      </trkpt>
      <trkpt lat="43.02912" lon="-1.29048">
        <ele>1273</ele>
        <time>2021-06-18T16:03:18Z</time>
      </trkpt>
      <trkpt lat="43.02892" lon="-1.29056">
        <ele>1273</ele>
        <time>2021-06-18T16:03:23Z</time>
      </trkpt>
      <trkpt lat="43.02859" lon="-1.29093">
        <ele>1274</ele>
        <time>2021-06-18T16:03:33Z</time>
      </trkpt>
      <trkpt lat="43.02851" lon="-1.29115">
        <ele>1276</ele>
        <time>2021-06-18T16:03:37Z</time>
      </trkpt>
      <trkpt lat="43.02848" lon="-1.29169">
        <ele>1288</ele>
        <time>2021-06-18T16:03:46Z</time>
      </trkpt>
      <trkpt lat="43.02842" lon="-1.29178">
        <ele>1289</ele>
        <time>2021-06-18T16:03:48Z</time>
      </trkpt>
      <trkpt lat="43.0283" lon="-1.29174">
        <ele>1287</ele>
        <time>2021-06-18T16:03:51Z</time>
      </trkpt>
      <trkpt lat="43.02807" lon="-1.29115">
        <ele>1283</ele>
        <time>2021-06-18T16:04:02Z</time>
      </trkpt>
      <trkpt lat="43.02802" lon="-1.29085">
        <ele>1279</ele>
        <time>2021-06-18T16:04:08Z</time>
      </trkpt>
      <trkpt lat="43.02802" lon="-1.29058">
        <ele>1278</ele>
        <time>2021-06-18T16:04:12Z</time>
      </trkpt>
      <trkpt lat="43.02811" lon="-1.29034">
        <ele>1273</ele>
        <time>2021-06-18T16:04:17Z</time>
      </trkpt>
      <trkpt lat="43.02826" lon="-1.29012">
        <ele>1264</ele>
        <time>2021-06-18T16:04:22Z</time>
      </trkpt>
      <trkpt lat="43.02843" lon="-1.2897">
        <ele>1263</ele>
        <time>2021-06-18T16:04:30Z</time>
      </trkpt>
      <trkpt lat="43.0286" lon="-1.28949">
        <ele>1261</ele>
        <time>2021-06-18T16:04:36Z</time>
      </trkpt>
      <trkpt lat="43.02887" lon="-1.28922">
        <ele>1253</ele>
        <time>2021-06-18T16:04:43Z</time>
      </trkpt>
      <trkpt lat="43.0292" lon="-1.289">
        <ele>1245</ele>
        <time>2021-06-18T16:04:52Z</time>
      </trkpt>
      <trkpt lat="43.02988" lon="-1.28869">
        <ele>1233</ele>
        <time>2021-06-18T16:05:09Z</time>
      </trkpt>
      <trkpt lat="43.03007" lon="-1.28854">
        <ele>1229</ele>
        <time>2021-06-18T16:05:14Z</time>
      </trkpt>
      <trkpt lat="43.03025" lon="-1.28832">
        <ele>1225</ele>
        <time>2021-06-18T16:05:19Z</time>
      </trkpt>
      <trkpt lat="43.03044" lon="-1.28817">
        <ele>1223</ele>
        <time>2021-06-18T16:05:25Z</time>
      </trkpt>
      <trkpt lat="43.03081" lon="-1.28756">
        <ele>1211</ele>
        <time>2021-06-18T16:05:38Z</time>
      </trkpt>
      <trkpt lat="43.03097" lon="-1.28705">
        <ele>1214</ele>
        <time>2021-06-18T16:05:48Z</time>
      </trkpt>
      <trkpt lat="43.03118" lon="-1.28683">
        <ele>1208</ele>
        <time>2021-06-18T16:05:54Z</time>
      </trkpt>
      <trkpt lat="43.03142" lon="-1.28666">
        <ele>1198</ele>
        <time>2021-06-18T16:06:00Z</time>
      </trkpt>
      <trkpt lat="43.03168" lon="-1.28656">
        <ele>1188</ele>
        <time>2021-06-18T16:06:06Z</time>
      </trkpt>
      <trkpt lat="43.03219" lon="-1.28564">
        <ele>1182</ele>
        <time>2021-06-18T16:06:26Z</time>
      </trkpt>
      <trkpt lat="43.03239" lon="-1.28535">
        <ele>1176</ele>
        <time>2021-06-18T16:06:33Z</time>
      </trkpt>
      <trkpt lat="43.03255" lon="-1.28522">
        <ele>1174</ele>
        <time>2021-06-18T16:06:37Z</time>
      </trkpt>
      <trkpt lat="43.0327" lon="-1.28504">
        <ele>1180</ele>
        <time>2021-06-18T16:06:42Z</time>
      </trkpt>
      <trkpt lat="43.0328" lon="-1.28379">
        <ele>1175</ele>
        <time>2021-06-18T16:07:03Z</time>
      </trkpt>
      <trkpt lat="43.03276" lon="-1.28336">
        <ele>1170</ele>
        <time>2021-06-18T16:07:11Z</time>
      </trkpt>
      <trkpt lat="43.03262" lon="-1.28252">
        <ele>1155</ele>
        <time>2021-06-18T16:07:25Z</time>
      </trkpt>
      <trkpt lat="43.03248" lon="-1.28199">
        <ele>1148</ele>
        <time>2021-06-18T16:07:35Z</time>
      </trkpt>
      <trkpt lat="43.03246" lon="-1.28172">
        <ele>1148</ele>
        <time>2021-06-18T16:07:40Z</time>
      </trkpt>
      <trkpt lat="43.03258" lon="-1.28088">
        <ele>1144</ele>
        <time>2021-06-18T16:07:54Z</time>
      </trkpt>
      <trkpt lat="43.03259" lon="-1.28065">
        <ele>1143</ele>
        <time>2021-06-18T16:07:58Z</time>
      </trkpt>
      <trkpt lat="43.03251" lon="-1.28037">
        <ele>1138</ele>
        <time>2021-06-18T16:08:03Z</time>
      </trkpt>
      <trkpt lat="43.03233" lon="-1.27997">
        <ele>1135</ele>
        <time>2021-06-18T16:08:11Z</time>
      </trkpt>
      <trkpt lat="43.03229" lon="-1.27972">
        <ele>1134</ele>
        <time>2021-06-18T16:08:16Z</time>
      </trkpt>
      <trkpt lat="43.03238" lon="-1.27887">
        <ele>1129</ele>
        <time>2021-06-18T16:08:30Z</time>
      </trkpt>
      <trkpt lat="43.03235" lon="-1.27838">
        <ele>1125</ele>
        <time>2021-06-18T16:08:39Z</time>
      </trkpt>
      <trkpt lat="43.03241" lon="-1.27814">
        <ele>1120</ele>
        <time>2021-06-18T16:08:43Z</time>
      </trkpt>
      <trkpt lat="43.0324" lon="-1.27754">
        <ele>1111</ele>
        <time>2021-06-18T16:08:53Z</time>
      </trkpt>
      <trkpt lat="43.03246" lon="-1.27735">
        <ele>1106</ele>
        <time>2021-06-18T16:08:57Z</time>
      </trkpt>
      <trkpt lat="43.03261" lon="-1.27718">
        <ele>1107</ele>
        <time>2021-06-18T16:09:01Z</time>
      </trkpt>
      <trkpt lat="43.03268" lon="-1.27688">
        <ele>1106</ele>
        <time>2021-06-18T16:09:07Z</time>
      </trkpt>
      <trkpt lat="43.03272" lon="-1.27653">
        <ele>1105</ele>
        <time>2021-06-18T16:09:13Z</time>
      </trkpt>
      <trkpt lat="43.03268" lon="-1.27622">
        <ele>1102</ele>
        <time>2021-06-18T16:09:18Z</time>
      </trkpt>
      <trkpt lat="43.0326" lon="-1.27596">
        <ele>1098</ele>
        <time>2021-06-18T16:09:23Z</time>
      </trkpt>
      <trkpt lat="43.03245" lon="-1.27566">
        <ele>1095</ele>
        <time>2021-06-18T16:09:29Z</time>
      </trkpt>
      <trkpt lat="43.03222" lon="-1.27551">
        <ele>1095</ele>
        <time>2021-06-18T16:09:35Z</time>
      </trkpt>
      <trkpt lat="43.03201" lon="-1.27542">
        <ele>1093</ele>
        <time>2021-06-18T16:09:40Z</time>
      </trkpt>
      <trkpt lat="43.03183" lon="-1.27525">
        <ele>1090</ele>
        <time>2021-06-18T16:09:46Z</time>
      </trkpt>
      <trkpt lat="43.0318" lon="-1.27507">
        <ele>1087</ele>
        <time>2021-06-18T16:09:49Z</time>
      </trkpt>
      <trkpt lat="43.03194" lon="-1.27436">
        <ele>1086</ele>
        <time>2021-06-18T16:10:01Z</time>
      </trkpt>
      <trkpt lat="43.03225" lon="-1.27337">
        <ele>1080</ele>
        <time>2021-06-18T16:10:20Z</time>
      </trkpt>
      <trkpt lat="43.03236" lon="-1.2731">
        <ele>1077</ele>
        <time>2021-06-18T16:10:25Z</time>
      </trkpt>
      <trkpt lat="43.03266" lon="-1.27254">
        <ele>1072</ele>
        <time>2021-06-18T16:10:37Z</time>
      </trkpt>
      <trkpt lat="43.03284" lon="-1.27242">
        <ele>1074</ele>
        <time>2021-06-18T16:10:41Z</time>
      </trkpt>
      <trkpt lat="43.03294" lon="-1.27194">
        <ele>1074</ele>
        <time>2021-06-18T16:10:50Z</time>
      </trkpt>
      <trkpt lat="43.03311" lon="-1.27139">
        <ele>1071</ele>
        <time>2021-06-18T16:11:00Z</time>
      </trkpt>
      <trkpt lat="43.03336" lon="-1.27089">
        <ele>1063</ele>
        <time>2021-06-18T16:11:10Z</time>
      </trkpt>
      <trkpt lat="43.03337" lon="-1.27055">
        <ele>1064</ele>
        <time>2021-06-18T16:11:16Z</time>
      </trkpt>
      <trkpt lat="43.03333" lon="-1.26968">
        <ele>1062</ele>
        <time>2021-06-18T16:11:31Z</time>
      </trkpt>
      <trkpt lat="43.03337" lon="-1.26947">
        <ele>1061</ele>
        <time>2021-06-18T16:11:35Z</time>
      </trkpt>
      <trkpt lat="43.03336" lon="-1.26922">
        <ele>1059</ele>
        <time>2021-06-18T16:11:39Z</time>
      </trkpt>
      <trkpt lat="43.0333" lon="-1.26899">
        <ele>1058</ele>
        <time>2021-06-18T16:11:43Z</time>
      </trkpt>
      <trkpt lat="43.03315" lon="-1.26868">
        <ele>1062</ele>
        <time>2021-06-18T16:11:50Z</time>
      </trkpt>
      <trkpt lat="43.03285" lon="-1.26776">
        <ele>1061</ele>
        <time>2021-06-18T16:12:07Z</time>
      </trkpt>
      <trkpt lat="43.03276" lon="-1.26737">
        <ele>1058</ele>
        <time>2021-06-18T16:12:14Z</time>
      </trkpt>
      <trkpt lat="43.03269" lon="-1.26718">
        <ele>1056</ele>
        <time>2021-06-18T16:12:17Z</time>
      </trkpt>
      <trkpt lat="43.03259" lon="-1.26696">
        <ele>1052</ele>
        <time>2021-06-18T16:12:22Z</time>
      </trkpt>
      <trkpt lat="43.03247" lon="-1.26681">
        <ele>1050</ele>
        <time>2021-06-18T16:12:26Z</time>
      </trkpt>
      <trkpt lat="43.03231" lon="-1.26669">
        <ele>1056</ele>
        <time>2021-06-18T16:12:30Z</time>
      </trkpt>
      <trkpt lat="43.03222" lon="-1.26659">
        <ele>1060</ele>
        <time>2021-06-18T16:12:33Z</time>
      </trkpt>
      <trkpt lat="43.03215" lon="-1.26642">
        <ele>1060</ele>
        <time>2021-06-18T16:12:36Z</time>
      </trkpt>
      <trkpt lat="43.0318" lon="-1.2652">
        <ele>1053</ele>
        <time>2021-06-18T16:12:58Z</time>
      </trkpt>
      <trkpt lat="43.03171" lon="-1.26476">
        <ele>1050</ele>
        <time>2021-06-18T16:13:06Z</time>
      </trkpt>
      <trkpt lat="43.03168" lon="-1.26447">
        <ele>1049</ele>
        <time>2021-06-18T16:13:11Z</time>
      </trkpt>
      <trkpt lat="43.03178" lon="-1.26382">
        <ele>1047</ele>
        <time>2021-06-18T16:13:22Z</time>
      </trkpt>
      <trkpt lat="43.03189" lon="-1.26342">
        <ele>1045</ele>
        <time>2021-06-18T16:13:30Z</time>
      </trkpt>
      <trkpt lat="43.032" lon="-1.26266">
        <ele>1044</ele>
        <time>2021-06-18T16:13:43Z</time>
      </trkpt>
      <trkpt lat="43.03206" lon="-1.2624">
        <ele>1042</ele>
        <time>2021-06-18T16:13:48Z</time>
      </trkpt>
      <trkpt lat="43.03229" lon="-1.2618">
        <ele>1033</ele>
        <time>2021-06-18T16:13:59Z</time>
      </trkpt>
      <trkpt lat="43.0325" lon="-1.26148">
        <ele>1026</ele>
        <time>2021-06-18T16:14:07Z</time>
      </trkpt>
      <trkpt lat="43.03272" lon="-1.2613">
        <ele>1028</ele>
        <time>2021-06-18T16:14:13Z</time>
      </trkpt>
      <trkpt lat="43.03323" lon="-1.261">
        <ele>1019</ele>
        <time>2021-06-18T16:14:26Z</time>
      </trkpt>
      <trkpt lat="43.03408" lon="-1.2602">
        <ele>1019</ele>
        <time>2021-06-18T16:14:50Z</time>
      </trkpt>
      <trkpt lat="43.03413" lon="-1.26006">
        <ele>1016</ele>
        <time>2021-06-18T16:14:52Z</time>
      </trkpt>
      <trkpt lat="43.03418" lon="-1.25979">
        <ele>1014</ele>
        <time>2021-06-18T16:14:57Z</time>
      </trkpt>
      <trkpt lat="43.0341" lon="-1.25925">
        <ele>1012</ele>
        <time>2021-06-18T16:15:06Z</time>
      </trkpt>
      <trkpt lat="43.034" lon="-1.259">
        <ele>1013</ele>
        <time>2021-06-18T16:15:11Z</time>
      </trkpt>
      <trkpt lat="43.0336" lon="-1.25849">
        <ele>1015</ele>
        <time>2021-06-18T16:15:24Z</time>
      </trkpt>
      <trkpt lat="43.03353" lon="-1.25834">
        <ele>1014</ele>
        <time>2021-06-18T16:15:27Z</time>
      </trkpt>
      <trkpt lat="43.03328" lon="-1.25749">
        <ele>994</ele>
        <time>2021-06-18T16:15:43Z</time>
      </trkpt>
      <trkpt lat="43.03313" lon="-1.25723">
        <ele>999</ele>
        <time>2021-06-18T16:15:48Z</time>
      </trkpt>
      <trkpt lat="43.03292" lon="-1.25646">
        <ele>999</ele>
        <time>2021-06-18T16:16:02Z</time>
      </trkpt>
      <trkpt lat="43.03289" lon="-1.25628">
        <ele>999</ele>
        <time>2021-06-18T16:16:06Z</time>
      </trkpt>
      <trkpt lat="43.03286" lon="-1.25555">
        <ele>995</ele>
        <time>2021-06-18T16:16:18Z</time>
      </trkpt>
      <trkpt lat="43.03275" lon="-1.25484">
        <ele>987</ele>
        <time>2021-06-18T16:16:30Z</time>
      </trkpt>
      <trkpt lat="43.03269" lon="-1.25468">
        <ele>984</ele>
        <time>2021-06-18T16:16:34Z</time>
      </trkpt>
      <trkpt lat="43.0323" lon="-1.25395">
        <ele>977</ele>
        <time>2021-06-18T16:16:49Z</time>
      </trkpt>
      <trkpt lat="43.03218" lon="-1.2538">
        <ele>978</ele>
        <time>2021-06-18T16:16:53Z</time>
      </trkpt>
      <trkpt lat="43.03206" lon="-1.25374">
        <ele>977</ele>
        <time>2021-06-18T16:16:56Z</time>
      </trkpt>
      <trkpt lat="43.03196" lon="-1.25373">
        <ele>976</ele>
        <time>2021-06-18T16:16:58Z</time>
      </trkpt>
      <trkpt lat="43.03185" lon="-1.25376">
        <ele>975</ele>
        <time>2021-06-18T16:17:01Z</time>
      </trkpt>
      <trkpt lat="43.03172" lon="-1.25384">
        <ele>972</ele>
        <time>2021-06-18T16:17:04Z</time>
      </trkpt>
      <trkpt lat="43.03156" lon="-1.25399">
        <ele>970</ele>
        <time>2021-06-18T16:17:09Z</time>
      </trkpt>
      <trkpt lat="43.03143" lon="-1.25407">
        <ele>967</ele>
        <time>2021-06-18T16:17:12Z</time>
      </trkpt>
      <trkpt lat="43.03111" lon="-1.25417">
        <ele>963</ele>
        <time>2021-06-18T16:17:20Z</time>
      </trkpt>
      <trkpt lat="43.03084" lon="-1.25433">
        <ele>966</ele>
        <time>2021-06-18T16:17:26Z</time>
      </trkpt>
      <trkpt lat="43.03069" lon="-1.25436">
        <ele>972</ele>
        <time>2021-06-18T16:17:30Z</time>
      </trkpt>
      <trkpt lat="43.03063" lon="-1.25434">
        <ele>974</ele>
        <time>2021-06-18T16:17:31Z</time>
      </trkpt>
      <trkpt lat="43.03057" lon="-1.25427">
        <ele>974</ele>
        <time>2021-06-18T16:17:33Z</time>
      </trkpt>
      <trkpt lat="43.03039" lon="-1.25383">
        <ele>975</ele>
        <time>2021-06-18T16:17:42Z</time>
      </trkpt>
      <trkpt lat="43.03031" lon="-1.25353">
        <ele>973</ele>
        <time>2021-06-18T16:17:47Z</time>
      </trkpt>
      <trkpt lat="43.0302" lon="-1.25264">
        <ele>965</ele>
        <time>2021-06-18T16:18:03Z</time>
      </trkpt>
      <trkpt lat="43.03015" lon="-1.25247">
        <ele>963</ele>
        <time>2021-06-18T16:18:06Z</time>
      </trkpt>
      <trkpt lat="43.02999" lon="-1.25215">
        <ele>960</ele>
        <time>2021-06-18T16:18:12Z</time>
      </trkpt>
      <trkpt lat="43.02984" lon="-1.25198">
        <ele>964</ele>
        <time>2021-06-18T16:18:17Z</time>
      </trkpt>
      <trkpt lat="43.02948" lon="-1.25174">
        <ele>965</ele>
        <time>2021-06-18T16:18:26Z</time>
      </trkpt>
      <trkpt lat="43.02929" lon="-1.25146">
        <ele>961</ele>
        <time>2021-06-18T16:18:33Z</time>
      </trkpt>
      <trkpt lat="43.02917" lon="-1.25119">
        <ele>955</ele>
        <time>2021-06-18T16:18:38Z</time>
      </trkpt>
      <trkpt lat="43.02903" lon="-1.25057">
        <ele>951</ele>
        <time>2021-06-18T16:18:49Z</time>
      </trkpt>
      <trkpt lat="43.02882" lon="-1.25">
        <ele>957</ele>
        <time>2021-06-18T16:19:00Z</time>
      </trkpt>
      <trkpt lat="43.02878" lon="-1.24982">
        <ele>960</ele>
        <time>2021-06-18T16:19:03Z</time>
      </trkpt>
      <trkpt lat="43.02883" lon="-1.24948">
        <ele>961</ele>
        <time>2021-06-18T16:19:09Z</time>
      </trkpt>
      <trkpt lat="43.02895" lon="-1.24929">
        <ele>956</ele>
        <time>2021-06-18T16:19:14Z</time>
      </trkpt>
      <trkpt lat="43.02972" lon="-1.24852">
        <ele>944</ele>
        <time>2021-06-18T16:19:36Z</time>
      </trkpt>
      <trkpt lat="43.02982" lon="-1.24839">
        <ele>942</ele>
        <time>2021-06-18T16:19:39Z</time>
      </trkpt>
      <trkpt lat="43.02989" lon="-1.24822">
        <ele>939</ele>
        <time>2021-06-18T16:19:42Z</time>
      </trkpt>
      <trkpt lat="43.02983" lon="-1.24803">
        <ele>940</ele>
        <time>2021-06-18T16:19:46Z</time>
      </trkpt>
      <trkpt lat="43.02891" lon="-1.24671">
        <ele>946</ele>
        <time>2021-06-18T16:20:17Z</time>
      </trkpt>
      <trkpt lat="43.02875" lon="-1.24635">
        <ele>943</ele>
        <time>2021-06-18T16:20:24Z</time>
      </trkpt>
      <trkpt lat="43.02863" lon="-1.24616">
        <ele>942</ele>
        <time>2021-06-18T16:20:29Z</time>
      </trkpt>
      <trkpt lat="43.02828" lon="-1.24574">
        <ele>944</ele>
        <time>2021-06-18T16:20:39Z</time>
      </trkpt>
      <trkpt lat="43.02825" lon="-1.24567">
        <ele>945</ele>
        <time>2021-06-18T16:20:41Z</time>
      </trkpt>
      <trkpt lat="43.02822" lon="-1.24471">
        <ele>936</ele>
        <time>2021-06-18T16:20:57Z</time>
      </trkpt>
      <trkpt lat="43.02839" lon="-1.2438">
        <ele>931</ele>
        <time>2021-06-18T16:21:13Z</time>
      </trkpt>
      <trkpt lat="43.02855" lon="-1.24333">
        <ele>929</ele>
        <time>2021-06-18T16:21:22Z</time>
      </trkpt>
      <trkpt lat="43.0289" lon="-1.24288">
        <ele>920</ele>
        <time>2021-06-18T16:21:33Z</time>
      </trkpt>
      <trkpt lat="43.02896" lon="-1.24277">
        <ele>919</ele>
        <time>2021-06-18T16:21:36Z</time>
      </trkpt>
      <trkpt lat="43.02902" lon="-1.24259">
        <ele>918</ele>
        <time>2021-06-18T16:21:39Z</time>
      </trkpt>
      <trkpt lat="43.02905" lon="-1.24236">
        <ele>917</ele>
        <time>2021-06-18T16:21:43Z</time>
      </trkpt>
      <trkpt lat="43.02895" lon="-1.24145">
        <ele>914</ele>
        <time>2021-06-18T16:21:59Z</time>
      </trkpt>
      <trkpt lat="43.02874" lon="-1.24034">
        <ele>907</ele>
        <time>2021-06-18T16:22:18Z</time>
      </trkpt>
      <trkpt lat="43.02864" lon="-1.23994">
        <ele>905</ele>
        <time>2021-06-18T16:22:26Z</time>
      </trkpt>
      <trkpt lat="43.02849" lon="-1.23965">
        <ele>903</ele>
        <time>2021-06-18T16:22:32Z</time>
      </trkpt>
      <trkpt lat="43.02823" lon="-1.23825">
        <ele>893</ele>
        <time>2021-06-18T16:22:56Z</time>
      </trkpt>
      <trkpt lat="43.028" lon="-1.23779">
        <ele>895</ele>
        <time>2021-06-18T16:23:06Z</time>
      </trkpt>
      <trkpt lat="43.02745" lon="-1.23703">
        <ele>889</ele>
        <time>2021-06-18T16:23:24Z</time>
      </trkpt>
      <trkpt lat="43.02729" lon="-1.23645">
        <ele>886</ele>
        <time>2021-06-18T16:23:35Z</time>
      </trkpt>
      <trkpt lat="43.02709" lon="-1.23602">
        <ele>885</ele>
        <time>2021-06-18T16:23:43Z</time>
      </trkpt>
      <trkpt lat="43.02701" lon="-1.2359">
        <ele>884</ele>
        <time>2021-06-18T16:23:46Z</time>
      </trkpt>
      <trkpt lat="43.02687" lon="-1.23557">
        <ele>886</ele>
        <time>2021-06-18T16:23:53Z</time>
      </trkpt>
      <trkpt lat="43.02678" lon="-1.23544">
        <ele>887</ele>
        <time>2021-06-18T16:23:56Z</time>
      </trkpt>
      <trkpt lat="43.02663" lon="-1.23537">
        <ele>885</ele>
        <time>2021-06-18T16:23:59Z</time>
      </trkpt>
      <trkpt lat="43.02595" lon="-1.23519">
        <ele>878</ele>
        <time>2021-06-18T16:24:16Z</time>
      </trkpt>
      <trkpt lat="43.02584" lon="-1.23514">
        <ele>876</ele>
        <time>2021-06-18T16:24:18Z</time>
      </trkpt>
      <trkpt lat="43.02571" lon="-1.23503">
        <ele>877</ele>
        <time>2021-06-18T16:24:22Z</time>
      </trkpt>
      <trkpt lat="43.02553" lon="-1.23482">
        <ele>881</ele>
        <time>2021-06-18T16:24:27Z</time>
      </trkpt>
      <trkpt lat="43.0252" lon="-1.23412">
        <ele>881</ele>
        <time>2021-06-18T16:24:42Z</time>
      </trkpt>
      <trkpt lat="43.02479" lon="-1.23355">
        <ele>881</ele>
        <time>2021-06-18T16:24:55Z</time>
      </trkpt>
      <trkpt lat="43.02453" lon="-1.23327">
        <ele>878</ele>
        <time>2021-06-18T16:25:03Z</time>
      </trkpt>
      <trkpt lat="43.0239" lon="-1.23274">
        <ele>874</ele>
        <time>2021-06-18T16:25:20Z</time>
      </trkpt>
      <trkpt lat="43.02365" lon="-1.23245">
        <ele>872</ele>
        <time>2021-06-18T16:25:28Z</time>
      </trkpt>
      <trkpt lat="43.02347" lon="-1.23205">
        <ele>868</ele>
        <time>2021-06-18T16:25:36Z</time>
      </trkpt>
      <trkpt lat="43.02339" lon="-1.23195">
        <ele>865</ele>
        <time>2021-06-18T16:25:38Z</time>
      </trkpt>
      <trkpt lat="43.02283" lon="-1.23139">
        <ele>862</ele>
        <time>2021-06-18T16:25:55Z</time>
      </trkpt>
      <trkpt lat="43.02264" lon="-1.23117">
        <ele>860</ele>
        <time>2021-06-18T16:26:00Z</time>
      </trkpt>
      <trkpt lat="43.02252" lon="-1.23107">
        <ele>859</ele>
        <time>2021-06-18T16:26:04Z</time>
      </trkpt>
      <trkpt lat="43.0219" lon="-1.23081">
        <ele>855</ele>
        <time>2021-06-18T16:26:19Z</time>
      </trkpt>
      <trkpt lat="43.02156" lon="-1.23073">
        <ele>856</ele>
        <time>2021-06-18T16:26:27Z</time>
      </trkpt>
      <trkpt lat="43.02116" lon="-1.23069">
        <ele>857</ele>
        <time>2021-06-18T16:26:36Z</time>
      </trkpt>
      <trkpt lat="43.02087" lon="-1.23075">
        <ele>856</ele>
        <time>2021-06-18T16:26:43Z</time>
      </trkpt>
      <trkpt lat="43.02021" lon="-1.23063">
        <ele>861</ele>
        <time>2021-06-18T16:26:59Z</time>
      </trkpt>
      <trkpt lat="43.01977" lon="-1.23084">
        <ele>858</ele>
        <time>2021-06-18T16:27:10Z</time>
      </trkpt>
      <trkpt lat="43.0196" lon="-1.23086">
        <ele>858</ele>
        <time>2021-06-18T16:27:14Z</time>
      </trkpt>
      <trkpt lat="43.01909" lon="-1.23074">
        <ele>860</ele>
        <time>2021-06-18T16:27:26Z</time>
      </trkpt>
      <trkpt lat="43.019" lon="-1.2307">
        <ele>863</ele>
        <time>2021-06-18T16:27:28Z</time>
      </trkpt>
      <trkpt lat="43.01892" lon="-1.23063">
        <ele>865</ele>
        <time>2021-06-18T16:27:30Z</time>
      </trkpt>
      <trkpt lat="43.01861" lon="-1.22976">
        <ele>862</ele>
        <time>2021-06-18T16:27:47Z</time>
      </trkpt>
      <trkpt lat="43.01845" lon="-1.22943">
        <ele>860</ele>
        <time>2021-06-18T16:27:53Z</time>
      </trkpt>
      <trkpt lat="43.01833" lon="-1.2293">
        <ele>857</ele>
        <time>2021-06-18T16:27:57Z</time>
      </trkpt>
      <trkpt lat="43.018" lon="-1.2291">
        <ele>855</ele>
        <time>2021-06-18T16:28:05Z</time>
      </trkpt>
      <trkpt lat="43.01748" lon="-1.22907">
        <ele>850</ele>
        <time>2021-06-18T16:28:18Z</time>
      </trkpt>
      <trkpt lat="43.01722" lon="-1.22903">
        <ele>853</ele>
        <time>2021-06-18T16:28:24Z</time>
      </trkpt>
      <trkpt lat="43.01685" lon="-1.22893">
        <ele>857</ele>
        <time>2021-06-18T16:28:32Z</time>
      </trkpt>
      <trkpt lat="43.01639" lon="-1.22867">
        <ele>860</ele>
        <time>2021-06-18T16:28:44Z</time>
      </trkpt>
      <trkpt lat="43.01623" lon="-1.22863">
        <ele>861</ele>
        <time>2021-06-18T16:28:48Z</time>
      </trkpt>
      <trkpt lat="43.01602" lon="-1.22863">
        <ele>861</ele>
        <time>2021-06-18T16:28:53Z</time>
      </trkpt>
      <trkpt lat="43.01588" lon="-1.22866">
        <ele>861</ele>
        <time>2021-06-18T16:28:56Z</time>
      </trkpt>
      <trkpt lat="43.01562" lon="-1.22877">
        <ele>860</ele>
        <time>2021-06-18T16:29:02Z</time>
      </trkpt>
      <trkpt lat="43.01508" lon="-1.22913">
        <ele>850</ele>
        <time>2021-06-18T16:29:16Z</time>
      </trkpt>
      <trkpt lat="43.01495" lon="-1.22917">
        <ele>849</ele>
        <time>2021-06-18T16:29:20Z</time>
      </trkpt>
      <trkpt lat="43.0145" lon="-1.22916">
        <ele>846</ele>
        <time>2021-06-18T16:29:30Z</time>
      </trkpt>
      <trkpt lat="43.01407" lon="-1.22898">
        <ele>847</ele>
        <time>2021-06-18T16:29:41Z</time>
      </trkpt>
      <trkpt lat="43.01285" lon="-1.22823">
        <ele>840</ele>
        <time>2021-06-18T16:30:12Z</time>
      </trkpt>
      <trkpt lat="43.01257" lon="-1.22818">
        <ele>839</ele>
        <time>2021-06-18T16:30:18Z</time>
      </trkpt>
      <trkpt lat="43.01228" lon="-1.22817">
        <ele>840</ele>
        <time>2021-06-18T16:30:25Z</time>
      </trkpt>
      <trkpt lat="43.012" lon="-1.22822">
        <ele>840</ele>
        <time>2021-06-18T16:30:32Z</time>
      </trkpt>
      <trkpt lat="43.0118" lon="-1.22836">
        <ele>838</ele>
        <time>2021-06-18T16:30:37Z</time>
      </trkpt>
      <trkpt lat="43.01151" lon="-1.22885">
        <ele>833</ele>
        <time>2021-06-18T16:30:48Z</time>
      </trkpt>
      <trkpt lat="43.01127" lon="-1.22916">
        <ele>827</ele>
        <time>2021-06-18T16:30:56Z</time>
      </trkpt>
      <trkpt lat="43.01109" lon="-1.22929">
        <ele>825</ele>
        <time>2021-06-18T16:31:00Z</time>
      </trkpt>
      <trkpt lat="43.01088" lon="-1.22931">
        <ele>822</ele>
        <time>2021-06-18T16:31:05Z</time>
      </trkpt>
      <trkpt lat="43.01027" lon="-1.22914">
        <ele>821</ele>
        <time>2021-06-18T16:31:20Z</time>
      </trkpt>
      <trkpt lat="43.00991" lon="-1.22888">
        <ele>823</ele>
        <time>2021-06-18T16:31:29Z</time>
      </trkpt>
      <trkpt lat="43.00955" lon="-1.22806">
        <ele>821</ele>
        <time>2021-06-18T16:31:46Z</time>
      </trkpt>
      <trkpt lat="43.00926" lon="-1.22714">
        <ele>819</ele>
        <time>2021-06-18T16:32:03Z</time>
      </trkpt>
      <trkpt lat="43.00925" lon="-1.22679">
        <ele>822</ele>
        <time>2021-06-18T16:32:09Z</time>
      </trkpt>
      <trkpt lat="43.00917" lon="-1.22647">
        <ele>829</ele>
        <time>2021-06-18T16:32:14Z</time>
      </trkpt>
      <trkpt lat="43.00877" lon="-1.22592">
        <ele>847</ele>
        <time>2021-06-18T16:32:28Z</time>
      </trkpt>
      <trkpt lat="43.00864" lon="-1.22589">
        <ele>847</ele>
        <time>2021-06-18T16:32:31Z</time>
      </trkpt>
      <trkpt lat="43.00848" lon="-1.22589">
        <ele>845</ele>
        <time>2021-06-18T16:32:35Z</time>
      </trkpt>
      <trkpt lat="43.00827" lon="-1.22593">
        <ele>842</ele>
        <time>2021-06-18T16:32:39Z</time>
      </trkpt>
      <trkpt lat="43.00807" lon="-1.22591">
        <ele>840</ele>
        <time>2021-06-18T16:32:44Z</time>
      </trkpt>
      <trkpt lat="43.00746" lon="-1.22562">
        <ele>843</ele>
        <time>2021-06-18T16:32:59Z</time>
      </trkpt>
      <trkpt lat="43.00715" lon="-1.2254">
        <ele>846</ele>
        <time>2021-06-18T16:33:07Z</time>
      </trkpt>
      <trkpt lat="43.00698" lon="-1.22532">
        <ele>846</ele>
        <time>2021-06-18T16:33:12Z</time>
      </trkpt>
      <trkpt lat="43.00605" lon="-1.22503">
        <ele>847</ele>
        <time>2021-06-18T16:33:34Z</time>
      </trkpt>
      <trkpt lat="43.00552" lon="-1.22479">
        <ele>848</ele>
        <time>2021-06-18T16:33:47Z</time>
      </trkpt>
      <trkpt lat="43.00521" lon="-1.22456">
        <ele>850</ele>
        <time>2021-06-18T16:33:55Z</time>
      </trkpt>
      <trkpt lat="43.00471" lon="-1.22407">
        <ele>853</ele>
        <time>2021-06-18T16:34:10Z</time>
      </trkpt>
      <trkpt lat="43.00427" lon="-1.22361">
        <ele>854</ele>
        <time>2021-06-18T16:34:22Z</time>
      </trkpt>
      <trkpt lat="43.00421" lon="-1.22348">
        <ele>855</ele>
        <time>2021-06-18T16:34:25Z</time>
      </trkpt>
      <trkpt lat="43.00413" lon="-1.22339">
        <ele>855</ele>
        <time>2021-06-18T16:34:27Z</time>
      </trkpt>
      <trkpt lat="43.00385" lon="-1.22317">
        <ele>854</ele>
        <time>2021-06-18T16:34:35Z</time>
      </trkpt>
      <trkpt lat="43.00374" lon="-1.22314">
        <ele>854</ele>
        <time>2021-06-18T16:34:38Z</time>
      </trkpt>
      <trkpt lat="43.00315" lon="-1.22317">
        <ele>848</ele>
        <time>2021-06-18T16:34:51Z</time>
      </trkpt>
      <trkpt lat="43.00278" lon="-1.22324">
        <ele>845</ele>
        <time>2021-06-18T16:35:00Z</time>
      </trkpt>
      <trkpt lat="43.00261" lon="-1.22333">
        <ele>843</ele>
        <time>2021-06-18T16:35:04Z</time>
      </trkpt>
      <trkpt lat="43.00188" lon="-1.22392">
        <ele>839</ele>
        <time>2021-06-18T16:35:24Z</time>
      </trkpt>
      <trkpt lat="43.0014" lon="-1.22409">
        <ele>839</ele>
        <time>2021-06-18T16:35:36Z</time>
      </trkpt>
      <trkpt lat="43.00118" lon="-1.2242">
        <ele>838</ele>
        <time>2021-06-18T16:35:41Z</time>
      </trkpt>
      <trkpt lat="43.00067" lon="-1.22466">
        <ele>836</ele>
        <time>2021-06-18T16:35:56Z</time>
      </trkpt>
      <trkpt lat="43.00052" lon="-1.22475">
        <ele>836</ele>
        <time>2021-06-18T16:35:59Z</time>
      </trkpt>
      <trkpt lat="43.00027" lon="-1.22482">
        <ele>835</ele>
        <time>2021-06-18T16:36:05Z</time>
      </trkpt>
      <trkpt lat="42.99922" lon="-1.2248">
        <ele>832</ele>
        <time>2021-06-18T16:36:30Z</time>
      </trkpt>
      <trkpt lat="42.99839" lon="-1.22482">
        <ele>830</ele>
        <time>2021-06-18T16:36:49Z</time>
      </trkpt>
      <trkpt lat="42.99812" lon="-1.22483">
        <ele>828</ele>
        <time>2021-06-18T16:36:56Z</time>
      </trkpt>
      <trkpt lat="42.9975" lon="-1.22491">
        <ele>824</ele>
        <time>2021-06-18T16:37:10Z</time>
      </trkpt>
      <trkpt lat="42.99721" lon="-1.2249">
        <ele>818</ele>
        <time>2021-06-18T16:37:17Z</time>
      </trkpt>
      <trkpt lat="42.99696" lon="-1.22485">
        <ele>813</ele>
        <time>2021-06-18T16:37:23Z</time>
      </trkpt>
      <trkpt lat="42.99622" lon="-1.22461">
        <ele>800</ele>
        <time>2021-06-18T16:37:41Z</time>
      </trkpt>
      <trkpt lat="42.99604" lon="-1.22459">
        <ele>797</ele>
        <time>2021-06-18T16:37:45Z</time>
      </trkpt>
      <trkpt lat="42.99589" lon="-1.22462">
        <ele>794</ele>
        <time>2021-06-18T16:37:48Z</time>
      </trkpt>
      <trkpt lat="42.99572" lon="-1.2247">
        <ele>792</ele>
        <time>2021-06-18T16:37:52Z</time>
      </trkpt>
      <trkpt lat="42.99567" lon="-1.22475">
        <ele>791</ele>
        <time>2021-06-18T16:37:54Z</time>
      </trkpt>
      <trkpt lat="42.99555" lon="-1.22472">
        <ele>791</ele>
        <time>2021-06-18T16:37:57Z</time>
      </trkpt>
      <trkpt lat="42.99506" lon="-1.22485">
        <ele>787</ele>
        <time>2021-06-18T16:38:08Z</time>
      </trkpt>
      <trkpt lat="42.99342" lon="-1.22542">
        <ele>780</ele>
        <time>2021-06-18T16:38:48Z</time>
      </trkpt>
      <trkpt lat="42.9932" lon="-1.22553">
        <ele>779</ele>
        <time>2021-06-18T16:38:53Z</time>
      </trkpt>
      <trkpt lat="42.99306" lon="-1.22564">
        <ele>778</ele>
        <time>2021-06-18T16:38:57Z</time>
      </trkpt>
      <trkpt lat="42.99256" lon="-1.22618">
        <ele>775</ele>
        <time>2021-06-18T16:39:12Z</time>
      </trkpt>
      <trkpt lat="42.99225" lon="-1.22632">
        <ele>774</ele>
        <time>2021-06-18T16:39:20Z</time>
      </trkpt>
      <trkpt lat="42.99211" lon="-1.22634">
        <ele>773</ele>
        <time>2021-06-18T16:39:23Z</time>
      </trkpt>
      <trkpt lat="42.99186" lon="-1.22633">
        <ele>772</ele>
        <time>2021-06-18T16:39:29Z</time>
      </trkpt>
      <trkpt lat="42.99164" lon="-1.22629">
        <ele>772</ele>
        <time>2021-06-18T16:39:34Z</time>
      </trkpt>
      <trkpt lat="42.9915" lon="-1.22622">
        <ele>773</ele>
        <time>2021-06-18T16:39:37Z</time>
      </trkpt>
      <trkpt lat="42.9914" lon="-1.22612">
        <ele>774</ele>
        <time>2021-06-18T16:39:40Z</time>
      </trkpt>
      <trkpt lat="42.99083" lon="-1.22535">
        <ele>772</ele>
        <time>2021-06-18T16:39:59Z</time>
      </trkpt>
      <trkpt lat="42.99021" lon="-1.22428">
        <ele>773</ele>
        <time>2021-06-18T16:40:22Z</time>
      </trkpt>
      <trkpt lat="42.99006" lon="-1.22409">
        <ele>772</ele>
        <time>2021-06-18T16:40:27Z</time>
      </trkpt>
      <trkpt lat="42.98963" lon="-1.22384">
        <ele>778</ele>
        <time>2021-06-18T16:40:38Z</time>
      </trkpt>
      <trkpt lat="42.98949" lon="-1.22368">
        <ele>779</ele>
        <time>2021-06-18T16:40:42Z</time>
      </trkpt>
      <trkpt lat="42.98806" lon="-1.22136">
        <ele>778</ele>
        <time>2021-06-18T16:41:34Z</time>
      </trkpt>
      <trkpt lat="42.98789" lon="-1.22117">
        <ele>777</ele>
        <time>2021-06-18T16:41:39Z</time>
      </trkpt>
      <trkpt lat="42.98777" lon="-1.2211">
        <ele>777</ele>
        <time>2021-06-18T16:41:42Z</time>
      </trkpt>
      <trkpt lat="42.98766" lon="-1.22106">
        <ele>776</ele>
        <time>2021-06-18T16:41:45Z</time>
      </trkpt>
      <trkpt lat="42.98751" lon="-1.22106">
        <ele>775</ele>
        <time>2021-06-18T16:41:49Z</time>
      </trkpt>
      <trkpt lat="42.9873" lon="-1.22111">
        <ele>775</ele>
        <time>2021-06-18T16:41:53Z</time>
      </trkpt>
      <trkpt lat="42.98712" lon="-1.22121">
        <ele>775</ele>
        <time>2021-06-18T16:41:58Z</time>
      </trkpt>
      <trkpt lat="42.98702" lon="-1.22132">
        <ele>774</ele>
        <time>2021-06-18T16:42:01Z</time>
      </trkpt>
      <trkpt lat="42.98671" lon="-1.22182">
        <ele>768</ele>
        <time>2021-06-18T16:42:12Z</time>
      </trkpt>
      <trkpt lat="42.98663" lon="-1.22191">
        <ele>769</ele>
        <time>2021-06-18T16:42:15Z</time>
      </trkpt>
      <trkpt lat="42.98647" lon="-1.22201">
        <ele>770</ele>
        <time>2021-06-18T16:42:19Z</time>
      </trkpt>
      <trkpt lat="42.98633" lon="-1.22203">
        <ele>770</ele>
        <time>2021-06-18T16:42:22Z</time>
      </trkpt>
      <trkpt lat="42.98604" lon="-1.222">
        <ele>770</ele>
        <time>2021-06-18T16:42:29Z</time>
      </trkpt>
      <trkpt lat="42.98592" lon="-1.22209">
        <ele>770</ele>
        <time>2021-06-18T16:42:32Z</time>
      </trkpt>
      <trkpt lat="42.98563" lon="-1.2226">
        <ele>767</ele>
        <time>2021-06-18T16:42:43Z</time>
      </trkpt>
      <trkpt lat="42.98518" lon="-1.22299">
        <ele>769</ele>
        <time>2021-06-18T16:42:56Z</time>
      </trkpt>
      <trkpt lat="42.98502" lon="-1.22306">
        <ele>768</ele>
        <time>2021-06-18T16:42:59Z</time>
      </trkpt>
      <trkpt lat="42.98476" lon="-1.22305">
        <ele>761</ele>
        <time>2021-06-18T16:43:05Z</time>
      </trkpt>
      <trkpt lat="42.98455" lon="-1.22322">
        <ele>759</ele>
        <time>2021-06-18T16:43:11Z</time>
      </trkpt>
      <trkpt lat="42.98364" lon="-1.22435">
        <ele>757</ele>
        <time>2021-06-18T16:43:40Z</time>
      </trkpt>
      <trkpt lat="42.98333" lon="-1.22465">
        <ele>750</ele>
        <time>2021-06-18T16:43:49Z</time>
      </trkpt>
      <trkpt lat="42.98408" lon="-1.22338">
        <ele>748</ele>
        <time>2021-06-18T16:44:17Z</time>
      </trkpt>
      <trkpt lat="42.98451" lon="-1.22276">
        <ele>750</ele>
        <time>2021-06-18T16:44:31Z</time>
      </trkpt>
      <trkpt lat="42.98472" lon="-1.22231">
        <ele>749</ele>
        <time>2021-06-18T16:44:40Z</time>
      </trkpt>
      <trkpt lat="42.98507" lon="-1.22109">
        <ele>756</ele>
        <time>2021-06-18T16:45:03Z</time>
      </trkpt>
      <trkpt lat="42.98568" lon="-1.21936">
        <ele>759</ele>
        <time>2021-06-18T16:45:36Z</time>
      </trkpt>
      <trkpt lat="42.9859" lon="-1.21849">
        <ele>753</ele>
        <time>2021-06-18T16:45:51Z</time>
      </trkpt>
      <trkpt lat="42.98599" lon="-1.21796">
        <ele>757</ele>
        <time>2021-06-18T16:46:01Z</time>
      </trkpt>
      <trkpt lat="42.98601" lon="-1.21754">
        <ele>758</ele>
        <time>2021-06-18T16:46:08Z</time>
      </trkpt>
      <trkpt lat="42.98608" lon="-1.21736">
        <ele>761</ele>
        <time>2021-06-18T16:46:11Z</time>
      </trkpt>
      <trkpt lat="42.98614" lon="-1.21692">
        <ele>761</ele>
        <time>2021-06-18T16:46:19Z</time>
      </trkpt>
      <trkpt lat="42.98619" lon="-1.2161">
        <ele>764</ele>
        <time>2021-06-18T16:46:33Z</time>
      </trkpt>
      <trkpt lat="42.98631" lon="-1.21541">
        <ele>769</ele>
        <time>2021-06-18T16:46:45Z</time>
      </trkpt>
      <trkpt lat="42.98664" lon="-1.21254">
        <ele>774</ele>
        <time>2021-06-18T16:47:35Z</time>
      </trkpt>
      <trkpt lat="42.98658" lon="-1.21235">
        <ele>773</ele>
        <time>2021-06-18T16:47:38Z</time>
      </trkpt>
      <trkpt lat="42.9864" lon="-1.21099">
        <ele>770</ele>
        <time>2021-06-18T16:48:02Z</time>
      </trkpt>
      <trkpt lat="42.98639" lon="-1.2102">
        <ele>767</ele>
        <time>2021-06-18T16:48:15Z</time>
      </trkpt>
      <trkpt lat="42.98662" lon="-1.20866">
        <ele>756</ele>
        <time>2021-06-18T16:48:42Z</time>
      </trkpt>
      <trkpt lat="42.9868" lon="-1.20778">
        <ele>758</ele>
        <time>2021-06-18T16:48:58Z</time>
      </trkpt>
      <trkpt lat="42.98679" lon="-1.20722">
        <ele>758</ele>
        <time>2021-06-18T16:49:07Z</time>
      </trkpt>
      <trkpt lat="42.98673" lon="-1.20705">
        <ele>756</ele>
        <time>2021-06-18T16:49:11Z</time>
      </trkpt>
      <trkpt lat="42.9864" lon="-1.20638">
        <ele>762</ele>
        <time>2021-06-18T16:49:24Z</time>
      </trkpt>
      <trkpt lat="42.98561" lon="-1.20521">
        <ele>765</ele>
        <time>2021-06-18T16:49:52Z</time>
      </trkpt>
      <trkpt lat="42.98543" lon="-1.20482">
        <ele>768</ele>
        <time>2021-06-18T16:49:59Z</time>
      </trkpt>
      <trkpt lat="42.98528" lon="-1.20439">
        <ele>769</ele>
        <time>2021-06-18T16:50:08Z</time>
      </trkpt>
      <trkpt lat="42.98521" lon="-1.20393">
        <ele>771</ele>
        <time>2021-06-18T16:50:16Z</time>
      </trkpt>
      <trkpt lat="42.98515" lon="-1.20267">
        <ele>776</ele>
        <time>2021-06-18T16:50:37Z</time>
      </trkpt>
      <trkpt lat="42.98508" lon="-1.20209">
        <ele>774</ele>
        <time>2021-06-18T16:50:47Z</time>
      </trkpt>
      <trkpt lat="42.98495" lon="-1.20035">
        <ele>780</ele>
        <time>2021-06-18T16:51:17Z</time>
      </trkpt>
      <trkpt lat="42.98489" lon="-1.199">
        <ele>783</ele>
        <time>2021-06-18T16:51:40Z</time>
      </trkpt>
      <trkpt lat="42.98565" lon="-1.19754">
        <ele>793</ele>
        <time>2021-06-18T16:52:11Z</time>
      </trkpt>
      <trkpt lat="42.98591" lon="-1.19683">
        <ele>783</ele>
        <time>2021-06-18T16:52:24Z</time>
      </trkpt>
      <trkpt lat="42.98665" lon="-1.19675">
        <ele>809</ele>
        <time>2021-06-18T16:52:42Z</time>
      </trkpt>
      <trkpt lat="42.98674" lon="-1.19608">
        <ele>801</ele>
        <time>2021-06-18T16:52:53Z</time>
      </trkpt>
      <trkpt lat="42.98561" lon="-1.19568">
        <ele>783</ele>
        <time>2021-06-18T16:53:21Z</time>
      </trkpt>
      <trkpt lat="42.98492" lon="-1.19456">
        <ele>790</ele>
        <time>2021-06-18T16:53:46Z</time>
      </trkpt>
      <trkpt lat="42.9842" lon="-1.19192">
        <ele>783</ele>
        <time>2021-06-18T16:54:34Z</time>
      </trkpt>
      <trkpt lat="42.98371" lon="-1.18793">
        <ele>796</ele>
        <time>2021-06-18T16:55:43Z</time>
      </trkpt>
      <trkpt lat="42.98359" lon="-1.1852">
        <ele>790</ele>
        <time>2021-06-18T16:56:30Z</time>
      </trkpt>
      <trkpt lat="42.98366" lon="-1.18233">
        <ele>818</ele>
        <time>2021-06-18T16:57:19Z</time>
      </trkpt>
      <trkpt lat="42.98382" lon="-1.17928">
        <ele>827</ele>
        <time>2021-06-18T16:58:11Z</time>
      </trkpt>
      <trkpt lat="42.9839" lon="-1.17832">
        <ele>807</ele>
        <time>2021-06-18T16:58:27Z</time>
      </trkpt>
      <trkpt lat="42.98369" lon="-1.17793">
        <ele>796</ele>
        <time>2021-06-18T16:58:36Z</time>
      </trkpt>
      <trkpt lat="42.98455" lon="-1.1748">
        <ele>792</ele>
        <time>2021-06-18T16:59:33Z</time>
      </trkpt>
      <trkpt lat="42.98526" lon="-1.17297">
        <ele>797</ele>
        <time>2021-06-18T17:00:08Z</time>
      </trkpt>
      <trkpt lat="42.98592" lon="-1.17136">
        <ele>801</ele>
        <time>2021-06-18T17:00:40Z</time>
      </trkpt>
      <trkpt lat="42.98621" lon="-1.16948">
        <ele>804</ele>
        <time>2021-06-18T17:01:13Z</time>
      </trkpt>
      <trkpt lat="42.98642" lon="-1.1678">
        <ele>847</ele>
        <time>2021-06-18T17:01:42Z</time>
      </trkpt>
      <trkpt lat="42.98696" lon="-1.16604">
        <ele>823</ele>
        <time>2021-06-18T17:02:14Z</time>
      </trkpt>
      <trkpt lat="42.98606" lon="-1.16471">
        <ele>822</ele>
        <time>2021-06-18T17:02:45Z</time>
      </trkpt>
      <trkpt lat="42.98617" lon="-1.16452">
        <ele>830</ele>
        <time>2021-06-18T17:02:49Z</time>
      </trkpt>
      <trkpt lat="42.98601" lon="-1.16433">
        <ele>830</ele>
        <time>2021-06-18T17:02:54Z</time>
      </trkpt>
      <trkpt lat="42.98565" lon="-1.16404">
        <ele>823</ele>
        <time>2021-06-18T17:03:04Z</time>
      </trkpt>
      <trkpt lat="42.9855" lon="-1.16386">
        <ele>820</ele>
        <time>2021-06-18T17:03:09Z</time>
      </trkpt>
      <trkpt lat="42.98545" lon="-1.16373">
        <ele>821</ele>
        <time>2021-06-18T17:03:11Z</time>
      </trkpt>
      <trkpt lat="42.98543" lon="-1.16351">
        <ele>825</ele>
        <time>2021-06-18T17:03:15Z</time>
      </trkpt>
      <trkpt lat="42.98549" lon="-1.16315">
        <ele>835</ele>
        <time>2021-06-18T17:03:21Z</time>
      </trkpt>
      <trkpt lat="42.98546" lon="-1.16267">
        <ele>843</ele>
        <time>2021-06-18T17:03:30Z</time>
      </trkpt>
      <trkpt lat="42.98536" lon="-1.16213">
        <ele>846</ele>
        <time>2021-06-18T17:03:39Z</time>
      </trkpt>
      <trkpt lat="42.98514" lon="-1.16169">
        <ele>843</ele>
        <time>2021-06-18T17:03:48Z</time>
      </trkpt>
      <trkpt lat="42.98499" lon="-1.16125">
        <ele>837</ele>
        <time>2021-06-18T17:03:57Z</time>
      </trkpt>
      <trkpt lat="42.98503" lon="-1.16079">
        <ele>838</ele>
        <time>2021-06-18T17:04:04Z</time>
      </trkpt>
      <trkpt lat="42.98511" lon="-1.16033">
        <ele>837</ele>
        <time>2021-06-18T17:04:13Z</time>
      </trkpt>
      <trkpt lat="42.98496" lon="-1.1594">
        <ele>818</ele>
        <time>2021-06-18T17:04:29Z</time>
      </trkpt>
      <trkpt lat="42.98509" lon="-1.15882">
        <ele>813</ele>
        <time>2021-06-18T17:04:39Z</time>
      </trkpt>
      <trkpt lat="42.98521" lon="-1.15858">
        <ele>814</ele>
        <time>2021-06-18T17:04:44Z</time>
      </trkpt>
      <trkpt lat="42.98534" lon="-1.15837">
        <ele>815</ele>
        <time>2021-06-18T17:04:49Z</time>
      </trkpt>
      <trkpt lat="42.98541" lon="-1.1583">
        <ele>817</ele>
        <time>2021-06-18T17:04:51Z</time>
      </trkpt>
      <trkpt lat="42.98523" lon="-1.15789">
        <ele>810</ele>
        <time>2021-06-18T17:04:59Z</time>
      </trkpt>
      <trkpt lat="42.98501" lon="-1.15762">
        <ele>805</ele>
        <time>2021-06-18T17:05:06Z</time>
      </trkpt>
      <trkpt lat="42.98472" lon="-1.15741">
        <ele>818</ele>
        <time>2021-06-18T17:05:14Z</time>
      </trkpt>
      <trkpt lat="42.98454" lon="-1.15737">
        <ele>826</ele>
        <time>2021-06-18T17:05:18Z</time>
      </trkpt>
      <trkpt lat="42.9844" lon="-1.1573">
        <ele>834</ele>
        <time>2021-06-18T17:05:21Z</time>
      </trkpt>
      <trkpt lat="42.98428" lon="-1.15761">
        <ele>831</ele>
        <time>2021-06-18T17:05:27Z</time>
      </trkpt>
      <trkpt lat="42.98423" lon="-1.15759">
        <ele>834</ele>
        <time>2021-06-18T17:05:29Z</time>
      </trkpt>
      <trkpt lat="42.98452" lon="-1.15654">
        <ele>848</ele>
        <time>2021-06-18T17:05:48Z</time>
      </trkpt>
      <trkpt lat="42.98464" lon="-1.15584">
        <ele>862</ele>
        <time>2021-06-18T17:06:00Z</time>
      </trkpt>
      <trkpt lat="42.98484" lon="-1.15568">
        <ele>859</ele>
        <time>2021-06-18T17:06:05Z</time>
      </trkpt>
      <trkpt lat="42.98478" lon="-1.15547">
        <ele>864</ele>
        <time>2021-06-18T17:06:09Z</time>
      </trkpt>
      <trkpt lat="42.9846" lon="-1.15523">
        <ele>872</ele>
        <time>2021-06-18T17:06:15Z</time>
      </trkpt>
      <trkpt lat="42.9843" lon="-1.15469">
        <ele>883</ele>
        <time>2021-06-18T17:06:27Z</time>
      </trkpt>
      <trkpt lat="42.98446" lon="-1.15402">
        <ele>886</ele>
        <time>2021-06-18T17:06:39Z</time>
      </trkpt>
      <trkpt lat="42.98448" lon="-1.15295">
        <ele>890</ele>
        <time>2021-06-18T17:06:57Z</time>
      </trkpt>
      <trkpt lat="42.98462" lon="-1.15236">
        <ele>888</ele>
        <time>2021-06-18T17:07:08Z</time>
      </trkpt>
      <trkpt lat="42.98477" lon="-1.15204">
        <ele>885</ele>
        <time>2021-06-18T17:07:14Z</time>
      </trkpt>
      <trkpt lat="42.98488" lon="-1.15167">
        <ele>883</ele>
        <time>2021-06-18T17:07:21Z</time>
      </trkpt>
      <trkpt lat="42.98509" lon="-1.15134">
        <ele>879</ele>
        <time>2021-06-18T17:07:28Z</time>
      </trkpt>
      <trkpt lat="42.98524" lon="-1.15102">
        <ele>877</ele>
        <time>2021-06-18T17:07:35Z</time>
      </trkpt>
      <trkpt lat="42.98567" lon="-1.15056">
        <ele>869</ele>
        <time>2021-06-18T17:07:48Z</time>
      </trkpt>
      <trkpt lat="42.98586" lon="-1.15024">
        <ele>870</ele>
        <time>2021-06-18T17:07:55Z</time>
      </trkpt>
      <trkpt lat="42.98625" lon="-1.14939">
        <ele>872</ele>
        <time>2021-06-18T17:08:12Z</time>
      </trkpt>
      <trkpt lat="42.98633" lon="-1.1491">
        <ele>872</ele>
        <time>2021-06-18T17:08:17Z</time>
      </trkpt>
      <trkpt lat="42.98639" lon="-1.14848">
        <ele>871</ele>
        <time>2021-06-18T17:08:28Z</time>
      </trkpt>
      <trkpt lat="42.98638" lon="-1.14743">
        <ele>866</ele>
        <time>2021-06-18T17:08:46Z</time>
      </trkpt>
      <trkpt lat="42.98634" lon="-1.14692">
        <ele>865</ele>
        <time>2021-06-18T17:08:55Z</time>
      </trkpt>
      <trkpt lat="42.98624" lon="-1.14638">
        <ele>863</ele>
        <time>2021-06-18T17:09:04Z</time>
      </trkpt>
      <trkpt lat="42.98614" lon="-1.14615">
        <ele>863</ele>
        <time>2021-06-18T17:09:09Z</time>
      </trkpt>
      <trkpt lat="42.98594" lon="-1.14594">
        <ele>867</ele>
        <time>2021-06-18T17:09:14Z</time>
      </trkpt>
      <trkpt lat="42.98582" lon="-1.14588">
        <ele>870</ele>
        <time>2021-06-18T17:09:17Z</time>
      </trkpt>
      <trkpt lat="42.98548" lon="-1.14581">
        <ele>878</ele>
        <time>2021-06-18T17:09:25Z</time>
      </trkpt>
      <trkpt lat="42.98536" lon="-1.14574">
        <ele>880</ele>
        <time>2021-06-18T17:09:29Z</time>
      </trkpt>
      <trkpt lat="42.98528" lon="-1.14564">
        <ele>881</ele>
        <time>2021-06-18T17:09:31Z</time>
      </trkpt>
      <trkpt lat="42.98515" lon="-1.14538">
        <ele>880</ele>
        <time>2021-06-18T17:09:36Z</time>
      </trkpt>
      <trkpt lat="42.98497" lon="-1.14511">
        <ele>881</ele>
        <time>2021-06-18T17:09:43Z</time>
      </trkpt>
      <trkpt lat="42.98495" lon="-1.14505">
        <ele>881</ele>
        <time>2021-06-18T17:09:44Z</time>
      </trkpt>
      <trkpt lat="42.98502" lon="-1.14431">
        <ele>873</ele>
        <time>2021-06-18T17:09:57Z</time>
      </trkpt>
      <trkpt lat="42.98502" lon="-1.14404">
        <ele>871</ele>
        <time>2021-06-18T17:10:01Z</time>
      </trkpt>
      <trkpt lat="42.98482" lon="-1.14323">
        <ele>875</ele>
        <time>2021-06-18T17:10:16Z</time>
      </trkpt>
      <trkpt lat="42.98457" lon="-1.14277">
        <ele>883</ele>
        <time>2021-06-18T17:10:26Z</time>
      </trkpt>
      <trkpt lat="42.98454" lon="-1.1426">
        <ele>883</ele>
        <time>2021-06-18T17:10:29Z</time>
      </trkpt>
      <trkpt lat="42.98456" lon="-1.14251">
        <ele>883</ele>
        <time>2021-06-18T17:10:30Z</time>
      </trkpt>
      <trkpt lat="42.98463" lon="-1.14242">
        <ele>882</ele>
        <time>2021-06-18T17:10:32Z</time>
      </trkpt>
      <trkpt lat="42.98471" lon="-1.14239">
        <ele>881</ele>
        <time>2021-06-18T17:10:34Z</time>
      </trkpt>
      <trkpt lat="42.98483" lon="-1.14241">
        <ele>878</ele>
        <time>2021-06-18T17:10:37Z</time>
      </trkpt>
      <trkpt lat="42.98534" lon="-1.14267">
        <ele>871</ele>
        <time>2021-06-18T17:10:50Z</time>
      </trkpt>
      <trkpt lat="42.98543" lon="-1.14266">
        <ele>871</ele>
        <time>2021-06-18T17:10:52Z</time>
      </trkpt>
      <trkpt lat="42.98546" lon="-1.14256">
        <ele>872</ele>
        <time>2021-06-18T17:10:54Z</time>
      </trkpt>
      <trkpt lat="42.98544" lon="-1.14229">
        <ele>874</ele>
        <time>2021-06-18T17:10:58Z</time>
      </trkpt>
      <trkpt lat="42.98563" lon="-1.14141">
        <ele>882</ele>
        <time>2021-06-18T17:11:14Z</time>
      </trkpt>
      <trkpt lat="42.98562" lon="-1.14121">
        <ele>883</ele>
        <time>2021-06-18T17:11:18Z</time>
      </trkpt>
      <trkpt lat="42.98556" lon="-1.14113">
        <ele>884</ele>
        <time>2021-06-18T17:11:20Z</time>
      </trkpt>
      <trkpt lat="42.98548" lon="-1.14113">
        <ele>885</ele>
        <time>2021-06-18T17:11:21Z</time>
      </trkpt>
      <trkpt lat="42.98519" lon="-1.14135">
        <ele>886</ele>
        <time>2021-06-18T17:11:29Z</time>
      </trkpt>
      <trkpt lat="42.98459" lon="-1.14154">
        <ele>893</ele>
        <time>2021-06-18T17:11:44Z</time>
      </trkpt>
      <trkpt lat="42.98454" lon="-1.1415">
        <ele>894</ele>
        <time>2021-06-18T17:11:45Z</time>
      </trkpt>
      <trkpt lat="42.98452" lon="-1.14139">
        <ele>896</ele>
        <time>2021-06-18T17:11:47Z</time>
      </trkpt>
      <trkpt lat="42.98467" lon="-1.14109">
        <ele>897</ele>
        <time>2021-06-18T17:11:53Z</time>
      </trkpt>
      <trkpt lat="42.98472" lon="-1.14088">
        <ele>898</ele>
        <time>2021-06-18T17:11:57Z</time>
      </trkpt>
      <trkpt lat="42.98473" lon="-1.14067">
        <ele>900</ele>
        <time>2021-06-18T17:12:00Z</time>
      </trkpt>
      <trkpt lat="42.9847" lon="-1.14032">
        <ele>903</ele>
        <time>2021-06-18T17:12:06Z</time>
      </trkpt>
      <trkpt lat="42.98464" lon="-1.14">
        <ele>907</ele>
        <time>2021-06-18T17:12:12Z</time>
      </trkpt>
      <trkpt lat="42.9846" lon="-1.13996">
        <ele>907</ele>
        <time>2021-06-18T17:12:13Z</time>
      </trkpt>
      <trkpt lat="42.98455" lon="-1.13997">
        <ele>909</ele>
        <time>2021-06-18T17:12:14Z</time>
      </trkpt>
      <trkpt lat="42.9844" lon="-1.14033">
        <ele>910</ele>
        <time>2021-06-18T17:12:21Z</time>
      </trkpt>
      <trkpt lat="42.98427" lon="-1.14053">
        <ele>910</ele>
        <time>2021-06-18T17:12:26Z</time>
      </trkpt>
      <trkpt lat="42.98398" lon="-1.14088">
        <ele>913</ele>
        <time>2021-06-18T17:12:35Z</time>
      </trkpt>
      <trkpt lat="42.98389" lon="-1.14092">
        <ele>914</ele>
        <time>2021-06-18T17:12:37Z</time>
      </trkpt>
      <trkpt lat="42.98382" lon="-1.14083">
        <ele>917</ele>
        <time>2021-06-18T17:12:40Z</time>
      </trkpt>
      <trkpt lat="42.98382" lon="-1.14063">
        <ele>920</ele>
        <time>2021-06-18T17:12:43Z</time>
      </trkpt>
      <trkpt lat="42.98389" lon="-1.14046">
        <ele>921</ele>
        <time>2021-06-18T17:12:46Z</time>
      </trkpt>
      <trkpt lat="42.98394" lon="-1.14021">
        <ele>923</ele>
        <time>2021-06-18T17:12:51Z</time>
      </trkpt>
      <trkpt lat="42.98392" lon="-1.13973">
        <ele>927</ele>
        <time>2021-06-18T17:12:59Z</time>
      </trkpt>
      <trkpt lat="42.98383" lon="-1.13945">
        <ele>930</ele>
        <time>2021-06-18T17:13:04Z</time>
      </trkpt>
      <trkpt lat="42.9835" lon="-1.13859">
        <ele>938</ele>
        <time>2021-06-18T17:13:21Z</time>
      </trkpt>
      <trkpt lat="42.98337" lon="-1.13831">
        <ele>941</ele>
        <time>2021-06-18T17:13:26Z</time>
      </trkpt>
      <trkpt lat="42.98316" lon="-1.13801">
        <ele>945</ele>
        <time>2021-06-18T17:13:33Z</time>
      </trkpt>
      <trkpt lat="42.98299" lon="-1.13771">
        <ele>949</ele>
        <time>2021-06-18T17:13:40Z</time>
      </trkpt>
      <trkpt lat="42.98292" lon="-1.13753">
        <ele>950</ele>
        <time>2021-06-18T17:13:43Z</time>
      </trkpt>
      <trkpt lat="42.98284" lon="-1.13665">
        <ele>951</ele>
        <time>2021-06-18T17:13:59Z</time>
      </trkpt>
      <trkpt lat="42.98281" lon="-1.13654">
        <ele>953</ele>
        <time>2021-06-18T17:14:01Z</time>
      </trkpt>
      <trkpt lat="42.98275" lon="-1.13645">
        <ele>955</ele>
        <time>2021-06-18T17:14:03Z</time>
      </trkpt>
      <trkpt lat="42.98262" lon="-1.13633">
        <ele>959</ele>
        <time>2021-06-18T17:14:06Z</time>
      </trkpt>
      <trkpt lat="42.98238" lon="-1.13626">
        <ele>967</ele>
        <time>2021-06-18T17:14:12Z</time>
      </trkpt>
      <trkpt lat="42.98232" lon="-1.13621">
        <ele>969</ele>
        <time>2021-06-18T17:14:14Z</time>
      </trkpt>
      <trkpt lat="42.98228" lon="-1.13611">
        <ele>971</ele>
        <time>2021-06-18T17:14:16Z</time>
      </trkpt>
      <trkpt lat="42.9823" lon="-1.13578">
        <ele>970</ele>
        <time>2021-06-18T17:14:21Z</time>
      </trkpt>
      <trkpt lat="42.9824" lon="-1.13556">
        <ele>968</ele>
        <time>2021-06-18T17:14:26Z</time>
      </trkpt>
      <trkpt lat="42.98258" lon="-1.13535">
        <ele>963</ele>
        <time>2021-06-18T17:14:31Z</time>
      </trkpt>
      <trkpt lat="42.98262" lon="-1.13519">
        <ele>962</ele>
        <time>2021-06-18T17:14:34Z</time>
      </trkpt>
      <trkpt lat="42.98261" lon="-1.13484">
        <ele>962</ele>
        <time>2021-06-18T17:14:40Z</time>
      </trkpt>
      <trkpt lat="42.98257" lon="-1.13472">
        <ele>963</ele>
        <time>2021-06-18T17:14:42Z</time>
      </trkpt>
      <trkpt lat="42.98212" lon="-1.13398">
        <ele>976</ele>
        <time>2021-06-18T17:14:59Z</time>
      </trkpt>
      <trkpt lat="42.98194" lon="-1.13348">
        <ele>978</ele>
        <time>2021-06-18T17:15:08Z</time>
      </trkpt>
      <trkpt lat="42.98182" lon="-1.13327">
        <ele>980</ele>
        <time>2021-06-18T17:15:13Z</time>
      </trkpt>
      <trkpt lat="42.98171" lon="-1.13313">
        <ele>983</ele>
        <time>2021-06-18T17:15:16Z</time>
      </trkpt>
      <trkpt lat="42.98143" lon="-1.13287">
        <ele>986</ele>
        <time>2021-06-18T17:15:24Z</time>
      </trkpt>
      <trkpt lat="42.98117" lon="-1.13203">
        <ele>989</ele>
        <time>2021-06-18T17:15:40Z</time>
      </trkpt>
      <trkpt lat="42.98066" lon="-1.13067">
        <ele>994</ele>
        <time>2021-06-18T17:16:06Z</time>
      </trkpt>
      <trkpt lat="42.98055" lon="-1.13028">
        <ele>993</ele>
        <time>2021-06-18T17:16:13Z</time>
      </trkpt>
      <trkpt lat="42.98018" lon="-1.12937">
        <ele>1001</ele>
        <time>2021-06-18T17:16:31Z</time>
      </trkpt>
      <trkpt lat="42.98016" lon="-1.12904">
        <ele>1001</ele>
        <time>2021-06-18T17:16:37Z</time>
      </trkpt>
      <trkpt lat="42.98017" lon="-1.12868">
        <ele>998</ele>
        <time>2021-06-18T17:16:43Z</time>
      </trkpt>
      <trkpt lat="42.9802" lon="-1.12849">
        <ele>996</ele>
        <time>2021-06-18T17:16:46Z</time>
      </trkpt>
      <trkpt lat="42.98018" lon="-1.12827">
        <ele>994</ele>
        <time>2021-06-18T17:16:50Z</time>
      </trkpt>
      <trkpt lat="42.98011" lon="-1.12809">
        <ele>993</ele>
        <time>2021-06-18T17:16:53Z</time>
      </trkpt>
      <trkpt lat="42.97996" lon="-1.1279">
        <ele>994</ele>
        <time>2021-06-18T17:16:58Z</time>
      </trkpt>
      <trkpt lat="42.97977" lon="-1.12772">
        <ele>995</ele>
        <time>2021-06-18T17:17:04Z</time>
      </trkpt>
      <trkpt lat="42.97962" lon="-1.12763">
        <ele>996</ele>
        <time>2021-06-18T17:17:07Z</time>
      </trkpt>
      <trkpt lat="42.97946" lon="-1.12756">
        <ele>998</ele>
        <time>2021-06-18T17:17:11Z</time>
      </trkpt>
      <trkpt lat="42.97871" lon="-1.12749">
        <ele>1010</ele>
        <time>2021-06-18T17:17:29Z</time>
      </trkpt>
      <trkpt lat="42.97857" lon="-1.12745">
        <ele>1012</ele>
        <time>2021-06-18T17:17:32Z</time>
      </trkpt>
      <trkpt lat="42.97836" lon="-1.12731">
        <ele>1016</ele>
        <time>2021-06-18T17:17:38Z</time>
      </trkpt>
      <trkpt lat="42.97833" lon="-1.12713">
        <ele>1017</ele>
        <time>2021-06-18T17:17:41Z</time>
      </trkpt>
      <trkpt lat="42.97835" lon="-1.12703">
        <ele>1016</ele>
        <time>2021-06-18T17:17:43Z</time>
      </trkpt>
      <trkpt lat="42.97845" lon="-1.12687">
        <ele>1014</ele>
        <time>2021-06-18T17:17:46Z</time>
      </trkpt>
      <trkpt lat="42.97863" lon="-1.12668">
        <ele>1010</ele>
        <time>2021-06-18T17:17:51Z</time>
      </trkpt>
      <trkpt lat="42.97898" lon="-1.12603">
        <ele>1009</ele>
        <time>2021-06-18T17:18:05Z</time>
      </trkpt>
      <trkpt lat="42.97902" lon="-1.12583">
        <ele>1011</ele>
        <time>2021-06-18T17:18:09Z</time>
      </trkpt>
      <trkpt lat="42.97911" lon="-1.1248">
        <ele>1015</ele>
        <time>2021-06-18T17:18:27Z</time>
      </trkpt>
      <trkpt lat="42.97883" lon="-1.12309">
        <ele>1022</ele>
        <time>2021-06-18T17:18:56Z</time>
      </trkpt>
      <trkpt lat="42.97835" lon="-1.12213">
        <ele>1029</ele>
        <time>2021-06-18T17:19:16Z</time>
      </trkpt>
      <trkpt lat="42.97786" lon="-1.12046">
        <ele>1032</ele>
        <time>2021-06-18T17:19:47Z</time>
      </trkpt>
      <trkpt lat="42.97737" lon="-1.11908">
        <ele>1033</ele>
        <time>2021-06-18T17:20:13Z</time>
      </trkpt>
      <trkpt lat="42.97717" lon="-1.11873">
        <ele>1034</ele>
        <time>2021-06-18T17:20:21Z</time>
      </trkpt>
      <trkpt lat="42.97697" lon="-1.11856">
        <ele>1035</ele>
        <time>2021-06-18T17:20:26Z</time>
      </trkpt>
      <trkpt lat="42.97669" lon="-1.11845">
        <ele>1038</ele>
        <time>2021-06-18T17:20:33Z</time>
      </trkpt>
      <trkpt lat="42.97616" lon="-1.11838">
        <ele>1040</ele>
        <time>2021-06-18T17:20:46Z</time>
      </trkpt>
      <trkpt lat="42.97589" lon="-1.11841">
        <ele>1042</ele>
        <time>2021-06-18T17:20:52Z</time>
      </trkpt>
      <trkpt lat="42.97573" lon="-1.11845">
        <ele>1045</ele>
        <time>2021-06-18T17:20:56Z</time>
      </trkpt>
      <trkpt lat="42.9755" lon="-1.11855">
        <ele>1049</ele>
        <time>2021-06-18T17:21:01Z</time>
      </trkpt>
      <trkpt lat="42.97456" lon="-1.11933">
        <ele>1061</ele>
        <time>2021-06-18T17:21:27Z</time>
      </trkpt>
      <trkpt lat="42.97386" lon="-1.11969">
        <ele>1074</ele>
        <time>2021-06-18T17:21:45Z</time>
      </trkpt>
      <trkpt lat="42.97369" lon="-1.11964">
        <ele>1075</ele>
        <time>2021-06-18T17:21:49Z</time>
      </trkpt>
      <trkpt lat="42.97368" lon="-1.11941">
        <ele>1073</ele>
        <time>2021-06-18T17:21:53Z</time>
      </trkpt>
      <trkpt lat="42.97392" lon="-1.11923">
        <ele>1068</ele>
        <time>2021-06-18T17:21:59Z</time>
      </trkpt>
      <trkpt lat="42.97464" lon="-1.11826">
        <ele>1067</ele>
        <time>2021-06-18T17:22:23Z</time>
      </trkpt>
      <trkpt lat="42.97494" lon="-1.11719">
        <ele>1076</ele>
        <time>2021-06-18T17:22:42Z</time>
      </trkpt>
      <trkpt lat="42.97501" lon="-1.11706">
        <ele>1076</ele>
        <time>2021-06-18T17:22:45Z</time>
      </trkpt>
      <trkpt lat="42.9753" lon="-1.11673">
        <ele>1075</ele>
        <time>2021-06-18T17:22:54Z</time>
      </trkpt>
      <trkpt lat="42.97503" lon="-1.1168">
        <ele>1080</ele>
        <time>2021-06-18T17:23:00Z</time>
      </trkpt>
      <trkpt lat="42.97492" lon="-1.11689">
        <ele>1081</ele>
        <time>2021-06-18T17:23:03Z</time>
      </trkpt>
      <trkpt lat="42.97473" lon="-1.11716">
        <ele>1082</ele>
        <time>2021-06-18T17:23:09Z</time>
      </trkpt>
      <trkpt lat="42.97429" lon="-1.11763">
        <ele>1085</ele>
        <time>2021-06-18T17:23:23Z</time>
      </trkpt>
      <trkpt lat="42.97374" lon="-1.11803">
        <ele>1085</ele>
        <time>2021-06-18T17:23:37Z</time>
      </trkpt>
      <trkpt lat="42.97335" lon="-1.11801">
        <ele>1089</ele>
        <time>2021-06-18T17:23:46Z</time>
      </trkpt>
      <trkpt lat="42.97285" lon="-1.11748">
        <ele>1098</ele>
        <time>2021-06-18T17:24:01Z</time>
      </trkpt>
      <trkpt lat="42.97267" lon="-1.11737">
        <ele>1100</ele>
        <time>2021-06-18T17:24:06Z</time>
      </trkpt>
      <trkpt lat="42.97254" lon="-1.11751">
        <ele>1097</ele>
        <time>2021-06-18T17:24:09Z</time>
      </trkpt>
      <trkpt lat="42.97245" lon="-1.11786">
        <ele>1094</ele>
        <time>2021-06-18T17:24:16Z</time>
      </trkpt>
      <trkpt lat="42.97234" lon="-1.11808">
        <ele>1092</ele>
        <time>2021-06-18T17:24:20Z</time>
      </trkpt>
      <trkpt lat="42.97211" lon="-1.11812">
        <ele>1093</ele>
        <time>2021-06-18T17:24:26Z</time>
      </trkpt>
      <trkpt lat="42.97193" lon="-1.11793">
        <ele>1095</ele>
        <time>2021-06-18T17:24:31Z</time>
      </trkpt>
      <trkpt lat="42.9721" lon="-1.11782">
        <ele>1096</ele>
        <time>2021-06-18T17:24:35Z</time>
      </trkpt>
      <trkpt lat="42.97216" lon="-1.11772">
        <ele>1096</ele>
        <time>2021-06-18T17:24:38Z</time>
      </trkpt>
      <trkpt lat="42.97219" lon="-1.11751">
        <ele>1098</ele>
        <time>2021-06-18T17:24:41Z</time>
      </trkpt>
      <trkpt lat="42.97218" lon="-1.11718">
        <ele>1104</ele>
        <time>2021-06-18T17:24:47Z</time>
      </trkpt>
      <trkpt lat="42.97163" lon="-1.11521">
        <ele>1128</ele>
        <time>2021-06-18T17:25:23Z</time>
      </trkpt>
      <trkpt lat="42.97164" lon="-1.11499">
        <ele>1129</ele>
        <time>2021-06-18T17:25:27Z</time>
      </trkpt>
      <trkpt lat="42.97171" lon="-1.11495">
        <ele>1130</ele>
        <time>2021-06-18T17:25:29Z</time>
      </trkpt>
      <trkpt lat="42.9718" lon="-1.11498">
        <ele>1130</ele>
        <time>2021-06-18T17:25:31Z</time>
      </trkpt>
      <trkpt lat="42.97198" lon="-1.11524">
        <ele>1128</ele>
        <time>2021-06-18T17:25:37Z</time>
      </trkpt>
      <trkpt lat="42.9724" lon="-1.11571">
        <ele>1123</ele>
        <time>2021-06-18T17:25:49Z</time>
      </trkpt>
      <trkpt lat="42.97267" lon="-1.11589">
        <ele>1121</ele>
        <time>2021-06-18T17:25:56Z</time>
      </trkpt>
      <trkpt lat="42.97289" lon="-1.11589">
        <ele>1122</ele>
        <time>2021-06-18T17:26:02Z</time>
      </trkpt>
      <trkpt lat="42.97311" lon="-1.11568">
        <ele>1125</ele>
        <time>2021-06-18T17:26:08Z</time>
      </trkpt>
      <trkpt lat="42.97318" lon="-1.11555">
        <ele>1126</ele>
        <time>2021-06-18T17:26:11Z</time>
      </trkpt>
      <trkpt lat="42.97323" lon="-1.11537">
        <ele>1127</ele>
        <time>2021-06-18T17:26:14Z</time>
      </trkpt>
      <trkpt lat="42.97328" lon="-1.11469">
        <ele>1134</ele>
        <time>2021-06-18T17:26:26Z</time>
      </trkpt>
      <trkpt lat="42.97327" lon="-1.11428">
        <ele>1140</ele>
        <time>2021-06-18T17:26:33Z</time>
      </trkpt>
      <trkpt lat="42.97332" lon="-1.11414">
        <ele>1141</ele>
        <time>2021-06-18T17:26:35Z</time>
      </trkpt>
      <trkpt lat="42.97346" lon="-1.11408">
        <ele>1142</ele>
        <time>2021-06-18T17:26:39Z</time>
      </trkpt>
      <trkpt lat="42.97399" lon="-1.11395">
        <ele>1140</ele>
        <time>2021-06-18T17:26:51Z</time>
      </trkpt>
      <trkpt lat="42.97412" lon="-1.11388">
        <ele>1139</ele>
        <time>2021-06-18T17:26:55Z</time>
      </trkpt>
      <trkpt lat="42.97428" lon="-1.11372">
        <ele>1139</ele>
        <time>2021-06-18T17:26:59Z</time>
      </trkpt>
      <trkpt lat="42.97435" lon="-1.1135">
        <ele>1141</ele>
        <time>2021-06-18T17:27:03Z</time>
      </trkpt>
      <trkpt lat="42.97433" lon="-1.11332">
        <ele>1143</ele>
        <time>2021-06-18T17:27:06Z</time>
      </trkpt>
      <trkpt lat="42.97409" lon="-1.11288">
        <ele>1146</ele>
        <time>2021-06-18T17:27:16Z</time>
      </trkpt>
      <trkpt lat="42.97398" lon="-1.11226">
        <ele>1149</ele>
        <time>2021-06-18T17:27:27Z</time>
      </trkpt>
      <trkpt lat="42.97393" lon="-1.11166">
        <ele>1151</ele>
        <time>2021-06-18T17:27:37Z</time>
      </trkpt>
      <trkpt lat="42.97379" lon="-1.11085">
        <ele>1159</ele>
        <time>2021-06-18T17:27:51Z</time>
      </trkpt>
      <trkpt lat="42.97379" lon="-1.11074">
        <ele>1160</ele>
        <time>2021-06-18T17:27:53Z</time>
      </trkpt>
      <trkpt lat="42.97386" lon="-1.11056">
        <ele>1160</ele>
        <time>2021-06-18T17:27:57Z</time>
      </trkpt>
      <trkpt lat="42.97411" lon="-1.11021">
        <ele>1158</ele>
        <time>2021-06-18T17:28:05Z</time>
      </trkpt>
      <trkpt lat="42.97443" lon="-1.10984">
        <ele>1160</ele>
        <time>2021-06-18T17:28:15Z</time>
      </trkpt>
      <trkpt lat="42.9748" lon="-1.1095">
        <ele>1162</ele>
        <time>2021-06-18T17:28:25Z</time>
      </trkpt>
      <trkpt lat="42.97507" lon="-1.10919">
        <ele>1165</ele>
        <time>2021-06-18T17:28:33Z</time>
      </trkpt>
      <trkpt lat="42.97521" lon="-1.10895">
        <ele>1166</ele>
        <time>2021-06-18T17:28:39Z</time>
      </trkpt>
      <trkpt lat="42.97539" lon="-1.10845">
        <ele>1170</ele>
        <time>2021-06-18T17:28:48Z</time>
      </trkpt>
      <trkpt lat="42.97559" lon="-1.10803">
        <ele>1171</ele>
        <time>2021-06-18T17:28:57Z</time>
      </trkpt>
      <trkpt lat="42.97574" lon="-1.10779">
        <ele>1172</ele>
        <time>2021-06-18T17:29:02Z</time>
      </trkpt>
      <trkpt lat="42.97589" lon="-1.10743">
        <ele>1173</ele>
        <time>2021-06-18T17:29:09Z</time>
      </trkpt>
      <trkpt lat="42.97593" lon="-1.10716">
        <ele>1173</ele>
        <time>2021-06-18T17:29:14Z</time>
      </trkpt>
      <trkpt lat="42.97585" lon="-1.10686">
        <ele>1173</ele>
        <time>2021-06-18T17:29:19Z</time>
      </trkpt>
      <trkpt lat="42.97568" lon="-1.10666">
        <ele>1173</ele>
        <time>2021-06-18T17:29:25Z</time>
      </trkpt>
      <trkpt lat="42.97554" lon="-1.10658">
        <ele>1172</ele>
        <time>2021-06-18T17:29:28Z</time>
      </trkpt>
      <trkpt lat="42.97541" lon="-1.10654">
        <ele>1172</ele>
        <time>2021-06-18T17:29:31Z</time>
      </trkpt>
      <trkpt lat="42.97491" lon="-1.1065">
        <ele>1170</ele>
        <time>2021-06-18T17:29:43Z</time>
      </trkpt>
      <trkpt lat="42.9743" lon="-1.10664">
        <ele>1166</ele>
        <time>2021-06-18T17:29:57Z</time>
      </trkpt>
      <trkpt lat="42.97365" lon="-1.10673">
        <ele>1157</ele>
        <time>2021-06-18T17:30:13Z</time>
      </trkpt>
      <trkpt lat="42.97346" lon="-1.10681">
        <ele>1156</ele>
        <time>2021-06-18T17:30:17Z</time>
      </trkpt>
      <trkpt lat="42.9732" lon="-1.107">
        <ele>1157</ele>
        <time>2021-06-18T17:30:24Z</time>
      </trkpt>
      <trkpt lat="42.97303" lon="-1.10716">
        <ele>1159</ele>
        <time>2021-06-18T17:30:29Z</time>
      </trkpt>
      <trkpt lat="42.97284" lon="-1.10743">
        <ele>1163</ele>
        <time>2021-06-18T17:30:35Z</time>
      </trkpt>
      <trkpt lat="42.97274" lon="-1.10753">
        <ele>1164</ele>
        <time>2021-06-18T17:30:38Z</time>
      </trkpt>
      <trkpt lat="42.97266" lon="-1.10754">
        <ele>1164</ele>
        <time>2021-06-18T17:30:40Z</time>
      </trkpt>
      <trkpt lat="42.97252" lon="-1.10748">
        <ele>1162</ele>
        <time>2021-06-18T17:30:44Z</time>
      </trkpt>
      <trkpt lat="42.97192" lon="-1.10638">
        <ele>1145</ele>
        <time>2021-06-18T17:31:07Z</time>
      </trkpt>
      <trkpt lat="42.97162" lon="-1.10606">
        <ele>1139</ele>
        <time>2021-06-18T17:31:16Z</time>
      </trkpt>
      <trkpt lat="42.97133" lon="-1.10603">
        <ele>1134</ele>
        <time>2021-06-18T17:31:23Z</time>
      </trkpt>
      <trkpt lat="42.97079" lon="-1.10616">
        <ele>1128</ele>
        <time>2021-06-18T17:31:35Z</time>
      </trkpt>
      <trkpt lat="42.97068" lon="-1.10626">
        <ele>1127</ele>
        <time>2021-06-18T17:31:39Z</time>
      </trkpt>
      <trkpt lat="42.97059" lon="-1.10635">
        <ele>1127</ele>
        <time>2021-06-18T17:31:41Z</time>
      </trkpt>
      <trkpt lat="42.97053" lon="-1.10655">
        <ele>1129</ele>
        <time>2021-06-18T17:31:45Z</time>
      </trkpt>
      <trkpt lat="42.97052" lon="-1.10676">
        <ele>1133</ele>
        <time>2021-06-18T17:31:48Z</time>
      </trkpt>
      <trkpt lat="42.97049" lon="-1.10686">
        <ele>1135</ele>
        <time>2021-06-18T17:31:50Z</time>
      </trkpt>
      <trkpt lat="42.97041" lon="-1.10694">
        <ele>1135</ele>
        <time>2021-06-18T17:31:53Z</time>
      </trkpt>
      <trkpt lat="42.97007" lon="-1.10703">
        <ele>1129</ele>
        <time>2021-06-18T17:32:01Z</time>
      </trkpt>
      <trkpt lat="42.96973" lon="-1.10721">
        <ele>1136</ele>
        <time>2021-06-18T17:32:09Z</time>
      </trkpt>
      <trkpt lat="42.9696" lon="-1.10713">
        <ele>1137</ele>
        <time>2021-06-18T17:32:13Z</time>
      </trkpt>
      <trkpt lat="42.96953" lon="-1.10675">
        <ele>1131</ele>
        <time>2021-06-18T17:32:19Z</time>
      </trkpt>
      <trkpt lat="42.9695" lon="-1.10641">
        <ele>1130</ele>
        <time>2021-06-18T17:32:25Z</time>
      </trkpt>
      <trkpt lat="42.96958" lon="-1.10582">
        <ele>1125</ele>
        <time>2021-06-18T17:32:35Z</time>
      </trkpt>
      <trkpt lat="42.96988" lon="-1.10441">
        <ele>1104</ele>
        <time>2021-06-18T17:33:00Z</time>
      </trkpt>
      <trkpt lat="42.96991" lon="-1.10415">
        <ele>1101</ele>
        <time>2021-06-18T17:33:05Z</time>
      </trkpt>
      <trkpt lat="42.96988" lon="-1.1039">
        <ele>1098</ele>
        <time>2021-06-18T17:33:09Z</time>
      </trkpt>
      <trkpt lat="42.96976" lon="-1.1038">
        <ele>1099</ele>
        <time>2021-06-18T17:33:13Z</time>
      </trkpt>
      <trkpt lat="42.96955" lon="-1.1038">
        <ele>1104</ele>
        <time>2021-06-18T17:33:17Z</time>
      </trkpt>
      <trkpt lat="42.96941" lon="-1.10383">
        <ele>1108</ele>
        <time>2021-06-18T17:33:21Z</time>
      </trkpt>
      <trkpt lat="42.96927" lon="-1.1038">
        <ele>1110</ele>
        <time>2021-06-18T17:33:24Z</time>
      </trkpt>
      <trkpt lat="42.96923" lon="-1.10367">
        <ele>1108</ele>
        <time>2021-06-18T17:33:27Z</time>
      </trkpt>
      <trkpt lat="42.9692" lon="-1.10337">
        <ele>1102</ele>
        <time>2021-06-18T17:33:32Z</time>
      </trkpt>
      <trkpt lat="42.96907" lon="-1.10314">
        <ele>1104</ele>
        <time>2021-06-18T17:33:37Z</time>
      </trkpt>
      <trkpt lat="42.96898" lon="-1.10288">
        <ele>1105</ele>
        <time>2021-06-18T17:33:42Z</time>
      </trkpt>
      <trkpt lat="42.96899" lon="-1.10269">
        <ele>1104</ele>
        <time>2021-06-18T17:33:45Z</time>
      </trkpt>
      <trkpt lat="42.96908" lon="-1.10257">
        <ele>1101</ele>
        <time>2021-06-18T17:33:48Z</time>
      </trkpt>
      <trkpt lat="42.96926" lon="-1.10254">
        <ele>1097</ele>
        <time>2021-06-18T17:33:52Z</time>
      </trkpt>
      <trkpt lat="42.96959" lon="-1.1024">
        <ele>1092</ele>
        <time>2021-06-18T17:34:00Z</time>
      </trkpt>
      <trkpt lat="42.96973" lon="-1.10225">
        <ele>1091</ele>
        <time>2021-06-18T17:34:04Z</time>
      </trkpt>
      <trkpt lat="42.96997" lon="-1.10148">
        <ele>1096</ele>
        <time>2021-06-18T17:34:19Z</time>
      </trkpt>
      <trkpt lat="42.97006" lon="-1.10083">
        <ele>1099</ele>
        <time>2021-06-18T17:34:30Z</time>
      </trkpt>
      <trkpt lat="42.97025" lon="-1.10067">
        <ele>1095</ele>
        <time>2021-06-18T17:34:35Z</time>
      </trkpt>
      <trkpt lat="42.9704" lon="-1.10049">
        <ele>1092</ele>
        <time>2021-06-18T17:34:40Z</time>
      </trkpt>
      <trkpt lat="42.97039" lon="-1.10024">
        <ele>1093</ele>
        <time>2021-06-18T17:34:44Z</time>
      </trkpt>
      <trkpt lat="42.97028" lon="-1.09987">
        <ele>1099</ele>
        <time>2021-06-18T17:34:51Z</time>
      </trkpt>
      <trkpt lat="42.97016" lon="-1.0996">
        <ele>1104</ele>
        <time>2021-06-18T17:34:56Z</time>
      </trkpt>
      <trkpt lat="42.97014" lon="-1.09933">
        <ele>1106</ele>
        <time>2021-06-18T17:35:01Z</time>
      </trkpt>
      <trkpt lat="42.97059" lon="-1.09904">
        <ele>1097</ele>
        <time>2021-06-18T17:35:12Z</time>
      </trkpt>
      <trkpt lat="42.9708" lon="-1.09894">
        <ele>1094</ele>
        <time>2021-06-18T17:35:18Z</time>
      </trkpt>
      <trkpt lat="42.97105" lon="-1.0987">
        <ele>1095</ele>
        <time>2021-06-18T17:35:25Z</time>
      </trkpt>
      <trkpt lat="42.9717" lon="-1.09853">
        <ele>1091</ele>
        <time>2021-06-18T17:35:40Z</time>
      </trkpt>
      <trkpt lat="42.97201" lon="-1.09841">
        <ele>1090</ele>
        <time>2021-06-18T17:35:48Z</time>
      </trkpt>
      <trkpt lat="42.97249" lon="-1.09799">
        <ele>1091</ele>
        <time>2021-06-18T17:36:01Z</time>
      </trkpt>
      <trkpt lat="42.97281" lon="-1.09781">
        <ele>1089</ele>
        <time>2021-06-18T17:36:09Z</time>
      </trkpt>
      <trkpt lat="42.97294" lon="-1.09778">
        <ele>1088</ele>
        <time>2021-06-18T17:36:12Z</time>
      </trkpt>
      <trkpt lat="42.97307" lon="-1.09769">
        <ele>1087</ele>
        <time>2021-06-18T17:36:16Z</time>
      </trkpt>
      <trkpt lat="42.97314" lon="-1.09758">
        <ele>1088</ele>
        <time>2021-06-18T17:36:18Z</time>
      </trkpt>
      <trkpt lat="42.97318" lon="-1.09743">
        <ele>1089</ele>
        <time>2021-06-18T17:36:21Z</time>
      </trkpt>
      <trkpt lat="42.97316" lon="-1.09723">
        <ele>1089</ele>
        <time>2021-06-18T17:36:24Z</time>
      </trkpt>
      <trkpt lat="42.97306" lon="-1.09696">
        <ele>1089</ele>
        <time>2021-06-18T17:36:29Z</time>
      </trkpt>
      <trkpt lat="42.97297" lon="-1.0968">
        <ele>1090</ele>
        <time>2021-06-18T17:36:33Z</time>
      </trkpt>
      <trkpt lat="42.97265" lon="-1.09646">
        <ele>1092</ele>
        <time>2021-06-18T17:36:42Z</time>
      </trkpt>
      <trkpt lat="42.97246" lon="-1.09633">
        <ele>1093</ele>
        <time>2021-06-18T17:36:47Z</time>
      </trkpt>
      <trkpt lat="42.97221" lon="-1.0963">
        <ele>1094</ele>
        <time>2021-06-18T17:36:53Z</time>
      </trkpt>
      <trkpt lat="42.97192" lon="-1.09631">
        <ele>1097</ele>
        <time>2021-06-18T17:37:00Z</time>
      </trkpt>
      <trkpt lat="42.97175" lon="-1.09619">
        <ele>1097</ele>
        <time>2021-06-18T17:37:04Z</time>
      </trkpt>
      <trkpt lat="42.9714" lon="-1.09574">
        <ele>1092</ele>
        <time>2021-06-18T17:37:16Z</time>
      </trkpt>
      <trkpt lat="42.97097" lon="-1.09505">
        <ele>1083</ele>
        <time>2021-06-18T17:37:31Z</time>
      </trkpt>
      <trkpt lat="42.97075" lon="-1.09495">
        <ele>1082</ele>
        <time>2021-06-18T17:37:37Z</time>
      </trkpt>
      <trkpt lat="42.97064" lon="-1.09504">
        <ele>1085</ele>
        <time>2021-06-18T17:37:40Z</time>
      </trkpt>
      <trkpt lat="42.97054" lon="-1.0952">
        <ele>1089</ele>
        <time>2021-06-18T17:37:43Z</time>
      </trkpt>
      <trkpt lat="42.97047" lon="-1.09522">
        <ele>1090</ele>
        <time>2021-06-18T17:37:45Z</time>
      </trkpt>
      <trkpt lat="42.97036" lon="-1.09521">
        <ele>1091</ele>
        <time>2021-06-18T17:37:47Z</time>
      </trkpt>
      <trkpt lat="42.97015" lon="-1.09507">
        <ele>1090</ele>
        <time>2021-06-18T17:37:53Z</time>
      </trkpt>
      <trkpt lat="42.96994" lon="-1.09502">
        <ele>1092</ele>
        <time>2021-06-18T17:37:58Z</time>
      </trkpt>
      <trkpt lat="42.96979" lon="-1.09491">
        <ele>1095</ele>
        <time>2021-06-18T17:38:02Z</time>
      </trkpt>
      <trkpt lat="42.96968" lon="-1.09472">
        <ele>1098</ele>
        <time>2021-06-18T17:38:06Z</time>
      </trkpt>
      <trkpt lat="42.96966" lon="-1.09449">
        <ele>1097</ele>
        <time>2021-06-18T17:38:10Z</time>
      </trkpt>
      <trkpt lat="42.97003" lon="-1.09356">
        <ele>1081</ele>
        <time>2021-06-18T17:38:28Z</time>
      </trkpt>
      <trkpt lat="42.97007" lon="-1.09323">
        <ele>1080</ele>
        <time>2021-06-18T17:38:34Z</time>
      </trkpt>
      <trkpt lat="42.96975" lon="-1.09263">
        <ele>1088</ele>
        <time>2021-06-18T17:38:46Z</time>
      </trkpt>
      <trkpt lat="42.9694" lon="-1.09127">
        <ele>1075</ele>
        <time>2021-06-18T17:39:11Z</time>
      </trkpt>
      <trkpt lat="42.96932" lon="-1.09112">
        <ele>1073</ele>
        <time>2021-06-18T17:39:14Z</time>
      </trkpt>
      <trkpt lat="42.96922" lon="-1.09101">
        <ele>1072</ele>
        <time>2021-06-18T17:39:17Z</time>
      </trkpt>
      <trkpt lat="42.96896" lon="-1.09094">
        <ele>1075</ele>
        <time>2021-06-18T17:39:23Z</time>
      </trkpt>
      <trkpt lat="42.96871" lon="-1.09093">
        <ele>1079</ele>
        <time>2021-06-18T17:39:29Z</time>
      </trkpt>
      <trkpt lat="42.9684" lon="-1.09063">
        <ele>1080</ele>
        <time>2021-06-18T17:39:38Z</time>
      </trkpt>
      <trkpt lat="42.9679" lon="-1.09025">
        <ele>1088</ele>
        <time>2021-06-18T17:39:51Z</time>
      </trkpt>
      <trkpt lat="42.96789" lon="-1.09001">
        <ele>1085</ele>
        <time>2021-06-18T17:39:56Z</time>
      </trkpt>
      <trkpt lat="42.96812" lon="-1.08992">
        <ele>1082</ele>
        <time>2021-06-18T17:40:01Z</time>
      </trkpt>
      <trkpt lat="42.96842" lon="-1.08984">
        <ele>1078</ele>
        <time>2021-06-18T17:40:08Z</time>
      </trkpt>
      <trkpt lat="42.96866" lon="-1.08986">
        <ele>1073</ele>
        <time>2021-06-18T17:40:14Z</time>
      </trkpt>
      <trkpt lat="42.96886" lon="-1.08978">
        <ele>1071</ele>
        <time>2021-06-18T17:40:19Z</time>
      </trkpt>
      <trkpt lat="42.96908" lon="-1.08951">
        <ele>1073</ele>
        <time>2021-06-18T17:40:26Z</time>
      </trkpt>
      <trkpt lat="42.9696" lon="-1.08854">
        <ele>1068</ele>
        <time>2021-06-18T17:40:46Z</time>
      </trkpt>
      <trkpt lat="42.96964" lon="-1.08835">
        <ele>1069</ele>
        <time>2021-06-18T17:40:50Z</time>
      </trkpt>
      <trkpt lat="42.96945" lon="-1.08682">
        <ele>1079</ele>
        <time>2021-06-18T17:41:16Z</time>
      </trkpt>
      <trkpt lat="42.96947" lon="-1.08625">
        <ele>1074</ele>
        <time>2021-06-18T17:41:26Z</time>
      </trkpt>
      <trkpt lat="42.96964" lon="-1.08587">
        <ele>1064</ele>
        <time>2021-06-18T17:41:33Z</time>
      </trkpt>
      <trkpt lat="42.96965" lon="-1.08573">
        <ele>1062</ele>
        <time>2021-06-18T17:41:36Z</time>
      </trkpt>
      <trkpt lat="42.96958" lon="-1.08545">
        <ele>1061</ele>
        <time>2021-06-18T17:41:41Z</time>
      </trkpt>
      <trkpt lat="42.96947" lon="-1.08523">
        <ele>1062</ele>
        <time>2021-06-18T17:41:46Z</time>
      </trkpt>
      <trkpt lat="42.96928" lon="-1.085">
        <ele>1066</ele>
        <time>2021-06-18T17:41:51Z</time>
      </trkpt>
      <trkpt lat="42.96909" lon="-1.0849">
        <ele>1072</ele>
        <time>2021-06-18T17:41:56Z</time>
      </trkpt>
      <trkpt lat="42.96905" lon="-1.08466">
        <ele>1070</ele>
        <time>2021-06-18T17:42:00Z</time>
      </trkpt>
      <trkpt lat="42.96913" lon="-1.08452">
        <ele>1065</ele>
        <time>2021-06-18T17:42:03Z</time>
      </trkpt>
      <trkpt lat="42.96916" lon="-1.08432">
        <ele>1061</ele>
        <time>2021-06-18T17:42:07Z</time>
      </trkpt>
      <trkpt lat="42.96912" lon="-1.08412">
        <ele>1061</ele>
        <time>2021-06-18T17:42:10Z</time>
      </trkpt>
      <trkpt lat="42.96887" lon="-1.08378">
        <ele>1068</ele>
        <time>2021-06-18T17:42:19Z</time>
      </trkpt>
      <trkpt lat="42.96875" lon="-1.08355">
        <ele>1071</ele>
        <time>2021-06-18T17:42:24Z</time>
      </trkpt>
      <trkpt lat="42.96874" lon="-1.08326">
        <ele>1069</ele>
        <time>2021-06-18T17:42:28Z</time>
      </trkpt>
      <trkpt lat="42.969" lon="-1.08293">
        <ele>1059</ele>
        <time>2021-06-18T17:42:37Z</time>
      </trkpt>
      <trkpt lat="42.96904" lon="-1.08278">
        <ele>1058</ele>
        <time>2021-06-18T17:42:40Z</time>
      </trkpt>
      <trkpt lat="42.96901" lon="-1.08252">
        <ele>1058</ele>
        <time>2021-06-18T17:42:44Z</time>
      </trkpt>
      <trkpt lat="42.96883" lon="-1.08226">
        <ele>1058</ele>
        <time>2021-06-18T17:42:50Z</time>
      </trkpt>
      <trkpt lat="42.96794" lon="-1.08159">
        <ele>1066</ele>
        <time>2021-06-18T17:43:14Z</time>
      </trkpt>
      <trkpt lat="42.96768" lon="-1.0815">
        <ele>1072</ele>
        <time>2021-06-18T17:43:20Z</time>
      </trkpt>
      <trkpt lat="42.96751" lon="-1.08151">
        <ele>1077</ele>
        <time>2021-06-18T17:43:24Z</time>
      </trkpt>
      <trkpt lat="42.96735" lon="-1.08148">
        <ele>1081</ele>
        <time>2021-06-18T17:43:28Z</time>
      </trkpt>
      <trkpt lat="42.96733" lon="-1.08132">
        <ele>1082</ele>
        <time>2021-06-18T17:43:31Z</time>
      </trkpt>
      <trkpt lat="42.96758" lon="-1.08094">
        <ele>1074</ele>
        <time>2021-06-18T17:43:39Z</time>
      </trkpt>
      <trkpt lat="42.96774" lon="-1.08064">
        <ele>1075</ele>
        <time>2021-06-18T17:43:46Z</time>
      </trkpt>
      <trkpt lat="42.96787" lon="-1.08053">
        <ele>1074</ele>
        <time>2021-06-18T17:43:49Z</time>
      </trkpt>
      <trkpt lat="42.96811" lon="-1.08047">
        <ele>1069</ele>
        <time>2021-06-18T17:43:55Z</time>
      </trkpt>
      <trkpt lat="42.96838" lon="-1.08047">
        <ele>1061</ele>
        <time>2021-06-18T17:44:01Z</time>
      </trkpt>
      <trkpt lat="42.96853" lon="-1.08041">
        <ele>1061</ele>
        <time>2021-06-18T17:44:05Z</time>
      </trkpt>
      <trkpt lat="42.96883" lon="-1.08007">
        <ele>1065</ele>
        <time>2021-06-18T17:44:14Z</time>
      </trkpt>
      <trkpt lat="42.96934" lon="-1.07985">
        <ele>1062</ele>
        <time>2021-06-18T17:44:27Z</time>
      </trkpt>
      <trkpt lat="42.96952" lon="-1.07971">
        <ele>1063</ele>
        <time>2021-06-18T17:44:31Z</time>
      </trkpt>
      <trkpt lat="42.96971" lon="-1.07966">
        <ele>1062</ele>
        <time>2021-06-18T17:44:36Z</time>
      </trkpt>
      <trkpt lat="42.97039" lon="-1.07978">
        <ele>1052</ele>
        <time>2021-06-18T17:44:52Z</time>
      </trkpt>
      <trkpt lat="42.97071" lon="-1.07975">
        <ele>1052</ele>
        <time>2021-06-18T17:44:59Z</time>
      </trkpt>
      <trkpt lat="42.97096" lon="-1.07977">
        <ele>1049</ele>
        <time>2021-06-18T17:45:05Z</time>
      </trkpt>
      <trkpt lat="42.97139" lon="-1.07992">
        <ele>1039</ele>
        <time>2021-06-18T17:45:16Z</time>
      </trkpt>
      <trkpt lat="42.97157" lon="-1.07987">
        <ele>1037</ele>
        <time>2021-06-18T17:45:20Z</time>
      </trkpt>
      <trkpt lat="42.9717" lon="-1.07969">
        <ele>1036</ele>
        <time>2021-06-18T17:45:24Z</time>
      </trkpt>
      <trkpt lat="42.97176" lon="-1.07942">
        <ele>1037</ele>
        <time>2021-06-18T17:45:29Z</time>
      </trkpt>
      <trkpt lat="42.97174" lon="-1.07882">
        <ele>1037</ele>
        <time>2021-06-18T17:45:39Z</time>
      </trkpt>
      <trkpt lat="42.97166" lon="-1.07854">
        <ele>1037</ele>
        <time>2021-06-18T17:45:44Z</time>
      </trkpt>
      <trkpt lat="42.97153" lon="-1.07834">
        <ele>1039</ele>
        <time>2021-06-18T17:45:49Z</time>
      </trkpt>
      <trkpt lat="42.97119" lon="-1.0782">
        <ele>1045</ele>
        <time>2021-06-18T17:45:57Z</time>
      </trkpt>
      <trkpt lat="42.97086" lon="-1.07782">
        <ele>1045</ele>
        <time>2021-06-18T17:46:07Z</time>
      </trkpt>
      <trkpt lat="42.9706" lon="-1.07739">
        <ele>1041</ele>
        <time>2021-06-18T17:46:17Z</time>
      </trkpt>
      <trkpt lat="42.97037" lon="-1.07687">
        <ele>1034</ele>
        <time>2021-06-18T17:46:27Z</time>
      </trkpt>
      <trkpt lat="42.97021" lon="-1.07669">
        <ele>1034</ele>
        <time>2021-06-18T17:46:32Z</time>
      </trkpt>
      <trkpt lat="42.97004" lon="-1.07669">
        <ele>1038</ele>
        <time>2021-06-18T17:46:36Z</time>
      </trkpt>
      <trkpt lat="42.96971" lon="-1.07674">
        <ele>1049</ele>
        <time>2021-06-18T17:46:44Z</time>
      </trkpt>
      <trkpt lat="42.96962" lon="-1.07666">
        <ele>1051</ele>
        <time>2021-06-18T17:46:46Z</time>
      </trkpt>
      <trkpt lat="42.96958" lon="-1.07646">
        <ele>1052</ele>
        <time>2021-06-18T17:46:50Z</time>
      </trkpt>
      <trkpt lat="42.96963" lon="-1.07628">
        <ele>1050</ele>
        <time>2021-06-18T17:46:53Z</time>
      </trkpt>
      <trkpt lat="42.96984" lon="-1.07612">
        <ele>1044</ele>
        <time>2021-06-18T17:46:59Z</time>
      </trkpt>
      <trkpt lat="42.97026" lon="-1.07591">
        <ele>1031</ele>
        <time>2021-06-18T17:47:09Z</time>
      </trkpt>
      <trkpt lat="42.97062" lon="-1.07565">
        <ele>1023</ele>
        <time>2021-06-18T17:47:19Z</time>
      </trkpt>
      <trkpt lat="42.9709" lon="-1.07537">
        <ele>1018</ele>
        <time>2021-06-18T17:47:27Z</time>
      </trkpt>
      <trkpt lat="42.97102" lon="-1.07464">
        <ele>1019</ele>
        <time>2021-06-18T17:47:40Z</time>
      </trkpt>
      <trkpt lat="42.97102" lon="-1.07412">
        <ele>1020</ele>
        <time>2021-06-18T17:47:49Z</time>
      </trkpt>
      <trkpt lat="42.97097" lon="-1.07393">
        <ele>1023</ele>
        <time>2021-06-18T17:47:52Z</time>
      </trkpt>
      <trkpt lat="42.97096" lon="-1.0737">
        <ele>1024</ele>
        <time>2021-06-18T17:47:56Z</time>
      </trkpt>
      <trkpt lat="42.9711" lon="-1.07351">
        <ele>1019</ele>
        <time>2021-06-18T17:48:01Z</time>
      </trkpt>
      <trkpt lat="42.97131" lon="-1.07315">
        <ele>1010</ele>
        <time>2021-06-18T17:48:08Z</time>
      </trkpt>
      <trkpt lat="42.97133" lon="-1.07293">
        <ele>1009</ele>
        <time>2021-06-18T17:48:12Z</time>
      </trkpt>
      <trkpt lat="42.97115" lon="-1.0719">
        <ele>1016</ele>
        <time>2021-06-18T17:48:30Z</time>
      </trkpt>
      <trkpt lat="42.97113" lon="-1.07126">
        <ele>1014</ele>
        <time>2021-06-18T17:48:41Z</time>
      </trkpt>
      <trkpt lat="42.97126" lon="-1.07016">
        <ele>1002</ele>
        <time>2021-06-18T17:49:00Z</time>
      </trkpt>
      <trkpt lat="42.97139" lon="-1.06982">
        <ele>997</ele>
        <time>2021-06-18T17:49:07Z</time>
      </trkpt>
      <trkpt lat="42.9715" lon="-1.06969">
        <ele>994</ele>
        <time>2021-06-18T17:49:10Z</time>
      </trkpt>
      <trkpt lat="42.97161" lon="-1.06962">
        <ele>991</ele>
        <time>2021-06-18T17:49:13Z</time>
      </trkpt>
      <trkpt lat="42.97227" lon="-1.06972">
        <ele>993</ele>
        <time>2021-06-18T17:49:29Z</time>
      </trkpt>
      <trkpt lat="42.97238" lon="-1.06959">
        <ele>994</ele>
        <time>2021-06-18T17:49:32Z</time>
      </trkpt>
      <trkpt lat="42.97246" lon="-1.06834">
        <ele>997</ele>
        <time>2021-06-18T17:49:53Z</time>
      </trkpt>
      <trkpt lat="42.97233" lon="-1.06768">
        <ele>998</ele>
        <time>2021-06-18T17:50:05Z</time>
      </trkpt>
      <trkpt lat="42.97233" lon="-1.06718">
        <ele>998</ele>
        <time>2021-06-18T17:50:14Z</time>
      </trkpt>
      <trkpt lat="42.97226" lon="-1.06639">
        <ele>1001</ele>
        <time>2021-06-18T17:50:27Z</time>
      </trkpt>
      <trkpt lat="42.97211" lon="-1.06543">
        <ele>1003</ele>
        <time>2021-06-18T17:50:44Z</time>
      </trkpt>
      <trkpt lat="42.9718" lon="-1.0641">
        <ele>999</ele>
        <time>2021-06-18T17:51:08Z</time>
      </trkpt>
      <trkpt lat="42.97159" lon="-1.06337">
        <ele>1005</ele>
        <time>2021-06-18T17:51:21Z</time>
      </trkpt>
      <trkpt lat="42.9716" lon="-1.0629">
        <ele>1009</ele>
        <time>2021-06-18T17:51:29Z</time>
      </trkpt>
      <trkpt lat="42.97173" lon="-1.06211">
        <ele>1012</ele>
        <time>2021-06-18T17:51:43Z</time>
      </trkpt>
      <trkpt lat="42.97211" lon="-1.06119">
        <ele>1020</ele>
        <time>2021-06-18T17:52:01Z</time>
      </trkpt>
      <trkpt lat="42.97237" lon="-1.06064">
        <ele>1020</ele>
        <time>2021-06-18T17:52:12Z</time>
      </trkpt>
      <trkpt lat="42.97263" lon="-1.06032">
        <ele>1022</ele>
        <time>2021-06-18T17:52:21Z</time>
      </trkpt>
      <trkpt lat="42.97288" lon="-1.06009">
        <ele>1027</ele>
        <time>2021-06-18T17:52:28Z</time>
      </trkpt>
      <trkpt lat="42.97317" lon="-1.05968">
        <ele>1029</ele>
        <time>2021-06-18T17:52:37Z</time>
      </trkpt>
      <trkpt lat="42.97331" lon="-1.05923">
        <ele>1022</ele>
        <time>2021-06-18T17:52:46Z</time>
      </trkpt>
      <trkpt lat="42.9733" lon="-1.059">
        <ele>1020</ele>
        <time>2021-06-18T17:52:50Z</time>
      </trkpt>
      <trkpt lat="42.97318" lon="-1.0587">
        <ele>1021</ele>
        <time>2021-06-18T17:52:55Z</time>
      </trkpt>
      <trkpt lat="42.97329" lon="-1.05763">
        <ele>1017</ele>
        <time>2021-06-18T17:53:14Z</time>
      </trkpt>
      <trkpt lat="42.97333" lon="-1.05692">
        <ele>1014</ele>
        <time>2021-06-18T17:53:26Z</time>
      </trkpt>
      <trkpt lat="42.97321" lon="-1.05648">
        <ele>1017</ele>
        <time>2021-06-18T17:53:34Z</time>
      </trkpt>
      <trkpt lat="42.97302" lon="-1.05616">
        <ele>1020</ele>
        <time>2021-06-18T17:53:41Z</time>
      </trkpt>
      <trkpt lat="42.97211" lon="-1.05509">
        <ele>1030</ele>
        <time>2021-06-18T17:54:09Z</time>
      </trkpt>
      <trkpt lat="42.97174" lon="-1.05453">
        <ele>1029</ele>
        <time>2021-06-18T17:54:22Z</time>
      </trkpt>
      <trkpt lat="42.97165" lon="-1.05418">
        <ele>1023</ele>
        <time>2021-06-18T17:54:28Z</time>
      </trkpt>
      <trkpt lat="42.97169" lon="-1.05397">
        <ele>1021</ele>
        <time>2021-06-18T17:54:32Z</time>
      </trkpt>
      <trkpt lat="42.97184" lon="-1.05372">
        <ele>1024</ele>
        <time>2021-06-18T17:54:38Z</time>
      </trkpt>
      <trkpt lat="42.97194" lon="-1.05349">
        <ele>1028</ele>
        <time>2021-06-18T17:54:42Z</time>
      </trkpt>
      <trkpt lat="42.97193" lon="-1.05334">
        <ele>1028</ele>
        <time>2021-06-18T17:54:45Z</time>
      </trkpt>
      <trkpt lat="42.97181" lon="-1.05303">
        <ele>1031</ele>
        <time>2021-06-18T17:54:51Z</time>
      </trkpt>
      <trkpt lat="42.97155" lon="-1.05254">
        <ele>1035</ele>
        <time>2021-06-18T17:55:01Z</time>
      </trkpt>
      <trkpt lat="42.97082" lon="-1.05162">
        <ele>1027</ele>
        <time>2021-06-18T17:55:24Z</time>
      </trkpt>
      <trkpt lat="42.97059" lon="-1.05126">
        <ele>1035</ele>
        <time>2021-06-18T17:55:32Z</time>
      </trkpt>
      <trkpt lat="42.97059" lon="-1.05088">
        <ele>1038</ele>
        <time>2021-06-18T17:55:39Z</time>
      </trkpt>
      <trkpt lat="42.97069" lon="-1.05004">
        <ele>1041</ele>
        <time>2021-06-18T17:55:53Z</time>
      </trkpt>
      <trkpt lat="42.97094" lon="-1.0491">
        <ele>1037</ele>
        <time>2021-06-18T17:56:11Z</time>
      </trkpt>
      <trkpt lat="42.97114" lon="-1.04855">
        <ele>1036</ele>
        <time>2021-06-18T17:56:21Z</time>
      </trkpt>
      <trkpt lat="42.97144" lon="-1.04836">
        <ele>1038</ele>
        <time>2021-06-18T17:56:29Z</time>
      </trkpt>
      <trkpt lat="42.97216" lon="-1.0481">
        <ele>1051</ele>
        <time>2021-06-18T17:56:46Z</time>
      </trkpt>
      <trkpt lat="42.97274" lon="-1.04746">
        <ele>1046</ele>
        <time>2021-06-18T17:57:04Z</time>
      </trkpt>
      <trkpt lat="42.97279" lon="-1.04723">
        <ele>1049</ele>
        <time>2021-06-18T17:57:08Z</time>
      </trkpt>
      <trkpt lat="42.97268" lon="-1.04707">
        <ele>1049</ele>
        <time>2021-06-18T17:57:11Z</time>
      </trkpt>
      <trkpt lat="42.97256" lon="-1.04706">
        <ele>1048</ele>
        <time>2021-06-18T17:57:14Z</time>
      </trkpt>
      <trkpt lat="42.97234" lon="-1.04727">
        <ele>1045</ele>
        <time>2021-06-18T17:57:21Z</time>
      </trkpt>
      <trkpt lat="42.97147" lon="-1.04772">
        <ele>1039</ele>
        <time>2021-06-18T17:57:42Z</time>
      </trkpt>
      <trkpt lat="42.97112" lon="-1.04766">
        <ele>1037</ele>
        <time>2021-06-18T17:57:50Z</time>
      </trkpt>
      <trkpt lat="42.97104" lon="-1.04752">
        <ele>1038</ele>
        <time>2021-06-18T17:57:54Z</time>
      </trkpt>
      <trkpt lat="42.97064" lon="-1.0465">
        <ele>1052</ele>
        <time>2021-06-18T17:58:13Z</time>
      </trkpt>
      <trkpt lat="42.97058" lon="-1.04622">
        <ele>1054</ele>
        <time>2021-06-18T17:58:18Z</time>
      </trkpt>
      <trkpt lat="42.97055" lon="-1.04586">
        <ele>1055</ele>
        <time>2021-06-18T17:58:24Z</time>
      </trkpt>
      <trkpt lat="42.9706" lon="-1.04558">
        <ele>1055</ele>
        <time>2021-06-18T17:58:29Z</time>
      </trkpt>
      <trkpt lat="42.97098" lon="-1.04483">
        <ele>1055</ele>
        <time>2021-06-18T17:58:45Z</time>
      </trkpt>
      <trkpt lat="42.97129" lon="-1.04406">
        <ele>1057</ele>
        <time>2021-06-18T17:59:00Z</time>
      </trkpt>
      <trkpt lat="42.97161" lon="-1.04313">
        <ele>1055</ele>
        <time>2021-06-18T17:59:18Z</time>
      </trkpt>
      <trkpt lat="42.97166" lon="-1.0427">
        <ele>1054</ele>
        <time>2021-06-18T17:59:25Z</time>
      </trkpt>
      <trkpt lat="42.97151" lon="-1.04229">
        <ele>1057</ele>
        <time>2021-06-18T17:59:33Z</time>
      </trkpt>
      <trkpt lat="42.97119" lon="-1.04176">
        <ele>1060</ele>
        <time>2021-06-18T17:59:45Z</time>
      </trkpt>
      <trkpt lat="42.97077" lon="-1.04125">
        <ele>1063</ele>
        <time>2021-06-18T17:59:58Z</time>
      </trkpt>
      <trkpt lat="42.96997" lon="-1.04079">
        <ele>1056</ele>
        <time>2021-06-18T18:00:18Z</time>
      </trkpt>
      <trkpt lat="42.96943" lon="-1.04033">
        <ele>1063</ele>
        <time>2021-06-18T18:00:33Z</time>
      </trkpt>
      <trkpt lat="42.96883" lon="-1.03961">
        <ele>1067</ele>
        <time>2021-06-18T18:00:51Z</time>
      </trkpt>
      <trkpt lat="42.96826" lon="-1.03904">
        <ele>1065</ele>
        <time>2021-06-18T18:01:08Z</time>
      </trkpt>
      <trkpt lat="42.9678" lon="-1.03826">
        <ele>1072</ele>
        <time>2021-06-18T18:01:25Z</time>
      </trkpt>
      <trkpt lat="42.96746" lon="-1.0373">
        <ele>1067</ele>
        <time>2021-06-18T18:01:43Z</time>
      </trkpt>
      <trkpt lat="42.96725" lon="-1.03648">
        <ele>1073</ele>
        <time>2021-06-18T18:01:58Z</time>
      </trkpt>
      <trkpt lat="42.96728" lon="-1.03569">
        <ele>1079</ele>
        <time>2021-06-18T18:02:12Z</time>
      </trkpt>
      <trkpt lat="42.96718" lon="-1.03504">
        <ele>1083</ele>
        <time>2021-06-18T18:02:23Z</time>
      </trkpt>
      <trkpt lat="42.96704" lon="-1.03465">
        <ele>1082</ele>
        <time>2021-06-18T18:02:30Z</time>
      </trkpt>
      <trkpt lat="42.96681" lon="-1.03432">
        <ele>1076</ele>
        <time>2021-06-18T18:02:38Z</time>
      </trkpt>
      <trkpt lat="42.96647" lon="-1.03399">
        <ele>1073</ele>
        <time>2021-06-18T18:02:48Z</time>
      </trkpt>
      <trkpt lat="42.96619" lon="-1.03376">
        <ele>1074</ele>
        <time>2021-06-18T18:02:56Z</time>
      </trkpt>
      <trkpt lat="42.96592" lon="-1.03317">
        <ele>1069</ele>
        <time>2021-06-18T18:03:07Z</time>
      </trkpt>
      <trkpt lat="42.96592" lon="-1.03259">
        <ele>1067</ele>
        <time>2021-06-18T18:03:17Z</time>
      </trkpt>
      <trkpt lat="42.96617" lon="-1.03197">
        <ele>1076</ele>
        <time>2021-06-18T18:03:30Z</time>
      </trkpt>
      <trkpt lat="42.96614" lon="-1.03161">
        <ele>1078</ele>
        <time>2021-06-18T18:03:36Z</time>
      </trkpt>
      <trkpt lat="42.96549" lon="-1.02983">
        <ele>1091</ele>
        <time>2021-06-18T18:04:10Z</time>
      </trkpt>
      <trkpt lat="42.96539" lon="-1.0294">
        <ele>1094</ele>
        <time>2021-06-18T18:04:17Z</time>
      </trkpt>
      <trkpt lat="42.96537" lon="-1.02866">
        <ele>1099</ele>
        <time>2021-06-18T18:04:30Z</time>
      </trkpt>
      <trkpt lat="42.96524" lon="-1.02785">
        <ele>1098</ele>
        <time>2021-06-18T18:04:44Z</time>
      </trkpt>
      <trkpt lat="42.96511" lon="-1.02742">
        <ele>1094</ele>
        <time>2021-06-18T18:04:52Z</time>
      </trkpt>
      <trkpt lat="42.96514" lon="-1.02721">
        <ele>1097</ele>
        <time>2021-06-18T18:04:56Z</time>
      </trkpt>
      <trkpt lat="42.9651" lon="-1.027">
        <ele>1098</ele>
        <time>2021-06-18T18:05:00Z</time>
      </trkpt>
      <trkpt lat="42.96504" lon="-1.0268">
        <ele>1097</ele>
        <time>2021-06-18T18:05:03Z</time>
      </trkpt>
      <trkpt lat="42.96494" lon="-1.02661">
        <ele>1098</ele>
        <time>2021-06-18T18:05:07Z</time>
      </trkpt>
      <trkpt lat="42.96482" lon="-1.02541">
        <ele>1108</ele>
        <time>2021-06-18T18:05:28Z</time>
      </trkpt>
      <trkpt lat="42.96473" lon="-1.02509">
        <ele>1109</ele>
        <time>2021-06-18T18:05:34Z</time>
      </trkpt>
      <trkpt lat="42.96415" lon="-1.024">
        <ele>1104</ele>
        <time>2021-06-18T18:05:57Z</time>
      </trkpt>
      <trkpt lat="42.96404" lon="-1.02351">
        <ele>1110</ele>
        <time>2021-06-18T18:06:06Z</time>
      </trkpt>
      <trkpt lat="42.96405" lon="-1.02312">
        <ele>1111</ele>
        <time>2021-06-18T18:06:12Z</time>
      </trkpt>
      <trkpt lat="42.96423" lon="-1.02282">
        <ele>1110</ele>
        <time>2021-06-18T18:06:19Z</time>
      </trkpt>
      <trkpt lat="42.96487" lon="-1.02194">
        <ele>1121</ele>
        <time>2021-06-18T18:06:40Z</time>
      </trkpt>
      <trkpt lat="42.96538" lon="-1.02133">
        <ele>1128</ele>
        <time>2021-06-18T18:06:56Z</time>
      </trkpt>
      <trkpt lat="42.96572" lon="-1.021">
        <ele>1127</ele>
        <time>2021-06-18T18:07:06Z</time>
      </trkpt>
      <trkpt lat="42.96628" lon="-1.02025">
        <ele>1133</ele>
        <time>2021-06-18T18:07:24Z</time>
      </trkpt>
      <trkpt lat="42.96655" lon="-1.02003">
        <ele>1131</ele>
        <time>2021-06-18T18:07:31Z</time>
      </trkpt>
      <trkpt lat="42.96658" lon="-1.0199">
        <ele>1132</ele>
        <time>2021-06-18T18:07:34Z</time>
      </trkpt>
      <trkpt lat="42.96655" lon="-1.01977">
        <ele>1134</ele>
        <time>2021-06-18T18:07:36Z</time>
      </trkpt>
      <trkpt lat="42.96649" lon="-1.01963">
        <ele>1136</ele>
        <time>2021-06-18T18:07:39Z</time>
      </trkpt>
      <trkpt lat="42.96639" lon="-1.01958">
        <ele>1138</ele>
        <time>2021-06-18T18:07:41Z</time>
      </trkpt>
      <trkpt lat="42.96617" lon="-1.01976">
        <ele>1137</ele>
        <time>2021-06-18T18:07:47Z</time>
      </trkpt>
      <trkpt lat="42.96572" lon="-1.02023">
        <ele>1132</ele>
        <time>2021-06-18T18:08:00Z</time>
      </trkpt>
      <trkpt lat="42.96554" lon="-1.02035">
        <ele>1132</ele>
        <time>2021-06-18T18:08:05Z</time>
      </trkpt>
      <trkpt lat="42.96475" lon="-1.02078">
        <ele>1126</ele>
        <time>2021-06-18T18:08:25Z</time>
      </trkpt>
      <trkpt lat="42.9646" lon="-1.02075">
        <ele>1125</ele>
        <time>2021-06-18T18:08:29Z</time>
      </trkpt>
      <trkpt lat="42.96457" lon="-1.02055">
        <ele>1128</ele>
        <time>2021-06-18T18:08:32Z</time>
      </trkpt>
      <trkpt lat="42.96463" lon="-1.02022">
        <ele>1134</ele>
        <time>2021-06-18T18:08:38Z</time>
      </trkpt>
      <trkpt lat="42.96474" lon="-1.01983">
        <ele>1141</ele>
        <time>2021-06-18T18:08:45Z</time>
      </trkpt>
      <trkpt lat="42.96477" lon="-1.01947">
        <ele>1146</ele>
        <time>2021-06-18T18:08:51Z</time>
      </trkpt>
      <trkpt lat="42.96485" lon="-1.01897">
        <ele>1153</ele>
        <time>2021-06-18T18:09:00Z</time>
      </trkpt>
      <trkpt lat="42.96488" lon="-1.01839">
        <ele>1158</ele>
        <time>2021-06-18T18:09:10Z</time>
      </trkpt>
      <trkpt lat="42.96486" lon="-1.01778">
        <ele>1164</ele>
        <time>2021-06-18T18:09:20Z</time>
      </trkpt>
      <trkpt lat="42.96479" lon="-1.01733">
        <ele>1167</ele>
        <time>2021-06-18T18:09:28Z</time>
      </trkpt>
      <trkpt lat="42.96487" lon="-1.01692">
        <ele>1172</ele>
        <time>2021-06-18T18:09:35Z</time>
      </trkpt>
      <trkpt lat="42.96476" lon="-1.01645">
        <ele>1175</ele>
        <time>2021-06-18T18:09:44Z</time>
      </trkpt>
      <trkpt lat="42.9647" lon="-1.01604">
        <ele>1179</ele>
        <time>2021-06-18T18:09:51Z</time>
      </trkpt>
      <trkpt lat="42.96443" lon="-1.01526">
        <ele>1183</ele>
        <time>2021-06-18T18:10:06Z</time>
      </trkpt>
      <trkpt lat="42.96419" lon="-1.01485">
        <ele>1180</ele>
        <time>2021-06-18T18:10:15Z</time>
      </trkpt>
      <trkpt lat="42.9641" lon="-1.01461">
        <ele>1183</ele>
        <time>2021-06-18T18:10:19Z</time>
      </trkpt>
      <trkpt lat="42.96405" lon="-1.0137">
        <ele>1198</ele>
        <time>2021-06-18T18:10:35Z</time>
      </trkpt>
      <trkpt lat="42.96396" lon="-1.01322">
        <ele>1204</ele>
        <time>2021-06-18T18:10:43Z</time>
      </trkpt>
      <trkpt lat="42.96365" lon="-1.01273">
        <ele>1207</ele>
        <time>2021-06-18T18:10:54Z</time>
      </trkpt>
      <trkpt lat="42.96355" lon="-1.01229">
        <ele>1213</ele>
        <time>2021-06-18T18:11:02Z</time>
      </trkpt>
      <trkpt lat="42.96346" lon="-1.01223">
        <ele>1213</ele>
        <time>2021-06-18T18:11:05Z</time>
      </trkpt>
      <trkpt lat="42.96331" lon="-1.01227">
        <ele>1211</ele>
        <time>2021-06-18T18:11:08Z</time>
      </trkpt>
      <trkpt lat="42.96317" lon="-1.01245">
        <ele>1213</ele>
        <time>2021-06-18T18:11:13Z</time>
      </trkpt>
      <trkpt lat="42.96309" lon="-1.01264">
        <ele>1214</ele>
        <time>2021-06-18T18:11:16Z</time>
      </trkpt>
      <trkpt lat="42.96304" lon="-1.01299">
        <ele>1213</ele>
        <time>2021-06-18T18:11:23Z</time>
      </trkpt>
      <trkpt lat="42.96308" lon="-1.01343">
        <ele>1206</ele>
        <time>2021-06-18T18:11:30Z</time>
      </trkpt>
      <trkpt lat="42.96301" lon="-1.01369">
        <ele>1209</ele>
        <time>2021-06-18T18:11:35Z</time>
      </trkpt>
      <trkpt lat="42.96289" lon="-1.01378">
        <ele>1214</ele>
        <time>2021-06-18T18:11:38Z</time>
      </trkpt>
      <trkpt lat="42.96275" lon="-1.01403">
        <ele>1219</ele>
        <time>2021-06-18T18:11:43Z</time>
      </trkpt>
      <trkpt lat="42.96271" lon="-1.01492">
        <ele>1219</ele>
        <time>2021-06-18T18:11:59Z</time>
      </trkpt>
      <trkpt lat="42.96261" lon="-1.01551">
        <ele>1221</ele>
        <time>2021-06-18T18:12:09Z</time>
      </trkpt>
      <trkpt lat="42.96239" lon="-1.01631">
        <ele>1220</ele>
        <time>2021-06-18T18:12:24Z</time>
      </trkpt>
      <trkpt lat="42.96215" lon="-1.01653">
        <ele>1220</ele>
        <time>2021-06-18T18:12:30Z</time>
      </trkpt>
      <trkpt lat="42.96157" lon="-1.01635">
        <ele>1227</ele>
        <time>2021-06-18T18:12:44Z</time>
      </trkpt>
      <trkpt lat="42.96069" lon="-1.01534">
        <ele>1241</ele>
        <time>2021-06-18T18:13:11Z</time>
      </trkpt>
      <trkpt lat="42.96015" lon="-1.01441">
        <ele>1253</ele>
        <time>2021-06-18T18:13:31Z</time>
      </trkpt>
      <trkpt lat="42.96013" lon="-1.01416">
        <ele>1260</ele>
        <time>2021-06-18T18:13:36Z</time>
      </trkpt>
      <trkpt lat="42.96008" lon="-1.01399">
        <ele>1264</ele>
        <time>2021-06-18T18:13:39Z</time>
      </trkpt>
      <trkpt lat="42.95998" lon="-1.01386">
        <ele>1267</ele>
        <time>2021-06-18T18:13:42Z</time>
      </trkpt>
      <trkpt lat="42.95983" lon="-1.01388">
        <ele>1268</ele>
        <time>2021-06-18T18:13:46Z</time>
      </trkpt>
      <trkpt lat="42.95947" lon="-1.01404">
        <ele>1267</ele>
        <time>2021-06-18T18:13:54Z</time>
      </trkpt>
      <trkpt lat="42.95881" lon="-1.01422">
        <ele>1274</ele>
        <time>2021-06-18T18:14:10Z</time>
      </trkpt>
      <trkpt lat="42.9585" lon="-1.01445">
        <ele>1279</ele>
        <time>2021-06-18T18:14:18Z</time>
      </trkpt>
      <trkpt lat="42.95816" lon="-1.01483">
        <ele>1284</ele>
        <time>2021-06-18T18:14:29Z</time>
      </trkpt>
      <trkpt lat="42.95799" lon="-1.01536">
        <ele>1285</ele>
        <time>2021-06-18T18:14:38Z</time>
      </trkpt>
      <trkpt lat="42.95782" lon="-1.0156">
        <ele>1290</ele>
        <time>2021-06-18T18:14:44Z</time>
      </trkpt>
      <trkpt lat="42.95773" lon="-1.01593">
        <ele>1291</ele>
        <time>2021-06-18T18:14:50Z</time>
      </trkpt>
      <trkpt lat="42.95777" lon="-1.01654">
        <ele>1288</ele>
        <time>2021-06-18T18:15:01Z</time>
      </trkpt>
      <trkpt lat="42.95764" lon="-1.01781">
        <ele>1294</ele>
        <time>2021-06-18T18:15:23Z</time>
      </trkpt>
      <trkpt lat="42.95768" lon="-1.01818">
        <ele>1297</ele>
        <time>2021-06-18T18:15:29Z</time>
      </trkpt>
      <trkpt lat="42.95811" lon="-1.01932">
        <ele>1301</ele>
        <time>2021-06-18T18:15:51Z</time>
      </trkpt>
      <trkpt lat="42.95823" lon="-1.01975">
        <ele>1303</ele>
        <time>2021-06-18T18:15:59Z</time>
      </trkpt>
      <trkpt lat="42.95824" lon="-1.02063">
        <ele>1311</ele>
        <time>2021-06-18T18:16:14Z</time>
      </trkpt>
      <trkpt lat="42.95819" lon="-1.0208">
        <ele>1314</ele>
        <time>2021-06-18T18:16:17Z</time>
      </trkpt>
      <trkpt lat="42.95812" lon="-1.02068">
        <ele>1316</ele>
        <time>2021-06-18T18:16:20Z</time>
      </trkpt>
      <trkpt lat="42.95795" lon="-1.02012">
        <ele>1319</ele>
        <time>2021-06-18T18:16:30Z</time>
      </trkpt>
      <trkpt lat="42.95777" lon="-1.01972">
        <ele>1321</ele>
        <time>2021-06-18T18:16:38Z</time>
      </trkpt>
      <trkpt lat="42.95733" lon="-1.01898">
        <ele>1326</ele>
        <time>2021-06-18T18:16:54Z</time>
      </trkpt>
      <trkpt lat="42.95697" lon="-1.01855">
        <ele>1331</ele>
        <time>2021-06-18T18:17:05Z</time>
      </trkpt>
      <trkpt lat="42.9567" lon="-1.01812">
        <ele>1336</ele>
        <time>2021-06-18T18:17:15Z</time>
      </trkpt>
      <trkpt lat="42.95647" lon="-1.01732">
        <ele>1331</ele>
        <time>2021-06-18T18:17:30Z</time>
      </trkpt>
      <trkpt lat="42.95624" lon="-1.01589">
        <ele>1327</ele>
        <time>2021-06-18T18:17:55Z</time>
      </trkpt>
      <trkpt lat="42.95625" lon="-1.01535">
        <ele>1330</ele>
        <time>2021-06-18T18:18:04Z</time>
      </trkpt>
      <trkpt lat="42.95621" lon="-1.0151">
        <ele>1330</ele>
        <time>2021-06-18T18:18:08Z</time>
      </trkpt>
      <trkpt lat="42.95598" lon="-1.01474">
        <ele>1331</ele>
        <time>2021-06-18T18:18:17Z</time>
      </trkpt>
      <trkpt lat="42.95581" lon="-1.01453">
        <ele>1332</ele>
        <time>2021-06-18T18:18:22Z</time>
      </trkpt>
      <trkpt lat="42.95515" lon="-1.01394">
        <ele>1323</ele>
        <time>2021-06-18T18:18:40Z</time>
      </trkpt>
      <trkpt lat="42.95499" lon="-1.01376">
        <ele>1321</ele>
        <time>2021-06-18T18:18:45Z</time>
      </trkpt>
      <trkpt lat="42.95468" lon="-1.01318">
        <ele>1320</ele>
        <time>2021-06-18T18:18:57Z</time>
      </trkpt>
      <trkpt lat="42.95454" lon="-1.01299">
        <ele>1317</ele>
        <time>2021-06-18T18:19:02Z</time>
      </trkpt>
      <trkpt lat="42.95372" lon="-1.01219">
        <ele>1308</ele>
        <time>2021-06-18T18:19:26Z</time>
      </trkpt>
      <trkpt lat="42.95363" lon="-1.01213">
        <ele>1307</ele>
        <time>2021-06-18T18:19:28Z</time>
      </trkpt>
      <trkpt lat="42.95349" lon="-1.01207">
        <ele>1306</ele>
        <time>2021-06-18T18:19:31Z</time>
      </trkpt>
      <trkpt lat="42.9532" lon="-1.01207">
        <ele>1306</ele>
        <time>2021-06-18T18:19:38Z</time>
      </trkpt>
      <trkpt lat="42.95209" lon="-1.01237">
        <ele>1302</ele>
        <time>2021-06-18T18:20:05Z</time>
      </trkpt>
      <trkpt lat="42.95176" lon="-1.01241">
        <ele>1300</ele>
        <time>2021-06-18T18:20:12Z</time>
      </trkpt>
      <trkpt lat="42.95162" lon="-1.01239">
        <ele>1300</ele>
        <time>2021-06-18T18:20:16Z</time>
      </trkpt>
      <trkpt lat="42.95127" lon="-1.01227">
        <ele>1296</ele>
        <time>2021-06-18T18:20:24Z</time>
      </trkpt>
      <trkpt lat="42.951" lon="-1.01209">
        <ele>1295</ele>
        <time>2021-06-18T18:20:31Z</time>
      </trkpt>
      <trkpt lat="42.95048" lon="-1.01161">
        <ele>1290</ele>
        <time>2021-06-18T18:20:46Z</time>
      </trkpt>
      <trkpt lat="42.95035" lon="-1.0114">
        <ele>1288</ele>
        <time>2021-06-18T18:20:50Z</time>
      </trkpt>
      <trkpt lat="42.95027" lon="-1.01122">
        <ele>1287</ele>
        <time>2021-06-18T18:20:54Z</time>
      </trkpt>
      <trkpt lat="42.94995" lon="-1.01013">
        <ele>1288</ele>
        <time>2021-06-18T18:21:14Z</time>
      </trkpt>
      <trkpt lat="42.94951" lon="-1.00915">
        <ele>1282</ele>
        <time>2021-06-18T18:21:34Z</time>
      </trkpt>
      <trkpt lat="42.94944" lon="-1.00903">
        <ele>1282</ele>
        <time>2021-06-18T18:21:36Z</time>
      </trkpt>
      <trkpt lat="42.94928" lon="-1.00886">
        <ele>1281</ele>
        <time>2021-06-18T18:21:41Z</time>
      </trkpt>
      <trkpt lat="42.94901" lon="-1.00873">
        <ele>1280</ele>
        <time>2021-06-18T18:21:48Z</time>
      </trkpt>
      <trkpt lat="42.94878" lon="-1.00867">
        <ele>1281</ele>
        <time>2021-06-18T18:21:53Z</time>
      </trkpt>
      <trkpt lat="42.94847" lon="-1.0087">
        <ele>1278</ele>
        <time>2021-06-18T18:22:01Z</time>
      </trkpt>
      <trkpt lat="42.948" lon="-1.0089">
        <ele>1273</ele>
        <time>2021-06-18T18:22:12Z</time>
      </trkpt>
      <trkpt lat="42.94744" lon="-1.00927">
        <ele>1266</ele>
        <time>2021-06-18T18:22:27Z</time>
      </trkpt>
      <trkpt lat="42.94712" lon="-1.00945">
        <ele>1259</ele>
        <time>2021-06-18T18:22:35Z</time>
      </trkpt>
      <trkpt lat="42.94674" lon="-1.00955">
        <ele>1256</ele>
        <time>2021-06-18T18:22:44Z</time>
      </trkpt>
      <trkpt lat="42.94656" lon="-1.00954">
        <ele>1253</ele>
        <time>2021-06-18T18:22:48Z</time>
      </trkpt>
      <trkpt lat="42.94645" lon="-1.00948">
        <ele>1250</ele>
        <time>2021-06-18T18:22:51Z</time>
      </trkpt>
      <trkpt lat="42.94632" lon="-1.00928">
        <ele>1248</ele>
        <time>2021-06-18T18:22:55Z</time>
      </trkpt>
      <trkpt lat="42.94628" lon="-1.00908">
        <ele>1249</ele>
        <time>2021-06-18T18:22:59Z</time>
      </trkpt>
      <trkpt lat="42.94628" lon="-1.00872">
        <ele>1253</ele>
        <time>2021-06-18T18:23:05Z</time>
      </trkpt>
      <trkpt lat="42.94622" lon="-1.0084">
        <ele>1254</ele>
        <time>2021-06-18T18:23:11Z</time>
      </trkpt>
      <trkpt lat="42.94612" lon="-1.00808">
        <ele>1256</ele>
        <time>2021-06-18T18:23:16Z</time>
      </trkpt>
      <trkpt lat="42.946" lon="-1.00789">
        <ele>1255</ele>
        <time>2021-06-18T18:23:21Z</time>
      </trkpt>
      <trkpt lat="42.94591" lon="-1.00782">
        <ele>1253</ele>
        <time>2021-06-18T18:23:23Z</time>
      </trkpt>
      <trkpt lat="42.94572" lon="-1.00774">
        <ele>1249</ele>
        <time>2021-06-18T18:23:28Z</time>
      </trkpt>
      <trkpt lat="42.94394" lon="-1.0072">
        <ele>1227</ele>
        <time>2021-06-18T18:24:10Z</time>
      </trkpt>
      <trkpt lat="42.94298" lon="-1.00662">
        <ele>1220</ele>
        <time>2021-06-18T18:24:35Z</time>
      </trkpt>
      <trkpt lat="42.94274" lon="-1.00659">
        <ele>1217</ele>
        <time>2021-06-18T18:24:41Z</time>
      </trkpt>
      <trkpt lat="42.94259" lon="-1.00661">
        <ele>1215</ele>
        <time>2021-06-18T18:24:44Z</time>
      </trkpt>
      <trkpt lat="42.94215" lon="-1.00678">
        <ele>1212</ele>
        <time>2021-06-18T18:24:55Z</time>
      </trkpt>
      <trkpt lat="42.942" lon="-1.0068">
        <ele>1211</ele>
        <time>2021-06-18T18:24:58Z</time>
      </trkpt>
      <trkpt lat="42.94138" lon="-1.00676">
        <ele>1203</ele>
        <time>2021-06-18T18:25:13Z</time>
      </trkpt>
      <trkpt lat="42.94078" lon="-1.00686">
        <ele>1196</ele>
        <time>2021-06-18T18:25:27Z</time>
      </trkpt>
      <trkpt lat="42.94052" lon="-1.00695">
        <ele>1193</ele>
        <time>2021-06-18T18:25:33Z</time>
      </trkpt>
      <trkpt lat="42.94014" lon="-1.00726">
        <ele>1191</ele>
        <time>2021-06-18T18:25:43Z</time>
      </trkpt>
      <trkpt lat="42.93968" lon="-1.00742">
        <ele>1190</ele>
        <time>2021-06-18T18:25:55Z</time>
      </trkpt>
      <trkpt lat="42.93937" lon="-1.00758">
        <ele>1191</ele>
        <time>2021-06-18T18:26:02Z</time>
      </trkpt>
      <trkpt lat="42.93924" lon="-1.00756">
        <ele>1191</ele>
        <time>2021-06-18T18:26:05Z</time>
      </trkpt>
      <trkpt lat="42.93919" lon="-1.00752">
        <ele>1190</ele>
        <time>2021-06-18T18:26:07Z</time>
      </trkpt>
      <trkpt lat="42.93915" lon="-1.00736">
        <ele>1187</ele>
        <time>2021-06-18T18:26:10Z</time>
      </trkpt>
      <trkpt lat="42.93918" lon="-1.00725">
        <ele>1185</ele>
        <time>2021-06-18T18:26:12Z</time>
      </trkpt>
      <trkpt lat="42.93928" lon="-1.00715">
        <ele>1183</ele>
        <time>2021-06-18T18:26:15Z</time>
      </trkpt>
      <trkpt lat="42.93994" lon="-1.00675">
        <ele>1179</ele>
        <time>2021-06-18T18:26:31Z</time>
      </trkpt>
      <trkpt lat="42.94034" lon="-1.00641">
        <ele>1178</ele>
        <time>2021-06-18T18:26:42Z</time>
      </trkpt>
      <trkpt lat="42.94045" lon="-1.00628">
        <ele>1177</ele>
        <time>2021-06-18T18:26:46Z</time>
      </trkpt>
      <trkpt lat="42.94096" lon="-1.00543">
        <ele>1166</ele>
        <time>2021-06-18T18:27:05Z</time>
      </trkpt>
      <trkpt lat="42.94104" lon="-1.00521">
        <ele>1162</ele>
        <time>2021-06-18T18:27:09Z</time>
      </trkpt>
      <trkpt lat="42.94118" lon="-1.00463">
        <ele>1154</ele>
        <time>2021-06-18T18:27:19Z</time>
      </trkpt>
      <trkpt lat="42.94127" lon="-1.00445">
        <ele>1153</ele>
        <time>2021-06-18T18:27:23Z</time>
      </trkpt>
      <trkpt lat="42.94143" lon="-1.00427">
        <ele>1153</ele>
        <time>2021-06-18T18:27:28Z</time>
      </trkpt>
      <trkpt lat="42.94179" lon="-1.00396">
        <ele>1156</ele>
        <time>2021-06-18T18:27:38Z</time>
      </trkpt>
      <trkpt lat="42.94198" lon="-1.00374">
        <ele>1157</ele>
        <time>2021-06-18T18:27:44Z</time>
      </trkpt>
      <trkpt lat="42.94209" lon="-1.00352">
        <ele>1156</ele>
        <time>2021-06-18T18:27:48Z</time>
      </trkpt>
      <trkpt lat="42.94233" lon="-1.00287">
        <ele>1149</ele>
        <time>2021-06-18T18:28:01Z</time>
      </trkpt>
      <trkpt lat="42.94268" lon="-1.00231">
        <ele>1147</ele>
        <time>2021-06-18T18:28:13Z</time>
      </trkpt>
      <trkpt lat="42.9428" lon="-1.00206">
        <ele>1145</ele>
        <time>2021-06-18T18:28:18Z</time>
      </trkpt>
      <trkpt lat="42.94286" lon="-1.00186">
        <ele>1143</ele>
        <time>2021-06-18T18:28:22Z</time>
      </trkpt>
      <trkpt lat="42.9429" lon="-1.00146">
        <ele>1138</ele>
        <time>2021-06-18T18:28:29Z</time>
      </trkpt>
      <trkpt lat="42.94284" lon="-1.00082">
        <ele>1128</ele>
        <time>2021-06-18T18:28:40Z</time>
      </trkpt>
      <trkpt lat="42.94285" lon="-1.00056">
        <ele>1126</ele>
        <time>2021-06-18T18:28:44Z</time>
      </trkpt>
      <trkpt lat="42.943" lon="-1.00003">
        <ele>1127</ele>
        <time>2021-06-18T18:28:54Z</time>
      </trkpt>
      <trkpt lat="42.94303" lon="-0.99976">
        <ele>1126</ele>
        <time>2021-06-18T18:28:59Z</time>
      </trkpt>
      <trkpt lat="42.94302" lon="-0.99901">
        <ele>1120</ele>
        <time>2021-06-18T18:29:12Z</time>
      </trkpt>
      <trkpt lat="42.94296" lon="-0.99862">
        <ele>1116</ele>
        <time>2021-06-18T18:29:18Z</time>
      </trkpt>
      <trkpt lat="42.94276" lon="-0.99796">
        <ele>1110</ele>
        <time>2021-06-18T18:29:31Z</time>
      </trkpt>
      <trkpt lat="42.94255" lon="-0.99754">
        <ele>1106</ele>
        <time>2021-06-18T18:29:39Z</time>
      </trkpt>
      <trkpt lat="42.94197" lon="-0.99668">
        <ele>1096</ele>
        <time>2021-06-18T18:29:59Z</time>
      </trkpt>
      <trkpt lat="42.9416" lon="-0.99638">
        <ele>1089</ele>
        <time>2021-06-18T18:30:09Z</time>
      </trkpt>
      <trkpt lat="42.94157" lon="-0.99625">
        <ele>1089</ele>
        <time>2021-06-18T18:30:12Z</time>
      </trkpt>
      <trkpt lat="42.94158" lon="-0.99617">
        <ele>1088</ele>
        <time>2021-06-18T18:30:13Z</time>
      </trkpt>
      <trkpt lat="42.94165" lon="-0.99608">
        <ele>1089</ele>
        <time>2021-06-18T18:30:15Z</time>
      </trkpt>
      <trkpt lat="42.94181" lon="-0.99607">
        <ele>1089</ele>
        <time>2021-06-18T18:30:19Z</time>
      </trkpt>
      <trkpt lat="42.94199" lon="-0.99615">
        <ele>1091</ele>
        <time>2021-06-18T18:30:23Z</time>
      </trkpt>
      <trkpt lat="42.9421" lon="-0.99616">
        <ele>1092</ele>
        <time>2021-06-18T18:30:26Z</time>
      </trkpt>
      <trkpt lat="42.94268" lon="-0.99613">
        <ele>1094</ele>
        <time>2021-06-18T18:30:40Z</time>
      </trkpt>
      <trkpt lat="42.94291" lon="-0.9961">
        <ele>1093</ele>
        <time>2021-06-18T18:30:45Z</time>
      </trkpt>
      <trkpt lat="42.94324" lon="-0.99597">
        <ele>1090</ele>
        <time>2021-06-18T18:30:53Z</time>
      </trkpt>
      <trkpt lat="42.9437" lon="-0.99589">
        <ele>1086</ele>
        <time>2021-06-18T18:31:04Z</time>
      </trkpt>
      <trkpt lat="42.94391" lon="-0.99588">
        <ele>1085</ele>
        <time>2021-06-18T18:31:09Z</time>
      </trkpt>
      <trkpt lat="42.94412" lon="-0.99599">
        <ele>1087</ele>
        <time>2021-06-18T18:31:14Z</time>
      </trkpt>
      <trkpt lat="42.9444" lon="-0.99621">
        <ele>1089</ele>
        <time>2021-06-18T18:31:21Z</time>
      </trkpt>
      <trkpt lat="42.94485" lon="-0.99669">
        <ele>1093</ele>
        <time>2021-06-18T18:31:35Z</time>
      </trkpt>
      <trkpt lat="42.94491" lon="-0.99672">
        <ele>1093</ele>
        <time>2021-06-18T18:31:36Z</time>
      </trkpt>
      <trkpt lat="42.94498" lon="-0.99672">
        <ele>1092</ele>
        <time>2021-06-18T18:31:38Z</time>
      </trkpt>
      <trkpt lat="42.94504" lon="-0.99668">
        <ele>1090</ele>
        <time>2021-06-18T18:31:39Z</time>
      </trkpt>
      <trkpt lat="42.94507" lon="-0.99659">
        <ele>1087</ele>
        <time>2021-06-18T18:31:41Z</time>
      </trkpt>
      <trkpt lat="42.94507" lon="-0.99651">
        <ele>1085</ele>
        <time>2021-06-18T18:31:43Z</time>
      </trkpt>
      <trkpt lat="42.94503" lon="-0.99642">
        <ele>1083</ele>
        <time>2021-06-18T18:31:44Z</time>
      </trkpt>
      <trkpt lat="42.94484" lon="-0.99629">
        <ele>1083</ele>
        <time>2021-06-18T18:31:49Z</time>
      </trkpt>
      <trkpt lat="42.94474" lon="-0.99618">
        <ele>1082</ele>
        <time>2021-06-18T18:31:52Z</time>
      </trkpt>
      <trkpt lat="42.94445" lon="-0.99571">
        <ele>1074</ele>
        <time>2021-06-18T18:32:03Z</time>
      </trkpt>
      <trkpt lat="42.94423" lon="-0.99544">
        <ele>1070</ele>
        <time>2021-06-18T18:32:10Z</time>
      </trkpt>
      <trkpt lat="42.94355" lon="-0.99514">
        <ele>1061</ele>
        <time>2021-06-18T18:32:26Z</time>
      </trkpt>
      <trkpt lat="42.94341" lon="-0.99512">
        <ele>1060</ele>
        <time>2021-06-18T18:32:30Z</time>
      </trkpt>
      <trkpt lat="42.94331" lon="-0.99514">
        <ele>1060</ele>
        <time>2021-06-18T18:32:32Z</time>
      </trkpt>
      <trkpt lat="42.94301" lon="-0.99529">
        <ele>1067</ele>
        <time>2021-06-18T18:32:40Z</time>
      </trkpt>
      <trkpt lat="42.94281" lon="-0.99529">
        <ele>1067</ele>
        <time>2021-06-18T18:32:44Z</time>
      </trkpt>
      <trkpt lat="42.94271" lon="-0.99524">
        <ele>1066</ele>
        <time>2021-06-18T18:32:47Z</time>
      </trkpt>
      <trkpt lat="42.94264" lon="-0.99518">
        <ele>1064</ele>
        <time>2021-06-18T18:32:49Z</time>
      </trkpt>
      <trkpt lat="42.94256" lon="-0.99506">
        <ele>1061</ele>
        <time>2021-06-18T18:32:51Z</time>
      </trkpt>
      <trkpt lat="42.94225" lon="-0.99445">
        <ele>1044</ele>
        <time>2021-06-18T18:33:04Z</time>
      </trkpt>
      <trkpt lat="42.94213" lon="-0.99435">
        <ele>1041</ele>
        <time>2021-06-18T18:33:07Z</time>
      </trkpt>
      <trkpt lat="42.94191" lon="-0.99427">
        <ele>1040</ele>
        <time>2021-06-18T18:33:13Z</time>
      </trkpt>
      <trkpt lat="42.94166" lon="-0.99428">
        <ele>1041</ele>
        <time>2021-06-18T18:33:19Z</time>
      </trkpt>
      <trkpt lat="42.94122" lon="-0.99442">
        <ele>1042</ele>
        <time>2021-06-18T18:33:29Z</time>
      </trkpt>
      <trkpt lat="42.94062" lon="-0.99452">
        <ele>1040</ele>
        <time>2021-06-18T18:33:43Z</time>
      </trkpt>
      <trkpt lat="42.94048" lon="-0.99452">
        <ele>1038</ele>
        <time>2021-06-18T18:33:46Z</time>
      </trkpt>
      <trkpt lat="42.93959" lon="-0.99435">
        <ele>1020</ele>
        <time>2021-06-18T18:34:07Z</time>
      </trkpt>
      <trkpt lat="42.93943" lon="-0.99438">
        <ele>1018</ele>
        <time>2021-06-18T18:34:11Z</time>
      </trkpt>
      <trkpt lat="42.93843" lon="-0.99489">
        <ele>1014</ele>
        <time>2021-06-18T18:34:36Z</time>
      </trkpt>
      <trkpt lat="42.93776" lon="-0.99512">
        <ele>1000</ele>
        <time>2021-06-18T18:34:52Z</time>
      </trkpt>
      <trkpt lat="42.93761" lon="-0.99523">
        <ele>996</ele>
        <time>2021-06-18T18:34:56Z</time>
      </trkpt>
      <trkpt lat="42.93755" lon="-0.99531">
        <ele>995</ele>
        <time>2021-06-18T18:34:58Z</time>
      </trkpt>
      <trkpt lat="42.93747" lon="-0.99552">
        <ele>992</ele>
        <time>2021-06-18T18:35:02Z</time>
      </trkpt>
      <trkpt lat="42.93746" lon="-0.99565">
        <ele>991</ele>
        <time>2021-06-18T18:35:04Z</time>
      </trkpt>
      <trkpt lat="42.93748" lon="-0.99576">
        <ele>992</ele>
        <time>2021-06-18T18:35:06Z</time>
      </trkpt>
      <trkpt lat="42.93752" lon="-0.99587">
        <ele>992</ele>
        <time>2021-06-18T18:35:09Z</time>
      </trkpt>
      <trkpt lat="42.93781" lon="-0.99628">
        <ele>997</ele>
        <time>2021-06-18T18:35:18Z</time>
      </trkpt>
      <trkpt lat="42.93786" lon="-0.99648">
        <ele>997</ele>
        <time>2021-06-18T18:35:22Z</time>
      </trkpt>
      <trkpt lat="42.93785" lon="-0.99692">
        <ele>990</ele>
        <time>2021-06-18T18:35:29Z</time>
      </trkpt>
      <trkpt lat="42.93797" lon="-0.9972">
        <ele>990</ele>
        <time>2021-06-18T18:35:35Z</time>
      </trkpt>
      <trkpt lat="42.93849" lon="-0.99817">
        <ele>996</ele>
        <time>2021-06-18T18:35:56Z</time>
      </trkpt>
      <trkpt lat="42.93852" lon="-0.99835">
        <ele>995</ele>
        <time>2021-06-18T18:35:59Z</time>
      </trkpt>
      <trkpt lat="42.93851" lon="-0.99842">
        <ele>996</ele>
        <time>2021-06-18T18:36:00Z</time>
      </trkpt>
      <trkpt lat="42.93843" lon="-0.99854">
        <ele>997</ele>
        <time>2021-06-18T18:36:03Z</time>
      </trkpt>
      <trkpt lat="42.93832" lon="-0.99855">
        <ele>994</ele>
        <time>2021-06-18T18:36:05Z</time>
      </trkpt>
      <trkpt lat="42.93794" lon="-0.99829">
        <ele>985</ele>
        <time>2021-06-18T18:36:15Z</time>
      </trkpt>
      <trkpt lat="42.93721" lon="-0.99802">
        <ele>973</ele>
        <time>2021-06-18T18:36:33Z</time>
      </trkpt>
      <trkpt lat="42.93636" lon="-0.99756">
        <ele>962</ele>
        <time>2021-06-18T18:36:54Z</time>
      </trkpt>
      <trkpt lat="42.9361" lon="-0.99756">
        <ele>961</ele>
        <time>2021-06-18T18:37:00Z</time>
      </trkpt>
      <trkpt lat="42.93603" lon="-0.99761">
        <ele>960</ele>
        <time>2021-06-18T18:37:02Z</time>
      </trkpt>
      <trkpt lat="42.93598" lon="-0.99769">
        <ele>960</ele>
        <time>2021-06-18T18:37:04Z</time>
      </trkpt>
      <trkpt lat="42.936" lon="-0.99793">
        <ele>959</ele>
        <time>2021-06-18T18:37:08Z</time>
      </trkpt>
      <trkpt lat="42.93606" lon="-0.998">
        <ele>960</ele>
        <time>2021-06-18T18:37:10Z</time>
      </trkpt>
      <trkpt lat="42.93634" lon="-0.9982">
        <ele>962</ele>
        <time>2021-06-18T18:37:17Z</time>
      </trkpt>
      <trkpt lat="42.93651" lon="-0.99843">
        <ele>965</ele>
        <time>2021-06-18T18:37:23Z</time>
      </trkpt>
      <trkpt lat="42.93655" lon="-0.99864">
        <ele>966</ele>
        <time>2021-06-18T18:37:27Z</time>
      </trkpt>
      <trkpt lat="42.93652" lon="-0.99875">
        <ele>967</ele>
        <time>2021-06-18T18:37:29Z</time>
      </trkpt>
      <trkpt lat="42.93646" lon="-0.99883">
        <ele>967</ele>
        <time>2021-06-18T18:37:30Z</time>
      </trkpt>
      <trkpt lat="42.93638" lon="-0.99888">
        <ele>966</ele>
        <time>2021-06-18T18:37:33Z</time>
      </trkpt>
      <trkpt lat="42.93629" lon="-0.99889">
        <ele>965</ele>
        <time>2021-06-18T18:37:35Z</time>
      </trkpt>
      <trkpt lat="42.93583" lon="-0.99883">
        <ele>960</ele>
        <time>2021-06-18T18:37:45Z</time>
      </trkpt>
      <trkpt lat="42.93559" lon="-0.99885">
        <ele>955</ele>
        <time>2021-06-18T18:37:51Z</time>
      </trkpt>
      <trkpt lat="42.93543" lon="-0.99896">
        <ele>952</ele>
        <time>2021-06-18T18:37:55Z</time>
      </trkpt>
      <trkpt lat="42.93493" lon="-0.9994">
        <ele>948</ele>
        <time>2021-06-18T18:38:09Z</time>
      </trkpt>
      <trkpt lat="42.93483" lon="-0.99946">
        <ele>948</ele>
        <time>2021-06-18T18:38:12Z</time>
      </trkpt>
      <trkpt lat="42.93459" lon="-0.99951">
        <ele>945</ele>
        <time>2021-06-18T18:38:17Z</time>
      </trkpt>
      <trkpt lat="42.93426" lon="-0.99952">
        <ele>940</ele>
        <time>2021-06-18T18:38:25Z</time>
      </trkpt>
      <trkpt lat="42.93412" lon="-0.99955">
        <ele>937</ele>
        <time>2021-06-18T18:38:28Z</time>
      </trkpt>
      <trkpt lat="42.93403" lon="-0.9996">
        <ele>936</ele>
        <time>2021-06-18T18:38:31Z</time>
      </trkpt>
      <trkpt lat="42.93386" lon="-0.99979">
        <ele>934</ele>
        <time>2021-06-18T18:38:36Z</time>
      </trkpt>
      <trkpt lat="42.93364" lon="-1.0002">
        <ele>932</ele>
        <time>2021-06-18T18:38:44Z</time>
      </trkpt>
      <trkpt lat="42.93331" lon="-1.00105">
        <ele>930</ele>
        <time>2021-06-18T18:39:01Z</time>
      </trkpt>
      <trkpt lat="42.93314" lon="-1.00136">
        <ele>930</ele>
        <time>2021-06-18T18:39:08Z</time>
      </trkpt>
      <trkpt lat="42.93294" lon="-1.00161">
        <ele>927</ele>
        <time>2021-06-18T18:39:14Z</time>
      </trkpt>
      <trkpt lat="42.93276" lon="-1.00179">
        <ele>925</ele>
        <time>2021-06-18T18:39:19Z</time>
      </trkpt>
      <trkpt lat="42.93241" lon="-1.00203">
        <ele>919</ele>
        <time>2021-06-18T18:39:28Z</time>
      </trkpt>
      <trkpt lat="42.9322" lon="-1.00224">
        <ele>919</ele>
        <time>2021-06-18T18:39:34Z</time>
      </trkpt>
      <trkpt lat="42.93139" lon="-1.00336">
        <ele>916</ele>
        <time>2021-06-18T18:40:01Z</time>
      </trkpt>
      <trkpt lat="42.93125" lon="-1.00347">
        <ele>916</ele>
        <time>2021-06-18T18:40:05Z</time>
      </trkpt>
      <trkpt lat="42.93112" lon="-1.00353">
        <ele>915</ele>
        <time>2021-06-18T18:40:08Z</time>
      </trkpt>
      <trkpt lat="42.93074" lon="-1.0036">
        <ele>912</ele>
        <time>2021-06-18T18:40:17Z</time>
      </trkpt>
      <trkpt lat="42.93056" lon="-1.0037">
        <ele>912</ele>
        <time>2021-06-18T18:40:22Z</time>
      </trkpt>
      <trkpt lat="42.93048" lon="-1.00377">
        <ele>911</ele>
        <time>2021-06-18T18:40:24Z</time>
      </trkpt>
      <trkpt lat="42.92957" lon="-1.00489">
        <ele>907</ele>
        <time>2021-06-18T18:40:53Z</time>
      </trkpt>
      <trkpt lat="42.92908" lon="-1.00535">
        <ele>904</ele>
        <time>2021-06-18T18:41:06Z</time>
      </trkpt>
      <trkpt lat="42.929" lon="-1.0054">
        <ele>904</ele>
        <time>2021-06-18T18:41:08Z</time>
      </trkpt>
      <trkpt lat="42.92893" lon="-1.00541">
        <ele>904</ele>
        <time>2021-06-18T18:41:10Z</time>
      </trkpt>
      <trkpt lat="42.92887" lon="-1.00513">
        <ele>899</ele>
        <time>2021-06-18T18:41:15Z</time>
      </trkpt>
      <trkpt lat="42.92883" lon="-1.00504">
        <ele>898</ele>
        <time>2021-06-18T18:41:17Z</time>
      </trkpt>
      <trkpt lat="42.92872" lon="-1.0049">
        <ele>899</ele>
        <time>2021-06-18T18:41:20Z</time>
      </trkpt>
      <trkpt lat="42.92865" lon="-1.00485">
        <ele>900</ele>
        <time>2021-06-18T18:41:22Z</time>
      </trkpt>
      <trkpt lat="42.92857" lon="-1.00483">
        <ele>901</ele>
        <time>2021-06-18T18:41:24Z</time>
      </trkpt>
      <trkpt lat="42.92848" lon="-1.00486">
        <ele>900</ele>
        <time>2021-06-18T18:41:26Z</time>
      </trkpt>
      <trkpt lat="42.92768" lon="-1.00545">
        <ele>900</ele>
        <time>2021-06-18T18:41:48Z</time>
      </trkpt>
      <trkpt lat="42.92741" lon="-1.00559">
        <ele>900</ele>
        <time>2021-06-18T18:41:54Z</time>
      </trkpt>
      <trkpt lat="42.92695" lon="-1.00577">
        <ele>902</ele>
        <time>2021-06-18T18:42:05Z</time>
      </trkpt>
      <trkpt lat="42.92605" lon="-1.006">
        <ele>907</ele>
        <time>2021-06-18T18:42:27Z</time>
      </trkpt>
      <trkpt lat="42.92542" lon="-1.0063">
        <ele>911</ele>
        <time>2021-06-18T18:42:42Z</time>
      </trkpt>
      <trkpt lat="42.92433" lon="-1.00674">
        <ele>917</ele>
        <time>2021-06-18T18:43:09Z</time>
      </trkpt>
      <trkpt lat="42.92372" lon="-1.00695">
        <ele>914</ele>
        <time>2021-06-18T18:43:24Z</time>
      </trkpt>
      <trkpt lat="42.92358" lon="-1.00697">
        <ele>914</ele>
        <time>2021-06-18T18:43:27Z</time>
      </trkpt>
      <trkpt lat="42.92352" lon="-1.00694">
        <ele>914</ele>
        <time>2021-06-18T18:43:28Z</time>
      </trkpt>
      <trkpt lat="42.92347" lon="-1.00685">
        <ele>915</ele>
        <time>2021-06-18T18:43:30Z</time>
      </trkpt>
      <trkpt lat="42.92346" lon="-1.0067">
        <ele>917</ele>
        <time>2021-06-18T18:43:33Z</time>
      </trkpt>
      <trkpt lat="42.92349" lon="-1.00659">
        <ele>918</ele>
        <time>2021-06-18T18:43:35Z</time>
      </trkpt>
      <trkpt lat="42.92371" lon="-1.00609">
        <ele>923</ele>
        <time>2021-06-18T18:43:45Z</time>
      </trkpt>
      <trkpt lat="42.92394" lon="-1.00518">
        <ele>930</ele>
        <time>2021-06-18T18:44:01Z</time>
      </trkpt>
      <trkpt lat="42.92399" lon="-1.00505">
        <ele>931</ele>
        <time>2021-06-18T18:44:04Z</time>
      </trkpt>
      <trkpt lat="42.92407" lon="-1.00495">
        <ele>933</ele>
        <time>2021-06-18T18:44:06Z</time>
      </trkpt>
      <trkpt lat="42.92414" lon="-1.0049">
        <ele>934</ele>
        <time>2021-06-18T18:44:08Z</time>
      </trkpt>
      <trkpt lat="42.92426" lon="-1.00488">
        <ele>935</ele>
        <time>2021-06-18T18:44:11Z</time>
      </trkpt>
      <trkpt lat="42.92495" lon="-1.00499">
        <ele>941</ele>
        <time>2021-06-18T18:44:27Z</time>
      </trkpt>
      <trkpt lat="42.92507" lon="-1.005">
        <ele>941</ele>
        <time>2021-06-18T18:44:30Z</time>
      </trkpt>
      <trkpt lat="42.92522" lon="-1.00497">
        <ele>940</ele>
        <time>2021-06-18T18:44:34Z</time>
      </trkpt>
      <trkpt lat="42.92566" lon="-1.00464">
        <ele>940</ele>
        <time>2021-06-18T18:44:45Z</time>
      </trkpt>
      <trkpt lat="42.92584" lon="-1.0044">
        <ele>944</ele>
        <time>2021-06-18T18:44:51Z</time>
      </trkpt>
      <trkpt lat="42.92617" lon="-1.00337">
        <ele>956</ele>
        <time>2021-06-18T18:45:10Z</time>
      </trkpt>
      <trkpt lat="42.92622" lon="-1.00304">
        <ele>961</ele>
        <time>2021-06-18T18:45:16Z</time>
      </trkpt>
      <trkpt lat="42.92623" lon="-1.00283">
        <ele>963</ele>
        <time>2021-06-18T18:45:20Z</time>
      </trkpt>
      <trkpt lat="42.92617" lon="-1.00171">
        <ele>967</ele>
        <time>2021-06-18T18:45:39Z</time>
      </trkpt>
      <trkpt lat="42.92624" lon="-1.00139">
        <ele>968</ele>
        <time>2021-06-18T18:45:45Z</time>
      </trkpt>
      <trkpt lat="42.92632" lon="-1.00127">
        <ele>970</ele>
        <time>2021-06-18T18:45:48Z</time>
      </trkpt>
      <trkpt lat="42.92646" lon="-1.00114">
        <ele>973</ele>
        <time>2021-06-18T18:45:51Z</time>
      </trkpt>
      <trkpt lat="42.92709" lon="-1.00062">
        <ele>985</ele>
        <time>2021-06-18T18:46:09Z</time>
      </trkpt>
      <trkpt lat="42.92719" lon="-1.0005">
        <ele>987</ele>
        <time>2021-06-18T18:46:12Z</time>
      </trkpt>
      <trkpt lat="42.92736" lon="-1.00018">
        <ele>989</ele>
        <time>2021-06-18T18:46:19Z</time>
      </trkpt>
      <trkpt lat="42.92743" lon="-0.99999">
        <ele>990</ele>
        <time>2021-06-18T18:46:22Z</time>
      </trkpt>
      <trkpt lat="42.92753" lon="-0.99938">
        <ele>991</ele>
        <time>2021-06-18T18:46:33Z</time>
      </trkpt>
      <trkpt lat="42.92775" lon="-0.99887">
        <ele>999</ele>
        <time>2021-06-18T18:46:43Z</time>
      </trkpt>
      <trkpt lat="42.92783" lon="-0.99861">
        <ele>1003</ele>
        <time>2021-06-18T18:46:48Z</time>
      </trkpt>
      <trkpt lat="42.92786" lon="-0.9983">
        <ele>1005</ele>
        <time>2021-06-18T18:46:53Z</time>
      </trkpt>
      <trkpt lat="42.92776" lon="-0.99666">
        <ele>1021</ele>
        <time>2021-06-18T18:47:21Z</time>
      </trkpt>
      <trkpt lat="42.92773" lon="-0.99646">
        <ele>1023</ele>
        <time>2021-06-18T18:47:25Z</time>
      </trkpt>
      <trkpt lat="42.92765" lon="-0.99616">
        <ele>1024</ele>
        <time>2021-06-18T18:47:30Z</time>
      </trkpt>
      <trkpt lat="42.92731" lon="-0.99515">
        <ele>1034</ele>
        <time>2021-06-18T18:47:49Z</time>
      </trkpt>
      <trkpt lat="42.92724" lon="-0.99452">
        <ele>1041</ele>
        <time>2021-06-18T18:48:00Z</time>
      </trkpt>
      <trkpt lat="42.9272" lon="-0.99438">
        <ele>1043</ele>
        <time>2021-06-18T18:48:03Z</time>
      </trkpt>
      <trkpt lat="42.92714" lon="-0.99434">
        <ele>1044</ele>
        <time>2021-06-18T18:48:04Z</time>
      </trkpt>
      <trkpt lat="42.92704" lon="-0.99437">
        <ele>1045</ele>
        <time>2021-06-18T18:48:07Z</time>
      </trkpt>
      <trkpt lat="42.92693" lon="-0.99462">
        <ele>1044</ele>
        <time>2021-06-18T18:48:12Z</time>
      </trkpt>
      <trkpt lat="42.9265" lon="-0.9967">
        <ele>1040</ele>
        <time>2021-06-18T18:48:49Z</time>
      </trkpt>
      <trkpt lat="42.92631" lon="-0.99716">
        <ele>1038</ele>
        <time>2021-06-18T18:48:58Z</time>
      </trkpt>
      <trkpt lat="42.92624" lon="-0.99724">
        <ele>1038</ele>
        <time>2021-06-18T18:49:00Z</time>
      </trkpt>
      <trkpt lat="42.92603" lon="-0.99735">
        <ele>1041</ele>
        <time>2021-06-18T18:49:05Z</time>
      </trkpt>
      <trkpt lat="42.92543" lon="-0.99752">
        <ele>1042</ele>
        <time>2021-06-18T18:49:19Z</time>
      </trkpt>
      <trkpt lat="42.9253" lon="-0.99753">
        <ele>1042</ele>
        <time>2021-06-18T18:49:22Z</time>
      </trkpt>
      <trkpt lat="42.92512" lon="-0.99749">
        <ele>1042</ele>
        <time>2021-06-18T18:49:27Z</time>
      </trkpt>
      <trkpt lat="42.92499" lon="-0.99736">
        <ele>1043</ele>
        <time>2021-06-18T18:49:30Z</time>
      </trkpt>
      <trkpt lat="42.92491" lon="-0.99709">
        <ele>1044</ele>
        <time>2021-06-18T18:49:35Z</time>
      </trkpt>
      <trkpt lat="42.92483" lon="-0.99629">
        <ele>1051</ele>
        <time>2021-06-18T18:49:49Z</time>
      </trkpt>
      <trkpt lat="42.92474" lon="-0.996">
        <ele>1052</ele>
        <time>2021-06-18T18:49:55Z</time>
      </trkpt>
      <trkpt lat="42.92472" lon="-0.99556">
        <ele>1055</ele>
        <time>2021-06-18T18:50:02Z</time>
      </trkpt>
      <trkpt lat="42.92473" lon="-0.99499">
        <ele>1059</ele>
        <time>2021-06-18T18:50:12Z</time>
      </trkpt>
      <trkpt lat="42.92478" lon="-0.99443">
        <ele>1060</ele>
        <time>2021-06-18T18:50:22Z</time>
      </trkpt>
      <trkpt lat="42.92509" lon="-0.99322">
        <ele>1065</ele>
        <time>2021-06-18T18:50:43Z</time>
      </trkpt>
      <trkpt lat="42.9251" lon="-0.99255">
        <ele>1069</ele>
        <time>2021-06-18T18:50:55Z</time>
      </trkpt>
      <trkpt lat="42.92505" lon="-0.99221">
        <ele>1073</ele>
        <time>2021-06-18T18:51:01Z</time>
      </trkpt>
      <trkpt lat="42.92498" lon="-0.99204">
        <ele>1073</ele>
        <time>2021-06-18T18:51:04Z</time>
      </trkpt>
      <trkpt lat="42.92496" lon="-0.99191">
        <ele>1075</ele>
        <time>2021-06-18T18:51:06Z</time>
      </trkpt>
      <trkpt lat="42.92489" lon="-0.991">
        <ele>1092</ele>
        <time>2021-06-18T18:51:22Z</time>
      </trkpt>
      <trkpt lat="42.92481" lon="-0.99081">
        <ele>1095</ele>
        <time>2021-06-18T18:51:26Z</time>
      </trkpt>
      <trkpt lat="42.92466" lon="-0.99068">
        <ele>1095</ele>
        <time>2021-06-18T18:51:30Z</time>
      </trkpt>
      <trkpt lat="42.92409" lon="-0.99039">
        <ele>1094</ele>
        <time>2021-06-18T18:51:44Z</time>
      </trkpt>
      <trkpt lat="42.92382" lon="-0.99029">
        <ele>1098</ele>
        <time>2021-06-18T18:51:51Z</time>
      </trkpt>
      <trkpt lat="42.92313" lon="-0.99029">
        <ele>1100</ele>
        <time>2021-06-18T18:52:07Z</time>
      </trkpt>
      <trkpt lat="42.92303" lon="-0.99032">
        <ele>1100</ele>
        <time>2021-06-18T18:52:09Z</time>
      </trkpt>
      <trkpt lat="42.92276" lon="-0.9905">
        <ele>1097</ele>
        <time>2021-06-18T18:52:16Z</time>
      </trkpt>
      <trkpt lat="42.92266" lon="-0.99053">
        <ele>1097</ele>
        <time>2021-06-18T18:52:19Z</time>
      </trkpt>
      <trkpt lat="42.92248" lon="-0.9905">
        <ele>1100</ele>
        <time>2021-06-18T18:52:23Z</time>
      </trkpt>
      <trkpt lat="42.92173" lon="-0.99014">
        <ele>1112</ele>
        <time>2021-06-18T18:52:41Z</time>
      </trkpt>
      <trkpt lat="42.92146" lon="-0.99004">
        <ele>1114</ele>
        <time>2021-06-18T18:52:48Z</time>
      </trkpt>
      <trkpt lat="42.92064" lon="-0.98994">
        <ele>1110</ele>
        <time>2021-06-18T18:53:07Z</time>
      </trkpt>
      <trkpt lat="42.92057" lon="-0.9899">
        <ele>1110</ele>
        <time>2021-06-18T18:53:09Z</time>
      </trkpt>
      <trkpt lat="42.92049" lon="-0.98981">
        <ele>1110</ele>
        <time>2021-06-18T18:53:11Z</time>
      </trkpt>
      <trkpt lat="42.92041" lon="-0.98961">
        <ele>1108</ele>
        <time>2021-06-18T18:53:15Z</time>
      </trkpt>
      <trkpt lat="42.92039" lon="-0.98952">
        <ele>1108</ele>
        <time>2021-06-18T18:53:17Z</time>
      </trkpt>
      <trkpt lat="42.92042" lon="-0.98924">
        <ele>1107</ele>
        <time>2021-06-18T18:53:22Z</time>
      </trkpt>
      <trkpt lat="42.9206" lon="-0.9888">
        <ele>1105</ele>
        <time>2021-06-18T18:53:30Z</time>
      </trkpt>
      <trkpt lat="42.9209" lon="-0.98831">
        <ele>1103</ele>
        <time>2021-06-18T18:53:41Z</time>
      </trkpt>
      <trkpt lat="42.92123" lon="-0.98801">
        <ele>1099</ele>
        <time>2021-06-18T18:53:51Z</time>
      </trkpt>
      <trkpt lat="42.92138" lon="-0.98793">
        <ele>1098</ele>
        <time>2021-06-18T18:53:54Z</time>
      </trkpt>
      <trkpt lat="42.92149" lon="-0.98792">
        <ele>1099</ele>
        <time>2021-06-18T18:53:57Z</time>
      </trkpt>
      <trkpt lat="42.92253" lon="-0.98835">
        <ele>1105</ele>
        <time>2021-06-18T18:54:22Z</time>
      </trkpt>
      <trkpt lat="42.92263" lon="-0.98836">
        <ele>1105</ele>
        <time>2021-06-18T18:54:25Z</time>
      </trkpt>
      <trkpt lat="42.92271" lon="-0.98834">
        <ele>1104</ele>
        <time>2021-06-18T18:54:26Z</time>
      </trkpt>
      <trkpt lat="42.92298" lon="-0.98808">
        <ele>1094</ele>
        <time>2021-06-18T18:54:34Z</time>
      </trkpt>
      <trkpt lat="42.92311" lon="-0.98802">
        <ele>1091</ele>
        <time>2021-06-18T18:54:37Z</time>
      </trkpt>
      <trkpt lat="42.92326" lon="-0.98805">
        <ele>1091</ele>
        <time>2021-06-18T18:54:41Z</time>
      </trkpt>
      <trkpt lat="42.92361" lon="-0.98826">
        <ele>1093</ele>
        <time>2021-06-18T18:54:50Z</time>
      </trkpt>
      <trkpt lat="42.92371" lon="-0.98829">
        <ele>1092</ele>
        <time>2021-06-18T18:54:52Z</time>
      </trkpt>
      <trkpt lat="42.92443" lon="-0.98839">
        <ele>1087</ele>
        <time>2021-06-18T18:55:09Z</time>
      </trkpt>
      <trkpt lat="42.92506" lon="-0.98833">
        <ele>1085</ele>
        <time>2021-06-18T18:55:24Z</time>
      </trkpt>
      <trkpt lat="42.92517" lon="-0.98823">
        <ele>1086</ele>
        <time>2021-06-18T18:55:27Z</time>
      </trkpt>
      <trkpt lat="42.92519" lon="-0.98815">
        <ele>1086</ele>
        <time>2021-06-18T18:55:28Z</time>
      </trkpt>
      <trkpt lat="42.92516" lon="-0.98795">
        <ele>1085</ele>
        <time>2021-06-18T18:55:32Z</time>
      </trkpt>
      <trkpt lat="42.9251" lon="-0.98789">
        <ele>1083</ele>
        <time>2021-06-18T18:55:34Z</time>
      </trkpt>
      <trkpt lat="42.92455" lon="-0.98763">
        <ele>1074</ele>
        <time>2021-06-18T18:55:47Z</time>
      </trkpt>
      <trkpt lat="42.92412" lon="-0.98727">
        <ele>1068</ele>
        <time>2021-06-18T18:55:59Z</time>
      </trkpt>
      <trkpt lat="42.92377" lon="-0.98655">
        <ele>1063</ele>
        <time>2021-06-18T18:56:14Z</time>
      </trkpt>
      <trkpt lat="42.92369" lon="-0.98647">
        <ele>1062</ele>
        <time>2021-06-18T18:56:16Z</time>
      </trkpt>
      <trkpt lat="42.92339" lon="-0.98626">
        <ele>1055</ele>
        <time>2021-06-18T18:56:24Z</time>
      </trkpt>
      <trkpt lat="42.92333" lon="-0.98617">
        <ele>1054</ele>
        <time>2021-06-18T18:56:26Z</time>
      </trkpt>
      <trkpt lat="42.92318" lon="-0.98581">
        <ele>1054</ele>
        <time>2021-06-18T18:56:33Z</time>
      </trkpt>
      <trkpt lat="42.92311" lon="-0.98571">
        <ele>1054</ele>
        <time>2021-06-18T18:56:36Z</time>
      </trkpt>
      <trkpt lat="42.92267" lon="-0.98527">
        <ele>1044</ele>
        <time>2021-06-18T18:56:48Z</time>
      </trkpt>
      <trkpt lat="42.92258" lon="-0.98515">
        <ele>1041</ele>
        <time>2021-06-18T18:56:51Z</time>
      </trkpt>
      <trkpt lat="42.92251" lon="-0.98492">
        <ele>1039</ele>
        <time>2021-06-18T18:56:55Z</time>
      </trkpt>
      <trkpt lat="42.92251" lon="-0.9848">
        <ele>1041</ele>
        <time>2021-06-18T18:56:58Z</time>
      </trkpt>
      <trkpt lat="42.9226" lon="-0.98433">
        <ele>1049</ele>
        <time>2021-06-18T18:57:06Z</time>
      </trkpt>
      <trkpt lat="42.92254" lon="-0.98416">
        <ele>1049</ele>
        <time>2021-06-18T18:57:09Z</time>
      </trkpt>
      <trkpt lat="42.92247" lon="-0.98411">
        <ele>1047</ele>
        <time>2021-06-18T18:57:11Z</time>
      </trkpt>
      <trkpt lat="42.92238" lon="-0.98409">
        <ele>1045</ele>
        <time>2021-06-18T18:57:13Z</time>
      </trkpt>
      <trkpt lat="42.92198" lon="-0.98416">
        <ele>1031</ele>
        <time>2021-06-18T18:57:22Z</time>
      </trkpt>
      <trkpt lat="42.92177" lon="-0.98415">
        <ele>1024</ele>
        <time>2021-06-18T18:57:27Z</time>
      </trkpt>
      <trkpt lat="42.92169" lon="-0.98411">
        <ele>1022</ele>
        <time>2021-06-18T18:57:29Z</time>
      </trkpt>
      <trkpt lat="42.92157" lon="-0.98398">
        <ele>1023</ele>
        <time>2021-06-18T18:57:33Z</time>
      </trkpt>
      <trkpt lat="42.92153" lon="-0.98388">
        <ele>1024</ele>
        <time>2021-06-18T18:57:35Z</time>
      </trkpt>
      <trkpt lat="42.92131" lon="-0.98289">
        <ele>1023</ele>
        <time>2021-06-18T18:57:53Z</time>
      </trkpt>
      <trkpt lat="42.9213" lon="-0.98275">
        <ele>1023</ele>
        <time>2021-06-18T18:57:55Z</time>
      </trkpt>
      <trkpt lat="42.92133" lon="-0.98254">
        <ele>1023</ele>
        <time>2021-06-18T18:57:59Z</time>
      </trkpt>
      <trkpt lat="42.92144" lon="-0.9822">
        <ele>1026</ele>
        <time>2021-06-18T18:58:05Z</time>
      </trkpt>
      <trkpt lat="42.92143" lon="-0.98212">
        <ele>1026</ele>
        <time>2021-06-18T18:58:06Z</time>
      </trkpt>
      <trkpt lat="42.92135" lon="-0.98199">
        <ele>1023</ele>
        <time>2021-06-18T18:58:09Z</time>
      </trkpt>
      <trkpt lat="42.92121" lon="-0.98191">
        <ele>1018</ele>
        <time>2021-06-18T18:58:13Z</time>
      </trkpt>
      <trkpt lat="42.92109" lon="-0.98179">
        <ele>1014</ele>
        <time>2021-06-18T18:58:16Z</time>
      </trkpt>
      <trkpt lat="42.92102" lon="-0.9816">
        <ele>1011</ele>
        <time>2021-06-18T18:58:20Z</time>
      </trkpt>
      <trkpt lat="42.92102" lon="-0.98117">
        <ele>1012</ele>
        <time>2021-06-18T18:58:27Z</time>
      </trkpt>
      <trkpt lat="42.92099" lon="-0.9809">
        <ele>1011</ele>
        <time>2021-06-18T18:58:32Z</time>
      </trkpt>
      <trkpt lat="42.92077" lon="-0.98034">
        <ele>1003</ele>
        <time>2021-06-18T18:58:43Z</time>
      </trkpt>
      <trkpt lat="42.92075" lon="-0.98018">
        <ele>1003</ele>
        <time>2021-06-18T18:58:46Z</time>
      </trkpt>
      <trkpt lat="42.92084" lon="-0.97958">
        <ele>1004</ele>
        <time>2021-06-18T18:58:56Z</time>
      </trkpt>
      <trkpt lat="42.9208" lon="-0.97935">
        <ele>1003</ele>
        <time>2021-06-18T18:59:00Z</time>
      </trkpt>
      <trkpt lat="42.92058" lon="-0.97872">
        <ele>994</ele>
        <time>2021-06-18T18:59:12Z</time>
      </trkpt>
      <trkpt lat="42.92033" lon="-0.97821">
        <ele>984</ele>
        <time>2021-06-18T18:59:23Z</time>
      </trkpt>
      <trkpt lat="42.92029" lon="-0.97808">
        <ele>981</ele>
        <time>2021-06-18T18:59:25Z</time>
      </trkpt>
      <trkpt lat="42.92028" lon="-0.97794">
        <ele>979</ele>
        <time>2021-06-18T18:59:27Z</time>
      </trkpt>
      <trkpt lat="42.92032" lon="-0.97784">
        <ele>978</ele>
        <time>2021-06-18T18:59:29Z</time>
      </trkpt>
      <trkpt lat="42.92039" lon="-0.97777">
        <ele>978</ele>
        <time>2021-06-18T18:59:31Z</time>
      </trkpt>
      <trkpt lat="42.9205" lon="-0.97773">
        <ele>979</ele>
        <time>2021-06-18T18:59:34Z</time>
      </trkpt>
      <trkpt lat="42.92118" lon="-0.97767">
        <ele>986</ele>
        <time>2021-06-18T18:59:50Z</time>
      </trkpt>
      <trkpt lat="42.92139" lon="-0.97763">
        <ele>987</ele>
        <time>2021-06-18T18:59:55Z</time>
      </trkpt>
      <trkpt lat="42.92206" lon="-0.97736">
        <ele>989</ele>
        <time>2021-06-18T19:00:11Z</time>
      </trkpt>
      <trkpt lat="42.92211" lon="-0.97731">
        <ele>990</ele>
        <time>2021-06-18T19:00:13Z</time>
      </trkpt>
      <trkpt lat="42.92214" lon="-0.97721">
        <ele>990</ele>
        <time>2021-06-18T19:00:14Z</time>
      </trkpt>
      <trkpt lat="42.92212" lon="-0.97708">
        <ele>989</ele>
        <time>2021-06-18T19:00:17Z</time>
      </trkpt>
      <trkpt lat="42.92205" lon="-0.97703">
        <ele>989</ele>
        <time>2021-06-18T19:00:19Z</time>
      </trkpt>
      <trkpt lat="42.92198" lon="-0.97702">
        <ele>988</ele>
        <time>2021-06-18T19:00:20Z</time>
      </trkpt>
      <trkpt lat="42.92143" lon="-0.9771">
        <ele>983</ele>
        <time>2021-06-18T19:00:33Z</time>
      </trkpt>
      <trkpt lat="42.92045" lon="-0.97695">
        <ele>979</ele>
        <time>2021-06-18T19:00:56Z</time>
      </trkpt>
      <trkpt lat="42.91973" lon="-0.97699">
        <ele>974</ele>
        <time>2021-06-18T19:01:13Z</time>
      </trkpt>
      <trkpt lat="42.91949" lon="-0.97697">
        <ele>970</ele>
        <time>2021-06-18T19:01:19Z</time>
      </trkpt>
      <trkpt lat="42.91883" lon="-0.97666">
        <ele>961</ele>
        <time>2021-06-18T19:01:35Z</time>
      </trkpt>
      <trkpt lat="42.91851" lon="-0.97647">
        <ele>961</ele>
        <time>2021-06-18T19:01:43Z</time>
      </trkpt>
      <trkpt lat="42.91838" lon="-0.9763">
        <ele>960</ele>
        <time>2021-06-18T19:01:47Z</time>
      </trkpt>
      <trkpt lat="42.91832" lon="-0.97609">
        <ele>961</ele>
        <time>2021-06-18T19:01:51Z</time>
      </trkpt>
      <trkpt lat="42.91824" lon="-0.97541">
        <ele>966</ele>
        <time>2021-06-18T19:02:03Z</time>
      </trkpt>
      <trkpt lat="42.91826" lon="-0.97484">
        <ele>968</ele>
        <time>2021-06-18T19:02:13Z</time>
      </trkpt>
      <trkpt lat="42.91823" lon="-0.97461">
        <ele>970</ele>
        <time>2021-06-18T19:02:17Z</time>
      </trkpt>
      <trkpt lat="42.91813" lon="-0.97443">
        <ele>971</ele>
        <time>2021-06-18T19:02:21Z</time>
      </trkpt>
      <trkpt lat="42.91783" lon="-0.97412">
        <ele>966</ele>
        <time>2021-06-18T19:02:29Z</time>
      </trkpt>
      <trkpt lat="42.91769" lon="-0.97394">
        <ele>964</ele>
        <time>2021-06-18T19:02:34Z</time>
      </trkpt>
      <trkpt lat="42.91739" lon="-0.97321">
        <ele>959</ele>
        <time>2021-06-18T19:02:48Z</time>
      </trkpt>
      <trkpt lat="42.91725" lon="-0.97299">
        <ele>961</ele>
        <time>2021-06-18T19:02:53Z</time>
      </trkpt>
      <trkpt lat="42.91705" lon="-0.97274">
        <ele>961</ele>
        <time>2021-06-18T19:02:59Z</time>
      </trkpt>
      <trkpt lat="42.91688" lon="-0.97256">
        <ele>958</ele>
        <time>2021-06-18T19:03:04Z</time>
      </trkpt>
      <trkpt lat="42.91673" lon="-0.97244">
        <ele>956</ele>
        <time>2021-06-18T19:03:09Z</time>
      </trkpt>
      <trkpt lat="42.91646" lon="-0.97231">
        <ele>957</ele>
        <time>2021-06-18T19:03:15Z</time>
      </trkpt>
      <trkpt lat="42.91614" lon="-0.97222">
        <ele>956</ele>
        <time>2021-06-18T19:03:23Z</time>
      </trkpt>
      <trkpt lat="42.91545" lon="-0.97209">
        <ele>956</ele>
        <time>2021-06-18T19:03:39Z</time>
      </trkpt>
      <trkpt lat="42.9149" lon="-0.97202">
        <ele>956</ele>
        <time>2021-06-18T19:03:52Z</time>
      </trkpt>
      <trkpt lat="42.91413" lon="-0.97205">
        <ele>949</ele>
        <time>2021-06-18T19:04:10Z</time>
      </trkpt>
      <trkpt lat="42.91397" lon="-0.97197">
        <ele>949</ele>
        <time>2021-06-18T19:04:14Z</time>
      </trkpt>
      <trkpt lat="42.9138" lon="-0.97179">
        <ele>947</ele>
        <time>2021-06-18T19:04:19Z</time>
      </trkpt>
      <trkpt lat="42.91253" lon="-0.96999">
        <ele>942</ele>
        <time>2021-06-18T19:05:02Z</time>
      </trkpt>
      <trkpt lat="42.91196" lon="-0.96897">
        <ele>932</ele>
        <time>2021-06-18T19:05:24Z</time>
      </trkpt>
      <trkpt lat="42.91185" lon="-0.96875">
        <ele>928</ele>
        <time>2021-06-18T19:05:28Z</time>
      </trkpt>
      <trkpt lat="42.91163" lon="-0.96819">
        <ele>923</ele>
        <time>2021-06-18T19:05:39Z</time>
      </trkpt>
      <trkpt lat="42.91148" lon="-0.9679">
        <ele>929</ele>
        <time>2021-06-18T19:05:45Z</time>
      </trkpt>
      <trkpt lat="42.91133" lon="-0.96777">
        <ele>929</ele>
        <time>2021-06-18T19:05:49Z</time>
      </trkpt>
      <trkpt lat="42.91117" lon="-0.96769">
        <ele>928</ele>
        <time>2021-06-18T19:05:53Z</time>
      </trkpt>
      <trkpt lat="42.91092" lon="-0.96762">
        <ele>925</ele>
        <time>2021-06-18T19:05:59Z</time>
      </trkpt>
      <trkpt lat="42.91072" lon="-0.96752">
        <ele>923</ele>
        <time>2021-06-18T19:06:04Z</time>
      </trkpt>
      <trkpt lat="42.91063" lon="-0.96745">
        <ele>924</ele>
        <time>2021-06-18T19:06:07Z</time>
      </trkpt>
      <trkpt lat="42.91026" lon="-0.96703">
        <ele>924</ele>
        <time>2021-06-18T19:06:18Z</time>
      </trkpt>
      <trkpt lat="42.9101" lon="-0.96692">
        <ele>921</ele>
        <time>2021-06-18T19:06:22Z</time>
      </trkpt>
      <trkpt lat="42.90999" lon="-0.96688">
        <ele>920</ele>
        <time>2021-06-18T19:06:25Z</time>
      </trkpt>
      <trkpt lat="42.90957" lon="-0.96682">
        <ele>916</ele>
        <time>2021-06-18T19:06:35Z</time>
      </trkpt>
      <trkpt lat="42.90936" lon="-0.96684">
        <ele>916</ele>
        <time>2021-06-18T19:06:40Z</time>
      </trkpt>
      <trkpt lat="42.90895" lon="-0.96696">
        <ele>919</ele>
        <time>2021-06-18T19:06:49Z</time>
      </trkpt>
      <trkpt lat="42.90881" lon="-0.96698">
        <ele>920</ele>
        <time>2021-06-18T19:06:53Z</time>
      </trkpt>
      <trkpt lat="42.90871" lon="-0.96696">
        <ele>920</ele>
        <time>2021-06-18T19:06:55Z</time>
      </trkpt>
      <trkpt lat="42.90818" lon="-0.96668">
        <ele>922</ele>
        <time>2021-06-18T19:07:08Z</time>
      </trkpt>
      <trkpt lat="42.90806" lon="-0.96664">
        <ele>924</ele>
        <time>2021-06-18T19:07:11Z</time>
      </trkpt>
      <trkpt lat="42.90794" lon="-0.96665">
        <ele>926</ele>
        <time>2021-06-18T19:07:14Z</time>
      </trkpt>
      <trkpt lat="42.90766" lon="-0.96678">
        <ele>928</ele>
        <time>2021-06-18T19:07:21Z</time>
      </trkpt>
      <trkpt lat="42.90748" lon="-0.96692">
        <ele>928</ele>
        <time>2021-06-18T19:07:26Z</time>
      </trkpt>
      <trkpt lat="42.90714" lon="-0.96725">
        <ele>922</ele>
        <time>2021-06-18T19:07:35Z</time>
      </trkpt>
      <trkpt lat="42.90695" lon="-0.96736">
        <ele>918</ele>
        <time>2021-06-18T19:07:40Z</time>
      </trkpt>
      <trkpt lat="42.90671" lon="-0.96746">
        <ele>914</ele>
        <time>2021-06-18T19:07:46Z</time>
      </trkpt>
      <trkpt lat="42.90645" lon="-0.96748">
        <ele>912</ele>
        <time>2021-06-18T19:07:52Z</time>
      </trkpt>
      <trkpt lat="42.90619" lon="-0.96737">
        <ele>912</ele>
        <time>2021-06-18T19:07:59Z</time>
      </trkpt>
      <trkpt lat="42.90609" lon="-0.96728">
        <ele>912</ele>
        <time>2021-06-18T19:08:01Z</time>
      </trkpt>
      <trkpt lat="42.90589" lon="-0.96701">
        <ele>911</ele>
        <time>2021-06-18T19:08:08Z</time>
      </trkpt>
      <trkpt lat="42.90583" lon="-0.96687">
        <ele>909</ele>
        <time>2021-06-18T19:08:11Z</time>
      </trkpt>
      <trkpt lat="42.90579" lon="-0.96669">
        <ele>911</ele>
        <time>2021-06-18T19:08:14Z</time>
      </trkpt>
      <trkpt lat="42.90559" lon="-0.96546">
        <ele>925</ele>
        <time>2021-06-18T19:08:35Z</time>
      </trkpt>
      <trkpt lat="42.90543" lon="-0.96491">
        <ele>926</ele>
        <time>2021-06-18T19:08:46Z</time>
      </trkpt>
      <trkpt lat="42.90535" lon="-0.96392">
        <ele>922</ele>
        <time>2021-06-18T19:09:03Z</time>
      </trkpt>
      <trkpt lat="42.9053" lon="-0.96377">
        <ele>922</ele>
        <time>2021-06-18T19:09:05Z</time>
      </trkpt>
      <trkpt lat="42.90506" lon="-0.96343">
        <ele>916</ele>
        <time>2021-06-18T19:09:14Z</time>
      </trkpt>
      <trkpt lat="42.90472" lon="-0.96276">
        <ele>918</ele>
        <time>2021-06-18T19:09:27Z</time>
      </trkpt>
      <trkpt lat="42.90457" lon="-0.96256">
        <ele>916</ele>
        <time>2021-06-18T19:09:32Z</time>
      </trkpt>
      <trkpt lat="42.90411" lon="-0.96216">
        <ele>910</ele>
        <time>2021-06-18T19:09:45Z</time>
      </trkpt>
      <trkpt lat="42.90382" lon="-0.96159">
        <ele>909</ele>
        <time>2021-06-18T19:09:57Z</time>
      </trkpt>
      <trkpt lat="42.90364" lon="-0.9613">
        <ele>910</ele>
        <time>2021-06-18T19:10:03Z</time>
      </trkpt>
      <trkpt lat="42.90335" lon="-0.96101">
        <ele>904</ele>
        <time>2021-06-18T19:10:12Z</time>
      </trkpt>
      <trkpt lat="42.90301" lon="-0.96074">
        <ele>903</ele>
        <time>2021-06-18T19:10:21Z</time>
      </trkpt>
      <trkpt lat="42.90227" lon="-0.95996">
        <ele>898</ele>
        <time>2021-06-18T19:10:43Z</time>
      </trkpt>
      <trkpt lat="42.90196" lon="-0.95967">
        <ele>899</ele>
        <time>2021-06-18T19:10:52Z</time>
      </trkpt>
      <trkpt lat="42.90169" lon="-0.95949">
        <ele>894</ele>
        <time>2021-06-18T19:10:59Z</time>
      </trkpt>
      <trkpt lat="42.90088" lon="-0.95911">
        <ele>893</ele>
        <time>2021-06-18T19:11:19Z</time>
      </trkpt>
      <trkpt lat="42.90061" lon="-0.95895">
        <ele>896</ele>
        <time>2021-06-18T19:11:26Z</time>
      </trkpt>
      <trkpt lat="42.89979" lon="-0.95823">
        <ele>893</ele>
        <time>2021-06-18T19:11:48Z</time>
      </trkpt>
      <trkpt lat="42.89967" lon="-0.95802">
        <ele>895</ele>
        <time>2021-06-18T19:11:53Z</time>
      </trkpt>
      <trkpt lat="42.89963" lon="-0.95788">
        <ele>895</ele>
        <time>2021-06-18T19:11:55Z</time>
      </trkpt>
      <trkpt lat="42.89917" lon="-0.95565">
        <ele>881</ele>
        <time>2021-06-18T19:12:35Z</time>
      </trkpt>
      <trkpt lat="42.89904" lon="-0.95529">
        <ele>885</ele>
        <time>2021-06-18T19:12:42Z</time>
      </trkpt>
      <trkpt lat="42.89883" lon="-0.95496">
        <ele>889</ele>
        <time>2021-06-18T19:12:49Z</time>
      </trkpt>
      <trkpt lat="42.89865" lon="-0.95473">
        <ele>891</ele>
        <time>2021-06-18T19:12:55Z</time>
      </trkpt>
      <trkpt lat="42.89768" lon="-0.95412">
        <ele>894</ele>
        <time>2021-06-18T19:13:20Z</time>
      </trkpt>
      <trkpt lat="42.89746" lon="-0.95391">
        <ele>892</ele>
        <time>2021-06-18T19:13:26Z</time>
      </trkpt>
      <trkpt lat="42.89733" lon="-0.95372">
        <ele>893</ele>
        <time>2021-06-18T19:13:31Z</time>
      </trkpt>
      <trkpt lat="42.89704" lon="-0.95306">
        <ele>887</ele>
        <time>2021-06-18T19:13:44Z</time>
      </trkpt>
      <trkpt lat="42.89697" lon="-0.95297">
        <ele>887</ele>
        <time>2021-06-18T19:13:46Z</time>
      </trkpt>
      <trkpt lat="42.89684" lon="-0.95289">
        <ele>886</ele>
        <time>2021-06-18T19:13:50Z</time>
      </trkpt>
      <trkpt lat="42.89619" lon="-0.95266">
        <ele>893</ele>
        <time>2021-06-18T19:14:05Z</time>
      </trkpt>
      <trkpt lat="42.89584" lon="-0.95234">
        <ele>893</ele>
        <time>2021-06-18T19:14:15Z</time>
      </trkpt>
      <trkpt lat="42.89571" lon="-0.95225">
        <ele>896</ele>
        <time>2021-06-18T19:14:18Z</time>
      </trkpt>
      <trkpt lat="42.89543" lon="-0.95222">
        <ele>905</ele>
        <time>2021-06-18T19:14:25Z</time>
      </trkpt>
      <trkpt lat="42.89537" lon="-0.95217">
        <ele>906</ele>
        <time>2021-06-18T19:14:27Z</time>
      </trkpt>
      <trkpt lat="42.89525" lon="-0.95181">
        <ele>903</ele>
        <time>2021-06-18T19:14:33Z</time>
      </trkpt>
      <trkpt lat="42.89489" lon="-0.95104">
        <ele>899</ele>
        <time>2021-06-18T19:14:49Z</time>
      </trkpt>
      <trkpt lat="42.89469" lon="-0.95052">
        <ele>896</ele>
        <time>2021-06-18T19:14:59Z</time>
      </trkpt>
      <trkpt lat="42.89433" lon="-0.94982">
        <ele>893</ele>
        <time>2021-06-18T19:15:14Z</time>
      </trkpt>
      <trkpt lat="42.89414" lon="-0.9496">
        <ele>894</ele>
        <time>2021-06-18T19:15:20Z</time>
      </trkpt>
      <trkpt lat="42.89407" lon="-0.94922">
        <ele>888</ele>
        <time>2021-06-18T19:15:26Z</time>
      </trkpt>
      <trkpt lat="42.89388" lon="-0.94884">
        <ele>890</ele>
        <time>2021-06-18T19:15:34Z</time>
      </trkpt>
      <trkpt lat="42.8938" lon="-0.94875">
        <ele>892</ele>
        <time>2021-06-18T19:15:37Z</time>
      </trkpt>
      <trkpt lat="42.89317" lon="-0.94735">
        <ele>896</ele>
        <time>2021-06-18T19:16:05Z</time>
      </trkpt>
      <trkpt lat="42.89297" lon="-0.94699">
        <ele>901</ele>
        <time>2021-06-18T19:16:12Z</time>
      </trkpt>
      <trkpt lat="42.89293" lon="-0.94664">
        <ele>898</ele>
        <time>2021-06-18T19:16:18Z</time>
      </trkpt>
      <trkpt lat="42.8928" lon="-0.94596">
        <ele>897</ele>
        <time>2021-06-18T19:16:31Z</time>
      </trkpt>
      <trkpt lat="42.89275" lon="-0.9458">
        <ele>898</ele>
        <time>2021-06-18T19:16:33Z</time>
      </trkpt>
      <trkpt lat="42.89251" lon="-0.94538">
        <ele>903</ele>
        <time>2021-06-18T19:16:43Z</time>
      </trkpt>
      <trkpt lat="42.89242" lon="-0.94512">
        <ele>902</ele>
        <time>2021-06-18T19:16:48Z</time>
      </trkpt>
      <trkpt lat="42.89236" lon="-0.94484">
        <ele>901</ele>
        <time>2021-06-18T19:16:53Z</time>
      </trkpt>
      <trkpt lat="42.89224" lon="-0.94379">
        <ele>897</ele>
        <time>2021-06-18T19:17:11Z</time>
      </trkpt>
      <trkpt lat="42.89215" lon="-0.94332">
        <ele>894</ele>
        <time>2021-06-18T19:17:19Z</time>
      </trkpt>
      <trkpt lat="42.89211" lon="-0.94292">
        <ele>891</ele>
        <time>2021-06-18T19:17:26Z</time>
      </trkpt>
      <trkpt lat="42.89212" lon="-0.94252">
        <ele>886</ele>
        <time>2021-06-18T19:17:33Z</time>
      </trkpt>
      <trkpt lat="42.89219" lon="-0.94231">
        <ele>883</ele>
        <time>2021-06-18T19:17:37Z</time>
      </trkpt>
      <trkpt lat="42.89207" lon="-0.94227">
        <ele>882</ele>
        <time>2021-06-18T19:17:40Z</time>
      </trkpt>
      <trkpt lat="42.89204" lon="-0.94221">
        <ele>881</ele>
        <time>2021-06-18T19:17:41Z</time>
      </trkpt>
      <trkpt lat="42.8921" lon="-0.94205">
        <ele>879</ele>
        <time>2021-06-18T19:17:44Z</time>
      </trkpt>
      <trkpt lat="42.89207" lon="-0.94204">
        <ele>878</ele>
        <time>2021-06-18T19:17:45Z</time>
      </trkpt>
      <trkpt lat="42.89225" lon="-0.94163">
        <ele>873</ele>
        <time>2021-06-18T19:17:53Z</time>
      </trkpt>
      <trkpt lat="42.89221" lon="-0.94127">
        <ele>868</ele>
        <time>2021-06-18T19:17:59Z</time>
      </trkpt>
      <trkpt lat="42.89214" lon="-0.94106">
        <ele>865</ele>
        <time>2021-06-18T19:18:03Z</time>
      </trkpt>
      <trkpt lat="42.89214" lon="-0.94065">
        <ele>861</ele>
        <time>2021-06-18T19:18:10Z</time>
      </trkpt>
      <trkpt lat="42.89211" lon="-0.94049">
        <ele>859</ele>
        <time>2021-06-18T19:18:13Z</time>
      </trkpt>
      <trkpt lat="42.89189" lon="-0.94042">
        <ele>858</ele>
        <time>2021-06-18T19:18:18Z</time>
      </trkpt>
      <trkpt lat="42.89172" lon="-0.9404">
        <ele>857</ele>
        <time>2021-06-18T19:18:22Z</time>
      </trkpt>
      <trkpt lat="42.89163" lon="-0.94008">
        <ele>855</ele>
        <time>2021-06-18T19:18:28Z</time>
      </trkpt>
      <trkpt lat="42.8912" lon="-0.94013">
        <ele>853</ele>
        <time>2021-06-18T19:18:38Z</time>
      </trkpt>
      <trkpt lat="42.89104" lon="-0.93991">
        <ele>851</ele>
        <time>2021-06-18T19:18:43Z</time>
      </trkpt>
      <trkpt lat="42.89093" lon="-0.9396">
        <ele>851</ele>
        <time>2021-06-18T19:18:49Z</time>
      </trkpt>
      <trkpt lat="42.89082" lon="-0.93953">
        <ele>851</ele>
        <time>2021-06-18T19:18:52Z</time>
      </trkpt>
      <trkpt lat="42.89064" lon="-0.93933">
        <ele>851</ele>
        <time>2021-06-18T19:18:57Z</time>
      </trkpt>
      <trkpt lat="42.89056" lon="-0.93915">
        <ele>850</ele>
        <time>2021-06-18T19:19:01Z</time>
      </trkpt>
      <trkpt lat="42.89047" lon="-0.93905">
        <ele>852</ele>
        <time>2021-06-18T19:19:04Z</time>
      </trkpt>
      <trkpt lat="42.89036" lon="-0.93901">
        <ele>852</ele>
        <time>2021-06-18T19:19:06Z</time>
      </trkpt>
      <trkpt lat="42.89013" lon="-0.93877">
        <ele>854</ele>
        <time>2021-06-18T19:19:13Z</time>
      </trkpt>
      <trkpt lat="42.89007" lon="-0.93874">
        <ele>854</ele>
        <time>2021-06-18T19:19:15Z</time>
      </trkpt>
      <trkpt lat="42.88993" lon="-0.93885">
        <ele>851</ele>
        <time>2021-06-18T19:19:18Z</time>
      </trkpt>
      <trkpt lat="42.88983" lon="-0.93889">
        <ele>850</ele>
        <time>2021-06-18T19:19:21Z</time>
      </trkpt>
      <trkpt lat="42.88974" lon="-0.93868">
        <ele>853</ele>
        <time>2021-06-18T19:19:25Z</time>
      </trkpt>
      <trkpt lat="42.88962" lon="-0.9385">
        <ele>855</ele>
        <time>2021-06-18T19:19:29Z</time>
      </trkpt>
      <trkpt lat="42.88948" lon="-0.93839">
        <ele>856</ele>
        <time>2021-06-18T19:19:33Z</time>
      </trkpt>
      <trkpt lat="42.88939" lon="-0.93835">
        <ele>856</ele>
        <time>2021-06-18T19:19:35Z</time>
      </trkpt>
      <trkpt lat="42.88922" lon="-0.93833">
        <ele>855</ele>
        <time>2021-06-18T19:19:39Z</time>
      </trkpt>
      <trkpt lat="42.88904" lon="-0.93837">
        <ele>859</ele>
        <time>2021-06-18T19:19:43Z</time>
      </trkpt>
      <trkpt lat="42.88888" lon="-0.93849">
        <ele>863</ele>
        <time>2021-06-18T19:19:48Z</time>
      </trkpt>
      <trkpt lat="42.88868" lon="-0.93874">
        <ele>863</ele>
        <time>2021-06-18T19:19:54Z</time>
      </trkpt>
      <trkpt lat="42.88799" lon="-0.93986">
        <ele>852</ele>
        <time>2021-06-18T19:20:19Z</time>
      </trkpt>
      <trkpt lat="42.88791" lon="-0.94003">
        <ele>851</ele>
        <time>2021-06-18T19:20:23Z</time>
      </trkpt>
      <trkpt lat="42.88777" lon="-0.94052">
        <ele>853</ele>
        <time>2021-06-18T19:20:32Z</time>
      </trkpt>
      <trkpt lat="42.88768" lon="-0.94068">
        <ele>851</ele>
        <time>2021-06-18T19:20:35Z</time>
      </trkpt>
      <trkpt lat="42.88759" lon="-0.94073">
        <ele>850</ele>
        <time>2021-06-18T19:20:37Z</time>
      </trkpt>
      <trkpt lat="42.88733" lon="-0.9408">
        <ele>846</ele>
        <time>2021-06-18T19:20:43Z</time>
      </trkpt>
      <trkpt lat="42.8869" lon="-0.94082">
        <ele>843</ele>
        <time>2021-06-18T19:20:54Z</time>
      </trkpt>
      <trkpt lat="42.88673" lon="-0.94079">
        <ele>842</ele>
        <time>2021-06-18T19:20:58Z</time>
      </trkpt>
      <trkpt lat="42.88648" lon="-0.94067">
        <ele>846</ele>
        <time>2021-06-18T19:21:04Z</time>
      </trkpt>
      <trkpt lat="42.88624" lon="-0.94042">
        <ele>849</ele>
        <time>2021-06-18T19:21:11Z</time>
      </trkpt>
      <trkpt lat="42.88613" lon="-0.94023">
        <ele>848</ele>
        <time>2021-06-18T19:21:15Z</time>
      </trkpt>
      <trkpt lat="42.88605" lon="-0.93993">
        <ele>845</ele>
        <time>2021-06-18T19:21:20Z</time>
      </trkpt>
      <trkpt lat="42.88594" lon="-0.93924">
        <ele>846</ele>
        <time>2021-06-18T19:21:32Z</time>
      </trkpt>
      <trkpt lat="42.88585" lon="-0.93903">
        <ele>848</ele>
        <time>2021-06-18T19:21:37Z</time>
      </trkpt>
      <trkpt lat="42.88546" lon="-0.93866">
        <ele>854</ele>
        <time>2021-06-18T19:21:48Z</time>
      </trkpt>
      <trkpt lat="42.88514" lon="-0.93842">
        <ele>848</ele>
        <time>2021-06-18T19:21:56Z</time>
      </trkpt>
      <trkpt lat="42.88496" lon="-0.93822">
        <ele>846</ele>
        <time>2021-06-18T19:22:02Z</time>
      </trkpt>
      <trkpt lat="42.88469" lon="-0.93776">
        <ele>853</ele>
        <time>2021-06-18T19:22:12Z</time>
      </trkpt>
      <trkpt lat="42.88407" lon="-0.93622">
        <ele>848</ele>
        <time>2021-06-18T19:22:42Z</time>
      </trkpt>
      <trkpt lat="42.88387" lon="-0.93586">
        <ele>848</ele>
        <time>2021-06-18T19:22:50Z</time>
      </trkpt>
      <trkpt lat="42.88378" lon="-0.93575">
        <ele>850</ele>
        <time>2021-06-18T19:22:52Z</time>
      </trkpt>
      <trkpt lat="42.88364" lon="-0.93565">
        <ele>850</ele>
        <time>2021-06-18T19:22:56Z</time>
      </trkpt>
      <trkpt lat="42.88331" lon="-0.93548">
        <ele>848</ele>
        <time>2021-06-18T19:23:04Z</time>
      </trkpt>
      <trkpt lat="42.88291" lon="-0.93522">
        <ele>849</ele>
        <time>2021-06-18T19:23:15Z</time>
      </trkpt>
      <trkpt lat="42.88216" lon="-0.93482">
        <ele>845</ele>
        <time>2021-06-18T19:23:33Z</time>
      </trkpt>
      <trkpt lat="42.88194" lon="-0.93461">
        <ele>844</ele>
        <time>2021-06-18T19:23:40Z</time>
      </trkpt>
      <trkpt lat="42.8816" lon="-0.93414">
        <ele>839</ele>
        <time>2021-06-18T19:23:51Z</time>
      </trkpt>
      <trkpt lat="42.88136" lon="-0.93386">
        <ele>841</ele>
        <time>2021-06-18T19:23:58Z</time>
      </trkpt>
      <trkpt lat="42.88085" lon="-0.93342">
        <ele>831</ele>
        <time>2021-06-18T19:24:12Z</time>
      </trkpt>
      <trkpt lat="42.88051" lon="-0.93325">
        <ele>831</ele>
        <time>2021-06-18T19:24:21Z</time>
      </trkpt>
      <trkpt lat="42.88028" lon="-0.93303">
        <ele>830</ele>
        <time>2021-06-18T19:24:27Z</time>
      </trkpt>
      <trkpt lat="42.8802" lon="-0.9329">
        <ele>828</ele>
        <time>2021-06-18T19:24:30Z</time>
      </trkpt>
      <trkpt lat="42.87944" lon="-0.93095">
        <ele>824</ele>
        <time>2021-06-18T19:25:08Z</time>
      </trkpt>
      <trkpt lat="42.87922" lon="-0.93058">
        <ele>829</ele>
        <time>2021-06-18T19:25:16Z</time>
      </trkpt>
      <trkpt lat="42.87894" lon="-0.93033">
        <ele>833</ele>
        <time>2021-06-18T19:25:24Z</time>
      </trkpt>
      <trkpt lat="42.87854" lon="-0.93012">
        <ele>826</ele>
        <time>2021-06-18T19:25:34Z</time>
      </trkpt>
      <trkpt lat="42.87807" lon="-0.93001">
        <ele>819</ele>
        <time>2021-06-18T19:25:45Z</time>
      </trkpt>
      <trkpt lat="42.87684" lon="-0.929">
        <ele>827</ele>
        <time>2021-06-18T19:26:19Z</time>
      </trkpt>
      <trkpt lat="42.87639" lon="-0.92873">
        <ele>829</ele>
        <time>2021-06-18T19:26:30Z</time>
      </trkpt>
      <trkpt lat="42.87565" lon="-0.92843">
        <ele>819</ele>
        <time>2021-06-18T19:26:48Z</time>
      </trkpt>
      <trkpt lat="42.87542" lon="-0.92826">
        <ele>819</ele>
        <time>2021-06-18T19:26:54Z</time>
      </trkpt>
      <trkpt lat="42.87508" lon="-0.92792">
        <ele>824</ele>
        <time>2021-06-18T19:27:04Z</time>
      </trkpt>
      <trkpt lat="42.87478" lon="-0.92771">
        <ele>825</ele>
        <time>2021-06-18T19:27:12Z</time>
      </trkpt>
      <trkpt lat="42.87458" lon="-0.92765">
        <ele>824</ele>
        <time>2021-06-18T19:27:17Z</time>
      </trkpt>
      <trkpt lat="42.87383" lon="-0.92773">
        <ele>819</ele>
        <time>2021-06-18T19:27:34Z</time>
      </trkpt>
      <trkpt lat="42.87339" lon="-0.92771">
        <ele>818</ele>
        <time>2021-06-18T19:27:45Z</time>
      </trkpt>
      <trkpt lat="42.8723" lon="-0.92754">
        <ele>808</ele>
        <time>2021-06-18T19:28:10Z</time>
      </trkpt>
      <trkpt lat="42.872" lon="-0.92743">
        <ele>806</ele>
        <time>2021-06-18T19:28:18Z</time>
      </trkpt>
      <trkpt lat="42.87161" lon="-0.92717">
        <ele>806</ele>
        <time>2021-06-18T19:28:28Z</time>
      </trkpt>
      <trkpt lat="42.87136" lon="-0.92696">
        <ele>810</ele>
        <time>2021-06-18T19:28:35Z</time>
      </trkpt>
      <trkpt lat="42.87116" lon="-0.92673">
        <ele>809</ele>
        <time>2021-06-18T19:28:41Z</time>
      </trkpt>
      <trkpt lat="42.87045" lon="-0.9257">
        <ele>814</ele>
        <time>2021-06-18T19:29:05Z</time>
      </trkpt>
      <trkpt lat="42.87034" lon="-0.92557">
        <ele>816</ele>
        <time>2021-06-18T19:29:08Z</time>
      </trkpt>
      <trkpt lat="42.8701" lon="-0.92544">
        <ele>817</ele>
        <time>2021-06-18T19:29:14Z</time>
      </trkpt>
      <trkpt lat="42.86995" lon="-0.92543">
        <ele>817</ele>
        <time>2021-06-18T19:29:18Z</time>
      </trkpt>
      <trkpt lat="42.86957" lon="-0.92553">
        <ele>817</ele>
        <time>2021-06-18T19:29:27Z</time>
      </trkpt>
      <trkpt lat="42.86915" lon="-0.92586">
        <ele>807</ele>
        <time>2021-06-18T19:29:38Z</time>
      </trkpt>
      <trkpt lat="42.86878" lon="-0.92621">
        <ele>809</ele>
        <time>2021-06-18T19:29:49Z</time>
      </trkpt>
      <trkpt lat="42.86863" lon="-0.92628">
        <ele>808</ele>
        <time>2021-06-18T19:29:52Z</time>
      </trkpt>
      <trkpt lat="42.86827" lon="-0.92638">
        <ele>805</ele>
        <time>2021-06-18T19:30:01Z</time>
      </trkpt>
      <trkpt lat="42.86792" lon="-0.92646">
        <ele>802</ele>
        <time>2021-06-18T19:30:09Z</time>
      </trkpt>
      <trkpt lat="42.86721" lon="-0.92653">
        <ele>797</ele>
        <time>2021-06-18T19:30:26Z</time>
      </trkpt>
      <trkpt lat="42.86661" lon="-0.92643">
        <ele>794</ele>
        <time>2021-06-18T19:30:40Z</time>
      </trkpt>
      <trkpt lat="42.86626" lon="-0.92634">
        <ele>792</ele>
        <time>2021-06-18T19:30:48Z</time>
      </trkpt>
      <trkpt lat="42.86619" lon="-0.92629">
        <ele>792</ele>
        <time>2021-06-18T19:30:50Z</time>
      </trkpt>
      <trkpt lat="42.86607" lon="-0.92614">
        <ele>791</ele>
        <time>2021-06-18T19:30:54Z</time>
      </trkpt>
      <trkpt lat="42.86508" lon="-0.92383">
        <ele>789</ele>
        <time>2021-06-18T19:31:40Z</time>
      </trkpt>
      <trkpt lat="42.86497" lon="-0.92362">
        <ele>788</ele>
        <time>2021-06-18T19:31:44Z</time>
      </trkpt>
      <trkpt lat="42.86489" lon="-0.9235">
        <ele>786</ele>
        <time>2021-06-18T19:31:47Z</time>
      </trkpt>
      <trkpt lat="42.86478" lon="-0.9234">
        <ele>786</ele>
        <time>2021-06-18T19:31:50Z</time>
      </trkpt>
      <trkpt lat="42.86449" lon="-0.92322">
        <ele>784</ele>
        <time>2021-06-18T19:31:58Z</time>
      </trkpt>
      <trkpt lat="42.86433" lon="-0.92308">
        <ele>784</ele>
        <time>2021-06-18T19:32:02Z</time>
      </trkpt>
      <trkpt lat="42.86409" lon="-0.92268">
        <ele>783</ele>
        <time>2021-06-18T19:32:11Z</time>
      </trkpt>
      <trkpt lat="42.86375" lon="-0.92219">
        <ele>787</ele>
        <time>2021-06-18T19:32:22Z</time>
      </trkpt>
      <trkpt lat="42.86366" lon="-0.92201">
        <ele>789</ele>
        <time>2021-06-18T19:32:26Z</time>
      </trkpt>
      <trkpt lat="42.86368" lon="-0.92177">
        <ele>791</ele>
        <time>2021-06-18T19:32:30Z</time>
      </trkpt>
      <trkpt lat="42.86386" lon="-0.92083">
        <ele>794</ele>
        <time>2021-06-18T19:32:47Z</time>
      </trkpt>
      <trkpt lat="42.86384" lon="-0.9207">
        <ele>796</ele>
        <time>2021-06-18T19:32:49Z</time>
      </trkpt>
      <trkpt lat="42.86378" lon="-0.92065">
        <ele>799</ele>
        <time>2021-06-18T19:32:51Z</time>
      </trkpt>
      <trkpt lat="42.86372" lon="-0.92067">
        <ele>800</ele>
        <time>2021-06-18T19:32:52Z</time>
      </trkpt>
      <trkpt lat="42.86369" lon="-0.92071">
        <ele>800</ele>
        <time>2021-06-18T19:32:53Z</time>
      </trkpt>
      <trkpt lat="42.86358" lon="-0.92132">
        <ele>796</ele>
        <time>2021-06-18T19:33:04Z</time>
      </trkpt>
      <trkpt lat="42.86351" lon="-0.92145">
        <ele>797</ele>
        <time>2021-06-18T19:33:07Z</time>
      </trkpt>
      <trkpt lat="42.86327" lon="-0.92159">
        <ele>799</ele>
        <time>2021-06-18T19:33:13Z</time>
      </trkpt>
      <trkpt lat="42.86275" lon="-0.92174">
        <ele>805</ele>
        <time>2021-06-18T19:33:25Z</time>
      </trkpt>
      <trkpt lat="42.86194" lon="-0.9226">
        <ele>810</ele>
        <time>2021-06-18T19:33:49Z</time>
      </trkpt>
      <trkpt lat="42.86156" lon="-0.92261">
        <ele>813</ele>
        <time>2021-06-18T19:33:58Z</time>
      </trkpt>
      <trkpt lat="42.86107" lon="-0.92253">
        <ele>807</ele>
        <time>2021-06-18T19:34:10Z</time>
      </trkpt>
      <trkpt lat="42.86098" lon="-0.92261">
        <ele>807</ele>
        <time>2021-06-18T19:34:12Z</time>
      </trkpt>
      <trkpt lat="42.86091" lon="-0.92273">
        <ele>806</ele>
        <time>2021-06-18T19:34:15Z</time>
      </trkpt>
      <trkpt lat="42.86076" lon="-0.92267">
        <ele>804</ele>
        <time>2021-06-18T19:34:18Z</time>
      </trkpt>
      <trkpt lat="42.86046" lon="-0.92278">
        <ele>800</ele>
        <time>2021-06-18T19:34:26Z</time>
      </trkpt>
      <trkpt lat="42.86023" lon="-0.92297">
        <ele>796</ele>
        <time>2021-06-18T19:34:32Z</time>
      </trkpt>
      <trkpt lat="42.85993" lon="-0.92195">
        <ele>800</ele>
        <time>2021-06-18T19:34:51Z</time>
      </trkpt>
      <trkpt lat="42.85977" lon="-0.92173">
        <ele>800</ele>
        <time>2021-06-18T19:34:56Z</time>
      </trkpt>
      <trkpt lat="42.85938" lon="-0.92144">
        <ele>797</ele>
        <time>2021-06-18T19:35:06Z</time>
      </trkpt>
      <trkpt lat="42.85907" lon="-0.921">
        <ele>800</ele>
        <time>2021-06-18T19:35:17Z</time>
      </trkpt>
      <trkpt lat="42.85903" lon="-0.92079">
        <ele>803</ele>
        <time>2021-06-18T19:35:21Z</time>
      </trkpt>
      <trkpt lat="42.85901" lon="-0.92046">
        <ele>805</ele>
        <time>2021-06-18T19:35:26Z</time>
      </trkpt>
      <trkpt lat="42.85907" lon="-0.92011">
        <ele>807</ele>
        <time>2021-06-18T19:35:32Z</time>
      </trkpt>
      <trkpt lat="42.8594" lon="-0.91931">
        <ele>823</ele>
        <time>2021-06-18T19:35:48Z</time>
      </trkpt>
      <trkpt lat="42.85947" lon="-0.91904">
        <ele>828</ele>
        <time>2021-06-18T19:35:53Z</time>
      </trkpt>
      <trkpt lat="42.85946" lon="-0.91887">
        <ele>827</ele>
        <time>2021-06-18T19:35:56Z</time>
      </trkpt>
      <trkpt lat="42.85953" lon="-0.91843">
        <ele>831</ele>
        <time>2021-06-18T19:36:04Z</time>
      </trkpt>
      <trkpt lat="42.85945" lon="-0.91783">
        <ele>828</ele>
        <time>2021-06-18T19:36:14Z</time>
      </trkpt>
      <trkpt lat="42.85944" lon="-0.917">
        <ele>832</ele>
        <time>2021-06-18T19:36:28Z</time>
      </trkpt>
      <trkpt lat="42.85937" lon="-0.91618">
        <ele>828</ele>
        <time>2021-06-18T19:36:42Z</time>
      </trkpt>
      <trkpt lat="42.85941" lon="-0.91582">
        <ele>830</ele>
        <time>2021-06-18T19:36:49Z</time>
      </trkpt>
      <trkpt lat="42.85971" lon="-0.91541">
        <ele>840</ele>
        <time>2021-06-18T19:36:59Z</time>
      </trkpt>
      <trkpt lat="42.85997" lon="-0.91476">
        <ele>839</ele>
        <time>2021-06-18T19:37:11Z</time>
      </trkpt>
      <trkpt lat="42.86001" lon="-0.91406">
        <ele>835</ele>
        <time>2021-06-18T19:37:23Z</time>
      </trkpt>
      <trkpt lat="42.85997" lon="-0.91358">
        <ele>834</ele>
        <time>2021-06-18T19:37:32Z</time>
      </trkpt>
      <trkpt lat="42.8599" lon="-0.91325">
        <ele>834</ele>
        <time>2021-06-18T19:37:37Z</time>
      </trkpt>
      <trkpt lat="42.85986" lon="-0.91287">
        <ele>833</ele>
        <time>2021-06-18T19:37:44Z</time>
      </trkpt>
      <trkpt lat="42.85987" lon="-0.91267">
        <ele>833</ele>
        <time>2021-06-18T19:37:47Z</time>
      </trkpt>
      <trkpt lat="42.85994" lon="-0.91247">
        <ele>831</ele>
        <time>2021-06-18T19:37:51Z</time>
      </trkpt>
      <trkpt lat="42.86037" lon="-0.91202">
        <ele>839</ele>
        <time>2021-06-18T19:38:04Z</time>
      </trkpt>
      <trkpt lat="42.86045" lon="-0.91189">
        <ele>839</ele>
        <time>2021-06-18T19:38:07Z</time>
      </trkpt>
      <trkpt lat="42.86045" lon="-0.91185">
        <ele>838</ele>
        <time>2021-06-18T19:38:07Z</time>
      </trkpt>
      <trkpt lat="42.8607" lon="-0.91159">
        <ele>838</ele>
        <time>2021-06-18T19:38:15Z</time>
      </trkpt>
      <trkpt lat="42.86078" lon="-0.91147">
        <ele>837</ele>
        <time>2021-06-18T19:38:18Z</time>
      </trkpt>
      <trkpt lat="42.8608" lon="-0.91135">
        <ele>835</ele>
        <time>2021-06-18T19:38:20Z</time>
      </trkpt>
      <trkpt lat="42.86082" lon="-0.90986">
        <ele>833</ele>
        <time>2021-06-18T19:38:45Z</time>
      </trkpt>
      <trkpt lat="42.86094" lon="-0.90883">
        <ele>843</ele>
        <time>2021-06-18T19:39:03Z</time>
      </trkpt>
      <trkpt lat="42.86099" lon="-0.90709">
        <ele>851</ele>
        <time>2021-06-18T19:39:33Z</time>
      </trkpt>
      <trkpt lat="42.86111" lon="-0.90517">
        <ele>854</ele>
        <time>2021-06-18T19:40:06Z</time>
      </trkpt>
      <trkpt lat="42.8612" lon="-0.90431">
        <ele>861</ele>
        <time>2021-06-18T19:40:21Z</time>
      </trkpt>
      <trkpt lat="42.86145" lon="-0.90367">
        <ele>869</ele>
        <time>2021-06-18T19:40:33Z</time>
      </trkpt>
      <trkpt lat="42.86151" lon="-0.90344">
        <ele>870</ele>
        <time>2021-06-18T19:40:37Z</time>
      </trkpt>
      <trkpt lat="42.86158" lon="-0.90297">
        <ele>870</ele>
        <time>2021-06-18T19:40:46Z</time>
      </trkpt>
      <trkpt lat="42.86163" lon="-0.90202">
        <ele>864</ele>
        <time>2021-06-18T19:41:02Z</time>
      </trkpt>
      <trkpt lat="42.86168" lon="-0.9019">
        <ele>863</ele>
        <time>2021-06-18T19:41:04Z</time>
      </trkpt>
      <trkpt lat="42.86196" lon="-0.90153">
        <ele>873</ele>
        <time>2021-06-18T19:41:13Z</time>
      </trkpt>
      <trkpt lat="42.86237" lon="-0.90085">
        <ele>877</ele>
        <time>2021-06-18T19:41:28Z</time>
      </trkpt>
      <trkpt lat="42.86263" lon="-0.90018">
        <ele>883</ele>
        <time>2021-06-18T19:41:41Z</time>
      </trkpt>
      <trkpt lat="42.86283" lon="-0.89957">
        <ele>888</ele>
        <time>2021-06-18T19:41:53Z</time>
      </trkpt>
      <trkpt lat="42.86294" lon="-0.89935">
        <ele>890</ele>
        <time>2021-06-18T19:41:57Z</time>
      </trkpt>
      <trkpt lat="42.86332" lon="-0.89893">
        <ele>899</ele>
        <time>2021-06-18T19:42:09Z</time>
      </trkpt>
      <trkpt lat="42.8635" lon="-0.89864">
        <ele>910</ele>
        <time>2021-06-18T19:42:15Z</time>
      </trkpt>
      <trkpt lat="42.86371" lon="-0.89807">
        <ele>919</ele>
        <time>2021-06-18T19:42:26Z</time>
      </trkpt>
      <trkpt lat="42.8639" lon="-0.89764">
        <ele>923</ele>
        <time>2021-06-18T19:42:35Z</time>
      </trkpt>
      <trkpt lat="42.86402" lon="-0.8975">
        <ele>922</ele>
        <time>2021-06-18T19:42:38Z</time>
      </trkpt>
      <trkpt lat="42.86409" lon="-0.89735">
        <ele>920</ele>
        <time>2021-06-18T19:42:42Z</time>
      </trkpt>
      <trkpt lat="42.8643" lon="-0.89669">
        <ele>904</ele>
        <time>2021-06-18T19:42:54Z</time>
      </trkpt>
      <trkpt lat="42.86441" lon="-0.89655">
        <ele>911</ele>
        <time>2021-06-18T19:42:57Z</time>
      </trkpt>
      <trkpt lat="42.86467" lon="-0.89635">
        <ele>921</ele>
        <time>2021-06-18T19:43:04Z</time>
      </trkpt>
      <trkpt lat="42.86486" lon="-0.89616">
        <ele>923</ele>
        <time>2021-06-18T19:43:10Z</time>
      </trkpt>
      <trkpt lat="42.86494" lon="-0.89613">
        <ele>922</ele>
        <time>2021-06-18T19:43:12Z</time>
      </trkpt>
      <trkpt lat="42.86509" lon="-0.89613">
        <ele>922</ele>
        <time>2021-06-18T19:43:15Z</time>
      </trkpt>
      <trkpt lat="42.8654" lon="-0.89621">
        <ele>927</ele>
        <time>2021-06-18T19:43:23Z</time>
      </trkpt>
      <trkpt lat="42.86553" lon="-0.89628">
        <ele>930</ele>
        <time>2021-06-18T19:43:26Z</time>
      </trkpt>
      <trkpt lat="42.86579" lon="-0.89663">
        <ele>934</ele>
        <time>2021-06-18T19:43:34Z</time>
      </trkpt>
      <trkpt lat="42.8659" lon="-0.89668">
        <ele>936</ele>
        <time>2021-06-18T19:43:37Z</time>
      </trkpt>
      <trkpt lat="42.86601" lon="-0.89668">
        <ele>936</ele>
        <time>2021-06-18T19:43:40Z</time>
      </trkpt>
      <trkpt lat="42.86628" lon="-0.8966">
        <ele>937</ele>
        <time>2021-06-18T19:43:46Z</time>
      </trkpt>
      <trkpt lat="42.86684" lon="-0.89659">
        <ele>939</ele>
        <time>2021-06-18T19:43:59Z</time>
      </trkpt>
      <trkpt lat="42.86701" lon="-0.89655">
        <ele>940</ele>
        <time>2021-06-18T19:44:03Z</time>
      </trkpt>
      <trkpt lat="42.8674" lon="-0.89665">
        <ele>941</ele>
        <time>2021-06-18T19:44:13Z</time>
      </trkpt>
      <trkpt lat="42.86758" lon="-0.89664">
        <ele>942</ele>
        <time>2021-06-18T19:44:17Z</time>
      </trkpt>
      <trkpt lat="42.86799" lon="-0.89633">
        <ele>944</ele>
        <time>2021-06-18T19:44:28Z</time>
      </trkpt>
      <trkpt lat="42.86816" lon="-0.89612">
        <ele>943</ele>
        <time>2021-06-18T19:44:33Z</time>
      </trkpt>
      <trkpt lat="42.86868" lon="-0.89521">
        <ele>948</ele>
        <time>2021-06-18T19:44:53Z</time>
      </trkpt>
      <trkpt lat="42.86919" lon="-0.89469">
        <ele>953</ele>
        <time>2021-06-18T19:45:08Z</time>
      </trkpt>
      <trkpt lat="42.86928" lon="-0.89457">
        <ele>954</ele>
        <time>2021-06-18T19:45:11Z</time>
      </trkpt>
      <trkpt lat="42.86934" lon="-0.89444">
        <ele>955</ele>
        <time>2021-06-18T19:45:13Z</time>
      </trkpt>
      <trkpt lat="42.86937" lon="-0.89427">
        <ele>954</ele>
        <time>2021-06-18T19:45:16Z</time>
      </trkpt>
      <trkpt lat="42.86937" lon="-0.89401">
        <ele>952</ele>
        <time>2021-06-18T19:45:21Z</time>
      </trkpt>
      <trkpt lat="42.86951" lon="-0.89299">
        <ele>954</ele>
        <time>2021-06-18T19:45:38Z</time>
      </trkpt>
      <trkpt lat="42.86961" lon="-0.89266">
        <ele>956</ele>
        <time>2021-06-18T19:45:45Z</time>
      </trkpt>
      <trkpt lat="42.86994" lon="-0.89194">
        <ele>957</ele>
        <time>2021-06-18T19:45:59Z</time>
      </trkpt>
      <trkpt lat="42.87029" lon="-0.89149">
        <ele>967</ele>
        <time>2021-06-18T19:46:10Z</time>
      </trkpt>
      <trkpt lat="42.87046" lon="-0.89099">
        <ele>968</ele>
        <time>2021-06-18T19:46:20Z</time>
      </trkpt>
      <trkpt lat="42.87052" lon="-0.89074">
        <ele>967</ele>
        <time>2021-06-18T19:46:24Z</time>
      </trkpt>
      <trkpt lat="42.87077" lon="-0.89016">
        <ele>966</ele>
        <time>2021-06-18T19:46:36Z</time>
      </trkpt>
      <trkpt lat="42.87106" lon="-0.88974">
        <ele>975</ele>
        <time>2021-06-18T19:46:46Z</time>
      </trkpt>
      <trkpt lat="42.87113" lon="-0.8896">
        <ele>978</ele>
        <time>2021-06-18T19:46:49Z</time>
      </trkpt>
      <trkpt lat="42.87126" lon="-0.88911">
        <ele>980</ele>
        <time>2021-06-18T19:46:57Z</time>
      </trkpt>
      <trkpt lat="42.87136" lon="-0.88825">
        <ele>980</ele>
        <time>2021-06-18T19:47:12Z</time>
      </trkpt>
      <trkpt lat="42.87139" lon="-0.88814">
        <ele>980</ele>
        <time>2021-06-18T19:47:14Z</time>
      </trkpt>
      <trkpt lat="42.87197" lon="-0.8873">
        <ele>988</ele>
        <time>2021-06-18T19:47:34Z</time>
      </trkpt>
      <trkpt lat="42.87271" lon="-0.8858">
        <ele>1018</ele>
        <time>2021-06-18T19:48:05Z</time>
      </trkpt>
      <trkpt lat="42.87305" lon="-0.88449">
        <ele>1035</ele>
        <time>2021-06-18T19:48:29Z</time>
      </trkpt>
      <trkpt lat="42.87323" lon="-0.88409">
        <ele>1034</ele>
        <time>2021-06-18T19:48:37Z</time>
      </trkpt>
      <trkpt lat="42.87333" lon="-0.88392">
        <ele>1034</ele>
        <time>2021-06-18T19:48:41Z</time>
      </trkpt>
      <trkpt lat="42.87349" lon="-0.88373">
        <ele>1031</ele>
        <time>2021-06-18T19:48:46Z</time>
      </trkpt>
      <trkpt lat="42.87366" lon="-0.88365">
        <ele>1030</ele>
        <time>2021-06-18T19:48:50Z</time>
      </trkpt>
      <trkpt lat="42.87401" lon="-0.88353">
        <ele>1027</ele>
        <time>2021-06-18T19:48:58Z</time>
      </trkpt>
      <trkpt lat="42.87426" lon="-0.88352">
        <ele>1027</ele>
        <time>2021-06-18T19:49:04Z</time>
      </trkpt>
      <trkpt lat="42.87487" lon="-0.88335">
        <ele>1027</ele>
        <time>2021-06-18T19:49:19Z</time>
      </trkpt>
      <trkpt lat="42.87484" lon="-0.88327">
        <ele>1026</ele>
        <time>2021-06-18T19:49:20Z</time>
      </trkpt>
      <trkpt lat="42.87483" lon="-0.88305">
        <ele>1024</ele>
        <time>2021-06-18T19:49:24Z</time>
      </trkpt>
      <trkpt lat="42.87473" lon="-0.88262">
        <ele>1021</ele>
        <time>2021-06-18T19:49:32Z</time>
      </trkpt>
      <trkpt lat="42.87468" lon="-0.88256">
        <ele>1020</ele>
        <time>2021-06-18T19:49:33Z</time>
      </trkpt>
      <trkpt lat="42.87457" lon="-0.88251">
        <ele>1020</ele>
        <time>2021-06-18T19:49:36Z</time>
      </trkpt>
      <trkpt lat="42.87448" lon="-0.88241">
        <ele>1021</ele>
        <time>2021-06-18T19:49:39Z</time>
      </trkpt>
      <trkpt lat="42.87441" lon="-0.88211">
        <ele>1025</ele>
        <time>2021-06-18T19:49:44Z</time>
      </trkpt>
      <trkpt lat="42.87448" lon="-0.88195">
        <ele>1026</ele>
        <time>2021-06-18T19:49:47Z</time>
      </trkpt>
      <trkpt lat="42.87469" lon="-0.88178">
        <ele>1024</ele>
        <time>2021-06-18T19:49:53Z</time>
      </trkpt>
      <trkpt lat="42.87477" lon="-0.88165">
        <ele>1024</ele>
        <time>2021-06-18T19:49:56Z</time>
      </trkpt>
      <trkpt lat="42.87484" lon="-0.88141">
        <ele>1024</ele>
        <time>2021-06-18T19:50:00Z</time>
      </trkpt>
      <trkpt lat="42.87489" lon="-0.88091">
        <ele>1027</ele>
        <time>2021-06-18T19:50:09Z</time>
      </trkpt>
      <trkpt lat="42.87489" lon="-0.88073">
        <ele>1028</ele>
        <time>2021-06-18T19:50:12Z</time>
      </trkpt>
      <trkpt lat="42.87485" lon="-0.88056">
        <ele>1031</ele>
        <time>2021-06-18T19:50:15Z</time>
      </trkpt>
      <trkpt lat="42.87493" lon="-0.87948">
        <ele>1035</ele>
        <time>2021-06-18T19:50:34Z</time>
      </trkpt>
      <trkpt lat="42.87498" lon="-0.8793">
        <ele>1034</ele>
        <time>2021-06-18T19:50:37Z</time>
      </trkpt>
      <trkpt lat="42.87523" lon="-0.87887">
        <ele>1034</ele>
        <time>2021-06-18T19:50:46Z</time>
      </trkpt>
      <trkpt lat="42.87528" lon="-0.87838">
        <ele>1039</ele>
        <time>2021-06-18T19:50:55Z</time>
      </trkpt>
      <trkpt lat="42.87525" lon="-0.87825">
        <ele>1041</ele>
        <time>2021-06-18T19:50:57Z</time>
      </trkpt>
      <trkpt lat="42.87528" lon="-0.87816">
        <ele>1041</ele>
        <time>2021-06-18T19:50:59Z</time>
      </trkpt>
      <trkpt lat="42.87531" lon="-0.87817">
        <ele>1040</ele>
        <time>2021-06-18T19:50:59Z</time>
      </trkpt>
      <trkpt lat="42.87532" lon="-0.87796">
        <ele>1041</ele>
        <time>2021-06-18T19:51:03Z</time>
      </trkpt>
      <trkpt lat="42.87553" lon="-0.8774">
        <ele>1038</ele>
        <time>2021-06-18T19:51:14Z</time>
      </trkpt>
      <trkpt lat="42.87565" lon="-0.8772">
        <ele>1036</ele>
        <time>2021-06-18T19:51:18Z</time>
      </trkpt>
      <trkpt lat="42.8758" lon="-0.87715">
        <ele>1031</ele>
        <time>2021-06-18T19:51:22Z</time>
      </trkpt>
      <trkpt lat="42.8759" lon="-0.87691">
        <ele>1031</ele>
        <time>2021-06-18T19:51:27Z</time>
      </trkpt>
      <trkpt lat="42.87597" lon="-0.87651">
        <ele>1033</ele>
        <time>2021-06-18T19:51:34Z</time>
      </trkpt>
      <trkpt lat="42.87606" lon="-0.87624">
        <ele>1032</ele>
        <time>2021-06-18T19:51:39Z</time>
      </trkpt>
      <trkpt lat="42.87624" lon="-0.87594">
        <ele>1030</ele>
        <time>2021-06-18T19:51:45Z</time>
      </trkpt>
      <trkpt lat="42.87627" lon="-0.87576">
        <ele>1030</ele>
        <time>2021-06-18T19:51:48Z</time>
      </trkpt>
      <trkpt lat="42.87613" lon="-0.87488">
        <ele>1036</ele>
        <time>2021-06-18T19:52:04Z</time>
      </trkpt>
      <trkpt lat="42.87615" lon="-0.87471">
        <ele>1037</ele>
        <time>2021-06-18T19:52:07Z</time>
      </trkpt>
      <trkpt lat="42.87611" lon="-0.87449">
        <ele>1039</ele>
        <time>2021-06-18T19:52:11Z</time>
      </trkpt>
      <trkpt lat="42.87617" lon="-0.87428">
        <ele>1039</ele>
        <time>2021-06-18T19:52:15Z</time>
      </trkpt>
      <trkpt lat="42.87617" lon="-0.87407">
        <ele>1040</ele>
        <time>2021-06-18T19:52:18Z</time>
      </trkpt>
      <trkpt lat="42.87622" lon="-0.87382">
        <ele>1040</ele>
        <time>2021-06-18T19:52:23Z</time>
      </trkpt>
      <trkpt lat="42.87615" lon="-0.8735">
        <ele>1043</ele>
        <time>2021-06-18T19:52:28Z</time>
      </trkpt>
      <trkpt lat="42.87603" lon="-0.87334">
        <ele>1047</ele>
        <time>2021-06-18T19:52:32Z</time>
      </trkpt>
      <trkpt lat="42.876" lon="-0.87308">
        <ele>1048</ele>
        <time>2021-06-18T19:52:37Z</time>
      </trkpt>
      <trkpt lat="42.87586" lon="-0.87271">
        <ele>1053</ele>
        <time>2021-06-18T19:52:44Z</time>
      </trkpt>
      <trkpt lat="42.8759" lon="-0.87244">
        <ele>1052</ele>
        <time>2021-06-18T19:52:49Z</time>
      </trkpt>
      <trkpt lat="42.87587" lon="-0.87209">
        <ele>1054</ele>
        <time>2021-06-18T19:52:55Z</time>
      </trkpt>
      <trkpt lat="42.87586" lon="-0.87127">
        <ele>1056</ele>
        <time>2021-06-18T19:53:09Z</time>
      </trkpt>
      <trkpt lat="42.87592" lon="-0.87091">
        <ele>1055</ele>
        <time>2021-06-18T19:53:15Z</time>
      </trkpt>
      <trkpt lat="42.87596" lon="-0.87028">
        <ele>1052</ele>
        <time>2021-06-18T19:53:26Z</time>
      </trkpt>
      <trkpt lat="42.8759" lon="-0.86969">
        <ele>1053</ele>
        <time>2021-06-18T19:53:36Z</time>
      </trkpt>
      <trkpt lat="42.87588" lon="-0.86912">
        <ele>1053</ele>
        <time>2021-06-18T19:53:46Z</time>
      </trkpt>
      <trkpt lat="42.87582" lon="-0.86893">
        <ele>1054</ele>
        <time>2021-06-18T19:53:49Z</time>
      </trkpt>
      <trkpt lat="42.87572" lon="-0.8684">
        <ele>1058</ele>
        <time>2021-06-18T19:53:59Z</time>
      </trkpt>
      <trkpt lat="42.8758" lon="-0.86743">
        <ele>1050</ele>
        <time>2021-06-18T19:54:15Z</time>
      </trkpt>
      <trkpt lat="42.87577" lon="-0.86615">
        <ele>1052</ele>
        <time>2021-06-18T19:54:37Z</time>
      </trkpt>
      <trkpt lat="42.87579" lon="-0.86581">
        <ele>1053</ele>
        <time>2021-06-18T19:54:43Z</time>
      </trkpt>
      <trkpt lat="42.87586" lon="-0.86544">
        <ele>1052</ele>
        <time>2021-06-18T19:54:50Z</time>
      </trkpt>
      <trkpt lat="42.87587" lon="-0.86523">
        <ele>1053</ele>
        <time>2021-06-18T19:54:53Z</time>
      </trkpt>
      <trkpt lat="42.87579" lon="-0.86513">
        <ele>1055</ele>
        <time>2021-06-18T19:54:56Z</time>
      </trkpt>
      <trkpt lat="42.87573" lon="-0.86499">
        <ele>1057</ele>
        <time>2021-06-18T19:54:59Z</time>
      </trkpt>
      <trkpt lat="42.8757" lon="-0.86452">
        <ele>1058</ele>
        <time>2021-06-18T19:55:07Z</time>
      </trkpt>
      <trkpt lat="42.87565" lon="-0.86419">
        <ele>1059</ele>
        <time>2021-06-18T19:55:12Z</time>
      </trkpt>
      <trkpt lat="42.87554" lon="-0.86381">
        <ele>1062</ele>
        <time>2021-06-18T19:55:19Z</time>
      </trkpt>
      <trkpt lat="42.87553" lon="-0.86289">
        <ele>1065</ele>
        <time>2021-06-18T19:55:35Z</time>
      </trkpt>
      <trkpt lat="42.87561" lon="-0.86261">
        <ele>1063</ele>
        <time>2021-06-18T19:55:40Z</time>
      </trkpt>
      <trkpt lat="42.87563" lon="-0.86201">
        <ele>1067</ele>
        <time>2021-06-18T19:55:51Z</time>
      </trkpt>
      <trkpt lat="42.87554" lon="-0.86175">
        <ele>1073</ele>
        <time>2021-06-18T19:55:55Z</time>
      </trkpt>
      <trkpt lat="42.87549" lon="-0.86106">
        <ele>1082</ele>
        <time>2021-06-18T19:56:07Z</time>
      </trkpt>
      <trkpt lat="42.87523" lon="-0.85903">
        <ele>1096</ele>
        <time>2021-06-18T19:56:43Z</time>
      </trkpt>
      <trkpt lat="42.87537" lon="-0.85857">
        <ele>1086</ele>
        <time>2021-06-18T19:56:51Z</time>
      </trkpt>
      <trkpt lat="42.8754" lon="-0.85823">
        <ele>1082</ele>
        <time>2021-06-18T19:56:57Z</time>
      </trkpt>
      <trkpt lat="42.87532" lon="-0.8579">
        <ele>1082</ele>
        <time>2021-06-18T19:57:03Z</time>
      </trkpt>
      <trkpt lat="42.87522" lon="-0.85772">
        <ele>1083</ele>
        <time>2021-06-18T19:57:07Z</time>
      </trkpt>
      <trkpt lat="42.87501" lon="-0.85717">
        <ele>1083</ele>
        <time>2021-06-18T19:57:17Z</time>
      </trkpt>
      <trkpt lat="42.87496" lon="-0.85693">
        <ele>1082</ele>
        <time>2021-06-18T19:57:22Z</time>
      </trkpt>
      <trkpt lat="42.8747" lon="-0.85618">
        <ele>1090</ele>
        <time>2021-06-18T19:57:36Z</time>
      </trkpt>
      <trkpt lat="42.87469" lon="-0.85547">
        <ele>1085</ele>
        <time>2021-06-18T19:57:48Z</time>
      </trkpt>
      <trkpt lat="42.87459" lon="-0.85482">
        <ele>1086</ele>
        <time>2021-06-18T19:57:59Z</time>
      </trkpt>
      <trkpt lat="42.87453" lon="-0.85407">
        <ele>1081</ele>
        <time>2021-06-18T19:58:12Z</time>
      </trkpt>
      <trkpt lat="42.87446" lon="-0.85381">
        <ele>1080</ele>
        <time>2021-06-18T19:58:17Z</time>
      </trkpt>
      <trkpt lat="42.87442" lon="-0.85348">
        <ele>1077</ele>
        <time>2021-06-18T19:58:23Z</time>
      </trkpt>
      <trkpt lat="42.87441" lon="-0.85295">
        <ele>1075</ele>
        <time>2021-06-18T19:58:32Z</time>
      </trkpt>
      <trkpt lat="42.87443" lon="-0.85283">
        <ele>1074</ele>
        <time>2021-06-18T19:58:34Z</time>
      </trkpt>
      <trkpt lat="42.87441" lon="-0.85262">
        <ele>1074</ele>
        <time>2021-06-18T19:58:38Z</time>
      </trkpt>
      <trkpt lat="42.87537" lon="-0.85255">
        <ele>1087</ele>
        <time>2021-06-18T19:59:00Z</time>
      </trkpt>
      <trkpt lat="42.87526" lon="-0.85187">
        <ele>1083</ele>
        <time>2021-06-18T19:59:12Z</time>
      </trkpt>
      <trkpt lat="42.87501" lon="-0.85065">
        <ele>1076</ele>
        <time>2021-06-18T19:59:34Z</time>
      </trkpt>
      <trkpt lat="42.87347" lon="-0.84436">
        <ele>1087</ele>
        <time>2021-06-18T20:01:27Z</time>
      </trkpt>
      <trkpt lat="42.87296" lon="-0.8417">
        <ele>1103</ele>
        <time>2021-06-18T20:02:14Z</time>
      </trkpt>
      <trkpt lat="42.87294" lon="-0.84148">
        <ele>1105</ele>
        <time>2021-06-18T20:02:18Z</time>
      </trkpt>
      <trkpt lat="42.87299" lon="-0.84094">
        <ele>1112</ele>
        <time>2021-06-18T20:02:27Z</time>
      </trkpt>
      <trkpt lat="42.87299" lon="-0.84033">
        <ele>1117</ele>
        <time>2021-06-18T20:02:38Z</time>
      </trkpt>
      <trkpt lat="42.87292" lon="-0.8396">
        <ele>1121</ele>
        <time>2021-06-18T20:02:50Z</time>
      </trkpt>
      <trkpt lat="42.87287" lon="-0.83933">
        <ele>1122</ele>
        <time>2021-06-18T20:02:55Z</time>
      </trkpt>
      <trkpt lat="42.87274" lon="-0.83895">
        <ele>1119</ele>
        <time>2021-06-18T20:03:02Z</time>
      </trkpt>
      <trkpt lat="42.87265" lon="-0.83837">
        <ele>1123</ele>
        <time>2021-06-18T20:03:12Z</time>
      </trkpt>
      <trkpt lat="42.87246" lon="-0.83759">
        <ele>1122</ele>
        <time>2021-06-18T20:03:26Z</time>
      </trkpt>
      <trkpt lat="42.87242" lon="-0.83712">
        <ele>1127</ele>
        <time>2021-06-18T20:03:35Z</time>
      </trkpt>
      <trkpt lat="42.87221" lon="-0.83663">
        <ele>1126</ele>
        <time>2021-06-18T20:03:44Z</time>
      </trkpt>
      <trkpt lat="42.87208" lon="-0.83591">
        <ele>1129</ele>
        <time>2021-06-18T20:03:57Z</time>
      </trkpt>
      <trkpt lat="42.87205" lon="-0.83533">
        <ele>1135</ele>
        <time>2021-06-18T20:04:07Z</time>
      </trkpt>
      <trkpt lat="42.87207" lon="-0.83481">
        <ele>1143</ele>
        <time>2021-06-18T20:04:16Z</time>
      </trkpt>
      <trkpt lat="42.87205" lon="-0.83469">
        <ele>1144</ele>
        <time>2021-06-18T20:04:18Z</time>
      </trkpt>
      <trkpt lat="42.87187" lon="-0.83434">
        <ele>1141</ele>
        <time>2021-06-18T20:04:25Z</time>
      </trkpt>
      <trkpt lat="42.87147" lon="-0.83339">
        <ele>1144</ele>
        <time>2021-06-18T20:04:44Z</time>
      </trkpt>
      <trkpt lat="42.87137" lon="-0.83307">
        <ele>1147</ele>
        <time>2021-06-18T20:04:50Z</time>
      </trkpt>
      <trkpt lat="42.87126" lon="-0.83243">
        <ele>1154</ele>
        <time>2021-06-18T20:05:01Z</time>
      </trkpt>
      <trkpt lat="42.87136" lon="-0.83082">
        <ele>1169</ele>
        <time>2021-06-18T20:05:29Z</time>
      </trkpt>
      <trkpt lat="42.87166" lon="-0.82994">
        <ele>1175</ele>
        <time>2021-06-18T20:05:46Z</time>
      </trkpt>
      <trkpt lat="42.87212" lon="-0.82898">
        <ele>1184</ele>
        <time>2021-06-18T20:06:05Z</time>
      </trkpt>
      <trkpt lat="42.8724" lon="-0.82861">
        <ele>1186</ele>
        <time>2021-06-18T20:06:14Z</time>
      </trkpt>
      <trkpt lat="42.87273" lon="-0.82834">
        <ele>1190</ele>
        <time>2021-06-18T20:06:23Z</time>
      </trkpt>
      <trkpt lat="42.87306" lon="-0.82802">
        <ele>1194</ele>
        <time>2021-06-18T20:06:33Z</time>
      </trkpt>
      <trkpt lat="42.87381" lon="-0.82702">
        <ele>1202</ele>
        <time>2021-06-18T20:06:57Z</time>
      </trkpt>
      <trkpt lat="42.87457" lon="-0.8262">
        <ele>1209</ele>
        <time>2021-06-18T20:07:20Z</time>
      </trkpt>
      <trkpt lat="42.87481" lon="-0.82587">
        <ele>1209</ele>
        <time>2021-06-18T20:07:28Z</time>
      </trkpt>
      <trkpt lat="42.87496" lon="-0.8256">
        <ele>1211</ele>
        <time>2021-06-18T20:07:34Z</time>
      </trkpt>
      <trkpt lat="42.87505" lon="-0.82538">
        <ele>1212</ele>
        <time>2021-06-18T20:07:38Z</time>
      </trkpt>
      <trkpt lat="42.8752" lon="-0.82516">
        <ele>1214</ele>
        <time>2021-06-18T20:07:43Z</time>
      </trkpt>
      <trkpt lat="42.87541" lon="-0.82514">
        <ele>1218</ele>
        <time>2021-06-18T20:07:48Z</time>
      </trkpt>
      <trkpt lat="42.87553" lon="-0.82507">
        <ele>1219</ele>
        <time>2021-06-18T20:07:51Z</time>
      </trkpt>
      <trkpt lat="42.87564" lon="-0.82496">
        <ele>1220</ele>
        <time>2021-06-18T20:07:54Z</time>
      </trkpt>
      <trkpt lat="42.87578" lon="-0.82471">
        <ele>1222</ele>
        <time>2021-06-18T20:08:00Z</time>
      </trkpt>
      <trkpt lat="42.87592" lon="-0.82425">
        <ele>1225</ele>
        <time>2021-06-18T20:08:08Z</time>
      </trkpt>
      <trkpt lat="42.87594" lon="-0.82399">
        <ele>1227</ele>
        <time>2021-06-18T20:08:13Z</time>
      </trkpt>
      <trkpt lat="42.87586" lon="-0.82377">
        <ele>1226</ele>
        <time>2021-06-18T20:08:17Z</time>
      </trkpt>
      <trkpt lat="42.87579" lon="-0.82371">
        <ele>1226</ele>
        <time>2021-06-18T20:08:19Z</time>
      </trkpt>
      <trkpt lat="42.8757" lon="-0.82368">
        <ele>1228</ele>
        <time>2021-06-18T20:08:21Z</time>
      </trkpt>
      <trkpt lat="42.87563" lon="-0.82369">
        <ele>1230</ele>
        <time>2021-06-18T20:08:22Z</time>
      </trkpt>
      <trkpt lat="42.87555" lon="-0.82373">
        <ele>1231</ele>
        <time>2021-06-18T20:08:24Z</time>
      </trkpt>
      <trkpt lat="42.87548" lon="-0.8238">
        <ele>1231</ele>
        <time>2021-06-18T20:08:26Z</time>
      </trkpt>
      <trkpt lat="42.87527" lon="-0.82409">
        <ele>1228</ele>
        <time>2021-06-18T20:08:33Z</time>
      </trkpt>
      <trkpt lat="42.87519" lon="-0.82416">
        <ele>1228</ele>
        <time>2021-06-18T20:08:36Z</time>
      </trkpt>
      <trkpt lat="42.87468" lon="-0.82439">
        <ele>1232</ele>
        <time>2021-06-18T20:08:48Z</time>
      </trkpt>
      <trkpt lat="42.87437" lon="-0.82465">
        <ele>1231</ele>
        <time>2021-06-18T20:08:57Z</time>
      </trkpt>
      <trkpt lat="42.87397" lon="-0.82472">
        <ele>1235</ele>
        <time>2021-06-18T20:09:06Z</time>
      </trkpt>
      <trkpt lat="42.8735" lon="-0.82473">
        <ele>1243</ele>
        <time>2021-06-18T20:09:17Z</time>
      </trkpt>
      <trkpt lat="42.87305" lon="-0.82493">
        <ele>1241</ele>
        <time>2021-06-18T20:09:28Z</time>
      </trkpt>
      <trkpt lat="42.87294" lon="-0.82494">
        <ele>1241</ele>
        <time>2021-06-18T20:09:31Z</time>
      </trkpt>
      <trkpt lat="42.87234" lon="-0.82485">
        <ele>1253</ele>
        <time>2021-06-18T20:09:45Z</time>
      </trkpt>
      <trkpt lat="42.87222" lon="-0.82487">
        <ele>1253</ele>
        <time>2021-06-18T20:09:48Z</time>
      </trkpt>
      <trkpt lat="42.87195" lon="-0.82502">
        <ele>1249</ele>
        <time>2021-06-18T20:09:54Z</time>
      </trkpt>
      <trkpt lat="42.87149" lon="-0.82497">
        <ele>1260</ele>
        <time>2021-06-18T20:10:05Z</time>
      </trkpt>
      <trkpt lat="42.8714" lon="-0.82499">
        <ele>1261</ele>
        <time>2021-06-18T20:10:07Z</time>
      </trkpt>
      <trkpt lat="42.87133" lon="-0.82503">
        <ele>1262</ele>
        <time>2021-06-18T20:10:09Z</time>
      </trkpt>
      <trkpt lat="42.87112" lon="-0.8254">
        <ele>1252</ele>
        <time>2021-06-18T20:10:17Z</time>
      </trkpt>
      <trkpt lat="42.87097" lon="-0.8256">
        <ele>1248</ele>
        <time>2021-06-18T20:10:22Z</time>
      </trkpt>
      <trkpt lat="42.8709" lon="-0.82564">
        <ele>1248</ele>
        <time>2021-06-18T20:10:24Z</time>
      </trkpt>
      <trkpt lat="42.87085" lon="-0.82564">
        <ele>1250</ele>
        <time>2021-06-18T20:10:25Z</time>
      </trkpt>
      <trkpt lat="42.87075" lon="-0.82559">
        <ele>1253</ele>
        <time>2021-06-18T20:10:27Z</time>
      </trkpt>
      <trkpt lat="42.87065" lon="-0.82546">
        <ele>1258</ele>
        <time>2021-06-18T20:10:31Z</time>
      </trkpt>
      <trkpt lat="42.87053" lon="-0.82536">
        <ele>1262</ele>
        <time>2021-06-18T20:10:34Z</time>
      </trkpt>
      <trkpt lat="42.87021" lon="-0.82535">
        <ele>1262</ele>
        <time>2021-06-18T20:10:41Z</time>
      </trkpt>
      <trkpt lat="42.87005" lon="-0.82531">
        <ele>1262</ele>
        <time>2021-06-18T20:10:45Z</time>
      </trkpt>
      <trkpt lat="42.86993" lon="-0.82519">
        <ele>1266</ele>
        <time>2021-06-18T20:10:49Z</time>
      </trkpt>
      <trkpt lat="42.8694" lon="-0.82453">
        <ele>1275</ele>
        <time>2021-06-18T20:11:06Z</time>
      </trkpt>
      <trkpt lat="42.86897" lon="-0.82412">
        <ele>1280</ele>
        <time>2021-06-18T20:11:18Z</time>
      </trkpt>
      <trkpt lat="42.86881" lon="-0.82406">
        <ele>1284</ele>
        <time>2021-06-18T20:11:22Z</time>
      </trkpt>
      <trkpt lat="42.86871" lon="-0.82409">
        <ele>1285</ele>
        <time>2021-06-18T20:11:24Z</time>
      </trkpt>
      <trkpt lat="42.86864" lon="-0.82414">
        <ele>1285</ele>
        <time>2021-06-18T20:11:26Z</time>
      </trkpt>
      <trkpt lat="42.86839" lon="-0.82459">
        <ele>1287</ele>
        <time>2021-06-18T20:11:36Z</time>
      </trkpt>
      <trkpt lat="42.86833" lon="-0.8248">
        <ele>1288</ele>
        <time>2021-06-18T20:11:39Z</time>
      </trkpt>
      <trkpt lat="42.86829" lon="-0.82514">
        <ele>1287</ele>
        <time>2021-06-18T20:11:45Z</time>
      </trkpt>
      <trkpt lat="42.86821" lon="-0.82539">
        <ele>1287</ele>
        <time>2021-06-18T20:11:50Z</time>
      </trkpt>
      <trkpt lat="42.86809" lon="-0.82551">
        <ele>1289</ele>
        <time>2021-06-18T20:11:53Z</time>
      </trkpt>
      <trkpt lat="42.86775" lon="-0.82574">
        <ele>1294</ele>
        <time>2021-06-18T20:12:02Z</time>
      </trkpt>
      <trkpt lat="42.86766" lon="-0.82587">
        <ele>1294</ele>
        <time>2021-06-18T20:12:05Z</time>
      </trkpt>
      <trkpt lat="42.86758" lon="-0.82608">
        <ele>1295</ele>
        <time>2021-06-18T20:12:09Z</time>
      </trkpt>
      <trkpt lat="42.86752" lon="-0.82636">
        <ele>1294</ele>
        <time>2021-06-18T20:12:14Z</time>
      </trkpt>
      <trkpt lat="42.86742" lon="-0.82658">
        <ele>1294</ele>
        <time>2021-06-18T20:12:19Z</time>
      </trkpt>
      <trkpt lat="42.86735" lon="-0.82665">
        <ele>1294</ele>
        <time>2021-06-18T20:12:21Z</time>
      </trkpt>
      <trkpt lat="42.86728" lon="-0.82671">
        <ele>1294</ele>
        <time>2021-06-18T20:12:23Z</time>
      </trkpt>
      <trkpt lat="42.86619" lon="-0.82701">
        <ele>1295</ele>
        <time>2021-06-18T20:12:49Z</time>
      </trkpt>
      <trkpt lat="42.86599" lon="-0.82702">
        <ele>1294</ele>
        <time>2021-06-18T20:12:53Z</time>
      </trkpt>
      <trkpt lat="42.86588" lon="-0.82694">
        <ele>1292</ele>
        <time>2021-06-18T20:12:56Z</time>
      </trkpt>
      <trkpt lat="42.86581" lon="-0.82679">
        <ele>1289</ele>
        <time>2021-06-18T20:12:59Z</time>
      </trkpt>
      <trkpt lat="42.86582" lon="-0.82667">
        <ele>1287</ele>
        <time>2021-06-18T20:13:01Z</time>
      </trkpt>
      <trkpt lat="42.86601" lon="-0.82614">
        <ele>1287</ele>
        <time>2021-06-18T20:13:12Z</time>
      </trkpt>
      <trkpt lat="42.86603" lon="-0.82606">
        <ele>1287</ele>
        <time>2021-06-18T20:13:13Z</time>
      </trkpt>
      <trkpt lat="42.86602" lon="-0.82596">
        <ele>1286</ele>
        <time>2021-06-18T20:13:15Z</time>
      </trkpt>
      <trkpt lat="42.86595" lon="-0.82582">
        <ele>1283</ele>
        <time>2021-06-18T20:13:18Z</time>
      </trkpt>
      <trkpt lat="42.86589" lon="-0.82577">
        <ele>1282</ele>
        <time>2021-06-18T20:13:19Z</time>
      </trkpt>
      <trkpt lat="42.86569" lon="-0.82568">
        <ele>1278</ele>
        <time>2021-06-18T20:13:24Z</time>
      </trkpt>
      <trkpt lat="42.86562" lon="-0.82551">
        <ele>1276</ele>
        <time>2021-06-18T20:13:28Z</time>
      </trkpt>
      <trkpt lat="42.86553" lon="-0.82462">
        <ele>1275</ele>
        <time>2021-06-18T20:13:43Z</time>
      </trkpt>
      <trkpt lat="42.86512" lon="-0.82345">
        <ele>1266</ele>
        <time>2021-06-18T20:14:05Z</time>
      </trkpt>
      <trkpt lat="42.86493" lon="-0.82264">
        <ele>1263</ele>
        <time>2021-06-18T20:14:20Z</time>
      </trkpt>
      <trkpt lat="42.86471" lon="-0.82203">
        <ele>1255</ele>
        <time>2021-06-18T20:14:31Z</time>
      </trkpt>
      <trkpt lat="42.86468" lon="-0.82178">
        <ele>1254</ele>
        <time>2021-06-18T20:14:36Z</time>
      </trkpt>
      <trkpt lat="42.86479" lon="-0.82068">
        <ele>1248</ele>
        <time>2021-06-18T20:14:55Z</time>
      </trkpt>
      <trkpt lat="42.86489" lon="-0.8201">
        <ele>1244</ele>
        <time>2021-06-18T20:15:05Z</time>
      </trkpt>
      <trkpt lat="42.86486" lon="-0.81944">
        <ele>1237</ele>
        <time>2021-06-18T20:15:16Z</time>
      </trkpt>
      <trkpt lat="42.86487" lon="-0.81886">
        <ele>1232</ele>
        <time>2021-06-18T20:15:26Z</time>
      </trkpt>
      <trkpt lat="42.86492" lon="-0.8179">
        <ele>1226</ele>
        <time>2021-06-18T20:15:43Z</time>
      </trkpt>
      <trkpt lat="42.86502" lon="-0.8173">
        <ele>1225</ele>
        <time>2021-06-18T20:15:53Z</time>
      </trkpt>
      <trkpt lat="42.86512" lon="-0.81697">
        <ele>1225</ele>
        <time>2021-06-18T20:15:59Z</time>
      </trkpt>
      <trkpt lat="42.86512" lon="-0.81687">
        <ele>1224</ele>
        <time>2021-06-18T20:16:01Z</time>
      </trkpt>
      <trkpt lat="42.86506" lon="-0.81674">
        <ele>1220</ele>
        <time>2021-06-18T20:16:04Z</time>
      </trkpt>
      <trkpt lat="42.86502" lon="-0.81672">
        <ele>1218</ele>
        <time>2021-06-18T20:16:05Z</time>
      </trkpt>
      <trkpt lat="42.86496" lon="-0.81673">
        <ele>1217</ele>
        <time>2021-06-18T20:16:06Z</time>
      </trkpt>
      <trkpt lat="42.8649" lon="-0.81677">
        <ele>1216</ele>
        <time>2021-06-18T20:16:08Z</time>
      </trkpt>
      <trkpt lat="42.8644" lon="-0.81763">
        <ele>1212</ele>
        <time>2021-06-18T20:16:26Z</time>
      </trkpt>
      <trkpt lat="42.86422" lon="-0.81788">
        <ele>1208</ele>
        <time>2021-06-18T20:16:32Z</time>
      </trkpt>
      <trkpt lat="42.86421" lon="-0.81775">
        <ele>1207</ele>
        <time>2021-06-18T20:16:35Z</time>
      </trkpt>
      <trkpt lat="42.86473" lon="-0.81658">
        <ele>1210</ele>
        <time>2021-06-18T20:16:58Z</time>
      </trkpt>
      <trkpt lat="42.86484" lon="-0.81622">
        <ele>1210</ele>
        <time>2021-06-18T20:17:05Z</time>
      </trkpt>
      <trkpt lat="42.86506" lon="-0.81427">
        <ele>1202</ele>
        <time>2021-06-18T20:17:38Z</time>
      </trkpt>
      <trkpt lat="42.86503" lon="-0.814">
        <ele>1203</ele>
        <time>2021-06-18T20:17:43Z</time>
      </trkpt>
      <trkpt lat="42.86499" lon="-0.81387">
        <ele>1203</ele>
        <time>2021-06-18T20:17:45Z</time>
      </trkpt>
      <trkpt lat="42.86476" lon="-0.81342">
        <ele>1203</ele>
        <time>2021-06-18T20:17:55Z</time>
      </trkpt>
      <trkpt lat="42.86464" lon="-0.81306">
        <ele>1204</ele>
        <time>2021-06-18T20:18:02Z</time>
      </trkpt>
      <trkpt lat="42.86459" lon="-0.81265">
        <ele>1206</ele>
        <time>2021-06-18T20:18:09Z</time>
      </trkpt>
      <trkpt lat="42.86457" lon="-0.81114">
        <ele>1212</ele>
        <time>2021-06-18T20:18:35Z</time>
      </trkpt>
      <trkpt lat="42.86449" lon="-0.80975">
        <ele>1220</ele>
        <time>2021-06-18T20:18:58Z</time>
      </trkpt>
      <trkpt lat="42.86422" lon="-0.80895">
        <ele>1219</ele>
        <time>2021-06-18T20:19:14Z</time>
      </trkpt>
      <trkpt lat="42.86409" lon="-0.8087">
        <ele>1220</ele>
        <time>2021-06-18T20:19:19Z</time>
      </trkpt>
      <trkpt lat="42.86404" lon="-0.80854">
        <ele>1221</ele>
        <time>2021-06-18T20:19:22Z</time>
      </trkpt>
      <trkpt lat="42.86403" lon="-0.80838">
        <ele>1222</ele>
        <time>2021-06-18T20:19:25Z</time>
      </trkpt>
      <trkpt lat="42.86417" lon="-0.80712">
        <ele>1225</ele>
        <time>2021-06-18T20:19:46Z</time>
      </trkpt>
      <trkpt lat="42.86384" lon="-0.80524">
        <ele>1235</ele>
        <time>2021-06-18T20:20:19Z</time>
      </trkpt>
      <trkpt lat="42.86379" lon="-0.80507">
        <ele>1236</ele>
        <time>2021-06-18T20:20:23Z</time>
      </trkpt>
      <trkpt lat="42.8637" lon="-0.80488">
        <ele>1237</ele>
        <time>2021-06-18T20:20:26Z</time>
      </trkpt>
      <trkpt lat="42.86276" lon="-0.80337">
        <ele>1237</ele>
        <time>2021-06-18T20:21:00Z</time>
      </trkpt>
      <trkpt lat="42.86269" lon="-0.8032">
        <ele>1236</ele>
        <time>2021-06-18T20:21:04Z</time>
      </trkpt>
      <trkpt lat="42.86264" lon="-0.80297">
        <ele>1236</ele>
        <time>2021-06-18T20:21:08Z</time>
      </trkpt>
      <trkpt lat="42.86231" lon="-0.80196">
        <ele>1239</ele>
        <time>2021-06-18T20:21:27Z</time>
      </trkpt>
      <trkpt lat="42.86218" lon="-0.80145">
        <ele>1242</ele>
        <time>2021-06-18T20:21:36Z</time>
      </trkpt>
      <trkpt lat="42.8615" lon="-0.79936">
        <ele>1249</ele>
        <time>2021-06-18T20:22:15Z</time>
      </trkpt>
      <trkpt lat="42.86132" lon="-0.7991">
        <ele>1250</ele>
        <time>2021-06-18T20:22:21Z</time>
      </trkpt>
      <trkpt lat="42.86103" lon="-0.79876">
        <ele>1250</ele>
        <time>2021-06-18T20:22:30Z</time>
      </trkpt>
      <trkpt lat="42.86092" lon="-0.79851">
        <ele>1252</ele>
        <time>2021-06-18T20:22:35Z</time>
      </trkpt>
      <trkpt lat="42.86084" lon="-0.79841">
        <ele>1252</ele>
        <time>2021-06-18T20:22:38Z</time>
      </trkpt>
      <trkpt lat="42.86055" lon="-0.79824">
        <ele>1252</ele>
        <time>2021-06-18T20:22:45Z</time>
      </trkpt>
      <trkpt lat="42.85958" lon="-0.79785">
        <ele>1250</ele>
        <time>2021-06-18T20:23:09Z</time>
      </trkpt>
      <trkpt lat="42.85935" lon="-0.79772">
        <ele>1250</ele>
        <time>2021-06-18T20:23:14Z</time>
      </trkpt>
      <trkpt lat="42.85894" lon="-0.79732">
        <ele>1253</ele>
        <time>2021-06-18T20:23:26Z</time>
      </trkpt>
      <trkpt lat="42.85878" lon="-0.79704">
        <ele>1257</ele>
        <time>2021-06-18T20:23:32Z</time>
      </trkpt>
      <trkpt lat="42.85851" lon="-0.79646">
        <ele>1258</ele>
        <time>2021-06-18T20:23:44Z</time>
      </trkpt>
      <trkpt lat="42.85838" lon="-0.79612">
        <ele>1257</ele>
        <time>2021-06-18T20:23:51Z</time>
      </trkpt>
      <trkpt lat="42.8583" lon="-0.79574">
        <ele>1259</ele>
        <time>2021-06-18T20:23:57Z</time>
      </trkpt>
      <trkpt lat="42.85823" lon="-0.79519">
        <ele>1264</ele>
        <time>2021-06-18T20:24:07Z</time>
      </trkpt>
      <trkpt lat="42.85827" lon="-0.79468">
        <ele>1268</ele>
        <time>2021-06-18T20:24:16Z</time>
      </trkpt>
      <trkpt lat="42.85824" lon="-0.79453">
        <ele>1269</ele>
        <time>2021-06-18T20:24:18Z</time>
      </trkpt>
      <trkpt lat="42.85796" lon="-0.79415">
        <ele>1271</ele>
        <time>2021-06-18T20:24:28Z</time>
      </trkpt>
      <trkpt lat="42.85788" lon="-0.79394">
        <ele>1273</ele>
        <time>2021-06-18T20:24:32Z</time>
      </trkpt>
      <trkpt lat="42.85771" lon="-0.7929">
        <ele>1285</ele>
        <time>2021-06-18T20:24:50Z</time>
      </trkpt>
      <trkpt lat="42.85767" lon="-0.79275">
        <ele>1287</ele>
        <time>2021-06-18T20:24:53Z</time>
      </trkpt>
      <trkpt lat="42.85759" lon="-0.79258">
        <ele>1287</ele>
        <time>2021-06-18T20:24:56Z</time>
      </trkpt>
      <trkpt lat="42.85734" lon="-0.79233">
        <ele>1290</ele>
        <time>2021-06-18T20:25:03Z</time>
      </trkpt>
      <trkpt lat="42.85718" lon="-0.79228">
        <ele>1290</ele>
        <time>2021-06-18T20:25:07Z</time>
      </trkpt>
      <trkpt lat="42.85675" lon="-0.79234">
        <ele>1281</ele>
        <time>2021-06-18T20:25:17Z</time>
      </trkpt>
      <trkpt lat="42.85655" lon="-0.79226">
        <ele>1283</ele>
        <time>2021-06-18T20:25:22Z</time>
      </trkpt>
      <trkpt lat="42.85632" lon="-0.79195">
        <ele>1288</ele>
        <time>2021-06-18T20:25:30Z</time>
      </trkpt>
      <trkpt lat="42.85625" lon="-0.79182">
        <ele>1289</ele>
        <time>2021-06-18T20:25:32Z</time>
      </trkpt>
      <trkpt lat="42.85619" lon="-0.79168">
        <ele>1290</ele>
        <time>2021-06-18T20:25:35Z</time>
      </trkpt>
      <trkpt lat="42.85614" lon="-0.79135">
        <ele>1294</ele>
        <time>2021-06-18T20:25:41Z</time>
      </trkpt>
      <trkpt lat="42.85584" lon="-0.7907">
        <ele>1291</ele>
        <time>2021-06-18T20:25:54Z</time>
      </trkpt>
      <trkpt lat="42.85549" lon="-0.79019">
        <ele>1295</ele>
        <time>2021-06-18T20:26:06Z</time>
      </trkpt>
      <trkpt lat="42.85496" lon="-0.78916">
        <ele>1290</ele>
        <time>2021-06-18T20:26:28Z</time>
      </trkpt>
      <trkpt lat="42.85449" lon="-0.78857">
        <ele>1292</ele>
        <time>2021-06-18T20:26:43Z</time>
      </trkpt>
      <trkpt lat="42.85446" lon="-0.78861">
        <ele>1291</ele>
        <time>2021-06-18T20:26:44Z</time>
      </trkpt>
      <trkpt lat="42.8546" lon="-0.78828">
        <ele>1297</ele>
        <time>2021-06-18T20:26:50Z</time>
      </trkpt>
      <trkpt lat="42.85455" lon="-0.78727">
        <ele>1304</ele>
        <time>2021-06-18T20:27:07Z</time>
      </trkpt>
      <trkpt lat="42.85476" lon="-0.78665">
        <ele>1316</ele>
        <time>2021-06-18T20:27:19Z</time>
      </trkpt>
      <trkpt lat="42.85478" lon="-0.78649">
        <ele>1317</ele>
        <time>2021-06-18T20:27:22Z</time>
      </trkpt>
      <trkpt lat="42.8547" lon="-0.78645">
        <ele>1315</ele>
        <time>2021-06-18T20:27:24Z</time>
      </trkpt>
      <trkpt lat="42.85486" lon="-0.78618">
        <ele>1321</ele>
        <time>2021-06-18T20:27:30Z</time>
      </trkpt>
      <trkpt lat="42.85488" lon="-0.78588">
        <ele>1322</ele>
        <time>2021-06-18T20:27:35Z</time>
      </trkpt>
      <trkpt lat="42.85498" lon="-0.78557">
        <ele>1328</ele>
        <time>2021-06-18T20:27:41Z</time>
      </trkpt>
      <trkpt lat="42.85493" lon="-0.78536">
        <ele>1329</ele>
        <time>2021-06-18T20:27:45Z</time>
      </trkpt>
      <trkpt lat="42.85506" lon="-0.78512">
        <ele>1338</ele>
        <time>2021-06-18T20:27:50Z</time>
      </trkpt>
      <trkpt lat="42.8549" lon="-0.78498">
        <ele>1332</ele>
        <time>2021-06-18T20:27:54Z</time>
      </trkpt>
      <trkpt lat="42.85487" lon="-0.78482">
        <ele>1333</ele>
        <time>2021-06-18T20:27:57Z</time>
      </trkpt>
      <trkpt lat="42.85492" lon="-0.7846">
        <ele>1338</ele>
        <time>2021-06-18T20:28:01Z</time>
      </trkpt>
      <trkpt lat="42.85476" lon="-0.78395">
        <ele>1336</ele>
        <time>2021-06-18T20:28:13Z</time>
      </trkpt>
      <trkpt lat="42.85479" lon="-0.78378">
        <ele>1339</ele>
        <time>2021-06-18T20:28:16Z</time>
      </trkpt>
      <trkpt lat="42.85474" lon="-0.78347">
        <ele>1338</ele>
        <time>2021-06-18T20:28:21Z</time>
      </trkpt>
      <trkpt lat="42.85503" lon="-0.7828">
        <ele>1353</ele>
        <time>2021-06-18T20:28:34Z</time>
      </trkpt>
      <trkpt lat="42.85497" lon="-0.78255">
        <ele>1351</ele>
        <time>2021-06-18T20:28:39Z</time>
      </trkpt>
      <trkpt lat="42.85502" lon="-0.78213">
        <ele>1357</ele>
        <time>2021-06-18T20:28:46Z</time>
      </trkpt>
      <trkpt lat="42.85521" lon="-0.78146">
        <ele>1377</ele>
        <time>2021-06-18T20:28:58Z</time>
      </trkpt>
      <trkpt lat="42.85499" lon="-0.78082">
        <ele>1377</ele>
        <time>2021-06-18T20:29:11Z</time>
      </trkpt>
      <trkpt lat="42.85501" lon="-0.77988">
        <ele>1395</ele>
        <time>2021-06-18T20:29:27Z</time>
      </trkpt>
      <trkpt lat="42.85494" lon="-0.77912">
        <ele>1408</ele>
        <time>2021-06-18T20:29:40Z</time>
      </trkpt>
      <trkpt lat="42.85502" lon="-0.77901">
        <ele>1409</ele>
        <time>2021-06-18T20:29:42Z</time>
      </trkpt>
      <trkpt lat="42.85511" lon="-0.779">
        <ele>1412</ele>
        <time>2021-06-18T20:29:45Z</time>
      </trkpt>
      <trkpt lat="42.8553" lon="-0.77914">
        <ele>1419</ele>
        <time>2021-06-18T20:29:50Z</time>
      </trkpt>
      <trkpt lat="42.85537" lon="-0.77933">
        <ele>1418</ele>
        <time>2021-06-18T20:29:53Z</time>
      </trkpt>
      <trkpt lat="42.85552" lon="-0.77934">
        <ele>1423</ele>
        <time>2021-06-18T20:29:57Z</time>
      </trkpt>
      <trkpt lat="42.85633" lon="-0.77799">
        <ele>1461</ele>
        <time>2021-06-18T20:30:27Z</time>
      </trkpt>
      <trkpt lat="42.85644" lon="-0.77788">
        <ele>1466</ele>
        <time>2021-06-18T20:30:30Z</time>
      </trkpt>
      <trkpt lat="42.85668" lon="-0.77702">
        <ele>1471</ele>
        <time>2021-06-18T20:30:46Z</time>
      </trkpt>
      <trkpt lat="42.85704" lon="-0.77645">
        <ele>1490</ele>
        <time>2021-06-18T20:30:58Z</time>
      </trkpt>
      <trkpt lat="42.85707" lon="-0.77621">
        <ele>1490</ele>
        <time>2021-06-18T20:31:03Z</time>
      </trkpt>
      <trkpt lat="42.85728" lon="-0.7754">
        <ele>1496</ele>
        <time>2021-06-18T20:31:17Z</time>
      </trkpt>
      <trkpt lat="42.85739" lon="-0.77443">
        <ele>1493</ele>
        <time>2021-06-18T20:31:34Z</time>
      </trkpt>
      <trkpt lat="42.85753" lon="-0.77411">
        <ele>1497</ele>
        <time>2021-06-18T20:31:40Z</time>
      </trkpt>
      <trkpt lat="42.85759" lon="-0.77373">
        <ele>1494</ele>
        <time>2021-06-18T20:31:47Z</time>
      </trkpt>
      <trkpt lat="42.85768" lon="-0.77363">
        <ele>1497</ele>
        <time>2021-06-18T20:31:50Z</time>
      </trkpt>
      <trkpt lat="42.85805" lon="-0.77285">
        <ele>1500</ele>
        <time>2021-06-18T20:32:06Z</time>
      </trkpt>
      <trkpt lat="42.85808" lon="-0.77264">
        <ele>1497</ele>
        <time>2021-06-18T20:32:09Z</time>
      </trkpt>
      <trkpt lat="42.858" lon="-0.77228">
        <ele>1490</ele>
        <time>2021-06-18T20:32:16Z</time>
      </trkpt>
      <trkpt lat="42.85778" lon="-0.77194">
        <ele>1478</ele>
        <time>2021-06-18T20:32:24Z</time>
      </trkpt>
      <trkpt lat="42.85771" lon="-0.77129">
        <ele>1475</ele>
        <time>2021-06-18T20:32:35Z</time>
      </trkpt>
      <trkpt lat="42.85777" lon="-0.77113">
        <ele>1478</ele>
        <time>2021-06-18T20:32:38Z</time>
      </trkpt>
      <trkpt lat="42.85776" lon="-0.7708">
        <ele>1479</ele>
        <time>2021-06-18T20:32:44Z</time>
      </trkpt>
      <trkpt lat="42.85779" lon="-0.77066">
        <ele>1481</ele>
        <time>2021-06-18T20:32:46Z</time>
      </trkpt>
      <trkpt lat="42.8577" lon="-0.77012">
        <ele>1481</ele>
        <time>2021-06-18T20:32:56Z</time>
      </trkpt>
      <trkpt lat="42.85772" lon="-0.76993">
        <ele>1483</ele>
        <time>2021-06-18T20:32:59Z</time>
      </trkpt>
      <trkpt lat="42.85763" lon="-0.76987">
        <ele>1480</ele>
        <time>2021-06-18T20:33:01Z</time>
      </trkpt>
      <trkpt lat="42.85752" lon="-0.76965">
        <ele>1476</ele>
        <time>2021-06-18T20:33:06Z</time>
      </trkpt>
      <trkpt lat="42.85744" lon="-0.7694">
        <ele>1476</ele>
        <time>2021-06-18T20:33:10Z</time>
      </trkpt>
      <trkpt lat="42.85742" lon="-0.76911">
        <ele>1477</ele>
        <time>2021-06-18T20:33:15Z</time>
      </trkpt>
      <trkpt lat="42.85728" lon="-0.76867">
        <ele>1476</ele>
        <time>2021-06-18T20:33:24Z</time>
      </trkpt>
      <trkpt lat="42.85737" lon="-0.76831">
        <ele>1479</ele>
        <time>2021-06-18T20:33:30Z</time>
      </trkpt>
      <trkpt lat="42.85747" lon="-0.76824">
        <ele>1481</ele>
        <time>2021-06-18T20:33:33Z</time>
      </trkpt>
      <trkpt lat="42.85755" lon="-0.76803">
        <ele>1485</ele>
        <time>2021-06-18T20:33:37Z</time>
      </trkpt>
      <trkpt lat="42.85748" lon="-0.76744">
        <ele>1487</ele>
        <time>2021-06-18T20:33:47Z</time>
      </trkpt>
      <trkpt lat="42.8575" lon="-0.76721">
        <ele>1489</ele>
        <time>2021-06-18T20:33:51Z</time>
      </trkpt>
      <trkpt lat="42.85765" lon="-0.76721">
        <ele>1497</ele>
        <time>2021-06-18T20:33:55Z</time>
      </trkpt>
      <trkpt lat="42.85772" lon="-0.76712">
        <ele>1502</ele>
        <time>2021-06-18T20:33:57Z</time>
      </trkpt>
      <trkpt lat="42.85767" lon="-0.76703">
        <ele>1500</ele>
        <time>2021-06-18T20:33:59Z</time>
      </trkpt>
      <trkpt lat="42.85773" lon="-0.76693">
        <ele>1504</ele>
        <time>2021-06-18T20:34:01Z</time>
      </trkpt>
      <trkpt lat="42.85767" lon="-0.76685">
        <ele>1502</ele>
        <time>2021-06-18T20:34:03Z</time>
      </trkpt>
      <trkpt lat="42.85775" lon="-0.7666">
        <ele>1509</ele>
        <time>2021-06-18T20:34:08Z</time>
      </trkpt>
      <trkpt lat="42.8578" lon="-0.76584">
        <ele>1521</ele>
        <time>2021-06-18T20:34:21Z</time>
      </trkpt>
      <trkpt lat="42.85777" lon="-0.7655">
        <ele>1526</ele>
        <time>2021-06-18T20:34:26Z</time>
      </trkpt>
      <trkpt lat="42.85781" lon="-0.7654">
        <ele>1529</ele>
        <time>2021-06-18T20:34:28Z</time>
      </trkpt>
      <trkpt lat="42.85775" lon="-0.76518">
        <ele>1531</ele>
        <time>2021-06-18T20:34:32Z</time>
      </trkpt>
      <trkpt lat="42.85793" lon="-0.76464">
        <ele>1546</ele>
        <time>2021-06-18T20:34:43Z</time>
      </trkpt>
      <trkpt lat="42.85785" lon="-0.76432">
        <ele>1550</ele>
        <time>2021-06-18T20:34:48Z</time>
      </trkpt>
      <trkpt lat="42.85794" lon="-0.76414">
        <ele>1555</ele>
        <time>2021-06-18T20:34:52Z</time>
      </trkpt>
      <trkpt lat="42.85797" lon="-0.76374">
        <ele>1556</ele>
        <time>2021-06-18T20:34:59Z</time>
      </trkpt>
      <trkpt lat="42.85806" lon="-0.76359">
        <ele>1557</ele>
        <time>2021-06-18T20:35:02Z</time>
      </trkpt>
      <trkpt lat="42.85822" lon="-0.76296">
        <ele>1557</ele>
        <time>2021-06-18T20:35:14Z</time>
      </trkpt>
      <trkpt lat="42.85837" lon="-0.76273">
        <ele>1557</ele>
        <time>2021-06-18T20:35:19Z</time>
      </trkpt>
      <trkpt lat="42.85847" lon="-0.76231">
        <ele>1562</ele>
        <time>2021-06-18T20:35:27Z</time>
      </trkpt>
      <trkpt lat="42.85848" lon="-0.7619">
        <ele>1566</ele>
        <time>2021-06-18T20:35:34Z</time>
      </trkpt>
      <trkpt lat="42.85856" lon="-0.76152">
        <ele>1575</ele>
        <time>2021-06-18T20:35:40Z</time>
      </trkpt>
      <trkpt lat="42.85851" lon="-0.76121">
        <ele>1575</ele>
        <time>2021-06-18T20:35:46Z</time>
      </trkpt>
      <trkpt lat="42.85839" lon="-0.76097">
        <ele>1571</ele>
        <time>2021-06-18T20:35:51Z</time>
      </trkpt>
      <trkpt lat="42.85843" lon="-0.76084">
        <ele>1575</ele>
        <time>2021-06-18T20:35:53Z</time>
      </trkpt>
      <trkpt lat="42.85833" lon="-0.76">
        <ele>1579</ele>
        <time>2021-06-18T20:36:08Z</time>
      </trkpt>
      <trkpt lat="42.85821" lon="-0.75987">
        <ele>1582</ele>
        <time>2021-06-18T20:36:11Z</time>
      </trkpt>
      <trkpt lat="42.85815" lon="-0.75988">
        <ele>1582</ele>
        <time>2021-06-18T20:36:13Z</time>
      </trkpt>
      <trkpt lat="42.8581" lon="-0.75938">
        <ele>1588</ele>
        <time>2021-06-18T20:36:21Z</time>
      </trkpt>
      <trkpt lat="42.85815" lon="-0.75898">
        <ele>1594</ele>
        <time>2021-06-18T20:36:28Z</time>
      </trkpt>
      <trkpt lat="42.85847" lon="-0.75764">
        <ele>1624</ele>
        <time>2021-06-18T20:36:52Z</time>
      </trkpt>
      <trkpt lat="42.85847" lon="-0.75731">
        <ele>1630</ele>
        <time>2021-06-18T20:36:58Z</time>
      </trkpt>
      <trkpt lat="42.85839" lon="-0.7565">
        <ele>1639</ele>
        <time>2021-06-18T20:37:12Z</time>
      </trkpt>
      <trkpt lat="42.85844" lon="-0.75614">
        <ele>1647</ele>
        <time>2021-06-18T20:37:18Z</time>
      </trkpt>
      <trkpt lat="42.85842" lon="-0.75576">
        <ele>1652</ele>
        <time>2021-06-18T20:37:25Z</time>
      </trkpt>
      <trkpt lat="42.85859" lon="-0.75518">
        <ele>1669</ele>
        <time>2021-06-18T20:37:36Z</time>
      </trkpt>
      <trkpt lat="42.85869" lon="-0.75463">
        <ele>1681</ele>
        <time>2021-06-18T20:37:45Z</time>
      </trkpt>
      <trkpt lat="42.85848" lon="-0.7542">
        <ele>1682</ele>
        <time>2021-06-18T20:37:54Z</time>
      </trkpt>
      <trkpt lat="42.85873" lon="-0.75371">
        <ele>1694</ele>
        <time>2021-06-18T20:38:04Z</time>
      </trkpt>
      <trkpt lat="42.85882" lon="-0.75339">
        <ele>1699</ele>
        <time>2021-06-18T20:38:10Z</time>
      </trkpt>
      <trkpt lat="42.859" lon="-0.75302">
        <ele>1703</ele>
        <time>2021-06-18T20:38:18Z</time>
      </trkpt>
      <trkpt lat="42.85916" lon="-0.75245">
        <ele>1707</ele>
        <time>2021-06-18T20:38:28Z</time>
      </trkpt>
      <trkpt lat="42.85917" lon="-0.75141">
        <ele>1720</ele>
        <time>2021-06-18T20:38:46Z</time>
      </trkpt>
      <trkpt lat="42.85928" lon="-0.75068">
        <ele>1733</ele>
        <time>2021-06-18T20:38:59Z</time>
      </trkpt>
      <trkpt lat="42.85924" lon="-0.75033">
        <ele>1739</ele>
        <time>2021-06-18T20:39:05Z</time>
      </trkpt>
      <trkpt lat="42.85909" lon="-0.75009">
        <ele>1744</ele>
        <time>2021-06-18T20:39:10Z</time>
      </trkpt>
      <trkpt lat="42.859" lon="-0.74983">
        <ele>1750</ele>
        <time>2021-06-18T20:39:15Z</time>
      </trkpt>
      <trkpt lat="42.85897" lon="-0.74958">
        <ele>1756</ele>
        <time>2021-06-18T20:39:20Z</time>
      </trkpt>
      <trkpt lat="42.85888" lon="-0.74943">
        <ele>1759</ele>
        <time>2021-06-18T20:39:23Z</time>
      </trkpt>
      <trkpt lat="42.85888" lon="-0.74918">
        <ele>1764</ele>
        <time>2021-06-18T20:39:27Z</time>
      </trkpt>
      <trkpt lat="42.85877" lon="-0.74893">
        <ele>1768</ele>
        <time>2021-06-18T20:39:32Z</time>
      </trkpt>
      <trkpt lat="42.85879" lon="-0.74868">
        <ele>1772</ele>
        <time>2021-06-18T20:39:36Z</time>
      </trkpt>
      <trkpt lat="42.85871" lon="-0.74865">
        <ele>1772</ele>
        <time>2021-06-18T20:39:38Z</time>
      </trkpt>
      <trkpt lat="42.85863" lon="-0.74843">
        <ele>1774</ele>
        <time>2021-06-18T20:39:43Z</time>
      </trkpt>
      <trkpt lat="42.85866" lon="-0.74809">
        <ele>1778</ele>
        <time>2021-06-18T20:39:48Z</time>
      </trkpt>
      <trkpt lat="42.85863" lon="-0.7478">
        <ele>1779</ele>
        <time>2021-06-18T20:39:53Z</time>
      </trkpt>
      <trkpt lat="42.8587" lon="-0.74758">
        <ele>1783</ele>
        <time>2021-06-18T20:39:58Z</time>
      </trkpt>
      <trkpt lat="42.85864" lon="-0.74699">
        <ele>1786</ele>
        <time>2021-06-18T20:40:08Z</time>
      </trkpt>
      <trkpt lat="42.85868" lon="-0.74678">
        <ele>1789</ele>
        <time>2021-06-18T20:40:11Z</time>
      </trkpt>
      <trkpt lat="42.85845" lon="-0.74627">
        <ele>1782</ele>
        <time>2021-06-18T20:40:22Z</time>
      </trkpt>
      <trkpt lat="42.85834" lon="-0.74587">
        <ele>1778</ele>
        <time>2021-06-18T20:40:29Z</time>
      </trkpt>
      <trkpt lat="42.85834" lon="-0.74569">
        <ele>1781</ele>
        <time>2021-06-18T20:40:32Z</time>
      </trkpt>
      <trkpt lat="42.85839" lon="-0.74528">
        <ele>1789</ele>
        <time>2021-06-18T20:40:39Z</time>
      </trkpt>
      <trkpt lat="42.85845" lon="-0.74523">
        <ele>1792</ele>
        <time>2021-06-18T20:40:41Z</time>
      </trkpt>
      <trkpt lat="42.85844" lon="-0.74513">
        <ele>1793</ele>
        <time>2021-06-18T20:40:43Z</time>
      </trkpt>
      <trkpt lat="42.85863" lon="-0.74433">
        <ele>1808</ele>
        <time>2021-06-18T20:40:57Z</time>
      </trkpt>
      <trkpt lat="42.85876" lon="-0.74414">
        <ele>1815</ele>
        <time>2021-06-18T20:41:01Z</time>
      </trkpt>
      <trkpt lat="42.85894" lon="-0.74358">
        <ele>1826</ele>
        <time>2021-06-18T20:41:12Z</time>
      </trkpt>
      <trkpt lat="42.85894" lon="-0.74271">
        <ele>1840</ele>
        <time>2021-06-18T20:41:27Z</time>
      </trkpt>
      <trkpt lat="42.85899" lon="-0.74266">
        <ele>1842</ele>
        <time>2021-06-18T20:41:28Z</time>
      </trkpt>
      <trkpt lat="42.85901" lon="-0.74249">
        <ele>1846</ele>
        <time>2021-06-18T20:41:31Z</time>
      </trkpt>
      <trkpt lat="42.8592" lon="-0.74218">
        <ele>1860</ele>
        <time>2021-06-18T20:41:38Z</time>
      </trkpt>
      <trkpt lat="42.85915" lon="-0.74167">
        <ele>1872</ele>
        <time>2021-06-18T20:41:47Z</time>
      </trkpt>
      <trkpt lat="42.85927" lon="-0.74073">
        <ele>1894</ele>
        <time>2021-06-18T20:42:03Z</time>
      </trkpt>
      <trkpt lat="42.85936" lon="-0.74076">
        <ele>1895</ele>
        <time>2021-06-18T20:42:05Z</time>
      </trkpt>
      <trkpt lat="42.85948" lon="-0.74044">
        <ele>1900</ele>
        <time>2021-06-18T20:42:12Z</time>
      </trkpt>
      <trkpt lat="42.85965" lon="-0.74017">
        <ele>1906</ele>
        <time>2021-06-18T20:42:18Z</time>
      </trkpt>
      <trkpt lat="42.85995" lon="-0.73943">
        <ele>1915</ele>
        <time>2021-06-18T20:42:32Z</time>
      </trkpt>
      <trkpt lat="42.86019" lon="-0.73904">
        <ele>1925</ele>
        <time>2021-06-18T20:42:41Z</time>
      </trkpt>
      <trkpt lat="42.86045" lon="-0.73689">
        <ele>1965</ele>
        <time>2021-06-18T20:43:18Z</time>
      </trkpt>
      <trkpt lat="42.86043" lon="-0.73651">
        <ele>1969</ele>
        <time>2021-06-18T20:43:25Z</time>
      </trkpt>
      <trkpt lat="42.86049" lon="-0.73635">
        <ele>1971</ele>
        <time>2021-06-18T20:43:28Z</time>
      </trkpt>
      <trkpt lat="42.86043" lon="-0.73627">
        <ele>1971</ele>
        <time>2021-06-18T20:43:30Z</time>
      </trkpt>
      <trkpt lat="42.86045" lon="-0.73606">
        <ele>1973</ele>
        <time>2021-06-18T20:43:33Z</time>
      </trkpt>
      <trkpt lat="42.86052" lon="-0.73599">
        <ele>1974</ele>
        <time>2021-06-18T20:43:35Z</time>
      </trkpt>
      <trkpt lat="42.86062" lon="-0.73568">
        <ele>1973</ele>
        <time>2021-06-18T20:43:41Z</time>
      </trkpt>
      <trkpt lat="42.86071" lon="-0.73556">
        <ele>1970</ele>
        <time>2021-06-18T20:43:44Z</time>
      </trkpt>
      <trkpt lat="42.86072" lon="-0.73518">
        <ele>1963</ele>
        <time>2021-06-18T20:43:51Z</time>
      </trkpt>
      <trkpt lat="42.86078" lon="-0.73508">
        <ele>1960</ele>
        <time>2021-06-18T20:43:53Z</time>
      </trkpt>
      <trkpt lat="42.86064" lon="-0.73502">
        <ele>1961</ele>
        <time>2021-06-18T20:43:56Z</time>
      </trkpt>
      <trkpt lat="42.86062" lon="-0.73488">
        <ele>1955</ele>
        <time>2021-06-18T20:43:59Z</time>
      </trkpt>
      <trkpt lat="42.86085" lon="-0.73457">
        <ele>1935</ele>
        <time>2021-06-18T20:44:06Z</time>
      </trkpt>
      <trkpt lat="42.86094" lon="-0.73459">
        <ele>1938</ele>
        <time>2021-06-18T20:44:08Z</time>
      </trkpt>
      <trkpt lat="42.86112" lon="-0.7344">
        <ele>1930</ele>
        <time>2021-06-18T20:44:14Z</time>
      </trkpt>
      <trkpt lat="42.86108" lon="-0.73428">
        <ele>1924</ele>
        <time>2021-06-18T20:44:16Z</time>
      </trkpt>
      <trkpt lat="42.86115" lon="-0.73402">
        <ele>1913</ele>
        <time>2021-06-18T20:44:21Z</time>
      </trkpt>
      <trkpt lat="42.86146" lon="-0.73399">
        <ele>1917</ele>
        <time>2021-06-18T20:44:28Z</time>
      </trkpt>
      <trkpt lat="42.86138" lon="-0.73384">
        <ele>1909</ele>
        <time>2021-06-18T20:44:31Z</time>
      </trkpt>
      <trkpt lat="42.86138" lon="-0.73372">
        <ele>1904</ele>
        <time>2021-06-18T20:44:33Z</time>
      </trkpt>
      <trkpt lat="42.86148" lon="-0.73358">
        <ele>1899</ele>
        <time>2021-06-18T20:44:36Z</time>
      </trkpt>
      <trkpt lat="42.86139" lon="-0.73353">
        <ele>1896</ele>
        <time>2021-06-18T20:44:39Z</time>
      </trkpt>
      <trkpt lat="42.86152" lon="-0.73327">
        <ele>1887</ele>
        <time>2021-06-18T20:44:44Z</time>
      </trkpt>
      <trkpt lat="42.86131" lon="-0.73321">
        <ele>1883</ele>
        <time>2021-06-18T20:44:49Z</time>
      </trkpt>
      <trkpt lat="42.86124" lon="-0.73328">
        <ele>1884</ele>
        <time>2021-06-18T20:44:51Z</time>
      </trkpt>
      <trkpt lat="42.86114" lon="-0.73323">
        <ele>1881</ele>
        <time>2021-06-18T20:44:54Z</time>
      </trkpt>
      <trkpt lat="42.86103" lon="-0.733">
        <ele>1872</ele>
        <time>2021-06-18T20:44:58Z</time>
      </trkpt>
      <trkpt lat="42.86091" lon="-0.73286">
        <ele>1866</ele>
        <time>2021-06-18T20:45:02Z</time>
      </trkpt>
      <trkpt lat="42.86082" lon="-0.73262">
        <ele>1858</ele>
        <time>2021-06-18T20:45:07Z</time>
      </trkpt>
      <trkpt lat="42.8607" lon="-0.73249">
        <ele>1858</ele>
        <time>2021-06-18T20:45:10Z</time>
      </trkpt>
      <trkpt lat="42.86047" lon="-0.73173">
        <ele>1842</ele>
        <time>2021-06-18T20:45:24Z</time>
      </trkpt>
      <trkpt lat="42.86051" lon="-0.7317">
        <ele>1840</ele>
        <time>2021-06-18T20:45:25Z</time>
      </trkpt>
      <trkpt lat="42.86077" lon="-0.73192">
        <ele>1837</ele>
        <time>2021-06-18T20:45:33Z</time>
      </trkpt>
      <trkpt lat="42.86079" lon="-0.73145">
        <ele>1824</ele>
        <time>2021-06-18T20:45:41Z</time>
      </trkpt>
      <trkpt lat="42.86085" lon="-0.73145">
        <ele>1823</ele>
        <time>2021-06-18T20:45:42Z</time>
      </trkpt>
      <trkpt lat="42.86085" lon="-0.7309">
        <ele>1813</ele>
        <time>2021-06-18T20:45:51Z</time>
      </trkpt>
      <trkpt lat="42.86074" lon="-0.73059">
        <ele>1812</ele>
        <time>2021-06-18T20:45:57Z</time>
      </trkpt>
      <trkpt lat="42.86078" lon="-0.73031">
        <ele>1807</ele>
        <time>2021-06-18T20:46:02Z</time>
      </trkpt>
      <trkpt lat="42.86074" lon="-0.7302">
        <ele>1807</ele>
        <time>2021-06-18T20:46:04Z</time>
      </trkpt>
      <trkpt lat="42.86085" lon="-0.72996">
        <ele>1802</ele>
        <time>2021-06-18T20:46:09Z</time>
      </trkpt>
      <trkpt lat="42.86085" lon="-0.72961">
        <ele>1799</ele>
        <time>2021-06-18T20:46:15Z</time>
      </trkpt>
      <trkpt lat="42.86107" lon="-0.72942">
        <ele>1797</ele>
        <time>2021-06-18T20:46:21Z</time>
      </trkpt>
      <trkpt lat="42.86121" lon="-0.72906">
        <ele>1790</ele>
        <time>2021-06-18T20:46:28Z</time>
      </trkpt>
      <trkpt lat="42.86127" lon="-0.72901">
        <ele>1788</ele>
        <time>2021-06-18T20:46:30Z</time>
      </trkpt>
      <trkpt lat="42.86136" lon="-0.72856">
        <ele>1777</ele>
        <time>2021-06-18T20:46:38Z</time>
      </trkpt>
      <trkpt lat="42.86131" lon="-0.72851">
        <ele>1777</ele>
        <time>2021-06-18T20:46:39Z</time>
      </trkpt>
      <trkpt lat="42.8612" lon="-0.72777">
        <ele>1769</ele>
        <time>2021-06-18T20:46:52Z</time>
      </trkpt>
      <trkpt lat="42.86106" lon="-0.7273">
        <ele>1766</ele>
        <time>2021-06-18T20:47:01Z</time>
      </trkpt>
      <trkpt lat="42.86108" lon="-0.72663">
        <ele>1749</ele>
        <time>2021-06-18T20:47:12Z</time>
      </trkpt>
      <trkpt lat="42.86103" lon="-0.7262">
        <ele>1738</ele>
        <time>2021-06-18T20:47:20Z</time>
      </trkpt>
      <trkpt lat="42.86121" lon="-0.72666">
        <ele>1746</ele>
        <time>2021-06-18T20:47:29Z</time>
      </trkpt>
      <trkpt lat="42.86128" lon="-0.72646">
        <ele>1739</ele>
        <time>2021-06-18T20:47:33Z</time>
      </trkpt>
      <trkpt lat="42.86119" lon="-0.72601">
        <ele>1730</ele>
        <time>2021-06-18T20:47:41Z</time>
      </trkpt>
      <trkpt lat="42.86122" lon="-0.72581">
        <ele>1724</ele>
        <time>2021-06-18T20:47:44Z</time>
      </trkpt>
      <trkpt lat="42.86132" lon="-0.72574">
        <ele>1721</ele>
        <time>2021-06-18T20:47:47Z</time>
      </trkpt>
      <trkpt lat="42.86155" lon="-0.72508">
        <ele>1705</ele>
        <time>2021-06-18T20:47:59Z</time>
      </trkpt>
      <trkpt lat="42.86171" lon="-0.72377">
        <ele>1680</ele>
        <time>2021-06-18T20:48:22Z</time>
      </trkpt>
      <trkpt lat="42.86187" lon="-0.72333">
        <ele>1672</ele>
        <time>2021-06-18T20:48:30Z</time>
      </trkpt>
      <trkpt lat="42.86191" lon="-0.72305">
        <ele>1668</ele>
        <time>2021-06-18T20:48:35Z</time>
      </trkpt>
      <trkpt lat="42.8621" lon="-0.72262">
        <ele>1663</ele>
        <time>2021-06-18T20:48:44Z</time>
      </trkpt>
      <trkpt lat="42.86231" lon="-0.72175">
        <ele>1650</ele>
        <time>2021-06-18T20:48:59Z</time>
      </trkpt>
      <trkpt lat="42.86225" lon="-0.72121">
        <ele>1645</ele>
        <time>2021-06-18T20:49:09Z</time>
      </trkpt>
      <trkpt lat="42.86202" lon="-0.72071">
        <ele>1642</ele>
        <time>2021-06-18T20:49:19Z</time>
      </trkpt>
      <trkpt lat="42.86208" lon="-0.72033">
        <ele>1638</ele>
        <time>2021-06-18T20:49:26Z</time>
      </trkpt>
      <trkpt lat="42.86187" lon="-0.71993">
        <ele>1639</ele>
        <time>2021-06-18T20:49:34Z</time>
      </trkpt>
      <trkpt lat="42.86183" lon="-0.71967">
        <ele>1638</ele>
        <time>2021-06-18T20:49:39Z</time>
      </trkpt>
      <trkpt lat="42.86188" lon="-0.71963">
        <ele>1637</ele>
        <time>2021-06-18T20:49:40Z</time>
      </trkpt>
      <trkpt lat="42.86195" lon="-0.71934">
        <ele>1634</ele>
        <time>2021-06-18T20:49:45Z</time>
      </trkpt>
      <trkpt lat="42.86179" lon="-0.71924">
        <ele>1636</ele>
        <time>2021-06-18T20:49:49Z</time>
      </trkpt>
      <trkpt lat="42.86195" lon="-0.71904">
        <ele>1633</ele>
        <time>2021-06-18T20:49:54Z</time>
      </trkpt>
      <trkpt lat="42.86208" lon="-0.71877">
        <ele>1631</ele>
        <time>2021-06-18T20:50:00Z</time>
      </trkpt>
      <trkpt lat="42.86245" lon="-0.71782">
        <ele>1617</ele>
        <time>2021-06-18T20:50:18Z</time>
      </trkpt>
      <trkpt lat="42.86278" lon="-0.71758">
        <ele>1603</ele>
        <time>2021-06-18T20:50:27Z</time>
      </trkpt>
      <trkpt lat="42.86321" lon="-0.71712">
        <ele>1579</ele>
        <time>2021-06-18T20:50:40Z</time>
      </trkpt>
      <trkpt lat="42.86364" lon="-0.71701">
        <ele>1566</ele>
        <time>2021-06-18T20:50:50Z</time>
      </trkpt>
      <trkpt lat="42.86391" lon="-0.71676">
        <ele>1558</ele>
        <time>2021-06-18T20:50:58Z</time>
      </trkpt>
      <trkpt lat="42.86389" lon="-0.71652">
        <ele>1555</ele>
        <time>2021-06-18T20:51:02Z</time>
      </trkpt>
      <trkpt lat="42.8638" lon="-0.71635">
        <ele>1554</ele>
        <time>2021-06-18T20:51:05Z</time>
      </trkpt>
      <trkpt lat="42.86386" lon="-0.71583">
        <ele>1545</ele>
        <time>2021-06-18T20:51:14Z</time>
      </trkpt>
      <trkpt lat="42.86371" lon="-0.71561">
        <ele>1546</ele>
        <time>2021-06-18T20:51:19Z</time>
      </trkpt>
      <trkpt lat="42.86371" lon="-0.71541">
        <ele>1545</ele>
        <time>2021-06-18T20:51:23Z</time>
      </trkpt>
      <trkpt lat="42.86356" lon="-0.71513">
        <ele>1547</ele>
        <time>2021-06-18T20:51:29Z</time>
      </trkpt>
      <trkpt lat="42.86372" lon="-0.71484">
        <ele>1543</ele>
        <time>2021-06-18T20:51:35Z</time>
      </trkpt>
      <trkpt lat="42.86373" lon="-0.71468">
        <ele>1542</ele>
        <time>2021-06-18T20:51:38Z</time>
      </trkpt>
      <trkpt lat="42.86361" lon="-0.71452">
        <ele>1544</ele>
        <time>2021-06-18T20:51:42Z</time>
      </trkpt>
      <trkpt lat="42.86348" lon="-0.71404">
        <ele>1546</ele>
        <time>2021-06-18T20:51:50Z</time>
      </trkpt>
      <trkpt lat="42.8634" lon="-0.71393">
        <ele>1547</ele>
        <time>2021-06-18T20:51:53Z</time>
      </trkpt>
      <trkpt lat="42.86317" lon="-0.71234">
        <ele>1547</ele>
        <time>2021-06-18T20:52:21Z</time>
      </trkpt>
      <trkpt lat="42.863" lon="-0.71179">
        <ele>1548</ele>
        <time>2021-06-18T20:52:31Z</time>
      </trkpt>
      <trkpt lat="42.86256" lon="-0.71094">
        <ele>1551</ele>
        <time>2021-06-18T20:52:49Z</time>
      </trkpt>
      <trkpt lat="42.86265" lon="-0.71028">
        <ele>1541</ele>
        <time>2021-06-18T20:53:00Z</time>
      </trkpt>
      <trkpt lat="42.86244" lon="-0.70967">
        <ele>1536</ele>
        <time>2021-06-18T20:53:12Z</time>
      </trkpt>
      <trkpt lat="42.86212" lon="-0.70927">
        <ele>1534</ele>
        <time>2021-06-18T20:53:22Z</time>
      </trkpt>
      <trkpt lat="42.86203" lon="-0.70921">
        <ele>1534</ele>
        <time>2021-06-18T20:53:24Z</time>
      </trkpt>
      <trkpt lat="42.86187" lon="-0.70896">
        <ele>1529</ele>
        <time>2021-06-18T20:53:30Z</time>
      </trkpt>
      <trkpt lat="42.86169" lon="-0.70887">
        <ele>1529</ele>
        <time>2021-06-18T20:53:35Z</time>
      </trkpt>
      <trkpt lat="42.86126" lon="-0.70834">
        <ele>1519</ele>
        <time>2021-06-18T20:53:48Z</time>
      </trkpt>
      <trkpt lat="42.86115" lon="-0.70828">
        <ele>1519</ele>
        <time>2021-06-18T20:53:51Z</time>
      </trkpt>
      <trkpt lat="42.86044" lon="-0.70722">
        <ele>1491</ele>
        <time>2021-06-18T20:54:15Z</time>
      </trkpt>
      <trkpt lat="42.86015" lon="-0.70701">
        <ele>1484</ele>
        <time>2021-06-18T20:54:23Z</time>
      </trkpt>
      <trkpt lat="42.85992" lon="-0.70695">
        <ele>1482</ele>
        <time>2021-06-18T20:54:29Z</time>
      </trkpt>
      <trkpt lat="42.85954" lon="-0.70674">
        <ele>1475</ele>
        <time>2021-06-18T20:54:38Z</time>
      </trkpt>
      <trkpt lat="42.8592" lon="-0.70665">
        <ele>1471</ele>
        <time>2021-06-18T20:54:46Z</time>
      </trkpt>
      <trkpt lat="42.85908" lon="-0.70649">
        <ele>1465</ele>
        <time>2021-06-18T20:54:50Z</time>
      </trkpt>
      <trkpt lat="42.85885" lon="-0.70633">
        <ele>1460</ele>
        <time>2021-06-18T20:54:56Z</time>
      </trkpt>
      <trkpt lat="42.85866" lon="-0.70598">
        <ele>1451</ele>
        <time>2021-06-18T20:55:04Z</time>
      </trkpt>
      <trkpt lat="42.85853" lon="-0.70589">
        <ele>1449</ele>
        <time>2021-06-18T20:55:07Z</time>
      </trkpt>
      <trkpt lat="42.85824" lon="-0.70581">
        <ele>1445</ele>
        <time>2021-06-18T20:55:14Z</time>
      </trkpt>
      <trkpt lat="42.85822" lon="-0.70563">
        <ele>1440</ele>
        <time>2021-06-18T20:55:17Z</time>
      </trkpt>
      <trkpt lat="42.85832" lon="-0.70525">
        <ele>1434</ele>
        <time>2021-06-18T20:55:24Z</time>
      </trkpt>
      <trkpt lat="42.8585" lon="-0.70502">
        <ele>1429</ele>
        <time>2021-06-18T20:55:30Z</time>
      </trkpt>
      <trkpt lat="42.85837" lon="-0.7045">
        <ele>1421</ele>
        <time>2021-06-18T20:55:39Z</time>
      </trkpt>
      <trkpt lat="42.85824" lon="-0.70506">
        <ele>1428</ele>
        <time>2021-06-18T20:55:49Z</time>
      </trkpt>
      <trkpt lat="42.85815" lon="-0.70521">
        <ele>1429</ele>
        <time>2021-06-18T20:55:52Z</time>
      </trkpt>
      <trkpt lat="42.85795" lon="-0.70574">
        <ele>1435</ele>
        <time>2021-06-18T20:56:03Z</time>
      </trkpt>
      <trkpt lat="42.85732" lon="-0.70478">
        <ele>1398</ele>
        <time>2021-06-18T20:56:25Z</time>
      </trkpt>
      <trkpt lat="42.85583" lon="-0.70297">
        <ele>1330</ele>
        <time>2021-06-18T20:57:11Z</time>
      </trkpt>
      <trkpt lat="42.85519" lon="-0.7017">
        <ele>1294</ele>
        <time>2021-06-18T20:57:38Z</time>
      </trkpt>
      <trkpt lat="42.85412" lon="-0.70024">
        <ele>1247</ele>
        <time>2021-06-18T20:58:13Z</time>
      </trkpt>
      <trkpt lat="42.85355" lon="-0.69983">
        <ele>1231</ele>
        <time>2021-06-18T20:58:28Z</time>
      </trkpt>
      <trkpt lat="42.853" lon="-0.69959">
        <ele>1220</ele>
        <time>2021-06-18T20:58:42Z</time>
      </trkpt>
      <trkpt lat="42.85271" lon="-0.69942">
        <ele>1216</ele>
        <time>2021-06-18T20:58:49Z</time>
      </trkpt>
      <trkpt lat="42.85297" lon="-0.69859">
        <ele>1217</ele>
        <time>2021-06-18T20:59:04Z</time>
      </trkpt>
      <trkpt lat="42.8531" lon="-0.69843">
        <ele>1217</ele>
        <time>2021-06-18T20:59:08Z</time>
      </trkpt>
      <trkpt lat="42.85338" lon="-0.69841">
        <ele>1218</ele>
        <time>2021-06-18T20:59:15Z</time>
      </trkpt>
      <trkpt lat="42.85377" lon="-0.69826">
        <ele>1220</ele>
        <time>2021-06-18T20:59:25Z</time>
      </trkpt>
      <trkpt lat="42.85405" lon="-0.69824">
        <ele>1222</ele>
        <time>2021-06-18T20:59:31Z</time>
      </trkpt>
      <trkpt lat="42.85433" lon="-0.69826">
        <ele>1226</ele>
        <time>2021-06-18T20:59:38Z</time>
      </trkpt>
      <trkpt lat="42.85483" lon="-0.69792">
        <ele>1229</ele>
        <time>2021-06-18T20:59:51Z</time>
      </trkpt>
      <trkpt lat="42.85521" lon="-0.69722">
        <ele>1231</ele>
        <time>2021-06-18T21:00:06Z</time>
      </trkpt>
      <trkpt lat="42.8551" lon="-0.69691">
        <ele>1229</ele>
        <time>2021-06-18T21:00:11Z</time>
      </trkpt>
      <trkpt lat="42.85497" lon="-0.69598">
        <ele>1231</ele>
        <time>2021-06-18T21:00:28Z</time>
      </trkpt>
      <trkpt lat="42.85491" lon="-0.69497">
        <ele>1235</ele>
        <time>2021-06-18T21:00:45Z</time>
      </trkpt>
      <trkpt lat="42.85519" lon="-0.69288">
        <ele>1246</ele>
        <time>2021-06-18T21:01:21Z</time>
      </trkpt>
      <trkpt lat="42.85517" lon="-0.69262">
        <ele>1246</ele>
        <time>2021-06-18T21:01:26Z</time>
      </trkpt>
      <trkpt lat="42.85503" lon="-0.69177">
        <ele>1243</ele>
        <time>2021-06-18T21:01:41Z</time>
      </trkpt>
      <trkpt lat="42.8551" lon="-0.69106">
        <ele>1249</ele>
        <time>2021-06-18T21:01:53Z</time>
      </trkpt>
      <trkpt lat="42.85508" lon="-0.69039">
        <ele>1249</ele>
        <time>2021-06-18T21:02:05Z</time>
      </trkpt>
      <trkpt lat="42.85513" lon="-0.68985">
        <ele>1252</ele>
        <time>2021-06-18T21:02:14Z</time>
      </trkpt>
      <trkpt lat="42.85506" lon="-0.68853">
        <ele>1259</ele>
        <time>2021-06-18T21:02:36Z</time>
      </trkpt>
      <trkpt lat="42.85497" lon="-0.68807">
        <ele>1258</ele>
        <time>2021-06-18T21:02:45Z</time>
      </trkpt>
      <trkpt lat="42.85494" lon="-0.68761">
        <ele>1259</ele>
        <time>2021-06-18T21:02:53Z</time>
      </trkpt>
      <trkpt lat="42.85508" lon="-0.68736">
        <ele>1264</ele>
        <time>2021-06-18T21:02:58Z</time>
      </trkpt>
      <trkpt lat="42.85507" lon="-0.68728">
        <ele>1265</ele>
        <time>2021-06-18T21:02:59Z</time>
      </trkpt>
      <trkpt lat="42.85488" lon="-0.68707">
        <ele>1261</ele>
        <time>2021-06-18T21:03:05Z</time>
      </trkpt>
      <trkpt lat="42.85474" lon="-0.68519">
        <ele>1270</ele>
        <time>2021-06-18T21:03:37Z</time>
      </trkpt>
      <trkpt lat="42.85473" lon="-0.6848">
        <ele>1272</ele>
        <time>2021-06-18T21:03:44Z</time>
      </trkpt>
      <trkpt lat="42.85449" lon="-0.6844">
        <ele>1268</ele>
        <time>2021-06-18T21:03:53Z</time>
      </trkpt>
      <trkpt lat="42.85458" lon="-0.68413">
        <ele>1272</ele>
        <time>2021-06-18T21:03:58Z</time>
      </trkpt>
      <trkpt lat="42.85449" lon="-0.68396">
        <ele>1270</ele>
        <time>2021-06-18T21:04:02Z</time>
      </trkpt>
      <trkpt lat="42.85428" lon="-0.68288">
        <ele>1269</ele>
        <time>2021-06-18T21:04:21Z</time>
      </trkpt>
      <trkpt lat="42.85415" lon="-0.68254">
        <ele>1267</ele>
        <time>2021-06-18T21:04:27Z</time>
      </trkpt>
      <trkpt lat="42.85413" lon="-0.68225">
        <ele>1268</ele>
        <time>2021-06-18T21:04:32Z</time>
      </trkpt>
      <trkpt lat="42.85398" lon="-0.68206">
        <ele>1265</ele>
        <time>2021-06-18T21:04:37Z</time>
      </trkpt>
      <trkpt lat="42.85395" lon="-0.68135">
        <ele>1268</ele>
        <time>2021-06-18T21:04:49Z</time>
      </trkpt>
      <trkpt lat="42.85344" lon="-0.67982">
        <ele>1265</ele>
        <time>2021-06-18T21:05:18Z</time>
      </trkpt>
      <trkpt lat="42.85335" lon="-0.67961">
        <ele>1264</ele>
        <time>2021-06-18T21:05:22Z</time>
      </trkpt>
      <trkpt lat="42.85331" lon="-0.67909">
        <ele>1265</ele>
        <time>2021-06-18T21:05:31Z</time>
      </trkpt>
      <trkpt lat="42.85335" lon="-0.67871">
        <ele>1268</ele>
        <time>2021-06-18T21:05:38Z</time>
      </trkpt>
      <trkpt lat="42.85343" lon="-0.67842">
        <ele>1272</ele>
        <time>2021-06-18T21:05:43Z</time>
      </trkpt>
      <trkpt lat="42.85316" lon="-0.67821">
        <ele>1268</ele>
        <time>2021-06-18T21:05:50Z</time>
      </trkpt>
      <trkpt lat="42.853" lon="-0.67788">
        <ele>1268</ele>
        <time>2021-06-18T21:05:57Z</time>
      </trkpt>
      <trkpt lat="42.85299" lon="-0.67757">
        <ele>1270</ele>
        <time>2021-06-18T21:06:02Z</time>
      </trkpt>
      <trkpt lat="42.85294" lon="-0.67714">
        <ele>1272</ele>
        <time>2021-06-18T21:06:10Z</time>
      </trkpt>
      <trkpt lat="42.85278" lon="-0.67647">
        <ele>1272</ele>
        <time>2021-06-18T21:06:22Z</time>
      </trkpt>
      <trkpt lat="42.85273" lon="-0.67639">
        <ele>1272</ele>
        <time>2021-06-18T21:06:24Z</time>
      </trkpt>
      <trkpt lat="42.85271" lon="-0.67629">
        <ele>1272</ele>
        <time>2021-06-18T21:06:25Z</time>
      </trkpt>
      <trkpt lat="42.85275" lon="-0.67613">
        <ele>1274</ele>
        <time>2021-06-18T21:06:28Z</time>
      </trkpt>
      <trkpt lat="42.8526" lon="-0.67597">
        <ele>1272</ele>
        <time>2021-06-18T21:06:33Z</time>
      </trkpt>
      <trkpt lat="42.85246" lon="-0.67544">
        <ele>1273</ele>
        <time>2021-06-18T21:06:42Z</time>
      </trkpt>
      <trkpt lat="42.85242" lon="-0.67503">
        <ele>1275</ele>
        <time>2021-06-18T21:06:49Z</time>
      </trkpt>
      <trkpt lat="42.85232" lon="-0.6748">
        <ele>1275</ele>
        <time>2021-06-18T21:06:54Z</time>
      </trkpt>
      <trkpt lat="42.85221" lon="-0.67433">
        <ele>1277</ele>
        <time>2021-06-18T21:07:03Z</time>
      </trkpt>
      <trkpt lat="42.85223" lon="-0.67413">
        <ele>1279</ele>
        <time>2021-06-18T21:07:06Z</time>
      </trkpt>
      <trkpt lat="42.85198" lon="-0.67344">
        <ele>1283</ele>
        <time>2021-06-18T21:07:19Z</time>
      </trkpt>
      <trkpt lat="42.85191" lon="-0.67335">
        <ele>1283</ele>
        <time>2021-06-18T21:07:21Z</time>
      </trkpt>
      <trkpt lat="42.85175" lon="-0.67304">
        <ele>1283</ele>
        <time>2021-06-18T21:07:28Z</time>
      </trkpt>
      <trkpt lat="42.85174" lon="-0.67279">
        <ele>1286</ele>
        <time>2021-06-18T21:07:32Z</time>
      </trkpt>
      <trkpt lat="42.85167" lon="-0.67257">
        <ele>1286</ele>
        <time>2021-06-18T21:07:36Z</time>
      </trkpt>
      <trkpt lat="42.85152" lon="-0.67252">
        <ele>1285</ele>
        <time>2021-06-18T21:07:40Z</time>
      </trkpt>
      <trkpt lat="42.85132" lon="-0.67211">
        <ele>1284</ele>
        <time>2021-06-18T21:07:48Z</time>
      </trkpt>
      <trkpt lat="42.85118" lon="-0.67162">
        <ele>1284</ele>
        <time>2021-06-18T21:07:57Z</time>
      </trkpt>
      <trkpt lat="42.85114" lon="-0.67118">
        <ele>1287</ele>
        <time>2021-06-18T21:08:05Z</time>
      </trkpt>
      <trkpt lat="42.851" lon="-0.6705">
        <ele>1291</ele>
        <time>2021-06-18T21:08:17Z</time>
      </trkpt>
      <trkpt lat="42.85082" lon="-0.67007">
        <ele>1294</ele>
        <time>2021-06-18T21:08:25Z</time>
      </trkpt>
      <trkpt lat="42.85056" lon="-0.66912">
        <ele>1299</ele>
        <time>2021-06-18T21:08:43Z</time>
      </trkpt>
      <trkpt lat="42.85024" lon="-0.66883">
        <ele>1299</ele>
        <time>2021-06-18T21:08:52Z</time>
      </trkpt>
      <trkpt lat="42.84984" lon="-0.66818">
        <ele>1301</ele>
        <time>2021-06-18T21:09:06Z</time>
      </trkpt>
      <trkpt lat="42.84978" lon="-0.66788">
        <ele>1301</ele>
        <time>2021-06-18T21:09:12Z</time>
      </trkpt>
      <trkpt lat="42.84951" lon="-0.66735">
        <ele>1298</ele>
        <time>2021-06-18T21:09:23Z</time>
      </trkpt>
      <trkpt lat="42.8495" lon="-0.66718">
        <ele>1299</ele>
        <time>2021-06-18T21:09:26Z</time>
      </trkpt>
      <trkpt lat="42.84924" lon="-0.66676">
        <ele>1296</ele>
        <time>2021-06-18T21:09:35Z</time>
      </trkpt>
      <trkpt lat="42.8492" lon="-0.66663">
        <ele>1296</ele>
        <time>2021-06-18T21:09:37Z</time>
      </trkpt>
      <trkpt lat="42.84918" lon="-0.66621">
        <ele>1300</ele>
        <time>2021-06-18T21:09:45Z</time>
      </trkpt>
      <trkpt lat="42.84914" lon="-0.66619">
        <ele>1299</ele>
        <time>2021-06-18T21:09:46Z</time>
      </trkpt>
      <trkpt lat="42.84911" lon="-0.6661">
        <ele>1299</ele>
        <time>2021-06-18T21:09:47Z</time>
      </trkpt>
      <trkpt lat="42.84911" lon="-0.66598">
        <ele>1301</ele>
        <time>2021-06-18T21:09:49Z</time>
      </trkpt>
      <trkpt lat="42.84904" lon="-0.66583">
        <ele>1300</ele>
        <time>2021-06-18T21:09:52Z</time>
      </trkpt>
      <trkpt lat="42.84894" lon="-0.66583">
        <ele>1298</ele>
        <time>2021-06-18T21:09:55Z</time>
      </trkpt>
      <trkpt lat="42.84886" lon="-0.66578">
        <ele>1297</ele>
        <time>2021-06-18T21:09:57Z</time>
      </trkpt>
      <trkpt lat="42.84881" lon="-0.66566">
        <ele>1297</ele>
        <time>2021-06-18T21:09:59Z</time>
      </trkpt>
      <trkpt lat="42.84881" lon="-0.66553">
        <ele>1297</ele>
        <time>2021-06-18T21:10:01Z</time>
      </trkpt>
      <trkpt lat="42.84862" lon="-0.66513">
        <ele>1295</ele>
        <time>2021-06-18T21:10:10Z</time>
      </trkpt>
      <trkpt lat="42.84851" lon="-0.66479">
        <ele>1295</ele>
        <time>2021-06-18T21:10:16Z</time>
      </trkpt>
      <trkpt lat="42.8485" lon="-0.66455">
        <ele>1296</ele>
        <time>2021-06-18T21:10:20Z</time>
      </trkpt>
      <trkpt lat="42.84846" lon="-0.66443">
        <ele>1296</ele>
        <time>2021-06-18T21:10:22Z</time>
      </trkpt>
      <trkpt lat="42.84839" lon="-0.66439">
        <ele>1294</ele>
        <time>2021-06-18T21:10:24Z</time>
      </trkpt>
      <trkpt lat="42.84829" lon="-0.6642">
        <ele>1294</ele>
        <time>2021-06-18T21:10:28Z</time>
      </trkpt>
      <trkpt lat="42.84827" lon="-0.66404">
        <ele>1295</ele>
        <time>2021-06-18T21:10:31Z</time>
      </trkpt>
      <trkpt lat="42.84811" lon="-0.66375">
        <ele>1296</ele>
        <time>2021-06-18T21:10:37Z</time>
      </trkpt>
      <trkpt lat="42.84806" lon="-0.66346">
        <ele>1298</ele>
        <time>2021-06-18T21:10:42Z</time>
      </trkpt>
      <trkpt lat="42.84798" lon="-0.6634">
        <ele>1297</ele>
        <time>2021-06-18T21:10:44Z</time>
      </trkpt>
      <trkpt lat="42.84771" lon="-0.6629">
        <ele>1298</ele>
        <time>2021-06-18T21:10:55Z</time>
      </trkpt>
      <trkpt lat="42.84759" lon="-0.6628">
        <ele>1297</ele>
        <time>2021-06-18T21:10:58Z</time>
      </trkpt>
      <trkpt lat="42.84724" lon="-0.66236">
        <ele>1297</ele>
        <time>2021-06-18T21:11:09Z</time>
      </trkpt>
      <trkpt lat="42.84703" lon="-0.66202">
        <ele>1298</ele>
        <time>2021-06-18T21:11:17Z</time>
      </trkpt>
      <trkpt lat="42.8467" lon="-0.66158">
        <ele>1295</ele>
        <time>2021-06-18T21:11:28Z</time>
      </trkpt>
      <trkpt lat="42.84632" lon="-0.66051">
        <ele>1298</ele>
        <time>2021-06-18T21:11:48Z</time>
      </trkpt>
      <trkpt lat="42.84607" lon="-0.65996">
        <ele>1298</ele>
        <time>2021-06-18T21:11:59Z</time>
      </trkpt>
      <trkpt lat="42.84588" lon="-0.65947">
        <ele>1301</ele>
        <time>2021-06-18T21:12:09Z</time>
      </trkpt>
      <trkpt lat="42.8458" lon="-0.65934">
        <ele>1301</ele>
        <time>2021-06-18T21:12:12Z</time>
      </trkpt>
      <trkpt lat="42.84567" lon="-0.65898">
        <ele>1303</ele>
        <time>2021-06-18T21:12:18Z</time>
      </trkpt>
      <trkpt lat="42.84562" lon="-0.65866">
        <ele>1304</ele>
        <time>2021-06-18T21:12:24Z</time>
      </trkpt>
      <trkpt lat="42.84558" lon="-0.6581">
        <ele>1307</ele>
        <time>2021-06-18T21:12:34Z</time>
      </trkpt>
      <trkpt lat="42.84535" lon="-0.65745">
        <ele>1308</ele>
        <time>2021-06-18T21:12:46Z</time>
      </trkpt>
      <trkpt lat="42.84544" lon="-0.65681">
        <ele>1315</ele>
        <time>2021-06-18T21:12:57Z</time>
      </trkpt>
      <trkpt lat="42.84521" lon="-0.65593">
        <ele>1319</ele>
        <time>2021-06-18T21:13:13Z</time>
      </trkpt>
      <trkpt lat="42.84508" lon="-0.65557">
        <ele>1319</ele>
        <time>2021-06-18T21:13:20Z</time>
      </trkpt>
      <trkpt lat="42.845" lon="-0.65547">
        <ele>1317</ele>
        <time>2021-06-18T21:13:23Z</time>
      </trkpt>
      <trkpt lat="42.84498" lon="-0.65537">
        <ele>1318</ele>
        <time>2021-06-18T21:13:24Z</time>
      </trkpt>
      <trkpt lat="42.84494" lon="-0.65532">
        <ele>1318</ele>
        <time>2021-06-18T21:13:26Z</time>
      </trkpt>
      <trkpt lat="42.84479" lon="-0.65485">
        <ele>1323</ele>
        <time>2021-06-18T21:13:34Z</time>
      </trkpt>
      <trkpt lat="42.84472" lon="-0.6548">
        <ele>1323</ele>
        <time>2021-06-18T21:13:36Z</time>
      </trkpt>
      <trkpt lat="42.84438" lon="-0.65425">
        <ele>1322</ele>
        <time>2021-06-18T21:13:49Z</time>
      </trkpt>
      <trkpt lat="42.84429" lon="-0.65405">
        <ele>1322</ele>
        <time>2021-06-18T21:13:53Z</time>
      </trkpt>
      <trkpt lat="42.84419" lon="-0.65395">
        <ele>1320</ele>
        <time>2021-06-18T21:13:56Z</time>
      </trkpt>
      <trkpt lat="42.844" lon="-0.65358">
        <ele>1324</ele>
        <time>2021-06-18T21:14:03Z</time>
      </trkpt>
      <trkpt lat="42.84377" lon="-0.6532">
        <ele>1325</ele>
        <time>2021-06-18T21:14:12Z</time>
      </trkpt>
      <trkpt lat="42.84368" lon="-0.653">
        <ele>1327</ele>
        <time>2021-06-18T21:14:16Z</time>
      </trkpt>
      <trkpt lat="42.84364" lon="-0.65297">
        <ele>1326</ele>
        <time>2021-06-18T21:14:17Z</time>
      </trkpt>
      <trkpt lat="42.84359" lon="-0.65282">
        <ele>1327</ele>
        <time>2021-06-18T21:14:20Z</time>
      </trkpt>
      <trkpt lat="42.84356" lon="-0.65258">
        <ele>1329</ele>
        <time>2021-06-18T21:14:24Z</time>
      </trkpt>
      <trkpt lat="42.84347" lon="-0.65236">
        <ele>1331</ele>
        <time>2021-06-18T21:14:28Z</time>
      </trkpt>
      <trkpt lat="42.84319" lon="-0.65214">
        <ele>1331</ele>
        <time>2021-06-18T21:14:36Z</time>
      </trkpt>
      <trkpt lat="42.84311" lon="-0.65204">
        <ele>1332</ele>
        <time>2021-06-18T21:14:38Z</time>
      </trkpt>
      <trkpt lat="42.84299" lon="-0.65196">
        <ele>1333</ele>
        <time>2021-06-18T21:14:41Z</time>
      </trkpt>
      <trkpt lat="42.84293" lon="-0.65186">
        <ele>1334</ele>
        <time>2021-06-18T21:14:43Z</time>
      </trkpt>
      <trkpt lat="42.8426" lon="-0.65172">
        <ele>1334</ele>
        <time>2021-06-18T21:14:52Z</time>
      </trkpt>
      <trkpt lat="42.84266" lon="-0.65126">
        <ele>1340</ele>
        <time>2021-06-18T21:15:00Z</time>
      </trkpt>
      <trkpt lat="42.8427" lon="-0.65119">
        <ele>1341</ele>
        <time>2021-06-18T21:15:01Z</time>
      </trkpt>
      <trkpt lat="42.84265" lon="-0.65109">
        <ele>1342</ele>
        <time>2021-06-18T21:15:03Z</time>
      </trkpt>
      <trkpt lat="42.84265" lon="-0.65093">
        <ele>1343</ele>
        <time>2021-06-18T21:15:06Z</time>
      </trkpt>
      <trkpt lat="42.84241" lon="-0.65019">
        <ele>1351</ele>
        <time>2021-06-18T21:15:20Z</time>
      </trkpt>
      <trkpt lat="42.84237" lon="-0.64967">
        <ele>1360</ele>
        <time>2021-06-18T21:15:29Z</time>
      </trkpt>
      <trkpt lat="42.84221" lon="-0.64904">
        <ele>1374</ele>
        <time>2021-06-18T21:15:40Z</time>
      </trkpt>
      <trkpt lat="42.84222" lon="-0.64891">
        <ele>1375</ele>
        <time>2021-06-18T21:15:42Z</time>
      </trkpt>
      <trkpt lat="42.84218" lon="-0.64879">
        <ele>1377</ele>
        <time>2021-06-18T21:15:45Z</time>
      </trkpt>
      <trkpt lat="42.84215" lon="-0.64851">
        <ele>1381</ele>
        <time>2021-06-18T21:15:49Z</time>
      </trkpt>
      <trkpt lat="42.84206" lon="-0.64832">
        <ele>1384</ele>
        <time>2021-06-18T21:15:53Z</time>
      </trkpt>
      <trkpt lat="42.84192" lon="-0.64791">
        <ele>1387</ele>
        <time>2021-06-18T21:16:01Z</time>
      </trkpt>
      <trkpt lat="42.84182" lon="-0.64775">
        <ele>1388</ele>
        <time>2021-06-18T21:16:05Z</time>
      </trkpt>
      <trkpt lat="42.84175" lon="-0.64736">
        <ele>1389</ele>
        <time>2021-06-18T21:16:12Z</time>
      </trkpt>
      <trkpt lat="42.84157" lon="-0.6471">
        <ele>1391</ele>
        <time>2021-06-18T21:16:18Z</time>
      </trkpt>
      <trkpt lat="42.8414" lon="-0.64676">
        <ele>1392</ele>
        <time>2021-06-18T21:16:25Z</time>
      </trkpt>
      <trkpt lat="42.84122" lon="-0.64647">
        <ele>1393</ele>
        <time>2021-06-18T21:16:31Z</time>
      </trkpt>
      <trkpt lat="42.84089" lon="-0.64568">
        <ele>1391</ele>
        <time>2021-06-18T21:16:47Z</time>
      </trkpt>
      <trkpt lat="42.84051" lon="-0.64521">
        <ele>1390</ele>
        <time>2021-06-18T21:16:59Z</time>
      </trkpt>
      <trkpt lat="42.8402" lon="-0.64467">
        <ele>1393</ele>
        <time>2021-06-18T21:17:11Z</time>
      </trkpt>
      <trkpt lat="42.84018" lon="-0.64455">
        <ele>1395</ele>
        <time>2021-06-18T21:17:13Z</time>
      </trkpt>
      <trkpt lat="42.84007" lon="-0.64433">
        <ele>1398</ele>
        <time>2021-06-18T21:17:17Z</time>
      </trkpt>
      <trkpt lat="42.83996" lon="-0.6442">
        <ele>1398</ele>
        <time>2021-06-18T21:17:21Z</time>
      </trkpt>
      <trkpt lat="42.83978" lon="-0.6438">
        <ele>1401</ele>
        <time>2021-06-18T21:17:29Z</time>
      </trkpt>
      <trkpt lat="42.83966" lon="-0.64361">
        <ele>1401</ele>
        <time>2021-06-18T21:17:33Z</time>
      </trkpt>
      <trkpt lat="42.83964" lon="-0.64332">
        <ele>1406</ele>
        <time>2021-06-18T21:17:38Z</time>
      </trkpt>
      <trkpt lat="42.83951" lon="-0.64316">
        <ele>1404</ele>
        <time>2021-06-18T21:17:42Z</time>
      </trkpt>
      <trkpt lat="42.83946" lon="-0.64303">
        <ele>1404</ele>
        <time>2021-06-18T21:17:45Z</time>
      </trkpt>
      <trkpt lat="42.83946" lon="-0.64289">
        <ele>1406</ele>
        <time>2021-06-18T21:17:47Z</time>
      </trkpt>
      <trkpt lat="42.83939" lon="-0.64288">
        <ele>1404</ele>
        <time>2021-06-18T21:17:49Z</time>
      </trkpt>
      <trkpt lat="42.83925" lon="-0.64302">
        <ele>1396</ele>
        <time>2021-06-18T21:17:53Z</time>
      </trkpt>
      <trkpt lat="42.83891" lon="-0.64262">
        <ele>1394</ele>
        <time>2021-06-18T21:18:03Z</time>
      </trkpt>
      <trkpt lat="42.83883" lon="-0.64234">
        <ele>1396</ele>
        <time>2021-06-18T21:18:08Z</time>
      </trkpt>
      <trkpt lat="42.83872" lon="-0.6421">
        <ele>1397</ele>
        <time>2021-06-18T21:18:13Z</time>
      </trkpt>
      <trkpt lat="42.8386" lon="-0.64192">
        <ele>1397</ele>
        <time>2021-06-18T21:18:17Z</time>
      </trkpt>
      <trkpt lat="42.83846" lon="-0.64135">
        <ele>1401</ele>
        <time>2021-06-18T21:18:28Z</time>
      </trkpt>
      <trkpt lat="42.83848" lon="-0.64122">
        <ele>1404</ele>
        <time>2021-06-18T21:18:30Z</time>
      </trkpt>
      <trkpt lat="42.83829" lon="-0.64112">
        <ele>1401</ele>
        <time>2021-06-18T21:18:35Z</time>
      </trkpt>
      <trkpt lat="42.83821" lon="-0.64102">
        <ele>1401</ele>
        <time>2021-06-18T21:18:37Z</time>
      </trkpt>
      <trkpt lat="42.83809" lon="-0.64078">
        <ele>1403</ele>
        <time>2021-06-18T21:18:42Z</time>
      </trkpt>
      <trkpt lat="42.8379" lon="-0.6407">
        <ele>1402</ele>
        <time>2021-06-18T21:18:47Z</time>
      </trkpt>
      <trkpt lat="42.83739" lon="-0.64067">
        <ele>1396</ele>
        <time>2021-06-18T21:18:59Z</time>
      </trkpt>
      <trkpt lat="42.83724" lon="-0.64053">
        <ele>1400</ele>
        <time>2021-06-18T21:19:03Z</time>
      </trkpt>
      <trkpt lat="42.83685" lon="-0.64032">
        <ele>1404</ele>
        <time>2021-06-18T21:19:13Z</time>
      </trkpt>
      <trkpt lat="42.83658" lon="-0.63966">
        <ele>1413</ele>
        <time>2021-06-18T21:19:26Z</time>
      </trkpt>
      <trkpt lat="42.83646" lon="-0.63949">
        <ele>1415</ele>
        <time>2021-06-18T21:19:30Z</time>
      </trkpt>
      <trkpt lat="42.83631" lon="-0.63917">
        <ele>1417</ele>
        <time>2021-06-18T21:19:36Z</time>
      </trkpt>
      <trkpt lat="42.83623" lon="-0.6391">
        <ele>1418</ele>
        <time>2021-06-18T21:19:38Z</time>
      </trkpt>
      <trkpt lat="42.83598" lon="-0.63852">
        <ele>1423</ele>
        <time>2021-06-18T21:19:50Z</time>
      </trkpt>
      <trkpt lat="42.83563" lon="-0.63811">
        <ele>1427</ele>
        <time>2021-06-18T21:20:01Z</time>
      </trkpt>
      <trkpt lat="42.83546" lon="-0.6375">
        <ele>1429</ele>
        <time>2021-06-18T21:20:12Z</time>
      </trkpt>
      <trkpt lat="42.8352" lon="-0.63706">
        <ele>1430</ele>
        <time>2021-06-18T21:20:22Z</time>
      </trkpt>
      <trkpt lat="42.83514" lon="-0.63702">
        <ele>1429</ele>
        <time>2021-06-18T21:20:23Z</time>
      </trkpt>
      <trkpt lat="42.83502" lon="-0.63709">
        <ele>1426</ele>
        <time>2021-06-18T21:20:26Z</time>
      </trkpt>
      <trkpt lat="42.83485" lon="-0.63696">
        <ele>1430</ele>
        <time>2021-06-18T21:20:31Z</time>
      </trkpt>
      <trkpt lat="42.83473" lon="-0.63666">
        <ele>1432</ele>
        <time>2021-06-18T21:20:37Z</time>
      </trkpt>
      <trkpt lat="42.83466" lon="-0.63619">
        <ele>1435</ele>
        <time>2021-06-18T21:20:45Z</time>
      </trkpt>
      <trkpt lat="42.83437" lon="-0.63598">
        <ele>1436</ele>
        <time>2021-06-18T21:20:52Z</time>
      </trkpt>
      <trkpt lat="42.83423" lon="-0.63568">
        <ele>1434</ele>
        <time>2021-06-18T21:20:59Z</time>
      </trkpt>
      <trkpt lat="42.83393" lon="-0.63525">
        <ele>1439</ele>
        <time>2021-06-18T21:21:09Z</time>
      </trkpt>
      <trkpt lat="42.83379" lon="-0.63515">
        <ele>1442</ele>
        <time>2021-06-18T21:21:12Z</time>
      </trkpt>
      <trkpt lat="42.83358" lon="-0.63493">
        <ele>1445</ele>
        <time>2021-06-18T21:21:19Z</time>
      </trkpt>
      <trkpt lat="42.8335" lon="-0.63461">
        <ele>1445</ele>
        <time>2021-06-18T21:21:24Z</time>
      </trkpt>
      <trkpt lat="42.8334" lon="-0.63365">
        <ele>1451</ele>
        <time>2021-06-18T21:21:41Z</time>
      </trkpt>
      <trkpt lat="42.83348" lon="-0.63352">
        <ele>1453</ele>
        <time>2021-06-18T21:21:44Z</time>
      </trkpt>
      <trkpt lat="42.83348" lon="-0.63337">
        <ele>1455</ele>
        <time>2021-06-18T21:21:46Z</time>
      </trkpt>
      <trkpt lat="42.83338" lon="-0.6334">
        <ele>1454</ele>
        <time>2021-06-18T21:21:49Z</time>
      </trkpt>
      <trkpt lat="42.83332" lon="-0.63338">
        <ele>1455</ele>
        <time>2021-06-18T21:21:50Z</time>
      </trkpt>
      <trkpt lat="42.83338" lon="-0.63322">
        <ele>1458</ele>
        <time>2021-06-18T21:21:53Z</time>
      </trkpt>
      <trkpt lat="42.83337" lon="-0.63319">
        <ele>1459</ele>
        <time>2021-06-18T21:21:54Z</time>
      </trkpt>
      <trkpt lat="42.83306" lon="-0.63317">
        <ele>1467</ele>
        <time>2021-06-18T21:22:01Z</time>
      </trkpt>
      <trkpt lat="42.83315" lon="-0.63297">
        <ele>1469</ele>
        <time>2021-06-18T21:22:05Z</time>
      </trkpt>
      <trkpt lat="42.83305" lon="-0.63294">
        <ele>1472</ele>
        <time>2021-06-18T21:22:08Z</time>
      </trkpt>
      <trkpt lat="42.83325" lon="-0.63266">
        <ele>1474</ele>
        <time>2021-06-18T21:22:14Z</time>
      </trkpt>
      <trkpt lat="42.83318" lon="-0.63264">
        <ele>1476</ele>
        <time>2021-06-18T21:22:16Z</time>
      </trkpt>
      <trkpt lat="42.8333" lon="-0.63243">
        <ele>1479</ele>
        <time>2021-06-18T21:22:20Z</time>
      </trkpt>
      <trkpt lat="42.83322" lon="-0.63241">
        <ele>1481</ele>
        <time>2021-06-18T21:22:22Z</time>
      </trkpt>
      <trkpt lat="42.83328" lon="-0.63224">
        <ele>1485</ele>
        <time>2021-06-18T21:22:26Z</time>
      </trkpt>
      <trkpt lat="42.83312" lon="-0.63225">
        <ele>1488</ele>
        <time>2021-06-18T21:22:29Z</time>
      </trkpt>
      <trkpt lat="42.83318" lon="-0.6321">
        <ele>1491</ele>
        <time>2021-06-18T21:22:32Z</time>
      </trkpt>
      <trkpt lat="42.83307" lon="-0.63209">
        <ele>1493</ele>
        <time>2021-06-18T21:22:35Z</time>
      </trkpt>
      <trkpt lat="42.83306" lon="-0.63202">
        <ele>1495</ele>
        <time>2021-06-18T21:22:36Z</time>
      </trkpt>
      <trkpt lat="42.83302" lon="-0.632">
        <ele>1497</ele>
        <time>2021-06-18T21:22:37Z</time>
      </trkpt>
      <trkpt lat="42.833" lon="-0.63195">
        <ele>1498</ele>
        <time>2021-06-18T21:22:38Z</time>
      </trkpt>
      <trkpt lat="42.83294" lon="-0.632">
        <ele>1498</ele>
        <time>2021-06-18T21:22:40Z</time>
      </trkpt>
      <trkpt lat="42.8329" lon="-0.63192">
        <ele>1501</ele>
        <time>2021-06-18T21:22:41Z</time>
      </trkpt>
      <trkpt lat="42.83294" lon="-0.63184">
        <ele>1502</ele>
        <time>2021-06-18T21:22:43Z</time>
      </trkpt>
      <trkpt lat="42.83284" lon="-0.63184">
        <ele>1504</ele>
        <time>2021-06-18T21:22:45Z</time>
      </trkpt>
      <trkpt lat="42.83286" lon="-0.63178">
        <ele>1505</ele>
        <time>2021-06-18T21:22:46Z</time>
      </trkpt>
      <trkpt lat="42.83282" lon="-0.63176">
        <ele>1506</ele>
        <time>2021-06-18T21:22:47Z</time>
      </trkpt>
      <trkpt lat="42.83267" lon="-0.6319">
        <ele>1505</ele>
        <time>2021-06-18T21:22:52Z</time>
      </trkpt>
      <trkpt lat="42.83264" lon="-0.63172">
        <ele>1510</ele>
        <time>2021-06-18T21:22:55Z</time>
      </trkpt>
      <trkpt lat="42.8325" lon="-0.63176">
        <ele>1511</ele>
        <time>2021-06-18T21:22:58Z</time>
      </trkpt>
      <trkpt lat="42.83253" lon="-0.63168">
        <ele>1512</ele>
        <time>2021-06-18T21:23:00Z</time>
      </trkpt>
      <trkpt lat="42.83249" lon="-0.63165">
        <ele>1514</ele>
        <time>2021-06-18T21:23:01Z</time>
      </trkpt>
      <trkpt lat="42.83208" lon="-0.63182">
        <ele>1519</ele>
        <time>2021-06-18T21:23:11Z</time>
      </trkpt>
      <trkpt lat="42.83181" lon="-0.63175">
        <ele>1525</ele>
        <time>2021-06-18T21:23:17Z</time>
      </trkpt>
      <trkpt lat="42.83168" lon="-0.63147">
        <ele>1534</ele>
        <time>2021-06-18T21:23:23Z</time>
      </trkpt>
      <trkpt lat="42.83176" lon="-0.63125">
        <ele>1538</ele>
        <time>2021-06-18T21:23:27Z</time>
      </trkpt>
      <trkpt lat="42.83164" lon="-0.63123">
        <ele>1541</ele>
        <time>2021-06-18T21:23:30Z</time>
      </trkpt>
      <trkpt lat="42.83173" lon="-0.63104">
        <ele>1543</ele>
        <time>2021-06-18T21:23:34Z</time>
      </trkpt>
      <trkpt lat="42.8318" lon="-0.63099">
        <ele>1544</ele>
        <time>2021-06-18T21:23:36Z</time>
      </trkpt>
      <trkpt lat="42.83173" lon="-0.63086">
        <ele>1548</ele>
        <time>2021-06-18T21:23:38Z</time>
      </trkpt>
      <trkpt lat="42.83173" lon="-0.63058">
        <ele>1558</ele>
        <time>2021-06-18T21:23:43Z</time>
      </trkpt>
      <trkpt lat="42.83147" lon="-0.6305">
        <ele>1568</ele>
        <time>2021-06-18T21:23:49Z</time>
      </trkpt>
      <trkpt lat="42.83145" lon="-0.63034">
        <ele>1573</ele>
        <time>2021-06-18T21:23:52Z</time>
      </trkpt>
      <trkpt lat="42.83165" lon="-0.63003">
        <ele>1579</ele>
        <time>2021-06-18T21:23:59Z</time>
      </trkpt>
      <trkpt lat="42.83135" lon="-0.62978">
        <ele>1594</ele>
        <time>2021-06-18T21:24:08Z</time>
      </trkpt>
      <trkpt lat="42.83124" lon="-0.62984">
        <ele>1594</ele>
        <time>2021-06-18T21:24:10Z</time>
      </trkpt>
      <trkpt lat="42.83119" lon="-0.62965">
        <ele>1600</ele>
        <time>2021-06-18T21:24:14Z</time>
      </trkpt>
      <trkpt lat="42.83105" lon="-0.62949">
        <ele>1607</ele>
        <time>2021-06-18T21:24:18Z</time>
      </trkpt>
      <trkpt lat="42.83112" lon="-0.62926">
        <ele>1613</ele>
        <time>2021-06-18T21:24:22Z</time>
      </trkpt>
      <trkpt lat="42.83098" lon="-0.62915">
        <ele>1618</ele>
        <time>2021-06-18T21:24:26Z</time>
      </trkpt>
      <trkpt lat="42.83089" lon="-0.62855">
        <ele>1621</ele>
        <time>2021-06-18T21:24:37Z</time>
      </trkpt>
      <trkpt lat="42.83086" lon="-0.62874">
        <ele>1621</ele>
        <time>2021-06-18T21:24:40Z</time>
      </trkpt>
      <trkpt lat="42.83071" lon="-0.62824">
        <ele>1628</ele>
        <time>2021-06-18T21:24:49Z</time>
      </trkpt>
      <trkpt lat="42.83033" lon="-0.62782">
        <ele>1633</ele>
        <time>2021-06-18T21:25:01Z</time>
      </trkpt>
      <trkpt lat="42.83021" lon="-0.62758">
        <ele>1627</ele>
        <time>2021-06-18T21:25:05Z</time>
      </trkpt>
      <trkpt lat="42.83004" lon="-0.62745">
        <ele>1627</ele>
        <time>2021-06-18T21:25:10Z</time>
      </trkpt>
      <trkpt lat="42.82987" lon="-0.62743">
        <ele>1630</ele>
        <time>2021-06-18T21:25:14Z</time>
      </trkpt>
      <trkpt lat="42.82964" lon="-0.62753">
        <ele>1641</ele>
        <time>2021-06-18T21:25:20Z</time>
      </trkpt>
      <trkpt lat="42.82918" lon="-0.62721">
        <ele>1637</ele>
        <time>2021-06-18T21:25:32Z</time>
      </trkpt>
      <trkpt lat="42.82886" lon="-0.62711">
        <ele>1636</ele>
        <time>2021-06-18T21:25:39Z</time>
      </trkpt>
      <trkpt lat="42.8287" lon="-0.62701">
        <ele>1631</ele>
        <time>2021-06-18T21:25:44Z</time>
      </trkpt>
      <trkpt lat="42.82862" lon="-0.62686">
        <ele>1622</ele>
        <time>2021-06-18T21:25:47Z</time>
      </trkpt>
      <trkpt lat="42.8285" lon="-0.62682">
        <ele>1620</ele>
        <time>2021-06-18T21:25:50Z</time>
      </trkpt>
      <trkpt lat="42.82836" lon="-0.62687">
        <ele>1624</ele>
        <time>2021-06-18T21:25:53Z</time>
      </trkpt>
      <trkpt lat="42.82778" lon="-0.62658">
        <ele>1618</ele>
        <time>2021-06-18T21:26:07Z</time>
      </trkpt>
      <trkpt lat="42.82752" lon="-0.6265">
        <ele>1621</ele>
        <time>2021-06-18T21:26:14Z</time>
      </trkpt>
      <trkpt lat="42.82719" lon="-0.62649">
        <ele>1625</ele>
        <time>2021-06-18T21:26:21Z</time>
      </trkpt>
      <trkpt lat="42.82712" lon="-0.62655">
        <ele>1628</ele>
        <time>2021-06-18T21:26:23Z</time>
      </trkpt>
      <trkpt lat="42.82625" lon="-0.62595">
        <ele>1615</ele>
        <time>2021-06-18T21:26:46Z</time>
      </trkpt>
      <trkpt lat="42.82572" lon="-0.62593">
        <ele>1616</ele>
        <time>2021-06-18T21:26:58Z</time>
      </trkpt>
      <trkpt lat="42.82522" lon="-0.62573">
        <ele>1614</ele>
        <time>2021-06-18T21:27:11Z</time>
      </trkpt>
      <trkpt lat="42.82481" lon="-0.62575">
        <ele>1617</ele>
        <time>2021-06-18T21:27:20Z</time>
      </trkpt>
      <trkpt lat="42.82442" lon="-0.62552">
        <ele>1616</ele>
        <time>2021-06-18T21:27:30Z</time>
      </trkpt>
      <trkpt lat="42.82435" lon="-0.62564">
        <ele>1619</ele>
        <time>2021-06-18T21:27:33Z</time>
      </trkpt>
      <trkpt lat="42.82419" lon="-0.62564">
        <ele>1620</ele>
        <time>2021-06-18T21:27:36Z</time>
      </trkpt>
      <trkpt lat="42.82355" lon="-0.62532">
        <ele>1617</ele>
        <time>2021-06-18T21:27:52Z</time>
      </trkpt>
      <trkpt lat="42.82313" lon="-0.62502">
        <ele>1614</ele>
        <time>2021-06-18T21:28:03Z</time>
      </trkpt>
      <trkpt lat="42.82276" lon="-0.62494">
        <ele>1616</ele>
        <time>2021-06-18T21:28:12Z</time>
      </trkpt>
      <trkpt lat="42.82247" lon="-0.62482">
        <ele>1617</ele>
        <time>2021-06-18T21:28:19Z</time>
      </trkpt>
      <trkpt lat="42.82185" lon="-0.62474">
        <ele>1617</ele>
        <time>2021-06-18T21:28:34Z</time>
      </trkpt>
      <trkpt lat="42.82121" lon="-0.6246">
        <ele>1616</ele>
        <time>2021-06-18T21:28:49Z</time>
      </trkpt>
      <trkpt lat="42.82085" lon="-0.62456">
        <ele>1616</ele>
        <time>2021-06-18T21:28:57Z</time>
      </trkpt>
      <trkpt lat="42.82041" lon="-0.624">
        <ele>1613</ele>
        <time>2021-06-18T21:29:11Z</time>
      </trkpt>
      <trkpt lat="42.81993" lon="-0.62376">
        <ele>1613</ele>
        <time>2021-06-18T21:29:23Z</time>
      </trkpt>
      <trkpt lat="42.81938" lon="-0.62338">
        <ele>1613</ele>
        <time>2021-06-18T21:29:38Z</time>
      </trkpt>
      <trkpt lat="42.81775" lon="-0.62287">
        <ele>1621</ele>
        <time>2021-06-18T21:30:17Z</time>
      </trkpt>
      <trkpt lat="42.81745" lon="-0.62297">
        <ele>1621</ele>
        <time>2021-06-18T21:30:24Z</time>
      </trkpt>
      <trkpt lat="42.81678" lon="-0.62297">
        <ele>1622</ele>
        <time>2021-06-18T21:30:40Z</time>
      </trkpt>
      <trkpt lat="42.81624" lon="-0.62282">
        <ele>1622</ele>
        <time>2021-06-18T21:30:53Z</time>
      </trkpt>
      <trkpt lat="42.81524" lon="-0.62282">
        <ele>1622</ele>
        <time>2021-06-18T21:31:16Z</time>
      </trkpt>
      <trkpt lat="42.81513" lon="-0.62285">
        <ele>1622</ele>
        <time>2021-06-18T21:31:19Z</time>
      </trkpt>
      <trkpt lat="42.81486" lon="-0.62269">
        <ele>1621</ele>
        <time>2021-06-18T21:31:25Z</time>
      </trkpt>
      <trkpt lat="42.81402" lon="-0.62282">
        <ele>1623</ele>
        <time>2021-06-18T21:31:45Z</time>
      </trkpt>
      <trkpt lat="42.81374" lon="-0.62273">
        <ele>1623</ele>
        <time>2021-06-18T21:31:52Z</time>
      </trkpt>
      <trkpt lat="42.81359" lon="-0.62252">
        <ele>1622</ele>
        <time>2021-06-18T21:31:57Z</time>
      </trkpt>
      <trkpt lat="42.81301" lon="-0.62156">
        <ele>1621</ele>
        <time>2021-06-18T21:32:18Z</time>
      </trkpt>
      <trkpt lat="42.81359" lon="-0.62252">
        <ele>1622</ele>
        <time>2021-06-18T21:32:39Z</time>
      </trkpt>
      <trkpt lat="42.81374" lon="-0.62273">
        <ele>1623</ele>
        <time>2021-06-18T21:32:45Z</time>
      </trkpt>
      <trkpt lat="42.81402" lon="-0.62282">
        <ele>1623</ele>
        <time>2021-06-18T21:32:51Z</time>
      </trkpt>
      <trkpt lat="42.81486" lon="-0.62269">
        <ele>1621</ele>
        <time>2021-06-18T21:33:11Z</time>
      </trkpt>
      <trkpt lat="42.81513" lon="-0.62285">
        <ele>1622</ele>
        <time>2021-06-18T21:33:18Z</time>
      </trkpt>
      <trkpt lat="42.81437" lon="-0.62305">
        <ele>1623</ele>
        <time>2021-06-18T21:33:36Z</time>
      </trkpt>
      <trkpt lat="42.81408" lon="-0.62328">
        <ele>1623</ele>
        <time>2021-06-18T21:33:44Z</time>
      </trkpt>
      <trkpt lat="42.81321" lon="-0.6231">
        <ele>1624</ele>
        <time>2021-06-18T21:34:04Z</time>
      </trkpt>
      <trkpt lat="42.8124" lon="-0.62276">
        <ele>1624</ele>
        <time>2021-06-18T21:34:24Z</time>
      </trkpt>
      <trkpt lat="42.81229" lon="-0.62284">
        <ele>1625</ele>
        <time>2021-06-18T21:34:27Z</time>
      </trkpt>
      <trkpt lat="42.81187" lon="-0.62221">
        <ele>1624</ele>
        <time>2021-06-18T21:34:42Z</time>
      </trkpt>
      <trkpt lat="42.81174" lon="-0.62158">
        <ele>1624</ele>
        <time>2021-06-18T21:34:53Z</time>
      </trkpt>
      <trkpt lat="42.8118" lon="-0.62105">
        <ele>1624</ele>
        <time>2021-06-18T21:35:02Z</time>
      </trkpt>
      <trkpt lat="42.81169" lon="-0.62037">
        <ele>1627</ele>
        <time>2021-06-18T21:35:14Z</time>
      </trkpt>
      <trkpt lat="42.81155" lon="-0.61987">
        <ele>1629</ele>
        <time>2021-06-18T21:35:23Z</time>
      </trkpt>
      <trkpt lat="42.81157" lon="-0.61955">
        <ele>1631</ele>
        <time>2021-06-18T21:35:29Z</time>
      </trkpt>
      <trkpt lat="42.81143" lon="-0.61892">
        <ele>1637</ele>
        <time>2021-06-18T21:35:40Z</time>
      </trkpt>
      <trkpt lat="42.81159" lon="-0.61874">
        <ele>1639</ele>
        <time>2021-06-18T21:35:45Z</time>
      </trkpt>
      <trkpt lat="42.81155" lon="-0.61851">
        <ele>1642</ele>
        <time>2021-06-18T21:35:49Z</time>
      </trkpt>
      <trkpt lat="42.81169" lon="-0.61767">
        <ele>1650</ele>
        <time>2021-06-18T21:36:04Z</time>
      </trkpt>
      <trkpt lat="42.8117" lon="-0.61724">
        <ele>1652</ele>
        <time>2021-06-18T21:36:11Z</time>
      </trkpt>
      <trkpt lat="42.81177" lon="-0.6168">
        <ele>1653</ele>
        <time>2021-06-18T21:36:19Z</time>
      </trkpt>
      <trkpt lat="42.81181" lon="-0.61623">
        <ele>1656</ele>
        <time>2021-06-18T21:36:28Z</time>
      </trkpt>
      <trkpt lat="42.81176" lon="-0.61549">
        <ele>1661</ele>
        <time>2021-06-18T21:36:41Z</time>
      </trkpt>
      <trkpt lat="42.81153" lon="-0.6148">
        <ele>1666</ele>
        <time>2021-06-18T21:36:54Z</time>
      </trkpt>
      <trkpt lat="42.81118" lon="-0.61416">
        <ele>1667</ele>
        <time>2021-06-18T21:37:08Z</time>
      </trkpt>
      <trkpt lat="42.81071" lon="-0.61352">
        <ele>1667</ele>
        <time>2021-06-18T21:37:23Z</time>
      </trkpt>
      <trkpt lat="42.81038" lon="-0.61296">
        <ele>1667</ele>
        <time>2021-06-18T21:37:36Z</time>
      </trkpt>
      <trkpt lat="42.80981" lon="-0.61259">
        <ele>1671</ele>
        <time>2021-06-18T21:37:50Z</time>
      </trkpt>
      <trkpt lat="42.80963" lon="-0.61219">
        <ele>1672</ele>
        <time>2021-06-18T21:37:58Z</time>
      </trkpt>
      <trkpt lat="42.8093" lon="-0.61185">
        <ele>1676</ele>
        <time>2021-06-18T21:38:08Z</time>
      </trkpt>
      <trkpt lat="42.80902" lon="-0.61164">
        <ele>1680</ele>
        <time>2021-06-18T21:38:16Z</time>
      </trkpt>
      <trkpt lat="42.80893" lon="-0.61131">
        <ele>1682</ele>
        <time>2021-06-18T21:38:22Z</time>
      </trkpt>
      <trkpt lat="42.80883" lon="-0.61116">
        <ele>1684</ele>
        <time>2021-06-18T21:38:25Z</time>
      </trkpt>
      <trkpt lat="42.80881" lon="-0.61101">
        <ele>1683</ele>
        <time>2021-06-18T21:38:28Z</time>
      </trkpt>
      <trkpt lat="42.80844" lon="-0.61039">
        <ele>1684</ele>
        <time>2021-06-18T21:38:41Z</time>
      </trkpt>
      <trkpt lat="42.80831" lon="-0.61041">
        <ele>1686</ele>
        <time>2021-06-18T21:38:44Z</time>
      </trkpt>
      <trkpt lat="42.80793" lon="-0.61079">
        <ele>1689</ele>
        <time>2021-06-18T21:38:55Z</time>
      </trkpt>
      <trkpt lat="42.80756" lon="-0.61097">
        <ele>1691</ele>
        <time>2021-06-18T21:39:05Z</time>
      </trkpt>
      <trkpt lat="42.80731" lon="-0.61071">
        <ele>1691</ele>
        <time>2021-06-18T21:39:12Z</time>
      </trkpt>
      <trkpt lat="42.80715" lon="-0.61075">
        <ele>1695</ele>
        <time>2021-06-18T21:39:16Z</time>
      </trkpt>
      <trkpt lat="42.80696" lon="-0.61066">
        <ele>1699</ele>
        <time>2021-06-18T21:39:20Z</time>
      </trkpt>
      <trkpt lat="42.80676" lon="-0.61038">
        <ele>1700</ele>
        <time>2021-06-18T21:39:27Z</time>
      </trkpt>
      <trkpt lat="42.80668" lon="-0.61032">
        <ele>1702</ele>
        <time>2021-06-18T21:39:29Z</time>
      </trkpt>
      <trkpt lat="42.80663" lon="-0.61019">
        <ele>1702</ele>
        <time>2021-06-18T21:39:32Z</time>
      </trkpt>
      <trkpt lat="42.80665" lon="-0.61004">
        <ele>1699</ele>
        <time>2021-06-18T21:39:34Z</time>
      </trkpt>
      <trkpt lat="42.80641" lon="-0.60966">
        <ele>1709</ele>
        <time>2021-06-18T21:39:43Z</time>
      </trkpt>
      <trkpt lat="42.80616" lon="-0.60955">
        <ele>1719</ele>
        <time>2021-06-18T21:39:49Z</time>
      </trkpt>
      <trkpt lat="42.80601" lon="-0.60937">
        <ele>1721</ele>
        <time>2021-06-18T21:39:54Z</time>
      </trkpt>
      <trkpt lat="42.80569" lon="-0.60839">
        <ele>1729</ele>
        <time>2021-06-18T21:40:12Z</time>
      </trkpt>
      <trkpt lat="42.80567" lon="-0.60816">
        <ele>1732</ele>
        <time>2021-06-18T21:40:16Z</time>
      </trkpt>
      <trkpt lat="42.80555" lon="-0.60796">
        <ele>1736</ele>
        <time>2021-06-18T21:40:21Z</time>
      </trkpt>
      <trkpt lat="42.80538" lon="-0.60803">
        <ele>1736</ele>
        <time>2021-06-18T21:40:25Z</time>
      </trkpt>
      <trkpt lat="42.80483" lon="-0.60778">
        <ele>1742</ele>
        <time>2021-06-18T21:40:38Z</time>
      </trkpt>
      <trkpt lat="42.80466" lon="-0.60761">
        <ele>1742</ele>
        <time>2021-06-18T21:40:43Z</time>
      </trkpt>
      <trkpt lat="42.80464" lon="-0.60749">
        <ele>1743</ele>
        <time>2021-06-18T21:40:45Z</time>
      </trkpt>
      <trkpt lat="42.80423" lon="-0.60708">
        <ele>1746</ele>
        <time>2021-06-18T21:40:57Z</time>
      </trkpt>
      <trkpt lat="42.80425" lon="-0.60665">
        <ele>1751</ele>
        <time>2021-06-18T21:41:05Z</time>
      </trkpt>
      <trkpt lat="42.80421" lon="-0.60623">
        <ele>1753</ele>
        <time>2021-06-18T21:41:12Z</time>
      </trkpt>
      <trkpt lat="42.80424" lon="-0.60594">
        <ele>1755</ele>
        <time>2021-06-18T21:41:17Z</time>
      </trkpt>
      <trkpt lat="42.80416" lon="-0.60586">
        <ele>1755</ele>
        <time>2021-06-18T21:41:19Z</time>
      </trkpt>
      <trkpt lat="42.80412" lon="-0.60553">
        <ele>1762</ele>
        <time>2021-06-18T21:41:25Z</time>
      </trkpt>
      <trkpt lat="42.8037" lon="-0.6047">
        <ele>1776</ele>
        <time>2021-06-18T21:41:42Z</time>
      </trkpt>
      <trkpt lat="42.80353" lon="-0.60448">
        <ele>1780</ele>
        <time>2021-06-18T21:41:48Z</time>
      </trkpt>
      <trkpt lat="42.80318" lon="-0.60424">
        <ele>1785</ele>
        <time>2021-06-18T21:41:57Z</time>
      </trkpt>
      <trkpt lat="42.80293" lon="-0.60429">
        <ele>1785</ele>
        <time>2021-06-18T21:42:03Z</time>
      </trkpt>
      <trkpt lat="42.80257" lon="-0.60416">
        <ele>1790</ele>
        <time>2021-06-18T21:42:11Z</time>
      </trkpt>
      <trkpt lat="42.80233" lon="-0.60392">
        <ele>1804</ele>
        <time>2021-06-18T21:42:18Z</time>
      </trkpt>
      <trkpt lat="42.80221" lon="-0.60376">
        <ele>1814</ele>
        <time>2021-06-18T21:42:22Z</time>
      </trkpt>
      <trkpt lat="42.80191" lon="-0.60359">
        <ele>1831</ele>
        <time>2021-06-18T21:42:30Z</time>
      </trkpt>
      <trkpt lat="42.80177" lon="-0.60368">
        <ele>1833</ele>
        <time>2021-06-18T21:42:33Z</time>
      </trkpt>
      <trkpt lat="42.80136" lon="-0.60373">
        <ele>1845</ele>
        <time>2021-06-18T21:42:43Z</time>
      </trkpt>
      <trkpt lat="42.80124" lon="-0.60372">
        <ele>1850</ele>
        <time>2021-06-18T21:42:46Z</time>
      </trkpt>
      <trkpt lat="42.80106" lon="-0.60383">
        <ele>1853</ele>
        <time>2021-06-18T21:42:50Z</time>
      </trkpt>
      <trkpt lat="42.80074" lon="-0.60389">
        <ele>1862</ele>
        <time>2021-06-18T21:42:58Z</time>
      </trkpt>
      <trkpt lat="42.80057" lon="-0.60374">
        <ele>1869</ele>
        <time>2021-06-18T21:43:03Z</time>
      </trkpt>
      <trkpt lat="42.80052" lon="-0.60382">
        <ele>1869</ele>
        <time>2021-06-18T21:43:05Z</time>
      </trkpt>
      <trkpt lat="42.80039" lon="-0.60391">
        <ele>1870</ele>
        <time>2021-06-18T21:43:08Z</time>
      </trkpt>
      <trkpt lat="42.79993" lon="-0.60433">
        <ele>1877</ele>
        <time>2021-06-18T21:43:21Z</time>
      </trkpt>
      <trkpt lat="42.7997" lon="-0.60473">
        <ele>1883</ele>
        <time>2021-06-18T21:43:30Z</time>
      </trkpt>
      <trkpt lat="42.79961" lon="-0.60476">
        <ele>1886</ele>
        <time>2021-06-18T21:43:32Z</time>
      </trkpt>
      <trkpt lat="42.79948" lon="-0.60504">
        <ele>1889</ele>
        <time>2021-06-18T21:43:37Z</time>
      </trkpt>
      <trkpt lat="42.79924" lon="-0.60507">
        <ele>1897</ele>
        <time>2021-06-18T21:43:43Z</time>
      </trkpt>
      <trkpt lat="42.79917" lon="-0.60515">
        <ele>1899</ele>
        <time>2021-06-18T21:43:45Z</time>
      </trkpt>
      <trkpt lat="42.79901" lon="-0.60513">
        <ele>1900</ele>
        <time>2021-06-18T21:43:49Z</time>
      </trkpt>
      <trkpt lat="42.79885" lon="-0.60516">
        <ele>1900</ele>
        <time>2021-06-18T21:43:53Z</time>
      </trkpt>
      <trkpt lat="42.79882" lon="-0.60505">
        <ele>1901</ele>
        <time>2021-06-18T21:43:55Z</time>
      </trkpt>
      <trkpt lat="42.79886" lon="-0.60494">
        <ele>1901</ele>
        <time>2021-06-18T21:43:57Z</time>
      </trkpt>
      <trkpt lat="42.79884" lon="-0.60478">
        <ele>1901</ele>
        <time>2021-06-18T21:44:00Z</time>
      </trkpt>
      <trkpt lat="42.79892" lon="-0.60458">
        <ele>1902</ele>
        <time>2021-06-18T21:44:03Z</time>
      </trkpt>
      <trkpt lat="42.79894" lon="-0.60433">
        <ele>1903</ele>
        <time>2021-06-18T21:44:08Z</time>
      </trkpt>
      <trkpt lat="42.799" lon="-0.60413">
        <ele>1904</ele>
        <time>2021-06-18T21:44:11Z</time>
      </trkpt>
      <trkpt lat="42.799" lon="-0.60357">
        <ele>1902</ele>
        <time>2021-06-18T21:44:21Z</time>
      </trkpt>
      <trkpt lat="42.79908" lon="-0.60312">
        <ele>1899</ele>
        <time>2021-06-18T21:44:29Z</time>
      </trkpt>
      <trkpt lat="42.7991" lon="-0.60269">
        <ele>1895</ele>
        <time>2021-06-18T21:44:36Z</time>
      </trkpt>
      <trkpt lat="42.79899" lon="-0.60237">
        <ele>1891</ele>
        <time>2021-06-18T21:44:42Z</time>
      </trkpt>
      <trkpt lat="42.79905" lon="-0.60221">
        <ele>1887</ele>
        <time>2021-06-18T21:44:46Z</time>
      </trkpt>
      <trkpt lat="42.7992" lon="-0.60213">
        <ele>1884</ele>
        <time>2021-06-18T21:44:49Z</time>
      </trkpt>
      <trkpt lat="42.79938" lon="-0.60216">
        <ele>1887</ele>
        <time>2021-06-18T21:44:54Z</time>
      </trkpt>
      <trkpt lat="42.79935" lon="-0.60199">
        <ele>1883</ele>
        <time>2021-06-18T21:44:57Z</time>
      </trkpt>
      <trkpt lat="42.79945" lon="-0.60181">
        <ele>1881</ele>
        <time>2021-06-18T21:45:00Z</time>
      </trkpt>
      <trkpt lat="42.79947" lon="-0.60159">
        <ele>1878</ele>
        <time>2021-06-18T21:45:04Z</time>
      </trkpt>
      <trkpt lat="42.79957" lon="-0.60145">
        <ele>1878</ele>
        <time>2021-06-18T21:45:08Z</time>
      </trkpt>
      <trkpt lat="42.79961" lon="-0.60121">
        <ele>1875</ele>
        <time>2021-06-18T21:45:12Z</time>
      </trkpt>
      <trkpt lat="42.79977" lon="-0.60105">
        <ele>1876</ele>
        <time>2021-06-18T21:45:16Z</time>
      </trkpt>
      <trkpt lat="42.79978" lon="-0.60096">
        <ele>1875</ele>
        <time>2021-06-18T21:45:18Z</time>
      </trkpt>
      <trkpt lat="42.79974" lon="-0.60087">
        <ele>1873</ele>
        <time>2021-06-18T21:45:20Z</time>
      </trkpt>
      <trkpt lat="42.79941" lon="-0.6005">
        <ele>1860</ele>
        <time>2021-06-18T21:45:30Z</time>
      </trkpt>
      <trkpt lat="42.79935" lon="-0.60037">
        <ele>1857</ele>
        <time>2021-06-18T21:45:32Z</time>
      </trkpt>
      <trkpt lat="42.79927" lon="-0.60041">
        <ele>1857</ele>
        <time>2021-06-18T21:45:34Z</time>
      </trkpt>
      <trkpt lat="42.79908" lon="-0.60068">
        <ele>1860</ele>
        <time>2021-06-18T21:45:41Z</time>
      </trkpt>
      <trkpt lat="42.79884" lon="-0.60086">
        <ele>1864</ele>
        <time>2021-06-18T21:45:47Z</time>
      </trkpt>
      <trkpt lat="42.79862" lon="-0.601">
        <ele>1867</ele>
        <time>2021-06-18T21:45:53Z</time>
      </trkpt>
      <trkpt lat="42.79838" lon="-0.60103">
        <ele>1869</ele>
        <time>2021-06-18T21:45:58Z</time>
      </trkpt>
      <trkpt lat="42.79829" lon="-0.60063">
        <ele>1865</ele>
        <time>2021-06-18T21:46:06Z</time>
      </trkpt>
      <trkpt lat="42.79834" lon="-0.60037">
        <ele>1863</ele>
        <time>2021-06-18T21:46:10Z</time>
      </trkpt>
      <trkpt lat="42.79834" lon="-0.60013">
        <ele>1862</ele>
        <time>2021-06-18T21:46:14Z</time>
      </trkpt>
      <trkpt lat="42.79837" lon="-0.60006">
        <ele>1861</ele>
        <time>2021-06-18T21:46:16Z</time>
      </trkpt>
      <trkpt lat="42.79835" lon="-0.59999">
        <ele>1861</ele>
        <time>2021-06-18T21:46:17Z</time>
      </trkpt>
      <trkpt lat="42.79828" lon="-0.59999">
        <ele>1862</ele>
        <time>2021-06-18T21:46:19Z</time>
      </trkpt>
      <trkpt lat="42.79824" lon="-0.59993">
        <ele>1863</ele>
        <time>2021-06-18T21:46:20Z</time>
      </trkpt>
      <trkpt lat="42.79829" lon="-0.59978">
        <ele>1859</ele>
        <time>2021-06-18T21:46:23Z</time>
      </trkpt>
      <trkpt lat="42.79822" lon="-0.59965">
        <ele>1859</ele>
        <time>2021-06-18T21:46:26Z</time>
      </trkpt>
      <trkpt lat="42.79794" lon="-0.59963">
        <ele>1867</ele>
        <time>2021-06-18T21:46:32Z</time>
      </trkpt>
      <trkpt lat="42.79776" lon="-0.59913">
        <ele>1864</ele>
        <time>2021-06-18T21:46:42Z</time>
      </trkpt>
      <trkpt lat="42.79768" lon="-0.59911">
        <ele>1865</ele>
        <time>2021-06-18T21:46:44Z</time>
      </trkpt>
      <trkpt lat="42.7976" lon="-0.59917">
        <ele>1868</ele>
        <time>2021-06-18T21:46:46Z</time>
      </trkpt>
      <trkpt lat="42.79743" lon="-0.59903">
        <ele>1870</ele>
        <time>2021-06-18T21:46:50Z</time>
      </trkpt>
      <trkpt lat="42.79735" lon="-0.59884">
        <ele>1869</ele>
        <time>2021-06-18T21:46:54Z</time>
      </trkpt>
      <trkpt lat="42.7972" lon="-0.5986">
        <ele>1869</ele>
        <time>2021-06-18T21:47:00Z</time>
      </trkpt>
      <trkpt lat="42.79712" lon="-0.59859">
        <ele>1872</ele>
        <time>2021-06-18T21:47:01Z</time>
      </trkpt>
      <trkpt lat="42.7971" lon="-0.59831">
        <ele>1867</ele>
        <time>2021-06-18T21:47:06Z</time>
      </trkpt>
      <trkpt lat="42.79715" lon="-0.59816">
        <ele>1862</ele>
        <time>2021-06-18T21:47:09Z</time>
      </trkpt>
      <trkpt lat="42.79704" lon="-0.59785">
        <ele>1858</ele>
        <time>2021-06-18T21:47:15Z</time>
      </trkpt>
      <trkpt lat="42.79684" lon="-0.59768">
        <ele>1860</ele>
        <time>2021-06-18T21:47:20Z</time>
      </trkpt>
      <trkpt lat="42.79655" lon="-0.5975">
        <ele>1859</ele>
        <time>2021-06-18T21:47:28Z</time>
      </trkpt>
      <trkpt lat="42.79637" lon="-0.59752">
        <ele>1857</ele>
        <time>2021-06-18T21:47:32Z</time>
      </trkpt>
      <trkpt lat="42.796" lon="-0.59767">
        <ele>1857</ele>
        <time>2021-06-18T21:47:41Z</time>
      </trkpt>
      <trkpt lat="42.79591" lon="-0.59753">
        <ele>1851</ele>
        <time>2021-06-18T21:47:44Z</time>
      </trkpt>
      <trkpt lat="42.79584" lon="-0.59765">
        <ele>1854</ele>
        <time>2021-06-18T21:47:47Z</time>
      </trkpt>
      <trkpt lat="42.7957" lon="-0.59764">
        <ele>1854</ele>
        <time>2021-06-18T21:47:50Z</time>
      </trkpt>
      <trkpt lat="42.79545" lon="-0.59771">
        <ele>1856</ele>
        <time>2021-06-18T21:47:56Z</time>
      </trkpt>
      <trkpt lat="42.7953" lon="-0.59772">
        <ele>1856</ele>
        <time>2021-06-18T21:48:00Z</time>
      </trkpt>
      <trkpt lat="42.79521" lon="-0.59766">
        <ele>1854</ele>
        <time>2021-06-18T21:48:02Z</time>
      </trkpt>
      <trkpt lat="42.79512" lon="-0.59751">
        <ele>1848</ele>
        <time>2021-06-18T21:48:05Z</time>
      </trkpt>
      <trkpt lat="42.79508" lon="-0.59749">
        <ele>1848</ele>
        <time>2021-06-18T21:48:06Z</time>
      </trkpt>
      <trkpt lat="42.79505" lon="-0.59734">
        <ele>1842</ele>
        <time>2021-06-18T21:48:09Z</time>
      </trkpt>
      <trkpt lat="42.79488" lon="-0.59715">
        <ele>1841</ele>
        <time>2021-06-18T21:48:14Z</time>
      </trkpt>
      <trkpt lat="42.7948" lon="-0.59698">
        <ele>1839</ele>
        <time>2021-06-18T21:48:18Z</time>
      </trkpt>
      <trkpt lat="42.79467" lon="-0.59681">
        <ele>1839</ele>
        <time>2021-06-18T21:48:22Z</time>
      </trkpt>
      <trkpt lat="42.79461" lon="-0.59666">
        <ele>1837</ele>
        <time>2021-06-18T21:48:25Z</time>
      </trkpt>
      <trkpt lat="42.79464" lon="-0.59648">
        <ele>1834</ele>
        <time>2021-06-18T21:48:28Z</time>
      </trkpt>
      <trkpt lat="42.7946" lon="-0.59632">
        <ele>1834</ele>
        <time>2021-06-18T21:48:31Z</time>
      </trkpt>
      <trkpt lat="42.79461" lon="-0.59601">
        <ele>1830</ele>
        <time>2021-06-18T21:48:36Z</time>
      </trkpt>
      <trkpt lat="42.79471" lon="-0.59573">
        <ele>1823</ele>
        <time>2021-06-18T21:48:41Z</time>
      </trkpt>
      <trkpt lat="42.79472" lon="-0.59561">
        <ele>1822</ele>
        <time>2021-06-18T21:48:44Z</time>
      </trkpt>
      <trkpt lat="42.79484" lon="-0.59543">
        <ele>1817</ele>
        <time>2021-06-18T21:48:48Z</time>
      </trkpt>
      <trkpt lat="42.79497" lon="-0.595">
        <ele>1813</ele>
        <time>2021-06-18T21:48:56Z</time>
      </trkpt>
      <trkpt lat="42.79528" lon="-0.59432">
        <ele>1812</ele>
        <time>2021-06-18T21:49:09Z</time>
      </trkpt>
      <trkpt lat="42.79538" lon="-0.59415">
        <ele>1811</ele>
        <time>2021-06-18T21:49:13Z</time>
      </trkpt>
      <trkpt lat="42.79542" lon="-0.59418">
        <ele>1810</ele>
        <time>2021-06-18T21:49:14Z</time>
      </trkpt>
      <trkpt lat="42.79547" lon="-0.59399">
        <ele>1811</ele>
        <time>2021-06-18T21:49:18Z</time>
      </trkpt>
      <trkpt lat="42.79554" lon="-0.59385">
        <ele>1810</ele>
        <time>2021-06-18T21:49:21Z</time>
      </trkpt>
      <trkpt lat="42.79557" lon="-0.59365">
        <ele>1811</ele>
        <time>2021-06-18T21:49:24Z</time>
      </trkpt>
      <trkpt lat="42.7957" lon="-0.59346">
        <ele>1810</ele>
        <time>2021-06-18T21:49:29Z</time>
      </trkpt>
      <trkpt lat="42.79576" lon="-0.59328">
        <ele>1809</ele>
        <time>2021-06-18T21:49:32Z</time>
      </trkpt>
      <trkpt lat="42.7957" lon="-0.59316">
        <ele>1811</ele>
        <time>2021-06-18T21:49:34Z</time>
      </trkpt>
      <trkpt lat="42.79569" lon="-0.59279">
        <ele>1810</ele>
        <time>2021-06-18T21:49:41Z</time>
      </trkpt>
      <trkpt lat="42.79564" lon="-0.59272">
        <ele>1812</ele>
        <time>2021-06-18T21:49:42Z</time>
      </trkpt>
      <trkpt lat="42.79562" lon="-0.59259">
        <ele>1813</ele>
        <time>2021-06-18T21:49:45Z</time>
      </trkpt>
      <trkpt lat="42.79565" lon="-0.59243">
        <ele>1811</ele>
        <time>2021-06-18T21:49:48Z</time>
      </trkpt>
      <trkpt lat="42.79554" lon="-0.59231">
        <ele>1816</ele>
        <time>2021-06-18T21:49:51Z</time>
      </trkpt>
      <trkpt lat="42.79554" lon="-0.59224">
        <ele>1816</ele>
        <time>2021-06-18T21:49:52Z</time>
      </trkpt>
      <trkpt lat="42.79563" lon="-0.59214">
        <ele>1812</ele>
        <time>2021-06-18T21:49:55Z</time>
      </trkpt>
      <trkpt lat="42.79573" lon="-0.59214">
        <ele>1807</ele>
        <time>2021-06-18T21:49:57Z</time>
      </trkpt>
      <trkpt lat="42.7959" lon="-0.59199">
        <ele>1798</ele>
        <time>2021-06-18T21:50:02Z</time>
      </trkpt>
      <trkpt lat="42.79603" lon="-0.59192">
        <ele>1792</ele>
        <time>2021-06-18T21:50:05Z</time>
      </trkpt>
      <trkpt lat="42.79626" lon="-0.59142">
        <ele>1783</ele>
        <time>2021-06-18T21:50:15Z</time>
      </trkpt>
      <trkpt lat="42.79645" lon="-0.5912">
        <ele>1777</ele>
        <time>2021-06-18T21:50:21Z</time>
      </trkpt>
      <trkpt lat="42.79648" lon="-0.59108">
        <ele>1777</ele>
        <time>2021-06-18T21:50:23Z</time>
      </trkpt>
      <trkpt lat="42.79644" lon="-0.5909">
        <ele>1781</ele>
        <time>2021-06-18T21:50:26Z</time>
      </trkpt>
      <trkpt lat="42.79655" lon="-0.59056">
        <ele>1779</ele>
        <time>2021-06-18T21:50:33Z</time>
      </trkpt>
      <trkpt lat="42.79664" lon="-0.59047">
        <ele>1775</ele>
        <time>2021-06-18T21:50:35Z</time>
      </trkpt>
      <trkpt lat="42.79679" lon="-0.58998">
        <ele>1774</ele>
        <time>2021-06-18T21:50:44Z</time>
      </trkpt>
      <trkpt lat="42.79689" lon="-0.58975">
        <ele>1774</ele>
        <time>2021-06-18T21:50:49Z</time>
      </trkpt>
      <trkpt lat="42.79698" lon="-0.58969">
        <ele>1772</ele>
        <time>2021-06-18T21:50:51Z</time>
      </trkpt>
      <trkpt lat="42.79707" lon="-0.58946">
        <ele>1771</ele>
        <time>2021-06-18T21:50:56Z</time>
      </trkpt>
      <trkpt lat="42.79708" lon="-0.58919">
        <ele>1774</ele>
        <time>2021-06-18T21:51:00Z</time>
      </trkpt>
      <trkpt lat="42.79703" lon="-0.58899">
        <ele>1778</ele>
        <time>2021-06-18T21:51:04Z</time>
      </trkpt>
      <trkpt lat="42.79708" lon="-0.58893">
        <ele>1777</ele>
        <time>2021-06-18T21:51:06Z</time>
      </trkpt>
      <trkpt lat="42.79715" lon="-0.58862">
        <ele>1778</ele>
        <time>2021-06-18T21:51:11Z</time>
      </trkpt>
      <trkpt lat="42.79711" lon="-0.58852">
        <ele>1781</ele>
        <time>2021-06-18T21:51:13Z</time>
      </trkpt>
      <trkpt lat="42.79705" lon="-0.58846">
        <ele>1784</ele>
        <time>2021-06-18T21:51:15Z</time>
      </trkpt>
      <trkpt lat="42.79698" lon="-0.58812">
        <ele>1790</ele>
        <time>2021-06-18T21:51:21Z</time>
      </trkpt>
      <trkpt lat="42.79704" lon="-0.58809">
        <ele>1787</ele>
        <time>2021-06-18T21:51:22Z</time>
      </trkpt>
      <trkpt lat="42.79708" lon="-0.58814">
        <ele>1785</ele>
        <time>2021-06-18T21:51:24Z</time>
      </trkpt>
      <trkpt lat="42.79717" lon="-0.58791">
        <ele>1782</ele>
        <time>2021-06-18T21:51:28Z</time>
      </trkpt>
      <trkpt lat="42.79724" lon="-0.5879">
        <ele>1779</ele>
        <time>2021-06-18T21:51:30Z</time>
      </trkpt>
      <trkpt lat="42.79731" lon="-0.58775">
        <ele>1776</ele>
        <time>2021-06-18T21:51:33Z</time>
      </trkpt>
      <trkpt lat="42.79746" lon="-0.5876">
        <ele>1769</ele>
        <time>2021-06-18T21:51:37Z</time>
      </trkpt>
      <trkpt lat="42.79759" lon="-0.58709">
        <ele>1765</ele>
        <time>2021-06-18T21:51:46Z</time>
      </trkpt>
      <trkpt lat="42.79763" lon="-0.58703">
        <ele>1765</ele>
        <time>2021-06-18T21:51:48Z</time>
      </trkpt>
      <trkpt lat="42.79763" lon="-0.58689">
        <ele>1765</ele>
        <time>2021-06-18T21:51:50Z</time>
      </trkpt>
      <trkpt lat="42.79758" lon="-0.58657">
        <ele>1765</ele>
        <time>2021-06-18T21:51:56Z</time>
      </trkpt>
      <trkpt lat="42.79759" lon="-0.58636">
        <ele>1765</ele>
        <time>2021-06-18T21:51:59Z</time>
      </trkpt>
      <trkpt lat="42.79756" lon="-0.58627">
        <ele>1765</ele>
        <time>2021-06-18T21:52:01Z</time>
      </trkpt>
      <trkpt lat="42.79759" lon="-0.58586">
        <ele>1765</ele>
        <time>2021-06-18T21:52:08Z</time>
      </trkpt>
      <trkpt lat="42.79753" lon="-0.58545">
        <ele>1772</ele>
        <time>2021-06-18T21:52:15Z</time>
      </trkpt>
      <trkpt lat="42.79752" lon="-0.58495">
        <ele>1780</ele>
        <time>2021-06-18T21:52:24Z</time>
      </trkpt>
      <trkpt lat="42.7975" lon="-0.58489">
        <ele>1782</ele>
        <time>2021-06-18T21:52:25Z</time>
      </trkpt>
      <trkpt lat="42.79687" lon="-0.58422">
        <ele>1796</ele>
        <time>2021-06-18T21:52:44Z</time>
      </trkpt>
      <trkpt lat="42.79681" lon="-0.58383">
        <ele>1798</ele>
        <time>2021-06-18T21:52:51Z</time>
      </trkpt>
      <trkpt lat="42.79681" lon="-0.58346">
        <ele>1800</ele>
        <time>2021-06-18T21:52:57Z</time>
      </trkpt>
      <trkpt lat="42.79685" lon="-0.58302">
        <ele>1799</ele>
        <time>2021-06-18T21:53:04Z</time>
      </trkpt>
      <trkpt lat="42.79702" lon="-0.58191">
        <ele>1794</ele>
        <time>2021-06-18T21:53:24Z</time>
      </trkpt>
      <trkpt lat="42.79706" lon="-0.58148">
        <ele>1794</ele>
        <time>2021-06-18T21:53:31Z</time>
      </trkpt>
      <trkpt lat="42.79717" lon="-0.58099">
        <ele>1795</ele>
        <time>2021-06-18T21:53:40Z</time>
      </trkpt>
      <trkpt lat="42.79732" lon="-0.58069">
        <ele>1792</ele>
        <time>2021-06-18T21:53:46Z</time>
      </trkpt>
      <trkpt lat="42.79767" lon="-0.5797">
        <ele>1784</ele>
        <time>2021-06-18T21:54:05Z</time>
      </trkpt>
      <trkpt lat="42.79766" lon="-0.57952">
        <ele>1783</ele>
        <time>2021-06-18T21:54:08Z</time>
      </trkpt>
      <trkpt lat="42.79769" lon="-0.5793">
        <ele>1783</ele>
        <time>2021-06-18T21:54:12Z</time>
      </trkpt>
      <trkpt lat="42.79782" lon="-0.57911">
        <ele>1785</ele>
        <time>2021-06-18T21:54:17Z</time>
      </trkpt>
      <trkpt lat="42.79808" lon="-0.57791">
        <ele>1780</ele>
        <time>2021-06-18T21:54:38Z</time>
      </trkpt>
      <trkpt lat="42.79808" lon="-0.57744">
        <ele>1773</ele>
        <time>2021-06-18T21:54:46Z</time>
      </trkpt>
      <trkpt lat="42.79821" lon="-0.57725">
        <ele>1769</ele>
        <time>2021-06-18T21:54:51Z</time>
      </trkpt>
      <trkpt lat="42.79833" lon="-0.57722">
        <ele>1767</ele>
        <time>2021-06-18T21:54:53Z</time>
      </trkpt>
      <trkpt lat="42.79845" lon="-0.57714">
        <ele>1767</ele>
        <time>2021-06-18T21:54:56Z</time>
      </trkpt>
      <trkpt lat="42.79848" lon="-0.57703">
        <ele>1765</ele>
        <time>2021-06-18T21:54:58Z</time>
      </trkpt>
      <trkpt lat="42.7986" lon="-0.57703">
        <ele>1766</ele>
        <time>2021-06-18T21:55:01Z</time>
      </trkpt>
      <trkpt lat="42.79891" lon="-0.57657">
        <ele>1758</ele>
        <time>2021-06-18T21:55:12Z</time>
      </trkpt>
      <trkpt lat="42.79916" lon="-0.57633">
        <ele>1753</ele>
        <time>2021-06-18T21:55:19Z</time>
      </trkpt>
      <trkpt lat="42.79935" lon="-0.57591">
        <ele>1748</ele>
        <time>2021-06-18T21:55:28Z</time>
      </trkpt>
      <trkpt lat="42.79955" lon="-0.57566">
        <ele>1746</ele>
        <time>2021-06-18T21:55:34Z</time>
      </trkpt>
      <trkpt lat="42.79959" lon="-0.57529">
        <ele>1739</ele>
        <time>2021-06-18T21:55:40Z</time>
      </trkpt>
      <trkpt lat="42.7999" lon="-0.57469">
        <ele>1736</ele>
        <time>2021-06-18T21:55:53Z</time>
      </trkpt>
      <trkpt lat="42.79993" lon="-0.57421">
        <ele>1729</ele>
        <time>2021-06-18T21:56:01Z</time>
      </trkpt>
      <trkpt lat="42.79991" lon="-0.57353">
        <ele>1726</ele>
        <time>2021-06-18T21:56:13Z</time>
      </trkpt>
      <trkpt lat="42.80003" lon="-0.57307">
        <ele>1726</ele>
        <time>2021-06-18T21:56:21Z</time>
      </trkpt>
      <trkpt lat="42.80004" lon="-0.57278">
        <ele>1723</ele>
        <time>2021-06-18T21:56:26Z</time>
      </trkpt>
      <trkpt lat="42.79993" lon="-0.57104">
        <ele>1694</ele>
        <time>2021-06-18T21:56:56Z</time>
      </trkpt>
      <trkpt lat="42.7998" lon="-0.57087">
        <ele>1689</ele>
        <time>2021-06-18T21:57:00Z</time>
      </trkpt>
      <trkpt lat="42.79977" lon="-0.57058">
        <ele>1687</ele>
        <time>2021-06-18T21:57:05Z</time>
      </trkpt>
      <trkpt lat="42.79954" lon="-0.57001">
        <ele>1684</ele>
        <time>2021-06-18T21:57:16Z</time>
      </trkpt>
      <trkpt lat="42.79957" lon="-0.56935">
        <ele>1681</ele>
        <time>2021-06-18T21:57:28Z</time>
      </trkpt>
      <trkpt lat="42.79934" lon="-0.56886">
        <ele>1676</ele>
        <time>2021-06-18T21:57:38Z</time>
      </trkpt>
      <trkpt lat="42.79927" lon="-0.56857">
        <ele>1671</ele>
        <time>2021-06-18T21:57:43Z</time>
      </trkpt>
      <trkpt lat="42.79911" lon="-0.56844">
        <ele>1668</ele>
        <time>2021-06-18T21:57:47Z</time>
      </trkpt>
      <trkpt lat="42.79903" lon="-0.56849">
        <ele>1667</ele>
        <time>2021-06-18T21:57:49Z</time>
      </trkpt>
      <trkpt lat="42.79889" lon="-0.56873">
        <ele>1670</ele>
        <time>2021-06-18T21:57:55Z</time>
      </trkpt>
      <trkpt lat="42.79867" lon="-0.56878">
        <ele>1669</ele>
        <time>2021-06-18T21:58:00Z</time>
      </trkpt>
      <trkpt lat="42.79861" lon="-0.56885">
        <ele>1671</ele>
        <time>2021-06-18T21:58:02Z</time>
      </trkpt>
      <trkpt lat="42.79843" lon="-0.5689">
        <ele>1671</ele>
        <time>2021-06-18T21:58:06Z</time>
      </trkpt>
      <trkpt lat="42.79818" lon="-0.56881">
        <ele>1664</ele>
        <time>2021-06-18T21:58:12Z</time>
      </trkpt>
      <trkpt lat="42.79788" lon="-0.56891">
        <ele>1664</ele>
        <time>2021-06-18T21:58:19Z</time>
      </trkpt>
      <trkpt lat="42.79762" lon="-0.5689">
        <ele>1660</ele>
        <time>2021-06-18T21:58:25Z</time>
      </trkpt>
      <trkpt lat="42.79703" lon="-0.56914">
        <ele>1660</ele>
        <time>2021-06-18T21:58:40Z</time>
      </trkpt>
      <trkpt lat="42.79691" lon="-0.56916">
        <ele>1658</ele>
        <time>2021-06-18T21:58:43Z</time>
      </trkpt>
      <trkpt lat="42.79679" lon="-0.56926">
        <ele>1660</ele>
        <time>2021-06-18T21:58:46Z</time>
      </trkpt>
      <trkpt lat="42.79646" lon="-0.56929">
        <ele>1656</ele>
        <time>2021-06-18T21:58:54Z</time>
      </trkpt>
      <trkpt lat="42.79637" lon="-0.56923">
        <ele>1653</ele>
        <time>2021-06-18T21:58:56Z</time>
      </trkpt>
      <trkpt lat="42.79596" lon="-0.56935">
        <ele>1652</ele>
        <time>2021-06-18T21:59:06Z</time>
      </trkpt>
      <trkpt lat="42.79585" lon="-0.56948">
        <ele>1654</ele>
        <time>2021-06-18T21:59:09Z</time>
      </trkpt>
      <trkpt lat="42.79564" lon="-0.56958">
        <ele>1654</ele>
        <time>2021-06-18T21:59:14Z</time>
      </trkpt>
      <trkpt lat="42.79544" lon="-0.56957">
        <ele>1651</ele>
        <time>2021-06-18T21:59:19Z</time>
      </trkpt>
      <trkpt lat="42.79533" lon="-0.56952">
        <ele>1648</ele>
        <time>2021-06-18T21:59:22Z</time>
      </trkpt>
      <trkpt lat="42.79498" lon="-0.56904">
        <ele>1635</ele>
        <time>2021-06-18T21:59:33Z</time>
      </trkpt>
      <trkpt lat="42.79489" lon="-0.56902">
        <ele>1634</ele>
        <time>2021-06-18T21:59:35Z</time>
      </trkpt>
      <trkpt lat="42.79483" lon="-0.56932">
        <ele>1639</ele>
        <time>2021-06-18T21:59:41Z</time>
      </trkpt>
      <trkpt lat="42.79483" lon="-0.56943">
        <ele>1642</ele>
        <time>2021-06-18T21:59:43Z</time>
      </trkpt>
      <trkpt lat="42.7948" lon="-0.56953">
        <ele>1644</ele>
        <time>2021-06-18T21:59:44Z</time>
      </trkpt>
      <trkpt lat="42.79476" lon="-0.56956">
        <ele>1645</ele>
        <time>2021-06-18T21:59:46Z</time>
      </trkpt>
      <trkpt lat="42.79465" lon="-0.56953">
        <ele>1644</ele>
        <time>2021-06-18T21:59:48Z</time>
      </trkpt>
      <trkpt lat="42.79459" lon="-0.56956">
        <ele>1644</ele>
        <time>2021-06-18T21:59:50Z</time>
      </trkpt>
      <trkpt lat="42.79409" lon="-0.5694">
        <ele>1638</ele>
        <time>2021-06-18T22:00:02Z</time>
      </trkpt>
      <trkpt lat="42.79399" lon="-0.56933">
        <ele>1636</ele>
        <time>2021-06-18T22:00:04Z</time>
      </trkpt>
      <trkpt lat="42.79386" lon="-0.56928">
        <ele>1635</ele>
        <time>2021-06-18T22:00:07Z</time>
      </trkpt>
      <trkpt lat="42.7937" lon="-0.56929">
        <ele>1637</ele>
        <time>2021-06-18T22:00:11Z</time>
      </trkpt>
      <trkpt lat="42.79324" lon="-0.56921">
        <ele>1636</ele>
        <time>2021-06-18T22:00:22Z</time>
      </trkpt>
      <trkpt lat="42.79309" lon="-0.56915">
        <ele>1635</ele>
        <time>2021-06-18T22:00:26Z</time>
      </trkpt>
      <trkpt lat="42.79292" lon="-0.56912">
        <ele>1635</ele>
        <time>2021-06-18T22:00:30Z</time>
      </trkpt>
      <trkpt lat="42.7928" lon="-0.56906">
        <ele>1635</ele>
        <time>2021-06-18T22:00:33Z</time>
      </trkpt>
      <trkpt lat="42.79262" lon="-0.56907">
        <ele>1636</ele>
        <time>2021-06-18T22:00:37Z</time>
      </trkpt>
      <trkpt lat="42.79241" lon="-0.56923">
        <ele>1638</ele>
        <time>2021-06-18T22:00:42Z</time>
      </trkpt>
      <trkpt lat="42.79217" lon="-0.56963">
        <ele>1638</ele>
        <time>2021-06-18T22:00:51Z</time>
      </trkpt>
      <trkpt lat="42.79207" lon="-0.56971">
        <ele>1635</ele>
        <time>2021-06-18T22:00:54Z</time>
      </trkpt>
      <trkpt lat="42.79203" lon="-0.56969">
        <ele>1633</ele>
        <time>2021-06-18T22:00:55Z</time>
      </trkpt>
      <trkpt lat="42.79199" lon="-0.56973">
        <ele>1633</ele>
        <time>2021-06-18T22:00:56Z</time>
      </trkpt>
      <trkpt lat="42.79194" lon="-0.56983">
        <ele>1632</ele>
        <time>2021-06-18T22:00:58Z</time>
      </trkpt>
      <trkpt lat="42.79185" lon="-0.56991">
        <ele>1630</ele>
        <time>2021-06-18T22:01:01Z</time>
      </trkpt>
      <trkpt lat="42.79176" lon="-0.57012">
        <ele>1630</ele>
        <time>2021-06-18T22:01:05Z</time>
      </trkpt>
      <trkpt lat="42.79162" lon="-0.57019">
        <ele>1628</ele>
        <time>2021-06-18T22:01:08Z</time>
      </trkpt>
      <trkpt lat="42.79156" lon="-0.57035">
        <ele>1632</ele>
        <time>2021-06-18T22:01:11Z</time>
      </trkpt>
      <trkpt lat="42.7915" lon="-0.57038">
        <ele>1633</ele>
        <time>2021-06-18T22:01:13Z</time>
      </trkpt>
      <trkpt lat="42.79129" lon="-0.57019">
        <ele>1630</ele>
        <time>2021-06-18T22:01:19Z</time>
      </trkpt>
      <trkpt lat="42.79115" lon="-0.57018">
        <ele>1630</ele>
        <time>2021-06-18T22:01:22Z</time>
      </trkpt>
      <trkpt lat="42.79104" lon="-0.57013">
        <ele>1629</ele>
        <time>2021-06-18T22:01:25Z</time>
      </trkpt>
      <trkpt lat="42.79064" lon="-0.56971">
        <ele>1625</ele>
        <time>2021-06-18T22:01:37Z</time>
      </trkpt>
      <trkpt lat="42.79056" lon="-0.56967">
        <ele>1626</ele>
        <time>2021-06-18T22:01:39Z</time>
      </trkpt>
      <trkpt lat="42.79046" lon="-0.56968">
        <ele>1628</ele>
        <time>2021-06-18T22:01:41Z</time>
      </trkpt>
      <trkpt lat="42.7903" lon="-0.56961">
        <ele>1629</ele>
        <time>2021-06-18T22:01:45Z</time>
      </trkpt>
      <trkpt lat="42.79019" lon="-0.56948">
        <ele>1629</ele>
        <time>2021-06-18T22:01:48Z</time>
      </trkpt>
      <trkpt lat="42.79019" lon="-0.56935">
        <ele>1626</ele>
        <time>2021-06-18T22:01:50Z</time>
      </trkpt>
      <trkpt lat="42.7901" lon="-0.56926">
        <ele>1626</ele>
        <time>2021-06-18T22:01:53Z</time>
      </trkpt>
      <trkpt lat="42.7899" lon="-0.56926">
        <ele>1630</ele>
        <time>2021-06-18T22:01:58Z</time>
      </trkpt>
      <trkpt lat="42.78971" lon="-0.56911">
        <ele>1631</ele>
        <time>2021-06-18T22:02:03Z</time>
      </trkpt>
      <trkpt lat="42.78962" lon="-0.56895">
        <ele>1630</ele>
        <time>2021-06-18T22:02:06Z</time>
      </trkpt>
      <trkpt lat="42.78942" lon="-0.56888">
        <ele>1632</ele>
        <time>2021-06-18T22:02:11Z</time>
      </trkpt>
      <trkpt lat="42.78915" lon="-0.56862">
        <ele>1631</ele>
        <time>2021-06-18T22:02:19Z</time>
      </trkpt>
      <trkpt lat="42.78906" lon="-0.56847">
        <ele>1625</ele>
        <time>2021-06-18T22:02:22Z</time>
      </trkpt>
      <trkpt lat="42.78892" lon="-0.56848">
        <ele>1623</ele>
        <time>2021-06-18T22:02:25Z</time>
      </trkpt>
      <trkpt lat="42.78885" lon="-0.56846">
        <ele>1621</ele>
        <time>2021-06-18T22:02:27Z</time>
      </trkpt>
      <trkpt lat="42.78868" lon="-0.5685">
        <ele>1619</ele>
        <time>2021-06-18T22:02:31Z</time>
      </trkpt>
      <trkpt lat="42.78849" lon="-0.56865">
        <ele>1620</ele>
        <time>2021-06-18T22:02:36Z</time>
      </trkpt>
      <trkpt lat="42.78829" lon="-0.56863">
        <ele>1616</ele>
        <time>2021-06-18T22:02:41Z</time>
      </trkpt>
      <trkpt lat="42.7881" lon="-0.56875">
        <ele>1619</ele>
        <time>2021-06-18T22:02:46Z</time>
      </trkpt>
      <trkpt lat="42.788" lon="-0.56875">
        <ele>1618</ele>
        <time>2021-06-18T22:02:48Z</time>
      </trkpt>
      <trkpt lat="42.78794" lon="-0.5688">
        <ele>1620</ele>
        <time>2021-06-18T22:02:50Z</time>
      </trkpt>
      <trkpt lat="42.78771" lon="-0.56883">
        <ele>1619</ele>
        <time>2021-06-18T22:02:55Z</time>
      </trkpt>
      <trkpt lat="42.78741" lon="-0.5688">
        <ele>1616</ele>
        <time>2021-06-18T22:03:02Z</time>
      </trkpt>
      <trkpt lat="42.78718" lon="-0.56895">
        <ele>1621</ele>
        <time>2021-06-18T22:03:08Z</time>
      </trkpt>
      <trkpt lat="42.78702" lon="-0.56912">
        <ele>1625</ele>
        <time>2021-06-18T22:03:13Z</time>
      </trkpt>
      <trkpt lat="42.78681" lon="-0.56918">
        <ele>1626</ele>
        <time>2021-06-18T22:03:18Z</time>
      </trkpt>
      <trkpt lat="42.78677" lon="-0.56913">
        <ele>1624</ele>
        <time>2021-06-18T22:03:19Z</time>
      </trkpt>
      <trkpt lat="42.78655" lon="-0.56919">
        <ele>1625</ele>
        <time>2021-06-18T22:03:24Z</time>
      </trkpt>
      <trkpt lat="42.78611" lon="-0.56936">
        <ele>1632</ele>
        <time>2021-06-18T22:03:35Z</time>
      </trkpt>
      <trkpt lat="42.78601" lon="-0.56933">
        <ele>1630</ele>
        <time>2021-06-18T22:03:38Z</time>
      </trkpt>
      <trkpt lat="42.78597" lon="-0.56928">
        <ele>1628</ele>
        <time>2021-06-18T22:03:39Z</time>
      </trkpt>
      <trkpt lat="42.78591" lon="-0.5691">
        <ele>1620</ele>
        <time>2021-06-18T22:03:42Z</time>
      </trkpt>
      <trkpt lat="42.7858" lon="-0.56911">
        <ele>1620</ele>
        <time>2021-06-18T22:03:45Z</time>
      </trkpt>
      <trkpt lat="42.78567" lon="-0.56921">
        <ele>1621</ele>
        <time>2021-06-18T22:03:48Z</time>
      </trkpt>
      <trkpt lat="42.78536" lon="-0.56922">
        <ele>1613</ele>
        <time>2021-06-18T22:03:56Z</time>
      </trkpt>
      <trkpt lat="42.78499" lon="-0.56945">
        <ele>1614</ele>
        <time>2021-06-18T22:04:05Z</time>
      </trkpt>
      <trkpt lat="42.7847" lon="-0.56978">
        <ele>1626</ele>
        <time>2021-06-18T22:04:14Z</time>
      </trkpt>
      <trkpt lat="42.78462" lon="-0.56975">
        <ele>1624</ele>
        <time>2021-06-18T22:04:16Z</time>
      </trkpt>
      <trkpt lat="42.78455" lon="-0.5698">
        <ele>1626</ele>
        <time>2021-06-18T22:04:18Z</time>
      </trkpt>
      <trkpt lat="42.78435" lon="-0.56977">
        <ele>1624</ele>
        <time>2021-06-18T22:04:22Z</time>
      </trkpt>
      <trkpt lat="42.78416" lon="-0.56986">
        <ele>1628</ele>
        <time>2021-06-18T22:04:27Z</time>
      </trkpt>
      <trkpt lat="42.78387" lon="-0.56966">
        <ele>1629</ele>
        <time>2021-06-18T22:04:35Z</time>
      </trkpt>
      <trkpt lat="42.78369" lon="-0.56957">
        <ele>1631</ele>
        <time>2021-06-18T22:04:39Z</time>
      </trkpt>
      <trkpt lat="42.78362" lon="-0.5695">
        <ele>1631</ele>
        <time>2021-06-18T22:04:41Z</time>
      </trkpt>
      <trkpt lat="42.78334" lon="-0.56944">
        <ele>1638</ele>
        <time>2021-06-18T22:04:48Z</time>
      </trkpt>
      <trkpt lat="42.78314" lon="-0.56919">
        <ele>1632</ele>
        <time>2021-06-18T22:04:54Z</time>
      </trkpt>
      <trkpt lat="42.78302" lon="-0.56909">
        <ele>1633</ele>
        <time>2021-06-18T22:04:57Z</time>
      </trkpt>
      <trkpt lat="42.78299" lon="-0.56897">
        <ele>1630</ele>
        <time>2021-06-18T22:05:00Z</time>
      </trkpt>
      <trkpt lat="42.78302" lon="-0.5689">
        <ele>1626</ele>
        <time>2021-06-18T22:05:01Z</time>
      </trkpt>
      <trkpt lat="42.78297" lon="-0.56875">
        <ele>1623</ele>
        <time>2021-06-18T22:05:04Z</time>
      </trkpt>
      <trkpt lat="42.7828" lon="-0.56857">
        <ele>1624</ele>
        <time>2021-06-18T22:05:09Z</time>
      </trkpt>
      <trkpt lat="42.78265" lon="-0.56853">
        <ele>1629</ele>
        <time>2021-06-18T22:05:12Z</time>
      </trkpt>
      <trkpt lat="42.78279" lon="-0.56844">
        <ele>1621</ele>
        <time>2021-06-18T22:05:16Z</time>
      </trkpt>
      <trkpt lat="42.78281" lon="-0.56831">
        <ele>1616</ele>
        <time>2021-06-18T22:05:18Z</time>
      </trkpt>
      <trkpt lat="42.78279" lon="-0.56833">
        <ele>1617</ele>
        <time>2021-06-18T22:05:19Z</time>
      </trkpt>
      <trkpt lat="42.78274" lon="-0.56822">
        <ele>1615</ele>
        <time>2021-06-18T22:05:21Z</time>
      </trkpt>
      <trkpt lat="42.78275" lon="-0.5681">
        <ele>1611</ele>
        <time>2021-06-18T22:05:23Z</time>
      </trkpt>
      <trkpt lat="42.78268" lon="-0.568">
        <ele>1610</ele>
        <time>2021-06-18T22:05:25Z</time>
      </trkpt>
      <trkpt lat="42.7826" lon="-0.56798">
        <ele>1613</ele>
        <time>2021-06-18T22:05:27Z</time>
      </trkpt>
      <trkpt lat="42.78244" lon="-0.56781">
        <ele>1614</ele>
        <time>2021-06-18T22:05:32Z</time>
      </trkpt>
      <trkpt lat="42.78247" lon="-0.56776">
        <ele>1611</ele>
        <time>2021-06-18T22:05:33Z</time>
      </trkpt>
      <trkpt lat="42.78242" lon="-0.56763">
        <ele>1610</ele>
        <time>2021-06-18T22:05:36Z</time>
      </trkpt>
      <trkpt lat="42.78251" lon="-0.56734">
        <ele>1601</ele>
        <time>2021-06-18T22:05:41Z</time>
      </trkpt>
      <trkpt lat="42.7825" lon="-0.56728">
        <ele>1601</ele>
        <time>2021-06-18T22:05:42Z</time>
      </trkpt>
      <trkpt lat="42.78255" lon="-0.56701">
        <ele>1599</ele>
        <time>2021-06-18T22:05:47Z</time>
      </trkpt>
      <trkpt lat="42.78262" lon="-0.56685">
        <ele>1595</ele>
        <time>2021-06-18T22:05:50Z</time>
      </trkpt>
      <trkpt lat="42.78276" lon="-0.56661">
        <ele>1588</ele>
        <time>2021-06-18T22:05:55Z</time>
      </trkpt>
      <trkpt lat="42.78288" lon="-0.56651">
        <ele>1584</ele>
        <time>2021-06-18T22:05:59Z</time>
      </trkpt>
      <trkpt lat="42.78297" lon="-0.56651">
        <ele>1578</ele>
        <time>2021-06-18T22:06:01Z</time>
      </trkpt>
      <trkpt lat="42.78294" lon="-0.56625">
        <ele>1587</ele>
        <time>2021-06-18T22:06:05Z</time>
      </trkpt>
      <trkpt lat="42.78295" lon="-0.56612">
        <ele>1589</ele>
        <time>2021-06-18T22:06:08Z</time>
      </trkpt>
      <trkpt lat="42.78288" lon="-0.56615">
        <ele>1593</ele>
        <time>2021-06-18T22:06:09Z</time>
      </trkpt>
      <trkpt lat="42.78281" lon="-0.56627">
        <ele>1594</ele>
        <time>2021-06-18T22:06:12Z</time>
      </trkpt>
      <trkpt lat="42.78279" lon="-0.56606">
        <ele>1601</ele>
        <time>2021-06-18T22:06:16Z</time>
      </trkpt>
      <trkpt lat="42.78276" lon="-0.56605">
        <ele>1604</ele>
        <time>2021-06-18T22:06:16Z</time>
      </trkpt>
      <trkpt lat="42.78275" lon="-0.56599">
        <ele>1606</ele>
        <time>2021-06-18T22:06:17Z</time>
      </trkpt>
      <trkpt lat="42.7828" lon="-0.56592">
        <ele>1604</ele>
        <time>2021-06-18T22:06:19Z</time>
      </trkpt>
      <trkpt lat="42.78299" lon="-0.56536">
        <ele>1599</ele>
        <time>2021-06-18T22:06:30Z</time>
      </trkpt>
      <trkpt lat="42.78317" lon="-0.56448">
        <ele>1609</ele>
        <time>2021-06-18T22:06:45Z</time>
      </trkpt>
      <trkpt lat="42.78337" lon="-0.56402">
        <ele>1611</ele>
        <time>2021-06-18T22:06:54Z</time>
      </trkpt>
      <trkpt lat="42.78349" lon="-0.5639">
        <ele>1609</ele>
        <time>2021-06-18T22:06:58Z</time>
      </trkpt>
      <trkpt lat="42.78361" lon="-0.56389">
        <ele>1600</ele>
        <time>2021-06-18T22:07:01Z</time>
      </trkpt>
      <trkpt lat="42.78377" lon="-0.5638">
        <ele>1591</ele>
        <time>2021-06-18T22:07:05Z</time>
      </trkpt>
      <trkpt lat="42.78393" lon="-0.56353">
        <ele>1588</ele>
        <time>2021-06-18T22:07:11Z</time>
      </trkpt>
      <trkpt lat="42.78408" lon="-0.56341">
        <ele>1577</ele>
        <time>2021-06-18T22:07:15Z</time>
      </trkpt>
      <trkpt lat="42.7841" lon="-0.56336">
        <ele>1577</ele>
        <time>2021-06-18T22:07:16Z</time>
      </trkpt>
      <trkpt lat="42.7843" lon="-0.56323">
        <ele>1572</ele>
        <time>2021-06-18T22:07:21Z</time>
      </trkpt>
      <trkpt lat="42.78441" lon="-0.56306">
        <ele>1576</ele>
        <time>2021-06-18T22:07:25Z</time>
      </trkpt>
      <trkpt lat="42.78446" lon="-0.5629">
        <ele>1582</ele>
        <time>2021-06-18T22:07:28Z</time>
      </trkpt>
      <trkpt lat="42.78454" lon="-0.56279">
        <ele>1582</ele>
        <time>2021-06-18T22:07:30Z</time>
      </trkpt>
      <trkpt lat="42.78461" lon="-0.56257">
        <ele>1588</ele>
        <time>2021-06-18T22:07:34Z</time>
      </trkpt>
      <trkpt lat="42.78488" lon="-0.56245">
        <ele>1570</ele>
        <time>2021-06-18T22:07:41Z</time>
      </trkpt>
      <trkpt lat="42.78523" lon="-0.56198">
        <ele>1562</ele>
        <time>2021-06-18T22:07:53Z</time>
      </trkpt>
      <trkpt lat="42.78544" lon="-0.56185">
        <ele>1551</ele>
        <time>2021-06-18T22:07:58Z</time>
      </trkpt>
      <trkpt lat="42.78551" lon="-0.56178">
        <ele>1547</ele>
        <time>2021-06-18T22:08:00Z</time>
      </trkpt>
      <trkpt lat="42.78556" lon="-0.56166">
        <ele>1547</ele>
        <time>2021-06-18T22:08:02Z</time>
      </trkpt>
      <trkpt lat="42.78569" lon="-0.56156">
        <ele>1542</ele>
        <time>2021-06-18T22:08:06Z</time>
      </trkpt>
      <trkpt lat="42.78573" lon="-0.56145">
        <ele>1544</ele>
        <time>2021-06-18T22:08:08Z</time>
      </trkpt>
      <trkpt lat="42.78593" lon="-0.56134">
        <ele>1536</ele>
        <time>2021-06-18T22:08:13Z</time>
      </trkpt>
      <trkpt lat="42.78608" lon="-0.56118">
        <ele>1537</ele>
        <time>2021-06-18T22:08:17Z</time>
      </trkpt>
      <trkpt lat="42.78623" lon="-0.56097">
        <ele>1538</ele>
        <time>2021-06-18T22:08:22Z</time>
      </trkpt>
      <trkpt lat="42.7865" lon="-0.56085">
        <ele>1528</ele>
        <time>2021-06-18T22:08:29Z</time>
      </trkpt>
      <trkpt lat="42.78665" lon="-0.56072">
        <ele>1523</ele>
        <time>2021-06-18T22:08:33Z</time>
      </trkpt>
      <trkpt lat="42.78671" lon="-0.56072">
        <ele>1521</ele>
        <time>2021-06-18T22:08:35Z</time>
      </trkpt>
      <trkpt lat="42.78677" lon="-0.56059">
        <ele>1523</ele>
        <time>2021-06-18T22:08:37Z</time>
      </trkpt>
      <trkpt lat="42.78681" lon="-0.56042">
        <ele>1527</ele>
        <time>2021-06-18T22:08:40Z</time>
      </trkpt>
      <trkpt lat="42.7868" lon="-0.56015">
        <ele>1535</ele>
        <time>2021-06-18T22:08:45Z</time>
      </trkpt>
      <trkpt lat="42.78682" lon="-0.56">
        <ele>1539</ele>
        <time>2021-06-18T22:08:48Z</time>
      </trkpt>
      <trkpt lat="42.78674" lon="-0.5598">
        <ele>1543</ele>
        <time>2021-06-18T22:08:51Z</time>
      </trkpt>
      <trkpt lat="42.78672" lon="-0.55968">
        <ele>1545</ele>
        <time>2021-06-18T22:08:54Z</time>
      </trkpt>
      <trkpt lat="42.78665" lon="-0.55966">
        <ele>1548</ele>
        <time>2021-06-18T22:08:55Z</time>
      </trkpt>
      <trkpt lat="42.7865" lon="-0.55922">
        <ele>1568</ele>
        <time>2021-06-18T22:09:04Z</time>
      </trkpt>
      <trkpt lat="42.78652" lon="-0.55885">
        <ele>1569</ele>
        <time>2021-06-18T22:09:10Z</time>
      </trkpt>
      <trkpt lat="42.78637" lon="-0.55853">
        <ele>1584</ele>
        <time>2021-06-18T22:09:16Z</time>
      </trkpt>
      <trkpt lat="42.78639" lon="-0.55846">
        <ele>1583</ele>
        <time>2021-06-18T22:09:18Z</time>
      </trkpt>
      <trkpt lat="42.78636" lon="-0.55839">
        <ele>1585</ele>
        <time>2021-06-18T22:09:19Z</time>
      </trkpt>
      <trkpt lat="42.78642" lon="-0.55767">
        <ele>1584</ele>
        <time>2021-06-18T22:09:32Z</time>
      </trkpt>
      <trkpt lat="42.78646" lon="-0.55765">
        <ele>1581</ele>
        <time>2021-06-18T22:09:33Z</time>
      </trkpt>
      <trkpt lat="42.78648" lon="-0.55734">
        <ele>1580</ele>
        <time>2021-06-18T22:09:38Z</time>
      </trkpt>
      <trkpt lat="42.7866" lon="-0.55717">
        <ele>1573</ele>
        <time>2021-06-18T22:09:42Z</time>
      </trkpt>
      <trkpt lat="42.78663" lon="-0.557">
        <ele>1571</ele>
        <time>2021-06-18T22:09:45Z</time>
      </trkpt>
      <trkpt lat="42.78662" lon="-0.55689">
        <ele>1571</ele>
        <time>2021-06-18T22:09:47Z</time>
      </trkpt>
      <trkpt lat="42.78649" lon="-0.55651">
        <ele>1576</ele>
        <time>2021-06-18T22:09:54Z</time>
      </trkpt>
      <trkpt lat="42.78647" lon="-0.55628">
        <ele>1577</ele>
        <time>2021-06-18T22:09:58Z</time>
      </trkpt>
      <trkpt lat="42.78639" lon="-0.55617">
        <ele>1579</ele>
        <time>2021-06-18T22:10:01Z</time>
      </trkpt>
      <trkpt lat="42.78611" lon="-0.55554">
        <ele>1582</ele>
        <time>2021-06-18T22:10:13Z</time>
      </trkpt>
      <trkpt lat="42.7861" lon="-0.55538">
        <ele>1582</ele>
        <time>2021-06-18T22:10:16Z</time>
      </trkpt>
      <trkpt lat="42.78617" lon="-0.5552">
        <ele>1581</ele>
        <time>2021-06-18T22:10:19Z</time>
      </trkpt>
      <trkpt lat="42.78618" lon="-0.55498">
        <ele>1580</ele>
        <time>2021-06-18T22:10:23Z</time>
      </trkpt>
      <trkpt lat="42.78621" lon="-0.5549">
        <ele>1581</ele>
        <time>2021-06-18T22:10:25Z</time>
      </trkpt>
      <trkpt lat="42.78623" lon="-0.5549">
        <ele>1581</ele>
        <time>2021-06-18T22:10:25Z</time>
      </trkpt>
      <trkpt lat="42.78636" lon="-0.55426">
        <ele>1586</ele>
        <time>2021-06-18T22:10:37Z</time>
      </trkpt>
      <trkpt lat="42.7864" lon="-0.55423">
        <ele>1587</ele>
        <time>2021-06-18T22:10:38Z</time>
      </trkpt>
      <trkpt lat="42.78645" lon="-0.55405">
        <ele>1589</ele>
        <time>2021-06-18T22:10:41Z</time>
      </trkpt>
      <trkpt lat="42.78649" lon="-0.55378">
        <ele>1592</ele>
        <time>2021-06-18T22:10:46Z</time>
      </trkpt>
      <trkpt lat="42.78649" lon="-0.55345">
        <ele>1596</ele>
        <time>2021-06-18T22:10:51Z</time>
      </trkpt>
      <trkpt lat="42.78643" lon="-0.55296">
        <ele>1604</ele>
        <time>2021-06-18T22:11:00Z</time>
      </trkpt>
      <trkpt lat="42.78661" lon="-0.55243">
        <ele>1611</ele>
        <time>2021-06-18T22:11:10Z</time>
      </trkpt>
      <trkpt lat="42.78664" lon="-0.55219">
        <ele>1613</ele>
        <time>2021-06-18T22:11:14Z</time>
      </trkpt>
      <trkpt lat="42.78661" lon="-0.55182">
        <ele>1618</ele>
        <time>2021-06-18T22:11:20Z</time>
      </trkpt>
      <trkpt lat="42.78655" lon="-0.55174">
        <ele>1620</ele>
        <time>2021-06-18T22:11:22Z</time>
      </trkpt>
      <trkpt lat="42.78667" lon="-0.55143">
        <ele>1618</ele>
        <time>2021-06-18T22:11:28Z</time>
      </trkpt>
      <trkpt lat="42.78671" lon="-0.55098">
        <ele>1618</ele>
        <time>2021-06-18T22:11:36Z</time>
      </trkpt>
      <trkpt lat="42.78679" lon="-0.55092">
        <ele>1618</ele>
        <time>2021-06-18T22:11:38Z</time>
      </trkpt>
      <trkpt lat="42.7867" lon="-0.55072">
        <ele>1619</ele>
        <time>2021-06-18T22:11:42Z</time>
      </trkpt>
      <trkpt lat="42.78672" lon="-0.55064">
        <ele>1619</ele>
        <time>2021-06-18T22:11:44Z</time>
      </trkpt>
      <trkpt lat="42.7866" lon="-0.55021">
        <ele>1622</ele>
        <time>2021-06-18T22:11:52Z</time>
      </trkpt>
      <trkpt lat="42.78658" lon="-0.5501">
        <ele>1623</ele>
        <time>2021-06-18T22:11:54Z</time>
      </trkpt>
      <trkpt lat="42.78659" lon="-0.54984">
        <ele>1625</ele>
        <time>2021-06-18T22:11:58Z</time>
      </trkpt>
      <trkpt lat="42.78657" lon="-0.54977">
        <ele>1626</ele>
        <time>2021-06-18T22:11:59Z</time>
      </trkpt>
      <trkpt lat="42.78648" lon="-0.54967">
        <ele>1628</ele>
        <time>2021-06-18T22:12:02Z</time>
      </trkpt>
      <trkpt lat="42.78643" lon="-0.54957">
        <ele>1629</ele>
        <time>2021-06-18T22:12:04Z</time>
      </trkpt>
      <trkpt lat="42.78631" lon="-0.54945">
        <ele>1631</ele>
        <time>2021-06-18T22:12:08Z</time>
      </trkpt>
      <trkpt lat="42.78632" lon="-0.54932">
        <ele>1632</ele>
        <time>2021-06-18T22:12:10Z</time>
      </trkpt>
      <trkpt lat="42.78629" lon="-0.54899">
        <ele>1633</ele>
        <time>2021-06-18T22:12:16Z</time>
      </trkpt>
      <trkpt lat="42.78632" lon="-0.54887">
        <ele>1633</ele>
        <time>2021-06-18T22:12:18Z</time>
      </trkpt>
      <trkpt lat="42.78622" lon="-0.54829">
        <ele>1634</ele>
        <time>2021-06-18T22:12:28Z</time>
      </trkpt>
      <trkpt lat="42.7862" lon="-0.54823">
        <ele>1634</ele>
        <time>2021-06-18T22:12:29Z</time>
      </trkpt>
      <trkpt lat="42.7861" lon="-0.54813">
        <ele>1634</ele>
        <time>2021-06-18T22:12:32Z</time>
      </trkpt>
      <trkpt lat="42.78607" lon="-0.54804">
        <ele>1634</ele>
        <time>2021-06-18T22:12:34Z</time>
      </trkpt>
      <trkpt lat="42.78608" lon="-0.54795">
        <ele>1635</ele>
        <time>2021-06-18T22:12:35Z</time>
      </trkpt>
      <trkpt lat="42.78602" lon="-0.54784">
        <ele>1635</ele>
        <time>2021-06-18T22:12:38Z</time>
      </trkpt>
      <trkpt lat="42.78591" lon="-0.54775">
        <ele>1634</ele>
        <time>2021-06-18T22:12:41Z</time>
      </trkpt>
      <trkpt lat="42.78586" lon="-0.54725">
        <ele>1634</ele>
        <time>2021-06-18T22:12:49Z</time>
      </trkpt>
      <trkpt lat="42.78593" lon="-0.54712">
        <ele>1634</ele>
        <time>2021-06-18T22:12:52Z</time>
      </trkpt>
      <trkpt lat="42.78586" lon="-0.54661">
        <ele>1632</ele>
        <time>2021-06-18T22:13:01Z</time>
      </trkpt>
      <trkpt lat="42.78577" lon="-0.54642">
        <ele>1631</ele>
        <time>2021-06-18T22:13:05Z</time>
      </trkpt>
      <trkpt lat="42.78577" lon="-0.54632">
        <ele>1630</ele>
        <time>2021-06-18T22:13:06Z</time>
      </trkpt>
      <trkpt lat="42.78584" lon="-0.54623">
        <ele>1631</ele>
        <time>2021-06-18T22:13:09Z</time>
      </trkpt>
      <trkpt lat="42.78588" lon="-0.54607">
        <ele>1631</ele>
        <time>2021-06-18T22:13:12Z</time>
      </trkpt>
      <trkpt lat="42.78593" lon="-0.546">
        <ele>1631</ele>
        <time>2021-06-18T22:13:13Z</time>
      </trkpt>
      <trkpt lat="42.78591" lon="-0.54573">
        <ele>1630</ele>
        <time>2021-06-18T22:13:18Z</time>
      </trkpt>
      <trkpt lat="42.78585" lon="-0.54558">
        <ele>1628</ele>
        <time>2021-06-18T22:13:21Z</time>
      </trkpt>
      <trkpt lat="42.7858" lon="-0.54555">
        <ele>1627</ele>
        <time>2021-06-18T22:13:22Z</time>
      </trkpt>
      <trkpt lat="42.78572" lon="-0.54538">
        <ele>1626</ele>
        <time>2021-06-18T22:13:26Z</time>
      </trkpt>
      <trkpt lat="42.78563" lon="-0.54532">
        <ele>1625</ele>
        <time>2021-06-18T22:13:28Z</time>
      </trkpt>
      <trkpt lat="42.78554" lon="-0.54516">
        <ele>1623</ele>
        <time>2021-06-18T22:13:31Z</time>
      </trkpt>
      <trkpt lat="42.78556" lon="-0.54483">
        <ele>1622</ele>
        <time>2021-06-18T22:13:37Z</time>
      </trkpt>
      <trkpt lat="42.78554" lon="-0.54449">
        <ele>1621</ele>
        <time>2021-06-18T22:13:43Z</time>
      </trkpt>
      <trkpt lat="42.78561" lon="-0.54418">
        <ele>1620</ele>
        <time>2021-06-18T22:13:49Z</time>
      </trkpt>
      <trkpt lat="42.78551" lon="-0.54348">
        <ele>1616</ele>
        <time>2021-06-18T22:14:01Z</time>
      </trkpt>
      <trkpt lat="42.78562" lon="-0.54319">
        <ele>1616</ele>
        <time>2021-06-18T22:14:06Z</time>
      </trkpt>
      <trkpt lat="42.78616" lon="-0.54109">
        <ele>1606</ele>
        <time>2021-06-18T22:14:44Z</time>
      </trkpt>
      <trkpt lat="42.78627" lon="-0.54038">
        <ele>1601</ele>
        <time>2021-06-18T22:14:57Z</time>
      </trkpt>
      <trkpt lat="42.78626" lon="-0.53952">
        <ele>1595</ele>
        <time>2021-06-18T22:15:12Z</time>
      </trkpt>
      <trkpt lat="42.78637" lon="-0.53916">
        <ele>1593</ele>
        <time>2021-06-18T22:15:18Z</time>
      </trkpt>
      <trkpt lat="42.78657" lon="-0.53879">
        <ele>1591</ele>
        <time>2021-06-18T22:15:26Z</time>
      </trkpt>
      <trkpt lat="42.78668" lon="-0.53867">
        <ele>1591</ele>
        <time>2021-06-18T22:15:29Z</time>
      </trkpt>
      <trkpt lat="42.78678" lon="-0.53842">
        <ele>1591</ele>
        <time>2021-06-18T22:15:34Z</time>
      </trkpt>
      <trkpt lat="42.78691" lon="-0.53763">
        <ele>1584</ele>
        <time>2021-06-18T22:15:48Z</time>
      </trkpt>
      <trkpt lat="42.78708" lon="-0.53731">
        <ele>1583</ele>
        <time>2021-06-18T22:15:55Z</time>
      </trkpt>
      <trkpt lat="42.78707" lon="-0.53719">
        <ele>1582</ele>
        <time>2021-06-18T22:15:57Z</time>
      </trkpt>
      <trkpt lat="42.78674" lon="-0.53691">
        <ele>1578</ele>
        <time>2021-06-18T22:16:06Z</time>
      </trkpt>
      <trkpt lat="42.78665" lon="-0.53639">
        <ele>1574</ele>
        <time>2021-06-18T22:16:15Z</time>
      </trkpt>
      <trkpt lat="42.7871" lon="-0.53425">
        <ele>1564</ele>
        <time>2021-06-18T22:16:53Z</time>
      </trkpt>
      <trkpt lat="42.78723" lon="-0.53316">
        <ele>1556</ele>
        <time>2021-06-18T22:17:12Z</time>
      </trkpt>
      <trkpt lat="42.78736" lon="-0.53271">
        <ele>1554</ele>
        <time>2021-06-18T22:17:21Z</time>
      </trkpt>
      <trkpt lat="42.78795" lon="-0.53157">
        <ele>1554</ele>
        <time>2021-06-18T22:17:45Z</time>
      </trkpt>
      <trkpt lat="42.78817" lon="-0.53132">
        <ele>1556</ele>
        <time>2021-06-18T22:17:51Z</time>
      </trkpt>
      <trkpt lat="42.7884" lon="-0.53113">
        <ele>1559</ele>
        <time>2021-06-18T22:17:58Z</time>
      </trkpt>
      <trkpt lat="42.78845" lon="-0.53072">
        <ele>1557</ele>
        <time>2021-06-18T22:18:05Z</time>
      </trkpt>
      <trkpt lat="42.78834" lon="-0.53067">
        <ele>1553</ele>
        <time>2021-06-18T22:18:07Z</time>
      </trkpt>
      <trkpt lat="42.78828" lon="-0.53057">
        <ele>1551</ele>
        <time>2021-06-18T22:18:10Z</time>
      </trkpt>
      <trkpt lat="42.78825" lon="-0.53044">
        <ele>1550</ele>
        <time>2021-06-18T22:18:12Z</time>
      </trkpt>
      <trkpt lat="42.78829" lon="-0.53026">
        <ele>1550</ele>
        <time>2021-06-18T22:18:15Z</time>
      </trkpt>
      <trkpt lat="42.78839" lon="-0.53">
        <ele>1551</ele>
        <time>2021-06-18T22:18:20Z</time>
      </trkpt>
      <trkpt lat="42.78845" lon="-0.5297">
        <ele>1550</ele>
        <time>2021-06-18T22:18:26Z</time>
      </trkpt>
      <trkpt lat="42.78833" lon="-0.52869">
        <ele>1541</ele>
        <time>2021-06-18T22:18:43Z</time>
      </trkpt>
      <trkpt lat="42.7883" lon="-0.52814">
        <ele>1537</ele>
        <time>2021-06-18T22:18:53Z</time>
      </trkpt>
      <trkpt lat="42.78837" lon="-0.52715">
        <ele>1531</ele>
        <time>2021-06-18T22:19:10Z</time>
      </trkpt>
      <trkpt lat="42.7887" lon="-0.52639">
        <ele>1531</ele>
        <time>2021-06-18T22:19:25Z</time>
      </trkpt>
      <trkpt lat="42.78876" lon="-0.52556">
        <ele>1522</ele>
        <time>2021-06-18T22:19:39Z</time>
      </trkpt>
      <trkpt lat="42.78886" lon="-0.52535">
        <ele>1519</ele>
        <time>2021-06-18T22:19:43Z</time>
      </trkpt>
      <trkpt lat="42.78915" lon="-0.52502">
        <ele>1516</ele>
        <time>2021-06-18T22:19:52Z</time>
      </trkpt>
      <trkpt lat="42.78941" lon="-0.52481">
        <ele>1521</ele>
        <time>2021-06-18T22:19:59Z</time>
      </trkpt>
      <trkpt lat="42.78947" lon="-0.52465">
        <ele>1521</ele>
        <time>2021-06-18T22:20:02Z</time>
      </trkpt>
      <trkpt lat="42.78946" lon="-0.52453">
        <ele>1521</ele>
        <time>2021-06-18T22:20:04Z</time>
      </trkpt>
      <trkpt lat="42.78942" lon="-0.52444">
        <ele>1520</ele>
        <time>2021-06-18T22:20:06Z</time>
      </trkpt>
      <trkpt lat="42.78935" lon="-0.52437">
        <ele>1519</ele>
        <time>2021-06-18T22:20:08Z</time>
      </trkpt>
      <trkpt lat="42.78934" lon="-0.52427">
        <ele>1518</ele>
        <time>2021-06-18T22:20:10Z</time>
      </trkpt>
      <trkpt lat="42.78916" lon="-0.5242">
        <ele>1518</ele>
        <time>2021-06-18T22:20:14Z</time>
      </trkpt>
      <trkpt lat="42.78886" lon="-0.52394">
        <ele>1524</ele>
        <time>2021-06-18T22:20:23Z</time>
      </trkpt>
      <trkpt lat="42.78847" lon="-0.52427">
        <ele>1519</ele>
        <time>2021-06-18T22:20:33Z</time>
      </trkpt>
      <trkpt lat="42.78823" lon="-0.52414">
        <ele>1521</ele>
        <time>2021-06-18T22:20:39Z</time>
      </trkpt>
      <trkpt lat="42.78814" lon="-0.52427">
        <ele>1519</ele>
        <time>2021-06-18T22:20:42Z</time>
      </trkpt>
      <trkpt lat="42.78809" lon="-0.52427">
        <ele>1519</ele>
        <time>2021-06-18T22:20:44Z</time>
      </trkpt>
      <trkpt lat="42.78795" lon="-0.5244">
        <ele>1516</ele>
        <time>2021-06-18T22:20:47Z</time>
      </trkpt>
      <trkpt lat="42.78786" lon="-0.52442">
        <ele>1516</ele>
        <time>2021-06-18T22:20:50Z</time>
      </trkpt>
      <trkpt lat="42.78765" lon="-0.52431">
        <ele>1517</ele>
        <time>2021-06-18T22:20:55Z</time>
      </trkpt>
      <trkpt lat="42.78728" lon="-0.52388">
        <ele>1520</ele>
        <time>2021-06-18T22:21:06Z</time>
      </trkpt>
      <trkpt lat="42.7869" lon="-0.52361">
        <ele>1517</ele>
        <time>2021-06-18T22:21:16Z</time>
      </trkpt>
      <trkpt lat="42.78671" lon="-0.52343">
        <ele>1517</ele>
        <time>2021-06-18T22:21:22Z</time>
      </trkpt>
      <trkpt lat="42.78644" lon="-0.52346">
        <ele>1512</ele>
        <time>2021-06-18T22:21:28Z</time>
      </trkpt>
      <trkpt lat="42.7861" lon="-0.52332">
        <ele>1508</ele>
        <time>2021-06-18T22:21:36Z</time>
      </trkpt>
      <trkpt lat="42.78577" lon="-0.52305">
        <ele>1507</ele>
        <time>2021-06-18T22:21:45Z</time>
      </trkpt>
      <trkpt lat="42.7855" lon="-0.52257">
        <ele>1509</ele>
        <time>2021-06-18T22:21:56Z</time>
      </trkpt>
      <trkpt lat="42.78543" lon="-0.52218">
        <ele>1515</ele>
        <time>2021-06-18T22:22:02Z</time>
      </trkpt>
      <trkpt lat="42.78511" lon="-0.52186">
        <ele>1512</ele>
        <time>2021-06-18T22:22:12Z</time>
      </trkpt>
      <trkpt lat="42.78505" lon="-0.5215">
        <ele>1516</ele>
        <time>2021-06-18T22:22:18Z</time>
      </trkpt>
      <trkpt lat="42.78491" lon="-0.52122">
        <ele>1517</ele>
        <time>2021-06-18T22:22:24Z</time>
      </trkpt>
      <trkpt lat="42.78471" lon="-0.521">
        <ele>1519</ele>
        <time>2021-06-18T22:22:30Z</time>
      </trkpt>
      <trkpt lat="42.78431" lon="-0.52066">
        <ele>1518</ele>
        <time>2021-06-18T22:22:41Z</time>
      </trkpt>
      <trkpt lat="42.78408" lon="-0.52059">
        <ele>1518</ele>
        <time>2021-06-18T22:22:46Z</time>
      </trkpt>
      <trkpt lat="42.7837" lon="-0.52055">
        <ele>1520</ele>
        <time>2021-06-18T22:22:55Z</time>
      </trkpt>
      <trkpt lat="42.7835" lon="-0.52035">
        <ele>1522</ele>
        <time>2021-06-18T22:23:01Z</time>
      </trkpt>
      <trkpt lat="42.7834" lon="-0.52021">
        <ele>1523</ele>
        <time>2021-06-18T22:23:04Z</time>
      </trkpt>
      <trkpt lat="42.78337" lon="-0.51998">
        <ele>1523</ele>
        <time>2021-06-18T22:23:08Z</time>
      </trkpt>
      <trkpt lat="42.78341" lon="-0.5193">
        <ele>1512</ele>
        <time>2021-06-18T22:23:20Z</time>
      </trkpt>
      <trkpt lat="42.78352" lon="-0.51921">
        <ele>1512</ele>
        <time>2021-06-18T22:23:23Z</time>
      </trkpt>
      <trkpt lat="42.78329" lon="-0.51873">
        <ele>1509</ele>
        <time>2021-06-18T22:23:33Z</time>
      </trkpt>
      <trkpt lat="42.78325" lon="-0.51875">
        <ele>1509</ele>
        <time>2021-06-18T22:23:34Z</time>
      </trkpt>
      <trkpt lat="42.7832" lon="-0.51869">
        <ele>1508</ele>
        <time>2021-06-18T22:23:36Z</time>
      </trkpt>
      <trkpt lat="42.78312" lon="-0.51869">
        <ele>1507</ele>
        <time>2021-06-18T22:23:37Z</time>
      </trkpt>
      <trkpt lat="42.78304" lon="-0.51852">
        <ele>1506</ele>
        <time>2021-06-18T22:23:41Z</time>
      </trkpt>
      <trkpt lat="42.78283" lon="-0.51823">
        <ele>1504</ele>
        <time>2021-06-18T22:23:48Z</time>
      </trkpt>
      <trkpt lat="42.78269" lon="-0.51824">
        <ele>1501</ele>
        <time>2021-06-18T22:23:51Z</time>
      </trkpt>
      <trkpt lat="42.78258" lon="-0.51816">
        <ele>1501</ele>
        <time>2021-06-18T22:23:54Z</time>
      </trkpt>
      <trkpt lat="42.78245" lon="-0.51813">
        <ele>1499</ele>
        <time>2021-06-18T22:23:57Z</time>
      </trkpt>
      <trkpt lat="42.7821" lon="-0.51787">
        <ele>1497</ele>
        <time>2021-06-18T22:24:06Z</time>
      </trkpt>
      <trkpt lat="42.78203" lon="-0.51775">
        <ele>1498</ele>
        <time>2021-06-18T22:24:09Z</time>
      </trkpt>
      <trkpt lat="42.78193" lon="-0.51766">
        <ele>1498</ele>
        <time>2021-06-18T22:24:12Z</time>
      </trkpt>
      <trkpt lat="42.78181" lon="-0.51774">
        <ele>1494</ele>
        <time>2021-06-18T22:24:15Z</time>
      </trkpt>
      <trkpt lat="42.78158" lon="-0.51784">
        <ele>1486</ele>
        <time>2021-06-18T22:24:21Z</time>
      </trkpt>
      <trkpt lat="42.78042" lon="-0.51754">
        <ele>1458</ele>
        <time>2021-06-18T22:24:48Z</time>
      </trkpt>
      <trkpt lat="42.77989" lon="-0.51712">
        <ele>1458</ele>
        <time>2021-06-18T22:25:02Z</time>
      </trkpt>
      <trkpt lat="42.77981" lon="-0.51713">
        <ele>1456</ele>
        <time>2021-06-18T22:25:04Z</time>
      </trkpt>
      <trkpt lat="42.77932" lon="-0.51662">
        <ele>1454</ele>
        <time>2021-06-18T22:25:19Z</time>
      </trkpt>
      <trkpt lat="42.77916" lon="-0.51656">
        <ele>1452</ele>
        <time>2021-06-18T22:25:23Z</time>
      </trkpt>
      <trkpt lat="42.77884" lon="-0.51652">
        <ele>1449</ele>
        <time>2021-06-18T22:25:30Z</time>
      </trkpt>
      <trkpt lat="42.77875" lon="-0.51642">
        <ele>1452</ele>
        <time>2021-06-18T22:25:33Z</time>
      </trkpt>
      <trkpt lat="42.77864" lon="-0.51622">
        <ele>1457</ele>
        <time>2021-06-18T22:25:37Z</time>
      </trkpt>
      <trkpt lat="42.77848" lon="-0.51614">
        <ele>1458</ele>
        <time>2021-06-18T22:25:41Z</time>
      </trkpt>
      <trkpt lat="42.77838" lon="-0.51602">
        <ele>1460</ele>
        <time>2021-06-18T22:25:44Z</time>
      </trkpt>
      <trkpt lat="42.77824" lon="-0.51605">
        <ele>1457</ele>
        <time>2021-06-18T22:25:48Z</time>
      </trkpt>
      <trkpt lat="42.77789" lon="-0.51598">
        <ele>1453</ele>
        <time>2021-06-18T22:25:56Z</time>
      </trkpt>
      <trkpt lat="42.77778" lon="-0.51582">
        <ele>1455</ele>
        <time>2021-06-18T22:26:00Z</time>
      </trkpt>
      <trkpt lat="42.77752" lon="-0.51569">
        <ele>1453</ele>
        <time>2021-06-18T22:26:06Z</time>
      </trkpt>
      <trkpt lat="42.77734" lon="-0.51569">
        <ele>1448</ele>
        <time>2021-06-18T22:26:10Z</time>
      </trkpt>
      <trkpt lat="42.77703" lon="-0.51579">
        <ele>1437</ele>
        <time>2021-06-18T22:26:18Z</time>
      </trkpt>
      <trkpt lat="42.77692" lon="-0.516">
        <ele>1432</ele>
        <time>2021-06-18T22:26:22Z</time>
      </trkpt>
      <trkpt lat="42.77678" lon="-0.5159">
        <ele>1430</ele>
        <time>2021-06-18T22:26:26Z</time>
      </trkpt>
      <trkpt lat="42.77671" lon="-0.51592">
        <ele>1428</ele>
        <time>2021-06-18T22:26:27Z</time>
      </trkpt>
      <trkpt lat="42.77666" lon="-0.51599">
        <ele>1426</ele>
        <time>2021-06-18T22:26:29Z</time>
      </trkpt>
      <trkpt lat="42.77643" lon="-0.51605">
        <ele>1418</ele>
        <time>2021-06-18T22:26:35Z</time>
      </trkpt>
      <trkpt lat="42.77638" lon="-0.516">
        <ele>1417</ele>
        <time>2021-06-18T22:26:36Z</time>
      </trkpt>
      <trkpt lat="42.77635" lon="-0.51588">
        <ele>1416</ele>
        <time>2021-06-18T22:26:38Z</time>
      </trkpt>
      <trkpt lat="42.77642" lon="-0.51572">
        <ele>1418</ele>
        <time>2021-06-18T22:26:41Z</time>
      </trkpt>
      <trkpt lat="42.77641" lon="-0.51569">
        <ele>1418</ele>
        <time>2021-06-18T22:26:42Z</time>
      </trkpt>
      <trkpt lat="42.77652" lon="-0.51561">
        <ele>1421</ele>
        <time>2021-06-18T22:26:45Z</time>
      </trkpt>
      <trkpt lat="42.77657" lon="-0.51538">
        <ele>1422</ele>
        <time>2021-06-18T22:26:49Z</time>
      </trkpt>
      <trkpt lat="42.77663" lon="-0.51492">
        <ele>1420</ele>
        <time>2021-06-18T22:26:57Z</time>
      </trkpt>
      <trkpt lat="42.77656" lon="-0.51495">
        <ele>1418</ele>
        <time>2021-06-18T22:26:59Z</time>
      </trkpt>
      <trkpt lat="42.77658" lon="-0.51474">
        <ele>1413</ele>
        <time>2021-06-18T22:27:02Z</time>
      </trkpt>
      <trkpt lat="42.77667" lon="-0.51457">
        <ele>1412</ele>
        <time>2021-06-18T22:27:06Z</time>
      </trkpt>
      <trkpt lat="42.77672" lon="-0.5144">
        <ele>1411</ele>
        <time>2021-06-18T22:27:09Z</time>
      </trkpt>
      <trkpt lat="42.77659" lon="-0.51396">
        <ele>1397</ele>
        <time>2021-06-18T22:27:17Z</time>
      </trkpt>
      <trkpt lat="42.77661" lon="-0.51368">
        <ele>1392</ele>
        <time>2021-06-18T22:27:22Z</time>
      </trkpt>
      <trkpt lat="42.77666" lon="-0.51343">
        <ele>1389</ele>
        <time>2021-06-18T22:27:26Z</time>
      </trkpt>
      <trkpt lat="42.77667" lon="-0.51286">
        <ele>1383</ele>
        <time>2021-06-18T22:27:36Z</time>
      </trkpt>
      <trkpt lat="42.77665" lon="-0.51271">
        <ele>1381</ele>
        <time>2021-06-18T22:27:39Z</time>
      </trkpt>
      <trkpt lat="42.77676" lon="-0.51232">
        <ele>1386</ele>
        <time>2021-06-18T22:27:46Z</time>
      </trkpt>
      <trkpt lat="42.77678" lon="-0.51209">
        <ele>1389</ele>
        <time>2021-06-18T22:27:50Z</time>
      </trkpt>
      <trkpt lat="42.77674" lon="-0.51164">
        <ele>1390</ele>
        <time>2021-06-18T22:27:58Z</time>
      </trkpt>
      <trkpt lat="42.77664" lon="-0.51124">
        <ele>1386</ele>
        <time>2021-06-18T22:28:05Z</time>
      </trkpt>
      <trkpt lat="42.77666" lon="-0.51108">
        <ele>1387</ele>
        <time>2021-06-18T22:28:08Z</time>
      </trkpt>
      <trkpt lat="42.77612" lon="-0.50957">
        <ele>1378</ele>
        <time>2021-06-18T22:28:37Z</time>
      </trkpt>
      <trkpt lat="42.77604" lon="-0.50891">
        <ele>1379</ele>
        <time>2021-06-18T22:28:48Z</time>
      </trkpt>
      <trkpt lat="42.77594" lon="-0.50853">
        <ele>1375</ele>
        <time>2021-06-18T22:28:55Z</time>
      </trkpt>
      <trkpt lat="42.77593" lon="-0.50788">
        <ele>1375</ele>
        <time>2021-06-18T22:29:06Z</time>
      </trkpt>
      <trkpt lat="42.7762" lon="-0.5073">
        <ele>1383</ele>
        <time>2021-06-18T22:29:18Z</time>
      </trkpt>
      <trkpt lat="42.77736" lon="-0.50534">
        <ele>1396</ele>
        <time>2021-06-18T22:30:01Z</time>
      </trkpt>
      <trkpt lat="42.77743" lon="-0.5049">
        <ele>1392</ele>
        <time>2021-06-18T22:30:09Z</time>
      </trkpt>
      <trkpt lat="42.77734" lon="-0.50461">
        <ele>1386</ele>
        <time>2021-06-18T22:30:14Z</time>
      </trkpt>
      <trkpt lat="42.77736" lon="-0.50451">
        <ele>1385</ele>
        <time>2021-06-18T22:30:16Z</time>
      </trkpt>
      <trkpt lat="42.77757" lon="-0.50419">
        <ele>1388</ele>
        <time>2021-06-18T22:30:23Z</time>
      </trkpt>
      <trkpt lat="42.77773" lon="-0.50401">
        <ele>1389</ele>
        <time>2021-06-18T22:30:28Z</time>
      </trkpt>
      <trkpt lat="42.77794" lon="-0.50387">
        <ele>1392</ele>
        <time>2021-06-18T22:30:34Z</time>
      </trkpt>
      <trkpt lat="42.77816" lon="-0.50376">
        <ele>1395</ele>
        <time>2021-06-18T22:30:39Z</time>
      </trkpt>
      <trkpt lat="42.77844" lon="-0.50378">
        <ele>1402</ele>
        <time>2021-06-18T22:30:46Z</time>
      </trkpt>
      <trkpt lat="42.77866" lon="-0.50384">
        <ele>1409</ele>
        <time>2021-06-18T22:30:51Z</time>
      </trkpt>
      <trkpt lat="42.77878" lon="-0.50381">
        <ele>1412</ele>
        <time>2021-06-18T22:30:54Z</time>
      </trkpt>
      <trkpt lat="42.77887" lon="-0.50372">
        <ele>1414</ele>
        <time>2021-06-18T22:30:56Z</time>
      </trkpt>
      <trkpt lat="42.77898" lon="-0.50349">
        <ele>1414</ele>
        <time>2021-06-18T22:31:01Z</time>
      </trkpt>
      <trkpt lat="42.77906" lon="-0.50317">
        <ele>1413</ele>
        <time>2021-06-18T22:31:07Z</time>
      </trkpt>
      <trkpt lat="42.77927" lon="-0.50289">
        <ele>1415</ele>
        <time>2021-06-18T22:31:14Z</time>
      </trkpt>
      <trkpt lat="42.77976" lon="-0.50247">
        <ele>1424</ele>
        <time>2021-06-18T22:31:27Z</time>
      </trkpt>
      <trkpt lat="42.78" lon="-0.50202">
        <ele>1419</ele>
        <time>2021-06-18T22:31:37Z</time>
      </trkpt>
      <trkpt lat="42.78061" lon="-0.50177">
        <ele>1432</ele>
        <time>2021-06-18T22:31:52Z</time>
      </trkpt>
      <trkpt lat="42.78116" lon="-0.50166">
        <ele>1447</ele>
        <time>2021-06-18T22:32:05Z</time>
      </trkpt>
      <trkpt lat="42.78165" lon="-0.50139">
        <ele>1453</ele>
        <time>2021-06-18T22:32:17Z</time>
      </trkpt>
      <trkpt lat="42.78176" lon="-0.50123">
        <ele>1453</ele>
        <time>2021-06-18T22:32:21Z</time>
      </trkpt>
      <trkpt lat="42.78194" lon="-0.50106">
        <ele>1456</ele>
        <time>2021-06-18T22:32:26Z</time>
      </trkpt>
      <trkpt lat="42.78212" lon="-0.5005">
        <ele>1452</ele>
        <time>2021-06-18T22:32:36Z</time>
      </trkpt>
      <trkpt lat="42.78214" lon="-0.50027">
        <ele>1448</ele>
        <time>2021-06-18T22:32:40Z</time>
      </trkpt>
      <trkpt lat="42.78247" lon="-0.49994">
        <ele>1451</ele>
        <time>2021-06-18T22:32:50Z</time>
      </trkpt>
      <trkpt lat="42.78282" lon="-0.49976">
        <ele>1461</ele>
        <time>2021-06-18T22:32:59Z</time>
      </trkpt>
      <trkpt lat="42.78293" lon="-0.49966">
        <ele>1463</ele>
        <time>2021-06-18T22:33:02Z</time>
      </trkpt>
      <trkpt lat="42.78312" lon="-0.49928">
        <ele>1464</ele>
        <time>2021-06-18T22:33:10Z</time>
      </trkpt>
      <trkpt lat="42.78341" lon="-0.49899">
        <ele>1468</ele>
        <time>2021-06-18T22:33:18Z</time>
      </trkpt>
      <trkpt lat="42.7837" lon="-0.49861">
        <ele>1471</ele>
        <time>2021-06-18T22:33:27Z</time>
      </trkpt>
      <trkpt lat="42.78398" lon="-0.49856">
        <ele>1478</ele>
        <time>2021-06-18T22:33:34Z</time>
      </trkpt>
      <trkpt lat="42.78424" lon="-0.49828">
        <ele>1480</ele>
        <time>2021-06-18T22:33:42Z</time>
      </trkpt>
      <trkpt lat="42.78445" lon="-0.498">
        <ele>1483</ele>
        <time>2021-06-18T22:33:49Z</time>
      </trkpt>
      <trkpt lat="42.78487" lon="-0.49736">
        <ele>1487</ele>
        <time>2021-06-18T22:34:03Z</time>
      </trkpt>
      <trkpt lat="42.78546" lon="-0.49669">
        <ele>1492</ele>
        <time>2021-06-18T22:34:21Z</time>
      </trkpt>
      <trkpt lat="42.78624" lon="-0.49604">
        <ele>1502</ele>
        <time>2021-06-18T22:34:43Z</time>
      </trkpt>
      <trkpt lat="42.78661" lon="-0.49525">
        <ele>1505</ele>
        <time>2021-06-18T22:34:59Z</time>
      </trkpt>
      <trkpt lat="42.7867" lon="-0.49489">
        <ele>1504</ele>
        <time>2021-06-18T22:35:05Z</time>
      </trkpt>
      <trkpt lat="42.7868" lon="-0.4947">
        <ele>1505</ele>
        <time>2021-06-18T22:35:09Z</time>
      </trkpt>
      <trkpt lat="42.78689" lon="-0.49422">
        <ele>1502</ele>
        <time>2021-06-18T22:35:18Z</time>
      </trkpt>
      <trkpt lat="42.78705" lon="-0.49367">
        <ele>1503</ele>
        <time>2021-06-18T22:35:28Z</time>
      </trkpt>
      <trkpt lat="42.78716" lon="-0.49362">
        <ele>1505</ele>
        <time>2021-06-18T22:35:30Z</time>
      </trkpt>
      <trkpt lat="42.7873" lon="-0.49317">
        <ele>1503</ele>
        <time>2021-06-18T22:35:39Z</time>
      </trkpt>
      <trkpt lat="42.7874" lon="-0.49297">
        <ele>1503</ele>
        <time>2021-06-18T22:35:43Z</time>
      </trkpt>
      <trkpt lat="42.78757" lon="-0.49285">
        <ele>1504</ele>
        <time>2021-06-18T22:35:47Z</time>
      </trkpt>
      <trkpt lat="42.78773" lon="-0.49279">
        <ele>1509</ele>
        <time>2021-06-18T22:35:51Z</time>
      </trkpt>
      <trkpt lat="42.78817" lon="-0.49232">
        <ele>1519</ele>
        <time>2021-06-18T22:36:04Z</time>
      </trkpt>
      <trkpt lat="42.78865" lon="-0.49099">
        <ele>1522</ele>
        <time>2021-06-18T22:36:30Z</time>
      </trkpt>
      <trkpt lat="42.78871" lon="-0.49092">
        <ele>1524</ele>
        <time>2021-06-18T22:36:32Z</time>
      </trkpt>
      <trkpt lat="42.78876" lon="-0.4909">
        <ele>1525</ele>
        <time>2021-06-18T22:36:33Z</time>
      </trkpt>
      <trkpt lat="42.78883" lon="-0.49062">
        <ele>1527</ele>
        <time>2021-06-18T22:36:38Z</time>
      </trkpt>
      <trkpt lat="42.78883" lon="-0.49052">
        <ele>1527</ele>
        <time>2021-06-18T22:36:40Z</time>
      </trkpt>
      <trkpt lat="42.78898" lon="-0.49024">
        <ele>1529</ele>
        <time>2021-06-18T22:36:46Z</time>
      </trkpt>
      <trkpt lat="42.78909" lon="-0.48934">
        <ele>1524</ele>
        <time>2021-06-18T22:37:01Z</time>
      </trkpt>
      <trkpt lat="42.78954" lon="-0.48876">
        <ele>1536</ele>
        <time>2021-06-18T22:37:16Z</time>
      </trkpt>
      <trkpt lat="42.78965" lon="-0.48837">
        <ele>1537</ele>
        <time>2021-06-18T22:37:23Z</time>
      </trkpt>
      <trkpt lat="42.78989" lon="-0.48792">
        <ele>1541</ele>
        <time>2021-06-18T22:37:32Z</time>
      </trkpt>
      <trkpt lat="42.79005" lon="-0.48737">
        <ele>1543</ele>
        <time>2021-06-18T22:37:42Z</time>
      </trkpt>
      <trkpt lat="42.79009" lon="-0.48688">
        <ele>1544</ele>
        <time>2021-06-18T22:37:51Z</time>
      </trkpt>
      <trkpt lat="42.79003" lon="-0.48615">
        <ele>1541</ele>
        <time>2021-06-18T22:38:04Z</time>
      </trkpt>
      <trkpt lat="42.78996" lon="-0.48597">
        <ele>1540</ele>
        <time>2021-06-18T22:38:07Z</time>
      </trkpt>
      <trkpt lat="42.78989" lon="-0.48539">
        <ele>1544</ele>
        <time>2021-06-18T22:38:17Z</time>
      </trkpt>
      <trkpt lat="42.78998" lon="-0.48515">
        <ele>1545</ele>
        <time>2021-06-18T22:38:22Z</time>
      </trkpt>
      <trkpt lat="42.78988" lon="-0.48501">
        <ele>1547</ele>
        <time>2021-06-18T22:38:25Z</time>
      </trkpt>
      <trkpt lat="42.78991" lon="-0.48481">
        <ele>1547</ele>
        <time>2021-06-18T22:38:29Z</time>
      </trkpt>
      <trkpt lat="42.78987" lon="-0.48452">
        <ele>1547</ele>
        <time>2021-06-18T22:38:34Z</time>
      </trkpt>
      <trkpt lat="42.78987" lon="-0.48417">
        <ele>1547</ele>
        <time>2021-06-18T22:38:40Z</time>
      </trkpt>
      <trkpt lat="42.78979" lon="-0.48374">
        <ele>1551</ele>
        <time>2021-06-18T22:38:47Z</time>
      </trkpt>
      <trkpt lat="42.78978" lon="-0.48306">
        <ele>1557</ele>
        <time>2021-06-18T22:38:59Z</time>
      </trkpt>
      <trkpt lat="42.78971" lon="-0.48249">
        <ele>1566</ele>
        <time>2021-06-18T22:39:09Z</time>
      </trkpt>
      <trkpt lat="42.78975" lon="-0.48181">
        <ele>1570</ele>
        <time>2021-06-18T22:39:20Z</time>
      </trkpt>
      <trkpt lat="42.78981" lon="-0.48148">
        <ele>1572</ele>
        <time>2021-06-18T22:39:26Z</time>
      </trkpt>
      <trkpt lat="42.7899" lon="-0.4812">
        <ele>1573</ele>
        <time>2021-06-18T22:39:32Z</time>
      </trkpt>
      <trkpt lat="42.79008" lon="-0.48103">
        <ele>1572</ele>
        <time>2021-06-18T22:39:37Z</time>
      </trkpt>
      <trkpt lat="42.79036" lon="-0.4809">
        <ele>1575</ele>
        <time>2021-06-18T22:39:44Z</time>
      </trkpt>
      <trkpt lat="42.79042" lon="-0.48076">
        <ele>1577</ele>
        <time>2021-06-18T22:39:46Z</time>
      </trkpt>
      <trkpt lat="42.79041" lon="-0.48065">
        <ele>1579</ele>
        <time>2021-06-18T22:39:48Z</time>
      </trkpt>
      <trkpt lat="42.79024" lon="-0.48065">
        <ele>1580</ele>
        <time>2021-06-18T22:39:52Z</time>
      </trkpt>
      <trkpt lat="42.79023" lon="-0.48058">
        <ele>1582</ele>
        <time>2021-06-18T22:39:53Z</time>
      </trkpt>
      <trkpt lat="42.79036" lon="-0.48003">
        <ele>1594</ele>
        <time>2021-06-18T22:40:03Z</time>
      </trkpt>
      <trkpt lat="42.79049" lon="-0.48">
        <ele>1592</ele>
        <time>2021-06-18T22:40:06Z</time>
      </trkpt>
      <trkpt lat="42.79058" lon="-0.47988">
        <ele>1595</ele>
        <time>2021-06-18T22:40:09Z</time>
      </trkpt>
      <trkpt lat="42.79062" lon="-0.47973">
        <ele>1598</ele>
        <time>2021-06-18T22:40:12Z</time>
      </trkpt>
      <trkpt lat="42.7906" lon="-0.47945">
        <ele>1607</ele>
        <time>2021-06-18T22:40:17Z</time>
      </trkpt>
      <trkpt lat="42.79063" lon="-0.47926">
        <ele>1612</ele>
        <time>2021-06-18T22:40:20Z</time>
      </trkpt>
      <trkpt lat="42.79085" lon="-0.47912">
        <ele>1610</ele>
        <time>2021-06-18T22:40:26Z</time>
      </trkpt>
      <trkpt lat="42.79104" lon="-0.47878">
        <ele>1621</ele>
        <time>2021-06-18T22:40:33Z</time>
      </trkpt>
      <trkpt lat="42.79108" lon="-0.47862">
        <ele>1625</ele>
        <time>2021-06-18T22:40:36Z</time>
      </trkpt>
      <trkpt lat="42.79126" lon="-0.47853">
        <ele>1623</ele>
        <time>2021-06-18T22:40:41Z</time>
      </trkpt>
      <trkpt lat="42.79134" lon="-0.47844">
        <ele>1622</ele>
        <time>2021-06-18T22:40:43Z</time>
      </trkpt>
      <trkpt lat="42.79144" lon="-0.47843">
        <ele>1619</ele>
        <time>2021-06-18T22:40:45Z</time>
      </trkpt>
      <trkpt lat="42.79153" lon="-0.47837">
        <ele>1617</ele>
        <time>2021-06-18T22:40:48Z</time>
      </trkpt>
      <trkpt lat="42.79159" lon="-0.47816">
        <ele>1620</ele>
        <time>2021-06-18T22:40:52Z</time>
      </trkpt>
      <trkpt lat="42.79174" lon="-0.47793">
        <ele>1625</ele>
        <time>2021-06-18T22:40:57Z</time>
      </trkpt>
      <trkpt lat="42.79179" lon="-0.47765">
        <ele>1632</ele>
        <time>2021-06-18T22:41:02Z</time>
      </trkpt>
      <trkpt lat="42.79215" lon="-0.47711">
        <ele>1638</ele>
        <time>2021-06-18T22:41:14Z</time>
      </trkpt>
      <trkpt lat="42.79238" lon="-0.4765">
        <ele>1646</ele>
        <time>2021-06-18T22:41:26Z</time>
      </trkpt>
      <trkpt lat="42.79246" lon="-0.47649">
        <ele>1645</ele>
        <time>2021-06-18T22:41:28Z</time>
      </trkpt>
      <trkpt lat="42.79286" lon="-0.47605">
        <ele>1648</ele>
        <time>2021-06-18T22:41:40Z</time>
      </trkpt>
      <trkpt lat="42.79297" lon="-0.47584">
        <ele>1652</ele>
        <time>2021-06-18T22:41:44Z</time>
      </trkpt>
      <trkpt lat="42.79343" lon="-0.47536">
        <ele>1661</ele>
        <time>2021-06-18T22:41:58Z</time>
      </trkpt>
      <trkpt lat="42.79358" lon="-0.47528">
        <ele>1660</ele>
        <time>2021-06-18T22:42:02Z</time>
      </trkpt>
      <trkpt lat="42.7941" lon="-0.47427">
        <ele>1674</ele>
        <time>2021-06-18T22:42:23Z</time>
      </trkpt>
      <trkpt lat="42.79435" lon="-0.474">
        <ele>1676</ele>
        <time>2021-06-18T22:42:30Z</time>
      </trkpt>
      <trkpt lat="42.7944" lon="-0.474">
        <ele>1675</ele>
        <time>2021-06-18T22:42:31Z</time>
      </trkpt>
      <trkpt lat="42.79454" lon="-0.47387">
        <ele>1676</ele>
        <time>2021-06-18T22:42:35Z</time>
      </trkpt>
      <trkpt lat="42.79481" lon="-0.47327">
        <ele>1686</ele>
        <time>2021-06-18T22:42:47Z</time>
      </trkpt>
      <trkpt lat="42.79494" lon="-0.4731">
        <ele>1687</ele>
        <time>2021-06-18T22:42:52Z</time>
      </trkpt>
      <trkpt lat="42.79506" lon="-0.47282">
        <ele>1688</ele>
        <time>2021-06-18T22:42:57Z</time>
      </trkpt>
      <trkpt lat="42.79515" lon="-0.47193">
        <ele>1701</ele>
        <time>2021-06-18T22:43:13Z</time>
      </trkpt>
      <trkpt lat="42.79535" lon="-0.47119">
        <ele>1703</ele>
        <time>2021-06-18T22:43:26Z</time>
      </trkpt>
      <trkpt lat="42.79543" lon="-0.47097">
        <ele>1701</ele>
        <time>2021-06-18T22:43:30Z</time>
      </trkpt>
      <trkpt lat="42.79552" lon="-0.47086">
        <ele>1698</ele>
        <time>2021-06-18T22:43:33Z</time>
      </trkpt>
      <trkpt lat="42.79555" lon="-0.47067">
        <ele>1700</ele>
        <time>2021-06-18T22:43:36Z</time>
      </trkpt>
      <trkpt lat="42.79552" lon="-0.47054">
        <ele>1704</ele>
        <time>2021-06-18T22:43:39Z</time>
      </trkpt>
      <trkpt lat="42.79555" lon="-0.47046">
        <ele>1704</ele>
        <time>2021-06-18T22:43:40Z</time>
      </trkpt>
      <trkpt lat="42.79566" lon="-0.47038">
        <ele>1699</ele>
        <time>2021-06-18T22:43:43Z</time>
      </trkpt>
      <trkpt lat="42.79666" lon="-0.46809">
        <ele>1704</ele>
        <time>2021-06-18T22:44:29Z</time>
      </trkpt>
      <trkpt lat="42.7967" lon="-0.46718">
        <ele>1717</ele>
        <time>2021-06-18T22:44:45Z</time>
      </trkpt>
      <trkpt lat="42.79696" lon="-0.46618">
        <ele>1721</ele>
        <time>2021-06-18T22:45:03Z</time>
      </trkpt>
      <trkpt lat="42.79721" lon="-0.46493">
        <ele>1728</ele>
        <time>2021-06-18T22:45:25Z</time>
      </trkpt>
      <trkpt lat="42.79728" lon="-0.46429">
        <ele>1730</ele>
        <time>2021-06-18T22:45:36Z</time>
      </trkpt>
      <trkpt lat="42.79724" lon="-0.46315">
        <ele>1739</ele>
        <time>2021-06-18T22:45:56Z</time>
      </trkpt>
      <trkpt lat="42.79703" lon="-0.4621">
        <ele>1747</ele>
        <time>2021-06-18T22:46:14Z</time>
      </trkpt>
      <trkpt lat="42.79653" lon="-0.46124">
        <ele>1758</ele>
        <time>2021-06-18T22:46:33Z</time>
      </trkpt>
      <trkpt lat="42.79644" lon="-0.46089">
        <ele>1761</ele>
        <time>2021-06-18T22:46:39Z</time>
      </trkpt>
      <trkpt lat="42.79617" lon="-0.4602">
        <ele>1772</ele>
        <time>2021-06-18T22:46:53Z</time>
      </trkpt>
      <trkpt lat="42.79595" lon="-0.45993">
        <ele>1775</ele>
        <time>2021-06-18T22:47:00Z</time>
      </trkpt>
      <trkpt lat="42.79571" lon="-0.4594">
        <ele>1779</ele>
        <time>2021-06-18T22:47:10Z</time>
      </trkpt>
      <trkpt lat="42.79553" lon="-0.45927">
        <ele>1783</ele>
        <time>2021-06-18T22:47:15Z</time>
      </trkpt>
      <trkpt lat="42.79525" lon="-0.4586">
        <ele>1786</ele>
        <time>2021-06-18T22:47:28Z</time>
      </trkpt>
      <trkpt lat="42.79472" lon="-0.45785">
        <ele>1795</ele>
        <time>2021-06-18T22:47:46Z</time>
      </trkpt>
      <trkpt lat="42.79322" lon="-0.45426">
        <ele>1819</ele>
        <time>2021-06-18T22:48:57Z</time>
      </trkpt>
      <trkpt lat="42.79294" lon="-0.45375">
        <ele>1830</ele>
        <time>2021-06-18T22:49:08Z</time>
      </trkpt>
      <trkpt lat="42.79257" lon="-0.45337">
        <ele>1837</ele>
        <time>2021-06-18T22:49:19Z</time>
      </trkpt>
      <trkpt lat="42.79209" lon="-0.45316">
        <ele>1843</ele>
        <time>2021-06-18T22:49:30Z</time>
      </trkpt>
      <trkpt lat="42.79166" lon="-0.45286">
        <ele>1848</ele>
        <time>2021-06-18T22:49:42Z</time>
      </trkpt>
      <trkpt lat="42.79066" lon="-0.45193">
        <ele>1861</ele>
        <time>2021-06-18T22:50:10Z</time>
      </trkpt>
      <trkpt lat="42.78989" lon="-0.45156">
        <ele>1870</ele>
        <time>2021-06-18T22:50:29Z</time>
      </trkpt>
      <trkpt lat="42.7896" lon="-0.45117">
        <ele>1868</ele>
        <time>2021-06-18T22:50:39Z</time>
      </trkpt>
      <trkpt lat="42.78871" lon="-0.45114">
        <ele>1874</ele>
        <time>2021-06-18T22:50:59Z</time>
      </trkpt>
      <trkpt lat="42.78765" lon="-0.44997">
        <ele>1867</ele>
        <time>2021-06-18T22:51:31Z</time>
      </trkpt>
      <trkpt lat="42.78718" lon="-0.44968">
        <ele>1877</ele>
        <time>2021-06-18T22:51:43Z</time>
      </trkpt>
      <trkpt lat="42.78664" lon="-0.44945">
        <ele>1889</ele>
        <time>2021-06-18T22:51:56Z</time>
      </trkpt>
      <trkpt lat="42.7862" lon="-0.44881">
        <ele>1900</ele>
        <time>2021-06-18T22:52:12Z</time>
      </trkpt>
      <trkpt lat="42.78576" lon="-0.44842">
        <ele>1910</ele>
        <time>2021-06-18T22:52:24Z</time>
      </trkpt>
      <trkpt lat="42.78561" lon="-0.44806">
        <ele>1912</ele>
        <time>2021-06-18T22:52:31Z</time>
      </trkpt>
      <trkpt lat="42.78493" lon="-0.4476">
        <ele>1922</ele>
        <time>2021-06-18T22:52:49Z</time>
      </trkpt>
      <trkpt lat="42.78453" lon="-0.44764">
        <ele>1935</ele>
        <time>2021-06-18T22:52:58Z</time>
      </trkpt>
      <trkpt lat="42.78448" lon="-0.44752">
        <ele>1934</ele>
        <time>2021-06-18T22:53:00Z</time>
      </trkpt>
      <trkpt lat="42.78439" lon="-0.44742">
        <ele>1938</ele>
        <time>2021-06-18T22:53:03Z</time>
      </trkpt>
      <trkpt lat="42.78438" lon="-0.44708">
        <ele>1943</ele>
        <time>2021-06-18T22:53:09Z</time>
      </trkpt>
      <trkpt lat="42.78418" lon="-0.44684">
        <ele>1953</ele>
        <time>2021-06-18T22:53:15Z</time>
      </trkpt>
      <trkpt lat="42.78418" lon="-0.44689">
        <ele>1952</ele>
        <time>2021-06-18T22:53:16Z</time>
      </trkpt>
      <trkpt lat="42.78409" lon="-0.44693">
        <ele>1957</ele>
        <time>2021-06-18T22:53:18Z</time>
      </trkpt>
      <trkpt lat="42.78407" lon="-0.44703">
        <ele>1957</ele>
        <time>2021-06-18T22:53:20Z</time>
      </trkpt>
      <trkpt lat="42.78401" lon="-0.44711">
        <ele>1960</ele>
        <time>2021-06-18T22:53:22Z</time>
      </trkpt>
      <trkpt lat="42.78395" lon="-0.44712">
        <ele>1964</ele>
        <time>2021-06-18T22:53:23Z</time>
      </trkpt>
      <trkpt lat="42.78392" lon="-0.447">
        <ele>1968</ele>
        <time>2021-06-18T22:53:25Z</time>
      </trkpt>
      <trkpt lat="42.78383" lon="-0.44704">
        <ele>1974</ele>
        <time>2021-06-18T22:53:28Z</time>
      </trkpt>
      <trkpt lat="42.78372" lon="-0.44671">
        <ele>1984</ele>
        <time>2021-06-18T22:53:34Z</time>
      </trkpt>
      <trkpt lat="42.78375" lon="-0.44642">
        <ele>1984</ele>
        <time>2021-06-18T22:53:39Z</time>
      </trkpt>
      <trkpt lat="42.78365" lon="-0.44616">
        <ele>1991</ele>
        <time>2021-06-18T22:53:44Z</time>
      </trkpt>
      <trkpt lat="42.7835" lon="-0.44637">
        <ele>1998</ele>
        <time>2021-06-18T22:53:49Z</time>
      </trkpt>
      <trkpt lat="42.78346" lon="-0.44621">
        <ele>2001</ele>
        <time>2021-06-18T22:53:52Z</time>
      </trkpt>
      <trkpt lat="42.78333" lon="-0.44633">
        <ele>2008</ele>
        <time>2021-06-18T22:53:56Z</time>
      </trkpt>
      <trkpt lat="42.78319" lon="-0.44649">
        <ele>2020</ele>
        <time>2021-06-18T22:54:00Z</time>
      </trkpt>
      <trkpt lat="42.78319" lon="-0.44675">
        <ele>2019</ele>
        <time>2021-06-18T22:54:04Z</time>
      </trkpt>
      <trkpt lat="42.78308" lon="-0.44694">
        <ele>2028</ele>
        <time>2021-06-18T22:54:08Z</time>
      </trkpt>
      <trkpt lat="42.78291" lon="-0.44695">
        <ele>2042</ele>
        <time>2021-06-18T22:54:12Z</time>
      </trkpt>
      <trkpt lat="42.78287" lon="-0.446">
        <ele>2049</ele>
        <time>2021-06-18T22:54:29Z</time>
      </trkpt>
      <trkpt lat="42.78291" lon="-0.44573">
        <ele>2050</ele>
        <time>2021-06-18T22:54:33Z</time>
      </trkpt>
      <trkpt lat="42.78282" lon="-0.44569">
        <ele>2060</ele>
        <time>2021-06-18T22:54:36Z</time>
      </trkpt>
      <trkpt lat="42.78268" lon="-0.4459">
        <ele>2067</ele>
        <time>2021-06-18T22:54:40Z</time>
      </trkpt>
      <trkpt lat="42.78255" lon="-0.44659">
        <ele>2071</ele>
        <time>2021-06-18T22:54:53Z</time>
      </trkpt>
      <trkpt lat="42.78228" lon="-0.44702">
        <ele>2089</ele>
        <time>2021-06-18T22:55:02Z</time>
      </trkpt>
      <trkpt lat="42.78221" lon="-0.44735">
        <ele>2091</ele>
        <time>2021-06-18T22:55:08Z</time>
      </trkpt>
      <trkpt lat="42.78193" lon="-0.44745">
        <ele>2104</ele>
        <time>2021-06-18T22:55:15Z</time>
      </trkpt>
      <trkpt lat="42.78193" lon="-0.44807">
        <ele>2108</ele>
        <time>2021-06-18T22:55:26Z</time>
      </trkpt>
      <trkpt lat="42.78223" lon="-0.44859">
        <ele>2115</ele>
        <time>2021-06-18T22:55:37Z</time>
      </trkpt>
      <trkpt lat="42.78161" lon="-0.44925">
        <ele>2147</ele>
        <time>2021-06-18T22:55:55Z</time>
      </trkpt>
      <trkpt lat="42.78142" lon="-0.44922">
        <ele>2153</ele>
        <time>2021-06-18T22:56:00Z</time>
      </trkpt>
      <trkpt lat="42.78124" lon="-0.44945">
        <ele>2166</ele>
        <time>2021-06-18T22:56:06Z</time>
      </trkpt>
      <trkpt lat="42.78141" lon="-0.44969">
        <ele>2169</ele>
        <time>2021-06-18T22:56:11Z</time>
      </trkpt>
      <trkpt lat="42.78097" lon="-0.44994">
        <ele>2185</ele>
        <time>2021-06-18T22:56:22Z</time>
      </trkpt>
      <trkpt lat="42.78078" lon="-0.44986">
        <ele>2190</ele>
        <time>2021-06-18T22:56:27Z</time>
      </trkpt>
      <trkpt lat="42.78068" lon="-0.44965">
        <ele>2192</ele>
        <time>2021-06-18T22:56:31Z</time>
      </trkpt>
      <trkpt lat="42.78049" lon="-0.44996">
        <ele>2208</ele>
        <time>2021-06-18T22:56:38Z</time>
      </trkpt>
      <trkpt lat="42.78044" lon="-0.44956">
        <ele>2206</ele>
        <time>2021-06-18T22:56:45Z</time>
      </trkpt>
      <trkpt lat="42.78027" lon="-0.44942">
        <ele>2216</ele>
        <time>2021-06-18T22:56:50Z</time>
      </trkpt>
      <trkpt lat="42.78018" lon="-0.44908">
        <ele>2218</ele>
        <time>2021-06-18T22:56:56Z</time>
      </trkpt>
      <trkpt lat="42.78013" lon="-0.44872">
        <ele>2214</ele>
        <time>2021-06-18T22:57:02Z</time>
      </trkpt>
      <trkpt lat="42.78013" lon="-0.44845">
        <ele>2209</ele>
        <time>2021-06-18T22:57:07Z</time>
      </trkpt>
      <trkpt lat="42.77993" lon="-0.4481">
        <ele>2218</ele>
        <time>2021-06-18T22:57:15Z</time>
      </trkpt>
      <trkpt lat="42.77969" lon="-0.44792">
        <ele>2225</ele>
        <time>2021-06-18T22:57:21Z</time>
      </trkpt>
      <trkpt lat="42.77946" lon="-0.44729">
        <ele>2229</ele>
        <time>2021-06-18T22:57:33Z</time>
      </trkpt>
      <trkpt lat="42.77969" lon="-0.44635">
        <ele>2225</ele>
        <time>2021-06-18T22:57:50Z</time>
      </trkpt>
      <trkpt lat="42.77959" lon="-0.4457">
        <ele>2227</ele>
        <time>2021-06-18T22:58:01Z</time>
      </trkpt>
      <trkpt lat="42.77951" lon="-0.44544">
        <ele>2227</ele>
        <time>2021-06-18T22:58:06Z</time>
      </trkpt>
      <trkpt lat="42.77943" lon="-0.44533">
        <ele>2227</ele>
        <time>2021-06-18T22:58:09Z</time>
      </trkpt>
      <trkpt lat="42.77894" lon="-0.44586">
        <ele>2232</ele>
        <time>2021-06-18T22:58:24Z</time>
      </trkpt>
      <trkpt lat="42.7784" lon="-0.44612">
        <ele>2236</ele>
        <time>2021-06-18T22:58:37Z</time>
      </trkpt>
      <trkpt lat="42.77791" lon="-0.4461">
        <ele>2234</ele>
        <time>2021-06-18T22:58:48Z</time>
      </trkpt>
      <trkpt lat="42.77782" lon="-0.44596">
        <ele>2233</ele>
        <time>2021-06-18T22:58:52Z</time>
      </trkpt>
      <trkpt lat="42.77775" lon="-0.44557">
        <ele>2230</ele>
        <time>2021-06-18T22:58:58Z</time>
      </trkpt>
      <trkpt lat="42.77718" lon="-0.44601">
        <ele>2233</ele>
        <time>2021-06-18T22:59:14Z</time>
      </trkpt>
      <trkpt lat="42.77708" lon="-0.4462">
        <ele>2235</ele>
        <time>2021-06-18T22:59:18Z</time>
      </trkpt>
      <trkpt lat="42.77693" lon="-0.44622">
        <ele>2235</ele>
        <time>2021-06-18T22:59:21Z</time>
      </trkpt>
      <trkpt lat="42.77656" lon="-0.44528">
        <ele>2234</ele>
        <time>2021-06-18T22:59:40Z</time>
      </trkpt>
      <trkpt lat="42.77663" lon="-0.44506">
        <ele>2233</ele>
        <time>2021-06-18T22:59:44Z</time>
      </trkpt>
      <trkpt lat="42.77662" lon="-0.44482">
        <ele>2233</ele>
        <time>2021-06-18T22:59:48Z</time>
      </trkpt>
      <trkpt lat="42.77672" lon="-0.44404">
        <ele>2230</ele>
        <time>2021-06-18T23:00:01Z</time>
      </trkpt>
      <trkpt lat="42.7766" lon="-0.44372">
        <ele>2230</ele>
        <time>2021-06-18T23:00:08Z</time>
      </trkpt>
      <trkpt lat="42.77658" lon="-0.4435">
        <ele>2230</ele>
        <time>2021-06-18T23:00:11Z</time>
      </trkpt>
      <trkpt lat="42.77635" lon="-0.44302">
        <ele>2230</ele>
        <time>2021-06-18T23:00:21Z</time>
      </trkpt>
      <trkpt lat="42.77633" lon="-0.44256">
        <ele>2231</ele>
        <time>2021-06-18T23:00:29Z</time>
      </trkpt>
      <trkpt lat="42.77635" lon="-0.44244">
        <ele>2231</ele>
        <time>2021-06-18T23:00:31Z</time>
      </trkpt>
      <trkpt lat="42.77624" lon="-0.44202">
        <ele>2230</ele>
        <time>2021-06-18T23:00:39Z</time>
      </trkpt>
      <trkpt lat="42.77613" lon="-0.44178">
        <ele>2230</ele>
        <time>2021-06-18T23:00:44Z</time>
      </trkpt>
      <trkpt lat="42.77567" lon="-0.44121">
        <ele>2224</ele>
        <time>2021-06-18T23:00:58Z</time>
      </trkpt>
      <trkpt lat="42.77565" lon="-0.44103">
        <ele>2222</ele>
        <time>2021-06-18T23:01:01Z</time>
      </trkpt>
      <trkpt lat="42.77568" lon="-0.44041">
        <ele>2212</ele>
        <time>2021-06-18T23:01:12Z</time>
      </trkpt>
      <trkpt lat="42.77589" lon="-0.44004">
        <ele>2209</ele>
        <time>2021-06-18T23:01:20Z</time>
      </trkpt>
      <trkpt lat="42.77592" lon="-0.43994">
        <ele>2208</ele>
        <time>2021-06-18T23:01:22Z</time>
      </trkpt>
      <trkpt lat="42.7759" lon="-0.4397">
        <ele>2203</ele>
        <time>2021-06-18T23:01:26Z</time>
      </trkpt>
      <trkpt lat="42.77558" lon="-0.43892">
        <ele>2177</ele>
        <time>2021-06-18T23:01:41Z</time>
      </trkpt>
      <trkpt lat="42.77539" lon="-0.43811">
        <ele>2155</ele>
        <time>2021-06-18T23:01:56Z</time>
      </trkpt>
      <trkpt lat="42.775" lon="-0.438">
        <ele>2136</ele>
        <time>2021-06-18T23:02:05Z</time>
      </trkpt>
      <trkpt lat="42.77488" lon="-0.43764">
        <ele>2131</ele>
        <time>2021-06-18T23:02:12Z</time>
      </trkpt>
      <trkpt lat="42.77476" lon="-0.4375">
        <ele>2129</ele>
        <time>2021-06-18T23:02:16Z</time>
      </trkpt>
      <trkpt lat="42.77475" lon="-0.43701">
        <ele>2121</ele>
        <time>2021-06-18T23:02:24Z</time>
      </trkpt>
      <trkpt lat="42.77447" lon="-0.43595">
        <ele>2093</ele>
        <time>2021-06-18T23:02:43Z</time>
      </trkpt>
      <trkpt lat="42.77449" lon="-0.43583">
        <ele>2090</ele>
        <time>2021-06-18T23:02:45Z</time>
      </trkpt>
      <trkpt lat="42.7744" lon="-0.43567">
        <ele>2086</ele>
        <time>2021-06-18T23:02:49Z</time>
      </trkpt>
      <trkpt lat="42.77441" lon="-0.43559">
        <ele>2084</ele>
        <time>2021-06-18T23:02:50Z</time>
      </trkpt>
      <trkpt lat="42.77465" lon="-0.4353">
        <ele>2073</ele>
        <time>2021-06-18T23:02:58Z</time>
      </trkpt>
      <trkpt lat="42.77482" lon="-0.43498">
        <ele>2061</ele>
        <time>2021-06-18T23:03:05Z</time>
      </trkpt>
      <trkpt lat="42.77471" lon="-0.43466">
        <ele>2059</ele>
        <time>2021-06-18T23:03:11Z</time>
      </trkpt>
      <trkpt lat="42.77474" lon="-0.43438">
        <ele>2055</ele>
        <time>2021-06-18T23:03:15Z</time>
      </trkpt>
      <trkpt lat="42.77471" lon="-0.43422">
        <ele>2054</ele>
        <time>2021-06-18T23:03:18Z</time>
      </trkpt>
      <trkpt lat="42.77477" lon="-0.43396">
        <ele>2050</ele>
        <time>2021-06-18T23:03:23Z</time>
      </trkpt>
      <trkpt lat="42.77477" lon="-0.43334">
        <ele>2044</ele>
        <time>2021-06-18T23:03:34Z</time>
      </trkpt>
      <trkpt lat="42.77482" lon="-0.43326">
        <ele>2041</ele>
        <time>2021-06-18T23:03:35Z</time>
      </trkpt>
      <trkpt lat="42.77484" lon="-0.43306">
        <ele>2036</ele>
        <time>2021-06-18T23:03:39Z</time>
      </trkpt>
      <trkpt lat="42.77495" lon="-0.43266">
        <ele>2023</ele>
        <time>2021-06-18T23:03:46Z</time>
      </trkpt>
      <trkpt lat="42.77496" lon="-0.43235">
        <ele>2016</ele>
        <time>2021-06-18T23:03:51Z</time>
      </trkpt>
      <trkpt lat="42.77501" lon="-0.4322">
        <ele>2012</ele>
        <time>2021-06-18T23:03:54Z</time>
      </trkpt>
      <trkpt lat="42.77499" lon="-0.43202">
        <ele>2009</ele>
        <time>2021-06-18T23:03:57Z</time>
      </trkpt>
      <trkpt lat="42.77501" lon="-0.43125">
        <ele>1999</ele>
        <time>2021-06-18T23:04:11Z</time>
      </trkpt>
      <trkpt lat="42.77509" lon="-0.4311">
        <ele>2000</ele>
        <time>2021-06-18T23:04:14Z</time>
      </trkpt>
      <trkpt lat="42.775" lon="-0.43091">
        <ele>1996</ele>
        <time>2021-06-18T23:04:18Z</time>
      </trkpt>
      <trkpt lat="42.77486" lon="-0.43079">
        <ele>1998</ele>
        <time>2021-06-18T23:04:22Z</time>
      </trkpt>
      <trkpt lat="42.77488" lon="-0.43073">
        <ele>1998</ele>
        <time>2021-06-18T23:04:23Z</time>
      </trkpt>
      <trkpt lat="42.77481" lon="-0.43062">
        <ele>1998</ele>
        <time>2021-06-18T23:04:25Z</time>
      </trkpt>
      <trkpt lat="42.77474" lon="-0.43029">
        <ele>1996</ele>
        <time>2021-06-18T23:04:31Z</time>
      </trkpt>
      <trkpt lat="42.7747" lon="-0.42983">
        <ele>1993</ele>
        <time>2021-06-18T23:04:39Z</time>
      </trkpt>
      <trkpt lat="42.77454" lon="-0.4291">
        <ele>1986</ele>
        <time>2021-06-18T23:04:52Z</time>
      </trkpt>
      <trkpt lat="42.77405" lon="-0.42794">
        <ele>1954</ele>
        <time>2021-06-18T23:05:15Z</time>
      </trkpt>
      <trkpt lat="42.77376" lon="-0.42683">
        <ele>1932</ele>
        <time>2021-06-18T23:05:35Z</time>
      </trkpt>
      <trkpt lat="42.77371" lon="-0.42628">
        <ele>1922</ele>
        <time>2021-06-18T23:05:45Z</time>
      </trkpt>
      <trkpt lat="42.77367" lon="-0.42613">
        <ele>1919</ele>
        <time>2021-06-18T23:05:47Z</time>
      </trkpt>
      <trkpt lat="42.77366" lon="-0.42584">
        <ele>1915</ele>
        <time>2021-06-18T23:05:52Z</time>
      </trkpt>
      <trkpt lat="42.77367" lon="-0.42565">
        <ele>1915</ele>
        <time>2021-06-18T23:05:56Z</time>
      </trkpt>
      <trkpt lat="42.77376" lon="-0.42547">
        <ele>1918</ele>
        <time>2021-06-18T23:05:59Z</time>
      </trkpt>
      <trkpt lat="42.77378" lon="-0.42524">
        <ele>1918</ele>
        <time>2021-06-18T23:06:03Z</time>
      </trkpt>
      <trkpt lat="42.77367" lon="-0.42475">
        <ele>1914</ele>
        <time>2021-06-18T23:06:12Z</time>
      </trkpt>
      <trkpt lat="42.77363" lon="-0.42467">
        <ele>1913</ele>
        <time>2021-06-18T23:06:14Z</time>
      </trkpt>
      <trkpt lat="42.77353" lon="-0.42461">
        <ele>1909</ele>
        <time>2021-06-18T23:06:16Z</time>
      </trkpt>
      <trkpt lat="42.77351" lon="-0.42457">
        <ele>1909</ele>
        <time>2021-06-18T23:06:17Z</time>
      </trkpt>
      <trkpt lat="42.77351" lon="-0.42437">
        <ele>1908</ele>
        <time>2021-06-18T23:06:21Z</time>
      </trkpt>
      <trkpt lat="42.77359" lon="-0.42416">
        <ele>1911</ele>
        <time>2021-06-18T23:06:25Z</time>
      </trkpt>
      <trkpt lat="42.77365" lon="-0.42388">
        <ele>1913</ele>
        <time>2021-06-18T23:06:30Z</time>
      </trkpt>
      <trkpt lat="42.77364" lon="-0.42373">
        <ele>1913</ele>
        <time>2021-06-18T23:06:32Z</time>
      </trkpt>
      <trkpt lat="42.77358" lon="-0.42363">
        <ele>1910</ele>
        <time>2021-06-18T23:06:34Z</time>
      </trkpt>
      <trkpt lat="42.77351" lon="-0.42327">
        <ele>1906</ele>
        <time>2021-06-18T23:06:41Z</time>
      </trkpt>
      <trkpt lat="42.77352" lon="-0.42292">
        <ele>1907</ele>
        <time>2021-06-18T23:06:47Z</time>
      </trkpt>
      <trkpt lat="42.77359" lon="-0.42257">
        <ele>1909</ele>
        <time>2021-06-18T23:06:53Z</time>
      </trkpt>
      <trkpt lat="42.77361" lon="-0.42221">
        <ele>1903</ele>
        <time>2021-06-18T23:06:59Z</time>
      </trkpt>
      <trkpt lat="42.77359" lon="-0.422">
        <ele>1896</ele>
        <time>2021-06-18T23:07:03Z</time>
      </trkpt>
      <trkpt lat="42.77337" lon="-0.42149">
        <ele>1876</ele>
        <time>2021-06-18T23:07:13Z</time>
      </trkpt>
      <trkpt lat="42.77321" lon="-0.41983">
        <ele>1841</ele>
        <time>2021-06-18T23:07:42Z</time>
      </trkpt>
      <trkpt lat="42.7731" lon="-0.41923">
        <ele>1832</ele>
        <time>2021-06-18T23:07:52Z</time>
      </trkpt>
      <trkpt lat="42.77307" lon="-0.41882">
        <ele>1828</ele>
        <time>2021-06-18T23:07:59Z</time>
      </trkpt>
      <trkpt lat="42.77311" lon="-0.41857">
        <ele>1825</ele>
        <time>2021-06-18T23:08:04Z</time>
      </trkpt>
      <trkpt lat="42.77336" lon="-0.41794">
        <ele>1821</ele>
        <time>2021-06-18T23:08:16Z</time>
      </trkpt>
      <trkpt lat="42.77336" lon="-0.41783">
        <ele>1821</ele>
        <time>2021-06-18T23:08:18Z</time>
      </trkpt>
      <trkpt lat="42.77356" lon="-0.41764">
        <ele>1820</ele>
        <time>2021-06-18T23:08:24Z</time>
      </trkpt>
      <trkpt lat="42.77369" lon="-0.41758">
        <ele>1818</ele>
        <time>2021-06-18T23:08:27Z</time>
      </trkpt>
      <trkpt lat="42.77378" lon="-0.41738">
        <ele>1818</ele>
        <time>2021-06-18T23:08:31Z</time>
      </trkpt>
      <trkpt lat="42.77401" lon="-0.41739">
        <ele>1814</ele>
        <time>2021-06-18T23:08:36Z</time>
      </trkpt>
      <trkpt lat="42.77412" lon="-0.41745">
        <ele>1811</ele>
        <time>2021-06-18T23:08:39Z</time>
      </trkpt>
      <trkpt lat="42.77426" lon="-0.41741">
        <ele>1811</ele>
        <time>2021-06-18T23:08:42Z</time>
      </trkpt>
      <trkpt lat="42.77428" lon="-0.41737">
        <ele>1811</ele>
        <time>2021-06-18T23:08:43Z</time>
      </trkpt>
      <trkpt lat="42.77437" lon="-0.41737">
        <ele>1811</ele>
        <time>2021-06-18T23:08:45Z</time>
      </trkpt>
      <trkpt lat="42.77445" lon="-0.41731">
        <ele>1811</ele>
        <time>2021-06-18T23:08:47Z</time>
      </trkpt>
      <trkpt lat="42.77457" lon="-0.41729">
        <ele>1810</ele>
        <time>2021-06-18T23:08:50Z</time>
      </trkpt>
      <trkpt lat="42.77473" lon="-0.41703">
        <ele>1811</ele>
        <time>2021-06-18T23:08:56Z</time>
      </trkpt>
      <trkpt lat="42.77479" lon="-0.41704">
        <ele>1810</ele>
        <time>2021-06-18T23:08:57Z</time>
      </trkpt>
      <trkpt lat="42.77483" lon="-0.41697">
        <ele>1810</ele>
        <time>2021-06-18T23:08:59Z</time>
      </trkpt>
      <trkpt lat="42.77489" lon="-0.41697">
        <ele>1809</ele>
        <time>2021-06-18T23:09:00Z</time>
      </trkpt>
      <trkpt lat="42.77492" lon="-0.417">
        <ele>1809</ele>
        <time>2021-06-18T23:09:01Z</time>
      </trkpt>
      <trkpt lat="42.77516" lon="-0.41689">
        <ele>1805</ele>
        <time>2021-06-18T23:09:07Z</time>
      </trkpt>
      <trkpt lat="42.7753" lon="-0.41689">
        <ele>1803</ele>
        <time>2021-06-18T23:09:10Z</time>
      </trkpt>
      <trkpt lat="42.7754" lon="-0.41682">
        <ele>1801</ele>
        <time>2021-06-18T23:09:13Z</time>
      </trkpt>
      <trkpt lat="42.77553" lon="-0.41678">
        <ele>1798</ele>
        <time>2021-06-18T23:09:16Z</time>
      </trkpt>
      <trkpt lat="42.77579" lon="-0.41676">
        <ele>1793</ele>
        <time>2021-06-18T23:09:22Z</time>
      </trkpt>
      <trkpt lat="42.77586" lon="-0.41682">
        <ele>1793</ele>
        <time>2021-06-18T23:09:24Z</time>
      </trkpt>
      <trkpt lat="42.77609" lon="-0.41681">
        <ele>1791</ele>
        <time>2021-06-18T23:09:30Z</time>
      </trkpt>
      <trkpt lat="42.77631" lon="-0.41676">
        <ele>1789</ele>
        <time>2021-06-18T23:09:35Z</time>
      </trkpt>
      <trkpt lat="42.77649" lon="-0.41677">
        <ele>1788</ele>
        <time>2021-06-18T23:09:39Z</time>
      </trkpt>
      <trkpt lat="42.77661" lon="-0.41683">
        <ele>1788</ele>
        <time>2021-06-18T23:09:42Z</time>
      </trkpt>
      <trkpt lat="42.77695" lon="-0.41675">
        <ele>1782</ele>
        <time>2021-06-18T23:09:50Z</time>
      </trkpt>
      <trkpt lat="42.7771" lon="-0.41679">
        <ele>1779</ele>
        <time>2021-06-18T23:09:54Z</time>
      </trkpt>
      <trkpt lat="42.77736" lon="-0.41666">
        <ele>1774</ele>
        <time>2021-06-18T23:10:00Z</time>
      </trkpt>
      <trkpt lat="42.77813" lon="-0.41607">
        <ele>1765</ele>
        <time>2021-06-18T23:10:21Z</time>
      </trkpt>
      <trkpt lat="42.77851" lon="-0.41523">
        <ele>1759</ele>
        <time>2021-06-18T23:10:38Z</time>
      </trkpt>
      <trkpt lat="42.77867" lon="-0.41505">
        <ele>1756</ele>
        <time>2021-06-18T23:10:42Z</time>
      </trkpt>
      <trkpt lat="42.77878" lon="-0.41479">
        <ele>1753</ele>
        <time>2021-06-18T23:10:48Z</time>
      </trkpt>
      <trkpt lat="42.77898" lon="-0.41456">
        <ele>1747</ele>
        <time>2021-06-18T23:10:54Z</time>
      </trkpt>
      <trkpt lat="42.77904" lon="-0.41441">
        <ele>1744</ele>
        <time>2021-06-18T23:10:57Z</time>
      </trkpt>
      <trkpt lat="42.77906" lon="-0.41383">
        <ele>1741</ele>
        <time>2021-06-18T23:11:07Z</time>
      </trkpt>
      <trkpt lat="42.7792" lon="-0.41351">
        <ele>1740</ele>
        <time>2021-06-18T23:11:13Z</time>
      </trkpt>
      <trkpt lat="42.77933" lon="-0.41335">
        <ele>1739</ele>
        <time>2021-06-18T23:11:17Z</time>
      </trkpt>
      <trkpt lat="42.7795" lon="-0.41304">
        <ele>1737</ele>
        <time>2021-06-18T23:11:24Z</time>
      </trkpt>
      <trkpt lat="42.77957" lon="-0.41304">
        <ele>1736</ele>
        <time>2021-06-18T23:11:25Z</time>
      </trkpt>
      <trkpt lat="42.77962" lon="-0.41294">
        <ele>1735</ele>
        <time>2021-06-18T23:11:27Z</time>
      </trkpt>
      <trkpt lat="42.77975" lon="-0.41286">
        <ele>1733</ele>
        <time>2021-06-18T23:11:31Z</time>
      </trkpt>
      <trkpt lat="42.77992" lon="-0.41262">
        <ele>1729</ele>
        <time>2021-06-18T23:11:36Z</time>
      </trkpt>
      <trkpt lat="42.78006" lon="-0.41237">
        <ele>1727</ele>
        <time>2021-06-18T23:11:42Z</time>
      </trkpt>
      <trkpt lat="42.78013" lon="-0.41202">
        <ele>1726</ele>
        <time>2021-06-18T23:11:48Z</time>
      </trkpt>
      <trkpt lat="42.78017" lon="-0.41152">
        <ele>1725</ele>
        <time>2021-06-18T23:11:57Z</time>
      </trkpt>
      <trkpt lat="42.78027" lon="-0.41129">
        <ele>1724</ele>
        <time>2021-06-18T23:12:01Z</time>
      </trkpt>
      <trkpt lat="42.78039" lon="-0.41111">
        <ele>1723</ele>
        <time>2021-06-18T23:12:05Z</time>
      </trkpt>
      <trkpt lat="42.7809" lon="-0.41079">
        <ele>1719</ele>
        <time>2021-06-18T23:12:19Z</time>
      </trkpt>
      <trkpt lat="42.7811" lon="-0.41035">
        <ele>1718</ele>
        <time>2021-06-18T23:12:27Z</time>
      </trkpt>
      <trkpt lat="42.78105" lon="-0.40946">
        <ele>1713</ele>
        <time>2021-06-18T23:12:43Z</time>
      </trkpt>
      <trkpt lat="42.78144" lon="-0.40839">
        <ele>1703</ele>
        <time>2021-06-18T23:13:03Z</time>
      </trkpt>
      <trkpt lat="42.78147" lon="-0.40727">
        <ele>1695</ele>
        <time>2021-06-18T23:13:22Z</time>
      </trkpt>
      <trkpt lat="42.78155" lon="-0.40695">
        <ele>1691</ele>
        <time>2021-06-18T23:13:28Z</time>
      </trkpt>
      <trkpt lat="42.78175" lon="-0.40664">
        <ele>1684</ele>
        <time>2021-06-18T23:13:35Z</time>
      </trkpt>
      <trkpt lat="42.78203" lon="-0.40641">
        <ele>1681</ele>
        <time>2021-06-18T23:13:43Z</time>
      </trkpt>
      <trkpt lat="42.78232" lon="-0.40634">
        <ele>1676</ele>
        <time>2021-06-18T23:13:50Z</time>
      </trkpt>
      <trkpt lat="42.78265" lon="-0.40636">
        <ele>1672</ele>
        <time>2021-06-18T23:13:58Z</time>
      </trkpt>
      <trkpt lat="42.78299" lon="-0.40651">
        <ele>1672</ele>
        <time>2021-06-18T23:14:06Z</time>
      </trkpt>
      <trkpt lat="42.78324" lon="-0.40656">
        <ele>1670</ele>
        <time>2021-06-18T23:14:12Z</time>
      </trkpt>
      <trkpt lat="42.7836" lon="-0.40631">
        <ele>1671</ele>
        <time>2021-06-18T23:14:21Z</time>
      </trkpt>
      <trkpt lat="42.78376" lon="-0.40605">
        <ele>1669</ele>
        <time>2021-06-18T23:14:27Z</time>
      </trkpt>
      <trkpt lat="42.78385" lon="-0.40577">
        <ele>1666</ele>
        <time>2021-06-18T23:14:32Z</time>
      </trkpt>
      <trkpt lat="42.78381" lon="-0.40538">
        <ele>1661</ele>
        <time>2021-06-18T23:14:39Z</time>
      </trkpt>
      <trkpt lat="42.78349" lon="-0.4046">
        <ele>1650</ele>
        <time>2021-06-18T23:14:54Z</time>
      </trkpt>
      <trkpt lat="42.78351" lon="-0.40405">
        <ele>1644</ele>
        <time>2021-06-18T23:15:04Z</time>
      </trkpt>
      <trkpt lat="42.78366" lon="-0.40367">
        <ele>1641</ele>
        <time>2021-06-18T23:15:11Z</time>
      </trkpt>
      <trkpt lat="42.78417" lon="-0.40307">
        <ele>1635</ele>
        <time>2021-06-18T23:15:27Z</time>
      </trkpt>
      <trkpt lat="42.78433" lon="-0.40276">
        <ele>1633</ele>
        <time>2021-06-18T23:15:33Z</time>
      </trkpt>
      <trkpt lat="42.78442" lon="-0.40211">
        <ele>1626</ele>
        <time>2021-06-18T23:15:45Z</time>
      </trkpt>
      <trkpt lat="42.78464" lon="-0.40152">
        <ele>1621</ele>
        <time>2021-06-18T23:15:56Z</time>
      </trkpt>
      <trkpt lat="42.78502" lon="-0.40077">
        <ele>1614</ele>
        <time>2021-06-18T23:16:12Z</time>
      </trkpt>
      <trkpt lat="42.78501" lon="-0.40024">
        <ele>1608</ele>
        <time>2021-06-18T23:16:21Z</time>
      </trkpt>
      <trkpt lat="42.78506" lon="-0.39999">
        <ele>1606</ele>
        <time>2021-06-18T23:16:25Z</time>
      </trkpt>
      <trkpt lat="42.78511" lon="-0.39989">
        <ele>1606</ele>
        <time>2021-06-18T23:16:27Z</time>
      </trkpt>
      <trkpt lat="42.78523" lon="-0.39975">
        <ele>1605</ele>
        <time>2021-06-18T23:16:31Z</time>
      </trkpt>
      <trkpt lat="42.78569" lon="-0.3995">
        <ele>1605</ele>
        <time>2021-06-18T23:16:43Z</time>
      </trkpt>
      <trkpt lat="42.78599" lon="-0.39923">
        <ele>1605</ele>
        <time>2021-06-18T23:16:51Z</time>
      </trkpt>
      <trkpt lat="42.78641" lon="-0.39834">
        <ele>1602</ele>
        <time>2021-06-18T23:17:09Z</time>
      </trkpt>
      <trkpt lat="42.78704" lon="-0.39767">
        <ele>1604</ele>
        <time>2021-06-18T23:17:28Z</time>
      </trkpt>
      <trkpt lat="42.78706" lon="-0.39715">
        <ele>1605</ele>
        <time>2021-06-18T23:17:37Z</time>
      </trkpt>
      <trkpt lat="42.78691" lon="-0.39659">
        <ele>1607</ele>
        <time>2021-06-18T23:17:47Z</time>
      </trkpt>
      <trkpt lat="42.7866" lon="-0.39625">
        <ele>1607</ele>
        <time>2021-06-18T23:17:56Z</time>
      </trkpt>
      <trkpt lat="42.78618" lon="-0.39599">
        <ele>1607</ele>
        <time>2021-06-18T23:18:07Z</time>
      </trkpt>
      <trkpt lat="42.78591" lon="-0.39543">
        <ele>1608</ele>
        <time>2021-06-18T23:18:18Z</time>
      </trkpt>
      <trkpt lat="42.78576" lon="-0.39449">
        <ele>1612</ele>
        <time>2021-06-18T23:18:35Z</time>
      </trkpt>
      <trkpt lat="42.78579" lon="-0.39293">
        <ele>1622</ele>
        <time>2021-06-18T23:19:02Z</time>
      </trkpt>
      <trkpt lat="42.78586" lon="-0.39269">
        <ele>1624</ele>
        <time>2021-06-18T23:19:06Z</time>
      </trkpt>
      <trkpt lat="42.78599" lon="-0.39245">
        <ele>1627</ele>
        <time>2021-06-18T23:19:11Z</time>
      </trkpt>
      <trkpt lat="42.78481" lon="-0.38978">
        <ele>1609</ele>
        <time>2021-06-18T23:20:05Z</time>
      </trkpt>
      <trkpt lat="42.78467" lon="-0.38955">
        <ele>1608</ele>
        <time>2021-06-18T23:20:10Z</time>
      </trkpt>
      <trkpt lat="42.78448" lon="-0.38931">
        <ele>1606</ele>
        <time>2021-06-18T23:20:16Z</time>
      </trkpt>
      <trkpt lat="42.78421" lon="-0.38909">
        <ele>1602</ele>
        <time>2021-06-18T23:20:23Z</time>
      </trkpt>
      <trkpt lat="42.78389" lon="-0.38888">
        <ele>1599</ele>
        <time>2021-06-18T23:20:31Z</time>
      </trkpt>
      <trkpt lat="42.78175" lon="-0.38777">
        <ele>1580</ele>
        <time>2021-06-18T23:21:25Z</time>
      </trkpt>
      <trkpt lat="42.78136" lon="-0.38753">
        <ele>1575</ele>
        <time>2021-06-18T23:21:35Z</time>
      </trkpt>
      <trkpt lat="42.78113" lon="-0.38723">
        <ele>1571</ele>
        <time>2021-06-18T23:21:42Z</time>
      </trkpt>
      <trkpt lat="42.78089" lon="-0.38678">
        <ele>1567</ele>
        <time>2021-06-18T23:21:52Z</time>
      </trkpt>
      <trkpt lat="42.78076" lon="-0.38635">
        <ele>1564</ele>
        <time>2021-06-18T23:22:00Z</time>
      </trkpt>
      <trkpt lat="42.78074" lon="-0.3854">
        <ele>1560</ele>
        <time>2021-06-18T23:22:16Z</time>
      </trkpt>
      <trkpt lat="42.7808" lon="-0.38417">
        <ele>1554</ele>
        <time>2021-06-18T23:22:37Z</time>
      </trkpt>
      <trkpt lat="42.78079" lon="-0.38391">
        <ele>1552</ele>
        <time>2021-06-18T23:22:42Z</time>
      </trkpt>
      <trkpt lat="42.78075" lon="-0.38368">
        <ele>1550</ele>
        <time>2021-06-18T23:22:46Z</time>
      </trkpt>
      <trkpt lat="42.78061" lon="-0.38328">
        <ele>1547</ele>
        <time>2021-06-18T23:22:53Z</time>
      </trkpt>
      <trkpt lat="42.78035" lon="-0.38294">
        <ele>1545</ele>
        <time>2021-06-18T23:23:02Z</time>
      </trkpt>
      <trkpt lat="42.78005" lon="-0.38276">
        <ele>1542</ele>
        <time>2021-06-18T23:23:09Z</time>
      </trkpt>
      <trkpt lat="42.77949" lon="-0.3825">
        <ele>1537</ele>
        <time>2021-06-18T23:23:23Z</time>
      </trkpt>
      <trkpt lat="42.77924" lon="-0.38229">
        <ele>1536</ele>
        <time>2021-06-18T23:23:30Z</time>
      </trkpt>
      <trkpt lat="42.77858" lon="-0.38128">
        <ele>1522</ele>
        <time>2021-06-18T23:23:53Z</time>
      </trkpt>
      <trkpt lat="42.7778" lon="-0.37966">
        <ele>1525</ele>
        <time>2021-06-18T23:24:26Z</time>
      </trkpt>
      <trkpt lat="42.77733" lon="-0.37814">
        <ele>1524</ele>
        <time>2021-06-18T23:24:55Z</time>
      </trkpt>
      <trkpt lat="42.777" lon="-0.37691">
        <ele>1525</ele>
        <time>2021-06-18T23:25:17Z</time>
      </trkpt>
      <trkpt lat="42.77666" lon="-0.37598">
        <ele>1522</ele>
        <time>2021-06-18T23:25:35Z</time>
      </trkpt>
      <trkpt lat="42.7759" lon="-0.37431">
        <ele>1518</ele>
        <time>2021-06-18T23:26:09Z</time>
      </trkpt>
      <trkpt lat="42.77574" lon="-0.37368">
        <ele>1517</ele>
        <time>2021-06-18T23:26:20Z</time>
      </trkpt>
      <trkpt lat="42.77562" lon="-0.37295">
        <ele>1517</ele>
        <time>2021-06-18T23:26:33Z</time>
      </trkpt>
      <trkpt lat="42.77554" lon="-0.37117">
        <ele>1513</ele>
        <time>2021-06-18T23:27:04Z</time>
      </trkpt>
      <trkpt lat="42.77546" lon="-0.37005">
        <ele>1510</ele>
        <time>2021-06-18T23:27:23Z</time>
      </trkpt>
      <trkpt lat="42.77548" lon="-0.36977">
        <ele>1509</ele>
        <time>2021-06-18T23:27:28Z</time>
      </trkpt>
      <trkpt lat="42.77567" lon="-0.36907">
        <ele>1512</ele>
        <time>2021-06-18T23:27:40Z</time>
      </trkpt>
      <trkpt lat="42.77567" lon="-0.36882">
        <ele>1513</ele>
        <time>2021-06-18T23:27:45Z</time>
      </trkpt>
      <trkpt lat="42.77565" lon="-0.36874">
        <ele>1513</ele>
        <time>2021-06-18T23:27:46Z</time>
      </trkpt>
      <trkpt lat="42.7755" lon="-0.3685">
        <ele>1511</ele>
        <time>2021-06-18T23:27:52Z</time>
      </trkpt>
      <trkpt lat="42.77539" lon="-0.3684">
        <ele>1510</ele>
        <time>2021-06-18T23:27:55Z</time>
      </trkpt>
      <trkpt lat="42.77507" lon="-0.36796">
        <ele>1508</ele>
        <time>2021-06-18T23:28:05Z</time>
      </trkpt>
      <trkpt lat="42.77491" lon="-0.36768">
        <ele>1510</ele>
        <time>2021-06-18T23:28:11Z</time>
      </trkpt>
      <trkpt lat="42.77476" lon="-0.36729">
        <ele>1512</ele>
        <time>2021-06-18T23:28:19Z</time>
      </trkpt>
      <trkpt lat="42.77471" lon="-0.36708">
        <ele>1512</ele>
        <time>2021-06-18T23:28:23Z</time>
      </trkpt>
      <trkpt lat="42.77454" lon="-0.36686">
        <ele>1511</ele>
        <time>2021-06-18T23:28:28Z</time>
      </trkpt>
      <trkpt lat="42.77449" lon="-0.36647">
        <ele>1512</ele>
        <time>2021-06-18T23:28:35Z</time>
      </trkpt>
      <trkpt lat="42.77465" lon="-0.3658">
        <ele>1516</ele>
        <time>2021-06-18T23:28:47Z</time>
      </trkpt>
      <trkpt lat="42.77462" lon="-0.36539">
        <ele>1520</ele>
        <time>2021-06-18T23:28:54Z</time>
      </trkpt>
      <trkpt lat="42.77457" lon="-0.36517">
        <ele>1521</ele>
        <time>2021-06-18T23:28:58Z</time>
      </trkpt>
      <trkpt lat="42.77447" lon="-0.36495">
        <ele>1520</ele>
        <time>2021-06-18T23:29:02Z</time>
      </trkpt>
      <trkpt lat="42.77432" lon="-0.36491">
        <ele>1518</ele>
        <time>2021-06-18T23:29:06Z</time>
      </trkpt>
      <trkpt lat="42.77406" lon="-0.36453">
        <ele>1517</ele>
        <time>2021-06-18T23:29:15Z</time>
      </trkpt>
      <trkpt lat="42.77378" lon="-0.36366">
        <ele>1519</ele>
        <time>2021-06-18T23:29:31Z</time>
      </trkpt>
      <trkpt lat="42.7737" lon="-0.36318">
        <ele>1521</ele>
        <time>2021-06-18T23:29:40Z</time>
      </trkpt>
      <trkpt lat="42.77364" lon="-0.36306">
        <ele>1521</ele>
        <time>2021-06-18T23:29:42Z</time>
      </trkpt>
      <trkpt lat="42.77374" lon="-0.3629">
        <ele>1524</ele>
        <time>2021-06-18T23:29:46Z</time>
      </trkpt>
      <trkpt lat="42.77308" lon="-0.36174">
        <ele>1529</ele>
        <time>2021-06-18T23:30:11Z</time>
      </trkpt>
      <trkpt lat="42.77292" lon="-0.36137">
        <ele>1528</ele>
        <time>2021-06-18T23:30:18Z</time>
      </trkpt>
      <trkpt lat="42.7729" lon="-0.36112">
        <ele>1528</ele>
        <time>2021-06-18T23:30:23Z</time>
      </trkpt>
      <trkpt lat="42.77294" lon="-0.36076">
        <ele>1529</ele>
        <time>2021-06-18T23:30:29Z</time>
      </trkpt>
      <trkpt lat="42.77297" lon="-0.3607">
        <ele>1530</ele>
        <time>2021-06-18T23:30:30Z</time>
      </trkpt>
      <trkpt lat="42.7731" lon="-0.36081">
        <ele>1532</ele>
        <time>2021-06-18T23:30:34Z</time>
      </trkpt>
      <trkpt lat="42.77328" lon="-0.36079">
        <ele>1535</ele>
        <time>2021-06-18T23:30:38Z</time>
      </trkpt>
      <trkpt lat="42.77328" lon="-0.36044">
        <ele>1536</ele>
        <time>2021-06-18T23:30:44Z</time>
      </trkpt>
      <trkpt lat="42.77332" lon="-0.36032">
        <ele>1536</ele>
        <time>2021-06-18T23:30:46Z</time>
      </trkpt>
      <trkpt lat="42.77323" lon="-0.35985">
        <ele>1536</ele>
        <time>2021-06-18T23:30:54Z</time>
      </trkpt>
      <trkpt lat="42.77305" lon="-0.35964">
        <ele>1534</ele>
        <time>2021-06-18T23:31:00Z</time>
      </trkpt>
      <trkpt lat="42.77294" lon="-0.35946">
        <ele>1532</ele>
        <time>2021-06-18T23:31:04Z</time>
      </trkpt>
      <trkpt lat="42.77288" lon="-0.35809">
        <ele>1528</ele>
        <time>2021-06-18T23:31:28Z</time>
      </trkpt>
      <trkpt lat="42.77274" lon="-0.3574">
        <ele>1520</ele>
        <time>2021-06-18T23:31:40Z</time>
      </trkpt>
      <trkpt lat="42.7726" lon="-0.35723">
        <ele>1516</ele>
        <time>2021-06-18T23:31:44Z</time>
      </trkpt>
      <trkpt lat="42.77241" lon="-0.35714">
        <ele>1510</ele>
        <time>2021-06-18T23:31:49Z</time>
      </trkpt>
      <trkpt lat="42.77263" lon="-0.35636">
        <ele>1506</ele>
        <time>2021-06-18T23:32:03Z</time>
      </trkpt>
      <trkpt lat="42.77271" lon="-0.35619">
        <ele>1506</ele>
        <time>2021-06-18T23:32:07Z</time>
      </trkpt>
      <trkpt lat="42.77285" lon="-0.35603">
        <ele>1506</ele>
        <time>2021-06-18T23:32:11Z</time>
      </trkpt>
      <trkpt lat="42.77306" lon="-0.35585">
        <ele>1508</ele>
        <time>2021-06-18T23:32:17Z</time>
      </trkpt>
      <trkpt lat="42.77314" lon="-0.35572">
        <ele>1508</ele>
        <time>2021-06-18T23:32:20Z</time>
      </trkpt>
      <trkpt lat="42.77324" lon="-0.35528">
        <ele>1502</ele>
        <time>2021-06-18T23:32:28Z</time>
      </trkpt>
      <trkpt lat="42.77314" lon="-0.35572">
        <ele>1508</ele>
        <time>2021-06-18T23:32:35Z</time>
      </trkpt>
      <trkpt lat="42.77306" lon="-0.35585">
        <ele>1508</ele>
        <time>2021-06-18T23:32:38Z</time>
      </trkpt>
      <trkpt lat="42.77285" lon="-0.35603">
        <ele>1506</ele>
        <time>2021-06-18T23:32:44Z</time>
      </trkpt>
      <trkpt lat="42.77271" lon="-0.35619">
        <ele>1506</ele>
        <time>2021-06-18T23:32:48Z</time>
      </trkpt>
      <trkpt lat="42.77263" lon="-0.35636">
        <ele>1506</ele>
        <time>2021-06-18T23:32:52Z</time>
      </trkpt>
      <trkpt lat="42.77241" lon="-0.35714">
        <ele>1510</ele>
        <time>2021-06-18T23:33:06Z</time>
      </trkpt>
      <trkpt lat="42.77219" lon="-0.35695">
        <ele>1502</ele>
        <time>2021-06-18T23:33:12Z</time>
      </trkpt>
      <trkpt lat="42.77202" lon="-0.35667">
        <ele>1494</ele>
        <time>2021-06-18T23:33:19Z</time>
      </trkpt>
      <trkpt lat="42.77195" lon="-0.35648">
        <ele>1489</ele>
        <time>2021-06-18T23:33:22Z</time>
      </trkpt>
      <trkpt lat="42.77195" lon="-0.3563">
        <ele>1488</ele>
        <time>2021-06-18T23:33:25Z</time>
      </trkpt>
      <trkpt lat="42.77189" lon="-0.35607">
        <ele>1483</ele>
        <time>2021-06-18T23:33:29Z</time>
      </trkpt>
      <trkpt lat="42.77203" lon="-0.3559">
        <ele>1485</ele>
        <time>2021-06-18T23:33:34Z</time>
      </trkpt>
      <trkpt lat="42.772" lon="-0.35446">
        <ele>1480</ele>
        <time>2021-06-18T23:33:58Z</time>
      </trkpt>
      <trkpt lat="42.77179" lon="-0.35316">
        <ele>1466</ele>
        <time>2021-06-18T23:34:21Z</time>
      </trkpt>
      <trkpt lat="42.772" lon="-0.35182">
        <ele>1458</ele>
        <time>2021-06-18T23:34:45Z</time>
      </trkpt>
      <trkpt lat="42.77165" lon="-0.34977">
        <ele>1452</ele>
        <time>2021-06-18T23:35:21Z</time>
      </trkpt>
      <trkpt lat="42.77172" lon="-0.34879">
        <ele>1444</ele>
        <time>2021-06-18T23:35:38Z</time>
      </trkpt>
      <trkpt lat="42.77178" lon="-0.34862">
        <ele>1443</ele>
        <time>2021-06-18T23:35:41Z</time>
      </trkpt>
      <trkpt lat="42.77206" lon="-0.34821">
        <ele>1441</ele>
        <time>2021-06-18T23:35:51Z</time>
      </trkpt>
      <trkpt lat="42.77219" lon="-0.34812">
        <ele>1440</ele>
        <time>2021-06-18T23:35:54Z</time>
      </trkpt>
      <trkpt lat="42.77273" lon="-0.34799">
        <ele>1443</ele>
        <time>2021-06-18T23:36:07Z</time>
      </trkpt>
      <trkpt lat="42.77285" lon="-0.34785">
        <ele>1442</ele>
        <time>2021-06-18T23:36:10Z</time>
      </trkpt>
      <trkpt lat="42.77287" lon="-0.34768">
        <ele>1440</ele>
        <time>2021-06-18T23:36:13Z</time>
      </trkpt>
      <trkpt lat="42.77278" lon="-0.34754">
        <ele>1437</ele>
        <time>2021-06-18T23:36:17Z</time>
      </trkpt>
      <trkpt lat="42.77251" lon="-0.34741">
        <ele>1431</ele>
        <time>2021-06-18T23:36:23Z</time>
      </trkpt>
      <trkpt lat="42.77234" lon="-0.34729">
        <ele>1428</ele>
        <time>2021-06-18T23:36:28Z</time>
      </trkpt>
      <trkpt lat="42.77175" lon="-0.347">
        <ele>1420</ele>
        <time>2021-06-18T23:36:42Z</time>
      </trkpt>
      <trkpt lat="42.77164" lon="-0.3469">
        <ele>1418</ele>
        <time>2021-06-18T23:36:46Z</time>
      </trkpt>
      <trkpt lat="42.77165" lon="-0.34678">
        <ele>1417</ele>
        <time>2021-06-18T23:36:48Z</time>
      </trkpt>
      <trkpt lat="42.77172" lon="-0.34668">
        <ele>1416</ele>
        <time>2021-06-18T23:36:50Z</time>
      </trkpt>
      <trkpt lat="42.77197" lon="-0.34658">
        <ele>1416</ele>
        <time>2021-06-18T23:36:56Z</time>
      </trkpt>
      <trkpt lat="42.77312" lon="-0.34624">
        <ele>1420</ele>
        <time>2021-06-18T23:37:24Z</time>
      </trkpt>
      <trkpt lat="42.77322" lon="-0.34613">
        <ele>1420</ele>
        <time>2021-06-18T23:37:27Z</time>
      </trkpt>
      <trkpt lat="42.77328" lon="-0.34593">
        <ele>1418</ele>
        <time>2021-06-18T23:37:30Z</time>
      </trkpt>
      <trkpt lat="42.77324" lon="-0.34567">
        <ele>1416</ele>
        <time>2021-06-18T23:37:35Z</time>
      </trkpt>
      <trkpt lat="42.77316" lon="-0.34554">
        <ele>1414</ele>
        <time>2021-06-18T23:37:38Z</time>
      </trkpt>
      <trkpt lat="42.77286" lon="-0.34521">
        <ele>1409</ele>
        <time>2021-06-18T23:37:47Z</time>
      </trkpt>
      <trkpt lat="42.77276" lon="-0.34505">
        <ele>1406</ele>
        <time>2021-06-18T23:37:50Z</time>
      </trkpt>
      <trkpt lat="42.77269" lon="-0.34486">
        <ele>1404</ele>
        <time>2021-06-18T23:37:54Z</time>
      </trkpt>
      <trkpt lat="42.77255" lon="-0.34407">
        <ele>1397</ele>
        <time>2021-06-18T23:38:08Z</time>
      </trkpt>
      <trkpt lat="42.77257" lon="-0.34384">
        <ele>1395</ele>
        <time>2021-06-18T23:38:12Z</time>
      </trkpt>
      <trkpt lat="42.77246" lon="-0.3432">
        <ele>1388</ele>
        <time>2021-06-18T23:38:23Z</time>
      </trkpt>
      <trkpt lat="42.77251" lon="-0.34284">
        <ele>1389</ele>
        <time>2021-06-18T23:38:29Z</time>
      </trkpt>
      <trkpt lat="42.77244" lon="-0.34247">
        <ele>1388</ele>
        <time>2021-06-18T23:38:36Z</time>
      </trkpt>
      <trkpt lat="42.77238" lon="-0.34108">
        <ele>1381</ele>
        <time>2021-06-18T23:39:00Z</time>
      </trkpt>
      <trkpt lat="42.77193" lon="-0.34005">
        <ele>1368</ele>
        <time>2021-06-18T23:39:20Z</time>
      </trkpt>
      <trkpt lat="42.77086" lon="-0.33886">
        <ele>1347</ele>
        <time>2021-06-18T23:39:53Z</time>
      </trkpt>
      <trkpt lat="42.77037" lon="-0.33827">
        <ele>1331</ele>
        <time>2021-06-18T23:40:08Z</time>
      </trkpt>
      <trkpt lat="42.77021" lon="-0.33715">
        <ele>1320</ele>
        <time>2021-06-18T23:40:27Z</time>
      </trkpt>
      <trkpt lat="42.77006" lon="-0.3366">
        <ele>1315</ele>
        <time>2021-06-18T23:40:38Z</time>
      </trkpt>
      <trkpt lat="42.76996" lon="-0.33662">
        <ele>1315</ele>
        <time>2021-06-18T23:40:40Z</time>
      </trkpt>
      <trkpt lat="42.76979" lon="-0.33679">
        <ele>1312</ele>
        <time>2021-06-18T23:40:45Z</time>
      </trkpt>
      <trkpt lat="42.76972" lon="-0.33682">
        <ele>1311</ele>
        <time>2021-06-18T23:40:47Z</time>
      </trkpt>
      <trkpt lat="42.76966" lon="-0.33679">
        <ele>1310</ele>
        <time>2021-06-18T23:40:48Z</time>
      </trkpt>
      <trkpt lat="42.76964" lon="-0.33674">
        <ele>1309</ele>
        <time>2021-06-18T23:40:49Z</time>
      </trkpt>
      <trkpt lat="42.76962" lon="-0.33667">
        <ele>1308</ele>
        <time>2021-06-18T23:40:50Z</time>
      </trkpt>
      <trkpt lat="42.76989" lon="-0.33623">
        <ele>1310</ele>
        <time>2021-06-18T23:41:00Z</time>
      </trkpt>
      <trkpt lat="42.77016" lon="-0.33598">
        <ele>1310</ele>
        <time>2021-06-18T23:41:08Z</time>
      </trkpt>
      <trkpt lat="42.77015" lon="-0.33576">
        <ele>1307</ele>
        <time>2021-06-18T23:41:12Z</time>
      </trkpt>
      <trkpt lat="42.77" lon="-0.33516">
        <ele>1296</ele>
        <time>2021-06-18T23:41:22Z</time>
      </trkpt>
      <trkpt lat="42.76994" lon="-0.33413">
        <ele>1277</ele>
        <time>2021-06-18T23:41:40Z</time>
      </trkpt>
      <trkpt lat="42.76985" lon="-0.33363">
        <ele>1274</ele>
        <time>2021-06-18T23:41:49Z</time>
      </trkpt>
      <trkpt lat="42.7696" lon="-0.33368">
        <ele>1273</ele>
        <time>2021-06-18T23:41:55Z</time>
      </trkpt>
      <trkpt lat="42.76938" lon="-0.33327">
        <ele>1271</ele>
        <time>2021-06-18T23:42:04Z</time>
      </trkpt>
      <trkpt lat="42.76935" lon="-0.33326">
        <ele>1271</ele>
        <time>2021-06-18T23:42:04Z</time>
      </trkpt>
      <trkpt lat="42.76969" lon="-0.33273">
        <ele>1274</ele>
        <time>2021-06-18T23:42:16Z</time>
      </trkpt>
      <trkpt lat="42.76945" lon="-0.33235">
        <ele>1273</ele>
        <time>2021-06-18T23:42:25Z</time>
      </trkpt>
      <trkpt lat="42.7692" lon="-0.33206">
        <ele>1271</ele>
        <time>2021-06-18T23:42:33Z</time>
      </trkpt>
      <trkpt lat="42.76861" lon="-0.33084">
        <ele>1276</ele>
        <time>2021-06-18T23:42:58Z</time>
      </trkpt>
      <trkpt lat="42.76837" lon="-0.33023">
        <ele>1275</ele>
        <time>2021-06-18T23:43:09Z</time>
      </trkpt>
      <trkpt lat="42.76832" lon="-0.33008">
        <ele>1275</ele>
        <time>2021-06-18T23:43:12Z</time>
      </trkpt>
      <trkpt lat="42.76837" lon="-0.32936">
        <ele>1278</ele>
        <time>2021-06-18T23:43:25Z</time>
      </trkpt>
      <trkpt lat="42.76832" lon="-0.32908">
        <ele>1279</ele>
        <time>2021-06-18T23:43:30Z</time>
      </trkpt>
      <trkpt lat="42.76809" lon="-0.32836">
        <ele>1279</ele>
        <time>2021-06-18T23:43:43Z</time>
      </trkpt>
      <trkpt lat="42.76796" lon="-0.32776">
        <ele>1281</ele>
        <time>2021-06-18T23:43:54Z</time>
      </trkpt>
      <trkpt lat="42.76785" lon="-0.32694">
        <ele>1288</ele>
        <time>2021-06-18T23:44:08Z</time>
      </trkpt>
      <trkpt lat="42.76775" lon="-0.32645">
        <ele>1293</ele>
        <time>2021-06-18T23:44:17Z</time>
      </trkpt>
      <trkpt lat="42.76722" lon="-0.32505">
        <ele>1298</ele>
        <time>2021-06-18T23:44:44Z</time>
      </trkpt>
      <trkpt lat="42.76672" lon="-0.32413">
        <ele>1297</ele>
        <time>2021-06-18T23:45:03Z</time>
      </trkpt>
      <trkpt lat="42.76659" lon="-0.32393">
        <ele>1299</ele>
        <time>2021-06-18T23:45:08Z</time>
      </trkpt>
      <trkpt lat="42.76645" lon="-0.3238">
        <ele>1300</ele>
        <time>2021-06-18T23:45:12Z</time>
      </trkpt>
      <trkpt lat="42.76611" lon="-0.3236">
        <ele>1296</ele>
        <time>2021-06-18T23:45:21Z</time>
      </trkpt>
      <trkpt lat="42.7658" lon="-0.32332">
        <ele>1294</ele>
        <time>2021-06-18T23:45:29Z</time>
      </trkpt>
      <trkpt lat="42.76566" lon="-0.32323">
        <ele>1295</ele>
        <time>2021-06-18T23:45:33Z</time>
      </trkpt>
      <trkpt lat="42.76479" lon="-0.32306">
        <ele>1291</ele>
        <time>2021-06-18T23:45:53Z</time>
      </trkpt>
      <trkpt lat="42.76448" lon="-0.32296">
        <ele>1292</ele>
        <time>2021-06-18T23:46:01Z</time>
      </trkpt>
      <trkpt lat="42.76424" lon="-0.32294">
        <ele>1291</ele>
        <time>2021-06-18T23:46:07Z</time>
      </trkpt>
      <trkpt lat="42.76391" lon="-0.32281">
        <ele>1290</ele>
        <time>2021-06-18T23:46:15Z</time>
      </trkpt>
      <trkpt lat="42.76375" lon="-0.32271">
        <ele>1290</ele>
        <time>2021-06-18T23:46:19Z</time>
      </trkpt>
      <trkpt lat="42.76357" lon="-0.32256">
        <ele>1290</ele>
        <time>2021-06-18T23:46:24Z</time>
      </trkpt>
      <trkpt lat="42.76347" lon="-0.32241">
        <ele>1292</ele>
        <time>2021-06-18T23:46:27Z</time>
      </trkpt>
      <trkpt lat="42.76336" lon="-0.32212">
        <ele>1296</ele>
        <time>2021-06-18T23:46:33Z</time>
      </trkpt>
      <trkpt lat="42.76326" lon="-0.322">
        <ele>1297</ele>
        <time>2021-06-18T23:46:36Z</time>
      </trkpt>
      <trkpt lat="42.7632" lon="-0.32196">
        <ele>1297</ele>
        <time>2021-06-18T23:46:37Z</time>
      </trkpt>
      <trkpt lat="42.76277" lon="-0.32189">
        <ele>1291</ele>
        <time>2021-06-18T23:46:47Z</time>
      </trkpt>
      <trkpt lat="42.76258" lon="-0.32178">
        <ele>1290</ele>
        <time>2021-06-18T23:46:52Z</time>
      </trkpt>
      <trkpt lat="42.76168" lon="-0.32076">
        <ele>1288</ele>
        <time>2021-06-18T23:47:20Z</time>
      </trkpt>
      <trkpt lat="42.76159" lon="-0.32065">
        <ele>1288</ele>
        <time>2021-06-18T23:47:22Z</time>
      </trkpt>
      <trkpt lat="42.7614" lon="-0.32025">
        <ele>1289</ele>
        <time>2021-06-18T23:47:31Z</time>
      </trkpt>
      <trkpt lat="42.76122" lon="-0.31974">
        <ele>1293</ele>
        <time>2021-06-18T23:47:40Z</time>
      </trkpt>
      <trkpt lat="42.76097" lon="-0.31944">
        <ele>1288</ele>
        <time>2021-06-18T23:47:48Z</time>
      </trkpt>
      <trkpt lat="42.75989" lon="-0.31735">
        <ele>1296</ele>
        <time>2021-06-18T23:48:32Z</time>
      </trkpt>
      <trkpt lat="42.75976" lon="-0.31719">
        <ele>1298</ele>
        <time>2021-06-18T23:48:36Z</time>
      </trkpt>
      <trkpt lat="42.75947" lon="-0.31691">
        <ele>1294</ele>
        <time>2021-06-18T23:48:44Z</time>
      </trkpt>
      <trkpt lat="42.75921" lon="-0.3165">
        <ele>1295</ele>
        <time>2021-06-18T23:48:54Z</time>
      </trkpt>
      <trkpt lat="42.75886" lon="-0.31619">
        <ele>1299</ele>
        <time>2021-06-18T23:49:03Z</time>
      </trkpt>
      <trkpt lat="42.75861" lon="-0.31593">
        <ele>1300</ele>
        <time>2021-06-18T23:49:11Z</time>
      </trkpt>
      <trkpt lat="42.75827" lon="-0.31547">
        <ele>1300</ele>
        <time>2021-06-18T23:49:22Z</time>
      </trkpt>
      <trkpt lat="42.75816" lon="-0.31537">
        <ele>1300</ele>
        <time>2021-06-18T23:49:25Z</time>
      </trkpt>
      <trkpt lat="42.758" lon="-0.31528">
        <ele>1298</ele>
        <time>2021-06-18T23:49:29Z</time>
      </trkpt>
      <trkpt lat="42.75764" lon="-0.31521">
        <ele>1288</ele>
        <time>2021-06-18T23:49:38Z</time>
      </trkpt>
      <trkpt lat="42.75753" lon="-0.31515">
        <ele>1285</ele>
        <time>2021-06-18T23:49:40Z</time>
      </trkpt>
      <trkpt lat="42.75745" lon="-0.31504">
        <ele>1285</ele>
        <time>2021-06-18T23:49:43Z</time>
      </trkpt>
      <trkpt lat="42.75742" lon="-0.31398">
        <ele>1306</ele>
        <time>2021-06-18T23:50:01Z</time>
      </trkpt>
      <trkpt lat="42.75744" lon="-0.31355">
        <ele>1320</ele>
        <time>2021-06-18T23:50:09Z</time>
      </trkpt>
      <trkpt lat="42.75743" lon="-0.31344">
        <ele>1323</ele>
        <time>2021-06-18T23:50:10Z</time>
      </trkpt>
      <trkpt lat="42.75738" lon="-0.31335">
        <ele>1325</ele>
        <time>2021-06-18T23:50:12Z</time>
      </trkpt>
      <trkpt lat="42.75725" lon="-0.31334">
        <ele>1325</ele>
        <time>2021-06-18T23:50:15Z</time>
      </trkpt>
      <trkpt lat="42.75707" lon="-0.31359">
        <ele>1315</ele>
        <time>2021-06-18T23:50:21Z</time>
      </trkpt>
      <trkpt lat="42.75677" lon="-0.31383">
        <ele>1304</ele>
        <time>2021-06-18T23:50:30Z</time>
      </trkpt>
      <trkpt lat="42.75668" lon="-0.31387">
        <ele>1302</ele>
        <time>2021-06-18T23:50:32Z</time>
      </trkpt>
      <trkpt lat="42.7565" lon="-0.31387">
        <ele>1300</ele>
        <time>2021-06-18T23:50:36Z</time>
      </trkpt>
      <trkpt lat="42.75606" lon="-0.31366">
        <ele>1301</ele>
        <time>2021-06-18T23:50:47Z</time>
      </trkpt>
      <trkpt lat="42.75553" lon="-0.31349">
        <ele>1295</ele>
        <time>2021-06-18T23:51:00Z</time>
      </trkpt>
      <trkpt lat="42.75542" lon="-0.31341">
        <ele>1294</ele>
        <time>2021-06-18T23:51:02Z</time>
      </trkpt>
      <trkpt lat="42.75495" lon="-0.31283">
        <ele>1298</ele>
        <time>2021-06-18T23:51:17Z</time>
      </trkpt>
      <trkpt lat="42.75436" lon="-0.31236">
        <ele>1295</ele>
        <time>2021-06-18T23:51:33Z</time>
      </trkpt>
      <trkpt lat="42.75402" lon="-0.3119">
        <ele>1296</ele>
        <time>2021-06-18T23:51:44Z</time>
      </trkpt>
      <trkpt lat="42.75374" lon="-0.31138">
        <ele>1303</ele>
        <time>2021-06-18T23:51:55Z</time>
      </trkpt>
      <trkpt lat="42.75362" lon="-0.31124">
        <ele>1303</ele>
        <time>2021-06-18T23:51:59Z</time>
      </trkpt>
      <trkpt lat="42.75317" lon="-0.31095">
        <ele>1295</ele>
        <time>2021-06-18T23:52:11Z</time>
      </trkpt>
      <trkpt lat="42.75257" lon="-0.31032">
        <ele>1299</ele>
        <time>2021-06-18T23:52:28Z</time>
      </trkpt>
      <trkpt lat="42.75215" lon="-0.30993">
        <ele>1302</ele>
        <time>2021-06-18T23:52:40Z</time>
      </trkpt>
      <trkpt lat="42.75202" lon="-0.30987">
        <ele>1302</ele>
        <time>2021-06-18T23:52:44Z</time>
      </trkpt>
      <trkpt lat="42.75182" lon="-0.30984">
        <ele>1300</ele>
        <time>2021-06-18T23:52:48Z</time>
      </trkpt>
      <trkpt lat="42.7514" lon="-0.30963">
        <ele>1302</ele>
        <time>2021-06-18T23:52:59Z</time>
      </trkpt>
      <trkpt lat="42.75108" lon="-0.3095">
        <ele>1302</ele>
        <time>2021-06-18T23:53:06Z</time>
      </trkpt>
      <trkpt lat="42.75064" lon="-0.30938">
        <ele>1299</ele>
        <time>2021-06-18T23:53:17Z</time>
      </trkpt>
      <trkpt lat="42.7499" lon="-0.30872">
        <ele>1309</ele>
        <time>2021-06-18T23:53:38Z</time>
      </trkpt>
      <trkpt lat="42.74921" lon="-0.30846">
        <ele>1308</ele>
        <time>2021-06-18T23:53:54Z</time>
      </trkpt>
      <trkpt lat="42.74907" lon="-0.30842">
        <ele>1309</ele>
        <time>2021-06-18T23:53:58Z</time>
      </trkpt>
      <trkpt lat="42.74898" lon="-0.30843">
        <ele>1308</ele>
        <time>2021-06-18T23:54:00Z</time>
      </trkpt>
      <trkpt lat="42.74873" lon="-0.30856">
        <ele>1306</ele>
        <time>2021-06-18T23:54:06Z</time>
      </trkpt>
      <trkpt lat="42.7484" lon="-0.30864">
        <ele>1307</ele>
        <time>2021-06-18T23:54:14Z</time>
      </trkpt>
      <trkpt lat="42.7481" lon="-0.30861">
        <ele>1312</ele>
        <time>2021-06-18T23:54:21Z</time>
      </trkpt>
      <trkpt lat="42.74798" lon="-0.30857">
        <ele>1313</ele>
        <time>2021-06-18T23:54:24Z</time>
      </trkpt>
      <trkpt lat="42.7479" lon="-0.30849">
        <ele>1313</ele>
        <time>2021-06-18T23:54:26Z</time>
      </trkpt>
      <trkpt lat="42.74762" lon="-0.30805">
        <ele>1316</ele>
        <time>2021-06-18T23:54:36Z</time>
      </trkpt>
      <trkpt lat="42.74747" lon="-0.30791">
        <ele>1317</ele>
        <time>2021-06-18T23:54:40Z</time>
      </trkpt>
      <trkpt lat="42.74725" lon="-0.30779">
        <ele>1319</ele>
        <time>2021-06-18T23:54:46Z</time>
      </trkpt>
      <trkpt lat="42.74689" lon="-0.3077">
        <ele>1319</ele>
        <time>2021-06-18T23:54:54Z</time>
      </trkpt>
      <trkpt lat="42.74664" lon="-0.30778">
        <ele>1320</ele>
        <time>2021-06-18T23:55:00Z</time>
      </trkpt>
      <trkpt lat="42.74643" lon="-0.30774">
        <ele>1317</ele>
        <time>2021-06-18T23:55:05Z</time>
      </trkpt>
      <trkpt lat="42.74629" lon="-0.30767">
        <ele>1315</ele>
        <time>2021-06-18T23:55:09Z</time>
      </trkpt>
      <trkpt lat="42.74609" lon="-0.30749">
        <ele>1310</ele>
        <time>2021-06-18T23:55:14Z</time>
      </trkpt>
      <trkpt lat="42.74601" lon="-0.30736">
        <ele>1311</ele>
        <time>2021-06-18T23:55:17Z</time>
      </trkpt>
      <trkpt lat="42.74593" lon="-0.30716">
        <ele>1312</ele>
        <time>2021-06-18T23:55:21Z</time>
      </trkpt>
      <trkpt lat="42.74576" lon="-0.30693">
        <ele>1312</ele>
        <time>2021-06-18T23:55:27Z</time>
      </trkpt>
      <trkpt lat="42.74546" lon="-0.3066">
        <ele>1310</ele>
        <time>2021-06-18T23:55:36Z</time>
      </trkpt>
      <trkpt lat="42.7452" lon="-0.30638">
        <ele>1311</ele>
        <time>2021-06-18T23:55:43Z</time>
      </trkpt>
      <trkpt lat="42.74508" lon="-0.30631">
        <ele>1310</ele>
        <time>2021-06-18T23:55:46Z</time>
      </trkpt>
      <trkpt lat="42.74487" lon="-0.30628">
        <ele>1307</ele>
        <time>2021-06-18T23:55:51Z</time>
      </trkpt>
      <trkpt lat="42.74439" lon="-0.30614">
        <ele>1307</ele>
        <time>2021-06-18T23:56:02Z</time>
      </trkpt>
      <trkpt lat="42.74425" lon="-0.30612">
        <ele>1306</ele>
        <time>2021-06-18T23:56:06Z</time>
      </trkpt>
      <trkpt lat="42.74414" lon="-0.30613">
        <ele>1305</ele>
        <time>2021-06-18T23:56:08Z</time>
      </trkpt>
      <trkpt lat="42.74375" lon="-0.30628">
        <ele>1299</ele>
        <time>2021-06-18T23:56:18Z</time>
      </trkpt>
      <trkpt lat="42.74365" lon="-0.30626">
        <ele>1300</ele>
        <time>2021-06-18T23:56:20Z</time>
      </trkpt>
      <trkpt lat="42.74347" lon="-0.30615">
        <ele>1302</ele>
        <time>2021-06-18T23:56:25Z</time>
      </trkpt>
      <trkpt lat="42.74335" lon="-0.30611">
        <ele>1302</ele>
        <time>2021-06-18T23:56:28Z</time>
      </trkpt>
      <trkpt lat="42.74323" lon="-0.30613">
        <ele>1302</ele>
        <time>2021-06-18T23:56:30Z</time>
      </trkpt>
      <trkpt lat="42.74312" lon="-0.3063">
        <ele>1299</ele>
        <time>2021-06-18T23:56:34Z</time>
      </trkpt>
      <trkpt lat="42.74297" lon="-0.30639">
        <ele>1298</ele>
        <time>2021-06-18T23:56:38Z</time>
      </trkpt>
      <trkpt lat="42.74279" lon="-0.30646">
        <ele>1298</ele>
        <time>2021-06-18T23:56:43Z</time>
      </trkpt>
      <trkpt lat="42.7423" lon="-0.30637">
        <ele>1308</ele>
        <time>2021-06-18T23:56:54Z</time>
      </trkpt>
      <trkpt lat="42.74208" lon="-0.3065">
        <ele>1312</ele>
        <time>2021-06-18T23:57:00Z</time>
      </trkpt>
      <trkpt lat="42.74199" lon="-0.30662">
        <ele>1314</ele>
        <time>2021-06-18T23:57:03Z</time>
      </trkpt>
      <trkpt lat="42.74196" lon="-0.30681">
        <ele>1314</ele>
        <time>2021-06-18T23:57:06Z</time>
      </trkpt>
      <trkpt lat="42.74196" lon="-0.30708">
        <ele>1314</ele>
        <time>2021-06-18T23:57:11Z</time>
      </trkpt>
      <trkpt lat="42.7421" lon="-0.30775">
        <ele>1304</ele>
        <time>2021-06-18T23:57:23Z</time>
      </trkpt>
      <trkpt lat="42.74213" lon="-0.30804">
        <ele>1300</ele>
        <time>2021-06-18T23:57:28Z</time>
      </trkpt>
      <trkpt lat="42.74211" lon="-0.30836">
        <ele>1299</ele>
        <time>2021-06-18T23:57:33Z</time>
      </trkpt>
      <trkpt lat="42.74206" lon="-0.30851">
        <ele>1300</ele>
        <time>2021-06-18T23:57:36Z</time>
      </trkpt>
      <trkpt lat="42.74181" lon="-0.30875">
        <ele>1312</ele>
        <time>2021-06-18T23:57:43Z</time>
      </trkpt>
      <trkpt lat="42.74173" lon="-0.3089">
        <ele>1315</ele>
        <time>2021-06-18T23:57:46Z</time>
      </trkpt>
      <trkpt lat="42.74167" lon="-0.30908">
        <ele>1315</ele>
        <time>2021-06-18T23:57:50Z</time>
      </trkpt>
      <trkpt lat="42.74155" lon="-0.30967">
        <ele>1309</ele>
        <time>2021-06-18T23:58:00Z</time>
      </trkpt>
      <trkpt lat="42.74143" lon="-0.3099">
        <ele>1310</ele>
        <time>2021-06-18T23:58:05Z</time>
      </trkpt>
      <trkpt lat="42.74115" lon="-0.31025">
        <ele>1315</ele>
        <time>2021-06-18T23:58:14Z</time>
      </trkpt>
      <trkpt lat="42.74097" lon="-0.31041">
        <ele>1321</ele>
        <time>2021-06-18T23:58:19Z</time>
      </trkpt>
      <trkpt lat="42.74079" lon="-0.31047">
        <ele>1326</ele>
        <time>2021-06-18T23:58:23Z</time>
      </trkpt>
      <trkpt lat="42.74055" lon="-0.31048">
        <ele>1329</ele>
        <time>2021-06-18T23:58:29Z</time>
      </trkpt>
      <trkpt lat="42.74028" lon="-0.3104">
        <ele>1331</ele>
        <time>2021-06-18T23:58:35Z</time>
      </trkpt>
      <trkpt lat="42.74003" lon="-0.3102">
        <ele>1330</ele>
        <time>2021-06-18T23:58:42Z</time>
      </trkpt>
      <trkpt lat="42.73978" lon="-0.30978">
        <ele>1324</ele>
        <time>2021-06-18T23:58:51Z</time>
      </trkpt>
      <trkpt lat="42.73957" lon="-0.30958">
        <ele>1320</ele>
        <time>2021-06-18T23:58:57Z</time>
      </trkpt>
      <trkpt lat="42.73923" lon="-0.30934">
        <ele>1310</ele>
        <time>2021-06-18T23:59:06Z</time>
      </trkpt>
      <trkpt lat="42.73886" lon="-0.30895">
        <ele>1306</ele>
        <time>2021-06-18T23:59:17Z</time>
      </trkpt>
      <trkpt lat="42.73866" lon="-0.30882">
        <ele>1302</ele>
        <time>2021-06-18T23:59:22Z</time>
      </trkpt>
      <trkpt lat="42.73846" lon="-0.30862">
        <ele>1300</ele>
        <time>2021-06-18T23:59:28Z</time>
      </trkpt>
      <trkpt lat="42.73814" lon="-0.30842">
        <ele>1295</ele>
        <time>2021-06-18T23:59:36Z</time>
      </trkpt>
      <trkpt lat="42.7378" lon="-0.30828">
        <ele>1289</ele>
        <time>2021-06-18T23:59:45Z</time>
      </trkpt>
      <trkpt lat="42.73754" lon="-0.30826">
        <ele>1282</ele>
        <time>2021-06-18T23:59:51Z</time>
      </trkpt>
      <trkpt lat="42.73744" lon="-0.30823">
        <ele>1280</ele>
        <time>2021-06-18T23:59:53Z</time>
      </trkpt>
      <trkpt lat="42.73725" lon="-0.30806">
        <ele>1282</ele>
        <time>2021-06-18T23:59:58Z</time>
      </trkpt>
      <trkpt lat="42.7366" lon="-0.30772">
        <ele>1278</ele>
        <time>2021-06-19T00:00:15Z</time>
      </trkpt>
      <trkpt lat="42.73624" lon="-0.30765">
        <ele>1275</ele>
        <time>2021-06-19T00:00:23Z</time>
      </trkpt>
      <trkpt lat="42.73614" lon="-0.3076">
        <ele>1275</ele>
        <time>2021-06-19T00:00:26Z</time>
      </trkpt>
      <trkpt lat="42.73594" lon="-0.30737">
        <ele>1280</ele>
        <time>2021-06-19T00:00:32Z</time>
      </trkpt>
      <trkpt lat="42.73582" lon="-0.30732">
        <ele>1281</ele>
        <time>2021-06-19T00:00:35Z</time>
      </trkpt>
      <trkpt lat="42.73563" lon="-0.30733">
        <ele>1281</ele>
        <time>2021-06-19T00:00:39Z</time>
      </trkpt>
      <trkpt lat="42.73534" lon="-0.30729">
        <ele>1283</ele>
        <time>2021-06-19T00:00:46Z</time>
      </trkpt>
      <trkpt lat="42.73512" lon="-0.30738">
        <ele>1281</ele>
        <time>2021-06-19T00:00:51Z</time>
      </trkpt>
      <trkpt lat="42.73493" lon="-0.30754">
        <ele>1278</ele>
        <time>2021-06-19T00:00:57Z</time>
      </trkpt>
      <trkpt lat="42.73483" lon="-0.30765">
        <ele>1275</ele>
        <time>2021-06-19T00:01:00Z</time>
      </trkpt>
      <trkpt lat="42.73476" lon="-0.30778">
        <ele>1273</ele>
        <time>2021-06-19T00:01:02Z</time>
      </trkpt>
      <trkpt lat="42.73461" lon="-0.30794">
        <ele>1270</ele>
        <time>2021-06-19T00:01:07Z</time>
      </trkpt>
      <trkpt lat="42.7343" lon="-0.3081">
        <ele>1269</ele>
        <time>2021-06-19T00:01:14Z</time>
      </trkpt>
      <trkpt lat="42.73414" lon="-0.30811">
        <ele>1270</ele>
        <time>2021-06-19T00:01:18Z</time>
      </trkpt>
      <trkpt lat="42.73402" lon="-0.30803">
        <ele>1271</ele>
        <time>2021-06-19T00:01:21Z</time>
      </trkpt>
      <trkpt lat="42.73397" lon="-0.30779">
        <ele>1274</ele>
        <time>2021-06-19T00:01:26Z</time>
      </trkpt>
      <trkpt lat="42.73378" lon="-0.30736">
        <ele>1277</ele>
        <time>2021-06-19T00:01:34Z</time>
      </trkpt>
      <trkpt lat="42.73358" lon="-0.30717">
        <ele>1277</ele>
        <time>2021-06-19T00:01:40Z</time>
      </trkpt>
      <trkpt lat="42.7334" lon="-0.30711">
        <ele>1276</ele>
        <time>2021-06-19T00:01:44Z</time>
      </trkpt>
      <trkpt lat="42.73326" lon="-0.307">
        <ele>1274</ele>
        <time>2021-06-19T00:01:48Z</time>
      </trkpt>
      <trkpt lat="42.73313" lon="-0.30667">
        <ele>1271</ele>
        <time>2021-06-19T00:01:54Z</time>
      </trkpt>
      <trkpt lat="42.73305" lon="-0.3064">
        <ele>1272</ele>
        <time>2021-06-19T00:01:59Z</time>
      </trkpt>
      <trkpt lat="42.73304" lon="-0.30599">
        <ele>1275</ele>
        <time>2021-06-19T00:02:06Z</time>
      </trkpt>
      <trkpt lat="42.73312" lon="-0.30573">
        <ele>1282</ele>
        <time>2021-06-19T00:02:11Z</time>
      </trkpt>
      <trkpt lat="42.73309" lon="-0.30518">
        <ele>1290</ele>
        <time>2021-06-19T00:02:21Z</time>
      </trkpt>
      <trkpt lat="42.733" lon="-0.30488">
        <ele>1292</ele>
        <time>2021-06-19T00:02:26Z</time>
      </trkpt>
      <trkpt lat="42.7328" lon="-0.30453">
        <ele>1291</ele>
        <time>2021-06-19T00:02:34Z</time>
      </trkpt>
      <trkpt lat="42.73263" lon="-0.30413">
        <ele>1291</ele>
        <time>2021-06-19T00:02:42Z</time>
      </trkpt>
      <trkpt lat="42.73249" lon="-0.30362">
        <ele>1293</ele>
        <time>2021-06-19T00:02:51Z</time>
      </trkpt>
      <trkpt lat="42.73217" lon="-0.30284">
        <ele>1289</ele>
        <time>2021-06-19T00:03:07Z</time>
      </trkpt>
      <trkpt lat="42.73205" lon="-0.30242">
        <ele>1289</ele>
        <time>2021-06-19T00:03:14Z</time>
      </trkpt>
      <trkpt lat="42.73179" lon="-0.30174">
        <ele>1288</ele>
        <time>2021-06-19T00:03:27Z</time>
      </trkpt>
      <trkpt lat="42.73153" lon="-0.3009">
        <ele>1299</ele>
        <time>2021-06-19T00:03:43Z</time>
      </trkpt>
      <trkpt lat="42.73148" lon="-0.30064">
        <ele>1302</ele>
        <time>2021-06-19T00:03:48Z</time>
      </trkpt>
      <trkpt lat="42.73103" lon="-0.2996">
        <ele>1295</ele>
        <time>2021-06-19T00:04:08Z</time>
      </trkpt>
      <trkpt lat="42.73095" lon="-0.29919">
        <ele>1298</ele>
        <time>2021-06-19T00:04:16Z</time>
      </trkpt>
      <trkpt lat="42.7309" lon="-0.29906">
        <ele>1298</ele>
        <time>2021-06-19T00:04:18Z</time>
      </trkpt>
      <trkpt lat="42.73058" lon="-0.29894">
        <ele>1286</ele>
        <time>2021-06-19T00:04:26Z</time>
      </trkpt>
      <trkpt lat="42.73041" lon="-0.29878">
        <ele>1285</ele>
        <time>2021-06-19T00:04:31Z</time>
      </trkpt>
      <trkpt lat="42.73028" lon="-0.29843">
        <ele>1291</ele>
        <time>2021-06-19T00:04:37Z</time>
      </trkpt>
      <trkpt lat="42.7302" lon="-0.29836">
        <ele>1290</ele>
        <time>2021-06-19T00:04:40Z</time>
      </trkpt>
      <trkpt lat="42.73001" lon="-0.29833">
        <ele>1284</ele>
        <time>2021-06-19T00:04:44Z</time>
      </trkpt>
      <trkpt lat="42.72967" lon="-0.29786">
        <ele>1294</ele>
        <time>2021-06-19T00:04:55Z</time>
      </trkpt>
      <trkpt lat="42.7294" lon="-0.2976">
        <ele>1298</ele>
        <time>2021-06-19T00:05:03Z</time>
      </trkpt>
      <trkpt lat="42.72886" lon="-0.29753">
        <ele>1289</ele>
        <time>2021-06-19T00:05:16Z</time>
      </trkpt>
      <trkpt lat="42.72868" lon="-0.29743">
        <ele>1288</ele>
        <time>2021-06-19T00:05:20Z</time>
      </trkpt>
      <trkpt lat="42.72844" lon="-0.29713">
        <ele>1293</ele>
        <time>2021-06-19T00:05:28Z</time>
      </trkpt>
      <trkpt lat="42.7281" lon="-0.29694">
        <ele>1286</ele>
        <time>2021-06-19T00:05:37Z</time>
      </trkpt>
      <trkpt lat="42.72806" lon="-0.29682">
        <ele>1287</ele>
        <time>2021-06-19T00:05:39Z</time>
      </trkpt>
      <trkpt lat="42.72811" lon="-0.29627">
        <ele>1296</ele>
        <time>2021-06-19T00:05:48Z</time>
      </trkpt>
      <trkpt lat="42.7281" lon="-0.2958">
        <ele>1299</ele>
        <time>2021-06-19T00:05:56Z</time>
      </trkpt>
      <trkpt lat="42.72797" lon="-0.29476">
        <ele>1303</ele>
        <time>2021-06-19T00:06:15Z</time>
      </trkpt>
      <trkpt lat="42.72787" lon="-0.2946">
        <ele>1302</ele>
        <time>2021-06-19T00:06:18Z</time>
      </trkpt>
      <trkpt lat="42.72745" lon="-0.2942">
        <ele>1296</ele>
        <time>2021-06-19T00:06:30Z</time>
      </trkpt>
      <trkpt lat="42.72707" lon="-0.29351">
        <ele>1298</ele>
        <time>2021-06-19T00:06:45Z</time>
      </trkpt>
      <trkpt lat="42.72688" lon="-0.29336">
        <ele>1295</ele>
        <time>2021-06-19T00:06:50Z</time>
      </trkpt>
      <trkpt lat="42.72664" lon="-0.29328">
        <ele>1292</ele>
        <time>2021-06-19T00:06:56Z</time>
      </trkpt>
      <trkpt lat="42.72635" lon="-0.29307">
        <ele>1292</ele>
        <time>2021-06-19T00:07:03Z</time>
      </trkpt>
      <trkpt lat="42.72616" lon="-0.29298">
        <ele>1291</ele>
        <time>2021-06-19T00:07:08Z</time>
      </trkpt>
      <trkpt lat="42.72573" lon="-0.29283">
        <ele>1287</ele>
        <time>2021-06-19T00:07:19Z</time>
      </trkpt>
      <trkpt lat="42.72542" lon="-0.29252">
        <ele>1288</ele>
        <time>2021-06-19T00:07:28Z</time>
      </trkpt>
      <trkpt lat="42.72533" lon="-0.29247">
        <ele>1286</ele>
        <time>2021-06-19T00:07:30Z</time>
      </trkpt>
      <trkpt lat="42.72522" lon="-0.29246">
        <ele>1283</ele>
        <time>2021-06-19T00:07:32Z</time>
      </trkpt>
      <trkpt lat="42.72514" lon="-0.29251">
        <ele>1281</ele>
        <time>2021-06-19T00:07:34Z</time>
      </trkpt>
      <trkpt lat="42.72509" lon="-0.29259">
        <ele>1279</ele>
        <time>2021-06-19T00:07:36Z</time>
      </trkpt>
      <trkpt lat="42.72484" lon="-0.29281">
        <ele>1268</ele>
        <time>2021-06-19T00:07:43Z</time>
      </trkpt>
      <trkpt lat="42.72472" lon="-0.29296">
        <ele>1262</ele>
        <time>2021-06-19T00:07:47Z</time>
      </trkpt>
      <trkpt lat="42.72466" lon="-0.29306">
        <ele>1260</ele>
        <time>2021-06-19T00:07:49Z</time>
      </trkpt>
      <trkpt lat="42.72459" lon="-0.29336">
        <ele>1258</ele>
        <time>2021-06-19T00:07:55Z</time>
      </trkpt>
      <trkpt lat="42.72445" lon="-0.29356">
        <ele>1253</ele>
        <time>2021-06-19T00:07:59Z</time>
      </trkpt>
      <trkpt lat="42.72438" lon="-0.29358">
        <ele>1252</ele>
        <time>2021-06-19T00:08:01Z</time>
      </trkpt>
      <trkpt lat="42.72433" lon="-0.29353">
        <ele>1251</ele>
        <time>2021-06-19T00:08:02Z</time>
      </trkpt>
      <trkpt lat="42.72434" lon="-0.29312">
        <ele>1250</ele>
        <time>2021-06-19T00:08:09Z</time>
      </trkpt>
      <trkpt lat="42.72447" lon="-0.29289">
        <ele>1253</ele>
        <time>2021-06-19T00:08:14Z</time>
      </trkpt>
      <trkpt lat="42.72453" lon="-0.29267">
        <ele>1254</ele>
        <time>2021-06-19T00:08:18Z</time>
      </trkpt>
      <trkpt lat="42.72453" lon="-0.29238">
        <ele>1252</ele>
        <time>2021-06-19T00:08:23Z</time>
      </trkpt>
      <trkpt lat="42.72461" lon="-0.29201">
        <ele>1250</ele>
        <time>2021-06-19T00:08:30Z</time>
      </trkpt>
      <trkpt lat="42.72468" lon="-0.29186">
        <ele>1251</ele>
        <time>2021-06-19T00:08:33Z</time>
      </trkpt>
      <trkpt lat="42.72469" lon="-0.29159">
        <ele>1247</ele>
        <time>2021-06-19T00:08:38Z</time>
      </trkpt>
      <trkpt lat="42.72481" lon="-0.29129">
        <ele>1245</ele>
        <time>2021-06-19T00:08:44Z</time>
      </trkpt>
      <trkpt lat="42.72487" lon="-0.29099">
        <ele>1239</ele>
        <time>2021-06-19T00:08:49Z</time>
      </trkpt>
      <trkpt lat="42.72513" lon="-0.2906">
        <ele>1242</ele>
        <time>2021-06-19T00:08:58Z</time>
      </trkpt>
      <trkpt lat="42.72512" lon="-0.29043">
        <ele>1239</ele>
        <time>2021-06-19T00:09:01Z</time>
      </trkpt>
      <trkpt lat="42.72519" lon="-0.29017">
        <ele>1237</ele>
        <time>2021-06-19T00:09:06Z</time>
      </trkpt>
      <trkpt lat="42.72518" lon="-0.29006">
        <ele>1235</ele>
        <time>2021-06-19T00:09:08Z</time>
      </trkpt>
      <trkpt lat="42.725" lon="-0.28972">
        <ele>1224</ele>
        <time>2021-06-19T00:09:15Z</time>
      </trkpt>
      <trkpt lat="42.72483" lon="-0.28881">
        <ele>1222</ele>
        <time>2021-06-19T00:09:31Z</time>
      </trkpt>
      <trkpt lat="42.7248" lon="-0.28873">
        <ele>1221</ele>
        <time>2021-06-19T00:09:32Z</time>
      </trkpt>
      <trkpt lat="42.72469" lon="-0.28868">
        <ele>1217</ele>
        <time>2021-06-19T00:09:35Z</time>
      </trkpt>
      <trkpt lat="42.72445" lon="-0.28687">
        <ele>1219</ele>
        <time>2021-06-19T00:10:07Z</time>
      </trkpt>
      <trkpt lat="42.72446" lon="-0.28567">
        <ele>1222</ele>
        <time>2021-06-19T00:10:27Z</time>
      </trkpt>
      <trkpt lat="42.7245" lon="-0.2853">
        <ele>1222</ele>
        <time>2021-06-19T00:10:34Z</time>
      </trkpt>
      <trkpt lat="42.72465" lon="-0.28468">
        <ele>1221</ele>
        <time>2021-06-19T00:10:45Z</time>
      </trkpt>
      <trkpt lat="42.72475" lon="-0.28448">
        <ele>1221</ele>
        <time>2021-06-19T00:10:49Z</time>
      </trkpt>
      <trkpt lat="42.72512" lon="-0.28406">
        <ele>1224</ele>
        <time>2021-06-19T00:11:00Z</time>
      </trkpt>
      <trkpt lat="42.72523" lon="-0.28389">
        <ele>1224</ele>
        <time>2021-06-19T00:11:04Z</time>
      </trkpt>
      <trkpt lat="42.7254" lon="-0.28344">
        <ele>1220</ele>
        <time>2021-06-19T00:11:13Z</time>
      </trkpt>
      <trkpt lat="42.7255" lon="-0.28325">
        <ele>1221</ele>
        <time>2021-06-19T00:11:17Z</time>
      </trkpt>
      <trkpt lat="42.7256" lon="-0.28314">
        <ele>1223</ele>
        <time>2021-06-19T00:11:20Z</time>
      </trkpt>
      <trkpt lat="42.72636" lon="-0.28274">
        <ele>1231</ele>
        <time>2021-06-19T00:11:39Z</time>
      </trkpt>
      <trkpt lat="42.72648" lon="-0.28262">
        <ele>1231</ele>
        <time>2021-06-19T00:11:42Z</time>
      </trkpt>
      <trkpt lat="42.72656" lon="-0.28249">
        <ele>1230</ele>
        <time>2021-06-19T00:11:45Z</time>
      </trkpt>
      <trkpt lat="42.72668" lon="-0.28219">
        <ele>1231</ele>
        <time>2021-06-19T00:11:51Z</time>
      </trkpt>
      <trkpt lat="42.72672" lon="-0.28196">
        <ele>1231</ele>
        <time>2021-06-19T00:11:55Z</time>
      </trkpt>
      <trkpt lat="42.7267" lon="-0.28171">
        <ele>1229</ele>
        <time>2021-06-19T00:12:00Z</time>
      </trkpt>
      <trkpt lat="42.72662" lon="-0.28141">
        <ele>1230</ele>
        <time>2021-06-19T00:12:05Z</time>
      </trkpt>
      <trkpt lat="42.72624" lon="-0.28038">
        <ele>1235</ele>
        <time>2021-06-19T00:12:25Z</time>
      </trkpt>
      <trkpt lat="42.72619" lon="-0.28011">
        <ele>1236</ele>
        <time>2021-06-19T00:12:30Z</time>
      </trkpt>
      <trkpt lat="42.7262" lon="-0.27974">
        <ele>1236</ele>
        <time>2021-06-19T00:12:36Z</time>
      </trkpt>
      <trkpt lat="42.7263" lon="-0.27885">
        <ele>1235</ele>
        <time>2021-06-19T00:12:51Z</time>
      </trkpt>
      <trkpt lat="42.72641" lon="-0.27749">
        <ele>1233</ele>
        <time>2021-06-19T00:13:15Z</time>
      </trkpt>
      <trkpt lat="42.72649" lon="-0.27693">
        <ele>1233</ele>
        <time>2021-06-19T00:13:25Z</time>
      </trkpt>
      <trkpt lat="42.72677" lon="-0.27622">
        <ele>1234</ele>
        <time>2021-06-19T00:13:38Z</time>
      </trkpt>
      <trkpt lat="42.72708" lon="-0.2758">
        <ele>1235</ele>
        <time>2021-06-19T00:13:49Z</time>
      </trkpt>
      <trkpt lat="42.72725" lon="-0.27567">
        <ele>1237</ele>
        <time>2021-06-19T00:13:53Z</time>
      </trkpt>
      <trkpt lat="42.72773" lon="-0.27547">
        <ele>1244</ele>
        <time>2021-06-19T00:14:05Z</time>
      </trkpt>
      <trkpt lat="42.72819" lon="-0.2751">
        <ele>1247</ele>
        <time>2021-06-19T00:14:17Z</time>
      </trkpt>
      <trkpt lat="42.72839" lon="-0.27489">
        <ele>1248</ele>
        <time>2021-06-19T00:14:23Z</time>
      </trkpt>
      <trkpt lat="42.72848" lon="-0.27476">
        <ele>1248</ele>
        <time>2021-06-19T00:14:26Z</time>
      </trkpt>
      <trkpt lat="42.72854" lon="-0.2746">
        <ele>1247</ele>
        <time>2021-06-19T00:14:29Z</time>
      </trkpt>
      <trkpt lat="42.72856" lon="-0.27438">
        <ele>1245</ele>
        <time>2021-06-19T00:14:33Z</time>
      </trkpt>
      <trkpt lat="42.72853" lon="-0.27369">
        <ele>1240</ele>
        <time>2021-06-19T00:14:45Z</time>
      </trkpt>
      <trkpt lat="42.72857" lon="-0.27339">
        <ele>1240</ele>
        <time>2021-06-19T00:14:50Z</time>
      </trkpt>
      <trkpt lat="42.72865" lon="-0.27317">
        <ele>1241</ele>
        <time>2021-06-19T00:14:55Z</time>
      </trkpt>
      <trkpt lat="42.72944" lon="-0.27177">
        <ele>1259</ele>
        <time>2021-06-19T00:15:25Z</time>
      </trkpt>
      <trkpt lat="42.72957" lon="-0.27133">
        <ele>1265</ele>
        <time>2021-06-19T00:15:33Z</time>
      </trkpt>
      <trkpt lat="42.72965" lon="-0.27091">
        <ele>1271</ele>
        <time>2021-06-19T00:15:40Z</time>
      </trkpt>
      <trkpt lat="42.72968" lon="-0.27035">
        <ele>1265</ele>
        <time>2021-06-19T00:15:50Z</time>
      </trkpt>
      <trkpt lat="42.7299" lon="-0.26967">
        <ele>1266</ele>
        <time>2021-06-19T00:16:03Z</time>
      </trkpt>
      <trkpt lat="42.73001" lon="-0.26941">
        <ele>1265</ele>
        <time>2021-06-19T00:16:08Z</time>
      </trkpt>
      <trkpt lat="42.73041" lon="-0.26869">
        <ele>1276</ele>
        <time>2021-06-19T00:16:23Z</time>
      </trkpt>
      <trkpt lat="42.731" lon="-0.26788">
        <ele>1283</ele>
        <time>2021-06-19T00:16:43Z</time>
      </trkpt>
      <trkpt lat="42.7311" lon="-0.26769">
        <ele>1283</ele>
        <time>2021-06-19T00:16:47Z</time>
      </trkpt>
      <trkpt lat="42.73116" lon="-0.2675">
        <ele>1279</ele>
        <time>2021-06-19T00:16:51Z</time>
      </trkpt>
      <trkpt lat="42.73134" lon="-0.26659">
        <ele>1282</ele>
        <time>2021-06-19T00:17:07Z</time>
      </trkpt>
      <trkpt lat="42.73183" lon="-0.26518">
        <ele>1286</ele>
        <time>2021-06-19T00:17:33Z</time>
      </trkpt>
      <trkpt lat="42.73206" lon="-0.26474">
        <ele>1297</ele>
        <time>2021-06-19T00:17:43Z</time>
      </trkpt>
      <trkpt lat="42.73215" lon="-0.26414">
        <ele>1298</ele>
        <time>2021-06-19T00:17:53Z</time>
      </trkpt>
      <trkpt lat="42.7323" lon="-0.26375">
        <ele>1300</ele>
        <time>2021-06-19T00:18:01Z</time>
      </trkpt>
      <trkpt lat="42.73249" lon="-0.26338">
        <ele>1298</ele>
        <time>2021-06-19T00:18:09Z</time>
      </trkpt>
      <trkpt lat="42.73258" lon="-0.2631">
        <ele>1299</ele>
        <time>2021-06-19T00:18:14Z</time>
      </trkpt>
      <trkpt lat="42.73259" lon="-0.26276">
        <ele>1294</ele>
        <time>2021-06-19T00:18:20Z</time>
      </trkpt>
      <trkpt lat="42.73257" lon="-0.26247">
        <ele>1290</ele>
        <time>2021-06-19T00:18:25Z</time>
      </trkpt>
      <trkpt lat="42.73263" lon="-0.26222">
        <ele>1291</ele>
        <time>2021-06-19T00:18:29Z</time>
      </trkpt>
      <trkpt lat="42.73288" lon="-0.26198">
        <ele>1296</ele>
        <time>2021-06-19T00:18:36Z</time>
      </trkpt>
      <trkpt lat="42.73341" lon="-0.26167">
        <ele>1301</ele>
        <time>2021-06-19T00:18:50Z</time>
      </trkpt>
      <trkpt lat="42.73354" lon="-0.26154">
        <ele>1305</ele>
        <time>2021-06-19T00:18:53Z</time>
      </trkpt>
      <trkpt lat="42.73446" lon="-0.2598">
        <ele>1324</ele>
        <time>2021-06-19T00:19:30Z</time>
      </trkpt>
      <trkpt lat="42.73473" lon="-0.25943">
        <ele>1330</ele>
        <time>2021-06-19T00:19:39Z</time>
      </trkpt>
      <trkpt lat="42.73512" lon="-0.25881">
        <ele>1330</ele>
        <time>2021-06-19T00:19:53Z</time>
      </trkpt>
      <trkpt lat="42.73593" lon="-0.25825">
        <ele>1352</ele>
        <time>2021-06-19T00:20:14Z</time>
      </trkpt>
      <trkpt lat="42.73613" lon="-0.25803">
        <ele>1361</ele>
        <time>2021-06-19T00:20:20Z</time>
      </trkpt>
      <trkpt lat="42.73629" lon="-0.25777">
        <ele>1361</ele>
        <time>2021-06-19T00:20:26Z</time>
      </trkpt>
      <trkpt lat="42.73645" lon="-0.2576">
        <ele>1363</ele>
        <time>2021-06-19T00:20:31Z</time>
      </trkpt>
      <trkpt lat="42.73666" lon="-0.25699">
        <ele>1347</ele>
        <time>2021-06-19T00:20:43Z</time>
      </trkpt>
      <trkpt lat="42.73696" lon="-0.25636">
        <ele>1353</ele>
        <time>2021-06-19T00:20:55Z</time>
      </trkpt>
      <trkpt lat="42.7371" lon="-0.25595">
        <ele>1354</ele>
        <time>2021-06-19T00:21:03Z</time>
      </trkpt>
      <trkpt lat="42.7374" lon="-0.25531">
        <ele>1356</ele>
        <time>2021-06-19T00:21:16Z</time>
      </trkpt>
      <trkpt lat="42.73773" lon="-0.25492">
        <ele>1362</ele>
        <time>2021-06-19T00:21:26Z</time>
      </trkpt>
      <trkpt lat="42.73782" lon="-0.25487">
        <ele>1366</ele>
        <time>2021-06-19T00:21:29Z</time>
      </trkpt>
      <trkpt lat="42.73788" lon="-0.25489">
        <ele>1369</ele>
        <time>2021-06-19T00:21:30Z</time>
      </trkpt>
      <trkpt lat="42.73792" lon="-0.25499">
        <ele>1372</ele>
        <time>2021-06-19T00:21:32Z</time>
      </trkpt>
      <trkpt lat="42.73789" lon="-0.25508">
        <ele>1373</ele>
        <time>2021-06-19T00:21:34Z</time>
      </trkpt>
      <trkpt lat="42.73759" lon="-0.2555">
        <ele>1366</ele>
        <time>2021-06-19T00:21:44Z</time>
      </trkpt>
      <trkpt lat="42.7374" lon="-0.25591">
        <ele>1366</ele>
        <time>2021-06-19T00:21:52Z</time>
      </trkpt>
      <trkpt lat="42.7374" lon="-0.25601">
        <ele>1370</ele>
        <time>2021-06-19T00:21:54Z</time>
      </trkpt>
      <trkpt lat="42.73744" lon="-0.25608">
        <ele>1374</ele>
        <time>2021-06-19T00:21:55Z</time>
      </trkpt>
      <trkpt lat="42.73753" lon="-0.25609">
        <ele>1380</ele>
        <time>2021-06-19T00:21:57Z</time>
      </trkpt>
      <trkpt lat="42.73759" lon="-0.256">
        <ele>1381</ele>
        <time>2021-06-19T00:22:00Z</time>
      </trkpt>
      <trkpt lat="42.73771" lon="-0.2557">
        <ele>1380</ele>
        <time>2021-06-19T00:22:05Z</time>
      </trkpt>
      <trkpt lat="42.73821" lon="-0.25497">
        <ele>1388</ele>
        <time>2021-06-19T00:22:23Z</time>
      </trkpt>
      <trkpt lat="42.73882" lon="-0.25389">
        <ele>1394</ele>
        <time>2021-06-19T00:22:46Z</time>
      </trkpt>
      <trkpt lat="42.73902" lon="-0.25363">
        <ele>1396</ele>
        <time>2021-06-19T00:22:52Z</time>
      </trkpt>
      <trkpt lat="42.73959" lon="-0.25322">
        <ele>1420</ele>
        <time>2021-06-19T00:23:07Z</time>
      </trkpt>
      <trkpt lat="42.73971" lon="-0.25297">
        <ele>1424</ele>
        <time>2021-06-19T00:23:13Z</time>
      </trkpt>
      <trkpt lat="42.73981" lon="-0.2522">
        <ele>1415</ele>
        <time>2021-06-19T00:23:26Z</time>
      </trkpt>
      <trkpt lat="42.74041" lon="-0.2508">
        <ele>1423</ele>
        <time>2021-06-19T00:23:54Z</time>
      </trkpt>
      <trkpt lat="42.74045" lon="-0.25055">
        <ele>1425</ele>
        <time>2021-06-19T00:23:58Z</time>
      </trkpt>
      <trkpt lat="42.74047" lon="-0.25011">
        <ele>1424</ele>
        <time>2021-06-19T00:24:06Z</time>
      </trkpt>
      <trkpt lat="42.74052" lon="-0.24982">
        <ele>1429</ele>
        <time>2021-06-19T00:24:11Z</time>
      </trkpt>
      <trkpt lat="42.74067" lon="-0.24955">
        <ele>1433</ele>
        <time>2021-06-19T00:24:17Z</time>
      </trkpt>
      <trkpt lat="42.74098" lon="-0.24925">
        <ele>1435</ele>
        <time>2021-06-19T00:24:25Z</time>
      </trkpt>
      <trkpt lat="42.74159" lon="-0.24801">
        <ele>1441</ele>
        <time>2021-06-19T00:24:51Z</time>
      </trkpt>
      <trkpt lat="42.74166" lon="-0.24793">
        <ele>1441</ele>
        <time>2021-06-19T00:24:53Z</time>
      </trkpt>
      <trkpt lat="42.74172" lon="-0.2479">
        <ele>1443</ele>
        <time>2021-06-19T00:24:55Z</time>
      </trkpt>
      <trkpt lat="42.74178" lon="-0.24793">
        <ele>1445</ele>
        <time>2021-06-19T00:24:56Z</time>
      </trkpt>
      <trkpt lat="42.7418" lon="-0.24802">
        <ele>1447</ele>
        <time>2021-06-19T00:24:58Z</time>
      </trkpt>
      <trkpt lat="42.74176" lon="-0.24814">
        <ele>1446</ele>
        <time>2021-06-19T00:25:00Z</time>
      </trkpt>
      <trkpt lat="42.7416" lon="-0.24836">
        <ele>1440</ele>
        <time>2021-06-19T00:25:05Z</time>
      </trkpt>
      <trkpt lat="42.74143" lon="-0.24879">
        <ele>1447</ele>
        <time>2021-06-19T00:25:14Z</time>
      </trkpt>
      <trkpt lat="42.74135" lon="-0.24904">
        <ele>1450</ele>
        <time>2021-06-19T00:25:18Z</time>
      </trkpt>
      <trkpt lat="42.74132" lon="-0.24936">
        <ele>1456</ele>
        <time>2021-06-19T00:25:24Z</time>
      </trkpt>
      <trkpt lat="42.74089" lon="-0.2501">
        <ele>1445</ele>
        <time>2021-06-19T00:25:40Z</time>
      </trkpt>
      <trkpt lat="42.74093" lon="-0.25022">
        <ele>1451</ele>
        <time>2021-06-19T00:25:42Z</time>
      </trkpt>
      <trkpt lat="42.74102" lon="-0.25025">
        <ele>1458</ele>
        <time>2021-06-19T00:25:45Z</time>
      </trkpt>
      <trkpt lat="42.74109" lon="-0.25017">
        <ele>1462</ele>
        <time>2021-06-19T00:25:47Z</time>
      </trkpt>
      <trkpt lat="42.74147" lon="-0.24951">
        <ele>1470</ele>
        <time>2021-06-19T00:26:01Z</time>
      </trkpt>
      <trkpt lat="42.74157" lon="-0.24909">
        <ele>1462</ele>
        <time>2021-06-19T00:26:09Z</time>
      </trkpt>
      <trkpt lat="42.74176" lon="-0.24869">
        <ele>1459</ele>
        <time>2021-06-19T00:26:17Z</time>
      </trkpt>
      <trkpt lat="42.74221" lon="-0.24837">
        <ele>1474</ele>
        <time>2021-06-19T00:26:29Z</time>
      </trkpt>
      <trkpt lat="42.74264" lon="-0.24795">
        <ele>1481</ele>
        <time>2021-06-19T00:26:41Z</time>
      </trkpt>
      <trkpt lat="42.74322" lon="-0.24747">
        <ele>1488</ele>
        <time>2021-06-19T00:26:57Z</time>
      </trkpt>
      <trkpt lat="42.74365" lon="-0.24697">
        <ele>1495</ele>
        <time>2021-06-19T00:27:10Z</time>
      </trkpt>
      <trkpt lat="42.74378" lon="-0.24686">
        <ele>1497</ele>
        <time>2021-06-19T00:27:14Z</time>
      </trkpt>
      <trkpt lat="42.74447" lon="-0.24647">
        <ele>1522</ele>
        <time>2021-06-19T00:27:31Z</time>
      </trkpt>
      <trkpt lat="42.74472" lon="-0.24627">
        <ele>1529</ele>
        <time>2021-06-19T00:27:38Z</time>
      </trkpt>
      <trkpt lat="42.74495" lon="-0.24596">
        <ele>1519</ele>
        <time>2021-06-19T00:27:45Z</time>
      </trkpt>
      <trkpt lat="42.74511" lon="-0.24567">
        <ele>1515</ele>
        <time>2021-06-19T00:27:52Z</time>
      </trkpt>
      <trkpt lat="42.74546" lon="-0.24542">
        <ele>1520</ele>
        <time>2021-06-19T00:28:01Z</time>
      </trkpt>
      <trkpt lat="42.74634" lon="-0.24517">
        <ele>1525</ele>
        <time>2021-06-19T00:28:22Z</time>
      </trkpt>
      <trkpt lat="42.74666" lon="-0.24514">
        <ele>1531</ele>
        <time>2021-06-19T00:28:29Z</time>
      </trkpt>
      <trkpt lat="42.74709" lon="-0.24485">
        <ele>1539</ele>
        <time>2021-06-19T00:28:41Z</time>
      </trkpt>
      <trkpt lat="42.74724" lon="-0.24469">
        <ele>1542</ele>
        <time>2021-06-19T00:28:45Z</time>
      </trkpt>
      <trkpt lat="42.74765" lon="-0.24439">
        <ele>1546</ele>
        <time>2021-06-19T00:28:56Z</time>
      </trkpt>
      <trkpt lat="42.74805" lon="-0.24413">
        <ele>1546</ele>
        <time>2021-06-19T00:29:06Z</time>
      </trkpt>
      <trkpt lat="42.7482" lon="-0.24391">
        <ele>1549</ele>
        <time>2021-06-19T00:29:11Z</time>
      </trkpt>
      <trkpt lat="42.74846" lon="-0.24365">
        <ele>1553</ele>
        <time>2021-06-19T00:29:19Z</time>
      </trkpt>
      <trkpt lat="42.74903" lon="-0.24341">
        <ele>1560</ele>
        <time>2021-06-19T00:29:33Z</time>
      </trkpt>
      <trkpt lat="42.74925" lon="-0.24322">
        <ele>1564</ele>
        <time>2021-06-19T00:29:39Z</time>
      </trkpt>
      <trkpt lat="42.74936" lon="-0.24298">
        <ele>1568</ele>
        <time>2021-06-19T00:29:44Z</time>
      </trkpt>
      <trkpt lat="42.74945" lon="-0.24268">
        <ele>1571</ele>
        <time>2021-06-19T00:29:49Z</time>
      </trkpt>
      <trkpt lat="42.74961" lon="-0.2424">
        <ele>1575</ele>
        <time>2021-06-19T00:29:55Z</time>
      </trkpt>
      <trkpt lat="42.74971" lon="-0.24233">
        <ele>1577</ele>
        <time>2021-06-19T00:29:58Z</time>
      </trkpt>
      <trkpt lat="42.74981" lon="-0.24239">
        <ele>1576</ele>
        <time>2021-06-19T00:30:01Z</time>
      </trkpt>
      <trkpt lat="42.74982" lon="-0.24254">
        <ele>1576</ele>
        <time>2021-06-19T00:30:03Z</time>
      </trkpt>
      <trkpt lat="42.74953" lon="-0.24316">
        <ele>1575</ele>
        <time>2021-06-19T00:30:16Z</time>
      </trkpt>
      <trkpt lat="42.74947" lon="-0.2434">
        <ele>1576</ele>
        <time>2021-06-19T00:30:20Z</time>
      </trkpt>
      <trkpt lat="42.74927" lon="-0.24366">
        <ele>1577</ele>
        <time>2021-06-19T00:30:27Z</time>
      </trkpt>
      <trkpt lat="42.74865" lon="-0.24409">
        <ele>1568</ele>
        <time>2021-06-19T00:30:43Z</time>
      </trkpt>
      <trkpt lat="42.74863" lon="-0.24416">
        <ele>1569</ele>
        <time>2021-06-19T00:30:44Z</time>
      </trkpt>
      <trkpt lat="42.74865" lon="-0.24427">
        <ele>1579</ele>
        <time>2021-06-19T00:30:46Z</time>
      </trkpt>
      <trkpt lat="42.7487" lon="-0.24432">
        <ele>1585</ele>
        <time>2021-06-19T00:30:48Z</time>
      </trkpt>
      <trkpt lat="42.74875" lon="-0.24432">
        <ele>1587</ele>
        <time>2021-06-19T00:30:49Z</time>
      </trkpt>
      <trkpt lat="42.74905" lon="-0.24403">
        <ele>1583</ele>
        <time>2021-06-19T00:30:57Z</time>
      </trkpt>
      <trkpt lat="42.74936" lon="-0.24389">
        <ele>1591</ele>
        <time>2021-06-19T00:31:05Z</time>
      </trkpt>
      <trkpt lat="42.74958" lon="-0.24372">
        <ele>1594</ele>
        <time>2021-06-19T00:31:11Z</time>
      </trkpt>
      <trkpt lat="42.75008" lon="-0.24307">
        <ele>1594</ele>
        <time>2021-06-19T00:31:27Z</time>
      </trkpt>
      <trkpt lat="42.75082" lon="-0.24223">
        <ele>1606</ele>
        <time>2021-06-19T00:31:50Z</time>
      </trkpt>
      <trkpt lat="42.75102" lon="-0.24189">
        <ele>1612</ele>
        <time>2021-06-19T00:31:57Z</time>
      </trkpt>
      <trkpt lat="42.75117" lon="-0.24152">
        <ele>1616</ele>
        <time>2021-06-19T00:32:04Z</time>
      </trkpt>
      <trkpt lat="42.75127" lon="-0.24066">
        <ele>1618</ele>
        <time>2021-06-19T00:32:19Z</time>
      </trkpt>
      <trkpt lat="42.75134" lon="-0.24047">
        <ele>1621</ele>
        <time>2021-06-19T00:32:23Z</time>
      </trkpt>
      <trkpt lat="42.75154" lon="-0.24031">
        <ele>1621</ele>
        <time>2021-06-19T00:32:28Z</time>
      </trkpt>
      <trkpt lat="42.75176" lon="-0.24015">
        <ele>1620</ele>
        <time>2021-06-19T00:32:34Z</time>
      </trkpt>
      <trkpt lat="42.75221" lon="-0.23996">
        <ele>1625</ele>
        <time>2021-06-19T00:32:45Z</time>
      </trkpt>
      <trkpt lat="42.7528" lon="-0.23967">
        <ele>1631</ele>
        <time>2021-06-19T00:33:00Z</time>
      </trkpt>
      <trkpt lat="42.75311" lon="-0.23942">
        <ele>1631</ele>
        <time>2021-06-19T00:33:08Z</time>
      </trkpt>
      <trkpt lat="42.7533" lon="-0.23931">
        <ele>1630</ele>
        <time>2021-06-19T00:33:13Z</time>
      </trkpt>
      <trkpt lat="42.75359" lon="-0.23926">
        <ele>1630</ele>
        <time>2021-06-19T00:33:20Z</time>
      </trkpt>
      <trkpt lat="42.75384" lon="-0.23929">
        <ele>1631</ele>
        <time>2021-06-19T00:33:26Z</time>
      </trkpt>
      <trkpt lat="42.75403" lon="-0.23936">
        <ele>1633</ele>
        <time>2021-06-19T00:33:30Z</time>
      </trkpt>
      <trkpt lat="42.75419" lon="-0.23932">
        <ele>1633</ele>
        <time>2021-06-19T00:33:34Z</time>
      </trkpt>
      <trkpt lat="42.75448" lon="-0.23919">
        <ele>1634</ele>
        <time>2021-06-19T00:33:41Z</time>
      </trkpt>
      <trkpt lat="42.75476" lon="-0.23917">
        <ele>1637</ele>
        <time>2021-06-19T00:33:48Z</time>
      </trkpt>
      <trkpt lat="42.75524" lon="-0.23901">
        <ele>1640</ele>
        <time>2021-06-19T00:33:59Z</time>
      </trkpt>
      <trkpt lat="42.75597" lon="-0.23882">
        <ele>1643</ele>
        <time>2021-06-19T00:34:17Z</time>
      </trkpt>
      <trkpt lat="42.75623" lon="-0.23863">
        <ele>1642</ele>
        <time>2021-06-19T00:34:23Z</time>
      </trkpt>
      <trkpt lat="42.75742" lon="-0.23729">
        <ele>1645</ele>
        <time>2021-06-19T00:35:00Z</time>
      </trkpt>
      <trkpt lat="42.75758" lon="-0.237">
        <ele>1652</ele>
        <time>2021-06-19T00:35:06Z</time>
      </trkpt>
      <trkpt lat="42.75791" lon="-0.23612">
        <ele>1665</ele>
        <time>2021-06-19T00:35:23Z</time>
      </trkpt>
      <trkpt lat="42.75885" lon="-0.23484">
        <ele>1651</ele>
        <time>2021-06-19T00:35:54Z</time>
      </trkpt>
      <trkpt lat="42.75905" lon="-0.23448">
        <ele>1650</ele>
        <time>2021-06-19T00:36:01Z</time>
      </trkpt>
      <trkpt lat="42.75928" lon="-0.23428">
        <ele>1647</ele>
        <time>2021-06-19T00:36:08Z</time>
      </trkpt>
      <trkpt lat="42.75944" lon="-0.23421">
        <ele>1646</ele>
        <time>2021-06-19T00:36:12Z</time>
      </trkpt>
      <trkpt lat="42.75989" lon="-0.23365">
        <ele>1646</ele>
        <time>2021-06-19T00:36:26Z</time>
      </trkpt>
      <trkpt lat="42.76005" lon="-0.23321">
        <ele>1647</ele>
        <time>2021-06-19T00:36:34Z</time>
      </trkpt>
      <trkpt lat="42.75971" lon="-0.23284">
        <ele>1663</ele>
        <time>2021-06-19T00:36:45Z</time>
      </trkpt>
      <trkpt lat="42.75987" lon="-0.23258">
        <ele>1663</ele>
        <time>2021-06-19T00:36:50Z</time>
      </trkpt>
      <trkpt lat="42.76014" lon="-0.23245">
        <ele>1662</ele>
        <time>2021-06-19T00:36:57Z</time>
      </trkpt>
      <trkpt lat="42.76051" lon="-0.23246">
        <ele>1659</ele>
        <time>2021-06-19T00:37:06Z</time>
      </trkpt>
      <trkpt lat="42.76059" lon="-0.23205">
        <ele>1673</ele>
        <time>2021-06-19T00:37:13Z</time>
      </trkpt>
      <trkpt lat="42.76079" lon="-0.23189">
        <ele>1676</ele>
        <time>2021-06-19T00:37:18Z</time>
      </trkpt>
      <trkpt lat="42.76051" lon="-0.23185">
        <ele>1681</ele>
        <time>2021-06-19T00:37:25Z</time>
      </trkpt>
      <trkpt lat="42.76016" lon="-0.23196">
        <ele>1681</ele>
        <time>2021-06-19T00:37:33Z</time>
      </trkpt>
      <trkpt lat="42.76076" lon="-0.23141">
        <ele>1693</ele>
        <time>2021-06-19T00:37:50Z</time>
      </trkpt>
      <trkpt lat="42.76112" lon="-0.23148">
        <ele>1682</ele>
        <time>2021-06-19T00:37:59Z</time>
      </trkpt>
      <trkpt lat="42.7612" lon="-0.23123">
        <ele>1690</ele>
        <time>2021-06-19T00:38:03Z</time>
      </trkpt>
      <trkpt lat="42.76237" lon="-0.22973">
        <ele>1721</ele>
        <time>2021-06-19T00:38:41Z</time>
      </trkpt>
      <trkpt lat="42.7622" lon="-0.22971">
        <ele>1724</ele>
        <time>2021-06-19T00:38:45Z</time>
      </trkpt>
      <trkpt lat="42.76215" lon="-0.2296">
        <ele>1728</ele>
        <time>2021-06-19T00:38:47Z</time>
      </trkpt>
      <trkpt lat="42.76218" lon="-0.22952">
        <ele>1730</ele>
        <time>2021-06-19T00:38:49Z</time>
      </trkpt>
      <trkpt lat="42.76182" lon="-0.22945">
        <ele>1738</ele>
        <time>2021-06-19T00:38:57Z</time>
      </trkpt>
      <trkpt lat="42.76113" lon="-0.22981">
        <ele>1744</ele>
        <time>2021-06-19T00:39:14Z</time>
      </trkpt>
      <trkpt lat="42.76131" lon="-0.22921">
        <ele>1760</ele>
        <time>2021-06-19T00:39:26Z</time>
      </trkpt>
      <trkpt lat="42.76176" lon="-0.22849">
        <ele>1774</ele>
        <time>2021-06-19T00:39:42Z</time>
      </trkpt>
      <trkpt lat="42.76143" lon="-0.22856">
        <ele>1781</ele>
        <time>2021-06-19T00:39:50Z</time>
      </trkpt>
      <trkpt lat="42.76152" lon="-0.22821">
        <ele>1791</ele>
        <time>2021-06-19T00:39:56Z</time>
      </trkpt>
      <trkpt lat="42.76213" lon="-0.2275">
        <ele>1803</ele>
        <time>2021-06-19T00:40:15Z</time>
      </trkpt>
      <trkpt lat="42.7608" lon="-0.22789">
        <ele>1825</ele>
        <time>2021-06-19T00:40:46Z</time>
      </trkpt>
      <trkpt lat="42.76134" lon="-0.22715">
        <ele>1840</ele>
        <time>2021-06-19T00:41:04Z</time>
      </trkpt>
      <trkpt lat="42.76163" lon="-0.22706">
        <ele>1836</ele>
        <time>2021-06-19T00:41:11Z</time>
      </trkpt>
      <trkpt lat="42.76186" lon="-0.22666">
        <ele>1849</ele>
        <time>2021-06-19T00:41:20Z</time>
      </trkpt>
      <trkpt lat="42.7613" lon="-0.22677">
        <ele>1859</ele>
        <time>2021-06-19T00:41:33Z</time>
      </trkpt>
      <trkpt lat="42.7619" lon="-0.22603">
        <ele>1878</ele>
        <time>2021-06-19T00:41:52Z</time>
      </trkpt>
      <trkpt lat="42.76155" lon="-0.22619">
        <ele>1882</ele>
        <time>2021-06-19T00:42:01Z</time>
      </trkpt>
      <trkpt lat="42.76137" lon="-0.2262">
        <ele>1886</ele>
        <time>2021-06-19T00:42:05Z</time>
      </trkpt>
      <trkpt lat="42.76184" lon="-0.22566">
        <ele>1897</ele>
        <time>2021-06-19T00:42:19Z</time>
      </trkpt>
      <trkpt lat="42.7614" lon="-0.22583">
        <ele>1904</ele>
        <time>2021-06-19T00:42:30Z</time>
      </trkpt>
      <trkpt lat="42.76167" lon="-0.22547">
        <ele>1912</ele>
        <time>2021-06-19T00:42:39Z</time>
      </trkpt>
      <trkpt lat="42.76138" lon="-0.22561">
        <ele>1915</ele>
        <time>2021-06-19T00:42:46Z</time>
      </trkpt>
      <trkpt lat="42.76157" lon="-0.22538">
        <ele>1919</ele>
        <time>2021-06-19T00:42:52Z</time>
      </trkpt>
      <trkpt lat="42.76134" lon="-0.22542">
        <ele>1924</ele>
        <time>2021-06-19T00:42:57Z</time>
      </trkpt>
      <trkpt lat="42.76145" lon="-0.22531">
        <ele>1926</ele>
        <time>2021-06-19T00:43:01Z</time>
      </trkpt>
      <trkpt lat="42.76146" lon="-0.22523">
        <ele>1929</ele>
        <time>2021-06-19T00:43:02Z</time>
      </trkpt>
      <trkpt lat="42.76135" lon="-0.22524">
        <ele>1932</ele>
        <time>2021-06-19T00:43:05Z</time>
      </trkpt>
      <trkpt lat="42.76145" lon="-0.22504">
        <ele>1938</ele>
        <time>2021-06-19T00:43:09Z</time>
      </trkpt>
      <trkpt lat="42.76132" lon="-0.22512">
        <ele>1938</ele>
        <time>2021-06-19T00:43:12Z</time>
      </trkpt>
      <trkpt lat="42.76085" lon="-0.22523">
        <ele>1948</ele>
        <time>2021-06-19T00:43:23Z</time>
      </trkpt>
      <trkpt lat="42.76089" lon="-0.22508">
        <ele>1954</ele>
        <time>2021-06-19T00:43:26Z</time>
      </trkpt>
      <trkpt lat="42.76081" lon="-0.22507">
        <ele>1957</ele>
        <time>2021-06-19T00:43:28Z</time>
      </trkpt>
      <trkpt lat="42.76087" lon="-0.22492">
        <ele>1960</ele>
        <time>2021-06-19T00:43:31Z</time>
      </trkpt>
      <trkpt lat="42.76075" lon="-0.22495">
        <ele>1964</ele>
        <time>2021-06-19T00:43:34Z</time>
      </trkpt>
      <trkpt lat="42.76078" lon="-0.22474">
        <ele>1968</ele>
        <time>2021-06-19T00:43:37Z</time>
      </trkpt>
      <trkpt lat="42.76091" lon="-0.22465">
        <ele>1967</ele>
        <time>2021-06-19T00:43:41Z</time>
      </trkpt>
      <trkpt lat="42.76116" lon="-0.22415">
        <ele>1978</ele>
        <time>2021-06-19T00:43:51Z</time>
      </trkpt>
      <trkpt lat="42.76164" lon="-0.22379">
        <ele>1987</ele>
        <time>2021-06-19T00:44:04Z</time>
      </trkpt>
      <trkpt lat="42.76108" lon="-0.22355">
        <ele>2000</ele>
        <time>2021-06-19T00:44:17Z</time>
      </trkpt>
      <trkpt lat="42.76055" lon="-0.22357">
        <ele>2009</ele>
        <time>2021-06-19T00:44:30Z</time>
      </trkpt>
      <trkpt lat="42.76004" lon="-0.22373">
        <ele>2022</ele>
        <time>2021-06-19T00:44:42Z</time>
      </trkpt>
      <trkpt lat="42.75976" lon="-0.22414">
        <ele>2024</ele>
        <time>2021-06-19T00:44:52Z</time>
      </trkpt>
      <trkpt lat="42.7596" lon="-0.22458">
        <ele>2016</ele>
        <time>2021-06-19T00:45:00Z</time>
      </trkpt>
      <trkpt lat="42.75937" lon="-0.2248">
        <ele>2017</ele>
        <time>2021-06-19T00:45:07Z</time>
      </trkpt>
      <trkpt lat="42.75924" lon="-0.22483">
        <ele>2020</ele>
        <time>2021-06-19T00:45:10Z</time>
      </trkpt>
      <trkpt lat="42.7593" lon="-0.22444">
        <ele>2031</ele>
        <time>2021-06-19T00:45:17Z</time>
      </trkpt>
      <trkpt lat="42.7591" lon="-0.22465">
        <ele>2027</ele>
        <time>2021-06-19T00:45:22Z</time>
      </trkpt>
      <trkpt lat="42.75892" lon="-0.22419">
        <ele>2042</ele>
        <time>2021-06-19T00:45:31Z</time>
      </trkpt>
      <trkpt lat="42.75893" lon="-0.22408">
        <ele>2045</ele>
        <time>2021-06-19T00:45:33Z</time>
      </trkpt>
      <trkpt lat="42.75849" lon="-0.2232">
        <ele>2072</ele>
        <time>2021-06-19T00:45:52Z</time>
      </trkpt>
      <trkpt lat="42.75858" lon="-0.22303">
        <ele>2077</ele>
        <time>2021-06-19T00:45:55Z</time>
      </trkpt>
      <trkpt lat="42.75834" lon="-0.22285">
        <ele>2088</ele>
        <time>2021-06-19T00:46:02Z</time>
      </trkpt>
      <trkpt lat="42.75844" lon="-0.2227">
        <ele>2091</ele>
        <time>2021-06-19T00:46:05Z</time>
      </trkpt>
      <trkpt lat="42.75836" lon="-0.22264">
        <ele>2096</ele>
        <time>2021-06-19T00:46:07Z</time>
      </trkpt>
      <trkpt lat="42.75841" lon="-0.22252">
        <ele>2099</ele>
        <time>2021-06-19T00:46:10Z</time>
      </trkpt>
      <trkpt lat="42.75825" lon="-0.22253">
        <ele>2100</ele>
        <time>2021-06-19T00:46:13Z</time>
      </trkpt>
      <trkpt lat="42.75791" lon="-0.22232">
        <ele>2107</ele>
        <time>2021-06-19T00:46:22Z</time>
      </trkpt>
      <trkpt lat="42.7581" lon="-0.2222">
        <ele>2112</ele>
        <time>2021-06-19T00:46:27Z</time>
      </trkpt>
      <trkpt lat="42.75803" lon="-0.22206">
        <ele>2117</ele>
        <time>2021-06-19T00:46:30Z</time>
      </trkpt>
      <trkpt lat="42.75781" lon="-0.22193">
        <ele>2124</ele>
        <time>2021-06-19T00:46:35Z</time>
      </trkpt>
      <trkpt lat="42.75776" lon="-0.22184">
        <ele>2128</ele>
        <time>2021-06-19T00:46:37Z</time>
      </trkpt>
      <trkpt lat="42.7581" lon="-0.2217">
        <ele>2131</ele>
        <time>2021-06-19T00:46:46Z</time>
      </trkpt>
      <trkpt lat="42.75816" lon="-0.2216">
        <ele>2135</ele>
        <time>2021-06-19T00:46:48Z</time>
      </trkpt>
      <trkpt lat="42.75788" lon="-0.22159">
        <ele>2138</ele>
        <time>2021-06-19T00:46:54Z</time>
      </trkpt>
      <trkpt lat="42.75781" lon="-0.22153">
        <ele>2142</ele>
        <time>2021-06-19T00:46:56Z</time>
      </trkpt>
      <trkpt lat="42.75817" lon="-0.22134">
        <ele>2149</ele>
        <time>2021-06-19T00:47:05Z</time>
      </trkpt>
      <trkpt lat="42.75799" lon="-0.22132">
        <ele>2151</ele>
        <time>2021-06-19T00:47:10Z</time>
      </trkpt>
      <trkpt lat="42.7577" lon="-0.22119">
        <ele>2160</ele>
        <time>2021-06-19T00:47:17Z</time>
      </trkpt>
      <trkpt lat="42.75804" lon="-0.22112">
        <ele>2162</ele>
        <time>2021-06-19T00:47:25Z</time>
      </trkpt>
      <trkpt lat="42.75685" lon="-0.22023">
        <ele>2191</ele>
        <time>2021-06-19T00:47:56Z</time>
      </trkpt>
      <trkpt lat="42.75644" lon="-0.22008">
        <ele>2191</ele>
        <time>2021-06-19T00:48:06Z</time>
      </trkpt>
      <trkpt lat="42.75596" lon="-0.21904">
        <ele>2210</ele>
        <time>2021-06-19T00:48:27Z</time>
      </trkpt>
      <trkpt lat="42.75619" lon="-0.21835">
        <ele>2231</ele>
        <time>2021-06-19T00:48:40Z</time>
      </trkpt>
      <trkpt lat="42.75598" lon="-0.21797">
        <ele>2229</ele>
        <time>2021-06-19T00:48:49Z</time>
      </trkpt>
      <trkpt lat="42.75627" lon="-0.21812">
        <ele>2239</ele>
        <time>2021-06-19T00:48:56Z</time>
      </trkpt>
      <trkpt lat="42.75617" lon="-0.21778">
        <ele>2241</ele>
        <time>2021-06-19T00:49:02Z</time>
      </trkpt>
      <trkpt lat="42.75631" lon="-0.21782">
        <ele>2247</ele>
        <time>2021-06-19T00:49:05Z</time>
      </trkpt>
      <trkpt lat="42.75619" lon="-0.21746">
        <ele>2249</ele>
        <time>2021-06-19T00:49:12Z</time>
      </trkpt>
      <trkpt lat="42.75633" lon="-0.21752">
        <ele>2255</ele>
        <time>2021-06-19T00:49:16Z</time>
      </trkpt>
      <trkpt lat="42.75625" lon="-0.217">
        <ele>2261</ele>
        <time>2021-06-19T00:49:25Z</time>
      </trkpt>
      <trkpt lat="42.75665" lon="-0.21688">
        <ele>2285</ele>
        <time>2021-06-19T00:49:34Z</time>
      </trkpt>
      <trkpt lat="42.75652" lon="-0.21619">
        <ele>2297</ele>
        <time>2021-06-19T00:49:46Z</time>
      </trkpt>
      <trkpt lat="42.75667" lon="-0.21633">
        <ele>2300</ele>
        <time>2021-06-19T00:49:51Z</time>
      </trkpt>
      <trkpt lat="42.75662" lon="-0.21615">
        <ele>2303</ele>
        <time>2021-06-19T00:49:54Z</time>
      </trkpt>
      <trkpt lat="42.75673" lon="-0.21619">
        <ele>2309</ele>
        <time>2021-06-19T00:49:57Z</time>
      </trkpt>
      <trkpt lat="42.75618" lon="-0.21511">
        <ele>2320</ele>
        <time>2021-06-19T00:50:19Z</time>
      </trkpt>
      <trkpt lat="42.75589" lon="-0.21506">
        <ele>2312</ele>
        <time>2021-06-19T00:50:26Z</time>
      </trkpt>
      <trkpt lat="42.75554" lon="-0.21512">
        <ele>2303</ele>
        <time>2021-06-19T00:50:34Z</time>
      </trkpt>
      <trkpt lat="42.75542" lon="-0.21501">
        <ele>2307</ele>
        <time>2021-06-19T00:50:38Z</time>
      </trkpt>
      <trkpt lat="42.75568" lon="-0.21487">
        <ele>2317</ele>
        <time>2021-06-19T00:50:44Z</time>
      </trkpt>
      <trkpt lat="42.75474" lon="-0.21452">
        <ele>2326</ele>
        <time>2021-06-19T00:51:07Z</time>
      </trkpt>
      <trkpt lat="42.75281" lon="-0.21274">
        <ele>2376</ele>
        <time>2021-06-19T00:52:01Z</time>
      </trkpt>
      <trkpt lat="42.75275" lon="-0.21217">
        <ele>2383</ele>
        <time>2021-06-19T00:52:11Z</time>
      </trkpt>
      <trkpt lat="42.7533" lon="-0.21193">
        <ele>2389</ele>
        <time>2021-06-19T00:52:25Z</time>
      </trkpt>
      <trkpt lat="42.75388" lon="-0.21127">
        <ele>2407</ele>
        <time>2021-06-19T00:52:42Z</time>
      </trkpt>
      <trkpt lat="42.75396" lon="-0.21077">
        <ele>2407</ele>
        <time>2021-06-19T00:52:51Z</time>
      </trkpt>
      <trkpt lat="42.75362" lon="-0.20961">
        <ele>2408</ele>
        <time>2021-06-19T00:53:13Z</time>
      </trkpt>
      <trkpt lat="42.75352" lon="-0.20861">
        <ele>2417</ele>
        <time>2021-06-19T00:53:30Z</time>
      </trkpt>
      <trkpt lat="42.75355" lon="-0.20782">
        <ele>2431</ele>
        <time>2021-06-19T00:53:43Z</time>
      </trkpt>
      <trkpt lat="42.75381" lon="-0.20813">
        <ele>2443</ele>
        <time>2021-06-19T00:53:52Z</time>
      </trkpt>
      <trkpt lat="42.7538" lon="-0.20769">
        <ele>2450</ele>
        <time>2021-06-19T00:53:59Z</time>
      </trkpt>
      <trkpt lat="42.75413" lon="-0.20774">
        <ele>2470</ele>
        <time>2021-06-19T00:54:07Z</time>
      </trkpt>
      <trkpt lat="42.75415" lon="-0.20796">
        <ele>2468</ele>
        <time>2021-06-19T00:54:11Z</time>
      </trkpt>
      <trkpt lat="42.75436" lon="-0.20804">
        <ele>2474</ele>
        <time>2021-06-19T00:54:16Z</time>
      </trkpt>
      <trkpt lat="42.75447" lon="-0.20832">
        <ele>2474</ele>
        <time>2021-06-19T00:54:21Z</time>
      </trkpt>
      <trkpt lat="42.7548" lon="-0.20827">
        <ele>2486</ele>
        <time>2021-06-19T00:54:29Z</time>
      </trkpt>
      <trkpt lat="42.75526" lon="-0.20634">
        <ele>2512</ele>
        <time>2021-06-19T00:55:04Z</time>
      </trkpt>
      <trkpt lat="42.75595" lon="-0.20539">
        <ele>2524</ele>
        <time>2021-06-19T00:55:27Z</time>
      </trkpt>
      <trkpt lat="42.75702" lon="-0.20371">
        <ele>2544</ele>
        <time>2021-06-19T00:56:05Z</time>
      </trkpt>
      <trkpt lat="42.7574" lon="-0.20346">
        <ele>2538</ele>
        <time>2021-06-19T00:56:15Z</time>
      </trkpt>
      <trkpt lat="42.75771" lon="-0.20239">
        <ele>2561</ele>
        <time>2021-06-19T00:56:34Z</time>
      </trkpt>
      <trkpt lat="42.7582" lon="-0.20165">
        <ele>2559</ele>
        <time>2021-06-19T00:56:51Z</time>
      </trkpt>
      <trkpt lat="42.75939" lon="-0.20091">
        <ele>2528</ele>
        <time>2021-06-19T00:57:22Z</time>
      </trkpt>
      <trkpt lat="42.7593" lon="-0.20068">
        <ele>2520</ele>
        <time>2021-06-19T00:57:26Z</time>
      </trkpt>
      <trkpt lat="42.75977" lon="-0.19984">
        <ele>2487</ele>
        <time>2021-06-19T00:57:45Z</time>
      </trkpt>
      <trkpt lat="42.75967" lon="-0.19952">
        <ele>2480</ele>
        <time>2021-06-19T00:57:51Z</time>
      </trkpt>
      <trkpt lat="42.75986" lon="-0.19899">
        <ele>2467</ele>
        <time>2021-06-19T00:58:01Z</time>
      </trkpt>
      <trkpt lat="42.76112" lon="-0.19751">
        <ele>2431</ele>
        <time>2021-06-19T00:58:39Z</time>
      </trkpt>
      <trkpt lat="42.76135" lon="-0.19692">
        <ele>2429</ele>
        <time>2021-06-19T00:58:51Z</time>
      </trkpt>
      <trkpt lat="42.76172" lon="-0.19683">
        <ele>2431</ele>
        <time>2021-06-19T00:59:00Z</time>
      </trkpt>
      <trkpt lat="42.76305" lon="-0.19584">
        <ele>2425</ele>
        <time>2021-06-19T00:59:35Z</time>
      </trkpt>
      <trkpt lat="42.763" lon="-0.19531">
        <ele>2417</ele>
        <time>2021-06-19T00:59:44Z</time>
      </trkpt>
      <trkpt lat="42.76339" lon="-0.19437">
        <ele>2404</ele>
        <time>2021-06-19T01:00:03Z</time>
      </trkpt>
      <trkpt lat="42.76339" lon="-0.1939">
        <ele>2393</ele>
        <time>2021-06-19T01:00:11Z</time>
      </trkpt>
      <trkpt lat="42.76383" lon="-0.1924">
        <ele>2374</ele>
        <time>2021-06-19T01:00:39Z</time>
      </trkpt>
      <trkpt lat="42.76419" lon="-0.1923">
        <ele>2378</ele>
        <time>2021-06-19T01:00:47Z</time>
      </trkpt>
      <trkpt lat="42.7647" lon="-0.19129">
        <ele>2375</ele>
        <time>2021-06-19T01:01:08Z</time>
      </trkpt>
      <trkpt lat="42.76467" lon="-0.19082">
        <ele>2367</ele>
        <time>2021-06-19T01:01:16Z</time>
      </trkpt>
      <trkpt lat="42.76505" lon="-0.18947">
        <ele>2355</ele>
        <time>2021-06-19T01:01:41Z</time>
      </trkpt>
      <trkpt lat="42.76548" lon="-0.1887">
        <ele>2335</ele>
        <time>2021-06-19T01:01:58Z</time>
      </trkpt>
      <trkpt lat="42.76529" lon="-0.18766">
        <ele>2303</ele>
        <time>2021-06-19T01:02:16Z</time>
      </trkpt>
      <trkpt lat="42.76527" lon="-0.18679">
        <ele>2282</ele>
        <time>2021-06-19T01:02:31Z</time>
      </trkpt>
      <trkpt lat="42.76549" lon="-0.18636">
        <ele>2271</ele>
        <time>2021-06-19T01:02:40Z</time>
      </trkpt>
      <trkpt lat="42.76541" lon="-0.18578">
        <ele>2260</ele>
        <time>2021-06-19T01:02:50Z</time>
      </trkpt>
      <trkpt lat="42.76548" lon="-0.18557">
        <ele>2255</ele>
        <time>2021-06-19T01:02:54Z</time>
      </trkpt>
      <trkpt lat="42.76549" lon="-0.18502">
        <ele>2242</ele>
        <time>2021-06-19T01:03:03Z</time>
      </trkpt>
      <trkpt lat="42.76562" lon="-0.18474">
        <ele>2236</ele>
        <time>2021-06-19T01:03:09Z</time>
      </trkpt>
      <trkpt lat="42.76559" lon="-0.18456">
        <ele>2232</ele>
        <time>2021-06-19T01:03:12Z</time>
      </trkpt>
      <trkpt lat="42.76568" lon="-0.18426">
        <ele>2227</ele>
        <time>2021-06-19T01:03:18Z</time>
      </trkpt>
      <trkpt lat="42.76557" lon="-0.18391">
        <ele>2220</ele>
        <time>2021-06-19T01:03:24Z</time>
      </trkpt>
      <trkpt lat="42.76565" lon="-0.18372">
        <ele>2217</ele>
        <time>2021-06-19T01:03:28Z</time>
      </trkpt>
      <trkpt lat="42.76569" lon="-0.18338">
        <ele>2212</ele>
        <time>2021-06-19T01:03:34Z</time>
      </trkpt>
      <trkpt lat="42.76585" lon="-0.18324">
        <ele>2211</ele>
        <time>2021-06-19T01:03:38Z</time>
      </trkpt>
      <trkpt lat="42.76579" lon="-0.18286">
        <ele>2206</ele>
        <time>2021-06-19T01:03:45Z</time>
      </trkpt>
      <trkpt lat="42.76564" lon="-0.18282">
        <ele>2206</ele>
        <time>2021-06-19T01:03:49Z</time>
      </trkpt>
      <trkpt lat="42.76534" lon="-0.18216">
        <ele>2206</ele>
        <time>2021-06-19T01:04:02Z</time>
      </trkpt>
      <trkpt lat="42.76532" lon="-0.18176">
        <ele>2206</ele>
        <time>2021-06-19T01:04:09Z</time>
      </trkpt>
      <trkpt lat="42.76557" lon="-0.18163">
        <ele>2202</ele>
        <time>2021-06-19T01:04:15Z</time>
      </trkpt>
      <trkpt lat="42.76583" lon="-0.18133">
        <ele>2196</ele>
        <time>2021-06-19T01:04:23Z</time>
      </trkpt>
      <trkpt lat="42.7658" lon="-0.18107">
        <ele>2196</ele>
        <time>2021-06-19T01:04:28Z</time>
      </trkpt>
      <trkpt lat="42.76587" lon="-0.18085">
        <ele>2194</ele>
        <time>2021-06-19T01:04:32Z</time>
      </trkpt>
      <trkpt lat="42.76595" lon="-0.18073">
        <ele>2192</ele>
        <time>2021-06-19T01:04:34Z</time>
      </trkpt>
      <trkpt lat="42.76628" lon="-0.17957">
        <ele>2175</ele>
        <time>2021-06-19T01:04:56Z</time>
      </trkpt>
      <trkpt lat="42.76642" lon="-0.17925">
        <ele>2171</ele>
        <time>2021-06-19T01:05:02Z</time>
      </trkpt>
      <trkpt lat="42.76653" lon="-0.17911">
        <ele>2168</ele>
        <time>2021-06-19T01:05:06Z</time>
      </trkpt>
      <trkpt lat="42.76631" lon="-0.17849">
        <ele>2157</ele>
        <time>2021-06-19T01:05:17Z</time>
      </trkpt>
      <trkpt lat="42.76654" lon="-0.17715">
        <ele>2138</ele>
        <time>2021-06-19T01:05:41Z</time>
      </trkpt>
      <trkpt lat="42.76655" lon="-0.17649">
        <ele>2133</ele>
        <time>2021-06-19T01:05:52Z</time>
      </trkpt>
      <trkpt lat="42.76666" lon="-0.17646">
        <ele>2133</ele>
        <time>2021-06-19T01:05:55Z</time>
      </trkpt>
      <trkpt lat="42.76682" lon="-0.17612">
        <ele>2142</ele>
        <time>2021-06-19T01:06:02Z</time>
      </trkpt>
      <trkpt lat="42.76685" lon="-0.17573">
        <ele>2141</ele>
        <time>2021-06-19T01:06:09Z</time>
      </trkpt>
      <trkpt lat="42.76681" lon="-0.17542">
        <ele>2133</ele>
        <time>2021-06-19T01:06:14Z</time>
      </trkpt>
      <trkpt lat="42.76684" lon="-0.17508">
        <ele>2129</ele>
        <time>2021-06-19T01:06:20Z</time>
      </trkpt>
      <trkpt lat="42.76698" lon="-0.1747">
        <ele>2127</ele>
        <time>2021-06-19T01:06:27Z</time>
      </trkpt>
      <trkpt lat="42.76687" lon="-0.17451">
        <ele>2117</ele>
        <time>2021-06-19T01:06:31Z</time>
      </trkpt>
      <trkpt lat="42.76692" lon="-0.17428">
        <ele>2113</ele>
        <time>2021-06-19T01:06:35Z</time>
      </trkpt>
      <trkpt lat="42.76671" lon="-0.1741">
        <ele>2100</ele>
        <time>2021-06-19T01:06:41Z</time>
      </trkpt>
      <trkpt lat="42.7667" lon="-0.1738">
        <ele>2091</ele>
        <time>2021-06-19T01:06:46Z</time>
      </trkpt>
      <trkpt lat="42.76682" lon="-0.17349">
        <ele>2085</ele>
        <time>2021-06-19T01:06:52Z</time>
      </trkpt>
      <trkpt lat="42.76681" lon="-0.17311">
        <ele>2076</ele>
        <time>2021-06-19T01:06:59Z</time>
      </trkpt>
      <trkpt lat="42.7666" lon="-0.17241">
        <ele>2057</ele>
        <time>2021-06-19T01:07:12Z</time>
      </trkpt>
      <trkpt lat="42.76654" lon="-0.17205">
        <ele>2046</ele>
        <time>2021-06-19T01:07:18Z</time>
      </trkpt>
      <trkpt lat="42.76659" lon="-0.17153">
        <ele>2031</ele>
        <time>2021-06-19T01:07:27Z</time>
      </trkpt>
      <trkpt lat="42.76691" lon="-0.17153">
        <ele>2040</ele>
        <time>2021-06-19T01:07:35Z</time>
      </trkpt>
      <trkpt lat="42.76705" lon="-0.17122">
        <ele>2039</ele>
        <time>2021-06-19T01:07:41Z</time>
      </trkpt>
      <trkpt lat="42.76709" lon="-0.17063">
        <ele>2037</ele>
        <time>2021-06-19T01:07:51Z</time>
      </trkpt>
      <trkpt lat="42.7662" lon="-0.1708">
        <ele>2009</ele>
        <time>2021-06-19T01:08:12Z</time>
      </trkpt>
      <trkpt lat="42.76594" lon="-0.17057">
        <ele>2004</ele>
        <time>2021-06-19T01:08:19Z</time>
      </trkpt>
      <trkpt lat="42.76558" lon="-0.17015">
        <ele>1998</ele>
        <time>2021-06-19T01:08:30Z</time>
      </trkpt>
      <trkpt lat="42.76469" lon="-0.16972">
        <ele>1988</ele>
        <time>2021-06-19T01:08:52Z</time>
      </trkpt>
      <trkpt lat="42.76395" lon="-0.1691">
        <ele>1979</ele>
        <time>2021-06-19T01:09:13Z</time>
      </trkpt>
      <trkpt lat="42.76351" lon="-0.16897">
        <ele>1978</ele>
        <time>2021-06-19T01:09:23Z</time>
      </trkpt>
      <trkpt lat="42.76287" lon="-0.16903">
        <ele>1971</ele>
        <time>2021-06-19T01:09:38Z</time>
      </trkpt>
      <trkpt lat="42.76193" lon="-0.16884">
        <ele>1965</ele>
        <time>2021-06-19T01:10:00Z</time>
      </trkpt>
      <trkpt lat="42.76157" lon="-0.16874">
        <ele>1963</ele>
        <time>2021-06-19T01:10:09Z</time>
      </trkpt>
      <trkpt lat="42.76098" lon="-0.16893">
        <ele>1955</ele>
        <time>2021-06-19T01:10:23Z</time>
      </trkpt>
      <trkpt lat="42.76089" lon="-0.16907">
        <ele>1953</ele>
        <time>2021-06-19T01:10:26Z</time>
      </trkpt>
      <trkpt lat="42.76075" lon="-0.16909">
        <ele>1952</ele>
        <time>2021-06-19T01:10:30Z</time>
      </trkpt>
      <trkpt lat="42.76057" lon="-0.16892">
        <ele>1951</ele>
        <time>2021-06-19T01:10:35Z</time>
      </trkpt>
      <trkpt lat="42.76026" lon="-0.16882">
        <ele>1948</ele>
        <time>2021-06-19T01:10:42Z</time>
      </trkpt>
      <trkpt lat="42.76007" lon="-0.16868">
        <ele>1946</ele>
        <time>2021-06-19T01:10:47Z</time>
      </trkpt>
      <trkpt lat="42.76003" lon="-0.16854">
        <ele>1946</ele>
        <time>2021-06-19T01:10:50Z</time>
      </trkpt>
      <trkpt lat="42.75941" lon="-0.16818">
        <ele>1938</ele>
        <time>2021-06-19T01:11:06Z</time>
      </trkpt>
      <trkpt lat="42.75907" lon="-0.16817">
        <ele>1930</ele>
        <time>2021-06-19T01:11:13Z</time>
      </trkpt>
      <trkpt lat="42.75748" lon="-0.16763">
        <ele>1904</ele>
        <time>2021-06-19T01:11:52Z</time>
      </trkpt>
      <trkpt lat="42.75643" lon="-0.1672">
        <ele>1892</ele>
        <time>2021-06-19T01:12:17Z</time>
      </trkpt>
      <trkpt lat="42.75441" lon="-0.16565">
        <ele>1870</ele>
        <time>2021-06-19T01:13:12Z</time>
      </trkpt>
      <trkpt lat="42.75268" lon="-0.16416">
        <ele>1845</ele>
        <time>2021-06-19T01:13:59Z</time>
      </trkpt>
      <trkpt lat="42.75161" lon="-0.16235">
        <ele>1816</ele>
        <time>2021-06-19T01:14:39Z</time>
      </trkpt>
      <trkpt lat="42.75126" lon="-0.16095">
        <ele>1811</ele>
        <time>2021-06-19T01:15:05Z</time>
      </trkpt>
      <trkpt lat="42.7502" lon="-0.15855">
        <ele>1791</ele>
        <time>2021-06-19T01:15:53Z</time>
      </trkpt>
      <trkpt lat="42.75024" lon="-0.15775">
        <ele>1790</ele>
        <time>2021-06-19T01:16:06Z</time>
      </trkpt>
      <trkpt lat="42.74987" lon="-0.15633">
        <ele>1789</ele>
        <time>2021-06-19T01:16:32Z</time>
      </trkpt>
      <trkpt lat="42.74939" lon="-0.1555">
        <ele>1792</ele>
        <time>2021-06-19T01:16:50Z</time>
      </trkpt>
      <trkpt lat="42.74932" lon="-0.1552">
        <ele>1791</ele>
        <time>2021-06-19T01:16:56Z</time>
      </trkpt>
      <trkpt lat="42.74924" lon="-0.15463">
        <ele>1791</ele>
        <time>2021-06-19T01:17:06Z</time>
      </trkpt>
      <trkpt lat="42.74919" lon="-0.15371">
        <ele>1794</ele>
        <time>2021-06-19T01:17:21Z</time>
      </trkpt>
      <trkpt lat="42.74915" lon="-0.15351">
        <ele>1795</ele>
        <time>2021-06-19T01:17:25Z</time>
      </trkpt>
      <trkpt lat="42.749" lon="-0.15325">
        <ele>1794</ele>
        <time>2021-06-19T01:17:31Z</time>
      </trkpt>
      <trkpt lat="42.74827" lon="-0.15219">
        <ele>1788</ele>
        <time>2021-06-19T01:17:56Z</time>
      </trkpt>
      <trkpt lat="42.74805" lon="-0.15172">
        <ele>1788</ele>
        <time>2021-06-19T01:18:05Z</time>
      </trkpt>
      <trkpt lat="42.74753" lon="-0.15015">
        <ele>1799</ele>
        <time>2021-06-19T01:18:35Z</time>
      </trkpt>
      <trkpt lat="42.74733" lon="-0.14975">
        <ele>1800</ele>
        <time>2021-06-19T01:18:43Z</time>
      </trkpt>
      <trkpt lat="42.74705" lon="-0.14888">
        <ele>1805</ele>
        <time>2021-06-19T01:18:59Z</time>
      </trkpt>
      <trkpt lat="42.74681" lon="-0.14847">
        <ele>1802</ele>
        <time>2021-06-19T01:19:08Z</time>
      </trkpt>
      <trkpt lat="42.74682" lon="-0.14836">
        <ele>1804</ele>
        <time>2021-06-19T01:19:10Z</time>
      </trkpt>
      <trkpt lat="42.74693" lon="-0.14819">
        <ele>1808</ele>
        <time>2021-06-19T01:19:14Z</time>
      </trkpt>
      <trkpt lat="42.74693" lon="-0.14807">
        <ele>1809</ele>
        <time>2021-06-19T01:19:16Z</time>
      </trkpt>
      <trkpt lat="42.74687" lon="-0.14793">
        <ele>1808</ele>
        <time>2021-06-19T01:19:19Z</time>
      </trkpt>
      <trkpt lat="42.74646" lon="-0.14746">
        <ele>1804</ele>
        <time>2021-06-19T01:19:31Z</time>
      </trkpt>
      <trkpt lat="42.745" lon="-0.14622">
        <ele>1786</ele>
        <time>2021-06-19T01:20:12Z</time>
      </trkpt>
      <trkpt lat="42.74463" lon="-0.14579">
        <ele>1772</ele>
        <time>2021-06-19T01:20:23Z</time>
      </trkpt>
      <trkpt lat="42.74445" lon="-0.14568">
        <ele>1767</ele>
        <time>2021-06-19T01:20:28Z</time>
      </trkpt>
      <trkpt lat="42.74447" lon="-0.1454">
        <ele>1771</ele>
        <time>2021-06-19T01:20:32Z</time>
      </trkpt>
      <trkpt lat="42.74428" lon="-0.14537">
        <ele>1766</ele>
        <time>2021-06-19T01:20:37Z</time>
      </trkpt>
      <trkpt lat="42.74406" lon="-0.14539">
        <ele>1760</ele>
        <time>2021-06-19T01:20:42Z</time>
      </trkpt>
      <trkpt lat="42.74372" lon="-0.1453">
        <ele>1754</ele>
        <time>2021-06-19T01:20:50Z</time>
      </trkpt>
      <trkpt lat="42.74335" lon="-0.14516">
        <ele>1749</ele>
        <time>2021-06-19T01:20:59Z</time>
      </trkpt>
      <trkpt lat="42.74314" lon="-0.14494">
        <ele>1750</ele>
        <time>2021-06-19T01:21:05Z</time>
      </trkpt>
      <trkpt lat="42.74287" lon="-0.1449">
        <ele>1745</ele>
        <time>2021-06-19T01:21:12Z</time>
      </trkpt>
      <trkpt lat="42.7427" lon="-0.14468">
        <ele>1746</ele>
        <time>2021-06-19T01:21:17Z</time>
      </trkpt>
      <trkpt lat="42.74259" lon="-0.14458">
        <ele>1746</ele>
        <time>2021-06-19T01:21:20Z</time>
      </trkpt>
      <trkpt lat="42.74193" lon="-0.14438">
        <ele>1734</ele>
        <time>2021-06-19T01:21:36Z</time>
      </trkpt>
      <trkpt lat="42.74158" lon="-0.14424">
        <ele>1729</ele>
        <time>2021-06-19T01:21:44Z</time>
      </trkpt>
      <trkpt lat="42.74117" lon="-0.14399">
        <ele>1725</ele>
        <time>2021-06-19T01:21:55Z</time>
      </trkpt>
      <trkpt lat="42.74015" lon="-0.14236">
        <ele>1708</ele>
        <time>2021-06-19T01:22:32Z</time>
      </trkpt>
      <trkpt lat="42.73894" lon="-0.14153">
        <ele>1691</ele>
        <time>2021-06-19T01:23:03Z</time>
      </trkpt>
      <trkpt lat="42.73859" lon="-0.14156">
        <ele>1682</ele>
        <time>2021-06-19T01:23:11Z</time>
      </trkpt>
      <trkpt lat="42.73836" lon="-0.14168">
        <ele>1674</ele>
        <time>2021-06-19T01:23:17Z</time>
      </trkpt>
      <trkpt lat="42.7378" lon="-0.14155">
        <ele>1668</ele>
        <time>2021-06-19T01:23:31Z</time>
      </trkpt>
      <trkpt lat="42.73693" lon="-0.14075">
        <ele>1666</ele>
        <time>2021-06-19T01:23:55Z</time>
      </trkpt>
      <trkpt lat="42.73671" lon="-0.14077">
        <ele>1662</ele>
        <time>2021-06-19T01:24:00Z</time>
      </trkpt>
      <trkpt lat="42.73656" lon="-0.14068">
        <ele>1662</ele>
        <time>2021-06-19T01:24:04Z</time>
      </trkpt>
      <trkpt lat="42.73652" lon="-0.14056">
        <ele>1663</ele>
        <time>2021-06-19T01:24:06Z</time>
      </trkpt>
      <trkpt lat="42.73613" lon="-0.14033">
        <ele>1659</ele>
        <time>2021-06-19T01:24:16Z</time>
      </trkpt>
      <trkpt lat="42.73597" lon="-0.13976">
        <ele>1668</ele>
        <time>2021-06-19T01:24:27Z</time>
      </trkpt>
      <trkpt lat="42.73575" lon="-0.13984">
        <ele>1659</ele>
        <time>2021-06-19T01:24:32Z</time>
      </trkpt>
      <trkpt lat="42.73527" lon="-0.13963">
        <ele>1658</ele>
        <time>2021-06-19T01:24:44Z</time>
      </trkpt>
      <trkpt lat="42.735" lon="-0.13968">
        <ele>1651</ele>
        <time>2021-06-19T01:24:50Z</time>
      </trkpt>
      <trkpt lat="42.73475" lon="-0.1396">
        <ele>1652</ele>
        <time>2021-06-19T01:24:56Z</time>
      </trkpt>
      <trkpt lat="42.73472" lon="-0.13938">
        <ele>1655</ele>
        <time>2021-06-19T01:25:00Z</time>
      </trkpt>
      <trkpt lat="42.73432" lon="-0.13929">
        <ele>1650</ele>
        <time>2021-06-19T01:25:09Z</time>
      </trkpt>
      <trkpt lat="42.73425" lon="-0.1391">
        <ele>1653</ele>
        <time>2021-06-19T01:25:13Z</time>
      </trkpt>
      <trkpt lat="42.73392" lon="-0.13884">
        <ele>1661</ele>
        <time>2021-06-19T01:25:22Z</time>
      </trkpt>
      <trkpt lat="42.73252" lon="-0.13857">
        <ele>1658</ele>
        <time>2021-06-19T01:25:55Z</time>
      </trkpt>
      <trkpt lat="42.73189" lon="-0.13797">
        <ele>1650</ele>
        <time>2021-06-19T01:26:13Z</time>
      </trkpt>
      <trkpt lat="42.73153" lon="-0.13741">
        <ele>1655</ele>
        <time>2021-06-19T01:26:26Z</time>
      </trkpt>
      <trkpt lat="42.73074" lon="-0.13735">
        <ele>1639</ele>
        <time>2021-06-19T01:26:44Z</time>
      </trkpt>
      <trkpt lat="42.73052" lon="-0.13722">
        <ele>1643</ele>
        <time>2021-06-19T01:26:50Z</time>
      </trkpt>
      <trkpt lat="42.7298" lon="-0.13732">
        <ele>1642</ele>
        <time>2021-06-19T01:27:07Z</time>
      </trkpt>
      <trkpt lat="42.72961" lon="-0.13764">
        <ele>1640</ele>
        <time>2021-06-19T01:27:14Z</time>
      </trkpt>
      <trkpt lat="42.72911" lon="-0.13791">
        <ele>1643</ele>
        <time>2021-06-19T01:27:26Z</time>
      </trkpt>
      <trkpt lat="42.72812" lon="-0.13774">
        <ele>1646</ele>
        <time>2021-06-19T01:27:50Z</time>
      </trkpt>
      <trkpt lat="42.72774" lon="-0.1378">
        <ele>1641</ele>
        <time>2021-06-19T01:27:59Z</time>
      </trkpt>
      <trkpt lat="42.72697" lon="-0.13711">
        <ele>1656</ele>
        <time>2021-06-19T01:28:20Z</time>
      </trkpt>
      <trkpt lat="42.72686" lon="-0.13724">
        <ele>1651</ele>
        <time>2021-06-19T01:28:23Z</time>
      </trkpt>
      <trkpt lat="42.72671" lon="-0.13723">
        <ele>1651</ele>
        <time>2021-06-19T01:28:27Z</time>
      </trkpt>
      <trkpt lat="42.72577" lon="-0.13703">
        <ele>1663</ele>
        <time>2021-06-19T01:28:49Z</time>
      </trkpt>
      <trkpt lat="42.72503" lon="-0.13704">
        <ele>1658</ele>
        <time>2021-06-19T01:29:06Z</time>
      </trkpt>
      <trkpt lat="42.72476" lon="-0.13723">
        <ele>1647</ele>
        <time>2021-06-19T01:29:14Z</time>
      </trkpt>
      <trkpt lat="42.72436" lon="-0.13732">
        <ele>1633</ele>
        <time>2021-06-19T01:29:23Z</time>
      </trkpt>
      <trkpt lat="42.72411" lon="-0.13744">
        <ele>1621</ele>
        <time>2021-06-19T01:29:29Z</time>
      </trkpt>
      <trkpt lat="42.7238" lon="-0.13749">
        <ele>1609</ele>
        <time>2021-06-19T01:29:37Z</time>
      </trkpt>
      <trkpt lat="42.7235" lon="-0.13741">
        <ele>1605</ele>
        <time>2021-06-19T01:29:44Z</time>
      </trkpt>
      <trkpt lat="42.72304" lon="-0.13744">
        <ele>1594</ele>
        <time>2021-06-19T01:29:54Z</time>
      </trkpt>
      <trkpt lat="42.72258" lon="-0.13738">
        <ele>1588</ele>
        <time>2021-06-19T01:30:05Z</time>
      </trkpt>
      <trkpt lat="42.72215" lon="-0.13723">
        <ele>1584</ele>
        <time>2021-06-19T01:30:16Z</time>
      </trkpt>
      <trkpt lat="42.72191" lon="-0.13706">
        <ele>1584</ele>
        <time>2021-06-19T01:30:22Z</time>
      </trkpt>
      <trkpt lat="42.72162" lon="-0.13673">
        <ele>1585</ele>
        <time>2021-06-19T01:30:31Z</time>
      </trkpt>
      <trkpt lat="42.72156" lon="-0.13628">
        <ele>1590</ele>
        <time>2021-06-19T01:30:39Z</time>
      </trkpt>
      <trkpt lat="42.72148" lon="-0.13604">
        <ele>1591</ele>
        <time>2021-06-19T01:30:43Z</time>
      </trkpt>
      <trkpt lat="42.72127" lon="-0.1356">
        <ele>1588</ele>
        <time>2021-06-19T01:30:52Z</time>
      </trkpt>
      <trkpt lat="42.7211" lon="-0.13508">
        <ele>1582</ele>
        <time>2021-06-19T01:31:02Z</time>
      </trkpt>
      <trkpt lat="42.72026" lon="-0.13418">
        <ele>1566</ele>
        <time>2021-06-19T01:31:27Z</time>
      </trkpt>
      <trkpt lat="42.72009" lon="-0.13372">
        <ele>1568</ele>
        <time>2021-06-19T01:31:36Z</time>
      </trkpt>
      <trkpt lat="42.71988" lon="-0.13359">
        <ele>1566</ele>
        <time>2021-06-19T01:31:41Z</time>
      </trkpt>
      <trkpt lat="42.71956" lon="-0.13356">
        <ele>1566</ele>
        <time>2021-06-19T01:31:49Z</time>
      </trkpt>
      <trkpt lat="42.71892" lon="-0.13327">
        <ele>1568</ele>
        <time>2021-06-19T01:32:04Z</time>
      </trkpt>
      <trkpt lat="42.71859" lon="-0.13316">
        <ele>1573</ele>
        <time>2021-06-19T01:32:12Z</time>
      </trkpt>
      <trkpt lat="42.71768" lon="-0.13177">
        <ele>1557</ele>
        <time>2021-06-19T01:32:44Z</time>
      </trkpt>
      <trkpt lat="42.71748" lon="-0.13103">
        <ele>1547</ele>
        <time>2021-06-19T01:32:58Z</time>
      </trkpt>
      <trkpt lat="42.71737" lon="-0.13037">
        <ele>1562</ele>
        <time>2021-06-19T01:33:09Z</time>
      </trkpt>
      <trkpt lat="42.71727" lon="-0.13005">
        <ele>1565</ele>
        <time>2021-06-19T01:33:15Z</time>
      </trkpt>
      <trkpt lat="42.71684" lon="-0.12936">
        <ele>1547</ele>
        <time>2021-06-19T01:33:31Z</time>
      </trkpt>
      <trkpt lat="42.71648" lon="-0.12858">
        <ele>1545</ele>
        <time>2021-06-19T01:33:47Z</time>
      </trkpt>
      <trkpt lat="42.71626" lon="-0.1282">
        <ele>1543</ele>
        <time>2021-06-19T01:33:55Z</time>
      </trkpt>
      <trkpt lat="42.71615" lon="-0.12788">
        <ele>1547</ele>
        <time>2021-06-19T01:34:01Z</time>
      </trkpt>
      <trkpt lat="42.71596" lon="-0.12782">
        <ele>1535</ele>
        <time>2021-06-19T01:34:06Z</time>
      </trkpt>
      <trkpt lat="42.71586" lon="-0.1277">
        <ele>1530</ele>
        <time>2021-06-19T01:34:09Z</time>
      </trkpt>
      <trkpt lat="42.71577" lon="-0.12745">
        <ele>1533</ele>
        <time>2021-06-19T01:34:13Z</time>
      </trkpt>
      <trkpt lat="42.71564" lon="-0.1274">
        <ele>1532</ele>
        <time>2021-06-19T01:34:17Z</time>
      </trkpt>
      <trkpt lat="42.71545" lon="-0.12746">
        <ele>1525</ele>
        <time>2021-06-19T01:34:21Z</time>
      </trkpt>
      <trkpt lat="42.71534" lon="-0.12744">
        <ele>1523</ele>
        <time>2021-06-19T01:34:24Z</time>
      </trkpt>
      <trkpt lat="42.715" lon="-0.12725">
        <ele>1519</ele>
        <time>2021-06-19T01:34:32Z</time>
      </trkpt>
      <trkpt lat="42.71461" lon="-0.1272">
        <ele>1516</ele>
        <time>2021-06-19T01:34:41Z</time>
      </trkpt>
      <trkpt lat="42.7143" lon="-0.12713">
        <ele>1513</ele>
        <time>2021-06-19T01:34:49Z</time>
      </trkpt>
      <trkpt lat="42.713" lon="-0.12665">
        <ele>1503</ele>
        <time>2021-06-19T01:35:20Z</time>
      </trkpt>
      <trkpt lat="42.71256" lon="-0.12652">
        <ele>1502</ele>
        <time>2021-06-19T01:35:31Z</time>
      </trkpt>
      <trkpt lat="42.71198" lon="-0.12623">
        <ele>1498</ele>
        <time>2021-06-19T01:35:45Z</time>
      </trkpt>
      <trkpt lat="42.71143" lon="-0.12576">
        <ele>1500</ele>
        <time>2021-06-19T01:36:00Z</time>
      </trkpt>
      <trkpt lat="42.71122" lon="-0.12564">
        <ele>1504</ele>
        <time>2021-06-19T01:36:06Z</time>
      </trkpt>
      <trkpt lat="42.71091" lon="-0.1256">
        <ele>1502</ele>
        <time>2021-06-19T01:36:13Z</time>
      </trkpt>
      <trkpt lat="42.71052" lon="-0.12562">
        <ele>1502</ele>
        <time>2021-06-19T01:36:22Z</time>
      </trkpt>
      <trkpt lat="42.70989" lon="-0.12593">
        <ele>1492</ele>
        <time>2021-06-19T01:36:38Z</time>
      </trkpt>
      <trkpt lat="42.7097" lon="-0.12594">
        <ele>1491</ele>
        <time>2021-06-19T01:36:42Z</time>
      </trkpt>
      <trkpt lat="42.70944" lon="-0.12585">
        <ele>1486</ele>
        <time>2021-06-19T01:36:48Z</time>
      </trkpt>
      <trkpt lat="42.70918" lon="-0.12558">
        <ele>1498</ele>
        <time>2021-06-19T01:36:56Z</time>
      </trkpt>
      <trkpt lat="42.70903" lon="-0.12536">
        <ele>1506</ele>
        <time>2021-06-19T01:37:01Z</time>
      </trkpt>
      <trkpt lat="42.70865" lon="-0.12511">
        <ele>1499</ele>
        <time>2021-06-19T01:37:11Z</time>
      </trkpt>
      <trkpt lat="42.70825" lon="-0.12489">
        <ele>1496</ele>
        <time>2021-06-19T01:37:21Z</time>
      </trkpt>
      <trkpt lat="42.70806" lon="-0.12485">
        <ele>1500</ele>
        <time>2021-06-19T01:37:26Z</time>
      </trkpt>
      <trkpt lat="42.70784" lon="-0.12493">
        <ele>1493</ele>
        <time>2021-06-19T01:37:31Z</time>
      </trkpt>
      <trkpt lat="42.70759" lon="-0.12494">
        <ele>1493</ele>
        <time>2021-06-19T01:37:37Z</time>
      </trkpt>
      <trkpt lat="42.70739" lon="-0.12486">
        <ele>1496</ele>
        <time>2021-06-19T01:37:42Z</time>
      </trkpt>
      <trkpt lat="42.70724" lon="-0.12489">
        <ele>1492</ele>
        <time>2021-06-19T01:37:45Z</time>
      </trkpt>
      <trkpt lat="42.7071" lon="-0.125">
        <ele>1485</ele>
        <time>2021-06-19T01:37:49Z</time>
      </trkpt>
      <trkpt lat="42.70678" lon="-0.12487">
        <ele>1487</ele>
        <time>2021-06-19T01:37:57Z</time>
      </trkpt>
      <trkpt lat="42.70656" lon="-0.12469">
        <ele>1487</ele>
        <time>2021-06-19T01:38:03Z</time>
      </trkpt>
      <trkpt lat="42.70646" lon="-0.12468">
        <ele>1482</ele>
        <time>2021-06-19T01:38:05Z</time>
      </trkpt>
      <trkpt lat="42.70634" lon="-0.12475">
        <ele>1473</ele>
        <time>2021-06-19T01:38:08Z</time>
      </trkpt>
      <trkpt lat="42.70623" lon="-0.12469">
        <ele>1469</ele>
        <time>2021-06-19T01:38:11Z</time>
      </trkpt>
      <trkpt lat="42.70598" lon="-0.12441">
        <ele>1463</ele>
        <time>2021-06-19T01:38:18Z</time>
      </trkpt>
      <trkpt lat="42.70574" lon="-0.12386">
        <ele>1469</ele>
        <time>2021-06-19T01:38:29Z</time>
      </trkpt>
      <trkpt lat="42.70552" lon="-0.12376">
        <ele>1460</ele>
        <time>2021-06-19T01:38:35Z</time>
      </trkpt>
      <trkpt lat="42.70543" lon="-0.12369">
        <ele>1457</ele>
        <time>2021-06-19T01:38:37Z</time>
      </trkpt>
      <trkpt lat="42.70516" lon="-0.12372">
        <ele>1438</ele>
        <time>2021-06-19T01:38:44Z</time>
      </trkpt>
      <trkpt lat="42.70486" lon="-0.1237">
        <ele>1424</ele>
        <time>2021-06-19T01:38:51Z</time>
      </trkpt>
      <trkpt lat="42.70459" lon="-0.12362">
        <ele>1418</ele>
        <time>2021-06-19T01:38:57Z</time>
      </trkpt>
      <trkpt lat="42.70439" lon="-0.1235">
        <ele>1412</ele>
        <time>2021-06-19T01:39:02Z</time>
      </trkpt>
      <trkpt lat="42.70406" lon="-0.12275">
        <ele>1399</ele>
        <time>2021-06-19T01:39:17Z</time>
      </trkpt>
      <trkpt lat="42.70391" lon="-0.12228">
        <ele>1395</ele>
        <time>2021-06-19T01:39:26Z</time>
      </trkpt>
      <trkpt lat="42.7038" lon="-0.12212">
        <ele>1393</ele>
        <time>2021-06-19T01:39:30Z</time>
      </trkpt>
      <trkpt lat="42.70377" lon="-0.12185">
        <ele>1392</ele>
        <time>2021-06-19T01:39:34Z</time>
      </trkpt>
      <trkpt lat="42.70347" lon="-0.12131">
        <ele>1384</ele>
        <time>2021-06-19T01:39:46Z</time>
      </trkpt>
      <trkpt lat="42.70342" lon="-0.12116">
        <ele>1384</ele>
        <time>2021-06-19T01:39:49Z</time>
      </trkpt>
      <trkpt lat="42.70321" lon="-0.12073">
        <ele>1385</ele>
        <time>2021-06-19T01:39:58Z</time>
      </trkpt>
      <trkpt lat="42.70307" lon="-0.12052">
        <ele>1387</ele>
        <time>2021-06-19T01:40:03Z</time>
      </trkpt>
      <trkpt lat="42.703" lon="-0.12047">
        <ele>1386</ele>
        <time>2021-06-19T01:40:04Z</time>
      </trkpt>
      <trkpt lat="42.70222" lon="-0.11933">
        <ele>1381</ele>
        <time>2021-06-19T01:40:31Z</time>
      </trkpt>
      <trkpt lat="42.70211" lon="-0.11927">
        <ele>1378</ele>
        <time>2021-06-19T01:40:34Z</time>
      </trkpt>
      <trkpt lat="42.70207" lon="-0.11918">
        <ele>1378</ele>
        <time>2021-06-19T01:40:36Z</time>
      </trkpt>
      <trkpt lat="42.70202" lon="-0.11918">
        <ele>1376</ele>
        <time>2021-06-19T01:40:37Z</time>
      </trkpt>
      <trkpt lat="42.70186" lon="-0.11887">
        <ele>1375</ele>
        <time>2021-06-19T01:40:43Z</time>
      </trkpt>
      <trkpt lat="42.70161" lon="-0.11862">
        <ele>1370</ele>
        <time>2021-06-19T01:40:51Z</time>
      </trkpt>
      <trkpt lat="42.70041" lon="-0.11785">
        <ele>1362</ele>
        <time>2021-06-19T01:41:22Z</time>
      </trkpt>
      <trkpt lat="42.70025" lon="-0.11731">
        <ele>1359</ele>
        <time>2021-06-19T01:41:32Z</time>
      </trkpt>
      <trkpt lat="42.69995" lon="-0.11686">
        <ele>1355</ele>
        <time>2021-06-19T01:41:42Z</time>
      </trkpt>
      <trkpt lat="42.69978" lon="-0.11635">
        <ele>1356</ele>
        <time>2021-06-19T01:41:52Z</time>
      </trkpt>
      <trkpt lat="42.69956" lon="-0.11608">
        <ele>1356</ele>
        <time>2021-06-19T01:41:59Z</time>
      </trkpt>
      <trkpt lat="42.69935" lon="-0.11505">
        <ele>1352</ele>
        <time>2021-06-19T01:42:17Z</time>
      </trkpt>
      <trkpt lat="42.69918" lon="-0.11443">
        <ele>1352</ele>
        <time>2021-06-19T01:42:28Z</time>
      </trkpt>
      <trkpt lat="42.69901" lon="-0.11421">
        <ele>1352</ele>
        <time>2021-06-19T01:42:34Z</time>
      </trkpt>
      <trkpt lat="42.69873" lon="-0.11327">
        <ele>1352</ele>
        <time>2021-06-19T01:42:51Z</time>
      </trkpt>
      <trkpt lat="42.69847" lon="-0.11269">
        <ele>1353</ele>
        <time>2021-06-19T01:43:03Z</time>
      </trkpt>
      <trkpt lat="42.69771" lon="-0.11206">
        <ele>1351</ele>
        <time>2021-06-19T01:43:24Z</time>
      </trkpt>
      <trkpt lat="42.69765" lon="-0.11163">
        <ele>1352</ele>
        <time>2021-06-19T01:43:31Z</time>
      </trkpt>
      <trkpt lat="42.69786" lon="-0.11107">
        <ele>1350</ele>
        <time>2021-06-19T01:43:42Z</time>
      </trkpt>
      <trkpt lat="42.69781" lon="-0.11062">
        <ele>1348</ele>
        <time>2021-06-19T01:43:50Z</time>
      </trkpt>
      <trkpt lat="42.69786" lon="-0.1104">
        <ele>1347</ele>
        <time>2021-06-19T01:43:54Z</time>
      </trkpt>
      <trkpt lat="42.69771" lon="-0.10984">
        <ele>1345</ele>
        <time>2021-06-19T01:44:04Z</time>
      </trkpt>
      <trkpt lat="42.69772" lon="-0.10966">
        <ele>1345</ele>
        <time>2021-06-19T01:44:07Z</time>
      </trkpt>
      <trkpt lat="42.69764" lon="-0.10918">
        <ele>1345</ele>
        <time>2021-06-19T01:44:15Z</time>
      </trkpt>
      <trkpt lat="42.69744" lon="-0.10869">
        <ele>1346</ele>
        <time>2021-06-19T01:44:25Z</time>
      </trkpt>
      <trkpt lat="42.69764" lon="-0.10825">
        <ele>1345</ele>
        <time>2021-06-19T01:44:34Z</time>
      </trkpt>
      <trkpt lat="42.6977" lon="-0.10781">
        <ele>1347</ele>
        <time>2021-06-19T01:44:42Z</time>
      </trkpt>
      <trkpt lat="42.69736" lon="-0.10762">
        <ele>1344</ele>
        <time>2021-06-19T01:44:50Z</time>
      </trkpt>
      <trkpt lat="42.69689" lon="-0.10727">
        <ele>1340</ele>
        <time>2021-06-19T01:45:03Z</time>
      </trkpt>
      <trkpt lat="42.69635" lon="-0.10638">
        <ele>1346</ele>
        <time>2021-06-19T01:45:23Z</time>
      </trkpt>
      <trkpt lat="42.69602" lon="-0.10612">
        <ele>1349</ele>
        <time>2021-06-19T01:45:31Z</time>
      </trkpt>
      <trkpt lat="42.6956" lon="-0.10597">
        <ele>1346</ele>
        <time>2021-06-19T01:45:42Z</time>
      </trkpt>
      <trkpt lat="42.69551" lon="-0.10597">
        <ele>1345</ele>
        <time>2021-06-19T01:45:44Z</time>
      </trkpt>
      <trkpt lat="42.69539" lon="-0.10603">
        <ele>1343</ele>
        <time>2021-06-19T01:45:47Z</time>
      </trkpt>
      <trkpt lat="42.69525" lon="-0.10594">
        <ele>1341</ele>
        <time>2021-06-19T01:45:50Z</time>
      </trkpt>
      <trkpt lat="42.69516" lon="-0.10598">
        <ele>1340</ele>
        <time>2021-06-19T01:45:53Z</time>
      </trkpt>
      <trkpt lat="42.69493" lon="-0.10638">
        <ele>1341</ele>
        <time>2021-06-19T01:46:01Z</time>
      </trkpt>
      <trkpt lat="42.69485" lon="-0.10647">
        <ele>1341</ele>
        <time>2021-06-19T01:46:04Z</time>
      </trkpt>
      <trkpt lat="42.69459" lon="-0.10663">
        <ele>1339</ele>
        <time>2021-06-19T01:46:10Z</time>
      </trkpt>
      <trkpt lat="42.6945" lon="-0.10682">
        <ele>1340</ele>
        <time>2021-06-19T01:46:14Z</time>
      </trkpt>
      <trkpt lat="42.69431" lon="-0.10712">
        <ele>1341</ele>
        <time>2021-06-19T01:46:21Z</time>
      </trkpt>
      <trkpt lat="42.69436" lon="-0.10757">
        <ele>1350</ele>
        <time>2021-06-19T01:46:29Z</time>
      </trkpt>
      <trkpt lat="42.69432" lon="-0.10769">
        <ele>1352</ele>
        <time>2021-06-19T01:46:31Z</time>
      </trkpt>
      <trkpt lat="42.69416" lon="-0.10791">
        <ele>1353</ele>
        <time>2021-06-19T01:46:36Z</time>
      </trkpt>
      <trkpt lat="42.69407" lon="-0.10799">
        <ele>1353</ele>
        <time>2021-06-19T01:46:39Z</time>
      </trkpt>
      <trkpt lat="42.69375" lon="-0.10799">
        <ele>1347</ele>
        <time>2021-06-19T01:46:46Z</time>
      </trkpt>
      <trkpt lat="42.6936" lon="-0.10803">
        <ele>1345</ele>
        <time>2021-06-19T01:46:50Z</time>
      </trkpt>
      <trkpt lat="42.69315" lon="-0.10827">
        <ele>1345</ele>
        <time>2021-06-19T01:47:01Z</time>
      </trkpt>
      <trkpt lat="42.69282" lon="-0.10849">
        <ele>1357</ele>
        <time>2021-06-19T01:47:10Z</time>
      </trkpt>
      <trkpt lat="42.69265" lon="-0.10849">
        <ele>1357</ele>
        <time>2021-06-19T01:47:14Z</time>
      </trkpt>
      <trkpt lat="42.69244" lon="-0.1084">
        <ele>1352</ele>
        <time>2021-06-19T01:47:19Z</time>
      </trkpt>
      <trkpt lat="42.69207" lon="-0.1086">
        <ele>1367</ele>
        <time>2021-06-19T01:47:28Z</time>
      </trkpt>
      <trkpt lat="42.69164" lon="-0.10856">
        <ele>1366</ele>
        <time>2021-06-19T01:47:38Z</time>
      </trkpt>
      <trkpt lat="42.69147" lon="-0.10862">
        <ele>1370</ele>
        <time>2021-06-19T01:47:42Z</time>
      </trkpt>
      <trkpt lat="42.69097" lon="-0.10852">
        <ele>1364</ele>
        <time>2021-06-19T01:47:54Z</time>
      </trkpt>
      <trkpt lat="42.69011" lon="-0.10852">
        <ele>1364</ele>
        <time>2021-06-19T01:48:14Z</time>
      </trkpt>
      <trkpt lat="42.68913" lon="-0.1084">
        <ele>1363</ele>
        <time>2021-06-19T01:48:37Z</time>
      </trkpt>
      <trkpt lat="42.68888" lon="-0.10852">
        <ele>1365</ele>
        <time>2021-06-19T01:48:43Z</time>
      </trkpt>
      <trkpt lat="42.68866" lon="-0.10852">
        <ele>1361</ele>
        <time>2021-06-19T01:48:49Z</time>
      </trkpt>
      <trkpt lat="42.68858" lon="-0.10856">
        <ele>1362</ele>
        <time>2021-06-19T01:48:51Z</time>
      </trkpt>
      <trkpt lat="42.68816" lon="-0.10896">
        <ele>1367</ele>
        <time>2021-06-19T01:49:03Z</time>
      </trkpt>
      <trkpt lat="42.68782" lon="-0.10921">
        <ele>1363</ele>
        <time>2021-06-19T01:49:12Z</time>
      </trkpt>
      <trkpt lat="42.68748" lon="-0.10957">
        <ele>1365</ele>
        <time>2021-06-19T01:49:22Z</time>
      </trkpt>
      <trkpt lat="42.68715" lon="-0.10974">
        <ele>1366</ele>
        <time>2021-06-19T01:49:30Z</time>
      </trkpt>
      <trkpt lat="42.68694" lon="-0.10982">
        <ele>1365</ele>
        <time>2021-06-19T01:49:35Z</time>
      </trkpt>
      <trkpt lat="42.6868" lon="-0.10978">
        <ele>1362</ele>
        <time>2021-06-19T01:49:38Z</time>
      </trkpt>
      <trkpt lat="42.68658" lon="-0.1096">
        <ele>1353</ele>
        <time>2021-06-19T01:49:44Z</time>
      </trkpt>
      <trkpt lat="42.68648" lon="-0.10956">
        <ele>1349</ele>
        <time>2021-06-19T01:49:47Z</time>
      </trkpt>
      <trkpt lat="42.68638" lon="-0.10955">
        <ele>1347</ele>
        <time>2021-06-19T01:49:49Z</time>
      </trkpt>
      <trkpt lat="42.68625" lon="-0.10964">
        <ele>1345</ele>
        <time>2021-06-19T01:49:52Z</time>
      </trkpt>
      <trkpt lat="42.68618" lon="-0.10976">
        <ele>1346</ele>
        <time>2021-06-19T01:49:55Z</time>
      </trkpt>
      <trkpt lat="42.68614" lon="-0.11001">
        <ele>1350</ele>
        <time>2021-06-19T01:49:59Z</time>
      </trkpt>
      <trkpt lat="42.68602" lon="-0.11035">
        <ele>1352</ele>
        <time>2021-06-19T01:50:06Z</time>
      </trkpt>
      <trkpt lat="42.68572" lon="-0.11089">
        <ele>1352</ele>
        <time>2021-06-19T01:50:18Z</time>
      </trkpt>
      <trkpt lat="42.68548" lon="-0.11117">
        <ele>1351</ele>
        <time>2021-06-19T01:50:25Z</time>
      </trkpt>
      <trkpt lat="42.68518" lon="-0.11141">
        <ele>1347</ele>
        <time>2021-06-19T01:50:33Z</time>
      </trkpt>
      <trkpt lat="42.68454" lon="-0.11205">
        <ele>1336</ele>
        <time>2021-06-19T01:50:52Z</time>
      </trkpt>
      <trkpt lat="42.68447" lon="-0.1122">
        <ele>1335</ele>
        <time>2021-06-19T01:50:55Z</time>
      </trkpt>
      <trkpt lat="42.68419" lon="-0.11308">
        <ele>1338</ele>
        <time>2021-06-19T01:51:11Z</time>
      </trkpt>
      <trkpt lat="42.68394" lon="-0.11364">
        <ele>1337</ele>
        <time>2021-06-19T01:51:22Z</time>
      </trkpt>
      <trkpt lat="42.68379" lon="-0.11418">
        <ele>1337</ele>
        <time>2021-06-19T01:51:32Z</time>
      </trkpt>
      <trkpt lat="42.68351" lon="-0.11473">
        <ele>1332</ele>
        <time>2021-06-19T01:51:44Z</time>
      </trkpt>
      <trkpt lat="42.68279" lon="-0.11573">
        <ele>1325</ele>
        <time>2021-06-19T01:52:08Z</time>
      </trkpt>
      <trkpt lat="42.6824" lon="-0.11602">
        <ele>1318</ele>
        <time>2021-06-19T01:52:18Z</time>
      </trkpt>
      <trkpt lat="42.6821" lon="-0.11632">
        <ele>1313</ele>
        <time>2021-06-19T01:52:27Z</time>
      </trkpt>
      <trkpt lat="42.68205" lon="-0.11645">
        <ele>1312</ele>
        <time>2021-06-19T01:52:29Z</time>
      </trkpt>
      <trkpt lat="42.68203" lon="-0.11686">
        <ele>1312</ele>
        <time>2021-06-19T01:52:36Z</time>
      </trkpt>
      <trkpt lat="42.68205" lon="-0.11752">
        <ele>1310</ele>
        <time>2021-06-19T01:52:48Z</time>
      </trkpt>
      <trkpt lat="42.68203" lon="-0.11773">
        <ele>1310</ele>
        <time>2021-06-19T01:52:51Z</time>
      </trkpt>
      <trkpt lat="42.68199" lon="-0.11786">
        <ele>1308</ele>
        <time>2021-06-19T01:52:54Z</time>
      </trkpt>
      <trkpt lat="42.68142" lon="-0.11851">
        <ele>1297</ele>
        <time>2021-06-19T01:53:11Z</time>
      </trkpt>
      <trkpt lat="42.68135" lon="-0.11862">
        <ele>1297</ele>
        <time>2021-06-19T01:53:14Z</time>
      </trkpt>
      <trkpt lat="42.68119" lon="-0.11909">
        <ele>1296</ele>
        <time>2021-06-19T01:53:23Z</time>
      </trkpt>
      <trkpt lat="42.68087" lon="-0.11955">
        <ele>1290</ele>
        <time>2021-06-19T01:53:34Z</time>
      </trkpt>
      <trkpt lat="42.68075" lon="-0.12004">
        <ele>1291</ele>
        <time>2021-06-19T01:53:42Z</time>
      </trkpt>
      <trkpt lat="42.68054" lon="-0.12039">
        <ele>1291</ele>
        <time>2021-06-19T01:53:50Z</time>
      </trkpt>
      <trkpt lat="42.68023" lon="-0.12078">
        <ele>1283</ele>
        <time>2021-06-19T01:54:00Z</time>
      </trkpt>
      <trkpt lat="42.67991" lon="-0.12109">
        <ele>1277</ele>
        <time>2021-06-19T01:54:09Z</time>
      </trkpt>
      <trkpt lat="42.67964" lon="-0.12148">
        <ele>1278</ele>
        <time>2021-06-19T01:54:18Z</time>
      </trkpt>
      <trkpt lat="42.67955" lon="-0.12155">
        <ele>1277</ele>
        <time>2021-06-19T01:54:21Z</time>
      </trkpt>
      <trkpt lat="42.67921" lon="-0.12169">
        <ele>1268</ele>
        <time>2021-06-19T01:54:29Z</time>
      </trkpt>
      <trkpt lat="42.67891" lon="-0.12185">
        <ele>1266</ele>
        <time>2021-06-19T01:54:37Z</time>
      </trkpt>
      <trkpt lat="42.67868" lon="-0.12191">
        <ele>1263</ele>
        <time>2021-06-19T01:54:42Z</time>
      </trkpt>
      <trkpt lat="42.6785" lon="-0.12206">
        <ele>1261</ele>
        <time>2021-06-19T01:54:47Z</time>
      </trkpt>
      <trkpt lat="42.67816" lon="-0.12242">
        <ele>1257</ele>
        <time>2021-06-19T01:54:57Z</time>
      </trkpt>
      <trkpt lat="42.6779" lon="-0.12274">
        <ele>1255</ele>
        <time>2021-06-19T01:55:05Z</time>
      </trkpt>
      <trkpt lat="42.67774" lon="-0.12286">
        <ele>1254</ele>
        <time>2021-06-19T01:55:10Z</time>
      </trkpt>
      <trkpt lat="42.6775" lon="-0.12317">
        <ele>1252</ele>
        <time>2021-06-19T01:55:17Z</time>
      </trkpt>
      <trkpt lat="42.6773" lon="-0.12337">
        <ele>1250</ele>
        <time>2021-06-19T01:55:23Z</time>
      </trkpt>
      <trkpt lat="42.67698" lon="-0.12358">
        <ele>1249</ele>
        <time>2021-06-19T01:55:31Z</time>
      </trkpt>
      <trkpt lat="42.67669" lon="-0.12402">
        <ele>1251</ele>
        <time>2021-06-19T01:55:41Z</time>
      </trkpt>
      <trkpt lat="42.67638" lon="-0.12423">
        <ele>1251</ele>
        <time>2021-06-19T01:55:50Z</time>
      </trkpt>
      <trkpt lat="42.6763" lon="-0.12425">
        <ele>1251</ele>
        <time>2021-06-19T01:55:51Z</time>
      </trkpt>
      <trkpt lat="42.67594" lon="-0.12425">
        <ele>1245</ele>
        <time>2021-06-19T01:56:00Z</time>
      </trkpt>
      <trkpt lat="42.67557" lon="-0.12435">
        <ele>1242</ele>
        <time>2021-06-19T01:56:09Z</time>
      </trkpt>
      <trkpt lat="42.67528" lon="-0.12459">
        <ele>1242</ele>
        <time>2021-06-19T01:56:17Z</time>
      </trkpt>
      <trkpt lat="42.67517" lon="-0.12477">
        <ele>1243</ele>
        <time>2021-06-19T01:56:21Z</time>
      </trkpt>
      <trkpt lat="42.67485" lon="-0.12512">
        <ele>1248</ele>
        <time>2021-06-19T01:56:30Z</time>
      </trkpt>
      <trkpt lat="42.67468" lon="-0.12519">
        <ele>1250</ele>
        <time>2021-06-19T01:56:34Z</time>
      </trkpt>
      <trkpt lat="42.67428" lon="-0.1252">
        <ele>1250</ele>
        <time>2021-06-19T01:56:44Z</time>
      </trkpt>
      <trkpt lat="42.67357" lon="-0.12502">
        <ele>1250</ele>
        <time>2021-06-19T01:57:01Z</time>
      </trkpt>
      <trkpt lat="42.6729" lon="-0.1246">
        <ele>1244</ele>
        <time>2021-06-19T01:57:18Z</time>
      </trkpt>
      <trkpt lat="42.67239" lon="-0.12406">
        <ele>1232</ele>
        <time>2021-06-19T01:57:33Z</time>
      </trkpt>
      <trkpt lat="42.67192" lon="-0.12382">
        <ele>1233</ele>
        <time>2021-06-19T01:57:45Z</time>
      </trkpt>
      <trkpt lat="42.67143" lon="-0.12345">
        <ele>1226</ele>
        <time>2021-06-19T01:57:58Z</time>
      </trkpt>
      <trkpt lat="42.67133" lon="-0.12342">
        <ele>1226</ele>
        <time>2021-06-19T01:58:00Z</time>
      </trkpt>
      <trkpt lat="42.67112" lon="-0.12342">
        <ele>1226</ele>
        <time>2021-06-19T01:58:05Z</time>
      </trkpt>
      <trkpt lat="42.66993" lon="-0.12352">
        <ele>1237</ele>
        <time>2021-06-19T01:58:33Z</time>
      </trkpt>
      <trkpt lat="42.66965" lon="-0.12341">
        <ele>1236</ele>
        <time>2021-06-19T01:58:40Z</time>
      </trkpt>
      <trkpt lat="42.66955" lon="-0.12341">
        <ele>1237</ele>
        <time>2021-06-19T01:58:42Z</time>
      </trkpt>
      <trkpt lat="42.66946" lon="-0.12338">
        <ele>1235</ele>
        <time>2021-06-19T01:58:44Z</time>
      </trkpt>
      <trkpt lat="42.66936" lon="-0.12331">
        <ele>1233</ele>
        <time>2021-06-19T01:58:47Z</time>
      </trkpt>
      <trkpt lat="42.66923" lon="-0.12327">
        <ele>1233</ele>
        <time>2021-06-19T01:58:50Z</time>
      </trkpt>
      <trkpt lat="42.66913" lon="-0.12321">
        <ele>1235</ele>
        <time>2021-06-19T01:58:52Z</time>
      </trkpt>
      <trkpt lat="42.66902" lon="-0.1231">
        <ele>1238</ele>
        <time>2021-06-19T01:58:56Z</time>
      </trkpt>
      <trkpt lat="42.66876" lon="-0.12272">
        <ele>1236</ele>
        <time>2021-06-19T01:59:05Z</time>
      </trkpt>
      <trkpt lat="42.66854" lon="-0.12251">
        <ele>1229</ele>
        <time>2021-06-19T01:59:11Z</time>
      </trkpt>
      <trkpt lat="42.66761" lon="-0.12175">
        <ele>1222</ele>
        <time>2021-06-19T01:59:36Z</time>
      </trkpt>
      <trkpt lat="42.66736" lon="-0.12163">
        <ele>1220</ele>
        <time>2021-06-19T01:59:42Z</time>
      </trkpt>
      <trkpt lat="42.66733" lon="-0.12158">
        <ele>1221</ele>
        <time>2021-06-19T01:59:43Z</time>
      </trkpt>
      <trkpt lat="42.6673" lon="-0.12129">
        <ele>1229</ele>
        <time>2021-06-19T01:59:49Z</time>
      </trkpt>
      <trkpt lat="42.66726" lon="-0.12122">
        <ele>1231</ele>
        <time>2021-06-19T01:59:50Z</time>
      </trkpt>
      <trkpt lat="42.66719" lon="-0.12115">
        <ele>1232</ele>
        <time>2021-06-19T01:59:52Z</time>
      </trkpt>
      <trkpt lat="42.66685" lon="-0.12095">
        <ele>1230</ele>
        <time>2021-06-19T02:00:01Z</time>
      </trkpt>
      <trkpt lat="42.66649" lon="-0.12054">
        <ele>1237</ele>
        <time>2021-06-19T02:00:12Z</time>
      </trkpt>
      <trkpt lat="42.66612" lon="-0.12001">
        <ele>1242</ele>
        <time>2021-06-19T02:00:24Z</time>
      </trkpt>
      <trkpt lat="42.66577" lon="-0.11904">
        <ele>1240</ele>
        <time>2021-06-19T02:00:43Z</time>
      </trkpt>
      <trkpt lat="42.66534" lon="-0.11815">
        <ele>1248</ele>
        <time>2021-06-19T02:01:01Z</time>
      </trkpt>
      <trkpt lat="42.66516" lon="-0.11768">
        <ele>1239</ele>
        <time>2021-06-19T02:01:10Z</time>
      </trkpt>
      <trkpt lat="42.6651" lon="-0.11747">
        <ele>1233</ele>
        <time>2021-06-19T02:01:14Z</time>
      </trkpt>
      <trkpt lat="42.66503" lon="-0.11703">
        <ele>1226</ele>
        <time>2021-06-19T02:01:22Z</time>
      </trkpt>
      <trkpt lat="42.66486" lon="-0.11625">
        <ele>1225</ele>
        <time>2021-06-19T02:01:36Z</time>
      </trkpt>
      <trkpt lat="42.66466" lon="-0.11559">
        <ele>1229</ele>
        <time>2021-06-19T02:01:48Z</time>
      </trkpt>
      <trkpt lat="42.66447" lon="-0.11532">
        <ele>1222</ele>
        <time>2021-06-19T02:01:54Z</time>
      </trkpt>
      <trkpt lat="42.66416" lon="-0.11502">
        <ele>1197</ele>
        <time>2021-06-19T02:02:03Z</time>
      </trkpt>
      <trkpt lat="42.66404" lon="-0.11482">
        <ele>1205</ele>
        <time>2021-06-19T02:02:08Z</time>
      </trkpt>
      <trkpt lat="42.66387" lon="-0.11442">
        <ele>1212</ele>
        <time>2021-06-19T02:02:16Z</time>
      </trkpt>
      <trkpt lat="42.66375" lon="-0.11426">
        <ele>1207</ele>
        <time>2021-06-19T02:02:20Z</time>
      </trkpt>
      <trkpt lat="42.66351" lon="-0.11413">
        <ele>1192</ele>
        <time>2021-06-19T02:02:26Z</time>
      </trkpt>
      <trkpt lat="42.66346" lon="-0.11404">
        <ele>1193</ele>
        <time>2021-06-19T02:02:28Z</time>
      </trkpt>
      <trkpt lat="42.66333" lon="-0.11357">
        <ele>1206</ele>
        <time>2021-06-19T02:02:36Z</time>
      </trkpt>
      <trkpt lat="42.66335" lon="-0.113">
        <ele>1230</ele>
        <time>2021-06-19T02:02:46Z</time>
      </trkpt>
      <trkpt lat="42.66334" lon="-0.11234">
        <ele>1260</ele>
        <time>2021-06-19T02:02:57Z</time>
      </trkpt>
      <trkpt lat="42.6633" lon="-0.11196">
        <ele>1288</ele>
        <time>2021-06-19T02:03:04Z</time>
      </trkpt>
      <trkpt lat="42.66323" lon="-0.11163">
        <ele>1315</ele>
        <time>2021-06-19T02:03:10Z</time>
      </trkpt>
      <trkpt lat="42.6631" lon="-0.11126">
        <ele>1355</ele>
        <time>2021-06-19T02:03:17Z</time>
      </trkpt>
      <trkpt lat="42.66284" lon="-0.11076">
        <ele>1392</ele>
        <time>2021-06-19T02:03:27Z</time>
      </trkpt>
      <trkpt lat="42.66279" lon="-0.11047">
        <ele>1411</ele>
        <time>2021-06-19T02:03:32Z</time>
      </trkpt>
      <trkpt lat="42.66261" lon="-0.1103">
        <ele>1412</ele>
        <time>2021-06-19T02:03:38Z</time>
      </trkpt>
      <trkpt lat="42.66247" lon="-0.11008">
        <ele>1419</ele>
        <time>2021-06-19T02:03:43Z</time>
      </trkpt>
      <trkpt lat="42.66245" lon="-0.10999">
        <ele>1424</ele>
        <time>2021-06-19T02:03:44Z</time>
      </trkpt>
      <trkpt lat="42.66247" lon="-0.10986">
        <ele>1428</ele>
        <time>2021-06-19T02:03:46Z</time>
      </trkpt>
      <trkpt lat="42.66244" lon="-0.1098">
        <ele>1428</ele>
        <time>2021-06-19T02:03:48Z</time>
      </trkpt>
      <trkpt lat="42.66236" lon="-0.10973">
        <ele>1426</ele>
        <time>2021-06-19T02:03:50Z</time>
      </trkpt>
      <trkpt lat="42.66212" lon="-0.10968">
        <ele>1413</ele>
        <time>2021-06-19T02:03:56Z</time>
      </trkpt>
      <trkpt lat="42.66184" lon="-0.10937">
        <ele>1402</ele>
        <time>2021-06-19T02:04:04Z</time>
      </trkpt>
      <trkpt lat="42.66145" lon="-0.10884">
        <ele>1391</ele>
        <time>2021-06-19T02:04:17Z</time>
      </trkpt>
      <trkpt lat="42.66127" lon="-0.10864">
        <ele>1384</ele>
        <time>2021-06-19T02:04:22Z</time>
      </trkpt>
      <trkpt lat="42.66095" lon="-0.10837">
        <ele>1368</ele>
        <time>2021-06-19T02:04:31Z</time>
      </trkpt>
      <trkpt lat="42.66041" lon="-0.10825">
        <ele>1361</ele>
        <time>2021-06-19T02:04:44Z</time>
      </trkpt>
      <trkpt lat="42.66027" lon="-0.10819">
        <ele>1360</ele>
        <time>2021-06-19T02:04:47Z</time>
      </trkpt>
      <trkpt lat="42.66017" lon="-0.1081">
        <ele>1358</ele>
        <time>2021-06-19T02:04:50Z</time>
      </trkpt>
      <trkpt lat="42.65997" lon="-0.10776">
        <ele>1351</ele>
        <time>2021-06-19T02:04:58Z</time>
      </trkpt>
      <trkpt lat="42.65992" lon="-0.10763">
        <ele>1349</ele>
        <time>2021-06-19T02:05:00Z</time>
      </trkpt>
      <trkpt lat="42.65989" lon="-0.10746">
        <ele>1349</ele>
        <time>2021-06-19T02:05:03Z</time>
      </trkpt>
      <trkpt lat="42.65992" lon="-0.1069">
        <ele>1372</ele>
        <time>2021-06-19T02:05:13Z</time>
      </trkpt>
      <trkpt lat="42.6599" lon="-0.10673">
        <ele>1379</ele>
        <time>2021-06-19T02:05:16Z</time>
      </trkpt>
      <trkpt lat="42.65955" lon="-0.10599">
        <ele>1401</ele>
        <time>2021-06-19T02:05:31Z</time>
      </trkpt>
      <trkpt lat="42.65903" lon="-0.10538">
        <ele>1410</ele>
        <time>2021-06-19T02:05:47Z</time>
      </trkpt>
      <trkpt lat="42.65874" lon="-0.10512">
        <ele>1417</ele>
        <time>2021-06-19T02:05:55Z</time>
      </trkpt>
      <trkpt lat="42.65842" lon="-0.10494">
        <ele>1420</ele>
        <time>2021-06-19T02:06:03Z</time>
      </trkpt>
      <trkpt lat="42.6583" lon="-0.10491">
        <ele>1419</ele>
        <time>2021-06-19T02:06:06Z</time>
      </trkpt>
      <trkpt lat="42.65806" lon="-0.1049">
        <ele>1413</ele>
        <time>2021-06-19T02:06:12Z</time>
      </trkpt>
      <trkpt lat="42.65795" lon="-0.10485">
        <ele>1409</ele>
        <time>2021-06-19T02:06:14Z</time>
      </trkpt>
      <trkpt lat="42.65781" lon="-0.10471">
        <ele>1402</ele>
        <time>2021-06-19T02:06:18Z</time>
      </trkpt>
      <trkpt lat="42.65762" lon="-0.10437">
        <ele>1391</ele>
        <time>2021-06-19T02:06:26Z</time>
      </trkpt>
      <trkpt lat="42.65744" lon="-0.10415">
        <ele>1384</ele>
        <time>2021-06-19T02:06:31Z</time>
      </trkpt>
      <trkpt lat="42.65737" lon="-0.10412">
        <ele>1382</ele>
        <time>2021-06-19T02:06:33Z</time>
      </trkpt>
      <trkpt lat="42.65714" lon="-0.10415">
        <ele>1380</ele>
        <time>2021-06-19T02:06:38Z</time>
      </trkpt>
      <trkpt lat="42.6568" lon="-0.10432">
        <ele>1378</ele>
        <time>2021-06-19T02:06:47Z</time>
      </trkpt>
      <trkpt lat="42.65658" lon="-0.10433">
        <ele>1372</ele>
        <time>2021-06-19T02:06:52Z</time>
      </trkpt>
      <trkpt lat="42.65578" lon="-0.10455">
        <ele>1336</ele>
        <time>2021-06-19T02:07:11Z</time>
      </trkpt>
      <trkpt lat="42.6557" lon="-0.10456">
        <ele>1333</ele>
        <time>2021-06-19T02:07:13Z</time>
      </trkpt>
      <trkpt lat="42.65565" lon="-0.10454">
        <ele>1331</ele>
        <time>2021-06-19T02:07:14Z</time>
      </trkpt>
      <trkpt lat="42.65542" lon="-0.10427">
        <ele>1321</ele>
        <time>2021-06-19T02:07:21Z</time>
      </trkpt>
      <trkpt lat="42.65508" lon="-0.1042">
        <ele>1311</ele>
        <time>2021-06-19T02:07:29Z</time>
      </trkpt>
      <trkpt lat="42.65499" lon="-0.10416">
        <ele>1309</ele>
        <time>2021-06-19T02:07:32Z</time>
      </trkpt>
      <trkpt lat="42.65488" lon="-0.10407">
        <ele>1304</ele>
        <time>2021-06-19T02:07:35Z</time>
      </trkpt>
      <trkpt lat="42.65471" lon="-0.10365">
        <ele>1281</ele>
        <time>2021-06-19T02:07:43Z</time>
      </trkpt>
      <trkpt lat="42.65447" lon="-0.10325">
        <ele>1254</ele>
        <time>2021-06-19T02:07:52Z</time>
      </trkpt>
      <trkpt lat="42.65434" lon="-0.10313">
        <ele>1247</ele>
        <time>2021-06-19T02:07:55Z</time>
      </trkpt>
      <trkpt lat="42.65403" lon="-0.10297">
        <ele>1230</ele>
        <time>2021-06-19T02:08:03Z</time>
      </trkpt>
      <trkpt lat="42.65358" lon="-0.10251">
        <ele>1192</ele>
        <time>2021-06-19T02:08:16Z</time>
      </trkpt>
      <trkpt lat="42.6535" lon="-0.10258">
        <ele>1189</ele>
        <time>2021-06-19T02:08:18Z</time>
      </trkpt>
      <trkpt lat="42.65341" lon="-0.10258">
        <ele>1184</ele>
        <time>2021-06-19T02:08:20Z</time>
      </trkpt>
      <trkpt lat="42.6529" lon="-0.10328">
        <ele>1167</ele>
        <time>2021-06-19T02:08:37Z</time>
      </trkpt>
      <trkpt lat="42.65269" lon="-0.10367">
        <ele>1172</ele>
        <time>2021-06-19T02:08:46Z</time>
      </trkpt>
      <trkpt lat="42.65187" lon="-0.10299">
        <ele>1105</ele>
        <time>2021-06-19T02:09:08Z</time>
      </trkpt>
      <trkpt lat="42.65152" lon="-0.10335">
        <ele>1091</ele>
        <time>2021-06-19T02:09:18Z</time>
      </trkpt>
      <trkpt lat="42.65142" lon="-0.10364">
        <ele>1087</ele>
        <time>2021-06-19T02:09:24Z</time>
      </trkpt>
      <trkpt lat="42.65138" lon="-0.10367">
        <ele>1085</ele>
        <time>2021-06-19T02:09:25Z</time>
      </trkpt>
      <trkpt lat="42.65102" lon="-0.10349">
        <ele>1067</ele>
        <time>2021-06-19T02:09:34Z</time>
      </trkpt>
      <trkpt lat="42.65101" lon="-0.10382">
        <ele>1066</ele>
        <time>2021-06-19T02:09:40Z</time>
      </trkpt>
      <trkpt lat="42.65082" lon="-0.10386">
        <ele>1056</ele>
        <time>2021-06-19T02:09:44Z</time>
      </trkpt>
      <trkpt lat="42.65069" lon="-0.10393">
        <ele>1053</ele>
        <time>2021-06-19T02:09:47Z</time>
      </trkpt>
      <trkpt lat="42.6504" lon="-0.10399">
        <ele>1046</ele>
        <time>2021-06-19T02:09:54Z</time>
      </trkpt>
      <trkpt lat="42.64971" lon="-0.10391">
        <ele>1038</ele>
        <time>2021-06-19T02:10:10Z</time>
      </trkpt>
      <trkpt lat="42.64939" lon="-0.1039">
        <ele>1036</ele>
        <time>2021-06-19T02:10:18Z</time>
      </trkpt>
      <trkpt lat="42.64908" lon="-0.10394">
        <ele>1033</ele>
        <time>2021-06-19T02:10:25Z</time>
      </trkpt>
      <trkpt lat="42.64865" lon="-0.1039">
        <ele>1031</ele>
        <time>2021-06-19T02:10:35Z</time>
      </trkpt>
      <trkpt lat="42.64824" lon="-0.10392">
        <ele>1028</ele>
        <time>2021-06-19T02:10:45Z</time>
      </trkpt>
      <trkpt lat="42.6477" lon="-0.10396">
        <ele>1023</ele>
        <time>2021-06-19T02:10:57Z</time>
      </trkpt>
      <trkpt lat="42.64749" lon="-0.104">
        <ele>1021</ele>
        <time>2021-06-19T02:11:02Z</time>
      </trkpt>
      <trkpt lat="42.64674" lon="-0.10396">
        <ele>1027</ele>
        <time>2021-06-19T02:11:20Z</time>
      </trkpt>
      <trkpt lat="42.64637" lon="-0.10414">
        <ele>1023</ele>
        <time>2021-06-19T02:11:29Z</time>
      </trkpt>
      <trkpt lat="42.64608" lon="-0.10422">
        <ele>1022</ele>
        <time>2021-06-19T02:11:36Z</time>
      </trkpt>
      <trkpt lat="42.64579" lon="-0.10446">
        <ele>1020</ele>
        <time>2021-06-19T02:11:44Z</time>
      </trkpt>
      <trkpt lat="42.64549" lon="-0.10465">
        <ele>1020</ele>
        <time>2021-06-19T02:11:52Z</time>
      </trkpt>
      <trkpt lat="42.64529" lon="-0.1046">
        <ele>1022</ele>
        <time>2021-06-19T02:11:56Z</time>
      </trkpt>
      <trkpt lat="42.64481" lon="-0.10455">
        <ele>1025</ele>
        <time>2021-06-19T02:12:08Z</time>
      </trkpt>
      <trkpt lat="42.6445" lon="-0.10462">
        <ele>1025</ele>
        <time>2021-06-19T02:12:15Z</time>
      </trkpt>
      <trkpt lat="42.64434" lon="-0.10468">
        <ele>1024</ele>
        <time>2021-06-19T02:12:19Z</time>
      </trkpt>
      <trkpt lat="42.64398" lon="-0.1047">
        <ele>1023</ele>
        <time>2021-06-19T02:12:27Z</time>
      </trkpt>
      <trkpt lat="42.6437" lon="-0.10461">
        <ele>1023</ele>
        <time>2021-06-19T02:12:34Z</time>
      </trkpt>
      <trkpt lat="42.64354" lon="-0.10463">
        <ele>1022</ele>
        <time>2021-06-19T02:12:38Z</time>
      </trkpt>
      <trkpt lat="42.64339" lon="-0.10468">
        <ele>1021</ele>
        <time>2021-06-19T02:12:41Z</time>
      </trkpt>
      <trkpt lat="42.64265" lon="-0.10519">
        <ele>1013</ele>
        <time>2021-06-19T02:13:01Z</time>
      </trkpt>
      <trkpt lat="42.64258" lon="-0.10521">
        <ele>1013</ele>
        <time>2021-06-19T02:13:02Z</time>
      </trkpt>
      <trkpt lat="42.64241" lon="-0.10515">
        <ele>1012</ele>
        <time>2021-06-19T02:13:06Z</time>
      </trkpt>
      <trkpt lat="42.64207" lon="-0.10524">
        <ele>1008</ele>
        <time>2021-06-19T02:13:15Z</time>
      </trkpt>
      <trkpt lat="42.64164" lon="-0.1052">
        <ele>1005</ele>
        <time>2021-06-19T02:13:25Z</time>
      </trkpt>
      <trkpt lat="42.64138" lon="-0.10498">
        <ele>1006</ele>
        <time>2021-06-19T02:13:32Z</time>
      </trkpt>
      <trkpt lat="42.64096" lon="-0.10499">
        <ele>1003</ele>
        <time>2021-06-19T02:13:42Z</time>
      </trkpt>
      <trkpt lat="42.64064" lon="-0.1049">
        <ele>1003</ele>
        <time>2021-06-19T02:13:49Z</time>
      </trkpt>
      <trkpt lat="42.64039" lon="-0.10474">
        <ele>1003</ele>
        <time>2021-06-19T02:13:56Z</time>
      </trkpt>
      <trkpt lat="42.63987" lon="-0.10452">
        <ele>1004</ele>
        <time>2021-06-19T02:14:08Z</time>
      </trkpt>
      <trkpt lat="42.63977" lon="-0.10451">
        <ele>1004</ele>
        <time>2021-06-19T02:14:11Z</time>
      </trkpt>
      <trkpt lat="42.63963" lon="-0.10462">
        <ele>1003</ele>
        <time>2021-06-19T02:14:15Z</time>
      </trkpt>
      <trkpt lat="42.63943" lon="-0.10489">
        <ele>999</ele>
        <time>2021-06-19T02:14:21Z</time>
      </trkpt>
      <trkpt lat="42.6393" lon="-0.10497">
        <ele>997</ele>
        <time>2021-06-19T02:14:24Z</time>
      </trkpt>
      <trkpt lat="42.63913" lon="-0.10523">
        <ele>993</ele>
        <time>2021-06-19T02:14:30Z</time>
      </trkpt>
      <trkpt lat="42.63903" lon="-0.10533">
        <ele>992</ele>
        <time>2021-06-19T02:14:33Z</time>
      </trkpt>
      <trkpt lat="42.63896" lon="-0.10536">
        <ele>991</ele>
        <time>2021-06-19T02:14:35Z</time>
      </trkpt>
      <trkpt lat="42.63912" lon="-0.1051">
        <ele>995</ele>
        <time>2021-06-19T02:14:41Z</time>
      </trkpt>
      <trkpt lat="42.63914" lon="-0.10498">
        <ele>996</ele>
        <time>2021-06-19T02:14:43Z</time>
      </trkpt>
      <trkpt lat="42.63911" lon="-0.10495">
        <ele>997</ele>
        <time>2021-06-19T02:14:44Z</time>
      </trkpt>
      <trkpt lat="42.63899" lon="-0.10492">
        <ele>998</ele>
        <time>2021-06-19T02:14:47Z</time>
      </trkpt>
      <trkpt lat="42.63886" lon="-0.10474">
        <ele>1001</ele>
        <time>2021-06-19T02:14:51Z</time>
      </trkpt>
      <trkpt lat="42.63875" lon="-0.10447">
        <ele>1007</ele>
        <time>2021-06-19T02:14:56Z</time>
      </trkpt>
      <trkpt lat="42.63876" lon="-0.10434">
        <ele>1009</ele>
        <time>2021-06-19T02:14:59Z</time>
      </trkpt>
      <trkpt lat="42.63884" lon="-0.10415">
        <ele>1013</ele>
        <time>2021-06-19T02:15:02Z</time>
      </trkpt>
      <trkpt lat="42.63901" lon="-0.1039">
        <ele>1019</ele>
        <time>2021-06-19T02:15:08Z</time>
      </trkpt>
      <trkpt lat="42.6393" lon="-0.10367">
        <ele>1023</ele>
        <time>2021-06-19T02:15:16Z</time>
      </trkpt>
      <trkpt lat="42.63933" lon="-0.10361">
        <ele>1024</ele>
        <time>2021-06-19T02:15:17Z</time>
      </trkpt>
      <trkpt lat="42.63927" lon="-0.10341">
        <ele>1029</ele>
        <time>2021-06-19T02:15:21Z</time>
      </trkpt>
      <trkpt lat="42.63917" lon="-0.10336">
        <ele>1030</ele>
        <time>2021-06-19T02:15:23Z</time>
      </trkpt>
      <trkpt lat="42.63902" lon="-0.1032">
        <ele>1036</ele>
        <time>2021-06-19T02:15:28Z</time>
      </trkpt>
      <trkpt lat="42.63897" lon="-0.10321">
        <ele>1036</ele>
        <time>2021-06-19T02:15:29Z</time>
      </trkpt>
      <trkpt lat="42.63888" lon="-0.10341">
        <ele>1030</ele>
        <time>2021-06-19T02:15:33Z</time>
      </trkpt>
      <trkpt lat="42.63881" lon="-0.10347">
        <ele>1029</ele>
        <time>2021-06-19T02:15:35Z</time>
      </trkpt>
      <trkpt lat="42.63871" lon="-0.10347">
        <ele>1029</ele>
        <time>2021-06-19T02:15:37Z</time>
      </trkpt>
      <trkpt lat="42.63858" lon="-0.10338">
        <ele>1032</ele>
        <time>2021-06-19T02:15:41Z</time>
      </trkpt>
      <trkpt lat="42.63838" lon="-0.10319">
        <ele>1038</ele>
        <time>2021-06-19T02:15:46Z</time>
      </trkpt>
      <trkpt lat="42.63785" lon="-0.10305">
        <ele>1044</ele>
        <time>2021-06-19T02:15:59Z</time>
      </trkpt>
      <trkpt lat="42.63775" lon="-0.10285">
        <ele>1051</ele>
        <time>2021-06-19T02:16:03Z</time>
      </trkpt>
      <trkpt lat="42.63768" lon="-0.10283">
        <ele>1052</ele>
        <time>2021-06-19T02:16:05Z</time>
      </trkpt>
      <trkpt lat="42.63748" lon="-0.10284">
        <ele>1052</ele>
        <time>2021-06-19T02:16:10Z</time>
      </trkpt>
      <trkpt lat="42.63708" lon="-0.10265">
        <ele>1058</ele>
        <time>2021-06-19T02:16:19Z</time>
      </trkpt>
      <trkpt lat="42.63677" lon="-0.10257">
        <ele>1061</ele>
        <time>2021-06-19T02:16:27Z</time>
      </trkpt>
      <trkpt lat="42.63632" lon="-0.10238">
        <ele>1071</ele>
        <time>2021-06-19T02:16:38Z</time>
      </trkpt>
      <trkpt lat="42.63617" lon="-0.10229">
        <ele>1076</ele>
        <time>2021-06-19T02:16:42Z</time>
      </trkpt>
      <trkpt lat="42.63598" lon="-0.10226">
        <ele>1077</ele>
        <time>2021-06-19T02:16:46Z</time>
      </trkpt>
      <trkpt lat="42.6355" lon="-0.10229">
        <ele>1076</ele>
        <time>2021-06-19T02:16:57Z</time>
      </trkpt>
      <trkpt lat="42.63529" lon="-0.10225">
        <ele>1078</ele>
        <time>2021-06-19T02:17:02Z</time>
      </trkpt>
      <trkpt lat="42.63501" lon="-0.10207">
        <ele>1086</ele>
        <time>2021-06-19T02:17:10Z</time>
      </trkpt>
      <trkpt lat="42.63475" lon="-0.10181">
        <ele>1094</ele>
        <time>2021-06-19T02:17:17Z</time>
      </trkpt>
      <trkpt lat="42.6346" lon="-0.1016">
        <ele>1102</ele>
        <time>2021-06-19T02:17:22Z</time>
      </trkpt>
      <trkpt lat="42.63425" lon="-0.10133">
        <ele>1110</ele>
        <time>2021-06-19T02:17:32Z</time>
      </trkpt>
      <trkpt lat="42.63386" lon="-0.10129">
        <ele>1108</ele>
        <time>2021-06-19T02:17:41Z</time>
      </trkpt>
      <trkpt lat="42.6335" lon="-0.10113">
        <ele>1111</ele>
        <time>2021-06-19T02:17:50Z</time>
      </trkpt>
      <trkpt lat="42.63324" lon="-0.10096">
        <ele>1118</ele>
        <time>2021-06-19T02:17:56Z</time>
      </trkpt>
      <trkpt lat="42.63284" lon="-0.10045">
        <ele>1147</ele>
        <time>2021-06-19T02:18:09Z</time>
      </trkpt>
      <trkpt lat="42.63272" lon="-0.10047">
        <ele>1146</ele>
        <time>2021-06-19T02:18:12Z</time>
      </trkpt>
      <trkpt lat="42.63233" lon="-0.10095">
        <ele>1130</ele>
        <time>2021-06-19T02:18:24Z</time>
      </trkpt>
      <trkpt lat="42.63217" lon="-0.10104">
        <ele>1128</ele>
        <time>2021-06-19T02:18:28Z</time>
      </trkpt>
      <trkpt lat="42.63196" lon="-0.10109">
        <ele>1128</ele>
        <time>2021-06-19T02:18:33Z</time>
      </trkpt>
      <trkpt lat="42.63174" lon="-0.10105">
        <ele>1132</ele>
        <time>2021-06-19T02:18:38Z</time>
      </trkpt>
      <trkpt lat="42.63154" lon="-0.10096">
        <ele>1134</ele>
        <time>2021-06-19T02:18:43Z</time>
      </trkpt>
      <trkpt lat="42.63118" lon="-0.10059">
        <ele>1145</ele>
        <time>2021-06-19T02:18:54Z</time>
      </trkpt>
      <trkpt lat="42.63104" lon="-0.10041">
        <ele>1150</ele>
        <time>2021-06-19T02:18:58Z</time>
      </trkpt>
      <trkpt lat="42.63082" lon="-0.1">
        <ele>1163</ele>
        <time>2021-06-19T02:19:07Z</time>
      </trkpt>
      <trkpt lat="42.63045" lon="-0.09963">
        <ele>1175</ele>
        <time>2021-06-19T02:19:18Z</time>
      </trkpt>
      <trkpt lat="42.63003" lon="-0.09911">
        <ele>1188</ele>
        <time>2021-06-19T02:19:31Z</time>
      </trkpt>
      <trkpt lat="42.62995" lon="-0.09897">
        <ele>1193</ele>
        <time>2021-06-19T02:19:34Z</time>
      </trkpt>
      <trkpt lat="42.62976" lon="-0.0988">
        <ele>1199</ele>
        <time>2021-06-19T02:19:39Z</time>
      </trkpt>
      <trkpt lat="42.62956" lon="-0.09875">
        <ele>1199</ele>
        <time>2021-06-19T02:19:44Z</time>
      </trkpt>
      <trkpt lat="42.62938" lon="-0.09874">
        <ele>1198</ele>
        <time>2021-06-19T02:19:48Z</time>
      </trkpt>
      <trkpt lat="42.62912" lon="-0.09865">
        <ele>1199</ele>
        <time>2021-06-19T02:19:55Z</time>
      </trkpt>
      <trkpt lat="42.62934" lon="-0.09854">
        <ele>1206</ele>
        <time>2021-06-19T02:20:00Z</time>
      </trkpt>
      <trkpt lat="42.62943" lon="-0.09844">
        <ele>1211</ele>
        <time>2021-06-19T02:20:03Z</time>
      </trkpt>
      <trkpt lat="42.62918" lon="-0.09827">
        <ele>1215</ele>
        <time>2021-06-19T02:20:09Z</time>
      </trkpt>
      <trkpt lat="42.62897" lon="-0.09806">
        <ele>1217</ele>
        <time>2021-06-19T02:20:15Z</time>
      </trkpt>
      <trkpt lat="42.62893" lon="-0.09797">
        <ele>1219</ele>
        <time>2021-06-19T02:20:17Z</time>
      </trkpt>
      <trkpt lat="42.62896" lon="-0.09782">
        <ele>1226</ele>
        <time>2021-06-19T02:20:20Z</time>
      </trkpt>
      <trkpt lat="42.62895" lon="-0.09759">
        <ele>1235</ele>
        <time>2021-06-19T02:20:24Z</time>
      </trkpt>
      <trkpt lat="42.629" lon="-0.09759">
        <ele>1236</ele>
        <time>2021-06-19T02:20:25Z</time>
      </trkpt>
      <trkpt lat="42.62903" lon="-0.09762">
        <ele>1236</ele>
        <time>2021-06-19T02:20:26Z</time>
      </trkpt>
      <trkpt lat="42.6293" lon="-0.09771">
        <ele>1239</ele>
        <time>2021-06-19T02:20:32Z</time>
      </trkpt>
      <trkpt lat="42.62948" lon="-0.09767">
        <ele>1245</ele>
        <time>2021-06-19T02:20:37Z</time>
      </trkpt>
      <trkpt lat="42.6295" lon="-0.09763">
        <ele>1247</ele>
        <time>2021-06-19T02:20:37Z</time>
      </trkpt>
      <trkpt lat="42.62947" lon="-0.09758">
        <ele>1248</ele>
        <time>2021-06-19T02:20:39Z</time>
      </trkpt>
      <trkpt lat="42.62938" lon="-0.09754">
        <ele>1248</ele>
        <time>2021-06-19T02:20:41Z</time>
      </trkpt>
      <trkpt lat="42.6295" lon="-0.09745">
        <ele>1255</ele>
        <time>2021-06-19T02:20:44Z</time>
      </trkpt>
      <trkpt lat="42.62985" lon="-0.09763">
        <ele>1255</ele>
        <time>2021-06-19T02:20:53Z</time>
      </trkpt>
      <trkpt lat="42.63048" lon="-0.0976">
        <ele>1271</ele>
        <time>2021-06-19T02:21:07Z</time>
      </trkpt>
      <trkpt lat="42.63133" lon="-0.09792">
        <ele>1272</ele>
        <time>2021-06-19T02:21:28Z</time>
      </trkpt>
      <trkpt lat="42.63153" lon="-0.09793">
        <ele>1275</ele>
        <time>2021-06-19T02:21:33Z</time>
      </trkpt>
      <trkpt lat="42.63182" lon="-0.09783">
        <ele>1282</ele>
        <time>2021-06-19T02:21:40Z</time>
      </trkpt>
      <trkpt lat="42.63187" lon="-0.09773">
        <ele>1288</ele>
        <time>2021-06-19T02:21:42Z</time>
      </trkpt>
      <trkpt lat="42.63182" lon="-0.09765">
        <ele>1292</ele>
        <time>2021-06-19T02:21:44Z</time>
      </trkpt>
      <trkpt lat="42.63155" lon="-0.09767">
        <ele>1289</ele>
        <time>2021-06-19T02:21:50Z</time>
      </trkpt>
      <trkpt lat="42.63127" lon="-0.09748">
        <ele>1293</ele>
        <time>2021-06-19T02:21:57Z</time>
      </trkpt>
      <trkpt lat="42.63092" lon="-0.09707">
        <ele>1307</ele>
        <time>2021-06-19T02:22:08Z</time>
      </trkpt>
      <trkpt lat="42.63079" lon="-0.09682">
        <ele>1316</ele>
        <time>2021-06-19T02:22:13Z</time>
      </trkpt>
      <trkpt lat="42.63049" lon="-0.09654">
        <ele>1322</ele>
        <time>2021-06-19T02:22:22Z</time>
      </trkpt>
      <trkpt lat="42.63024" lon="-0.09621">
        <ele>1331</ele>
        <time>2021-06-19T02:22:30Z</time>
      </trkpt>
      <trkpt lat="42.62965" lon="-0.09598">
        <ele>1325</ele>
        <time>2021-06-19T02:22:44Z</time>
      </trkpt>
      <trkpt lat="42.62947" lon="-0.09574">
        <ele>1331</ele>
        <time>2021-06-19T02:22:50Z</time>
      </trkpt>
      <trkpt lat="42.62927" lon="-0.09568">
        <ele>1328</ele>
        <time>2021-06-19T02:22:55Z</time>
      </trkpt>
      <trkpt lat="42.62904" lon="-0.09538">
        <ele>1331</ele>
        <time>2021-06-19T02:23:02Z</time>
      </trkpt>
      <trkpt lat="42.62883" lon="-0.09485">
        <ele>1338</ele>
        <time>2021-06-19T02:23:13Z</time>
      </trkpt>
      <trkpt lat="42.62877" lon="-0.09464">
        <ele>1341</ele>
        <time>2021-06-19T02:23:17Z</time>
      </trkpt>
      <trkpt lat="42.62876" lon="-0.09389">
        <ele>1360</ele>
        <time>2021-06-19T02:23:29Z</time>
      </trkpt>
      <trkpt lat="42.62869" lon="-0.09351">
        <ele>1364</ele>
        <time>2021-06-19T02:23:36Z</time>
      </trkpt>
      <trkpt lat="42.62852" lon="-0.093">
        <ele>1366</ele>
        <time>2021-06-19T02:23:46Z</time>
      </trkpt>
      <trkpt lat="42.62848" lon="-0.0927">
        <ele>1372</ele>
        <time>2021-06-19T02:23:51Z</time>
      </trkpt>
      <trkpt lat="42.6284" lon="-0.09252">
        <ele>1371</ele>
        <time>2021-06-19T02:23:55Z</time>
      </trkpt>
      <trkpt lat="42.62829" lon="-0.09202">
        <ele>1379</ele>
        <time>2021-06-19T02:24:04Z</time>
      </trkpt>
      <trkpt lat="42.62809" lon="-0.09131">
        <ele>1391</ele>
        <time>2021-06-19T02:24:17Z</time>
      </trkpt>
      <trkpt lat="42.62783" lon="-0.09078">
        <ele>1401</ele>
        <time>2021-06-19T02:24:28Z</time>
      </trkpt>
      <trkpt lat="42.62766" lon="-0.09067">
        <ele>1400</ele>
        <time>2021-06-19T02:24:32Z</time>
      </trkpt>
      <trkpt lat="42.62744" lon="-0.09062">
        <ele>1398</ele>
        <time>2021-06-19T02:24:37Z</time>
      </trkpt>
      <trkpt lat="42.62725" lon="-0.09069">
        <ele>1394</ele>
        <time>2021-06-19T02:24:42Z</time>
      </trkpt>
      <trkpt lat="42.62703" lon="-0.09061">
        <ele>1398</ele>
        <time>2021-06-19T02:24:47Z</time>
      </trkpt>
      <trkpt lat="42.62683" lon="-0.09044">
        <ele>1407</ele>
        <time>2021-06-19T02:24:53Z</time>
      </trkpt>
      <trkpt lat="42.62651" lon="-0.09047">
        <ele>1406</ele>
        <time>2021-06-19T02:25:00Z</time>
      </trkpt>
      <trkpt lat="42.62624" lon="-0.09057">
        <ele>1404</ele>
        <time>2021-06-19T02:25:07Z</time>
      </trkpt>
      <trkpt lat="42.62602" lon="-0.0904">
        <ele>1411</ele>
        <time>2021-06-19T02:25:13Z</time>
      </trkpt>
      <trkpt lat="42.62589" lon="-0.09037">
        <ele>1413</ele>
        <time>2021-06-19T02:25:16Z</time>
      </trkpt>
      <trkpt lat="42.62583" lon="-0.09032">
        <ele>1415</ele>
        <time>2021-06-19T02:25:17Z</time>
      </trkpt>
      <trkpt lat="42.62575" lon="-0.08953">
        <ele>1432</ele>
        <time>2021-06-19T02:25:31Z</time>
      </trkpt>
      <trkpt lat="42.62581" lon="-0.08906">
        <ele>1435</ele>
        <time>2021-06-19T02:25:39Z</time>
      </trkpt>
      <trkpt lat="42.62575" lon="-0.08871">
        <ele>1439</ele>
        <time>2021-06-19T02:25:45Z</time>
      </trkpt>
      <trkpt lat="42.62586" lon="-0.08839">
        <ele>1440</ele>
        <time>2021-06-19T02:25:51Z</time>
      </trkpt>
      <trkpt lat="42.62602" lon="-0.08831">
        <ele>1444</ele>
        <time>2021-06-19T02:25:55Z</time>
      </trkpt>
      <trkpt lat="42.62609" lon="-0.08832">
        <ele>1446</ele>
        <time>2021-06-19T02:25:57Z</time>
      </trkpt>
      <trkpt lat="42.62628" lon="-0.08826">
        <ele>1450</ele>
        <time>2021-06-19T02:26:02Z</time>
      </trkpt>
      <trkpt lat="42.62652" lon="-0.08829">
        <ele>1455</ele>
        <time>2021-06-19T02:26:07Z</time>
      </trkpt>
      <trkpt lat="42.62669" lon="-0.08821">
        <ele>1458</ele>
        <time>2021-06-19T02:26:11Z</time>
      </trkpt>
      <trkpt lat="42.62687" lon="-0.08831">
        <ele>1458</ele>
        <time>2021-06-19T02:26:16Z</time>
      </trkpt>
      <trkpt lat="42.62701" lon="-0.08848">
        <ele>1458</ele>
        <time>2021-06-19T02:26:20Z</time>
      </trkpt>
      <trkpt lat="42.62723" lon="-0.08856">
        <ele>1458</ele>
        <time>2021-06-19T02:26:26Z</time>
      </trkpt>
      <trkpt lat="42.62756" lon="-0.08886">
        <ele>1457</ele>
        <time>2021-06-19T02:26:35Z</time>
      </trkpt>
      <trkpt lat="42.62765" lon="-0.08908">
        <ele>1457</ele>
        <time>2021-06-19T02:26:39Z</time>
      </trkpt>
      <trkpt lat="42.628" lon="-0.08961">
        <ele>1446</ele>
        <time>2021-06-19T02:26:52Z</time>
      </trkpt>
      <trkpt lat="42.62834" lon="-0.08982">
        <ele>1444</ele>
        <time>2021-06-19T02:27:00Z</time>
      </trkpt>
      <trkpt lat="42.62892" lon="-0.09064">
        <ele>1445</ele>
        <time>2021-06-19T02:27:20Z</time>
      </trkpt>
      <trkpt lat="42.62923" lon="-0.09086">
        <ele>1454</ele>
        <time>2021-06-19T02:27:28Z</time>
      </trkpt>
      <trkpt lat="42.62959" lon="-0.09099">
        <ele>1460</ele>
        <time>2021-06-19T02:27:37Z</time>
      </trkpt>
      <trkpt lat="42.62976" lon="-0.09127">
        <ele>1465</ele>
        <time>2021-06-19T02:27:43Z</time>
      </trkpt>
      <trkpt lat="42.62987" lon="-0.09137">
        <ele>1470</ele>
        <time>2021-06-19T02:27:46Z</time>
      </trkpt>
      <trkpt lat="42.62998" lon="-0.09138">
        <ele>1474</ele>
        <time>2021-06-19T02:27:49Z</time>
      </trkpt>
      <trkpt lat="42.63009" lon="-0.09133">
        <ele>1479</ele>
        <time>2021-06-19T02:27:51Z</time>
      </trkpt>
      <trkpt lat="42.63018" lon="-0.09123">
        <ele>1483</ele>
        <time>2021-06-19T02:27:54Z</time>
      </trkpt>
      <trkpt lat="42.63032" lon="-0.09091">
        <ele>1486</ele>
        <time>2021-06-19T02:28:00Z</time>
      </trkpt>
      <trkpt lat="42.63076" lon="-0.09024">
        <ele>1495</ele>
        <time>2021-06-19T02:28:16Z</time>
      </trkpt>
      <trkpt lat="42.63109" lon="-0.08941">
        <ele>1505</ele>
        <time>2021-06-19T02:28:32Z</time>
      </trkpt>
      <trkpt lat="42.63135" lon="-0.08896">
        <ele>1514</ele>
        <time>2021-06-19T02:28:42Z</time>
      </trkpt>
      <trkpt lat="42.63143" lon="-0.08888">
        <ele>1516</ele>
        <time>2021-06-19T02:28:44Z</time>
      </trkpt>
      <trkpt lat="42.63195" lon="-0.08781">
        <ele>1516</ele>
        <time>2021-06-19T02:29:06Z</time>
      </trkpt>
      <trkpt lat="42.63213" lon="-0.08773">
        <ele>1521</ele>
        <time>2021-06-19T02:29:11Z</time>
      </trkpt>
      <trkpt lat="42.63264" lon="-0.08725">
        <ele>1536</ele>
        <time>2021-06-19T02:29:25Z</time>
      </trkpt>
      <trkpt lat="42.63272" lon="-0.08705">
        <ele>1540</ele>
        <time>2021-06-19T02:29:29Z</time>
      </trkpt>
      <trkpt lat="42.63276" lon="-0.08673">
        <ele>1542</ele>
        <time>2021-06-19T02:29:35Z</time>
      </trkpt>
      <trkpt lat="42.63273" lon="-0.08658">
        <ele>1543</ele>
        <time>2021-06-19T02:29:37Z</time>
      </trkpt>
      <trkpt lat="42.63231" lon="-0.08631">
        <ele>1537</ele>
        <time>2021-06-19T02:29:48Z</time>
      </trkpt>
      <trkpt lat="42.63206" lon="-0.08602">
        <ele>1541</ele>
        <time>2021-06-19T02:29:56Z</time>
      </trkpt>
      <trkpt lat="42.63073" lon="-0.08543">
        <ele>1550</ele>
        <time>2021-06-19T02:30:29Z</time>
      </trkpt>
      <trkpt lat="42.63036" lon="-0.08522">
        <ele>1561</ele>
        <time>2021-06-19T02:30:38Z</time>
      </trkpt>
      <trkpt lat="42.62991" lon="-0.0853">
        <ele>1561</ele>
        <time>2021-06-19T02:30:48Z</time>
      </trkpt>
      <trkpt lat="42.6289" lon="-0.08569">
        <ele>1555</ele>
        <time>2021-06-19T02:31:13Z</time>
      </trkpt>
      <trkpt lat="42.62885" lon="-0.08557">
        <ele>1560</ele>
        <time>2021-06-19T02:31:15Z</time>
      </trkpt>
      <trkpt lat="42.62926" lon="-0.08532">
        <ele>1574</ele>
        <time>2021-06-19T02:31:26Z</time>
      </trkpt>
      <trkpt lat="42.62963" lon="-0.08516">
        <ele>1574</ele>
        <time>2021-06-19T02:31:35Z</time>
      </trkpt>
      <trkpt lat="42.63011" lon="-0.08469">
        <ele>1592</ele>
        <time>2021-06-19T02:31:49Z</time>
      </trkpt>
      <trkpt lat="42.63035" lon="-0.08467">
        <ele>1592</ele>
        <time>2021-06-19T02:31:54Z</time>
      </trkpt>
      <trkpt lat="42.63124" lon="-0.08479">
        <ele>1589</ele>
        <time>2021-06-19T02:32:15Z</time>
      </trkpt>
      <trkpt lat="42.63153" lon="-0.08491">
        <ele>1589</ele>
        <time>2021-06-19T02:32:22Z</time>
      </trkpt>
      <trkpt lat="42.63167" lon="-0.0849">
        <ele>1592</ele>
        <time>2021-06-19T02:32:26Z</time>
      </trkpt>
      <trkpt lat="42.63179" lon="-0.08476">
        <ele>1600</ele>
        <time>2021-06-19T02:32:29Z</time>
      </trkpt>
      <trkpt lat="42.63187" lon="-0.08479">
        <ele>1600</ele>
        <time>2021-06-19T02:32:31Z</time>
      </trkpt>
      <trkpt lat="42.63211" lon="-0.08503">
        <ele>1593</ele>
        <time>2021-06-19T02:32:38Z</time>
      </trkpt>
      <trkpt lat="42.63234" lon="-0.0852">
        <ele>1588</ele>
        <time>2021-06-19T02:32:44Z</time>
      </trkpt>
      <trkpt lat="42.63246" lon="-0.08526">
        <ele>1588</ele>
        <time>2021-06-19T02:32:47Z</time>
      </trkpt>
      <trkpt lat="42.63262" lon="-0.08525">
        <ele>1589</ele>
        <time>2021-06-19T02:32:51Z</time>
      </trkpt>
      <trkpt lat="42.63283" lon="-0.08503">
        <ele>1597</ele>
        <time>2021-06-19T02:32:57Z</time>
      </trkpt>
      <trkpt lat="42.63305" lon="-0.08472">
        <ele>1607</ele>
        <time>2021-06-19T02:33:05Z</time>
      </trkpt>
      <trkpt lat="42.63377" lon="-0.08405">
        <ele>1619</ele>
        <time>2021-06-19T02:33:25Z</time>
      </trkpt>
      <trkpt lat="42.63396" lon="-0.08384">
        <ele>1620</ele>
        <time>2021-06-19T02:33:31Z</time>
      </trkpt>
      <trkpt lat="42.63453" lon="-0.08277">
        <ele>1642</ele>
        <time>2021-06-19T02:33:53Z</time>
      </trkpt>
      <trkpt lat="42.63469" lon="-0.08258">
        <ele>1642</ele>
        <time>2021-06-19T02:33:58Z</time>
      </trkpt>
      <trkpt lat="42.63485" lon="-0.08217">
        <ele>1646</ele>
        <time>2021-06-19T02:34:06Z</time>
      </trkpt>
      <trkpt lat="42.63493" lon="-0.08209">
        <ele>1645</ele>
        <time>2021-06-19T02:34:09Z</time>
      </trkpt>
      <trkpt lat="42.63501" lon="-0.08211">
        <ele>1642</ele>
        <time>2021-06-19T02:34:11Z</time>
      </trkpt>
      <trkpt lat="42.63508" lon="-0.08215">
        <ele>1645</ele>
        <time>2021-06-19T02:34:12Z</time>
      </trkpt>
      <trkpt lat="42.63513" lon="-0.08225">
        <ele>1645</ele>
        <time>2021-06-19T02:34:14Z</time>
      </trkpt>
      <trkpt lat="42.63522" lon="-0.08311">
        <ele>1642</ele>
        <time>2021-06-19T02:34:29Z</time>
      </trkpt>
      <trkpt lat="42.63517" lon="-0.0842">
        <ele>1644</ele>
        <time>2021-06-19T02:34:48Z</time>
      </trkpt>
      <trkpt lat="42.63524" lon="-0.08449">
        <ele>1652</ele>
        <time>2021-06-19T02:34:53Z</time>
      </trkpt>
      <trkpt lat="42.63524" lon="-0.08458">
        <ele>1653</ele>
        <time>2021-06-19T02:34:55Z</time>
      </trkpt>
      <trkpt lat="42.6352" lon="-0.08469">
        <ele>1653</ele>
        <time>2021-06-19T02:34:57Z</time>
      </trkpt>
      <trkpt lat="42.63495" lon="-0.08502">
        <ele>1646</ele>
        <time>2021-06-19T02:35:05Z</time>
      </trkpt>
      <trkpt lat="42.63477" lon="-0.08553">
        <ele>1648</ele>
        <time>2021-06-19T02:35:15Z</time>
      </trkpt>
      <trkpt lat="42.63462" lon="-0.08616">
        <ele>1651</ele>
        <time>2021-06-19T02:35:26Z</time>
      </trkpt>
      <trkpt lat="42.63458" lon="-0.0865">
        <ele>1655</ele>
        <time>2021-06-19T02:35:32Z</time>
      </trkpt>
      <trkpt lat="42.63465" lon="-0.08712">
        <ele>1666</ele>
        <time>2021-06-19T02:35:43Z</time>
      </trkpt>
      <trkpt lat="42.63465" lon="-0.08729">
        <ele>1667</ele>
        <time>2021-06-19T02:35:46Z</time>
      </trkpt>
      <trkpt lat="42.63455" lon="-0.08767">
        <ele>1664</ele>
        <time>2021-06-19T02:35:53Z</time>
      </trkpt>
      <trkpt lat="42.63448" lon="-0.08824">
        <ele>1670</ele>
        <time>2021-06-19T02:36:03Z</time>
      </trkpt>
      <trkpt lat="42.63441" lon="-0.08849">
        <ele>1674</ele>
        <time>2021-06-19T02:36:07Z</time>
      </trkpt>
      <trkpt lat="42.63433" lon="-0.08868">
        <ele>1675</ele>
        <time>2021-06-19T02:36:11Z</time>
      </trkpt>
      <trkpt lat="42.63407" lon="-0.08901">
        <ele>1671</ele>
        <time>2021-06-19T02:36:19Z</time>
      </trkpt>
      <trkpt lat="42.63394" lon="-0.08924">
        <ele>1670</ele>
        <time>2021-06-19T02:36:24Z</time>
      </trkpt>
      <trkpt lat="42.6339" lon="-0.08936">
        <ele>1671</ele>
        <time>2021-06-19T02:36:27Z</time>
      </trkpt>
      <trkpt lat="42.63387" lon="-0.09003">
        <ele>1685</ele>
        <time>2021-06-19T02:36:38Z</time>
      </trkpt>
      <trkpt lat="42.63379" lon="-0.09028">
        <ele>1682</ele>
        <time>2021-06-19T02:36:43Z</time>
      </trkpt>
      <trkpt lat="42.63358" lon="-0.09058">
        <ele>1675</ele>
        <time>2021-06-19T02:36:50Z</time>
      </trkpt>
      <trkpt lat="42.63334" lon="-0.0908">
        <ele>1670</ele>
        <time>2021-06-19T02:36:57Z</time>
      </trkpt>
      <trkpt lat="42.63329" lon="-0.09088">
        <ele>1667</ele>
        <time>2021-06-19T02:36:59Z</time>
      </trkpt>
      <trkpt lat="42.63329" lon="-0.09098">
        <ele>1664</ele>
        <time>2021-06-19T02:37:00Z</time>
      </trkpt>
      <trkpt lat="42.63334" lon="-0.09104">
        <ele>1665</ele>
        <time>2021-06-19T02:37:02Z</time>
      </trkpt>
      <trkpt lat="42.63353" lon="-0.09101">
        <ele>1671</ele>
        <time>2021-06-19T02:37:06Z</time>
      </trkpt>
      <trkpt lat="42.63395" lon="-0.0905">
        <ele>1690</ele>
        <time>2021-06-19T02:37:19Z</time>
      </trkpt>
      <trkpt lat="42.63418" lon="-0.09001">
        <ele>1704</ele>
        <time>2021-06-19T02:37:29Z</time>
      </trkpt>
      <trkpt lat="42.63426" lon="-0.08968">
        <ele>1700</ele>
        <time>2021-06-19T02:37:35Z</time>
      </trkpt>
      <trkpt lat="42.6344" lon="-0.08941">
        <ele>1702</ele>
        <time>2021-06-19T02:37:41Z</time>
      </trkpt>
      <trkpt lat="42.63459" lon="-0.08925">
        <ele>1711</ele>
        <time>2021-06-19T02:37:46Z</time>
      </trkpt>
      <trkpt lat="42.63476" lon="-0.08905">
        <ele>1716</ele>
        <time>2021-06-19T02:37:52Z</time>
      </trkpt>
      <trkpt lat="42.63497" lon="-0.08873">
        <ele>1718</ele>
        <time>2021-06-19T02:37:59Z</time>
      </trkpt>
      <trkpt lat="42.63526" lon="-0.08817">
        <ele>1720</ele>
        <time>2021-06-19T02:38:11Z</time>
      </trkpt>
      <trkpt lat="42.6354" lon="-0.08796">
        <ele>1727</ele>
        <time>2021-06-19T02:38:16Z</time>
      </trkpt>
      <trkpt lat="42.6355" lon="-0.08765">
        <ele>1729</ele>
        <time>2021-06-19T02:38:21Z</time>
      </trkpt>
      <trkpt lat="42.63557" lon="-0.08751">
        <ele>1731</ele>
        <time>2021-06-19T02:38:24Z</time>
      </trkpt>
      <trkpt lat="42.63557" lon="-0.08727">
        <ele>1729</ele>
        <time>2021-06-19T02:38:28Z</time>
      </trkpt>
      <trkpt lat="42.63562" lon="-0.08693">
        <ele>1728</ele>
        <time>2021-06-19T02:38:34Z</time>
      </trkpt>
      <trkpt lat="42.63576" lon="-0.08664">
        <ele>1732</ele>
        <time>2021-06-19T02:38:40Z</time>
      </trkpt>
      <trkpt lat="42.63604" lon="-0.08629">
        <ele>1736</ele>
        <time>2021-06-19T02:38:49Z</time>
      </trkpt>
      <trkpt lat="42.63673" lon="-0.08575">
        <ele>1751</ele>
        <time>2021-06-19T02:39:08Z</time>
      </trkpt>
      <trkpt lat="42.63682" lon="-0.08552">
        <ele>1754</ele>
        <time>2021-06-19T02:39:12Z</time>
      </trkpt>
      <trkpt lat="42.63681" lon="-0.08535">
        <ele>1752</ele>
        <time>2021-06-19T02:39:15Z</time>
      </trkpt>
      <trkpt lat="42.63689" lon="-0.08469">
        <ele>1754</ele>
        <time>2021-06-19T02:39:27Z</time>
      </trkpt>
      <trkpt lat="42.63687" lon="-0.08444">
        <ele>1753</ele>
        <time>2021-06-19T02:39:31Z</time>
      </trkpt>
      <trkpt lat="42.63706" lon="-0.08322">
        <ele>1758</ele>
        <time>2021-06-19T02:39:52Z</time>
      </trkpt>
      <trkpt lat="42.6372" lon="-0.08286">
        <ele>1767</ele>
        <time>2021-06-19T02:39:59Z</time>
      </trkpt>
      <trkpt lat="42.6371" lon="-0.08234">
        <ele>1762</ele>
        <time>2021-06-19T02:40:09Z</time>
      </trkpt>
      <trkpt lat="42.63707" lon="-0.082">
        <ele>1764</ele>
        <time>2021-06-19T02:40:14Z</time>
      </trkpt>
      <trkpt lat="42.63701" lon="-0.08176">
        <ele>1763</ele>
        <time>2021-06-19T02:40:19Z</time>
      </trkpt>
      <trkpt lat="42.63704" lon="-0.08153">
        <ele>1765</ele>
        <time>2021-06-19T02:40:23Z</time>
      </trkpt>
      <trkpt lat="42.63713" lon="-0.08129">
        <ele>1768</ele>
        <time>2021-06-19T02:40:27Z</time>
      </trkpt>
      <trkpt lat="42.63717" lon="-0.08107">
        <ele>1769</ele>
        <time>2021-06-19T02:40:31Z</time>
      </trkpt>
      <trkpt lat="42.63727" lon="-0.08076">
        <ele>1773</ele>
        <time>2021-06-19T02:40:37Z</time>
      </trkpt>
      <trkpt lat="42.63739" lon="-0.0805">
        <ele>1779</ele>
        <time>2021-06-19T02:40:42Z</time>
      </trkpt>
      <trkpt lat="42.63765" lon="-0.08008">
        <ele>1789</ele>
        <time>2021-06-19T02:40:52Z</time>
      </trkpt>
      <trkpt lat="42.63771" lon="-0.07981">
        <ele>1793</ele>
        <time>2021-06-19T02:40:57Z</time>
      </trkpt>
      <trkpt lat="42.63756" lon="-0.07948">
        <ele>1790</ele>
        <time>2021-06-19T02:41:03Z</time>
      </trkpt>
      <trkpt lat="42.6374" lon="-0.0788">
        <ele>1792</ele>
        <time>2021-06-19T02:41:16Z</time>
      </trkpt>
      <trkpt lat="42.63722" lon="-0.07845">
        <ele>1791</ele>
        <time>2021-06-19T02:41:23Z</time>
      </trkpt>
      <trkpt lat="42.63714" lon="-0.07814">
        <ele>1792</ele>
        <time>2021-06-19T02:41:29Z</time>
      </trkpt>
      <trkpt lat="42.63722" lon="-0.07799">
        <ele>1795</ele>
        <time>2021-06-19T02:41:32Z</time>
      </trkpt>
      <trkpt lat="42.63735" lon="-0.07795">
        <ele>1799</ele>
        <time>2021-06-19T02:41:35Z</time>
      </trkpt>
      <trkpt lat="42.63746" lon="-0.07799">
        <ele>1802</ele>
        <time>2021-06-19T02:41:38Z</time>
      </trkpt>
      <trkpt lat="42.63756" lon="-0.07811">
        <ele>1804</ele>
        <time>2021-06-19T02:41:41Z</time>
      </trkpt>
      <trkpt lat="42.63773" lon="-0.07845">
        <ele>1807</ele>
        <time>2021-06-19T02:41:48Z</time>
      </trkpt>
      <trkpt lat="42.63811" lon="-0.0794">
        <ele>1814</ele>
        <time>2021-06-19T02:42:06Z</time>
      </trkpt>
      <trkpt lat="42.6382" lon="-0.07971">
        <ele>1815</ele>
        <time>2021-06-19T02:42:12Z</time>
      </trkpt>
      <trkpt lat="42.63823" lon="-0.07996">
        <ele>1815</ele>
        <time>2021-06-19T02:42:16Z</time>
      </trkpt>
      <trkpt lat="42.63823" lon="-0.08069">
        <ele>1818</ele>
        <time>2021-06-19T02:42:29Z</time>
      </trkpt>
      <trkpt lat="42.63833" lon="-0.08147">
        <ele>1821</ele>
        <time>2021-06-19T02:42:43Z</time>
      </trkpt>
      <trkpt lat="42.63843" lon="-0.0816">
        <ele>1825</ele>
        <time>2021-06-19T02:42:46Z</time>
      </trkpt>
      <trkpt lat="42.63853" lon="-0.08182">
        <ele>1830</ele>
        <time>2021-06-19T02:42:50Z</time>
      </trkpt>
      <trkpt lat="42.6386" lon="-0.08211">
        <ele>1835</ele>
        <time>2021-06-19T02:42:56Z</time>
      </trkpt>
      <trkpt lat="42.63855" lon="-0.08247">
        <ele>1833</ele>
        <time>2021-06-19T02:43:02Z</time>
      </trkpt>
      <trkpt lat="42.63845" lon="-0.08285">
        <ele>1832</ele>
        <time>2021-06-19T02:43:09Z</time>
      </trkpt>
      <trkpt lat="42.63837" lon="-0.08353">
        <ele>1835</ele>
        <time>2021-06-19T02:43:21Z</time>
      </trkpt>
      <trkpt lat="42.63823" lon="-0.08429">
        <ele>1836</ele>
        <time>2021-06-19T02:43:34Z</time>
      </trkpt>
      <trkpt lat="42.63833" lon="-0.0856">
        <ele>1852</ele>
        <time>2021-06-19T02:43:57Z</time>
      </trkpt>
      <trkpt lat="42.63828" lon="-0.08658">
        <ele>1856</ele>
        <time>2021-06-19T02:44:14Z</time>
      </trkpt>
      <trkpt lat="42.63829" lon="-0.08675">
        <ele>1855</ele>
        <time>2021-06-19T02:44:16Z</time>
      </trkpt>
      <trkpt lat="42.63836" lon="-0.08687">
        <ele>1855</ele>
        <time>2021-06-19T02:44:19Z</time>
      </trkpt>
      <trkpt lat="42.63869" lon="-0.0871">
        <ele>1858</ele>
        <time>2021-06-19T02:44:28Z</time>
      </trkpt>
      <trkpt lat="42.63937" lon="-0.0874">
        <ele>1859</ele>
        <time>2021-06-19T02:44:44Z</time>
      </trkpt>
      <trkpt lat="42.63958" lon="-0.08741">
        <ele>1858</ele>
        <time>2021-06-19T02:44:49Z</time>
      </trkpt>
      <trkpt lat="42.63979" lon="-0.08732">
        <ele>1860</ele>
        <time>2021-06-19T02:44:54Z</time>
      </trkpt>
      <trkpt lat="42.64006" lon="-0.08703">
        <ele>1866</ele>
        <time>2021-06-19T02:45:03Z</time>
      </trkpt>
      <trkpt lat="42.6403" lon="-0.08668">
        <ele>1867</ele>
        <time>2021-06-19T02:45:11Z</time>
      </trkpt>
      <trkpt lat="42.64049" lon="-0.08613">
        <ele>1873</ele>
        <time>2021-06-19T02:45:21Z</time>
      </trkpt>
      <trkpt lat="42.64071" lon="-0.08384">
        <ele>1899</ele>
        <time>2021-06-19T02:46:01Z</time>
      </trkpt>
      <trkpt lat="42.64087" lon="-0.08334">
        <ele>1905</ele>
        <time>2021-06-19T02:46:10Z</time>
      </trkpt>
      <trkpt lat="42.64128" lon="-0.08277">
        <ele>1908</ele>
        <time>2021-06-19T02:46:24Z</time>
      </trkpt>
      <trkpt lat="42.64226" lon="-0.0811">
        <ele>1927</ele>
        <time>2021-06-19T02:47:01Z</time>
      </trkpt>
      <trkpt lat="42.64227" lon="-0.08096">
        <ele>1931</ele>
        <time>2021-06-19T02:47:03Z</time>
      </trkpt>
      <trkpt lat="42.6422" lon="-0.08086">
        <ele>1934</ele>
        <time>2021-06-19T02:47:05Z</time>
      </trkpt>
      <trkpt lat="42.6421" lon="-0.08089">
        <ele>1935</ele>
        <time>2021-06-19T02:47:08Z</time>
      </trkpt>
      <trkpt lat="42.64177" lon="-0.08135">
        <ele>1930</ele>
        <time>2021-06-19T02:47:19Z</time>
      </trkpt>
      <trkpt lat="42.64141" lon="-0.0816">
        <ele>1930</ele>
        <time>2021-06-19T02:47:28Z</time>
      </trkpt>
      <trkpt lat="42.64089" lon="-0.08182">
        <ele>1933</ele>
        <time>2021-06-19T02:47:41Z</time>
      </trkpt>
      <trkpt lat="42.64068" lon="-0.08187">
        <ele>1928</ele>
        <time>2021-06-19T02:47:46Z</time>
      </trkpt>
      <trkpt lat="42.64058" lon="-0.08175">
        <ele>1926</ele>
        <time>2021-06-19T02:47:49Z</time>
      </trkpt>
      <trkpt lat="42.64061" lon="-0.08154">
        <ele>1930</ele>
        <time>2021-06-19T02:47:53Z</time>
      </trkpt>
      <trkpt lat="42.64077" lon="-0.08145">
        <ele>1938</ele>
        <time>2021-06-19T02:47:57Z</time>
      </trkpt>
      <trkpt lat="42.64094" lon="-0.08144">
        <ele>1940</ele>
        <time>2021-06-19T02:48:01Z</time>
      </trkpt>
      <trkpt lat="42.64109" lon="-0.08138">
        <ele>1939</ele>
        <time>2021-06-19T02:48:04Z</time>
      </trkpt>
      <trkpt lat="42.64125" lon="-0.08119">
        <ele>1941</ele>
        <time>2021-06-19T02:48:09Z</time>
      </trkpt>
      <trkpt lat="42.64149" lon="-0.08062">
        <ele>1950</ele>
        <time>2021-06-19T02:48:21Z</time>
      </trkpt>
      <trkpt lat="42.64167" lon="-0.07986">
        <ele>1967</ele>
        <time>2021-06-19T02:48:34Z</time>
      </trkpt>
      <trkpt lat="42.64198" lon="-0.07939">
        <ele>1973</ele>
        <time>2021-06-19T02:48:45Z</time>
      </trkpt>
      <trkpt lat="42.64231" lon="-0.07903">
        <ele>1977</ele>
        <time>2021-06-19T02:48:55Z</time>
      </trkpt>
      <trkpt lat="42.64277" lon="-0.07866">
        <ele>1984</ele>
        <time>2021-06-19T02:49:08Z</time>
      </trkpt>
      <trkpt lat="42.64307" lon="-0.07855">
        <ele>1987</ele>
        <time>2021-06-19T02:49:15Z</time>
      </trkpt>
      <trkpt lat="42.6433" lon="-0.07865">
        <ele>1985</ele>
        <time>2021-06-19T02:49:21Z</time>
      </trkpt>
      <trkpt lat="42.6435" lon="-0.07878">
        <ele>1988</ele>
        <time>2021-06-19T02:49:26Z</time>
      </trkpt>
      <trkpt lat="42.64363" lon="-0.0789">
        <ele>1990</ele>
        <time>2021-06-19T02:49:29Z</time>
      </trkpt>
      <trkpt lat="42.64371" lon="-0.07891">
        <ele>1993</ele>
        <time>2021-06-19T02:49:31Z</time>
      </trkpt>
      <trkpt lat="42.6438" lon="-0.07888">
        <ele>1997</ele>
        <time>2021-06-19T02:49:33Z</time>
      </trkpt>
      <trkpt lat="42.64383" lon="-0.07877">
        <ele>2000</ele>
        <time>2021-06-19T02:49:35Z</time>
      </trkpt>
      <trkpt lat="42.64381" lon="-0.07869">
        <ele>2001</ele>
        <time>2021-06-19T02:49:37Z</time>
      </trkpt>
      <trkpt lat="42.64335" lon="-0.07798">
        <ele>1998</ele>
        <time>2021-06-19T02:49:53Z</time>
      </trkpt>
      <trkpt lat="42.64305" lon="-0.07778">
        <ele>2002</ele>
        <time>2021-06-19T02:50:01Z</time>
      </trkpt>
      <trkpt lat="42.64275" lon="-0.0777">
        <ele>2004</ele>
        <time>2021-06-19T02:50:08Z</time>
      </trkpt>
      <trkpt lat="42.64256" lon="-0.07757">
        <ele>2007</ele>
        <time>2021-06-19T02:50:13Z</time>
      </trkpt>
      <trkpt lat="42.64232" lon="-0.07756">
        <ele>2006</ele>
        <time>2021-06-19T02:50:19Z</time>
      </trkpt>
      <trkpt lat="42.64211" lon="-0.07767">
        <ele>2004</ele>
        <time>2021-06-19T02:50:24Z</time>
      </trkpt>
      <trkpt lat="42.64194" lon="-0.0776">
        <ele>2004</ele>
        <time>2021-06-19T02:50:28Z</time>
      </trkpt>
      <trkpt lat="42.64188" lon="-0.07745">
        <ele>2006</ele>
        <time>2021-06-19T02:50:31Z</time>
      </trkpt>
      <trkpt lat="42.64206" lon="-0.07703">
        <ele>2012</ele>
        <time>2021-06-19T02:50:39Z</time>
      </trkpt>
      <trkpt lat="42.64221" lon="-0.07653">
        <ele>2018</ele>
        <time>2021-06-19T02:50:49Z</time>
      </trkpt>
      <trkpt lat="42.64232" lon="-0.07604">
        <ele>2022</ele>
        <time>2021-06-19T02:50:57Z</time>
      </trkpt>
      <trkpt lat="42.64217" lon="-0.07374">
        <ele>2034</ele>
        <time>2021-06-19T02:51:37Z</time>
      </trkpt>
      <trkpt lat="42.64205" lon="-0.07295">
        <ele>2043</ele>
        <time>2021-06-19T02:51:51Z</time>
      </trkpt>
      <trkpt lat="42.64168" lon="-0.0712">
        <ele>2064</ele>
        <time>2021-06-19T02:52:22Z</time>
      </trkpt>
      <trkpt lat="42.64142" lon="-0.0702">
        <ele>2072</ele>
        <time>2021-06-19T02:52:40Z</time>
      </trkpt>
      <trkpt lat="42.64126" lon="-0.06931">
        <ele>2089</ele>
        <time>2021-06-19T02:52:56Z</time>
      </trkpt>
      <trkpt lat="42.64112" lon="-0.06894">
        <ele>2092</ele>
        <time>2021-06-19T02:53:03Z</time>
      </trkpt>
      <trkpt lat="42.64075" lon="-0.06849">
        <ele>2091</ele>
        <time>2021-06-19T02:53:15Z</time>
      </trkpt>
      <trkpt lat="42.64053" lon="-0.0684">
        <ele>2089</ele>
        <time>2021-06-19T02:53:20Z</time>
      </trkpt>
      <trkpt lat="42.6403" lon="-0.06841">
        <ele>2084</ele>
        <time>2021-06-19T02:53:26Z</time>
      </trkpt>
      <trkpt lat="42.64008" lon="-0.06831">
        <ele>2083</ele>
        <time>2021-06-19T02:53:31Z</time>
      </trkpt>
      <trkpt lat="42.63982" lon="-0.06809">
        <ele>2086</ele>
        <time>2021-06-19T02:53:38Z</time>
      </trkpt>
      <trkpt lat="42.63968" lon="-0.06781">
        <ele>2092</ele>
        <time>2021-06-19T02:53:44Z</time>
      </trkpt>
      <trkpt lat="42.63921" lon="-0.06747">
        <ele>2094</ele>
        <time>2021-06-19T02:53:56Z</time>
      </trkpt>
      <trkpt lat="42.63901" lon="-0.0671">
        <ele>2101</ele>
        <time>2021-06-19T02:54:04Z</time>
      </trkpt>
      <trkpt lat="42.6387" lon="-0.06679">
        <ele>2102</ele>
        <time>2021-06-19T02:54:13Z</time>
      </trkpt>
      <trkpt lat="42.63846" lon="-0.0664">
        <ele>2107</ele>
        <time>2021-06-19T02:54:22Z</time>
      </trkpt>
      <trkpt lat="42.63828" lon="-0.06621">
        <ele>2108</ele>
        <time>2021-06-19T02:54:27Z</time>
      </trkpt>
      <trkpt lat="42.63794" lon="-0.0656">
        <ele>2115</ele>
        <time>2021-06-19T02:54:41Z</time>
      </trkpt>
      <trkpt lat="42.63782" lon="-0.06529">
        <ele>2121</ele>
        <time>2021-06-19T02:54:47Z</time>
      </trkpt>
      <trkpt lat="42.63753" lon="-0.06493">
        <ele>2125</ele>
        <time>2021-06-19T02:54:56Z</time>
      </trkpt>
      <trkpt lat="42.63708" lon="-0.0646">
        <ele>2124</ele>
        <time>2021-06-19T02:55:08Z</time>
      </trkpt>
      <trkpt lat="42.6367" lon="-0.06408">
        <ele>2137</ele>
        <time>2021-06-19T02:55:20Z</time>
      </trkpt>
      <trkpt lat="42.63651" lon="-0.06407">
        <ele>2135</ele>
        <time>2021-06-19T02:55:25Z</time>
      </trkpt>
      <trkpt lat="42.63569" lon="-0.06419">
        <ele>2125</ele>
        <time>2021-06-19T02:55:44Z</time>
      </trkpt>
      <trkpt lat="42.6355" lon="-0.06415">
        <ele>2125</ele>
        <time>2021-06-19T02:55:48Z</time>
      </trkpt>
      <trkpt lat="42.6354" lon="-0.06403">
        <ele>2124</ele>
        <time>2021-06-19T02:55:52Z</time>
      </trkpt>
      <trkpt lat="42.63548" lon="-0.06379">
        <ele>2125</ele>
        <time>2021-06-19T02:55:56Z</time>
      </trkpt>
      <trkpt lat="42.63565" lon="-0.06306">
        <ele>2135</ele>
        <time>2021-06-19T02:56:09Z</time>
      </trkpt>
      <trkpt lat="42.63573" lon="-0.06178">
        <ele>2142</ele>
        <time>2021-06-19T02:56:31Z</time>
      </trkpt>
      <trkpt lat="42.63571" lon="-0.06134">
        <ele>2136</ele>
        <time>2021-06-19T02:56:39Z</time>
      </trkpt>
      <trkpt lat="42.63591" lon="-0.06098">
        <ele>2139</ele>
        <time>2021-06-19T02:56:47Z</time>
      </trkpt>
      <trkpt lat="42.63621" lon="-0.06079">
        <ele>2143</ele>
        <time>2021-06-19T02:56:54Z</time>
      </trkpt>
      <trkpt lat="42.63671" lon="-0.06052">
        <ele>2143</ele>
        <time>2021-06-19T02:57:07Z</time>
      </trkpt>
      <trkpt lat="42.63724" lon="-0.06031">
        <ele>2146</ele>
        <time>2021-06-19T02:57:20Z</time>
      </trkpt>
      <trkpt lat="42.63772" lon="-0.05995">
        <ele>2146</ele>
        <time>2021-06-19T02:57:33Z</time>
      </trkpt>
      <trkpt lat="42.63791" lon="-0.05916">
        <ele>2138</ele>
        <time>2021-06-19T02:57:47Z</time>
      </trkpt>
      <trkpt lat="42.63784" lon="-0.05838">
        <ele>2130</ele>
        <time>2021-06-19T02:58:00Z</time>
      </trkpt>
      <trkpt lat="42.63794" lon="-0.05811">
        <ele>2130</ele>
        <time>2021-06-19T02:58:06Z</time>
      </trkpt>
      <trkpt lat="42.63802" lon="-0.05767">
        <ele>2129</ele>
        <time>2021-06-19T02:58:13Z</time>
      </trkpt>
      <trkpt lat="42.63824" lon="-0.05734">
        <ele>2134</ele>
        <time>2021-06-19T02:58:21Z</time>
      </trkpt>
      <trkpt lat="42.6383" lon="-0.0572">
        <ele>2136</ele>
        <time>2021-06-19T02:58:24Z</time>
      </trkpt>
      <trkpt lat="42.63829" lon="-0.05612">
        <ele>2150</ele>
        <time>2021-06-19T02:58:42Z</time>
      </trkpt>
      <trkpt lat="42.63814" lon="-0.05514">
        <ele>2157</ele>
        <time>2021-06-19T02:59:00Z</time>
      </trkpt>
      <trkpt lat="42.63787" lon="-0.05413">
        <ele>2164</ele>
        <time>2021-06-19T02:59:18Z</time>
      </trkpt>
      <trkpt lat="42.63764" lon="-0.05352">
        <ele>2168</ele>
        <time>2021-06-19T02:59:30Z</time>
      </trkpt>
      <trkpt lat="42.6374" lon="-0.0527">
        <ele>2175</ele>
        <time>2021-06-19T02:59:45Z</time>
      </trkpt>
      <trkpt lat="42.63716" lon="-0.05205">
        <ele>2175</ele>
        <time>2021-06-19T02:59:57Z</time>
      </trkpt>
      <trkpt lat="42.637" lon="-0.05147">
        <ele>2179</ele>
        <time>2021-06-19T03:00:08Z</time>
      </trkpt>
      <trkpt lat="42.63677" lon="-0.05097">
        <ele>2179</ele>
        <time>2021-06-19T03:00:18Z</time>
      </trkpt>
      <trkpt lat="42.6367" lon="-0.05075">
        <ele>2181</ele>
        <time>2021-06-19T03:00:22Z</time>
      </trkpt>
      <trkpt lat="42.63625" lon="-0.04984">
        <ele>2183</ele>
        <time>2021-06-19T03:00:41Z</time>
      </trkpt>
      <trkpt lat="42.63593" lon="-0.04901">
        <ele>2192</ele>
        <time>2021-06-19T03:00:57Z</time>
      </trkpt>
      <trkpt lat="42.63523" lon="-0.04744">
        <ele>2191</ele>
        <time>2021-06-19T03:01:29Z</time>
      </trkpt>
      <trkpt lat="42.63464" lon="-0.04636">
        <ele>2181</ele>
        <time>2021-06-19T03:01:52Z</time>
      </trkpt>
      <trkpt lat="42.63402" lon="-0.04483">
        <ele>2188</ele>
        <time>2021-06-19T03:02:22Z</time>
      </trkpt>
      <trkpt lat="42.6334" lon="-0.0438">
        <ele>2179</ele>
        <time>2021-06-19T03:02:45Z</time>
      </trkpt>
      <trkpt lat="42.633" lon="-0.04298">
        <ele>2173</ele>
        <time>2021-06-19T03:03:02Z</time>
      </trkpt>
      <trkpt lat="42.63254" lon="-0.04195">
        <ele>2166</ele>
        <time>2021-06-19T03:03:22Z</time>
      </trkpt>
      <trkpt lat="42.63232" lon="-0.04113">
        <ele>2159</ele>
        <time>2021-06-19T03:03:37Z</time>
      </trkpt>
      <trkpt lat="42.63228" lon="-0.04062">
        <ele>2156</ele>
        <time>2021-06-19T03:03:46Z</time>
      </trkpt>
      <trkpt lat="42.6322" lon="-0.0403">
        <ele>2152</ele>
        <time>2021-06-19T03:03:52Z</time>
      </trkpt>
      <trkpt lat="42.63233" lon="-0.04003">
        <ele>2153</ele>
        <time>2021-06-19T03:03:58Z</time>
      </trkpt>
      <trkpt lat="42.63235" lon="-0.03994">
        <ele>2154</ele>
        <time>2021-06-19T03:03:59Z</time>
      </trkpt>
      <trkpt lat="42.63222" lon="-0.03947">
        <ele>2152</ele>
        <time>2021-06-19T03:04:08Z</time>
      </trkpt>
      <trkpt lat="42.63195" lon="-0.03871">
        <ele>2146</ele>
        <time>2021-06-19T03:04:22Z</time>
      </trkpt>
      <trkpt lat="42.63185" lon="-0.03829">
        <ele>2145</ele>
        <time>2021-06-19T03:04:30Z</time>
      </trkpt>
      <trkpt lat="42.63182" lon="-0.0377">
        <ele>2149</ele>
        <time>2021-06-19T03:04:40Z</time>
      </trkpt>
      <trkpt lat="42.63176" lon="-0.03744">
        <ele>2149</ele>
        <time>2021-06-19T03:04:45Z</time>
      </trkpt>
      <trkpt lat="42.63151" lon="-0.03676">
        <ele>2143</ele>
        <time>2021-06-19T03:04:58Z</time>
      </trkpt>
      <trkpt lat="42.63135" lon="-0.03603">
        <ele>2146</ele>
        <time>2021-06-19T03:05:11Z</time>
      </trkpt>
      <trkpt lat="42.63128" lon="-0.03544">
        <ele>2145</ele>
        <time>2021-06-19T03:05:21Z</time>
      </trkpt>
      <trkpt lat="42.63114" lon="-0.03485">
        <ele>2140</ele>
        <time>2021-06-19T03:05:32Z</time>
      </trkpt>
      <trkpt lat="42.63084" lon="-0.03397">
        <ele>2137</ele>
        <time>2021-06-19T03:05:48Z</time>
      </trkpt>
      <trkpt lat="42.63018" lon="-0.03314">
        <ele>2137</ele>
        <time>2021-06-19T03:06:09Z</time>
      </trkpt>
      <trkpt lat="42.6298" lon="-0.0327">
        <ele>2137</ele>
        <time>2021-06-19T03:06:21Z</time>
      </trkpt>
      <trkpt lat="42.6295" lon="-0.0324">
        <ele>2135</ele>
        <time>2021-06-19T03:06:30Z</time>
      </trkpt>
      <trkpt lat="42.62932" lon="-0.03209">
        <ele>2133</ele>
        <time>2021-06-19T03:06:37Z</time>
      </trkpt>
      <trkpt lat="42.62916" lon="-0.0317">
        <ele>2133</ele>
        <time>2021-06-19T03:06:44Z</time>
      </trkpt>
      <trkpt lat="42.62908" lon="-0.03118">
        <ele>2133</ele>
        <time>2021-06-19T03:06:53Z</time>
      </trkpt>
      <trkpt lat="42.62908" lon="-0.02916">
        <ele>2132</ele>
        <time>2021-06-19T03:07:28Z</time>
      </trkpt>
      <trkpt lat="42.62904" lon="-0.02861">
        <ele>2131</ele>
        <time>2021-06-19T03:07:38Z</time>
      </trkpt>
      <trkpt lat="42.62902" lon="-0.02768">
        <ele>2127</ele>
        <time>2021-06-19T03:07:54Z</time>
      </trkpt>
      <trkpt lat="42.62904" lon="-0.02749">
        <ele>2126</ele>
        <time>2021-06-19T03:07:57Z</time>
      </trkpt>
      <trkpt lat="42.62899" lon="-0.02695">
        <ele>2127</ele>
        <time>2021-06-19T03:08:06Z</time>
      </trkpt>
      <trkpt lat="42.62891" lon="-0.02632">
        <ele>2131</ele>
        <time>2021-06-19T03:08:17Z</time>
      </trkpt>
      <trkpt lat="42.62873" lon="-0.0254">
        <ele>2138</ele>
        <time>2021-06-19T03:08:34Z</time>
      </trkpt>
      <trkpt lat="42.62837" lon="-0.02388">
        <ele>2148</ele>
        <time>2021-06-19T03:09:01Z</time>
      </trkpt>
      <trkpt lat="42.62775" lon="-0.02237">
        <ele>2155</ele>
        <time>2021-06-19T03:09:31Z</time>
      </trkpt>
      <trkpt lat="42.62752" lon="-0.02165">
        <ele>2160</ele>
        <time>2021-06-19T03:09:44Z</time>
      </trkpt>
      <trkpt lat="42.6273" lon="-0.02122">
        <ele>2163</ele>
        <time>2021-06-19T03:09:53Z</time>
      </trkpt>
      <trkpt lat="42.62705" lon="-0.02085">
        <ele>2164</ele>
        <time>2021-06-19T03:10:02Z</time>
      </trkpt>
      <trkpt lat="42.62666" lon="-0.01987">
        <ele>2168</ele>
        <time>2021-06-19T03:10:21Z</time>
      </trkpt>
      <trkpt lat="42.62644" lon="-0.01889">
        <ele>2172</ele>
        <time>2021-06-19T03:10:39Z</time>
      </trkpt>
      <trkpt lat="42.62639" lon="-0.01836">
        <ele>2173</ele>
        <time>2021-06-19T03:10:48Z</time>
      </trkpt>
      <trkpt lat="42.62646" lon="-0.0179">
        <ele>2177</ele>
        <time>2021-06-19T03:10:56Z</time>
      </trkpt>
      <trkpt lat="42.62645" lon="-0.01771">
        <ele>2177</ele>
        <time>2021-06-19T03:10:59Z</time>
      </trkpt>
      <trkpt lat="42.62627" lon="-0.01656">
        <ele>2175</ele>
        <time>2021-06-19T03:11:19Z</time>
      </trkpt>
      <trkpt lat="42.62611" lon="-0.01606">
        <ele>2174</ele>
        <time>2021-06-19T03:11:29Z</time>
      </trkpt>
      <trkpt lat="42.62571" lon="-0.01529">
        <ele>2168</ele>
        <time>2021-06-19T03:11:45Z</time>
      </trkpt>
      <trkpt lat="42.62498" lon="-0.01403">
        <ele>2160</ele>
        <time>2021-06-19T03:12:12Z</time>
      </trkpt>
      <trkpt lat="42.62464" lon="-0.01332">
        <ele>2153</ele>
        <time>2021-06-19T03:12:27Z</time>
      </trkpt>
      <trkpt lat="42.62363" lon="-0.01158">
        <ele>2140</ele>
        <time>2021-06-19T03:13:05Z</time>
      </trkpt>
      <trkpt lat="42.62339" lon="-0.01082">
        <ele>2137</ele>
        <time>2021-06-19T03:13:19Z</time>
      </trkpt>
      <trkpt lat="42.62321" lon="-0.00987">
        <ele>2128</ele>
        <time>2021-06-19T03:13:36Z</time>
      </trkpt>
      <trkpt lat="42.62322" lon="-0.00885">
        <ele>2126</ele>
        <time>2021-06-19T03:13:54Z</time>
      </trkpt>
      <trkpt lat="42.62297" lon="-0.0073">
        <ele>2115</ele>
        <time>2021-06-19T03:14:21Z</time>
      </trkpt>
      <trkpt lat="42.62298" lon="-0.00702">
        <ele>2115</ele>
        <time>2021-06-19T03:14:26Z</time>
      </trkpt>
      <trkpt lat="42.62296" lon="-0.00677">
        <ele>2114</ele>
        <time>2021-06-19T03:14:30Z</time>
      </trkpt>
      <trkpt lat="42.62291" lon="-0.00648">
        <ele>2113</ele>
        <time>2021-06-19T03:14:35Z</time>
      </trkpt>
      <trkpt lat="42.62281" lon="-0.00613">
        <ele>2112</ele>
        <time>2021-06-19T03:14:42Z</time>
      </trkpt>
      <trkpt lat="42.62275" lon="-0.006">
        <ele>2112</ele>
        <time>2021-06-19T03:14:44Z</time>
      </trkpt>
      <trkpt lat="42.62263" lon="-0.0059">
        <ele>2109</ele>
        <time>2021-06-19T03:14:48Z</time>
      </trkpt>
      <trkpt lat="42.62211" lon="-0.00572">
        <ele>2100</ele>
        <time>2021-06-19T03:15:00Z</time>
      </trkpt>
      <trkpt lat="42.62149" lon="-0.00523">
        <ele>2096</ele>
        <time>2021-06-19T03:15:17Z</time>
      </trkpt>
      <trkpt lat="42.62055" lon="-0.00456">
        <ele>2086</ele>
        <time>2021-06-19T03:15:42Z</time>
      </trkpt>
      <trkpt lat="42.62001" lon="-0.00405">
        <ele>2078</ele>
        <time>2021-06-19T03:15:57Z</time>
      </trkpt>
      <trkpt lat="42.61988" lon="-0.0038">
        <ele>2077</ele>
        <time>2021-06-19T03:16:02Z</time>
      </trkpt>
      <trkpt lat="42.61974" lon="-0.00342">
        <ele>2078</ele>
        <time>2021-06-19T03:16:10Z</time>
      </trkpt>
      <trkpt lat="42.61958" lon="-0.00322">
        <ele>2074</ele>
        <time>2021-06-19T03:16:15Z</time>
      </trkpt>
      <trkpt lat="42.61953" lon="-0.00306">
        <ele>2075</ele>
        <time>2021-06-19T03:16:18Z</time>
      </trkpt>
      <trkpt lat="42.6195" lon="-0.00282">
        <ele>2078</ele>
        <time>2021-06-19T03:16:22Z</time>
      </trkpt>
      <trkpt lat="42.61949" lon="-0.00236">
        <ele>2086</ele>
        <time>2021-06-19T03:16:30Z</time>
      </trkpt>
      <trkpt lat="42.61945" lon="-0.00228">
        <ele>2086</ele>
        <time>2021-06-19T03:16:31Z</time>
      </trkpt>
      <trkpt lat="42.61934" lon="-0.00227">
        <ele>2083</ele>
        <time>2021-06-19T03:16:34Z</time>
      </trkpt>
      <trkpt lat="42.61914" lon="-0.00244">
        <ele>2073</ele>
        <time>2021-06-19T03:16:39Z</time>
      </trkpt>
      <trkpt lat="42.61883" lon="-0.00247">
        <ele>2069</ele>
        <time>2021-06-19T03:16:47Z</time>
      </trkpt>
      <trkpt lat="42.61829" lon="-0.0026">
        <ele>2058</ele>
        <time>2021-06-19T03:17:00Z</time>
      </trkpt>
      <trkpt lat="42.61745" lon="-0.00256">
        <ele>2048</ele>
        <time>2021-06-19T03:17:19Z</time>
      </trkpt>
      <trkpt lat="42.61684" lon="-0.00242">
        <ele>2046</ele>
        <time>2021-06-19T03:17:34Z</time>
      </trkpt>
      <trkpt lat="42.61651" lon="-0.00224">
        <ele>2044</ele>
        <time>2021-06-19T03:17:42Z</time>
      </trkpt>
      <trkpt lat="42.61607" lon="-0.00184">
        <ele>2042</ele>
        <time>2021-06-19T03:17:54Z</time>
      </trkpt>
      <trkpt lat="42.61568" lon="-0.00134">
        <ele>2038</ele>
        <time>2021-06-19T03:18:07Z</time>
      </trkpt>
      <trkpt lat="42.61534" lon="-0.00062">
        <ele>2038</ele>
        <time>2021-06-19T03:18:22Z</time>
      </trkpt>
      <trkpt lat="42.61381" lon="0.00157">
        <ele>2018</ele>
        <time>2021-06-19T03:19:13Z</time>
      </trkpt>
      <trkpt lat="42.61317" lon="0.00214">
        <ele>2010</ele>
        <time>2021-06-19T03:19:31Z</time>
      </trkpt>
      <trkpt lat="42.61238" lon="0.00293">
        <ele>2002</ele>
        <time>2021-06-19T03:19:54Z</time>
      </trkpt>
      <trkpt lat="42.61158" lon="0.00384">
        <ele>1994</ele>
        <time>2021-06-19T03:20:19Z</time>
      </trkpt>
      <trkpt lat="42.61132" lon="0.00422">
        <ele>1995</ele>
        <time>2021-06-19T03:20:27Z</time>
      </trkpt>
      <trkpt lat="42.61107" lon="0.00488">
        <ele>1991</ele>
        <time>2021-06-19T03:20:40Z</time>
      </trkpt>
      <trkpt lat="42.61087" lon="0.00549">
        <ele>1987</ele>
        <time>2021-06-19T03:20:52Z</time>
      </trkpt>
      <trkpt lat="42.61069" lon="0.0062">
        <ele>1977</ele>
        <time>2021-06-19T03:21:05Z</time>
      </trkpt>
      <trkpt lat="42.61053" lon="0.0065">
        <ele>1974</ele>
        <time>2021-06-19T03:21:11Z</time>
      </trkpt>
      <trkpt lat="42.60997" lon="0.00717">
        <ele>1974</ele>
        <time>2021-06-19T03:21:28Z</time>
      </trkpt>
      <trkpt lat="42.60982" lon="0.00758">
        <ele>1969</ele>
        <time>2021-06-19T03:21:36Z</time>
      </trkpt>
      <trkpt lat="42.60969" lon="0.00812">
        <ele>1964</ele>
        <time>2021-06-19T03:21:46Z</time>
      </trkpt>
      <trkpt lat="42.60964" lon="0.00861">
        <ele>1961</ele>
        <time>2021-06-19T03:21:55Z</time>
      </trkpt>
      <trkpt lat="42.60966" lon="0.00941">
        <ele>1953</ele>
        <time>2021-06-19T03:22:08Z</time>
      </trkpt>
      <trkpt lat="42.60971" lon="0.01008">
        <ele>1944</ele>
        <time>2021-06-19T03:22:20Z</time>
      </trkpt>
      <trkpt lat="42.60957" lon="0.01078">
        <ele>1944</ele>
        <time>2021-06-19T03:22:32Z</time>
      </trkpt>
      <trkpt lat="42.60936" lon="0.01122">
        <ele>1942</ele>
        <time>2021-06-19T03:22:41Z</time>
      </trkpt>
      <trkpt lat="42.60892" lon="0.01167">
        <ele>1938</ele>
        <time>2021-06-19T03:22:54Z</time>
      </trkpt>
      <trkpt lat="42.60857" lon="0.01192">
        <ele>1933</ele>
        <time>2021-06-19T03:23:03Z</time>
      </trkpt>
      <trkpt lat="42.60801" lon="0.01208">
        <ele>1929</ele>
        <time>2021-06-19T03:23:17Z</time>
      </trkpt>
      <trkpt lat="42.60764" lon="0.01211">
        <ele>1925</ele>
        <time>2021-06-19T03:23:25Z</time>
      </trkpt>
      <trkpt lat="42.60739" lon="0.01203">
        <ele>1924</ele>
        <time>2021-06-19T03:23:31Z</time>
      </trkpt>
      <trkpt lat="42.60708" lon="0.01176">
        <ele>1923</ele>
        <time>2021-06-19T03:23:40Z</time>
      </trkpt>
      <trkpt lat="42.60678" lon="0.01143">
        <ele>1922</ele>
        <time>2021-06-19T03:23:49Z</time>
      </trkpt>
      <trkpt lat="42.60656" lon="0.01127">
        <ele>1923</ele>
        <time>2021-06-19T03:23:55Z</time>
      </trkpt>
      <trkpt lat="42.60634" lon="0.01129">
        <ele>1925</ele>
        <time>2021-06-19T03:24:00Z</time>
      </trkpt>
      <trkpt lat="42.60624" lon="0.01145">
        <ele>1924</ele>
        <time>2021-06-19T03:24:04Z</time>
      </trkpt>
      <trkpt lat="42.60619" lon="0.01363">
        <ele>1901</ele>
        <time>2021-06-19T03:24:41Z</time>
      </trkpt>
      <trkpt lat="42.60633" lon="0.01479">
        <ele>1890</ele>
        <time>2021-06-19T03:25:01Z</time>
      </trkpt>
      <trkpt lat="42.60629" lon="0.01496">
        <ele>1888</ele>
        <time>2021-06-19T03:25:04Z</time>
      </trkpt>
      <trkpt lat="42.6062" lon="0.01509">
        <ele>1888</ele>
        <time>2021-06-19T03:25:08Z</time>
      </trkpt>
      <trkpt lat="42.60608" lon="0.01519">
        <ele>1889</ele>
        <time>2021-06-19T03:25:11Z</time>
      </trkpt>
      <trkpt lat="42.60582" lon="0.0152">
        <ele>1889</ele>
        <time>2021-06-19T03:25:17Z</time>
      </trkpt>
      <trkpt lat="42.6057" lon="0.01525">
        <ele>1887</ele>
        <time>2021-06-19T03:25:20Z</time>
      </trkpt>
      <trkpt lat="42.60559" lon="0.01536">
        <ele>1886</ele>
        <time>2021-06-19T03:25:23Z</time>
      </trkpt>
      <trkpt lat="42.60539" lon="0.01549">
        <ele>1883</ele>
        <time>2021-06-19T03:25:28Z</time>
      </trkpt>
      <trkpt lat="42.60532" lon="0.01551">
        <ele>1882</ele>
        <time>2021-06-19T03:25:30Z</time>
      </trkpt>
      <trkpt lat="42.60516" lon="0.01543">
        <ele>1880</ele>
        <time>2021-06-19T03:25:34Z</time>
      </trkpt>
      <trkpt lat="42.60507" lon="0.01534">
        <ele>1880</ele>
        <time>2021-06-19T03:25:36Z</time>
      </trkpt>
      <trkpt lat="42.60495" lon="0.01516">
        <ele>1878</ele>
        <time>2021-06-19T03:25:41Z</time>
      </trkpt>
      <trkpt lat="42.60488" lon="0.01498">
        <ele>1876</ele>
        <time>2021-06-19T03:25:44Z</time>
      </trkpt>
      <trkpt lat="42.60483" lon="0.01478">
        <ele>1875</ele>
        <time>2021-06-19T03:25:48Z</time>
      </trkpt>
      <trkpt lat="42.60481" lon="0.01456">
        <ele>1876</ele>
        <time>2021-06-19T03:25:52Z</time>
      </trkpt>
      <trkpt lat="42.60481" lon="0.01415">
        <ele>1878</ele>
        <time>2021-06-19T03:25:59Z</time>
      </trkpt>
      <trkpt lat="42.60474" lon="0.01394">
        <ele>1876</ele>
        <time>2021-06-19T03:26:03Z</time>
      </trkpt>
      <trkpt lat="42.60359" lon="0.01333">
        <ele>1832</ele>
        <time>2021-06-19T03:26:31Z</time>
      </trkpt>
      <trkpt lat="42.60132" lon="0.0114">
        <ele>1770</ele>
        <time>2021-06-19T03:27:34Z</time>
      </trkpt>
      <trkpt lat="42.60026" lon="0.00951">
        <ele>1760</ele>
        <time>2021-06-19T03:28:15Z</time>
      </trkpt>
      <trkpt lat="42.60025" lon="0.0096">
        <ele>1761</ele>
        <time>2021-06-19T03:28:16Z</time>
      </trkpt>
      <trkpt lat="42.60013" lon="0.0096">
        <ele>1760</ele>
        <time>2021-06-19T03:28:19Z</time>
      </trkpt>
      <trkpt lat="42.60007" lon="0.00922">
        <ele>1755</ele>
        <time>2021-06-19T03:28:26Z</time>
      </trkpt>
      <trkpt lat="42.59991" lon="0.00906">
        <ele>1753</ele>
        <time>2021-06-19T03:28:30Z</time>
      </trkpt>
      <trkpt lat="42.59949" lon="0.00903">
        <ele>1758</ele>
        <time>2021-06-19T03:28:40Z</time>
      </trkpt>
      <trkpt lat="42.59907" lon="0.00877">
        <ele>1752</ele>
        <time>2021-06-19T03:28:51Z</time>
      </trkpt>
      <trkpt lat="42.59854" lon="0.00853">
        <ele>1749</ele>
        <time>2021-06-19T03:29:04Z</time>
      </trkpt>
      <trkpt lat="42.59811" lon="0.00821">
        <ele>1740</ele>
        <time>2021-06-19T03:29:16Z</time>
      </trkpt>
      <trkpt lat="42.59774" lon="0.0079">
        <ele>1733</ele>
        <time>2021-06-19T03:29:26Z</time>
      </trkpt>
      <trkpt lat="42.59723" lon="0.00698">
        <ele>1701</ele>
        <time>2021-06-19T03:29:46Z</time>
      </trkpt>
      <trkpt lat="42.59623" lon="0.00724">
        <ele>1695</ele>
        <time>2021-06-19T03:30:09Z</time>
      </trkpt>
      <trkpt lat="42.59562" lon="0.00759">
        <ele>1683</ele>
        <time>2021-06-19T03:30:25Z</time>
      </trkpt>
      <trkpt lat="42.595" lon="0.00853">
        <ele>1671</ele>
        <time>2021-06-19T03:30:46Z</time>
      </trkpt>
      <trkpt lat="42.59461" lon="0.00986">
        <ele>1664</ele>
        <time>2021-06-19T03:31:11Z</time>
      </trkpt>
      <trkpt lat="42.59471" lon="0.00988">
        <ele>1668</ele>
        <time>2021-06-19T03:31:13Z</time>
      </trkpt>
      <trkpt lat="42.59467" lon="0.01018">
        <ele>1665</ele>
        <time>2021-06-19T03:31:19Z</time>
      </trkpt>
      <trkpt lat="42.59468" lon="0.01034">
        <ele>1664</ele>
        <time>2021-06-19T03:31:21Z</time>
      </trkpt>
      <trkpt lat="42.59462" lon="0.01056">
        <ele>1661</ele>
        <time>2021-06-19T03:31:25Z</time>
      </trkpt>
      <trkpt lat="42.59464" lon="0.01079">
        <ele>1660</ele>
        <time>2021-06-19T03:31:29Z</time>
      </trkpt>
      <trkpt lat="42.59469" lon="0.011">
        <ele>1661</ele>
        <time>2021-06-19T03:31:33Z</time>
      </trkpt>
      <trkpt lat="42.5947" lon="0.01159">
        <ele>1657</ele>
        <time>2021-06-19T03:31:43Z</time>
      </trkpt>
      <trkpt lat="42.59473" lon="0.01183">
        <ele>1657</ele>
        <time>2021-06-19T03:31:48Z</time>
      </trkpt>
      <trkpt lat="42.5947" lon="0.0119">
        <ele>1656</ele>
        <time>2021-06-19T03:31:49Z</time>
      </trkpt>
      <trkpt lat="42.59466" lon="0.01191">
        <ele>1655</ele>
        <time>2021-06-19T03:31:50Z</time>
      </trkpt>
      <trkpt lat="42.59467" lon="0.01219">
        <ele>1655</ele>
        <time>2021-06-19T03:31:55Z</time>
      </trkpt>
      <trkpt lat="42.59465" lon="0.0124">
        <ele>1654</ele>
        <time>2021-06-19T03:31:58Z</time>
      </trkpt>
      <trkpt lat="42.59455" lon="0.01247">
        <ele>1653</ele>
        <time>2021-06-19T03:32:01Z</time>
      </trkpt>
      <trkpt lat="42.59451" lon="0.01245">
        <ele>1652</ele>
        <time>2021-06-19T03:32:02Z</time>
      </trkpt>
      <trkpt lat="42.59448" lon="0.01248">
        <ele>1652</ele>
        <time>2021-06-19T03:32:03Z</time>
      </trkpt>
      <trkpt lat="42.59442" lon="0.01248">
        <ele>1651</ele>
        <time>2021-06-19T03:32:04Z</time>
      </trkpt>
      <trkpt lat="42.59435" lon="0.01255">
        <ele>1651</ele>
        <time>2021-06-19T03:32:06Z</time>
      </trkpt>
      <trkpt lat="42.59429" lon="0.01256">
        <ele>1650</ele>
        <time>2021-06-19T03:32:08Z</time>
      </trkpt>
      <trkpt lat="42.59422" lon="0.01265">
        <ele>1651</ele>
        <time>2021-06-19T03:32:10Z</time>
      </trkpt>
      <trkpt lat="42.59411" lon="0.01268">
        <ele>1651</ele>
        <time>2021-06-19T03:32:13Z</time>
      </trkpt>
      <trkpt lat="42.59405" lon="0.01267">
        <ele>1651</ele>
        <time>2021-06-19T03:32:14Z</time>
      </trkpt>
      <trkpt lat="42.59388" lon="0.01255">
        <ele>1649</ele>
        <time>2021-06-19T03:32:18Z</time>
      </trkpt>
      <trkpt lat="42.59381" lon="0.01253">
        <ele>1649</ele>
        <time>2021-06-19T03:32:20Z</time>
      </trkpt>
      <trkpt lat="42.5937" lon="0.01255">
        <ele>1650</ele>
        <time>2021-06-19T03:32:23Z</time>
      </trkpt>
      <trkpt lat="42.59364" lon="0.01252">
        <ele>1649</ele>
        <time>2021-06-19T03:32:24Z</time>
      </trkpt>
      <trkpt lat="42.59349" lon="0.01233">
        <ele>1646</ele>
        <time>2021-06-19T03:32:29Z</time>
      </trkpt>
      <trkpt lat="42.59334" lon="0.01229">
        <ele>1645</ele>
        <time>2021-06-19T03:32:33Z</time>
      </trkpt>
      <trkpt lat="42.59311" lon="0.01204">
        <ele>1643</ele>
        <time>2021-06-19T03:32:39Z</time>
      </trkpt>
      <trkpt lat="42.59305" lon="0.01208">
        <ele>1644</ele>
        <time>2021-06-19T03:32:41Z</time>
      </trkpt>
      <trkpt lat="42.59283" lon="0.01184">
        <ele>1642</ele>
        <time>2021-06-19T03:32:48Z</time>
      </trkpt>
      <trkpt lat="42.59244" lon="0.01159">
        <ele>1641</ele>
        <time>2021-06-19T03:32:58Z</time>
      </trkpt>
      <trkpt lat="42.59208" lon="0.0113">
        <ele>1634</ele>
        <time>2021-06-19T03:33:07Z</time>
      </trkpt>
      <trkpt lat="42.59198" lon="0.01125">
        <ele>1633</ele>
        <time>2021-06-19T03:33:10Z</time>
      </trkpt>
      <trkpt lat="42.59183" lon="0.01127">
        <ele>1634</ele>
        <time>2021-06-19T03:33:13Z</time>
      </trkpt>
      <trkpt lat="42.59169" lon="0.01123">
        <ele>1634</ele>
        <time>2021-06-19T03:33:17Z</time>
      </trkpt>
      <trkpt lat="42.59155" lon="0.01123">
        <ele>1635</ele>
        <time>2021-06-19T03:33:20Z</time>
      </trkpt>
      <trkpt lat="42.59145" lon="0.01117">
        <ele>1633</ele>
        <time>2021-06-19T03:33:23Z</time>
      </trkpt>
      <trkpt lat="42.5913" lon="0.01118">
        <ele>1634</ele>
        <time>2021-06-19T03:33:26Z</time>
      </trkpt>
      <trkpt lat="42.59064" lon="0.01105">
        <ele>1633</ele>
        <time>2021-06-19T03:33:42Z</time>
      </trkpt>
      <trkpt lat="42.59038" lon="0.01104">
        <ele>1633</ele>
        <time>2021-06-19T03:33:48Z</time>
      </trkpt>
      <trkpt lat="42.59004" lon="0.01097">
        <ele>1633</ele>
        <time>2021-06-19T03:33:56Z</time>
      </trkpt>
      <trkpt lat="42.58986" lon="0.01087">
        <ele>1629</ele>
        <time>2021-06-19T03:34:00Z</time>
      </trkpt>
      <trkpt lat="42.58945" lon="0.01081">
        <ele>1626</ele>
        <time>2021-06-19T03:34:10Z</time>
      </trkpt>
      <trkpt lat="42.58925" lon="0.01086">
        <ele>1626</ele>
        <time>2021-06-19T03:34:15Z</time>
      </trkpt>
      <trkpt lat="42.58906" lon="0.01105">
        <ele>1630</ele>
        <time>2021-06-19T03:34:20Z</time>
      </trkpt>
      <trkpt lat="42.58887" lon="0.01106">
        <ele>1629</ele>
        <time>2021-06-19T03:34:25Z</time>
      </trkpt>
      <trkpt lat="42.58871" lon="0.01101">
        <ele>1626</ele>
        <time>2021-06-19T03:34:29Z</time>
      </trkpt>
      <trkpt lat="42.58858" lon="0.01101">
        <ele>1625</ele>
        <time>2021-06-19T03:34:32Z</time>
      </trkpt>
      <trkpt lat="42.58829" lon="0.01092">
        <ele>1620</ele>
        <time>2021-06-19T03:34:38Z</time>
      </trkpt>
      <trkpt lat="42.58813" lon="0.01098">
        <ele>1616</ele>
        <time>2021-06-19T03:34:42Z</time>
      </trkpt>
      <trkpt lat="42.58807" lon="0.01104">
        <ele>1616</ele>
        <time>2021-06-19T03:34:44Z</time>
      </trkpt>
      <trkpt lat="42.58797" lon="0.01106">
        <ele>1614</ele>
        <time>2021-06-19T03:34:46Z</time>
      </trkpt>
      <trkpt lat="42.58784" lon="0.01122">
        <ele>1613</ele>
        <time>2021-06-19T03:34:51Z</time>
      </trkpt>
      <trkpt lat="42.58777" lon="0.01122">
        <ele>1611</ele>
        <time>2021-06-19T03:34:52Z</time>
      </trkpt>
      <trkpt lat="42.58758" lon="0.01132">
        <ele>1607</ele>
        <time>2021-06-19T03:34:57Z</time>
      </trkpt>
      <trkpt lat="42.58739" lon="0.01136">
        <ele>1602</ele>
        <time>2021-06-19T03:35:01Z</time>
      </trkpt>
      <trkpt lat="42.58715" lon="0.01155">
        <ele>1598</ele>
        <time>2021-06-19T03:35:08Z</time>
      </trkpt>
      <trkpt lat="42.587" lon="0.01159">
        <ele>1595</ele>
        <time>2021-06-19T03:35:12Z</time>
      </trkpt>
      <trkpt lat="42.58674" lon="0.01182">
        <ele>1591</ele>
        <time>2021-06-19T03:35:19Z</time>
      </trkpt>
      <trkpt lat="42.58641" lon="0.01227">
        <ele>1585</ele>
        <time>2021-06-19T03:35:30Z</time>
      </trkpt>
      <trkpt lat="42.58621" lon="0.01249">
        <ele>1581</ele>
        <time>2021-06-19T03:35:36Z</time>
      </trkpt>
      <trkpt lat="42.58609" lon="0.0127">
        <ele>1579</ele>
        <time>2021-06-19T03:35:40Z</time>
      </trkpt>
      <trkpt lat="42.58607" lon="0.01282">
        <ele>1580</ele>
        <time>2021-06-19T03:35:42Z</time>
      </trkpt>
      <trkpt lat="42.58599" lon="0.013">
        <ele>1579</ele>
        <time>2021-06-19T03:35:46Z</time>
      </trkpt>
      <trkpt lat="42.58599" lon="0.0131">
        <ele>1580</ele>
        <time>2021-06-19T03:35:48Z</time>
      </trkpt>
      <trkpt lat="42.58605" lon="0.01324">
        <ele>1584</ele>
        <time>2021-06-19T03:35:50Z</time>
      </trkpt>
      <trkpt lat="42.58601" lon="0.01349">
        <ele>1586</ele>
        <time>2021-06-19T03:35:55Z</time>
      </trkpt>
      <trkpt lat="42.58608" lon="0.01364">
        <ele>1592</ele>
        <time>2021-06-19T03:35:58Z</time>
      </trkpt>
      <trkpt lat="42.58599" lon="0.01371">
        <ele>1590</ele>
        <time>2021-06-19T03:36:00Z</time>
      </trkpt>
      <trkpt lat="42.58557" lon="0.01364">
        <ele>1573</ele>
        <time>2021-06-19T03:36:10Z</time>
      </trkpt>
      <trkpt lat="42.58539" lon="0.01364">
        <ele>1566</ele>
        <time>2021-06-19T03:36:14Z</time>
      </trkpt>
      <trkpt lat="42.58508" lon="0.01377">
        <ele>1558</ele>
        <time>2021-06-19T03:36:22Z</time>
      </trkpt>
      <trkpt lat="42.58486" lon="0.01401">
        <ele>1556</ele>
        <time>2021-06-19T03:36:29Z</time>
      </trkpt>
      <trkpt lat="42.5843" lon="0.01453">
        <ele>1546</ele>
        <time>2021-06-19T03:36:44Z</time>
      </trkpt>
      <trkpt lat="42.58409" lon="0.01482">
        <ele>1542</ele>
        <time>2021-06-19T03:36:51Z</time>
      </trkpt>
      <trkpt lat="42.58394" lon="0.01513">
        <ele>1540</ele>
        <time>2021-06-19T03:36:58Z</time>
      </trkpt>
      <trkpt lat="42.58388" lon="0.0152">
        <ele>1538</ele>
        <time>2021-06-19T03:37:00Z</time>
      </trkpt>
      <trkpt lat="42.58386" lon="0.01525">
        <ele>1538</ele>
        <time>2021-06-19T03:37:01Z</time>
      </trkpt>
      <trkpt lat="42.58387" lon="0.01534">
        <ele>1541</ele>
        <time>2021-06-19T03:37:02Z</time>
      </trkpt>
      <trkpt lat="42.58374" lon="0.01542">
        <ele>1536</ele>
        <time>2021-06-19T03:37:06Z</time>
      </trkpt>
      <trkpt lat="42.58377" lon="0.01551">
        <ele>1539</ele>
        <time>2021-06-19T03:37:07Z</time>
      </trkpt>
      <trkpt lat="42.58359" lon="0.01569">
        <ele>1533</ele>
        <time>2021-06-19T03:37:12Z</time>
      </trkpt>
      <trkpt lat="42.58343" lon="0.01598">
        <ele>1531</ele>
        <time>2021-06-19T03:37:19Z</time>
      </trkpt>
      <trkpt lat="42.58342" lon="0.01607">
        <ele>1532</ele>
        <time>2021-06-19T03:37:20Z</time>
      </trkpt>
      <trkpt lat="42.58334" lon="0.01613">
        <ele>1529</ele>
        <time>2021-06-19T03:37:22Z</time>
      </trkpt>
      <trkpt lat="42.5831" lon="0.01609">
        <ele>1518</ele>
        <time>2021-06-19T03:37:28Z</time>
      </trkpt>
      <trkpt lat="42.58282" lon="0.01617">
        <ele>1507</ele>
        <time>2021-06-19T03:37:35Z</time>
      </trkpt>
      <trkpt lat="42.58259" lon="0.01646">
        <ele>1501</ele>
        <time>2021-06-19T03:37:42Z</time>
      </trkpt>
      <trkpt lat="42.58254" lon="0.01649">
        <ele>1499</ele>
        <time>2021-06-19T03:37:43Z</time>
      </trkpt>
      <trkpt lat="42.5825" lon="0.01659">
        <ele>1498</ele>
        <time>2021-06-19T03:37:45Z</time>
      </trkpt>
      <trkpt lat="42.58241" lon="0.01669">
        <ele>1495</ele>
        <time>2021-06-19T03:37:48Z</time>
      </trkpt>
      <trkpt lat="42.58234" lon="0.01687">
        <ele>1495</ele>
        <time>2021-06-19T03:37:52Z</time>
      </trkpt>
      <trkpt lat="42.58233" lon="0.01705">
        <ele>1498</ele>
        <time>2021-06-19T03:37:55Z</time>
      </trkpt>
      <trkpt lat="42.58236" lon="0.01717">
        <ele>1501</ele>
        <time>2021-06-19T03:37:57Z</time>
      </trkpt>
      <trkpt lat="42.5823" lon="0.01723">
        <ele>1500</ele>
        <time>2021-06-19T03:37:59Z</time>
      </trkpt>
      <trkpt lat="42.58217" lon="0.01726">
        <ele>1494</ele>
        <time>2021-06-19T03:38:02Z</time>
      </trkpt>
      <trkpt lat="42.58199" lon="0.01743">
        <ele>1488</ele>
        <time>2021-06-19T03:38:07Z</time>
      </trkpt>
      <trkpt lat="42.58196" lon="0.01759">
        <ele>1491</ele>
        <time>2021-06-19T03:38:10Z</time>
      </trkpt>
      <trkpt lat="42.582" lon="0.01773">
        <ele>1497</ele>
        <time>2021-06-19T03:38:12Z</time>
      </trkpt>
      <trkpt lat="42.58195" lon="0.0178">
        <ele>1496</ele>
        <time>2021-06-19T03:38:14Z</time>
      </trkpt>
      <trkpt lat="42.58186" lon="0.01786">
        <ele>1494</ele>
        <time>2021-06-19T03:38:16Z</time>
      </trkpt>
      <trkpt lat="42.58152" lon="0.01787">
        <ele>1481</ele>
        <time>2021-06-19T03:38:24Z</time>
      </trkpt>
      <trkpt lat="42.58146" lon="0.01783">
        <ele>1478</ele>
        <time>2021-06-19T03:38:26Z</time>
      </trkpt>
      <trkpt lat="42.5813" lon="0.01781">
        <ele>1472</ele>
        <time>2021-06-19T03:38:29Z</time>
      </trkpt>
      <trkpt lat="42.58116" lon="0.01793">
        <ele>1470</ele>
        <time>2021-06-19T03:38:33Z</time>
      </trkpt>
      <trkpt lat="42.58108" lon="0.01804">
        <ele>1469</ele>
        <time>2021-06-19T03:38:36Z</time>
      </trkpt>
      <trkpt lat="42.58089" lon="0.01839">
        <ele>1468</ele>
        <time>2021-06-19T03:38:43Z</time>
      </trkpt>
      <trkpt lat="42.58088" lon="0.01845">
        <ele>1469</ele>
        <time>2021-06-19T03:38:44Z</time>
      </trkpt>
      <trkpt lat="42.58077" lon="0.01858">
        <ele>1466</ele>
        <time>2021-06-19T03:38:48Z</time>
      </trkpt>
      <trkpt lat="42.58057" lon="0.01868">
        <ele>1458</ele>
        <time>2021-06-19T03:38:53Z</time>
      </trkpt>
      <trkpt lat="42.58055" lon="0.01863">
        <ele>1456</ele>
        <time>2021-06-19T03:38:54Z</time>
      </trkpt>
      <trkpt lat="42.58048" lon="0.01868">
        <ele>1453</ele>
        <time>2021-06-19T03:38:56Z</time>
      </trkpt>
      <trkpt lat="42.58046" lon="0.01866">
        <ele>1452</ele>
        <time>2021-06-19T03:38:56Z</time>
      </trkpt>
      <trkpt lat="42.58047" lon="0.01852">
        <ele>1450</ele>
        <time>2021-06-19T03:38:59Z</time>
      </trkpt>
      <trkpt lat="42.58044" lon="0.01852">
        <ele>1449</ele>
        <time>2021-06-19T03:38:59Z</time>
      </trkpt>
      <trkpt lat="42.58037" lon="0.01859">
        <ele>1446</ele>
        <time>2021-06-19T03:39:01Z</time>
      </trkpt>
      <trkpt lat="42.58037" lon="0.0185">
        <ele>1445</ele>
        <time>2021-06-19T03:39:03Z</time>
      </trkpt>
      <trkpt lat="42.58027" lon="0.01864">
        <ele>1442</ele>
        <time>2021-06-19T03:39:06Z</time>
      </trkpt>
      <trkpt lat="42.58027" lon="0.01879">
        <ele>1445</ele>
        <time>2021-06-19T03:39:09Z</time>
      </trkpt>
      <trkpt lat="42.58025" lon="0.01883">
        <ele>1444</ele>
        <time>2021-06-19T03:39:10Z</time>
      </trkpt>
      <trkpt lat="42.58004" lon="0.01891">
        <ele>1436</ele>
        <time>2021-06-19T03:39:15Z</time>
      </trkpt>
      <trkpt lat="42.57995" lon="0.01902">
        <ele>1433</ele>
        <time>2021-06-19T03:39:18Z</time>
      </trkpt>
      <trkpt lat="42.57988" lon="0.01904">
        <ele>1431</ele>
        <time>2021-06-19T03:39:19Z</time>
      </trkpt>
      <trkpt lat="42.57981" lon="0.01913">
        <ele>1429</ele>
        <time>2021-06-19T03:39:22Z</time>
      </trkpt>
      <trkpt lat="42.57971" lon="0.01899">
        <ele>1422</ele>
        <time>2021-06-19T03:39:25Z</time>
      </trkpt>
      <trkpt lat="42.57959" lon="0.01908">
        <ele>1418</ele>
        <time>2021-06-19T03:39:28Z</time>
      </trkpt>
      <trkpt lat="42.57953" lon="0.01899">
        <ele>1414</ele>
        <time>2021-06-19T03:39:30Z</time>
      </trkpt>
      <trkpt lat="42.57946" lon="0.01907">
        <ele>1412</ele>
        <time>2021-06-19T03:39:32Z</time>
      </trkpt>
      <trkpt lat="42.57938" lon="0.01891">
        <ele>1406</ele>
        <time>2021-06-19T03:39:36Z</time>
      </trkpt>
      <trkpt lat="42.57941" lon="0.01868">
        <ele>1404</ele>
        <time>2021-06-19T03:39:40Z</time>
      </trkpt>
      <trkpt lat="42.57929" lon="0.01863">
        <ele>1397</ele>
        <time>2021-06-19T03:39:43Z</time>
      </trkpt>
      <trkpt lat="42.57939" lon="0.01846">
        <ele>1399</ele>
        <time>2021-06-19T03:39:46Z</time>
      </trkpt>
      <trkpt lat="42.57933" lon="0.01842">
        <ele>1396</ele>
        <time>2021-06-19T03:39:48Z</time>
      </trkpt>
      <trkpt lat="42.57932" lon="0.01834">
        <ele>1394</ele>
        <time>2021-06-19T03:39:49Z</time>
      </trkpt>
      <trkpt lat="42.57917" lon="0.01835">
        <ele>1387</ele>
        <time>2021-06-19T03:39:53Z</time>
      </trkpt>
      <trkpt lat="42.57893" lon="0.01848">
        <ele>1381</ele>
        <time>2021-06-19T03:39:59Z</time>
      </trkpt>
      <trkpt lat="42.57871" lon="0.01877">
        <ele>1376</ele>
        <time>2021-06-19T03:40:06Z</time>
      </trkpt>
      <trkpt lat="42.57866" lon="0.0189">
        <ele>1375</ele>
        <time>2021-06-19T03:40:09Z</time>
      </trkpt>
      <trkpt lat="42.57859" lon="0.01873">
        <ele>1371</ele>
        <time>2021-06-19T03:40:12Z</time>
      </trkpt>
      <trkpt lat="42.57846" lon="0.01857">
        <ele>1365</ele>
        <time>2021-06-19T03:40:16Z</time>
      </trkpt>
      <trkpt lat="42.5784" lon="0.01817">
        <ele>1359</ele>
        <time>2021-06-19T03:40:23Z</time>
      </trkpt>
      <trkpt lat="42.57816" lon="0.01827">
        <ele>1355</ele>
        <time>2021-06-19T03:40:29Z</time>
      </trkpt>
      <trkpt lat="42.5781" lon="0.01798">
        <ele>1349</ele>
        <time>2021-06-19T03:40:34Z</time>
      </trkpt>
      <trkpt lat="42.57768" lon="0.0181">
        <ele>1343</ele>
        <time>2021-06-19T03:40:44Z</time>
      </trkpt>
      <trkpt lat="42.57755" lon="0.01801">
        <ele>1339</ele>
        <time>2021-06-19T03:40:47Z</time>
      </trkpt>
      <trkpt lat="42.57747" lon="0.01767">
        <ele>1333</ele>
        <time>2021-06-19T03:40:54Z</time>
      </trkpt>
      <trkpt lat="42.57725" lon="0.0175">
        <ele>1329</ele>
        <time>2021-06-19T03:41:00Z</time>
      </trkpt>
      <trkpt lat="42.57695" lon="0.0174">
        <ele>1325</ele>
        <time>2021-06-19T03:41:07Z</time>
      </trkpt>
      <trkpt lat="42.57669" lon="0.01735">
        <ele>1323</ele>
        <time>2021-06-19T03:41:13Z</time>
      </trkpt>
      <trkpt lat="42.57654" lon="0.01722">
        <ele>1317</ele>
        <time>2021-06-19T03:41:17Z</time>
      </trkpt>
      <trkpt lat="42.57635" lon="0.01714">
        <ele>1313</ele>
        <time>2021-06-19T03:41:22Z</time>
      </trkpt>
      <trkpt lat="42.57618" lon="0.01722">
        <ele>1313</ele>
        <time>2021-06-19T03:41:26Z</time>
      </trkpt>
      <trkpt lat="42.57589" lon="0.01731">
        <ele>1310</ele>
        <time>2021-06-19T03:41:33Z</time>
      </trkpt>
      <trkpt lat="42.5757" lon="0.01728">
        <ele>1306</ele>
        <time>2021-06-19T03:41:37Z</time>
      </trkpt>
      <trkpt lat="42.57581" lon="0.01811">
        <ele>1306</ele>
        <time>2021-06-19T03:41:52Z</time>
      </trkpt>
      <trkpt lat="42.57579" lon="0.01831">
        <ele>1305</ele>
        <time>2021-06-19T03:41:55Z</time>
      </trkpt>
      <trkpt lat="42.57566" lon="0.01893">
        <ele>1296</ele>
        <time>2021-06-19T03:42:06Z</time>
      </trkpt>
      <trkpt lat="42.57566" lon="0.01921">
        <ele>1294</ele>
        <time>2021-06-19T03:42:11Z</time>
      </trkpt>
      <trkpt lat="42.5757" lon="0.01949">
        <ele>1291</ele>
        <time>2021-06-19T03:42:16Z</time>
      </trkpt>
      <trkpt lat="42.57577" lon="0.01968">
        <ele>1291</ele>
        <time>2021-06-19T03:42:20Z</time>
      </trkpt>
      <trkpt lat="42.57623" lon="0.02048">
        <ele>1292</ele>
        <time>2021-06-19T03:42:37Z</time>
      </trkpt>
      <trkpt lat="42.57624" lon="0.02063">
        <ele>1291</ele>
        <time>2021-06-19T03:42:40Z</time>
      </trkpt>
      <trkpt lat="42.57619" lon="0.02074">
        <ele>1288</ele>
        <time>2021-06-19T03:42:42Z</time>
      </trkpt>
      <trkpt lat="42.57611" lon="0.02079">
        <ele>1286</ele>
        <time>2021-06-19T03:42:44Z</time>
      </trkpt>
      <trkpt lat="42.57598" lon="0.02078">
        <ele>1283</ele>
        <time>2021-06-19T03:42:47Z</time>
      </trkpt>
      <trkpt lat="42.57581" lon="0.02065">
        <ele>1280</ele>
        <time>2021-06-19T03:42:52Z</time>
      </trkpt>
      <trkpt lat="42.57562" lon="0.02041">
        <ele>1277</ele>
        <time>2021-06-19T03:42:58Z</time>
      </trkpt>
      <trkpt lat="42.5755" lon="0.0199">
        <ele>1281</ele>
        <time>2021-06-19T03:43:07Z</time>
      </trkpt>
      <trkpt lat="42.57539" lon="0.01975">
        <ele>1280</ele>
        <time>2021-06-19T03:43:11Z</time>
      </trkpt>
      <trkpt lat="42.57495" lon="0.01973">
        <ele>1270</ele>
        <time>2021-06-19T03:43:21Z</time>
      </trkpt>
      <trkpt lat="42.57507" lon="0.01989">
        <ele>1270</ele>
        <time>2021-06-19T03:43:25Z</time>
      </trkpt>
      <trkpt lat="42.57484" lon="0.02016">
        <ele>1261</ele>
        <time>2021-06-19T03:43:32Z</time>
      </trkpt>
      <trkpt lat="42.57471" lon="0.02043">
        <ele>1251</ele>
        <time>2021-06-19T03:43:37Z</time>
      </trkpt>
      <trkpt lat="42.57453" lon="0.02068">
        <ele>1241</ele>
        <time>2021-06-19T03:43:43Z</time>
      </trkpt>
      <trkpt lat="42.57436" lon="0.02085">
        <ele>1232</ele>
        <time>2021-06-19T03:43:48Z</time>
      </trkpt>
      <trkpt lat="42.57416" lon="0.02118">
        <ele>1220</ele>
        <time>2021-06-19T03:43:56Z</time>
      </trkpt>
      <trkpt lat="42.57423" lon="0.02122">
        <ele>1221</ele>
        <time>2021-06-19T03:43:57Z</time>
      </trkpt>
      <trkpt lat="42.57429" lon="0.02135">
        <ele>1220</ele>
        <time>2021-06-19T03:44:00Z</time>
      </trkpt>
      <trkpt lat="42.57438" lon="0.02164">
        <ele>1217</ele>
        <time>2021-06-19T03:44:06Z</time>
      </trkpt>
      <trkpt lat="42.57437" lon="0.02174">
        <ele>1215</ele>
        <time>2021-06-19T03:44:07Z</time>
      </trkpt>
      <trkpt lat="42.57446" lon="0.02194">
        <ele>1216</ele>
        <time>2021-06-19T03:44:11Z</time>
      </trkpt>
      <trkpt lat="42.57468" lon="0.02207">
        <ele>1223</ele>
        <time>2021-06-19T03:44:17Z</time>
      </trkpt>
      <trkpt lat="42.57462" lon="0.0223">
        <ele>1218</ele>
        <time>2021-06-19T03:44:21Z</time>
      </trkpt>
      <trkpt lat="42.57451" lon="0.0225">
        <ele>1212</ele>
        <time>2021-06-19T03:44:25Z</time>
      </trkpt>
      <trkpt lat="42.57439" lon="0.02314">
        <ele>1207</ele>
        <time>2021-06-19T03:44:37Z</time>
      </trkpt>
      <trkpt lat="42.5743" lon="0.02335">
        <ele>1203</ele>
        <time>2021-06-19T03:44:41Z</time>
      </trkpt>
      <trkpt lat="42.57435" lon="0.02364">
        <ele>1205</ele>
        <time>2021-06-19T03:44:46Z</time>
      </trkpt>
      <trkpt lat="42.57429" lon="0.02402">
        <ele>1202</ele>
        <time>2021-06-19T03:44:53Z</time>
      </trkpt>
      <trkpt lat="42.57423" lon="0.02425">
        <ele>1199</ele>
        <time>2021-06-19T03:44:57Z</time>
      </trkpt>
      <trkpt lat="42.57406" lon="0.0247">
        <ele>1195</ele>
        <time>2021-06-19T03:45:06Z</time>
      </trkpt>
      <trkpt lat="42.57374" lon="0.02531">
        <ele>1186</ele>
        <time>2021-06-19T03:45:19Z</time>
      </trkpt>
      <trkpt lat="42.57369" lon="0.02552">
        <ele>1186</ele>
        <time>2021-06-19T03:45:22Z</time>
      </trkpt>
      <trkpt lat="42.57321" lon="0.02615">
        <ele>1173</ele>
        <time>2021-06-19T03:45:38Z</time>
      </trkpt>
      <trkpt lat="42.57285" lon="0.02688">
        <ele>1165</ele>
        <time>2021-06-19T03:45:53Z</time>
      </trkpt>
      <trkpt lat="42.57277" lon="0.02721">
        <ele>1163</ele>
        <time>2021-06-19T03:45:59Z</time>
      </trkpt>
      <trkpt lat="42.5727" lon="0.02822">
        <ele>1158</ele>
        <time>2021-06-19T03:46:16Z</time>
      </trkpt>
      <trkpt lat="42.57281" lon="0.02843">
        <ele>1165</ele>
        <time>2021-06-19T03:46:21Z</time>
      </trkpt>
      <trkpt lat="42.5728" lon="0.02856">
        <ele>1167</ele>
        <time>2021-06-19T03:46:23Z</time>
      </trkpt>
      <trkpt lat="42.5727" lon="0.02863">
        <ele>1163</ele>
        <time>2021-06-19T03:46:26Z</time>
      </trkpt>
      <trkpt lat="42.57256" lon="0.02878">
        <ele>1159</ele>
        <time>2021-06-19T03:46:30Z</time>
      </trkpt>
      <trkpt lat="42.57247" lon="0.02904">
        <ele>1159</ele>
        <time>2021-06-19T03:46:35Z</time>
      </trkpt>
      <trkpt lat="42.57243" lon="0.0293">
        <ele>1163</ele>
        <time>2021-06-19T03:46:39Z</time>
      </trkpt>
      <trkpt lat="42.57229" lon="0.02957">
        <ele>1161</ele>
        <time>2021-06-19T03:46:45Z</time>
      </trkpt>
      <trkpt lat="42.57206" lon="0.03017">
        <ele>1162</ele>
        <time>2021-06-19T03:46:57Z</time>
      </trkpt>
      <trkpt lat="42.57183" lon="0.03028">
        <ele>1153</ele>
        <time>2021-06-19T03:47:02Z</time>
      </trkpt>
      <trkpt lat="42.57158" lon="0.03121">
        <ele>1161</ele>
        <time>2021-06-19T03:47:19Z</time>
      </trkpt>
      <trkpt lat="42.57149" lon="0.03133">
        <ele>1161</ele>
        <time>2021-06-19T03:47:22Z</time>
      </trkpt>
      <trkpt lat="42.57139" lon="0.0317">
        <ele>1164</ele>
        <time>2021-06-19T03:47:29Z</time>
      </trkpt>
      <trkpt lat="42.57127" lon="0.03203">
        <ele>1166</ele>
        <time>2021-06-19T03:47:35Z</time>
      </trkpt>
      <trkpt lat="42.57131" lon="0.03218">
        <ele>1171</ele>
        <time>2021-06-19T03:47:38Z</time>
      </trkpt>
      <trkpt lat="42.57125" lon="0.03246">
        <ele>1174</ele>
        <time>2021-06-19T03:47:43Z</time>
      </trkpt>
      <trkpt lat="42.57117" lon="0.03242">
        <ele>1170</ele>
        <time>2021-06-19T03:47:45Z</time>
      </trkpt>
      <trkpt lat="42.57109" lon="0.03247">
        <ele>1168</ele>
        <time>2021-06-19T03:47:47Z</time>
      </trkpt>
      <trkpt lat="42.57082" lon="0.033">
        <ele>1169</ele>
        <time>2021-06-19T03:47:58Z</time>
      </trkpt>
      <trkpt lat="42.57075" lon="0.03304">
        <ele>1170</ele>
        <time>2021-06-19T03:48:00Z</time>
      </trkpt>
      <trkpt lat="42.57068" lon="0.03327">
        <ele>1175</ele>
        <time>2021-06-19T03:48:04Z</time>
      </trkpt>
      <trkpt lat="42.57063" lon="0.03355">
        <ele>1177</ele>
        <time>2021-06-19T03:48:09Z</time>
      </trkpt>
      <trkpt lat="42.57064" lon="0.03402">
        <ele>1177</ele>
        <time>2021-06-19T03:48:17Z</time>
      </trkpt>
      <trkpt lat="42.57058" lon="0.03436">
        <ele>1174</ele>
        <time>2021-06-19T03:48:23Z</time>
      </trkpt>
      <trkpt lat="42.5704" lon="0.03458">
        <ele>1167</ele>
        <time>2021-06-19T03:48:29Z</time>
      </trkpt>
      <trkpt lat="42.57046" lon="0.03472">
        <ele>1166</ele>
        <time>2021-06-19T03:48:32Z</time>
      </trkpt>
      <trkpt lat="42.57041" lon="0.03509">
        <ele>1159</ele>
        <time>2021-06-19T03:48:38Z</time>
      </trkpt>
      <trkpt lat="42.57061" lon="0.03541">
        <ele>1160</ele>
        <time>2021-06-19T03:48:46Z</time>
      </trkpt>
      <trkpt lat="42.57071" lon="0.03566">
        <ele>1160</ele>
        <time>2021-06-19T03:48:51Z</time>
      </trkpt>
      <trkpt lat="42.57068" lon="0.03608">
        <ele>1157</ele>
        <time>2021-06-19T03:48:58Z</time>
      </trkpt>
      <trkpt lat="42.57072" lon="0.03638">
        <ele>1158</ele>
        <time>2021-06-19T03:49:03Z</time>
      </trkpt>
      <trkpt lat="42.57055" lon="0.03718">
        <ele>1153</ele>
        <time>2021-06-19T03:49:17Z</time>
      </trkpt>
      <trkpt lat="42.57055" lon="0.03741">
        <ele>1154</ele>
        <time>2021-06-19T03:49:21Z</time>
      </trkpt>
      <trkpt lat="42.57029" lon="0.03798">
        <ele>1150</ele>
        <time>2021-06-19T03:49:33Z</time>
      </trkpt>
      <trkpt lat="42.57032" lon="0.03843">
        <ele>1158</ele>
        <time>2021-06-19T03:49:41Z</time>
      </trkpt>
      <trkpt lat="42.5703" lon="0.03856">
        <ele>1159</ele>
        <time>2021-06-19T03:49:43Z</time>
      </trkpt>
      <trkpt lat="42.57016" lon="0.0387">
        <ele>1157</ele>
        <time>2021-06-19T03:49:47Z</time>
      </trkpt>
      <trkpt lat="42.57008" lon="0.03883">
        <ele>1156</ele>
        <time>2021-06-19T03:49:50Z</time>
      </trkpt>
      <trkpt lat="42.57006" lon="0.03928">
        <ele>1164</ele>
        <time>2021-06-19T03:49:58Z</time>
      </trkpt>
      <trkpt lat="42.57" lon="0.0394">
        <ele>1163</ele>
        <time>2021-06-19T03:50:00Z</time>
      </trkpt>
      <trkpt lat="42.56981" lon="0.03951">
        <ele>1166</ele>
        <time>2021-06-19T03:50:05Z</time>
      </trkpt>
      <trkpt lat="42.56963" lon="0.03938">
        <ele>1165</ele>
        <time>2021-06-19T03:50:10Z</time>
      </trkpt>
      <trkpt lat="42.56943" lon="0.03896">
        <ele>1158</ele>
        <time>2021-06-19T03:50:18Z</time>
      </trkpt>
      <trkpt lat="42.56934" lon="0.03897">
        <ele>1158</ele>
        <time>2021-06-19T03:50:20Z</time>
      </trkpt>
      <trkpt lat="42.56927" lon="0.03901">
        <ele>1160</ele>
        <time>2021-06-19T03:50:22Z</time>
      </trkpt>
      <trkpt lat="42.56867" lon="0.03898">
        <ele>1161</ele>
        <time>2021-06-19T03:50:36Z</time>
      </trkpt>
      <trkpt lat="42.56853" lon="0.03907">
        <ele>1165</ele>
        <time>2021-06-19T03:50:40Z</time>
      </trkpt>
      <trkpt lat="42.56837" lon="0.03923">
        <ele>1170</ele>
        <time>2021-06-19T03:50:44Z</time>
      </trkpt>
      <trkpt lat="42.56804" lon="0.03946">
        <ele>1172</ele>
        <time>2021-06-19T03:50:53Z</time>
      </trkpt>
      <trkpt lat="42.56773" lon="0.03975">
        <ele>1174</ele>
        <time>2021-06-19T03:51:02Z</time>
      </trkpt>
      <trkpt lat="42.56749" lon="0.0402">
        <ele>1180</ele>
        <time>2021-06-19T03:51:11Z</time>
      </trkpt>
      <trkpt lat="42.56707" lon="0.04062">
        <ele>1183</ele>
        <time>2021-06-19T03:51:24Z</time>
      </trkpt>
      <trkpt lat="42.56697" lon="0.0408">
        <ele>1185</ele>
        <time>2021-06-19T03:51:28Z</time>
      </trkpt>
      <trkpt lat="42.56682" lon="0.04077">
        <ele>1183</ele>
        <time>2021-06-19T03:51:31Z</time>
      </trkpt>
      <trkpt lat="42.56667" lon="0.04088">
        <ele>1182</ele>
        <time>2021-06-19T03:51:35Z</time>
      </trkpt>
      <trkpt lat="42.5666" lon="0.041">
        <ele>1180</ele>
        <time>2021-06-19T03:51:38Z</time>
      </trkpt>
      <trkpt lat="42.56658" lon="0.04109">
        <ele>1180</ele>
        <time>2021-06-19T03:51:39Z</time>
      </trkpt>
      <trkpt lat="42.56662" lon="0.04117">
        <ele>1182</ele>
        <time>2021-06-19T03:51:41Z</time>
      </trkpt>
      <trkpt lat="42.56665" lon="0.04136">
        <ele>1184</ele>
        <time>2021-06-19T03:51:44Z</time>
      </trkpt>
      <trkpt lat="42.56661" lon="0.04187">
        <ele>1184</ele>
        <time>2021-06-19T03:51:53Z</time>
      </trkpt>
      <trkpt lat="42.56693" lon="0.04213">
        <ele>1193</ele>
        <time>2021-06-19T03:52:02Z</time>
      </trkpt>
      <trkpt lat="42.56694" lon="0.04233">
        <ele>1193</ele>
        <time>2021-06-19T03:52:05Z</time>
      </trkpt>
      <trkpt lat="42.56685" lon="0.04282">
        <ele>1185</ele>
        <time>2021-06-19T03:52:14Z</time>
      </trkpt>
      <trkpt lat="42.56697" lon="0.04304">
        <ele>1186</ele>
        <time>2021-06-19T03:52:19Z</time>
      </trkpt>
      <trkpt lat="42.56705" lon="0.04312">
        <ele>1187</ele>
        <time>2021-06-19T03:52:21Z</time>
      </trkpt>
      <trkpt lat="42.56724" lon="0.04305">
        <ele>1194</ele>
        <time>2021-06-19T03:52:26Z</time>
      </trkpt>
      <trkpt lat="42.5673" lon="0.04306">
        <ele>1196</ele>
        <time>2021-06-19T03:52:27Z</time>
      </trkpt>
      <trkpt lat="42.56743" lon="0.04317">
        <ele>1198</ele>
        <time>2021-06-19T03:52:31Z</time>
      </trkpt>
      <trkpt lat="42.56757" lon="0.04341">
        <ele>1198</ele>
        <time>2021-06-19T03:52:36Z</time>
      </trkpt>
      <trkpt lat="42.56763" lon="0.0438">
        <ele>1195</ele>
        <time>2021-06-19T03:52:43Z</time>
      </trkpt>
      <trkpt lat="42.56777" lon="0.04412">
        <ele>1196</ele>
        <time>2021-06-19T03:52:49Z</time>
      </trkpt>
      <trkpt lat="42.56794" lon="0.04472">
        <ele>1197</ele>
        <time>2021-06-19T03:53:00Z</time>
      </trkpt>
      <trkpt lat="42.56798" lon="0.045">
        <ele>1197</ele>
        <time>2021-06-19T03:53:05Z</time>
      </trkpt>
      <trkpt lat="42.56798" lon="0.04527">
        <ele>1196</ele>
        <time>2021-06-19T03:53:10Z</time>
      </trkpt>
      <trkpt lat="42.56794" lon="0.04558">
        <ele>1194</ele>
        <time>2021-06-19T03:53:15Z</time>
      </trkpt>
      <trkpt lat="42.568" lon="0.04599">
        <ele>1196</ele>
        <time>2021-06-19T03:53:22Z</time>
      </trkpt>
      <trkpt lat="42.56804" lon="0.04611">
        <ele>1197</ele>
        <time>2021-06-19T03:53:25Z</time>
      </trkpt>
      <trkpt lat="42.568" lon="0.04629">
        <ele>1195</ele>
        <time>2021-06-19T03:53:28Z</time>
      </trkpt>
      <trkpt lat="42.568" lon="0.04673">
        <ele>1195</ele>
        <time>2021-06-19T03:53:35Z</time>
      </trkpt>
      <trkpt lat="42.56804" lon="0.0468">
        <ele>1196</ele>
        <time>2021-06-19T03:53:37Z</time>
      </trkpt>
      <trkpt lat="42.56798" lon="0.04715">
        <ele>1195</ele>
        <time>2021-06-19T03:53:43Z</time>
      </trkpt>
      <trkpt lat="42.56801" lon="0.04759">
        <ele>1197</ele>
        <time>2021-06-19T03:53:51Z</time>
      </trkpt>
      <trkpt lat="42.56808" lon="0.04798">
        <ele>1201</ele>
        <time>2021-06-19T03:53:58Z</time>
      </trkpt>
      <trkpt lat="42.56797" lon="0.04831">
        <ele>1197</ele>
        <time>2021-06-19T03:54:04Z</time>
      </trkpt>
      <trkpt lat="42.56796" lon="0.04849">
        <ele>1195</ele>
        <time>2021-06-19T03:54:07Z</time>
      </trkpt>
      <trkpt lat="42.56807" lon="0.04872">
        <ele>1200</ele>
        <time>2021-06-19T03:54:12Z</time>
      </trkpt>
      <trkpt lat="42.56808" lon="0.04885">
        <ele>1200</ele>
        <time>2021-06-19T03:54:14Z</time>
      </trkpt>
      <trkpt lat="42.56806" lon="0.04895">
        <ele>1198</ele>
        <time>2021-06-19T03:54:16Z</time>
      </trkpt>
      <trkpt lat="42.56812" lon="0.04951">
        <ele>1193</ele>
        <time>2021-06-19T03:54:25Z</time>
      </trkpt>
      <trkpt lat="42.56808" lon="0.04972">
        <ele>1187</ele>
        <time>2021-06-19T03:54:29Z</time>
      </trkpt>
      <trkpt lat="42.56802" lon="0.04977">
        <ele>1185</ele>
        <time>2021-06-19T03:54:31Z</time>
      </trkpt>
      <trkpt lat="42.56801" lon="0.04983">
        <ele>1183</ele>
        <time>2021-06-19T03:54:32Z</time>
      </trkpt>
      <trkpt lat="42.56804" lon="0.04992">
        <ele>1182</ele>
        <time>2021-06-19T03:54:34Z</time>
      </trkpt>
      <trkpt lat="42.56805" lon="0.05008">
        <ele>1179</ele>
        <time>2021-06-19T03:54:36Z</time>
      </trkpt>
      <trkpt lat="42.56812" lon="0.04998">
        <ele>1183</ele>
        <time>2021-06-19T03:54:39Z</time>
      </trkpt>
      <trkpt lat="42.56824" lon="0.04987">
        <ele>1188</ele>
        <time>2021-06-19T03:54:42Z</time>
      </trkpt>
      <trkpt lat="42.56832" lon="0.04984">
        <ele>1191</ele>
        <time>2021-06-19T03:54:44Z</time>
      </trkpt>
      <trkpt lat="42.56849" lon="0.04989">
        <ele>1187</ele>
        <time>2021-06-19T03:54:48Z</time>
      </trkpt>
      <trkpt lat="42.56873" lon="0.05008">
        <ele>1173</ele>
        <time>2021-06-19T03:54:55Z</time>
      </trkpt>
      <trkpt lat="42.56902" lon="0.05004">
        <ele>1166</ele>
        <time>2021-06-19T03:55:01Z</time>
      </trkpt>
      <trkpt lat="42.56914" lon="0.05008">
        <ele>1160</ele>
        <time>2021-06-19T03:55:04Z</time>
      </trkpt>
      <trkpt lat="42.5692" lon="0.04993">
        <ele>1168</ele>
        <time>2021-06-19T03:55:07Z</time>
      </trkpt>
      <trkpt lat="42.56944" lon="0.04952">
        <ele>1185</ele>
        <time>2021-06-19T03:55:16Z</time>
      </trkpt>
      <trkpt lat="42.56951" lon="0.04947">
        <ele>1187</ele>
        <time>2021-06-19T03:55:18Z</time>
      </trkpt>
      <trkpt lat="42.56993" lon="0.04929">
        <ele>1194</ele>
        <time>2021-06-19T03:55:28Z</time>
      </trkpt>
      <trkpt lat="42.57018" lon="0.0493">
        <ele>1184</ele>
        <time>2021-06-19T03:55:34Z</time>
      </trkpt>
      <trkpt lat="42.57035" lon="0.04922">
        <ele>1184</ele>
        <time>2021-06-19T03:55:38Z</time>
      </trkpt>
      <trkpt lat="42.57071" lon="0.04925">
        <ele>1166</ele>
        <time>2021-06-19T03:55:47Z</time>
      </trkpt>
      <trkpt lat="42.57092" lon="0.04942">
        <ele>1148</ele>
        <time>2021-06-19T03:55:52Z</time>
      </trkpt>
      <trkpt lat="42.57113" lon="0.04986">
        <ele>1117</ele>
        <time>2021-06-19T03:56:01Z</time>
      </trkpt>
      <trkpt lat="42.57108" lon="0.05008">
        <ele>1103</ele>
        <time>2021-06-19T03:56:05Z</time>
      </trkpt>
      <trkpt lat="42.57085" lon="0.05032">
        <ele>1090</ele>
        <time>2021-06-19T03:56:12Z</time>
      </trkpt>
      <trkpt lat="42.57082" lon="0.05065">
        <ele>1072</ele>
        <time>2021-06-19T03:56:18Z</time>
      </trkpt>
      <trkpt lat="42.5706" lon="0.05086">
        <ele>1061</ele>
        <time>2021-06-19T03:56:24Z</time>
      </trkpt>
      <trkpt lat="42.57049" lon="0.05137">
        <ele>1035</ele>
        <time>2021-06-19T03:56:33Z</time>
      </trkpt>
      <trkpt lat="42.57008" lon="0.0518">
        <ele>1017</ele>
        <time>2021-06-19T03:56:45Z</time>
      </trkpt>
      <trkpt lat="42.56977" lon="0.05227">
        <ele>1007</ele>
        <time>2021-06-19T03:56:56Z</time>
      </trkpt>
      <trkpt lat="42.56945" lon="0.05242">
        <ele>1002</ele>
        <time>2021-06-19T03:57:04Z</time>
      </trkpt>
      <trkpt lat="42.56924" lon="0.05255">
        <ele>999</ele>
        <time>2021-06-19T03:57:10Z</time>
      </trkpt>
      <trkpt lat="42.56889" lon="0.05285">
        <ele>995</ele>
        <time>2021-06-19T03:57:19Z</time>
      </trkpt>
      <trkpt lat="42.56878" lon="0.05307">
        <ele>993</ele>
        <time>2021-06-19T03:57:24Z</time>
      </trkpt>
      <trkpt lat="42.56868" lon="0.05321">
        <ele>992</ele>
        <time>2021-06-19T03:57:27Z</time>
      </trkpt>
      <trkpt lat="42.56857" lon="0.0532">
        <ele>991</ele>
        <time>2021-06-19T03:57:30Z</time>
      </trkpt>
      <trkpt lat="42.56845" lon="0.05312">
        <ele>991</ele>
        <time>2021-06-19T03:57:33Z</time>
      </trkpt>
      <trkpt lat="42.56836" lon="0.05298">
        <ele>992</ele>
        <time>2021-06-19T03:57:36Z</time>
      </trkpt>
      <trkpt lat="42.56823" lon="0.05292">
        <ele>992</ele>
        <time>2021-06-19T03:57:39Z</time>
      </trkpt>
      <trkpt lat="42.56818" lon="0.05283">
        <ele>993</ele>
        <time>2021-06-19T03:57:41Z</time>
      </trkpt>
      <trkpt lat="42.56815" lon="0.05263">
        <ele>994</ele>
        <time>2021-06-19T03:57:45Z</time>
      </trkpt>
      <trkpt lat="42.56797" lon="0.05243">
        <ele>1001</ele>
        <time>2021-06-19T03:57:50Z</time>
      </trkpt>
      <trkpt lat="42.56788" lon="0.05244">
        <ele>1000</ele>
        <time>2021-06-19T03:57:52Z</time>
      </trkpt>
      <trkpt lat="42.5678" lon="0.05268">
        <ele>993</ele>
        <time>2021-06-19T03:57:57Z</time>
      </trkpt>
      <trkpt lat="42.56776" lon="0.05289">
        <ele>992</ele>
        <time>2021-06-19T03:58:01Z</time>
      </trkpt>
      <trkpt lat="42.56765" lon="0.05318">
        <ele>991</ele>
        <time>2021-06-19T03:58:06Z</time>
      </trkpt>
      <trkpt lat="42.56754" lon="0.05333">
        <ele>990</ele>
        <time>2021-06-19T03:58:10Z</time>
      </trkpt>
      <trkpt lat="42.56729" lon="0.0535">
        <ele>999</ele>
        <time>2021-06-19T03:58:16Z</time>
      </trkpt>
      <trkpt lat="42.56699" lon="0.05348">
        <ele>1004</ele>
        <time>2021-06-19T03:58:23Z</time>
      </trkpt>
      <trkpt lat="42.56679" lon="0.05334">
        <ele>1005</ele>
        <time>2021-06-19T03:58:29Z</time>
      </trkpt>
      <trkpt lat="42.56659" lon="0.05311">
        <ele>1011</ele>
        <time>2021-06-19T03:58:35Z</time>
      </trkpt>
      <trkpt lat="42.56643" lon="0.05271">
        <ele>1015</ele>
        <time>2021-06-19T03:58:43Z</time>
      </trkpt>
      <trkpt lat="42.56635" lon="0.05236">
        <ele>1017</ele>
        <time>2021-06-19T03:58:49Z</time>
      </trkpt>
      <trkpt lat="42.56623" lon="0.05209">
        <ele>1020</ele>
        <time>2021-06-19T03:58:54Z</time>
      </trkpt>
      <trkpt lat="42.56599" lon="0.0518">
        <ele>1020</ele>
        <time>2021-06-19T03:59:02Z</time>
      </trkpt>
      <trkpt lat="42.56557" lon="0.05158">
        <ele>1024</ele>
        <time>2021-06-19T03:59:12Z</time>
      </trkpt>
      <trkpt lat="42.56521" lon="0.05152">
        <ele>1031</ele>
        <time>2021-06-19T03:59:21Z</time>
      </trkpt>
      <trkpt lat="42.56496" lon="0.05159">
        <ele>1035</ele>
        <time>2021-06-19T03:59:27Z</time>
      </trkpt>
      <trkpt lat="42.56458" lon="0.05157">
        <ele>1031</ele>
        <time>2021-06-19T03:59:36Z</time>
      </trkpt>
      <trkpt lat="42.56429" lon="0.05139">
        <ele>1020</ele>
        <time>2021-06-19T03:59:43Z</time>
      </trkpt>
      <trkpt lat="42.56407" lon="0.05149">
        <ele>1021</ele>
        <time>2021-06-19T03:59:48Z</time>
      </trkpt>
      <trkpt lat="42.56377" lon="0.05141">
        <ele>1012</ele>
        <time>2021-06-19T03:59:56Z</time>
      </trkpt>
      <trkpt lat="42.56359" lon="0.05149">
        <ele>1014</ele>
        <time>2021-06-19T04:00:00Z</time>
      </trkpt>
      <trkpt lat="42.56329" lon="0.05134">
        <ele>1001</ele>
        <time>2021-06-19T04:00:07Z</time>
      </trkpt>
      <trkpt lat="42.56288" lon="0.05128">
        <ele>996</ele>
        <time>2021-06-19T04:00:17Z</time>
      </trkpt>
      <trkpt lat="42.56259" lon="0.05117">
        <ele>987</ele>
        <time>2021-06-19T04:00:24Z</time>
      </trkpt>
      <trkpt lat="42.56251" lon="0.0512">
        <ele>989</ele>
        <time>2021-06-19T04:00:26Z</time>
      </trkpt>
      <trkpt lat="42.56225" lon="0.05112">
        <ele>979</ele>
        <time>2021-06-19T04:00:32Z</time>
      </trkpt>
      <trkpt lat="42.56212" lon="0.05121">
        <ele>985</ele>
        <time>2021-06-19T04:00:36Z</time>
      </trkpt>
      <trkpt lat="42.56198" lon="0.05117">
        <ele>980</ele>
        <time>2021-06-19T04:00:39Z</time>
      </trkpt>
      <trkpt lat="42.56168" lon="0.05087">
        <ele>949</ele>
        <time>2021-06-19T04:00:48Z</time>
      </trkpt>
      <trkpt lat="42.56158" lon="0.05086">
        <ele>946</ele>
        <time>2021-06-19T04:00:50Z</time>
      </trkpt>
      <trkpt lat="42.56139" lon="0.05102">
        <ele>955</ele>
        <time>2021-06-19T04:00:55Z</time>
      </trkpt>
      <trkpt lat="42.56115" lon="0.05117">
        <ele>962</ele>
        <time>2021-06-19T04:01:02Z</time>
      </trkpt>
      <trkpt lat="42.56098" lon="0.05121">
        <ele>961</ele>
        <time>2021-06-19T04:01:06Z</time>
      </trkpt>
      <trkpt lat="42.56087" lon="0.05118">
        <ele>955</ele>
        <time>2021-06-19T04:01:08Z</time>
      </trkpt>
      <trkpt lat="42.56078" lon="0.05121">
        <ele>957</ele>
        <time>2021-06-19T04:01:10Z</time>
      </trkpt>
      <trkpt lat="42.56066" lon="0.0512">
        <ele>955</ele>
        <time>2021-06-19T04:01:13Z</time>
      </trkpt>
      <trkpt lat="42.56049" lon="0.05112">
        <ele>948</ele>
        <time>2021-06-19T04:01:17Z</time>
      </trkpt>
      <trkpt lat="42.56031" lon="0.05122">
        <ele>953</ele>
        <time>2021-06-19T04:01:22Z</time>
      </trkpt>
      <trkpt lat="42.56015" lon="0.05135">
        <ele>959</ele>
        <time>2021-06-19T04:01:26Z</time>
      </trkpt>
      <trkpt lat="42.55993" lon="0.05135">
        <ele>955</ele>
        <time>2021-06-19T04:01:31Z</time>
      </trkpt>
      <trkpt lat="42.55971" lon="0.05145">
        <ele>954</ele>
        <time>2021-06-19T04:01:37Z</time>
      </trkpt>
      <trkpt lat="42.55946" lon="0.05151">
        <ele>950</ele>
        <time>2021-06-19T04:01:43Z</time>
      </trkpt>
      <trkpt lat="42.55927" lon="0.0516">
        <ele>945</ele>
        <time>2021-06-19T04:01:47Z</time>
      </trkpt>
      <trkpt lat="42.55894" lon="0.05193">
        <ele>944</ele>
        <time>2021-06-19T04:01:57Z</time>
      </trkpt>
      <trkpt lat="42.55886" lon="0.0519">
        <ele>943</ele>
        <time>2021-06-19T04:01:59Z</time>
      </trkpt>
      <trkpt lat="42.55872" lon="0.05175">
        <ele>941</ele>
        <time>2021-06-19T04:02:03Z</time>
      </trkpt>
      <trkpt lat="42.5585" lon="0.05194">
        <ele>939</ele>
        <time>2021-06-19T04:02:09Z</time>
      </trkpt>
      <trkpt lat="42.55844" lon="0.05214">
        <ele>937</ele>
        <time>2021-06-19T04:02:13Z</time>
      </trkpt>
      <trkpt lat="42.55855" lon="0.05226">
        <ele>939</ele>
        <time>2021-06-19T04:02:16Z</time>
      </trkpt>
      <trkpt lat="42.55854" lon="0.0523">
        <ele>938</ele>
        <time>2021-06-19T04:02:17Z</time>
      </trkpt>
      <trkpt lat="42.55848" lon="0.05228">
        <ele>937</ele>
        <time>2021-06-19T04:02:18Z</time>
      </trkpt>
      <trkpt lat="42.55838" lon="0.05233">
        <ele>935</ele>
        <time>2021-06-19T04:02:21Z</time>
      </trkpt>
      <trkpt lat="42.55815" lon="0.05237">
        <ele>943</ele>
        <time>2021-06-19T04:02:26Z</time>
      </trkpt>
      <trkpt lat="42.55811" lon="0.05254">
        <ele>944</ele>
        <time>2021-06-19T04:02:29Z</time>
      </trkpt>
      <trkpt lat="42.55793" lon="0.05266">
        <ele>952</ele>
        <time>2021-06-19T04:02:34Z</time>
      </trkpt>
      <trkpt lat="42.55788" lon="0.05294">
        <ele>954</ele>
        <time>2021-06-19T04:02:39Z</time>
      </trkpt>
      <trkpt lat="42.55791" lon="0.05326">
        <ele>952</ele>
        <time>2021-06-19T04:02:45Z</time>
      </trkpt>
      <trkpt lat="42.55789" lon="0.05379">
        <ele>946</ele>
        <time>2021-06-19T04:02:54Z</time>
      </trkpt>
      <trkpt lat="42.5581" lon="0.05431">
        <ele>935</ele>
        <time>2021-06-19T04:03:04Z</time>
      </trkpt>
      <trkpt lat="42.55814" lon="0.05448">
        <ele>933</ele>
        <time>2021-06-19T04:03:07Z</time>
      </trkpt>
      <trkpt lat="42.55809" lon="0.0546">
        <ele>931</ele>
        <time>2021-06-19T04:03:09Z</time>
      </trkpt>
      <trkpt lat="42.55799" lon="0.05465">
        <ele>930</ele>
        <time>2021-06-19T04:03:12Z</time>
      </trkpt>
      <trkpt lat="42.55789" lon="0.05463">
        <ele>930</ele>
        <time>2021-06-19T04:03:14Z</time>
      </trkpt>
      <trkpt lat="42.55755" lon="0.05444">
        <ele>936</ele>
        <time>2021-06-19T04:03:23Z</time>
      </trkpt>
      <trkpt lat="42.55736" lon="0.05439">
        <ele>940</ele>
        <time>2021-06-19T04:03:27Z</time>
      </trkpt>
      <trkpt lat="42.55724" lon="0.0544">
        <ele>942</ele>
        <time>2021-06-19T04:03:30Z</time>
      </trkpt>
      <trkpt lat="42.55697" lon="0.05456">
        <ele>941</ele>
        <time>2021-06-19T04:03:37Z</time>
      </trkpt>
      <trkpt lat="42.55656" lon="0.05486">
        <ele>938</ele>
        <time>2021-06-19T04:03:48Z</time>
      </trkpt>
      <trkpt lat="42.5563" lon="0.05514">
        <ele>942</ele>
        <time>2021-06-19T04:03:56Z</time>
      </trkpt>
      <trkpt lat="42.55579" lon="0.05631">
        <ele>925</ele>
        <time>2021-06-19T04:04:19Z</time>
      </trkpt>
      <trkpt lat="42.55563" lon="0.05633">
        <ele>929</ele>
        <time>2021-06-19T04:04:23Z</time>
      </trkpt>
      <trkpt lat="42.5555" lon="0.05629">
        <ele>935</ele>
        <time>2021-06-19T04:04:26Z</time>
      </trkpt>
      <trkpt lat="42.55536" lon="0.05632">
        <ele>938</ele>
        <time>2021-06-19T04:04:29Z</time>
      </trkpt>
      <trkpt lat="42.55534" lon="0.05644">
        <ele>937</ele>
        <time>2021-06-19T04:04:31Z</time>
      </trkpt>
      <trkpt lat="42.55544" lon="0.05674">
        <ele>927</ele>
        <time>2021-06-19T04:04:37Z</time>
      </trkpt>
      <trkpt lat="42.55543" lon="0.05691">
        <ele>926</ele>
        <time>2021-06-19T04:04:40Z</time>
      </trkpt>
      <trkpt lat="42.55536" lon="0.05696">
        <ele>928</ele>
        <time>2021-06-19T04:04:42Z</time>
      </trkpt>
      <trkpt lat="42.55531" lon="0.0575">
        <ele>924</ele>
        <time>2021-06-19T04:04:51Z</time>
      </trkpt>
      <trkpt lat="42.55509" lon="0.05771">
        <ele>926</ele>
        <time>2021-06-19T04:04:57Z</time>
      </trkpt>
      <trkpt lat="42.55486" lon="0.058">
        <ele>928</ele>
        <time>2021-06-19T04:05:05Z</time>
      </trkpt>
      <trkpt lat="42.55463" lon="0.0585">
        <ele>932</ele>
        <time>2021-06-19T04:05:15Z</time>
      </trkpt>
      <trkpt lat="42.55456" lon="0.05878">
        <ele>933</ele>
        <time>2021-06-19T04:05:20Z</time>
      </trkpt>
      <trkpt lat="42.55454" lon="0.05898">
        <ele>931</ele>
        <time>2021-06-19T04:05:23Z</time>
      </trkpt>
      <trkpt lat="42.55455" lon="0.06018">
        <ele>933</ele>
        <time>2021-06-19T04:05:44Z</time>
      </trkpt>
      <trkpt lat="42.55451" lon="0.06046">
        <ele>938</ele>
        <time>2021-06-19T04:05:49Z</time>
      </trkpt>
      <trkpt lat="42.55446" lon="0.06061">
        <ele>941</ele>
        <time>2021-06-19T04:05:52Z</time>
      </trkpt>
      <trkpt lat="42.55434" lon="0.0608">
        <ele>946</ele>
        <time>2021-06-19T04:05:56Z</time>
      </trkpt>
      <trkpt lat="42.55428" lon="0.06097">
        <ele>948</ele>
        <time>2021-06-19T04:05:59Z</time>
      </trkpt>
      <trkpt lat="42.55425" lon="0.06131">
        <ele>952</ele>
        <time>2021-06-19T04:06:05Z</time>
      </trkpt>
      <trkpt lat="42.55435" lon="0.06184">
        <ele>947</ele>
        <time>2021-06-19T04:06:15Z</time>
      </trkpt>
      <trkpt lat="42.55441" lon="0.06247">
        <ele>934</ele>
        <time>2021-06-19T04:06:26Z</time>
      </trkpt>
      <trkpt lat="42.55436" lon="0.06301">
        <ele>912</ele>
        <time>2021-06-19T04:06:35Z</time>
      </trkpt>
      <trkpt lat="42.55412" lon="0.06343">
        <ele>895</ele>
        <time>2021-06-19T04:06:44Z</time>
      </trkpt>
      <trkpt lat="42.55399" lon="0.06374">
        <ele>897</ele>
        <time>2021-06-19T04:06:50Z</time>
      </trkpt>
      <trkpt lat="42.55381" lon="0.06401">
        <ele>900</ele>
        <time>2021-06-19T04:06:56Z</time>
      </trkpt>
      <trkpt lat="42.55358" lon="0.06446">
        <ele>902</ele>
        <time>2021-06-19T04:07:06Z</time>
      </trkpt>
      <trkpt lat="42.55329" lon="0.06492">
        <ele>900</ele>
        <time>2021-06-19T04:07:16Z</time>
      </trkpt>
      <trkpt lat="42.55322" lon="0.06534">
        <ele>898</ele>
        <time>2021-06-19T04:07:24Z</time>
      </trkpt>
      <trkpt lat="42.55327" lon="0.06558">
        <ele>891</ele>
        <time>2021-06-19T04:07:28Z</time>
      </trkpt>
      <trkpt lat="42.55327" lon="0.06591">
        <ele>886</ele>
        <time>2021-06-19T04:07:34Z</time>
      </trkpt>
      <trkpt lat="42.55319" lon="0.06612">
        <ele>884</ele>
        <time>2021-06-19T04:07:38Z</time>
      </trkpt>
      <trkpt lat="42.55296" lon="0.0664">
        <ele>882</ele>
        <time>2021-06-19T04:07:45Z</time>
      </trkpt>
      <trkpt lat="42.55285" lon="0.06648">
        <ele>880</ele>
        <time>2021-06-19T04:07:48Z</time>
      </trkpt>
      <trkpt lat="42.55246" lon="0.06662">
        <ele>879</ele>
        <time>2021-06-19T04:07:57Z</time>
      </trkpt>
      <trkpt lat="42.55202" lon="0.06686">
        <ele>897</ele>
        <time>2021-06-19T04:08:08Z</time>
      </trkpt>
      <trkpt lat="42.55179" lon="0.06712">
        <ele>894</ele>
        <time>2021-06-19T04:08:15Z</time>
      </trkpt>
      <trkpt lat="42.55125" lon="0.06748">
        <ele>892</ele>
        <time>2021-06-19T04:08:29Z</time>
      </trkpt>
      <trkpt lat="42.55114" lon="0.06775">
        <ele>888</ele>
        <time>2021-06-19T04:08:35Z</time>
      </trkpt>
      <trkpt lat="42.551" lon="0.06786">
        <ele>890</ele>
        <time>2021-06-19T04:08:38Z</time>
      </trkpt>
      <trkpt lat="42.55084" lon="0.06842">
        <ele>874</ele>
        <time>2021-06-19T04:08:49Z</time>
      </trkpt>
      <trkpt lat="42.55085" lon="0.06892">
        <ele>870</ele>
        <time>2021-06-19T04:08:57Z</time>
      </trkpt>
      <trkpt lat="42.55071" lon="0.06961">
        <ele>875</ele>
        <time>2021-06-19T04:09:10Z</time>
      </trkpt>
      <trkpt lat="42.55071" lon="0.07011">
        <ele>873</ele>
        <time>2021-06-19T04:09:18Z</time>
      </trkpt>
      <trkpt lat="42.55061" lon="0.07059">
        <ele>876</ele>
        <time>2021-06-19T04:09:27Z</time>
      </trkpt>
      <trkpt lat="42.55016" lon="0.07209">
        <ele>875</ele>
        <time>2021-06-19T04:09:55Z</time>
      </trkpt>
      <trkpt lat="42.55025" lon="0.07267">
        <ele>873</ele>
        <time>2021-06-19T04:10:05Z</time>
      </trkpt>
      <trkpt lat="42.55019" lon="0.07324">
        <ele>873</ele>
        <time>2021-06-19T04:10:15Z</time>
      </trkpt>
      <trkpt lat="42.54997" lon="0.07353">
        <ele>874</ele>
        <time>2021-06-19T04:10:22Z</time>
      </trkpt>
      <trkpt lat="42.54969" lon="0.07364">
        <ele>876</ele>
        <time>2021-06-19T04:10:29Z</time>
      </trkpt>
      <trkpt lat="42.54864" lon="0.07393">
        <ele>887</ele>
        <time>2021-06-19T04:10:54Z</time>
      </trkpt>
      <trkpt lat="42.5484" lon="0.0741">
        <ele>890</ele>
        <time>2021-06-19T04:11:00Z</time>
      </trkpt>
      <trkpt lat="42.54831" lon="0.07441">
        <ele>890</ele>
        <time>2021-06-19T04:11:06Z</time>
      </trkpt>
      <trkpt lat="42.54844" lon="0.07512">
        <ele>886</ele>
        <time>2021-06-19T04:11:18Z</time>
      </trkpt>
      <trkpt lat="42.54848" lon="0.07553">
        <ele>892</ele>
        <time>2021-06-19T04:11:26Z</time>
      </trkpt>
      <trkpt lat="42.54846" lon="0.076">
        <ele>901</ele>
        <time>2021-06-19T04:11:34Z</time>
      </trkpt>
      <trkpt lat="42.54839" lon="0.07621">
        <ele>907</ele>
        <time>2021-06-19T04:11:38Z</time>
      </trkpt>
      <trkpt lat="42.54806" lon="0.07637">
        <ele>912</ele>
        <time>2021-06-19T04:11:46Z</time>
      </trkpt>
      <trkpt lat="42.54767" lon="0.0764">
        <ele>915</ele>
        <time>2021-06-19T04:11:55Z</time>
      </trkpt>
      <trkpt lat="42.54714" lon="0.07626">
        <ele>902</ele>
        <time>2021-06-19T04:12:08Z</time>
      </trkpt>
      <trkpt lat="42.54676" lon="0.07627">
        <ele>892</ele>
        <time>2021-06-19T04:12:16Z</time>
      </trkpt>
      <trkpt lat="42.54641" lon="0.07652">
        <ele>896</ele>
        <time>2021-06-19T04:12:26Z</time>
      </trkpt>
      <trkpt lat="42.5462" lon="0.07675">
        <ele>902</ele>
        <time>2021-06-19T04:12:32Z</time>
      </trkpt>
      <trkpt lat="42.54604" lon="0.07712">
        <ele>912</ele>
        <time>2021-06-19T04:12:39Z</time>
      </trkpt>
      <trkpt lat="42.54609" lon="0.07743">
        <ele>919</ele>
        <time>2021-06-19T04:12:45Z</time>
      </trkpt>
      <trkpt lat="42.54603" lon="0.07779">
        <ele>922</ele>
        <time>2021-06-19T04:12:51Z</time>
      </trkpt>
      <trkpt lat="42.54614" lon="0.07862">
        <ele>932</ele>
        <time>2021-06-19T04:13:06Z</time>
      </trkpt>
      <trkpt lat="42.54603" lon="0.07897">
        <ele>928</ele>
        <time>2021-06-19T04:13:12Z</time>
      </trkpt>
      <trkpt lat="42.5458" lon="0.07918">
        <ele>920</ele>
        <time>2021-06-19T04:13:19Z</time>
      </trkpt>
      <trkpt lat="42.54546" lon="0.07937">
        <ele>912</ele>
        <time>2021-06-19T04:13:27Z</time>
      </trkpt>
      <trkpt lat="42.54525" lon="0.07961">
        <ele>905</ele>
        <time>2021-06-19T04:13:34Z</time>
      </trkpt>
      <trkpt lat="42.54496" lon="0.07974">
        <ele>898</ele>
        <time>2021-06-19T04:13:41Z</time>
      </trkpt>
      <trkpt lat="42.54464" lon="0.07981">
        <ele>893</ele>
        <time>2021-06-19T04:13:48Z</time>
      </trkpt>
      <trkpt lat="42.54447" lon="0.07999">
        <ele>888</ele>
        <time>2021-06-19T04:13:53Z</time>
      </trkpt>
      <trkpt lat="42.54425" lon="0.08036">
        <ele>910</ele>
        <time>2021-06-19T04:14:02Z</time>
      </trkpt>
      <trkpt lat="42.54389" lon="0.08048">
        <ele>913</ele>
        <time>2021-06-19T04:14:10Z</time>
      </trkpt>
      <trkpt lat="42.54331" lon="0.08039">
        <ele>896</ele>
        <time>2021-06-19T04:14:24Z</time>
      </trkpt>
      <trkpt lat="42.54231" lon="0.08031">
        <ele>883</ele>
        <time>2021-06-19T04:14:47Z</time>
      </trkpt>
      <trkpt lat="42.5417" lon="0.08051">
        <ele>886</ele>
        <time>2021-06-19T04:15:02Z</time>
      </trkpt>
      <trkpt lat="42.54101" lon="0.08053">
        <ele>890</ele>
        <time>2021-06-19T04:15:18Z</time>
      </trkpt>
      <trkpt lat="42.54063" lon="0.08042">
        <ele>891</ele>
        <time>2021-06-19T04:15:27Z</time>
      </trkpt>
      <trkpt lat="42.54047" lon="0.08045">
        <ele>889</ele>
        <time>2021-06-19T04:15:31Z</time>
      </trkpt>
      <trkpt lat="42.54023" lon="0.08065">
        <ele>889</ele>
        <time>2021-06-19T04:15:38Z</time>
      </trkpt>
      <trkpt lat="42.53985" lon="0.08083">
        <ele>897</ele>
        <time>2021-06-19T04:15:47Z</time>
      </trkpt>
      <trkpt lat="42.5395" lon="0.08088">
        <ele>920</ele>
        <time>2021-06-19T04:15:55Z</time>
      </trkpt>
      <trkpt lat="42.53934" lon="0.08083">
        <ele>922</ele>
        <time>2021-06-19T04:15:59Z</time>
      </trkpt>
      <trkpt lat="42.53904" lon="0.08054">
        <ele>915</ele>
        <time>2021-06-19T04:16:08Z</time>
      </trkpt>
      <trkpt lat="42.53874" lon="0.08046">
        <ele>912</ele>
        <time>2021-06-19T04:16:15Z</time>
      </trkpt>
      <trkpt lat="42.5383" lon="0.08025">
        <ele>907</ele>
        <time>2021-06-19T04:16:26Z</time>
      </trkpt>
      <trkpt lat="42.53807" lon="0.08031">
        <ele>906</ele>
        <time>2021-06-19T04:16:31Z</time>
      </trkpt>
      <trkpt lat="42.53791" lon="0.08056">
        <ele>906</ele>
        <time>2021-06-19T04:16:37Z</time>
      </trkpt>
      <trkpt lat="42.53764" lon="0.08072">
        <ele>898</ele>
        <time>2021-06-19T04:16:44Z</time>
      </trkpt>
      <trkpt lat="42.53715" lon="0.0809">
        <ele>890</ele>
        <time>2021-06-19T04:16:55Z</time>
      </trkpt>
      <trkpt lat="42.53688" lon="0.08089">
        <ele>882</ele>
        <time>2021-06-19T04:17:02Z</time>
      </trkpt>
      <trkpt lat="42.53671" lon="0.08102">
        <ele>883</ele>
        <time>2021-06-19T04:17:06Z</time>
      </trkpt>
      <trkpt lat="42.53641" lon="0.08133">
        <ele>891</ele>
        <time>2021-06-19T04:17:15Z</time>
      </trkpt>
      <trkpt lat="42.53611" lon="0.08147">
        <ele>889</ele>
        <time>2021-06-19T04:17:23Z</time>
      </trkpt>
      <trkpt lat="42.53594" lon="0.08145">
        <ele>887</ele>
        <time>2021-06-19T04:17:27Z</time>
      </trkpt>
      <trkpt lat="42.5358" lon="0.0815">
        <ele>885</ele>
        <time>2021-06-19T04:17:30Z</time>
      </trkpt>
      <trkpt lat="42.53564" lon="0.08172">
        <ele>888</ele>
        <time>2021-06-19T04:17:35Z</time>
      </trkpt>
      <trkpt lat="42.53544" lon="0.08186">
        <ele>896</ele>
        <time>2021-06-19T04:17:41Z</time>
      </trkpt>
      <trkpt lat="42.53538" lon="0.08202">
        <ele>900</ele>
        <time>2021-06-19T04:17:44Z</time>
      </trkpt>
      <trkpt lat="42.53515" lon="0.08209">
        <ele>897</ele>
        <time>2021-06-19T04:17:49Z</time>
      </trkpt>
      <trkpt lat="42.53492" lon="0.08212">
        <ele>898</ele>
        <time>2021-06-19T04:17:55Z</time>
      </trkpt>
      <trkpt lat="42.53478" lon="0.08227">
        <ele>899</ele>
        <time>2021-06-19T04:17:59Z</time>
      </trkpt>
      <trkpt lat="42.53438" lon="0.08233">
        <ele>910</ele>
        <time>2021-06-19T04:18:08Z</time>
      </trkpt>
      <trkpt lat="42.53419" lon="0.08242">
        <ele>910</ele>
        <time>2021-06-19T04:18:13Z</time>
      </trkpt>
      <trkpt lat="42.53403" lon="0.08265">
        <ele>909</ele>
        <time>2021-06-19T04:18:18Z</time>
      </trkpt>
      <trkpt lat="42.53386" lon="0.08309">
        <ele>903</ele>
        <time>2021-06-19T04:18:27Z</time>
      </trkpt>
      <trkpt lat="42.53378" lon="0.0835">
        <ele>895</ele>
        <time>2021-06-19T04:18:34Z</time>
      </trkpt>
      <trkpt lat="42.53355" lon="0.08387">
        <ele>892</ele>
        <time>2021-06-19T04:18:42Z</time>
      </trkpt>
      <trkpt lat="42.53347" lon="0.08395">
        <ele>890</ele>
        <time>2021-06-19T04:18:45Z</time>
      </trkpt>
      <trkpt lat="42.53328" lon="0.08398">
        <ele>888</ele>
        <time>2021-06-19T04:18:49Z</time>
      </trkpt>
      <trkpt lat="42.53301" lon="0.0843">
        <ele>886</ele>
        <time>2021-06-19T04:18:58Z</time>
      </trkpt>
      <trkpt lat="42.53283" lon="0.08438">
        <ele>888</ele>
        <time>2021-06-19T04:19:02Z</time>
      </trkpt>
      <trkpt lat="42.53268" lon="0.08454">
        <ele>886</ele>
        <time>2021-06-19T04:19:06Z</time>
      </trkpt>
      <trkpt lat="42.53262" lon="0.08469">
        <ele>882</ele>
        <time>2021-06-19T04:19:09Z</time>
      </trkpt>
      <trkpt lat="42.53264" lon="0.0847">
        <ele>882</ele>
        <time>2021-06-19T04:19:10Z</time>
      </trkpt>
      <trkpt lat="42.53255" lon="0.0849">
        <ele>874</ele>
        <time>2021-06-19T04:19:14Z</time>
      </trkpt>
      <trkpt lat="42.53242" lon="0.08538">
        <ele>865</ele>
        <time>2021-06-19T04:19:23Z</time>
      </trkpt>
      <trkpt lat="42.53238" lon="0.08572">
        <ele>862</ele>
        <time>2021-06-19T04:19:29Z</time>
      </trkpt>
      <trkpt lat="42.53231" lon="0.08591">
        <ele>861</ele>
        <time>2021-06-19T04:19:32Z</time>
      </trkpt>
      <trkpt lat="42.53222" lon="0.08602">
        <ele>862</ele>
        <time>2021-06-19T04:19:35Z</time>
      </trkpt>
      <trkpt lat="42.53217" lon="0.08604">
        <ele>862</ele>
        <time>2021-06-19T04:19:36Z</time>
      </trkpt>
      <trkpt lat="42.53212" lon="0.08605">
        <ele>861</ele>
        <time>2021-06-19T04:19:37Z</time>
      </trkpt>
      <trkpt lat="42.53191" lon="0.086">
        <ele>855</ele>
        <time>2021-06-19T04:19:42Z</time>
      </trkpt>
      <trkpt lat="42.53166" lon="0.08598">
        <ele>849</ele>
        <time>2021-06-19T04:19:48Z</time>
      </trkpt>
      <trkpt lat="42.53158" lon="0.08592">
        <ele>845</ele>
        <time>2021-06-19T04:19:50Z</time>
      </trkpt>
      <trkpt lat="42.53146" lon="0.08574">
        <ele>841</ele>
        <time>2021-06-19T04:19:55Z</time>
      </trkpt>
      <trkpt lat="42.53142" lon="0.08546">
        <ele>843</ele>
        <time>2021-06-19T04:20:00Z</time>
      </trkpt>
      <trkpt lat="42.53133" lon="0.08522">
        <ele>844</ele>
        <time>2021-06-19T04:20:04Z</time>
      </trkpt>
      <trkpt lat="42.53122" lon="0.08503">
        <ele>845</ele>
        <time>2021-06-19T04:20:08Z</time>
      </trkpt>
      <trkpt lat="42.53107" lon="0.08486">
        <ele>856</ele>
        <time>2021-06-19T04:20:13Z</time>
      </trkpt>
      <trkpt lat="42.53093" lon="0.08479">
        <ele>860</ele>
        <time>2021-06-19T04:20:16Z</time>
      </trkpt>
      <trkpt lat="42.53086" lon="0.08478">
        <ele>861</ele>
        <time>2021-06-19T04:20:18Z</time>
      </trkpt>
      <trkpt lat="42.53067" lon="0.08477">
        <ele>866</ele>
        <time>2021-06-19T04:20:22Z</time>
      </trkpt>
      <trkpt lat="42.53052" lon="0.08479">
        <ele>869</ele>
        <time>2021-06-19T04:20:26Z</time>
      </trkpt>
      <trkpt lat="42.53041" lon="0.08494">
        <ele>863</ele>
        <time>2021-06-19T04:20:30Z</time>
      </trkpt>
      <trkpt lat="42.53013" lon="0.08508">
        <ele>867</ele>
        <time>2021-06-19T04:20:37Z</time>
      </trkpt>
      <trkpt lat="42.52988" lon="0.08526">
        <ele>866</ele>
        <time>2021-06-19T04:20:43Z</time>
      </trkpt>
      <trkpt lat="42.52956" lon="0.08565">
        <ele>854</ele>
        <time>2021-06-19T04:20:53Z</time>
      </trkpt>
      <trkpt lat="42.52925" lon="0.08645">
        <ele>818</ele>
        <time>2021-06-19T04:21:09Z</time>
      </trkpt>
      <trkpt lat="42.52915" lon="0.08662">
        <ele>806</ele>
        <time>2021-06-19T04:21:13Z</time>
      </trkpt>
      <trkpt lat="42.52891" lon="0.08682">
        <ele>807</ele>
        <time>2021-06-19T04:21:19Z</time>
      </trkpt>
      <trkpt lat="42.52866" lon="0.08722">
        <ele>802</ele>
        <time>2021-06-19T04:21:28Z</time>
      </trkpt>
      <trkpt lat="42.52862" lon="0.08733">
        <ele>800</ele>
        <time>2021-06-19T04:21:30Z</time>
      </trkpt>
      <trkpt lat="42.52863" lon="0.08761">
        <ele>793</ele>
        <time>2021-06-19T04:21:35Z</time>
      </trkpt>
      <trkpt lat="42.52861" lon="0.08769">
        <ele>791</ele>
        <time>2021-06-19T04:21:37Z</time>
      </trkpt>
      <trkpt lat="42.52831" lon="0.08832">
        <ele>775</ele>
        <time>2021-06-19T04:21:49Z</time>
      </trkpt>
      <trkpt lat="42.52824" lon="0.08889">
        <ele>779</ele>
        <time>2021-06-19T04:21:59Z</time>
      </trkpt>
      <trkpt lat="42.52821" lon="0.08939">
        <ele>780</ele>
        <time>2021-06-19T04:22:08Z</time>
      </trkpt>
      <trkpt lat="42.52838" lon="0.09092">
        <ele>761</ele>
        <time>2021-06-19T04:22:35Z</time>
      </trkpt>
      <trkpt lat="42.52836" lon="0.09104">
        <ele>762</ele>
        <time>2021-06-19T04:22:37Z</time>
      </trkpt>
      <trkpt lat="42.52818" lon="0.09122">
        <ele>771</ele>
        <time>2021-06-19T04:22:42Z</time>
      </trkpt>
      <trkpt lat="42.52814" lon="0.09129">
        <ele>773</ele>
        <time>2021-06-19T04:22:44Z</time>
      </trkpt>
      <trkpt lat="42.52797" lon="0.09176">
        <ele>778</ele>
        <time>2021-06-19T04:22:53Z</time>
      </trkpt>
      <trkpt lat="42.52787" lon="0.09193">
        <ele>781</ele>
        <time>2021-06-19T04:22:56Z</time>
      </trkpt>
      <trkpt lat="42.52743" lon="0.09205">
        <ele>779</ele>
        <time>2021-06-19T04:23:07Z</time>
      </trkpt>
      <trkpt lat="42.5273" lon="0.09222">
        <ele>776</ele>
        <time>2021-06-19T04:23:11Z</time>
      </trkpt>
      <trkpt lat="42.52722" lon="0.09226">
        <ele>774</ele>
        <time>2021-06-19T04:23:13Z</time>
      </trkpt>
      <trkpt lat="42.52703" lon="0.09226">
        <ele>772</ele>
        <time>2021-06-19T04:23:17Z</time>
      </trkpt>
      <trkpt lat="42.52686" lon="0.0922">
        <ele>772</ele>
        <time>2021-06-19T04:23:22Z</time>
      </trkpt>
      <trkpt lat="42.52672" lon="0.0922">
        <ele>771</ele>
        <time>2021-06-19T04:23:25Z</time>
      </trkpt>
      <trkpt lat="42.5265" lon="0.09233">
        <ele>764</ele>
        <time>2021-06-19T04:23:30Z</time>
      </trkpt>
      <trkpt lat="42.52629" lon="0.09235">
        <ele>760</ele>
        <time>2021-06-19T04:23:35Z</time>
      </trkpt>
      <trkpt lat="42.52621" lon="0.09238">
        <ele>758</ele>
        <time>2021-06-19T04:23:37Z</time>
      </trkpt>
      <trkpt lat="42.52605" lon="0.09251">
        <ele>751</ele>
        <time>2021-06-19T04:23:42Z</time>
      </trkpt>
      <trkpt lat="42.52598" lon="0.09254">
        <ele>751</ele>
        <time>2021-06-19T04:23:43Z</time>
      </trkpt>
      <trkpt lat="42.52588" lon="0.09248">
        <ele>749</ele>
        <time>2021-06-19T04:23:46Z</time>
      </trkpt>
      <trkpt lat="42.5256" lon="0.09241">
        <ele>748</ele>
        <time>2021-06-19T04:23:53Z</time>
      </trkpt>
      <trkpt lat="42.52549" lon="0.09235">
        <ele>749</ele>
        <time>2021-06-19T04:23:55Z</time>
      </trkpt>
      <trkpt lat="42.52537" lon="0.09222">
        <ele>749</ele>
        <time>2021-06-19T04:23:59Z</time>
      </trkpt>
      <trkpt lat="42.52513" lon="0.09168">
        <ele>747</ele>
        <time>2021-06-19T04:24:10Z</time>
      </trkpt>
      <trkpt lat="42.52465" lon="0.09105">
        <ele>755</ele>
        <time>2021-06-19T04:24:25Z</time>
      </trkpt>
      <trkpt lat="42.52457" lon="0.09088">
        <ele>754</ele>
        <time>2021-06-19T04:24:29Z</time>
      </trkpt>
      <trkpt lat="42.52448" lon="0.09049">
        <ele>760</ele>
        <time>2021-06-19T04:24:36Z</time>
      </trkpt>
      <trkpt lat="42.52433" lon="0.09021">
        <ele>760</ele>
        <time>2021-06-19T04:24:42Z</time>
      </trkpt>
      <trkpt lat="42.52423" lon="0.09007">
        <ele>757</ele>
        <time>2021-06-19T04:24:45Z</time>
      </trkpt>
      <trkpt lat="42.52392" lon="0.08974">
        <ele>759</ele>
        <time>2021-06-19T04:24:54Z</time>
      </trkpt>
      <trkpt lat="42.52339" lon="0.0893">
        <ele>755</ele>
        <time>2021-06-19T04:25:09Z</time>
      </trkpt>
      <trkpt lat="42.52329" lon="0.08928">
        <ele>752</ele>
        <time>2021-06-19T04:25:11Z</time>
      </trkpt>
      <trkpt lat="42.52316" lon="0.08933">
        <ele>749</ele>
        <time>2021-06-19T04:25:14Z</time>
      </trkpt>
      <trkpt lat="42.52313" lon="0.08932">
        <ele>749</ele>
        <time>2021-06-19T04:25:15Z</time>
      </trkpt>
      <trkpt lat="42.52258" lon="0.08907">
        <ele>747</ele>
        <time>2021-06-19T04:25:29Z</time>
      </trkpt>
      <trkpt lat="42.52231" lon="0.08882">
        <ele>756</ele>
        <time>2021-06-19T04:25:36Z</time>
      </trkpt>
      <trkpt lat="42.52203" lon="0.08882">
        <ele>754</ele>
        <time>2021-06-19T04:25:43Z</time>
      </trkpt>
      <trkpt lat="42.52194" lon="0.0888">
        <ele>754</ele>
        <time>2021-06-19T04:25:45Z</time>
      </trkpt>
      <trkpt lat="42.52175" lon="0.08869">
        <ele>759</ele>
        <time>2021-06-19T04:25:50Z</time>
      </trkpt>
      <trkpt lat="42.52168" lon="0.08869">
        <ele>759</ele>
        <time>2021-06-19T04:25:51Z</time>
      </trkpt>
      <trkpt lat="42.52162" lon="0.08875">
        <ele>757</ele>
        <time>2021-06-19T04:25:53Z</time>
      </trkpt>
      <trkpt lat="42.52156" lon="0.08898">
        <ele>748</ele>
        <time>2021-06-19T04:25:57Z</time>
      </trkpt>
      <trkpt lat="42.52127" lon="0.0893">
        <ele>750</ele>
        <time>2021-06-19T04:26:06Z</time>
      </trkpt>
      <trkpt lat="42.52099" lon="0.08969">
        <ele>746</ele>
        <time>2021-06-19T04:26:15Z</time>
      </trkpt>
      <trkpt lat="42.52087" lon="0.08976">
        <ele>746</ele>
        <time>2021-06-19T04:26:18Z</time>
      </trkpt>
      <trkpt lat="42.52083" lon="0.08982">
        <ele>744</ele>
        <time>2021-06-19T04:26:20Z</time>
      </trkpt>
      <trkpt lat="42.52066" lon="0.09047">
        <ele>745</ele>
        <time>2021-06-19T04:26:32Z</time>
      </trkpt>
      <trkpt lat="42.52064" lon="0.09099">
        <ele>736</ele>
        <time>2021-06-19T04:26:41Z</time>
      </trkpt>
      <trkpt lat="42.52046" lon="0.09157">
        <ele>742</ele>
        <time>2021-06-19T04:26:52Z</time>
      </trkpt>
      <trkpt lat="42.52001" lon="0.0927">
        <ele>723</ele>
        <time>2021-06-19T04:27:14Z</time>
      </trkpt>
      <trkpt lat="42.51985" lon="0.0929">
        <ele>724</ele>
        <time>2021-06-19T04:27:19Z</time>
      </trkpt>
      <trkpt lat="42.51933" lon="0.09339">
        <ele>713</ele>
        <time>2021-06-19T04:27:34Z</time>
      </trkpt>
      <trkpt lat="42.51919" lon="0.09347">
        <ele>713</ele>
        <time>2021-06-19T04:27:37Z</time>
      </trkpt>
      <trkpt lat="42.51856" lon="0.09353">
        <ele>722</ele>
        <time>2021-06-19T04:27:52Z</time>
      </trkpt>
      <trkpt lat="42.51839" lon="0.09345">
        <ele>727</ele>
        <time>2021-06-19T04:27:56Z</time>
      </trkpt>
      <trkpt lat="42.51832" lon="0.09351">
        <ele>727</ele>
        <time>2021-06-19T04:27:58Z</time>
      </trkpt>
      <trkpt lat="42.5182" lon="0.09374">
        <ele>725</ele>
        <time>2021-06-19T04:28:03Z</time>
      </trkpt>
      <trkpt lat="42.51789" lon="0.09401">
        <ele>730</ele>
        <time>2021-06-19T04:28:11Z</time>
      </trkpt>
      <trkpt lat="42.51776" lon="0.09417">
        <ele>729</ele>
        <time>2021-06-19T04:28:15Z</time>
      </trkpt>
      <trkpt lat="42.51767" lon="0.09439">
        <ele>730</ele>
        <time>2021-06-19T04:28:20Z</time>
      </trkpt>
      <trkpt lat="42.51751" lon="0.09494">
        <ele>720</ele>
        <time>2021-06-19T04:28:30Z</time>
      </trkpt>
      <trkpt lat="42.51732" lon="0.09521">
        <ele>731</ele>
        <time>2021-06-19T04:28:36Z</time>
      </trkpt>
      <trkpt lat="42.51721" lon="0.09543">
        <ele>734</ele>
        <time>2021-06-19T04:28:41Z</time>
      </trkpt>
      <trkpt lat="42.51703" lon="0.09584">
        <ele>729</ele>
        <time>2021-06-19T04:28:49Z</time>
      </trkpt>
      <trkpt lat="42.51692" lon="0.09616">
        <ele>726</ele>
        <time>2021-06-19T04:28:55Z</time>
      </trkpt>
      <trkpt lat="42.51667" lon="0.09636">
        <ele>714</ele>
        <time>2021-06-19T04:29:02Z</time>
      </trkpt>
      <trkpt lat="42.51659" lon="0.09657">
        <ele>710</ele>
        <time>2021-06-19T04:29:06Z</time>
      </trkpt>
      <trkpt lat="42.51628" lon="0.09667">
        <ele>727</ele>
        <time>2021-06-19T04:29:14Z</time>
      </trkpt>
      <trkpt lat="42.5159" lon="0.09697">
        <ele>748</ele>
        <time>2021-06-19T04:29:24Z</time>
      </trkpt>
      <trkpt lat="42.51578" lon="0.09717">
        <ele>754</ele>
        <time>2021-06-19T04:29:28Z</time>
      </trkpt>
      <trkpt lat="42.5157" lon="0.09742">
        <ele>760</ele>
        <time>2021-06-19T04:29:33Z</time>
      </trkpt>
      <trkpt lat="42.51568" lon="0.09772">
        <ele>769</ele>
        <time>2021-06-19T04:29:38Z</time>
      </trkpt>
      <trkpt lat="42.51556" lon="0.09795">
        <ele>791</ele>
        <time>2021-06-19T04:29:43Z</time>
      </trkpt>
      <trkpt lat="42.51554" lon="0.09804">
        <ele>796</ele>
        <time>2021-06-19T04:29:45Z</time>
      </trkpt>
      <trkpt lat="42.51556" lon="0.09834">
        <ele>803</ele>
        <time>2021-06-19T04:29:50Z</time>
      </trkpt>
      <trkpt lat="42.51561" lon="0.09861">
        <ele>795</ele>
        <time>2021-06-19T04:29:55Z</time>
      </trkpt>
      <trkpt lat="42.51561" lon="0.09872">
        <ele>793</ele>
        <time>2021-06-19T04:29:57Z</time>
      </trkpt>
      <trkpt lat="42.51555" lon="0.09893">
        <ele>797</ele>
        <time>2021-06-19T04:30:00Z</time>
      </trkpt>
      <trkpt lat="42.51561" lon="0.09959">
        <ele>783</ele>
        <time>2021-06-19T04:30:12Z</time>
      </trkpt>
      <trkpt lat="42.5156" lon="0.09981">
        <ele>781</ele>
        <time>2021-06-19T04:30:16Z</time>
      </trkpt>
      <trkpt lat="42.51551" lon="0.10026">
        <ele>789</ele>
        <time>2021-06-19T04:30:24Z</time>
      </trkpt>
      <trkpt lat="42.51538" lon="0.10058">
        <ele>799</ele>
        <time>2021-06-19T04:30:30Z</time>
      </trkpt>
      <trkpt lat="42.51534" lon="0.10077">
        <ele>802</ele>
        <time>2021-06-19T04:30:33Z</time>
      </trkpt>
      <trkpt lat="42.51536" lon="0.10092">
        <ele>799</ele>
        <time>2021-06-19T04:30:36Z</time>
      </trkpt>
      <trkpt lat="42.51553" lon="0.1015">
        <ele>779</ele>
        <time>2021-06-19T04:30:47Z</time>
      </trkpt>
      <trkpt lat="42.51555" lon="0.10173">
        <ele>773</ele>
        <time>2021-06-19T04:30:51Z</time>
      </trkpt>
      <trkpt lat="42.51556" lon="0.10199">
        <ele>763</ele>
        <time>2021-06-19T04:30:55Z</time>
      </trkpt>
      <trkpt lat="42.5155" lon="0.10246">
        <ele>749</ele>
        <time>2021-06-19T04:31:03Z</time>
      </trkpt>
      <trkpt lat="42.51557" lon="0.10281">
        <ele>739</ele>
        <time>2021-06-19T04:31:10Z</time>
      </trkpt>
      <trkpt lat="42.51562" lon="0.10342">
        <ele>726</ele>
        <time>2021-06-19T04:31:20Z</time>
      </trkpt>
      <trkpt lat="42.51559" lon="0.10373">
        <ele>723</ele>
        <time>2021-06-19T04:31:26Z</time>
      </trkpt>
      <trkpt lat="42.5156" lon="0.10432">
        <ele>715</ele>
        <time>2021-06-19T04:31:36Z</time>
      </trkpt>
      <trkpt lat="42.51556" lon="0.1045">
        <ele>715</ele>
        <time>2021-06-19T04:31:39Z</time>
      </trkpt>
      <trkpt lat="42.51537" lon="0.1047">
        <ele>719</ele>
        <time>2021-06-19T04:31:45Z</time>
      </trkpt>
      <trkpt lat="42.51535" lon="0.10484">
        <ele>719</ele>
        <time>2021-06-19T04:31:47Z</time>
      </trkpt>
      <trkpt lat="42.5154" lon="0.10495">
        <ele>716</ele>
        <time>2021-06-19T04:31:49Z</time>
      </trkpt>
      <trkpt lat="42.51556" lon="0.10505">
        <ele>711</ele>
        <time>2021-06-19T04:31:53Z</time>
      </trkpt>
      <trkpt lat="42.51565" lon="0.10515">
        <ele>709</ele>
        <time>2021-06-19T04:31:56Z</time>
      </trkpt>
      <trkpt lat="42.51571" lon="0.10527">
        <ele>708</ele>
        <time>2021-06-19T04:31:59Z</time>
      </trkpt>
      <trkpt lat="42.51577" lon="0.10563">
        <ele>710</ele>
        <time>2021-06-19T04:32:05Z</time>
      </trkpt>
      <trkpt lat="42.51583" lon="0.10581">
        <ele>709</ele>
        <time>2021-06-19T04:32:08Z</time>
      </trkpt>
      <trkpt lat="42.51599" lon="0.10609">
        <ele>709</ele>
        <time>2021-06-19T04:32:14Z</time>
      </trkpt>
      <trkpt lat="42.51605" lon="0.10647">
        <ele>712</ele>
        <time>2021-06-19T04:32:21Z</time>
      </trkpt>
      <trkpt lat="42.51619" lon="0.10701">
        <ele>709</ele>
        <time>2021-06-19T04:32:31Z</time>
      </trkpt>
      <trkpt lat="42.5163" lon="0.1074">
        <ele>704</ele>
        <time>2021-06-19T04:32:38Z</time>
      </trkpt>
      <trkpt lat="42.51637" lon="0.10752">
        <ele>699</ele>
        <time>2021-06-19T04:32:41Z</time>
      </trkpt>
      <trkpt lat="42.51656" lon="0.10768">
        <ele>685</ele>
        <time>2021-06-19T04:32:46Z</time>
      </trkpt>
      <trkpt lat="42.51668" lon="0.10774">
        <ele>679</ele>
        <time>2021-06-19T04:32:49Z</time>
      </trkpt>
      <trkpt lat="42.51691" lon="0.10783">
        <ele>677</ele>
        <time>2021-06-19T04:32:55Z</time>
      </trkpt>
      <trkpt lat="42.51774" lon="0.10802">
        <ele>668</ele>
        <time>2021-06-19T04:33:14Z</time>
      </trkpt>
      <trkpt lat="42.51783" lon="0.1081">
        <ele>667</ele>
        <time>2021-06-19T04:33:17Z</time>
      </trkpt>
      <trkpt lat="42.51787" lon="0.10819">
        <ele>667</ele>
        <time>2021-06-19T04:33:19Z</time>
      </trkpt>
      <trkpt lat="42.51788" lon="0.10831">
        <ele>667</ele>
        <time>2021-06-19T04:33:21Z</time>
      </trkpt>
      <trkpt lat="42.51777" lon="0.10867">
        <ele>668</ele>
        <time>2021-06-19T04:33:27Z</time>
      </trkpt>
      <trkpt lat="42.51772" lon="0.10895">
        <ele>666</ele>
        <time>2021-06-19T04:33:32Z</time>
      </trkpt>
      <trkpt lat="42.51776" lon="0.1095">
        <ele>678</ele>
        <time>2021-06-19T04:33:42Z</time>
      </trkpt>
      <trkpt lat="42.51771" lon="0.10965">
        <ele>683</ele>
        <time>2021-06-19T04:33:45Z</time>
      </trkpt>
      <trkpt lat="42.51762" lon="0.10974">
        <ele>684</ele>
        <time>2021-06-19T04:33:47Z</time>
      </trkpt>
      <trkpt lat="42.51755" lon="0.10977">
        <ele>684</ele>
        <time>2021-06-19T04:33:49Z</time>
      </trkpt>
      <trkpt lat="42.51736" lon="0.10977">
        <ele>683</ele>
        <time>2021-06-19T04:33:53Z</time>
      </trkpt>
      <trkpt lat="42.51665" lon="0.10961">
        <ele>679</ele>
        <time>2021-06-19T04:34:10Z</time>
      </trkpt>
      <trkpt lat="42.51634" lon="0.10967">
        <ele>677</ele>
        <time>2021-06-19T04:34:18Z</time>
      </trkpt>
      <trkpt lat="42.51606" lon="0.10979">
        <ele>675</ele>
        <time>2021-06-19T04:34:24Z</time>
      </trkpt>
      <trkpt lat="42.5151" lon="0.11026">
        <ele>666</ele>
        <time>2021-06-19T04:34:48Z</time>
      </trkpt>
      <trkpt lat="42.51482" lon="0.11047">
        <ele>668</ele>
        <time>2021-06-19T04:34:56Z</time>
      </trkpt>
      <trkpt lat="42.51465" lon="0.11069">
        <ele>669</ele>
        <time>2021-06-19T04:35:01Z</time>
      </trkpt>
      <trkpt lat="42.51448" lon="0.11104">
        <ele>667</ele>
        <time>2021-06-19T04:35:08Z</time>
      </trkpt>
      <trkpt lat="42.5144" lon="0.11129">
        <ele>665</ele>
        <time>2021-06-19T04:35:13Z</time>
      </trkpt>
      <trkpt lat="42.51435" lon="0.11176">
        <ele>663</ele>
        <time>2021-06-19T04:35:21Z</time>
      </trkpt>
      <trkpt lat="42.51437" lon="0.11202">
        <ele>663</ele>
        <time>2021-06-19T04:35:26Z</time>
      </trkpt>
      <trkpt lat="42.51444" lon="0.1123">
        <ele>665</ele>
        <time>2021-06-19T04:35:31Z</time>
      </trkpt>
      <trkpt lat="42.51446" lon="0.11254">
        <ele>665</ele>
        <time>2021-06-19T04:35:35Z</time>
      </trkpt>
      <trkpt lat="42.51441" lon="0.11276">
        <ele>663</ele>
        <time>2021-06-19T04:35:39Z</time>
      </trkpt>
      <trkpt lat="42.51434" lon="0.11294">
        <ele>660</ele>
        <time>2021-06-19T04:35:43Z</time>
      </trkpt>
      <trkpt lat="42.51433" lon="0.11318">
        <ele>660</ele>
        <time>2021-06-19T04:35:47Z</time>
      </trkpt>
      <trkpt lat="42.51435" lon="0.11344">
        <ele>660</ele>
        <time>2021-06-19T04:35:51Z</time>
      </trkpt>
      <trkpt lat="42.51481" lon="0.11504">
        <ele>668</ele>
        <time>2021-06-19T04:36:21Z</time>
      </trkpt>
      <trkpt lat="42.51482" lon="0.11581">
        <ele>666</ele>
        <time>2021-06-19T04:36:34Z</time>
      </trkpt>
      <trkpt lat="42.51476" lon="0.11601">
        <ele>668</ele>
        <time>2021-06-19T04:36:38Z</time>
      </trkpt>
      <trkpt lat="42.51462" lon="0.11629">
        <ele>668</ele>
        <time>2021-06-19T04:36:44Z</time>
      </trkpt>
      <trkpt lat="42.51428" lon="0.11676">
        <ele>662</ele>
        <time>2021-06-19T04:36:55Z</time>
      </trkpt>
      <trkpt lat="42.51383" lon="0.11709">
        <ele>664</ele>
        <time>2021-06-19T04:37:07Z</time>
      </trkpt>
      <trkpt lat="42.51332" lon="0.11738">
        <ele>657</ele>
        <time>2021-06-19T04:37:20Z</time>
      </trkpt>
      <trkpt lat="42.51281" lon="0.11778">
        <ele>657</ele>
        <time>2021-06-19T04:37:33Z</time>
      </trkpt>
      <trkpt lat="42.51243" lon="0.11817">
        <ele>655</ele>
        <time>2021-06-19T04:37:45Z</time>
      </trkpt>
      <trkpt lat="42.51223" lon="0.11857">
        <ele>658</ele>
        <time>2021-06-19T04:37:53Z</time>
      </trkpt>
      <trkpt lat="42.51128" lon="0.12023">
        <ele>647</ele>
        <time>2021-06-19T04:38:29Z</time>
      </trkpt>
      <trkpt lat="42.51096" lon="0.121">
        <ele>639</ele>
        <time>2021-06-19T04:38:44Z</time>
      </trkpt>
      <trkpt lat="42.51091" lon="0.12119">
        <ele>638</ele>
        <time>2021-06-19T04:38:48Z</time>
      </trkpt>
      <trkpt lat="42.51091" lon="0.12154">
        <ele>637</ele>
        <time>2021-06-19T04:38:54Z</time>
      </trkpt>
      <trkpt lat="42.51116" lon="0.12216">
        <ele>641</ele>
        <time>2021-06-19T04:39:06Z</time>
      </trkpt>
      <trkpt lat="42.5112" lon="0.12238">
        <ele>641</ele>
        <time>2021-06-19T04:39:10Z</time>
      </trkpt>
      <trkpt lat="42.51117" lon="0.12395">
        <ele>641</ele>
        <time>2021-06-19T04:39:37Z</time>
      </trkpt>
      <trkpt lat="42.51127" lon="0.12418">
        <ele>641</ele>
        <time>2021-06-19T04:39:41Z</time>
      </trkpt>
      <trkpt lat="42.51152" lon="0.12434">
        <ele>642</ele>
        <time>2021-06-19T04:39:48Z</time>
      </trkpt>
      <trkpt lat="42.51164" lon="0.12447">
        <ele>641</ele>
        <time>2021-06-19T04:39:52Z</time>
      </trkpt>
      <trkpt lat="42.51182" lon="0.12475">
        <ele>638</ele>
        <time>2021-06-19T04:39:58Z</time>
      </trkpt>
      <trkpt lat="42.51186" lon="0.12488">
        <ele>636</ele>
        <time>2021-06-19T04:40:00Z</time>
      </trkpt>
      <trkpt lat="42.51186" lon="0.125">
        <ele>634</ele>
        <time>2021-06-19T04:40:02Z</time>
      </trkpt>
      <trkpt lat="42.51181" lon="0.12516">
        <ele>634</ele>
        <time>2021-06-19T04:40:05Z</time>
      </trkpt>
      <trkpt lat="42.51153" lon="0.12549">
        <ele>634</ele>
        <time>2021-06-19T04:40:14Z</time>
      </trkpt>
      <trkpt lat="42.51146" lon="0.12553">
        <ele>634</ele>
        <time>2021-06-19T04:40:16Z</time>
      </trkpt>
      <trkpt lat="42.51116" lon="0.12547">
        <ele>633</ele>
        <time>2021-06-19T04:40:23Z</time>
      </trkpt>
      <trkpt lat="42.51106" lon="0.1255">
        <ele>633</ele>
        <time>2021-06-19T04:40:25Z</time>
      </trkpt>
      <trkpt lat="42.51097" lon="0.1256">
        <ele>633</ele>
        <time>2021-06-19T04:40:28Z</time>
      </trkpt>
      <trkpt lat="42.51083" lon="0.12586">
        <ele>634</ele>
        <time>2021-06-19T04:40:34Z</time>
      </trkpt>
      <trkpt lat="42.50962" lon="0.12707">
        <ele>635</ele>
        <time>2021-06-19T04:41:09Z</time>
      </trkpt>
      <trkpt lat="42.50926" lon="0.12736">
        <ele>633</ele>
        <time>2021-06-19T04:41:18Z</time>
      </trkpt>
      <trkpt lat="42.50922" lon="0.12749">
        <ele>634</ele>
        <time>2021-06-19T04:41:21Z</time>
      </trkpt>
      <trkpt lat="42.50922" lon="0.12775">
        <ele>634</ele>
        <time>2021-06-19T04:41:25Z</time>
      </trkpt>
      <trkpt lat="42.50929" lon="0.12814">
        <ele>636</ele>
        <time>2021-06-19T04:41:32Z</time>
      </trkpt>
      <trkpt lat="42.50936" lon="0.12875">
        <ele>640</ele>
        <time>2021-06-19T04:41:43Z</time>
      </trkpt>
      <trkpt lat="42.50936" lon="0.12897">
        <ele>641</ele>
        <time>2021-06-19T04:41:47Z</time>
      </trkpt>
      <trkpt lat="42.50898" lon="0.12936">
        <ele>637</ele>
        <time>2021-06-19T04:41:58Z</time>
      </trkpt>
      <trkpt lat="42.50854" lon="0.13016">
        <ele>645</ele>
        <time>2021-06-19T04:42:15Z</time>
      </trkpt>
      <trkpt lat="42.5084" lon="0.13031">
        <ele>647</ele>
        <time>2021-06-19T04:42:19Z</time>
      </trkpt>
      <trkpt lat="42.50816" lon="0.13042">
        <ele>646</ele>
        <time>2021-06-19T04:42:25Z</time>
      </trkpt>
      <trkpt lat="42.50792" lon="0.13062">
        <ele>648</ele>
        <time>2021-06-19T04:42:32Z</time>
      </trkpt>
      <trkpt lat="42.5075" lon="0.13073">
        <ele>645</ele>
        <time>2021-06-19T04:42:42Z</time>
      </trkpt>
      <trkpt lat="42.50698" lon="0.13083">
        <ele>642</ele>
        <time>2021-06-19T04:42:54Z</time>
      </trkpt>
      <trkpt lat="42.50651" lon="0.131">
        <ele>643</ele>
        <time>2021-06-19T04:43:05Z</time>
      </trkpt>
      <trkpt lat="42.50581" lon="0.13142">
        <ele>647</ele>
        <time>2021-06-19T04:43:23Z</time>
      </trkpt>
      <trkpt lat="42.50516" lon="0.13204">
        <ele>648</ele>
        <time>2021-06-19T04:43:42Z</time>
      </trkpt>
      <trkpt lat="42.50456" lon="0.13248">
        <ele>645</ele>
        <time>2021-06-19T04:43:58Z</time>
      </trkpt>
      <trkpt lat="42.50433" lon="0.13271">
        <ele>641</ele>
        <time>2021-06-19T04:44:04Z</time>
      </trkpt>
      <trkpt lat="42.50419" lon="0.13303">
        <ele>641</ele>
        <time>2021-06-19T04:44:11Z</time>
      </trkpt>
      <trkpt lat="42.50401" lon="0.13397">
        <ele>643</ele>
        <time>2021-06-19T04:44:27Z</time>
      </trkpt>
      <trkpt lat="42.50404" lon="0.13476">
        <ele>650</ele>
        <time>2021-06-19T04:44:41Z</time>
      </trkpt>
      <trkpt lat="42.50399" lon="0.13505">
        <ele>650</ele>
        <time>2021-06-19T04:44:46Z</time>
      </trkpt>
      <trkpt lat="42.5035" lon="0.13662">
        <ele>644</ele>
        <time>2021-06-19T04:45:16Z</time>
      </trkpt>
      <trkpt lat="42.50338" lon="0.13682">
        <ele>644</ele>
        <time>2021-06-19T04:45:20Z</time>
      </trkpt>
      <trkpt lat="42.50311" lon="0.13708">
        <ele>640</ele>
        <time>2021-06-19T04:45:28Z</time>
      </trkpt>
      <trkpt lat="42.50276" lon="0.13763">
        <ele>635</ele>
        <time>2021-06-19T04:45:40Z</time>
      </trkpt>
      <trkpt lat="42.50255" lon="0.13804">
        <ele>631</ele>
        <time>2021-06-19T04:45:49Z</time>
      </trkpt>
      <trkpt lat="42.50252" lon="0.13828">
        <ele>632</ele>
        <time>2021-06-19T04:45:53Z</time>
      </trkpt>
      <trkpt lat="42.50249" lon="0.1392">
        <ele>633</ele>
        <time>2021-06-19T04:46:09Z</time>
      </trkpt>
      <trkpt lat="42.50237" lon="0.13945">
        <ele>633</ele>
        <time>2021-06-19T04:46:14Z</time>
      </trkpt>
      <trkpt lat="42.50222" lon="0.13967">
        <ele>632</ele>
        <time>2021-06-19T04:46:19Z</time>
      </trkpt>
      <trkpt lat="42.50152" lon="0.14055">
        <ele>626</ele>
        <time>2021-06-19T04:46:41Z</time>
      </trkpt>
      <trkpt lat="42.50115" lon="0.14109">
        <ele>624</ele>
        <time>2021-06-19T04:46:54Z</time>
      </trkpt>
      <trkpt lat="42.49997" lon="0.14386">
        <ele>614</ele>
        <time>2021-06-19T04:47:49Z</time>
      </trkpt>
      <trkpt lat="42.49983" lon="0.14406">
        <ele>613</ele>
        <time>2021-06-19T04:47:54Z</time>
      </trkpt>
      <trkpt lat="42.49982" lon="0.14411">
        <ele>612</ele>
        <time>2021-06-19T04:47:55Z</time>
      </trkpt>
      <trkpt lat="42.49992" lon="0.14428">
        <ele>612</ele>
        <time>2021-06-19T04:47:59Z</time>
      </trkpt>
      <trkpt lat="42.50135" lon="0.14517">
        <ele>620</ele>
        <time>2021-06-19T04:48:35Z</time>
      </trkpt>
      <trkpt lat="42.50194" lon="0.14546">
        <ele>623</ele>
        <time>2021-06-19T04:48:50Z</time>
      </trkpt>
      <trkpt lat="42.50206" lon="0.14565">
        <ele>621</ele>
        <time>2021-06-19T04:48:54Z</time>
      </trkpt>
      <trkpt lat="42.50305" lon="0.14628">
        <ele>615</ele>
        <time>2021-06-19T04:49:20Z</time>
      </trkpt>
      <trkpt lat="42.50312" lon="0.14639">
        <ele>614</ele>
        <time>2021-06-19T04:49:22Z</time>
      </trkpt>
      <trkpt lat="42.50326" lon="0.14682">
        <ele>611</ele>
        <time>2021-06-19T04:49:30Z</time>
      </trkpt>
      <trkpt lat="42.50336" lon="0.14696">
        <ele>611</ele>
        <time>2021-06-19T04:49:34Z</time>
      </trkpt>
      <trkpt lat="42.50355" lon="0.14714">
        <ele>610</ele>
        <time>2021-06-19T04:49:39Z</time>
      </trkpt>
      <trkpt lat="42.5037" lon="0.1472">
        <ele>610</ele>
        <time>2021-06-19T04:49:43Z</time>
      </trkpt>
      <trkpt lat="42.50385" lon="0.14716">
        <ele>610</ele>
        <time>2021-06-19T04:49:46Z</time>
      </trkpt>
      <trkpt lat="42.50394" lon="0.14707">
        <ele>610</ele>
        <time>2021-06-19T04:49:49Z</time>
      </trkpt>
      <trkpt lat="42.50402" lon="0.14716">
        <ele>609</ele>
        <time>2021-06-19T04:49:51Z</time>
      </trkpt>
      <trkpt lat="42.50415" lon="0.14721">
        <ele>609</ele>
        <time>2021-06-19T04:49:55Z</time>
      </trkpt>
      <trkpt lat="42.50443" lon="0.14718">
        <ele>609</ele>
        <time>2021-06-19T04:50:01Z</time>
      </trkpt>
      <trkpt lat="42.50451" lon="0.14725">
        <ele>609</ele>
        <time>2021-06-19T04:50:03Z</time>
      </trkpt>
      <trkpt lat="42.50455" lon="0.14739">
        <ele>609</ele>
        <time>2021-06-19T04:50:06Z</time>
      </trkpt>
      <trkpt lat="42.50499" lon="0.14731">
        <ele>609</ele>
        <time>2021-06-19T04:50:16Z</time>
      </trkpt>
      <trkpt lat="42.50528" lon="0.14718">
        <ele>609</ele>
        <time>2021-06-19T04:50:23Z</time>
      </trkpt>
      <trkpt lat="42.50577" lon="0.14684">
        <ele>609</ele>
        <time>2021-06-19T04:50:36Z</time>
      </trkpt>
      <trkpt lat="42.50591" lon="0.1469">
        <ele>608</ele>
        <time>2021-06-19T04:50:40Z</time>
      </trkpt>
      <trkpt lat="42.50584" lon="0.14817">
        <ele>609</ele>
        <time>2021-06-19T04:51:02Z</time>
      </trkpt>
      <trkpt lat="42.50579" lon="0.14861">
        <ele>614</ele>
        <time>2021-06-19T04:51:09Z</time>
      </trkpt>
      <trkpt lat="42.50619" lon="0.14853">
        <ele>618</ele>
        <time>2021-06-19T04:51:19Z</time>
      </trkpt>
      <trkpt lat="42.5066" lon="0.14829">
        <ele>617</ele>
        <time>2021-06-19T04:51:29Z</time>
      </trkpt>
      <trkpt lat="42.50679" lon="0.14796">
        <ele>613</ele>
        <time>2021-06-19T04:51:36Z</time>
      </trkpt>
      <trkpt lat="42.50702" lon="0.14791">
        <ele>615</ele>
        <time>2021-06-19T04:51:42Z</time>
      </trkpt>
      <trkpt lat="42.50722" lon="0.14778">
        <ele>614</ele>
        <time>2021-06-19T04:51:47Z</time>
      </trkpt>
      <trkpt lat="42.50757" lon="0.14779">
        <ele>617</ele>
        <time>2021-06-19T04:51:55Z</time>
      </trkpt>
      <trkpt lat="42.50776" lon="0.14777">
        <ele>618</ele>
        <time>2021-06-19T04:52:00Z</time>
      </trkpt>
      <trkpt lat="42.50789" lon="0.14779">
        <ele>619</ele>
        <time>2021-06-19T04:52:03Z</time>
      </trkpt>
      <trkpt lat="42.50829" lon="0.14769">
        <ele>619</ele>
        <time>2021-06-19T04:52:12Z</time>
      </trkpt>
      <trkpt lat="42.50867" lon="0.14737">
        <ele>613</ele>
        <time>2021-06-19T04:52:23Z</time>
      </trkpt>
      <trkpt lat="42.50894" lon="0.14733">
        <ele>614</ele>
        <time>2021-06-19T04:52:29Z</time>
      </trkpt>
      <trkpt lat="42.50911" lon="0.14724">
        <ele>614</ele>
        <time>2021-06-19T04:52:33Z</time>
      </trkpt>
      <trkpt lat="42.50975" lon="0.1467">
        <ele>610</ele>
        <time>2021-06-19T04:52:51Z</time>
      </trkpt>
      <trkpt lat="42.50994" lon="0.14662">
        <ele>610</ele>
        <time>2021-06-19T04:52:56Z</time>
      </trkpt>
      <trkpt lat="42.51033" lon="0.14625">
        <ele>613</ele>
        <time>2021-06-19T04:53:07Z</time>
      </trkpt>
      <trkpt lat="42.51051" lon="0.14613">
        <ele>614</ele>
        <time>2021-06-19T04:53:11Z</time>
      </trkpt>
      <trkpt lat="42.51073" lon="0.14616">
        <ele>616</ele>
        <time>2021-06-19T04:53:17Z</time>
      </trkpt>
      <trkpt lat="42.51092" lon="0.14633">
        <ele>621</ele>
        <time>2021-06-19T04:53:22Z</time>
      </trkpt>
      <trkpt lat="42.51104" lon="0.14636">
        <ele>622</ele>
        <time>2021-06-19T04:53:25Z</time>
      </trkpt>
      <trkpt lat="42.51141" lon="0.1463">
        <ele>626</ele>
        <time>2021-06-19T04:53:33Z</time>
      </trkpt>
      <trkpt lat="42.51174" lon="0.14632">
        <ele>629</ele>
        <time>2021-06-19T04:53:41Z</time>
      </trkpt>
      <trkpt lat="42.51215" lon="0.14641">
        <ele>627</ele>
        <time>2021-06-19T04:53:51Z</time>
      </trkpt>
      <trkpt lat="42.51253" lon="0.14658">
        <ele>626</ele>
        <time>2021-06-19T04:54:00Z</time>
      </trkpt>
      <trkpt lat="42.51274" lon="0.14693">
        <ele>630</ele>
        <time>2021-06-19T04:54:08Z</time>
      </trkpt>
      <trkpt lat="42.51281" lon="0.147">
        <ele>630</ele>
        <time>2021-06-19T04:54:10Z</time>
      </trkpt>
      <trkpt lat="42.51289" lon="0.14698">
        <ele>628</ele>
        <time>2021-06-19T04:54:12Z</time>
      </trkpt>
      <trkpt lat="42.51302" lon="0.14681">
        <ele>624</ele>
        <time>2021-06-19T04:54:16Z</time>
      </trkpt>
      <trkpt lat="42.5133" lon="0.14628">
        <ele>617</ele>
        <time>2021-06-19T04:54:27Z</time>
      </trkpt>
      <trkpt lat="42.51349" lon="0.14623">
        <ele>616</ele>
        <time>2021-06-19T04:54:32Z</time>
      </trkpt>
      <trkpt lat="42.51401" lon="0.14637">
        <ele>618</ele>
        <time>2021-06-19T04:54:44Z</time>
      </trkpt>
      <trkpt lat="42.51432" lon="0.14639">
        <ele>619</ele>
        <time>2021-06-19T04:54:51Z</time>
      </trkpt>
      <trkpt lat="42.51488" lon="0.14614">
        <ele>619</ele>
        <time>2021-06-19T04:55:05Z</time>
      </trkpt>
      <trkpt lat="42.51537" lon="0.14608">
        <ele>620</ele>
        <time>2021-06-19T04:55:17Z</time>
      </trkpt>
      <trkpt lat="42.5156" lon="0.14572">
        <ele>617</ele>
        <time>2021-06-19T04:55:25Z</time>
      </trkpt>
      <trkpt lat="42.51644" lon="0.14504">
        <ele>618</ele>
        <time>2021-06-19T04:55:48Z</time>
      </trkpt>
      <trkpt lat="42.51668" lon="0.14499">
        <ele>618</ele>
        <time>2021-06-19T04:55:53Z</time>
      </trkpt>
      <trkpt lat="42.51736" lon="0.14433">
        <ele>619</ele>
        <time>2021-06-19T04:56:13Z</time>
      </trkpt>
      <trkpt lat="42.51771" lon="0.14431">
        <ele>624</ele>
        <time>2021-06-19T04:56:21Z</time>
      </trkpt>
      <trkpt lat="42.51862" lon="0.14357">
        <ele>634</ele>
        <time>2021-06-19T04:56:46Z</time>
      </trkpt>
      <trkpt lat="42.51871" lon="0.14344">
        <ele>635</ele>
        <time>2021-06-19T04:56:49Z</time>
      </trkpt>
      <trkpt lat="42.51886" lon="0.14334">
        <ele>638</ele>
        <time>2021-06-19T04:56:53Z</time>
      </trkpt>
      <trkpt lat="42.51901" lon="0.14295">
        <ele>636</ele>
        <time>2021-06-19T04:57:00Z</time>
      </trkpt>
      <trkpt lat="42.51937" lon="0.14236">
        <ele>630</ele>
        <time>2021-06-19T04:57:14Z</time>
      </trkpt>
      <trkpt lat="42.51993" lon="0.14203">
        <ele>628</ele>
        <time>2021-06-19T04:57:28Z</time>
      </trkpt>
      <trkpt lat="42.52007" lon="0.14214">
        <ele>629</ele>
        <time>2021-06-19T04:57:32Z</time>
      </trkpt>
      <trkpt lat="42.52024" lon="0.14278">
        <ele>636</ele>
        <time>2021-06-19T04:57:43Z</time>
      </trkpt>
      <trkpt lat="42.52042" lon="0.14318">
        <ele>637</ele>
        <time>2021-06-19T04:57:51Z</time>
      </trkpt>
      <trkpt lat="42.52051" lon="0.14361">
        <ele>638</ele>
        <time>2021-06-19T04:57:59Z</time>
      </trkpt>
      <trkpt lat="42.52064" lon="0.14512">
        <ele>645</ele>
        <time>2021-06-19T04:58:25Z</time>
      </trkpt>
      <trkpt lat="42.52085" lon="0.14589">
        <ele>647</ele>
        <time>2021-06-19T04:58:39Z</time>
      </trkpt>
      <trkpt lat="42.52178" lon="0.14689">
        <ele>645</ele>
        <time>2021-06-19T04:59:07Z</time>
      </trkpt>
      <trkpt lat="42.52242" lon="0.14736">
        <ele>645</ele>
        <time>2021-06-19T04:59:24Z</time>
      </trkpt>
      <trkpt lat="42.52267" lon="0.1476">
        <ele>645</ele>
        <time>2021-06-19T04:59:31Z</time>
      </trkpt>
      <trkpt lat="42.52287" lon="0.1476">
        <ele>641</ele>
        <time>2021-06-19T04:59:36Z</time>
      </trkpt>
      <trkpt lat="42.52309" lon="0.14771">
        <ele>637</ele>
        <time>2021-06-19T04:59:41Z</time>
      </trkpt>
      <trkpt lat="42.52329" lon="0.14826">
        <ele>640</ele>
        <time>2021-06-19T04:59:52Z</time>
      </trkpt>
      <trkpt lat="42.52335" lon="0.14853">
        <ele>642</ele>
        <time>2021-06-19T04:59:57Z</time>
      </trkpt>
      <trkpt lat="42.52341" lon="0.14854">
        <ele>641</ele>
        <time>2021-06-19T04:59:58Z</time>
      </trkpt>
      <trkpt lat="42.52348" lon="0.14878">
        <ele>644</ele>
        <time>2021-06-19T05:00:03Z</time>
      </trkpt>
      <trkpt lat="42.52366" lon="0.14912">
        <ele>646</ele>
        <time>2021-06-19T05:00:10Z</time>
      </trkpt>
      <trkpt lat="42.5238" lon="0.14893">
        <ele>643</ele>
        <time>2021-06-19T05:00:14Z</time>
      </trkpt>
      <trkpt lat="42.52397" lon="0.14849">
        <ele>639</ele>
        <time>2021-06-19T05:00:23Z</time>
      </trkpt>
      <trkpt lat="42.52392" lon="0.14831">
        <ele>637</ele>
        <time>2021-06-19T05:00:26Z</time>
      </trkpt>
      <trkpt lat="42.52396" lon="0.14811">
        <ele>634</ele>
        <time>2021-06-19T05:00:30Z</time>
      </trkpt>
      <trkpt lat="42.52442" lon="0.14811">
        <ele>637</ele>
        <time>2021-06-19T05:00:41Z</time>
      </trkpt>
      <trkpt lat="42.52478" lon="0.14789">
        <ele>637</ele>
        <time>2021-06-19T05:00:50Z</time>
      </trkpt>
      <trkpt lat="42.52526" lon="0.14778">
        <ele>642</ele>
        <time>2021-06-19T05:01:01Z</time>
      </trkpt>
      <trkpt lat="42.52624" lon="0.14712">
        <ele>644</ele>
        <time>2021-06-19T05:01:27Z</time>
      </trkpt>
      <trkpt lat="42.52683" lon="0.14694">
        <ele>640</ele>
        <time>2021-06-19T05:01:41Z</time>
      </trkpt>
      <trkpt lat="42.52729" lon="0.14717">
        <ele>639</ele>
        <time>2021-06-19T05:01:52Z</time>
      </trkpt>
      <trkpt lat="42.52735" lon="0.14733">
        <ele>640</ele>
        <time>2021-06-19T05:01:55Z</time>
      </trkpt>
      <trkpt lat="42.52757" lon="0.14759">
        <ele>640</ele>
        <time>2021-06-19T05:02:02Z</time>
      </trkpt>
      <trkpt lat="42.52762" lon="0.148">
        <ele>644</ele>
        <time>2021-06-19T05:02:09Z</time>
      </trkpt>
      <trkpt lat="42.52776" lon="0.14872">
        <ele>650</ele>
        <time>2021-06-19T05:02:22Z</time>
      </trkpt>
      <trkpt lat="42.52806" lon="0.14934">
        <ele>648</ele>
        <time>2021-06-19T05:02:35Z</time>
      </trkpt>
      <trkpt lat="42.5285" lon="0.14993">
        <ele>652</ele>
        <time>2021-06-19T05:02:49Z</time>
      </trkpt>
      <trkpt lat="42.52958" lon="0.15096">
        <ele>648</ele>
        <time>2021-06-19T05:03:20Z</time>
      </trkpt>
      <trkpt lat="42.52947" lon="0.1516">
        <ele>655</ele>
        <time>2021-06-19T05:03:32Z</time>
      </trkpt>
      <trkpt lat="42.52955" lon="0.15267">
        <ele>657</ele>
        <time>2021-06-19T05:03:50Z</time>
      </trkpt>
      <trkpt lat="42.53047" lon="0.15333">
        <ele>648</ele>
        <time>2021-06-19T05:04:14Z</time>
      </trkpt>
      <trkpt lat="42.53081" lon="0.15365">
        <ele>651</ele>
        <time>2021-06-19T05:04:24Z</time>
      </trkpt>
      <trkpt lat="42.53099" lon="0.15412">
        <ele>658</ele>
        <time>2021-06-19T05:04:33Z</time>
      </trkpt>
      <trkpt lat="42.53145" lon="0.15486">
        <ele>659</ele>
        <time>2021-06-19T05:04:50Z</time>
      </trkpt>
      <trkpt lat="42.53181" lon="0.1555">
        <ele>664</ele>
        <time>2021-06-19T05:05:04Z</time>
      </trkpt>
      <trkpt lat="42.53209" lon="0.15557">
        <ele>659</ele>
        <time>2021-06-19T05:05:10Z</time>
      </trkpt>
      <trkpt lat="42.53238" lon="0.15546">
        <ele>650</ele>
        <time>2021-06-19T05:05:17Z</time>
      </trkpt>
      <trkpt lat="42.53257" lon="0.15573">
        <ele>651</ele>
        <time>2021-06-19T05:05:24Z</time>
      </trkpt>
      <trkpt lat="42.53313" lon="0.15729">
        <ele>662</ele>
        <time>2021-06-19T05:05:54Z</time>
      </trkpt>
      <trkpt lat="42.53353" lon="0.15807">
        <ele>657</ele>
        <time>2021-06-19T05:06:10Z</time>
      </trkpt>
      <trkpt lat="42.534" lon="0.15824">
        <ele>655</ele>
        <time>2021-06-19T05:06:21Z</time>
      </trkpt>
      <trkpt lat="42.5346" lon="0.15842">
        <ele>654</ele>
        <time>2021-06-19T05:06:36Z</time>
      </trkpt>
      <trkpt lat="42.53518" lon="0.15868">
        <ele>658</ele>
        <time>2021-06-19T05:06:50Z</time>
      </trkpt>
      <trkpt lat="42.53599" lon="0.15914">
        <ele>659</ele>
        <time>2021-06-19T05:07:11Z</time>
      </trkpt>
      <trkpt lat="42.53635" lon="0.15896">
        <ele>656</ele>
        <time>2021-06-19T05:07:19Z</time>
      </trkpt>
      <trkpt lat="42.5367" lon="0.1587">
        <ele>652</ele>
        <time>2021-06-19T05:07:29Z</time>
      </trkpt>
      <trkpt lat="42.53734" lon="0.15835">
        <ele>650</ele>
        <time>2021-06-19T05:07:45Z</time>
      </trkpt>
      <trkpt lat="42.53752" lon="0.15833">
        <ele>651</ele>
        <time>2021-06-19T05:07:49Z</time>
      </trkpt>
      <trkpt lat="42.538" lon="0.15844">
        <ele>657</ele>
        <time>2021-06-19T05:08:00Z</time>
      </trkpt>
      <trkpt lat="42.53841" lon="0.1587">
        <ele>667</ele>
        <time>2021-06-19T05:08:11Z</time>
      </trkpt>
      <trkpt lat="42.5388" lon="0.15905">
        <ele>671</ele>
        <time>2021-06-19T05:08:22Z</time>
      </trkpt>
      <trkpt lat="42.53907" lon="0.15925">
        <ele>672</ele>
        <time>2021-06-19T05:08:29Z</time>
      </trkpt>
      <trkpt lat="42.53975" lon="0.15965">
        <ele>673</ele>
        <time>2021-06-19T05:08:46Z</time>
      </trkpt>
      <trkpt lat="42.54031" lon="0.15972">
        <ele>663</ele>
        <time>2021-06-19T05:09:00Z</time>
      </trkpt>
      <trkpt lat="42.54055" lon="0.15979">
        <ele>660</ele>
        <time>2021-06-19T05:09:05Z</time>
      </trkpt>
      <trkpt lat="42.54155" lon="0.16031">
        <ele>667</ele>
        <time>2021-06-19T05:09:30Z</time>
      </trkpt>
      <trkpt lat="42.542" lon="0.16038">
        <ele>663</ele>
        <time>2021-06-19T05:09:41Z</time>
      </trkpt>
      <trkpt lat="42.54241" lon="0.16052">
        <ele>658</ele>
        <time>2021-06-19T05:09:51Z</time>
      </trkpt>
      <trkpt lat="42.54278" lon="0.16073">
        <ele>658</ele>
        <time>2021-06-19T05:10:00Z</time>
      </trkpt>
      <trkpt lat="42.54324" lon="0.16087">
        <ele>657</ele>
        <time>2021-06-19T05:10:11Z</time>
      </trkpt>
      <trkpt lat="42.54357" lon="0.16093">
        <ele>657</ele>
        <time>2021-06-19T05:10:19Z</time>
      </trkpt>
      <trkpt lat="42.54392" lon="0.16108">
        <ele>661</ele>
        <time>2021-06-19T05:10:28Z</time>
      </trkpt>
      <trkpt lat="42.54437" lon="0.16119">
        <ele>666</ele>
        <time>2021-06-19T05:10:38Z</time>
      </trkpt>
      <trkpt lat="42.54526" lon="0.16126">
        <ele>668</ele>
        <time>2021-06-19T05:10:59Z</time>
      </trkpt>
      <trkpt lat="42.54562" lon="0.16154">
        <ele>671</ele>
        <time>2021-06-19T05:11:09Z</time>
      </trkpt>
      <trkpt lat="42.54642" lon="0.16268">
        <ele>671</ele>
        <time>2021-06-19T05:11:36Z</time>
      </trkpt>
      <trkpt lat="42.54649" lon="0.1632">
        <ele>672</ele>
        <time>2021-06-19T05:11:45Z</time>
      </trkpt>
      <trkpt lat="42.54658" lon="0.16354">
        <ele>671</ele>
        <time>2021-06-19T05:11:51Z</time>
      </trkpt>
      <trkpt lat="42.54662" lon="0.16436">
        <ele>675</ele>
        <time>2021-06-19T05:12:05Z</time>
      </trkpt>
      <trkpt lat="42.5469" lon="0.16515">
        <ele>674</ele>
        <time>2021-06-19T05:12:20Z</time>
      </trkpt>
      <trkpt lat="42.547" lon="0.16635">
        <ele>676</ele>
        <time>2021-06-19T05:12:41Z</time>
      </trkpt>
      <trkpt lat="42.54699" lon="0.16697">
        <ele>676</ele>
        <time>2021-06-19T05:12:52Z</time>
      </trkpt>
      <trkpt lat="42.54702" lon="0.16749">
        <ele>677</ele>
        <time>2021-06-19T05:13:01Z</time>
      </trkpt>
      <trkpt lat="42.54735" lon="0.16878">
        <ele>671</ele>
        <time>2021-06-19T05:13:24Z</time>
      </trkpt>
      <trkpt lat="42.54757" lon="0.16933">
        <ele>668</ele>
        <time>2021-06-19T05:13:35Z</time>
      </trkpt>
      <trkpt lat="42.54767" lon="0.16995">
        <ele>676</ele>
        <time>2021-06-19T05:13:46Z</time>
      </trkpt>
      <trkpt lat="42.54763" lon="0.17116">
        <ele>681</ele>
        <time>2021-06-19T05:14:07Z</time>
      </trkpt>
      <trkpt lat="42.54747" lon="0.17165">
        <ele>678</ele>
        <time>2021-06-19T05:14:16Z</time>
      </trkpt>
      <trkpt lat="42.547" lon="0.17199">
        <ele>683</ele>
        <time>2021-06-19T05:14:28Z</time>
      </trkpt>
      <trkpt lat="42.54586" lon="0.17269">
        <ele>691</ele>
        <time>2021-06-19T05:14:58Z</time>
      </trkpt>
      <trkpt lat="42.54548" lon="0.17302">
        <ele>703</ele>
        <time>2021-06-19T05:15:08Z</time>
      </trkpt>
      <trkpt lat="42.54529" lon="0.17355">
        <ele>702</ele>
        <time>2021-06-19T05:15:18Z</time>
      </trkpt>
      <trkpt lat="42.54518" lon="0.17441">
        <ele>698</ele>
        <time>2021-06-19T05:15:33Z</time>
      </trkpt>
      <trkpt lat="42.5452" lon="0.17543">
        <ele>693</ele>
        <time>2021-06-19T05:15:51Z</time>
      </trkpt>
      <trkpt lat="42.54517" lon="0.17646">
        <ele>693</ele>
        <time>2021-06-19T05:16:09Z</time>
      </trkpt>
      <trkpt lat="42.54505" lon="0.17705">
        <ele>695</ele>
        <time>2021-06-19T05:16:19Z</time>
      </trkpt>
      <trkpt lat="42.54507" lon="0.17789">
        <ele>689</ele>
        <time>2021-06-19T05:16:34Z</time>
      </trkpt>
      <trkpt lat="42.5448" lon="0.17849">
        <ele>698</ele>
        <time>2021-06-19T05:16:46Z</time>
      </trkpt>
      <trkpt lat="42.54461" lon="0.17925">
        <ele>694</ele>
        <time>2021-06-19T05:17:00Z</time>
      </trkpt>
      <trkpt lat="42.5444" lon="0.17963">
        <ele>701</ele>
        <time>2021-06-19T05:17:08Z</time>
      </trkpt>
      <trkpt lat="42.54415" lon="0.18069">
        <ele>698</ele>
        <time>2021-06-19T05:17:27Z</time>
      </trkpt>
      <trkpt lat="42.54414" lon="0.18159">
        <ele>684</ele>
        <time>2021-06-19T05:17:42Z</time>
      </trkpt>
      <trkpt lat="42.54379" lon="0.18203">
        <ele>691</ele>
        <time>2021-06-19T05:17:53Z</time>
      </trkpt>
      <trkpt lat="42.54331" lon="0.18235">
        <ele>696</ele>
        <time>2021-06-19T05:18:06Z</time>
      </trkpt>
      <trkpt lat="42.54291" lon="0.18281">
        <ele>705</ele>
        <time>2021-06-19T05:18:18Z</time>
      </trkpt>
      <trkpt lat="42.54274" lon="0.1832">
        <ele>701</ele>
        <time>2021-06-19T05:18:26Z</time>
      </trkpt>
      <trkpt lat="42.54211" lon="0.18443">
        <ele>706</ele>
        <time>2021-06-19T05:18:52Z</time>
      </trkpt>
      <trkpt lat="42.54194" lon="0.18507">
        <ele>705</ele>
        <time>2021-06-19T05:19:03Z</time>
      </trkpt>
      <trkpt lat="42.54186" lon="0.18573">
        <ele>701</ele>
        <time>2021-06-19T05:19:15Z</time>
      </trkpt>
      <trkpt lat="42.54191" lon="0.18621">
        <ele>700</ele>
        <time>2021-06-19T05:19:23Z</time>
      </trkpt>
      <trkpt lat="42.54199" lon="0.1866">
        <ele>699</ele>
        <time>2021-06-19T05:19:30Z</time>
      </trkpt>
      <trkpt lat="42.54189" lon="0.18684">
        <ele>700</ele>
        <time>2021-06-19T05:19:35Z</time>
      </trkpt>
      <trkpt lat="42.5417" lon="0.18694">
        <ele>703</ele>
        <time>2021-06-19T05:19:40Z</time>
      </trkpt>
      <trkpt lat="42.54177" lon="0.1872">
        <ele>700</ele>
        <time>2021-06-19T05:19:45Z</time>
      </trkpt>
      <trkpt lat="42.54169" lon="0.18721">
        <ele>701</ele>
        <time>2021-06-19T05:19:46Z</time>
      </trkpt>
      <trkpt lat="42.54164" lon="0.18729">
        <ele>701</ele>
        <time>2021-06-19T05:19:48Z</time>
      </trkpt>
      <trkpt lat="42.54158" lon="0.18746">
        <ele>701</ele>
        <time>2021-06-19T05:19:51Z</time>
      </trkpt>
      <trkpt lat="42.5415" lon="0.18783">
        <ele>705</ele>
        <time>2021-06-19T05:19:58Z</time>
      </trkpt>
      <trkpt lat="42.54158" lon="0.18821">
        <ele>708</ele>
        <time>2021-06-19T05:20:05Z</time>
      </trkpt>
      <trkpt lat="42.54158" lon="0.1884">
        <ele>711</ele>
        <time>2021-06-19T05:20:08Z</time>
      </trkpt>
      <trkpt lat="42.54153" lon="0.18876">
        <ele>718</ele>
        <time>2021-06-19T05:20:14Z</time>
      </trkpt>
      <trkpt lat="42.54157" lon="0.18908">
        <ele>722</ele>
        <time>2021-06-19T05:20:20Z</time>
      </trkpt>
      <trkpt lat="42.54143" lon="0.18939">
        <ele>728</ele>
        <time>2021-06-19T05:20:26Z</time>
      </trkpt>
      <trkpt lat="42.5414" lon="0.18957">
        <ele>729</ele>
        <time>2021-06-19T05:20:29Z</time>
      </trkpt>
      <trkpt lat="42.5415" lon="0.19003">
        <ele>727</ele>
        <time>2021-06-19T05:20:38Z</time>
      </trkpt>
      <trkpt lat="42.54144" lon="0.19034">
        <ele>727</ele>
        <time>2021-06-19T05:20:43Z</time>
      </trkpt>
      <trkpt lat="42.54125" lon="0.19093">
        <ele>728</ele>
        <time>2021-06-19T05:20:54Z</time>
      </trkpt>
      <trkpt lat="42.54104" lon="0.19106">
        <ele>731</ele>
        <time>2021-06-19T05:21:00Z</time>
      </trkpt>
      <trkpt lat="42.54093" lon="0.19104">
        <ele>734</ele>
        <time>2021-06-19T05:21:02Z</time>
      </trkpt>
      <trkpt lat="42.5409" lon="0.19113">
        <ele>733</ele>
        <time>2021-06-19T05:21:04Z</time>
      </trkpt>
      <trkpt lat="42.54069" lon="0.19125">
        <ele>736</ele>
        <time>2021-06-19T05:21:09Z</time>
      </trkpt>
      <trkpt lat="42.54057" lon="0.19125">
        <ele>740</ele>
        <time>2021-06-19T05:21:12Z</time>
      </trkpt>
      <trkpt lat="42.54043" lon="0.19135">
        <ele>743</ele>
        <time>2021-06-19T05:21:16Z</time>
      </trkpt>
      <trkpt lat="42.54035" lon="0.19137">
        <ele>745</ele>
        <time>2021-06-19T05:21:18Z</time>
      </trkpt>
      <trkpt lat="42.54035" lon="0.19151">
        <ele>743</ele>
        <time>2021-06-19T05:21:20Z</time>
      </trkpt>
      <trkpt lat="42.54027" lon="0.19169">
        <ele>744</ele>
        <time>2021-06-19T05:21:24Z</time>
      </trkpt>
      <trkpt lat="42.54016" lon="0.19184">
        <ele>744</ele>
        <time>2021-06-19T05:21:27Z</time>
      </trkpt>
      <trkpt lat="42.5401" lon="0.19214">
        <ele>740</ele>
        <time>2021-06-19T05:21:33Z</time>
      </trkpt>
      <trkpt lat="42.53996" lon="0.19237">
        <ele>740</ele>
        <time>2021-06-19T05:21:38Z</time>
      </trkpt>
      <trkpt lat="42.54002" lon="0.19245">
        <ele>735</ele>
        <time>2021-06-19T05:21:40Z</time>
      </trkpt>
      <trkpt lat="42.54008" lon="0.19264">
        <ele>728</ele>
        <time>2021-06-19T05:21:43Z</time>
      </trkpt>
      <trkpt lat="42.54011" lon="0.19265">
        <ele>727</ele>
        <time>2021-06-19T05:21:44Z</time>
      </trkpt>
      <trkpt lat="42.5401" lon="0.19284">
        <ele>723</ele>
        <time>2021-06-19T05:21:47Z</time>
      </trkpt>
      <trkpt lat="42.54007" lon="0.19291">
        <ele>722</ele>
        <time>2021-06-19T05:21:49Z</time>
      </trkpt>
      <trkpt lat="42.53998" lon="0.19361">
        <ele>707</ele>
        <time>2021-06-19T05:22:01Z</time>
      </trkpt>
      <trkpt lat="42.54" lon="0.19369">
        <ele>704</ele>
        <time>2021-06-19T05:22:02Z</time>
      </trkpt>
      <trkpt lat="42.53997" lon="0.19397">
        <ele>699</ele>
        <time>2021-06-19T05:22:07Z</time>
      </trkpt>
      <trkpt lat="42.53991" lon="0.1941">
        <ele>698</ele>
        <time>2021-06-19T05:22:10Z</time>
      </trkpt>
      <trkpt lat="42.53994" lon="0.19434">
        <ele>694</ele>
        <time>2021-06-19T05:22:14Z</time>
      </trkpt>
      <trkpt lat="42.54001" lon="0.19459">
        <ele>692</ele>
        <time>2021-06-19T05:22:19Z</time>
      </trkpt>
      <trkpt lat="42.54008" lon="0.19474">
        <ele>693</ele>
        <time>2021-06-19T05:22:22Z</time>
      </trkpt>
      <trkpt lat="42.54008" lon="0.19516">
        <ele>696</ele>
        <time>2021-06-19T05:22:29Z</time>
      </trkpt>
      <trkpt lat="42.53994" lon="0.19556">
        <ele>701</ele>
        <time>2021-06-19T05:22:37Z</time>
      </trkpt>
      <trkpt lat="42.53976" lon="0.1958">
        <ele>702</ele>
        <time>2021-06-19T05:22:43Z</time>
      </trkpt>
      <trkpt lat="42.53963" lon="0.19621">
        <ele>707</ele>
        <time>2021-06-19T05:22:50Z</time>
      </trkpt>
      <trkpt lat="42.53962" lon="0.19638">
        <ele>710</ele>
        <time>2021-06-19T05:22:53Z</time>
      </trkpt>
      <trkpt lat="42.53964" lon="0.19645">
        <ele>712</ele>
        <time>2021-06-19T05:22:54Z</time>
      </trkpt>
      <trkpt lat="42.5397" lon="0.19644">
        <ele>713</ele>
        <time>2021-06-19T05:22:56Z</time>
      </trkpt>
      <trkpt lat="42.53969" lon="0.19676">
        <ele>720</ele>
        <time>2021-06-19T05:23:01Z</time>
      </trkpt>
      <trkpt lat="42.5398" lon="0.19721">
        <ele>736</ele>
        <time>2021-06-19T05:23:10Z</time>
      </trkpt>
      <trkpt lat="42.53991" lon="0.19792">
        <ele>766</ele>
        <time>2021-06-19T05:23:22Z</time>
      </trkpt>
      <trkpt lat="42.54017" lon="0.19841">
        <ele>781</ele>
        <time>2021-06-19T05:23:32Z</time>
      </trkpt>
      <trkpt lat="42.54037" lon="0.19866">
        <ele>780</ele>
        <time>2021-06-19T05:23:39Z</time>
      </trkpt>
      <trkpt lat="42.54042" lon="0.19915">
        <ele>792</ele>
        <time>2021-06-19T05:23:47Z</time>
      </trkpt>
      <trkpt lat="42.54059" lon="0.19983">
        <ele>802</ele>
        <time>2021-06-19T05:24:00Z</time>
      </trkpt>
      <trkpt lat="42.54079" lon="0.20094">
        <ele>817</ele>
        <time>2021-06-19T05:24:19Z</time>
      </trkpt>
      <trkpt lat="42.54107" lon="0.20207">
        <ele>840</ele>
        <time>2021-06-19T05:24:40Z</time>
      </trkpt>
      <trkpt lat="42.54129" lon="0.20229">
        <ele>838</ele>
        <time>2021-06-19T05:24:46Z</time>
      </trkpt>
      <trkpt lat="42.54148" lon="0.20241">
        <ele>836</ele>
        <time>2021-06-19T05:24:51Z</time>
      </trkpt>
      <trkpt lat="42.54172" lon="0.20244">
        <ele>830</ele>
        <time>2021-06-19T05:24:57Z</time>
      </trkpt>
      <trkpt lat="42.54206" lon="0.20225">
        <ele>820</ele>
        <time>2021-06-19T05:25:05Z</time>
      </trkpt>
      <trkpt lat="42.54222" lon="0.2022">
        <ele>817</ele>
        <time>2021-06-19T05:25:09Z</time>
      </trkpt>
      <trkpt lat="42.54248" lon="0.2025">
        <ele>823</ele>
        <time>2021-06-19T05:25:17Z</time>
      </trkpt>
      <trkpt lat="42.54271" lon="0.20267">
        <ele>828</ele>
        <time>2021-06-19T05:25:23Z</time>
      </trkpt>
      <trkpt lat="42.54279" lon="0.20283">
        <ele>833</ele>
        <time>2021-06-19T05:25:27Z</time>
      </trkpt>
      <trkpt lat="42.54313" lon="0.20303">
        <ele>837</ele>
        <time>2021-06-19T05:25:35Z</time>
      </trkpt>
      <trkpt lat="42.54332" lon="0.20332">
        <ele>844</ele>
        <time>2021-06-19T05:25:42Z</time>
      </trkpt>
      <trkpt lat="42.54363" lon="0.20372">
        <ele>853</ele>
        <time>2021-06-19T05:25:52Z</time>
      </trkpt>
      <trkpt lat="42.54401" lon="0.2041">
        <ele>860</ele>
        <time>2021-06-19T05:26:03Z</time>
      </trkpt>
      <trkpt lat="42.54434" lon="0.20432">
        <ele>863</ele>
        <time>2021-06-19T05:26:12Z</time>
      </trkpt>
      <trkpt lat="42.54468" lon="0.20473">
        <ele>876</ele>
        <time>2021-06-19T05:26:22Z</time>
      </trkpt>
      <trkpt lat="42.54488" lon="0.20501">
        <ele>885</ele>
        <time>2021-06-19T05:26:29Z</time>
      </trkpt>
      <trkpt lat="42.54508" lon="0.2049">
        <ele>878</ele>
        <time>2021-06-19T05:26:34Z</time>
      </trkpt>
      <trkpt lat="42.54531" lon="0.20483">
        <ele>875</ele>
        <time>2021-06-19T05:26:39Z</time>
      </trkpt>
      <trkpt lat="42.54548" lon="0.2049">
        <ele>877</ele>
        <time>2021-06-19T05:26:44Z</time>
      </trkpt>
      <trkpt lat="42.54583" lon="0.20491">
        <ele>877</ele>
        <time>2021-06-19T05:26:52Z</time>
      </trkpt>
      <trkpt lat="42.54583" lon="0.20518">
        <ele>890</ele>
        <time>2021-06-19T05:26:56Z</time>
      </trkpt>
      <trkpt lat="42.54578" lon="0.20539">
        <ele>900</ele>
        <time>2021-06-19T05:27:00Z</time>
      </trkpt>
      <trkpt lat="42.54594" lon="0.20559">
        <ele>908</ele>
        <time>2021-06-19T05:27:05Z</time>
      </trkpt>
      <trkpt lat="42.54619" lon="0.20559">
        <ele>904</ele>
        <time>2021-06-19T05:27:11Z</time>
      </trkpt>
      <trkpt lat="42.54661" lon="0.2062">
        <ele>915</ele>
        <time>2021-06-19T05:27:25Z</time>
      </trkpt>
      <trkpt lat="42.54676" lon="0.20625">
        <ele>909</ele>
        <time>2021-06-19T05:27:29Z</time>
      </trkpt>
      <trkpt lat="42.54683" lon="0.20695">
        <ele>922</ele>
        <time>2021-06-19T05:27:41Z</time>
      </trkpt>
      <trkpt lat="42.54722" lon="0.20818">
        <ele>948</ele>
        <time>2021-06-19T05:28:04Z</time>
      </trkpt>
      <trkpt lat="42.54751" lon="0.20852">
        <ele>953</ele>
        <time>2021-06-19T05:28:13Z</time>
      </trkpt>
      <trkpt lat="42.54764" lon="0.20856">
        <ele>956</ele>
        <time>2021-06-19T05:28:16Z</time>
      </trkpt>
      <trkpt lat="42.54786" lon="0.20874">
        <ele>966</ele>
        <time>2021-06-19T05:28:22Z</time>
      </trkpt>
      <trkpt lat="42.54805" lon="0.20899">
        <ele>978</ele>
        <time>2021-06-19T05:28:28Z</time>
      </trkpt>
      <trkpt lat="42.54828" lon="0.20937">
        <ele>998</ele>
        <time>2021-06-19T05:28:37Z</time>
      </trkpt>
      <trkpt lat="42.54842" lon="0.20971">
        <ele>1017</ele>
        <time>2021-06-19T05:28:44Z</time>
      </trkpt>
      <trkpt lat="42.54857" lon="0.20999">
        <ele>1032</ele>
        <time>2021-06-19T05:28:50Z</time>
      </trkpt>
      <trkpt lat="42.54873" lon="0.21008">
        <ele>1036</ele>
        <time>2021-06-19T05:28:54Z</time>
      </trkpt>
      <trkpt lat="42.54894" lon="0.20997">
        <ele>1029</ele>
        <time>2021-06-19T05:28:59Z</time>
      </trkpt>
      <trkpt lat="42.54911" lon="0.20997">
        <ele>1028</ele>
        <time>2021-06-19T05:29:03Z</time>
      </trkpt>
      <trkpt lat="42.54935" lon="0.21014">
        <ele>1030</ele>
        <time>2021-06-19T05:29:09Z</time>
      </trkpt>
      <trkpt lat="42.54958" lon="0.21025">
        <ele>1027</ele>
        <time>2021-06-19T05:29:15Z</time>
      </trkpt>
      <trkpt lat="42.54987" lon="0.21019">
        <ele>1013</ele>
        <time>2021-06-19T05:29:22Z</time>
      </trkpt>
      <trkpt lat="42.55013" lon="0.21021">
        <ele>1003</ele>
        <time>2021-06-19T05:29:28Z</time>
      </trkpt>
      <trkpt lat="42.55037" lon="0.2104">
        <ele>1000</ele>
        <time>2021-06-19T05:29:34Z</time>
      </trkpt>
      <trkpt lat="42.55053" lon="0.21048">
        <ele>996</ele>
        <time>2021-06-19T05:29:38Z</time>
      </trkpt>
      <trkpt lat="42.551" lon="0.2108">
        <ele>995</ele>
        <time>2021-06-19T05:29:51Z</time>
      </trkpt>
      <trkpt lat="42.55115" lon="0.21084">
        <ele>998</ele>
        <time>2021-06-19T05:29:54Z</time>
      </trkpt>
      <trkpt lat="42.55138" lon="0.21072">
        <ele>996</ele>
        <time>2021-06-19T05:30:00Z</time>
      </trkpt>
      <trkpt lat="42.55214" lon="0.21">
        <ele>974</ele>
        <time>2021-06-19T05:30:22Z</time>
      </trkpt>
      <trkpt lat="42.55238" lon="0.21008">
        <ele>981</ele>
        <time>2021-06-19T05:30:27Z</time>
      </trkpt>
      <trkpt lat="42.55288" lon="0.21035">
        <ele>991</ele>
        <time>2021-06-19T05:30:40Z</time>
      </trkpt>
      <trkpt lat="42.55309" lon="0.21071">
        <ele>1007</ele>
        <time>2021-06-19T05:30:48Z</time>
      </trkpt>
      <trkpt lat="42.5533" lon="0.21114">
        <ele>1027</ele>
        <time>2021-06-19T05:30:57Z</time>
      </trkpt>
      <trkpt lat="42.55354" lon="0.21175">
        <ele>1049</ele>
        <time>2021-06-19T05:31:09Z</time>
      </trkpt>
      <trkpt lat="42.55361" lon="0.21208">
        <ele>1072</ele>
        <time>2021-06-19T05:31:14Z</time>
      </trkpt>
      <trkpt lat="42.55401" lon="0.21264">
        <ele>1085</ele>
        <time>2021-06-19T05:31:28Z</time>
      </trkpt>
      <trkpt lat="42.5542" lon="0.2128">
        <ele>1083</ele>
        <time>2021-06-19T05:31:33Z</time>
      </trkpt>
      <trkpt lat="42.5545" lon="0.21287">
        <ele>1068</ele>
        <time>2021-06-19T05:31:40Z</time>
      </trkpt>
      <trkpt lat="42.55507" lon="0.21305">
        <ele>1049</ele>
        <time>2021-06-19T05:31:54Z</time>
      </trkpt>
      <trkpt lat="42.55523" lon="0.21304">
        <ele>1051</ele>
        <time>2021-06-19T05:31:58Z</time>
      </trkpt>
      <trkpt lat="42.55541" lon="0.21298">
        <ele>1052</ele>
        <time>2021-06-19T05:32:02Z</time>
      </trkpt>
      <trkpt lat="42.55557" lon="0.21298">
        <ele>1056</ele>
        <time>2021-06-19T05:32:06Z</time>
      </trkpt>
      <trkpt lat="42.55571" lon="0.21279">
        <ele>1050</ele>
        <time>2021-06-19T05:32:10Z</time>
      </trkpt>
      <trkpt lat="42.55581" lon="0.21258">
        <ele>1045</ele>
        <time>2021-06-19T05:32:15Z</time>
      </trkpt>
      <trkpt lat="42.55608" lon="0.21243">
        <ele>1048</ele>
        <time>2021-06-19T05:32:21Z</time>
      </trkpt>
      <trkpt lat="42.55622" lon="0.21241">
        <ele>1053</ele>
        <time>2021-06-19T05:32:25Z</time>
      </trkpt>
      <trkpt lat="42.55635" lon="0.21236">
        <ele>1055</ele>
        <time>2021-06-19T05:32:28Z</time>
      </trkpt>
      <trkpt lat="42.55649" lon="0.21243">
        <ele>1064</ele>
        <time>2021-06-19T05:32:31Z</time>
      </trkpt>
      <trkpt lat="42.55662" lon="0.21242">
        <ele>1068</ele>
        <time>2021-06-19T05:32:34Z</time>
      </trkpt>
      <trkpt lat="42.55681" lon="0.21248">
        <ele>1075</ele>
        <time>2021-06-19T05:32:39Z</time>
      </trkpt>
      <trkpt lat="42.55695" lon="0.21246">
        <ele>1075</ele>
        <time>2021-06-19T05:32:42Z</time>
      </trkpt>
      <trkpt lat="42.55723" lon="0.21219">
        <ele>1066</ele>
        <time>2021-06-19T05:32:50Z</time>
      </trkpt>
      <trkpt lat="42.55738" lon="0.21223">
        <ele>1069</ele>
        <time>2021-06-19T05:32:54Z</time>
      </trkpt>
      <trkpt lat="42.55781" lon="0.2129">
        <ele>1100</ele>
        <time>2021-06-19T05:33:09Z</time>
      </trkpt>
      <trkpt lat="42.55885" lon="0.21396">
        <ele>1129</ele>
        <time>2021-06-19T05:33:39Z</time>
      </trkpt>
      <trkpt lat="42.55933" lon="0.21429">
        <ele>1139</ele>
        <time>2021-06-19T05:33:52Z</time>
      </trkpt>
      <trkpt lat="42.55948" lon="0.21435">
        <ele>1140</ele>
        <time>2021-06-19T05:33:56Z</time>
      </trkpt>
      <trkpt lat="42.55965" lon="0.21453">
        <ele>1147</ele>
        <time>2021-06-19T05:34:01Z</time>
      </trkpt>
      <trkpt lat="42.55979" lon="0.21462">
        <ele>1149</ele>
        <time>2021-06-19T05:34:04Z</time>
      </trkpt>
      <trkpt lat="42.55991" lon="0.21463">
        <ele>1147</ele>
        <time>2021-06-19T05:34:07Z</time>
      </trkpt>
      <trkpt lat="42.55999" lon="0.21455">
        <ele>1142</ele>
        <time>2021-06-19T05:34:09Z</time>
      </trkpt>
      <trkpt lat="42.56042" lon="0.21476">
        <ele>1150</ele>
        <time>2021-06-19T05:34:20Z</time>
      </trkpt>
      <trkpt lat="42.56119" lon="0.21484">
        <ele>1152</ele>
        <time>2021-06-19T05:34:38Z</time>
      </trkpt>
      <trkpt lat="42.56136" lon="0.21495">
        <ele>1153</ele>
        <time>2021-06-19T05:34:43Z</time>
      </trkpt>
      <trkpt lat="42.56151" lon="0.21542">
        <ele>1164</ele>
        <time>2021-06-19T05:34:51Z</time>
      </trkpt>
      <trkpt lat="42.5615" lon="0.21575">
        <ele>1173</ele>
        <time>2021-06-19T05:34:57Z</time>
      </trkpt>
      <trkpt lat="42.56136" lon="0.21638">
        <ele>1184</ele>
        <time>2021-06-19T05:35:08Z</time>
      </trkpt>
      <trkpt lat="42.56139" lon="0.21666">
        <ele>1187</ele>
        <time>2021-06-19T05:35:13Z</time>
      </trkpt>
      <trkpt lat="42.56154" lon="0.2168">
        <ele>1185</ele>
        <time>2021-06-19T05:35:17Z</time>
      </trkpt>
      <trkpt lat="42.56166" lon="0.21704">
        <ele>1188</ele>
        <time>2021-06-19T05:35:22Z</time>
      </trkpt>
      <trkpt lat="42.56202" lon="0.21738">
        <ele>1197</ele>
        <time>2021-06-19T05:35:33Z</time>
      </trkpt>
      <trkpt lat="42.56211" lon="0.21736">
        <ele>1197</ele>
        <time>2021-06-19T05:35:35Z</time>
      </trkpt>
      <trkpt lat="42.56235" lon="0.21709">
        <ele>1192</ele>
        <time>2021-06-19T05:35:42Z</time>
      </trkpt>
      <trkpt lat="42.56242" lon="0.21707">
        <ele>1191</ele>
        <time>2021-06-19T05:35:44Z</time>
      </trkpt>
      <trkpt lat="42.56245" lon="0.21718">
        <ele>1194</ele>
        <time>2021-06-19T05:35:46Z</time>
      </trkpt>
      <trkpt lat="42.56263" lon="0.21724">
        <ele>1200</ele>
        <time>2021-06-19T05:35:50Z</time>
      </trkpt>
      <trkpt lat="42.56294" lon="0.21721">
        <ele>1208</ele>
        <time>2021-06-19T05:35:57Z</time>
      </trkpt>
      <trkpt lat="42.56305" lon="0.21709">
        <ele>1208</ele>
        <time>2021-06-19T05:36:01Z</time>
      </trkpt>
      <trkpt lat="42.5633" lon="0.21704">
        <ele>1213</ele>
        <time>2021-06-19T05:36:07Z</time>
      </trkpt>
      <trkpt lat="42.5638" lon="0.21687">
        <ele>1222</ele>
        <time>2021-06-19T05:36:19Z</time>
      </trkpt>
      <trkpt lat="42.56403" lon="0.21689">
        <ele>1230</ele>
        <time>2021-06-19T05:36:24Z</time>
      </trkpt>
      <trkpt lat="42.56418" lon="0.21674">
        <ele>1231</ele>
        <time>2021-06-19T05:36:28Z</time>
      </trkpt>
      <trkpt lat="42.56427" lon="0.21657">
        <ele>1231</ele>
        <time>2021-06-19T05:36:32Z</time>
      </trkpt>
      <trkpt lat="42.5646" lon="0.21614">
        <ele>1235</ele>
        <time>2021-06-19T05:36:43Z</time>
      </trkpt>
      <trkpt lat="42.56497" lon="0.21588">
        <ele>1243</ele>
        <time>2021-06-19T05:36:52Z</time>
      </trkpt>
      <trkpt lat="42.5651" lon="0.2157">
        <ele>1241</ele>
        <time>2021-06-19T05:36:57Z</time>
      </trkpt>
      <trkpt lat="42.56512" lon="0.21582">
        <ele>1246</ele>
        <time>2021-06-19T05:36:59Z</time>
      </trkpt>
      <trkpt lat="42.56508" lon="0.216">
        <ele>1251</ele>
        <time>2021-06-19T05:37:02Z</time>
      </trkpt>
      <trkpt lat="42.56487" lon="0.21637">
        <ele>1254</ele>
        <time>2021-06-19T05:37:10Z</time>
      </trkpt>
      <trkpt lat="42.56464" lon="0.2173">
        <ele>1268</ele>
        <time>2021-06-19T05:37:27Z</time>
      </trkpt>
      <trkpt lat="42.5645" lon="0.21772">
        <ele>1273</ele>
        <time>2021-06-19T05:37:35Z</time>
      </trkpt>
      <trkpt lat="42.5638" lon="0.21923">
        <ele>1296</ele>
        <time>2021-06-19T05:38:06Z</time>
      </trkpt>
      <trkpt lat="42.56369" lon="0.21957">
        <ele>1300</ele>
        <time>2021-06-19T05:38:12Z</time>
      </trkpt>
      <trkpt lat="42.56368" lon="0.22022">
        <ele>1312</ele>
        <time>2021-06-19T05:38:23Z</time>
      </trkpt>
      <trkpt lat="42.56373" lon="0.22048">
        <ele>1315</ele>
        <time>2021-06-19T05:38:28Z</time>
      </trkpt>
      <trkpt lat="42.56378" lon="0.22061">
        <ele>1316</ele>
        <time>2021-06-19T05:38:30Z</time>
      </trkpt>
      <trkpt lat="42.5638" lon="0.22078">
        <ele>1317</ele>
        <time>2021-06-19T05:38:33Z</time>
      </trkpt>
      <trkpt lat="42.56365" lon="0.22105">
        <ele>1317</ele>
        <time>2021-06-19T05:38:39Z</time>
      </trkpt>
      <trkpt lat="42.56314" lon="0.22228">
        <ele>1314</ele>
        <time>2021-06-19T05:39:03Z</time>
      </trkpt>
      <trkpt lat="42.56286" lon="0.2227">
        <ele>1316</ele>
        <time>2021-06-19T05:39:13Z</time>
      </trkpt>
      <trkpt lat="42.56274" lon="0.22293">
        <ele>1317</ele>
        <time>2021-06-19T05:39:18Z</time>
      </trkpt>
      <trkpt lat="42.56277" lon="0.22319">
        <ele>1314</ele>
        <time>2021-06-19T05:39:22Z</time>
      </trkpt>
      <trkpt lat="42.56294" lon="0.22406">
        <ele>1311</ele>
        <time>2021-06-19T05:39:38Z</time>
      </trkpt>
      <trkpt lat="42.563" lon="0.22464">
        <ele>1310</ele>
        <time>2021-06-19T05:39:48Z</time>
      </trkpt>
      <trkpt lat="42.56304" lon="0.22545">
        <ele>1310</ele>
        <time>2021-06-19T05:40:02Z</time>
      </trkpt>
      <trkpt lat="42.56304" lon="0.22631">
        <ele>1312</ele>
        <time>2021-06-19T05:40:17Z</time>
      </trkpt>
      <trkpt lat="42.563" lon="0.22733">
        <ele>1313</ele>
        <time>2021-06-19T05:40:34Z</time>
      </trkpt>
      <trkpt lat="42.56304" lon="0.22778">
        <ele>1313</ele>
        <time>2021-06-19T05:40:42Z</time>
      </trkpt>
      <trkpt lat="42.56325" lon="0.22869">
        <ele>1310</ele>
        <time>2021-06-19T05:40:59Z</time>
      </trkpt>
      <trkpt lat="42.56334" lon="0.22935">
        <ele>1308</ele>
        <time>2021-06-19T05:41:10Z</time>
      </trkpt>
      <trkpt lat="42.56346" lon="0.22968">
        <ele>1302</ele>
        <time>2021-06-19T05:41:16Z</time>
      </trkpt>
      <trkpt lat="42.56354" lon="0.23075">
        <ele>1297</ele>
        <time>2021-06-19T05:41:35Z</time>
      </trkpt>
      <trkpt lat="42.56365" lon="0.23131">
        <ele>1295</ele>
        <time>2021-06-19T05:41:45Z</time>
      </trkpt>
      <trkpt lat="42.56363" lon="0.23155">
        <ele>1296</ele>
        <time>2021-06-19T05:41:49Z</time>
      </trkpt>
      <trkpt lat="42.56355" lon="0.23164">
        <ele>1297</ele>
        <time>2021-06-19T05:41:51Z</time>
      </trkpt>
      <trkpt lat="42.56325" lon="0.2326">
        <ele>1302</ele>
        <time>2021-06-19T05:42:09Z</time>
      </trkpt>
      <trkpt lat="42.56334" lon="0.23295">
        <ele>1306</ele>
        <time>2021-06-19T05:42:16Z</time>
      </trkpt>
      <trkpt lat="42.56323" lon="0.23449">
        <ele>1314</ele>
        <time>2021-06-19T05:42:42Z</time>
      </trkpt>
      <trkpt lat="42.5632" lon="0.23475">
        <ele>1316</ele>
        <time>2021-06-19T05:42:47Z</time>
      </trkpt>
      <trkpt lat="42.56303" lon="0.23519">
        <ele>1314</ele>
        <time>2021-06-19T05:42:55Z</time>
      </trkpt>
      <trkpt lat="42.56289" lon="0.2358">
        <ele>1314</ele>
        <time>2021-06-19T05:43:06Z</time>
      </trkpt>
      <trkpt lat="42.5628" lon="0.23633">
        <ele>1312</ele>
        <time>2021-06-19T05:43:16Z</time>
      </trkpt>
      <trkpt lat="42.56281" lon="0.23653">
        <ele>1313</ele>
        <time>2021-06-19T05:43:19Z</time>
      </trkpt>
      <trkpt lat="42.56275" lon="0.23698">
        <ele>1313</ele>
        <time>2021-06-19T05:43:27Z</time>
      </trkpt>
      <trkpt lat="42.56264" lon="0.23737">
        <ele>1312</ele>
        <time>2021-06-19T05:43:34Z</time>
      </trkpt>
      <trkpt lat="42.56265" lon="0.23811">
        <ele>1306</ele>
        <time>2021-06-19T05:43:47Z</time>
      </trkpt>
      <trkpt lat="42.5626" lon="0.23816">
        <ele>1305</ele>
        <time>2021-06-19T05:43:49Z</time>
      </trkpt>
      <trkpt lat="42.56214" lon="0.23757">
        <ele>1312</ele>
        <time>2021-06-19T05:44:03Z</time>
      </trkpt>
      <trkpt lat="42.56191" lon="0.23744">
        <ele>1314</ele>
        <time>2021-06-19T05:44:09Z</time>
      </trkpt>
      <trkpt lat="42.56192" lon="0.2375">
        <ele>1314</ele>
        <time>2021-06-19T05:44:10Z</time>
      </trkpt>
      <trkpt lat="42.56176" lon="0.23759">
        <ele>1313</ele>
        <time>2021-06-19T05:44:14Z</time>
      </trkpt>
      <trkpt lat="42.56155" lon="0.23748">
        <ele>1317</ele>
        <time>2021-06-19T05:44:19Z</time>
      </trkpt>
      <trkpt lat="42.56138" lon="0.23747">
        <ele>1318</ele>
        <time>2021-06-19T05:44:23Z</time>
      </trkpt>
      <trkpt lat="42.56117" lon="0.23754">
        <ele>1318</ele>
        <time>2021-06-19T05:44:28Z</time>
      </trkpt>
      <trkpt lat="42.56094" lon="0.23768">
        <ele>1314</ele>
        <time>2021-06-19T05:44:34Z</time>
      </trkpt>
      <trkpt lat="42.56074" lon="0.23772">
        <ele>1315</ele>
        <time>2021-06-19T05:44:39Z</time>
      </trkpt>
      <trkpt lat="42.5606" lon="0.23779">
        <ele>1314</ele>
        <time>2021-06-19T05:44:43Z</time>
      </trkpt>
      <trkpt lat="42.56045" lon="0.23809">
        <ele>1306</ele>
        <time>2021-06-19T05:44:49Z</time>
      </trkpt>
      <trkpt lat="42.56038" lon="0.23816">
        <ele>1305</ele>
        <time>2021-06-19T05:44:51Z</time>
      </trkpt>
      <trkpt lat="42.55998" lon="0.23826">
        <ele>1308</ele>
        <time>2021-06-19T05:45:00Z</time>
      </trkpt>
      <trkpt lat="42.55982" lon="0.23844">
        <ele>1305</ele>
        <time>2021-06-19T05:45:05Z</time>
      </trkpt>
      <trkpt lat="42.55962" lon="0.23882">
        <ele>1296</ele>
        <time>2021-06-19T05:45:13Z</time>
      </trkpt>
      <trkpt lat="42.55948" lon="0.23898">
        <ele>1294</ele>
        <time>2021-06-19T05:45:18Z</time>
      </trkpt>
      <trkpt lat="42.55916" lon="0.23913">
        <ele>1298</ele>
        <time>2021-06-19T05:45:25Z</time>
      </trkpt>
      <trkpt lat="42.55882" lon="0.2395">
        <ele>1297</ele>
        <time>2021-06-19T05:45:36Z</time>
      </trkpt>
      <trkpt lat="42.5585" lon="0.23974">
        <ele>1302</ele>
        <time>2021-06-19T05:45:44Z</time>
      </trkpt>
      <trkpt lat="42.55844" lon="0.23995">
        <ele>1299</ele>
        <time>2021-06-19T05:45:48Z</time>
      </trkpt>
      <trkpt lat="42.55838" lon="0.2404">
        <ele>1287</ele>
        <time>2021-06-19T05:45:56Z</time>
      </trkpt>
      <trkpt lat="42.55828" lon="0.24064">
        <ele>1285</ele>
        <time>2021-06-19T05:46:01Z</time>
      </trkpt>
      <trkpt lat="42.55757" lon="0.24176">
        <ele>1277</ele>
        <time>2021-06-19T05:46:26Z</time>
      </trkpt>
      <trkpt lat="42.55741" lon="0.24207">
        <ele>1274</ele>
        <time>2021-06-19T05:46:33Z</time>
      </trkpt>
      <trkpt lat="42.55731" lon="0.24237">
        <ele>1268</ele>
        <time>2021-06-19T05:46:38Z</time>
      </trkpt>
      <trkpt lat="42.55711" lon="0.2427">
        <ele>1264</ele>
        <time>2021-06-19T05:46:46Z</time>
      </trkpt>
      <trkpt lat="42.55687" lon="0.24295">
        <ele>1263</ele>
        <time>2021-06-19T05:46:53Z</time>
      </trkpt>
      <trkpt lat="42.55617" lon="0.24342">
        <ele>1258</ele>
        <time>2021-06-19T05:47:11Z</time>
      </trkpt>
      <trkpt lat="42.55601" lon="0.24366">
        <ele>1252</ele>
        <time>2021-06-19T05:47:16Z</time>
      </trkpt>
      <trkpt lat="42.55589" lon="0.24379">
        <ele>1248</ele>
        <time>2021-06-19T05:47:20Z</time>
      </trkpt>
      <trkpt lat="42.55581" lon="0.24394">
        <ele>1243</ele>
        <time>2021-06-19T05:47:23Z</time>
      </trkpt>
      <trkpt lat="42.55522" lon="0.24438">
        <ele>1240</ele>
        <time>2021-06-19T05:47:39Z</time>
      </trkpt>
      <trkpt lat="42.55513" lon="0.24453">
        <ele>1238</ele>
        <time>2021-06-19T05:47:42Z</time>
      </trkpt>
      <trkpt lat="42.55476" lon="0.24539">
        <ele>1232</ele>
        <time>2021-06-19T05:47:59Z</time>
      </trkpt>
      <trkpt lat="42.55465" lon="0.24588">
        <ele>1225</ele>
        <time>2021-06-19T05:48:08Z</time>
      </trkpt>
      <trkpt lat="42.55454" lon="0.24617">
        <ele>1223</ele>
        <time>2021-06-19T05:48:14Z</time>
      </trkpt>
      <trkpt lat="42.55444" lon="0.24632">
        <ele>1223</ele>
        <time>2021-06-19T05:48:17Z</time>
      </trkpt>
      <trkpt lat="42.55443" lon="0.24644">
        <ele>1221</ele>
        <time>2021-06-19T05:48:19Z</time>
      </trkpt>
      <trkpt lat="42.5545" lon="0.24648">
        <ele>1217</ele>
        <time>2021-06-19T05:48:21Z</time>
      </trkpt>
      <trkpt lat="42.55481" lon="0.24606">
        <ele>1215</ele>
        <time>2021-06-19T05:48:31Z</time>
      </trkpt>
      <trkpt lat="42.55505" lon="0.24585">
        <ele>1211</ele>
        <time>2021-06-19T05:48:38Z</time>
      </trkpt>
      <trkpt lat="42.55542" lon="0.24544">
        <ele>1210</ele>
        <time>2021-06-19T05:48:49Z</time>
      </trkpt>
      <trkpt lat="42.55564" lon="0.24525">
        <ele>1209</ele>
        <time>2021-06-19T05:48:55Z</time>
      </trkpt>
      <trkpt lat="42.55571" lon="0.2453">
        <ele>1206</ele>
        <time>2021-06-19T05:48:57Z</time>
      </trkpt>
      <trkpt lat="42.55575" lon="0.24541">
        <ele>1203</ele>
        <time>2021-06-19T05:48:59Z</time>
      </trkpt>
      <trkpt lat="42.55554" lon="0.24584">
        <ele>1199</ele>
        <time>2021-06-19T05:49:08Z</time>
      </trkpt>
      <trkpt lat="42.55549" lon="0.24637">
        <ele>1190</ele>
        <time>2021-06-19T05:49:17Z</time>
      </trkpt>
      <trkpt lat="42.55549" lon="0.24675">
        <ele>1182</ele>
        <time>2021-06-19T05:49:24Z</time>
      </trkpt>
      <trkpt lat="42.55528" lon="0.24703">
        <ele>1180</ele>
        <time>2021-06-19T05:49:31Z</time>
      </trkpt>
      <trkpt lat="42.55514" lon="0.2473">
        <ele>1177</ele>
        <time>2021-06-19T05:49:36Z</time>
      </trkpt>
      <trkpt lat="42.55477" lon="0.24775">
        <ele>1174</ele>
        <time>2021-06-19T05:49:48Z</time>
      </trkpt>
      <trkpt lat="42.55475" lon="0.24794">
        <ele>1168</ele>
        <time>2021-06-19T05:49:51Z</time>
      </trkpt>
      <trkpt lat="42.55423" lon="0.24859">
        <ele>1157</ele>
        <time>2021-06-19T05:50:08Z</time>
      </trkpt>
      <trkpt lat="42.5541" lon="0.24889">
        <ele>1150</ele>
        <time>2021-06-19T05:50:14Z</time>
      </trkpt>
      <trkpt lat="42.55424" lon="0.24877">
        <ele>1151</ele>
        <time>2021-06-19T05:50:18Z</time>
      </trkpt>
      <trkpt lat="42.55444" lon="0.24868">
        <ele>1151</ele>
        <time>2021-06-19T05:50:23Z</time>
      </trkpt>
      <trkpt lat="42.55459" lon="0.24862">
        <ele>1151</ele>
        <time>2021-06-19T05:50:26Z</time>
      </trkpt>
      <trkpt lat="42.55482" lon="0.2486">
        <ele>1148</ele>
        <time>2021-06-19T05:50:32Z</time>
      </trkpt>
      <trkpt lat="42.55514" lon="0.2487">
        <ele>1142</ele>
        <time>2021-06-19T05:50:39Z</time>
      </trkpt>
      <trkpt lat="42.55546" lon="0.2487">
        <ele>1140</ele>
        <time>2021-06-19T05:50:47Z</time>
      </trkpt>
      <trkpt lat="42.55566" lon="0.24883">
        <ele>1137</ele>
        <time>2021-06-19T05:50:52Z</time>
      </trkpt>
      <trkpt lat="42.556" lon="0.24924">
        <ele>1132</ele>
        <time>2021-06-19T05:51:03Z</time>
      </trkpt>
      <trkpt lat="42.55618" lon="0.24941">
        <ele>1131</ele>
        <time>2021-06-19T05:51:08Z</time>
      </trkpt>
      <trkpt lat="42.55633" lon="0.2499">
        <ele>1127</ele>
        <time>2021-06-19T05:51:17Z</time>
      </trkpt>
      <trkpt lat="42.55676" lon="0.25025">
        <ele>1125</ele>
        <time>2021-06-19T05:51:28Z</time>
      </trkpt>
      <trkpt lat="42.55718" lon="0.25088">
        <ele>1113</ele>
        <time>2021-06-19T05:51:43Z</time>
      </trkpt>
      <trkpt lat="42.55721" lon="0.25103">
        <ele>1110</ele>
        <time>2021-06-19T05:51:46Z</time>
      </trkpt>
      <trkpt lat="42.55707" lon="0.2511">
        <ele>1109</ele>
        <time>2021-06-19T05:51:49Z</time>
      </trkpt>
      <trkpt lat="42.55687" lon="0.25085">
        <ele>1114</ele>
        <time>2021-06-19T05:51:56Z</time>
      </trkpt>
      <trkpt lat="42.55676" lon="0.25081">
        <ele>1114</ele>
        <time>2021-06-19T05:51:58Z</time>
      </trkpt>
      <trkpt lat="42.55652" lon="0.2508">
        <ele>1113</ele>
        <time>2021-06-19T05:52:04Z</time>
      </trkpt>
      <trkpt lat="42.55603" lon="0.25094">
        <ele>1106</ele>
        <time>2021-06-19T05:52:16Z</time>
      </trkpt>
      <trkpt lat="42.55585" lon="0.25103">
        <ele>1102</ele>
        <time>2021-06-19T05:52:20Z</time>
      </trkpt>
      <trkpt lat="42.55508" lon="0.25121">
        <ele>1097</ele>
        <time>2021-06-19T05:52:38Z</time>
      </trkpt>
      <trkpt lat="42.55476" lon="0.25135">
        <ele>1095</ele>
        <time>2021-06-19T05:52:46Z</time>
      </trkpt>
      <trkpt lat="42.55457" lon="0.25147">
        <ele>1093</ele>
        <time>2021-06-19T05:52:51Z</time>
      </trkpt>
      <trkpt lat="42.55428" lon="0.25178">
        <ele>1088</ele>
        <time>2021-06-19T05:53:00Z</time>
      </trkpt>
      <trkpt lat="42.55413" lon="0.25212">
        <ele>1083</ele>
        <time>2021-06-19T05:53:06Z</time>
      </trkpt>
      <trkpt lat="42.55396" lon="0.25272">
        <ele>1072</ele>
        <time>2021-06-19T05:53:18Z</time>
      </trkpt>
      <trkpt lat="42.55403" lon="0.25281">
        <ele>1070</ele>
        <time>2021-06-19T05:53:20Z</time>
      </trkpt>
      <trkpt lat="42.55417" lon="0.25284">
        <ele>1068</ele>
        <time>2021-06-19T05:53:23Z</time>
      </trkpt>
      <trkpt lat="42.5542" lon="0.2529">
        <ele>1067</ele>
        <time>2021-06-19T05:53:24Z</time>
      </trkpt>
      <trkpt lat="42.55419" lon="0.25296">
        <ele>1065</ele>
        <time>2021-06-19T05:53:25Z</time>
      </trkpt>
      <trkpt lat="42.55415" lon="0.253">
        <ele>1065</ele>
        <time>2021-06-19T05:53:27Z</time>
      </trkpt>
      <trkpt lat="42.55389" lon="0.25294">
        <ele>1067</ele>
        <time>2021-06-19T05:53:33Z</time>
      </trkpt>
      <trkpt lat="42.55321" lon="0.25297">
        <ele>1071</ele>
        <time>2021-06-19T05:53:49Z</time>
      </trkpt>
      <trkpt lat="42.55305" lon="0.25302">
        <ele>1074</ele>
        <time>2021-06-19T05:53:52Z</time>
      </trkpt>
      <trkpt lat="42.553" lon="0.25307">
        <ele>1074</ele>
        <time>2021-06-19T05:53:54Z</time>
      </trkpt>
      <trkpt lat="42.55298" lon="0.25314">
        <ele>1073</ele>
        <time>2021-06-19T05:53:55Z</time>
      </trkpt>
      <trkpt lat="42.55299" lon="0.25322">
        <ele>1071</ele>
        <time>2021-06-19T05:53:57Z</time>
      </trkpt>
      <trkpt lat="42.55303" lon="0.25327">
        <ele>1069</ele>
        <time>2021-06-19T05:53:58Z</time>
      </trkpt>
      <trkpt lat="42.55306" lon="0.25327">
        <ele>1068</ele>
        <time>2021-06-19T05:53:59Z</time>
      </trkpt>
      <trkpt lat="42.55315" lon="0.25316">
        <ele>1069</ele>
        <time>2021-06-19T05:54:01Z</time>
      </trkpt>
      <trkpt lat="42.55325" lon="0.25314">
        <ele>1067</ele>
        <time>2021-06-19T05:54:04Z</time>
      </trkpt>
      <trkpt lat="42.554" lon="0.25337">
        <ele>1056</ele>
        <time>2021-06-19T05:54:22Z</time>
      </trkpt>
      <trkpt lat="42.5542" lon="0.25349">
        <ele>1051</ele>
        <time>2021-06-19T05:54:27Z</time>
      </trkpt>
      <trkpt lat="42.55438" lon="0.25355">
        <ele>1049</ele>
        <time>2021-06-19T05:54:31Z</time>
      </trkpt>
      <trkpt lat="42.55455" lon="0.2535">
        <ele>1050</ele>
        <time>2021-06-19T05:54:35Z</time>
      </trkpt>
      <trkpt lat="42.55466" lon="0.25341">
        <ele>1053</ele>
        <time>2021-06-19T05:54:38Z</time>
      </trkpt>
      <trkpt lat="42.55477" lon="0.25338">
        <ele>1054</ele>
        <time>2021-06-19T05:54:41Z</time>
      </trkpt>
      <trkpt lat="42.55485" lon="0.25338">
        <ele>1054</ele>
        <time>2021-06-19T05:54:43Z</time>
      </trkpt>
      <trkpt lat="42.55505" lon="0.2535">
        <ele>1049</ele>
        <time>2021-06-19T05:54:48Z</time>
      </trkpt>
      <trkpt lat="42.55511" lon="0.2535">
        <ele>1049</ele>
        <time>2021-06-19T05:54:49Z</time>
      </trkpt>
      <trkpt lat="42.55539" lon="0.25329">
        <ele>1054</ele>
        <time>2021-06-19T05:54:57Z</time>
      </trkpt>
      <trkpt lat="42.55549" lon="0.25326">
        <ele>1054</ele>
        <time>2021-06-19T05:54:59Z</time>
      </trkpt>
      <trkpt lat="42.55571" lon="0.25337">
        <ele>1050</ele>
        <time>2021-06-19T05:55:05Z</time>
      </trkpt>
      <trkpt lat="42.55593" lon="0.25344">
        <ele>1048</ele>
        <time>2021-06-19T05:55:10Z</time>
      </trkpt>
      <trkpt lat="42.55601" lon="0.25344">
        <ele>1048</ele>
        <time>2021-06-19T05:55:12Z</time>
      </trkpt>
      <trkpt lat="42.55606" lon="0.25351">
        <ele>1046</ele>
        <time>2021-06-19T05:55:13Z</time>
      </trkpt>
      <trkpt lat="42.55606" lon="0.25355">
        <ele>1045</ele>
        <time>2021-06-19T05:55:14Z</time>
      </trkpt>
      <trkpt lat="42.55597" lon="0.25365">
        <ele>1041</ele>
        <time>2021-06-19T05:55:17Z</time>
      </trkpt>
      <trkpt lat="42.55567" lon="0.25362">
        <ele>1042</ele>
        <time>2021-06-19T05:55:24Z</time>
      </trkpt>
      <trkpt lat="42.55555" lon="0.25362">
        <ele>1043</ele>
        <time>2021-06-19T05:55:27Z</time>
      </trkpt>
      <trkpt lat="42.55548" lon="0.25365">
        <ele>1042</ele>
        <time>2021-06-19T05:55:28Z</time>
      </trkpt>
      <trkpt lat="42.55524" lon="0.25393">
        <ele>1035</ele>
        <time>2021-06-19T05:55:36Z</time>
      </trkpt>
      <trkpt lat="42.5551" lon="0.25399">
        <ele>1033</ele>
        <time>2021-06-19T05:55:39Z</time>
      </trkpt>
      <trkpt lat="42.55497" lon="0.25402">
        <ele>1033</ele>
        <time>2021-06-19T05:55:42Z</time>
      </trkpt>
      <trkpt lat="42.55487" lon="0.254">
        <ele>1033</ele>
        <time>2021-06-19T05:55:45Z</time>
      </trkpt>
      <trkpt lat="42.55481" lon="0.25395">
        <ele>1035</ele>
        <time>2021-06-19T05:55:46Z</time>
      </trkpt>
      <trkpt lat="42.55474" lon="0.25395">
        <ele>1035</ele>
        <time>2021-06-19T05:55:48Z</time>
      </trkpt>
      <trkpt lat="42.55468" lon="0.25397">
        <ele>1034</ele>
        <time>2021-06-19T05:55:49Z</time>
      </trkpt>
      <trkpt lat="42.55452" lon="0.25412">
        <ele>1029</ele>
        <time>2021-06-19T05:55:54Z</time>
      </trkpt>
      <trkpt lat="42.55443" lon="0.25415">
        <ele>1028</ele>
        <time>2021-06-19T05:55:56Z</time>
      </trkpt>
      <trkpt lat="42.55412" lon="0.25416">
        <ele>1028</ele>
        <time>2021-06-19T05:56:03Z</time>
      </trkpt>
      <trkpt lat="42.55404" lon="0.25419">
        <ele>1028</ele>
        <time>2021-06-19T05:56:05Z</time>
      </trkpt>
      <trkpt lat="42.55375" lon="0.25439">
        <ele>1028</ele>
        <time>2021-06-19T05:56:13Z</time>
      </trkpt>
      <trkpt lat="42.55364" lon="0.25458">
        <ele>1026</ele>
        <time>2021-06-19T05:56:17Z</time>
      </trkpt>
      <trkpt lat="42.55361" lon="0.25473">
        <ele>1024</ele>
        <time>2021-06-19T05:56:20Z</time>
      </trkpt>
      <trkpt lat="42.55361" lon="0.25506">
        <ele>1020</ele>
        <time>2021-06-19T05:56:25Z</time>
      </trkpt>
      <trkpt lat="42.55366" lon="0.25561">
        <ele>1017</ele>
        <time>2021-06-19T05:56:35Z</time>
      </trkpt>
      <trkpt lat="42.55393" lon="0.25607">
        <ele>1010</ele>
        <time>2021-06-19T05:56:45Z</time>
      </trkpt>
      <trkpt lat="42.55404" lon="0.25618">
        <ele>1007</ele>
        <time>2021-06-19T05:56:48Z</time>
      </trkpt>
      <trkpt lat="42.55428" lon="0.25652">
        <ele>1004</ele>
        <time>2021-06-19T05:56:56Z</time>
      </trkpt>
      <trkpt lat="42.55445" lon="0.25693">
        <ele>1003</ele>
        <time>2021-06-19T05:57:04Z</time>
      </trkpt>
      <trkpt lat="42.55459" lon="0.25717">
        <ele>1002</ele>
        <time>2021-06-19T05:57:10Z</time>
      </trkpt>
      <trkpt lat="42.55459" lon="0.25723">
        <ele>1002</ele>
        <time>2021-06-19T05:57:11Z</time>
      </trkpt>
      <trkpt lat="42.55473" lon="0.25754">
        <ele>1001</ele>
        <time>2021-06-19T05:57:17Z</time>
      </trkpt>
      <trkpt lat="42.55494" lon="0.25873">
        <ele>995</ele>
        <time>2021-06-19T05:57:38Z</time>
      </trkpt>
      <trkpt lat="42.55494" lon="0.25886">
        <ele>994</ele>
        <time>2021-06-19T05:57:40Z</time>
      </trkpt>
      <trkpt lat="42.55488" lon="0.25899">
        <ele>995</ele>
        <time>2021-06-19T05:57:43Z</time>
      </trkpt>
      <trkpt lat="42.55469" lon="0.25906">
        <ele>998</ele>
        <time>2021-06-19T05:57:47Z</time>
      </trkpt>
      <trkpt lat="42.55457" lon="0.25906">
        <ele>1000</ele>
        <time>2021-06-19T05:57:50Z</time>
      </trkpt>
      <trkpt lat="42.55442" lon="0.25918">
        <ele>1002</ele>
        <time>2021-06-19T05:57:54Z</time>
      </trkpt>
      <trkpt lat="42.55444" lon="0.25944">
        <ele>1001</ele>
        <time>2021-06-19T05:57:59Z</time>
      </trkpt>
      <trkpt lat="42.55465" lon="0.26013">
        <ele>991</ele>
        <time>2021-06-19T05:58:12Z</time>
      </trkpt>
      <trkpt lat="42.5547" lon="0.26015">
        <ele>989</ele>
        <time>2021-06-19T05:58:13Z</time>
      </trkpt>
      <trkpt lat="42.55476" lon="0.26031">
        <ele>987</ele>
        <time>2021-06-19T05:58:16Z</time>
      </trkpt>
      <trkpt lat="42.55481" lon="0.26053">
        <ele>986</ele>
        <time>2021-06-19T05:58:20Z</time>
      </trkpt>
      <trkpt lat="42.55487" lon="0.26064">
        <ele>984</ele>
        <time>2021-06-19T05:58:22Z</time>
      </trkpt>
      <trkpt lat="42.5551" lon="0.26091">
        <ele>977</ele>
        <time>2021-06-19T05:58:29Z</time>
      </trkpt>
      <trkpt lat="42.5556" lon="0.26165">
        <ele>966</ele>
        <time>2021-06-19T05:58:47Z</time>
      </trkpt>
      <trkpt lat="42.55562" lon="0.26196">
        <ele>965</ele>
        <time>2021-06-19T05:58:52Z</time>
      </trkpt>
      <trkpt lat="42.55573" lon="0.2625">
        <ele>959</ele>
        <time>2021-06-19T05:59:02Z</time>
      </trkpt>
      <trkpt lat="42.55596" lon="0.26287">
        <ele>955</ele>
        <time>2021-06-19T05:59:10Z</time>
      </trkpt>
      <trkpt lat="42.55626" lon="0.263">
        <ele>947</ele>
        <time>2021-06-19T05:59:17Z</time>
      </trkpt>
      <trkpt lat="42.55652" lon="0.26306">
        <ele>941</ele>
        <time>2021-06-19T05:59:23Z</time>
      </trkpt>
      <trkpt lat="42.55678" lon="0.2632">
        <ele>935</ele>
        <time>2021-06-19T05:59:30Z</time>
      </trkpt>
      <trkpt lat="42.55711" lon="0.26333">
        <ele>928</ele>
        <time>2021-06-19T05:59:38Z</time>
      </trkpt>
      <trkpt lat="42.55727" lon="0.26316">
        <ele>923</ele>
        <time>2021-06-19T05:59:43Z</time>
      </trkpt>
      <trkpt lat="42.55749" lon="0.2631">
        <ele>916</ele>
        <time>2021-06-19T05:59:48Z</time>
      </trkpt>
      <trkpt lat="42.55769" lon="0.26314">
        <ele>912</ele>
        <time>2021-06-19T05:59:53Z</time>
      </trkpt>
      <trkpt lat="42.55785" lon="0.26329">
        <ele>909</ele>
        <time>2021-06-19T05:59:57Z</time>
      </trkpt>
      <trkpt lat="42.55819" lon="0.26373">
        <ele>905</ele>
        <time>2021-06-19T06:00:08Z</time>
      </trkpt>
      <trkpt lat="42.55847" lon="0.26399">
        <ele>901</ele>
        <time>2021-06-19T06:00:16Z</time>
      </trkpt>
      <trkpt lat="42.55887" lon="0.26473">
        <ele>897</ele>
        <time>2021-06-19T06:00:32Z</time>
      </trkpt>
      <trkpt lat="42.559" lon="0.26511">
        <ele>895</ele>
        <time>2021-06-19T06:00:39Z</time>
      </trkpt>
      <trkpt lat="42.55915" lon="0.2654">
        <ele>891</ele>
        <time>2021-06-19T06:00:45Z</time>
      </trkpt>
      <trkpt lat="42.55936" lon="0.26537">
        <ele>887</ele>
        <time>2021-06-19T06:00:50Z</time>
      </trkpt>
      <trkpt lat="42.55942" lon="0.26559">
        <ele>887</ele>
        <time>2021-06-19T06:00:54Z</time>
      </trkpt>
      <trkpt lat="42.55944" lon="0.26584">
        <ele>888</ele>
        <time>2021-06-19T06:00:59Z</time>
      </trkpt>
      <trkpt lat="42.55942" lon="0.266">
        <ele>888</ele>
        <time>2021-06-19T06:01:01Z</time>
      </trkpt>
      <trkpt lat="42.55928" lon="0.26641">
        <ele>890</ele>
        <time>2021-06-19T06:01:09Z</time>
      </trkpt>
      <trkpt lat="42.55912" lon="0.26704">
        <ele>900</ele>
        <time>2021-06-19T06:01:21Z</time>
      </trkpt>
      <trkpt lat="42.55909" lon="0.26739">
        <ele>908</ele>
        <time>2021-06-19T06:01:27Z</time>
      </trkpt>
      <trkpt lat="42.55913" lon="0.26754">
        <ele>909</ele>
        <time>2021-06-19T06:01:29Z</time>
      </trkpt>
      <trkpt lat="42.55921" lon="0.26769">
        <ele>911</ele>
        <time>2021-06-19T06:01:33Z</time>
      </trkpt>
      <trkpt lat="42.55962" lon="0.26829">
        <ele>910</ele>
        <time>2021-06-19T06:01:47Z</time>
      </trkpt>
      <trkpt lat="42.55991" lon="0.26903">
        <ele>915</ele>
        <time>2021-06-19T06:02:01Z</time>
      </trkpt>
      <trkpt lat="42.56001" lon="0.26919">
        <ele>914</ele>
        <time>2021-06-19T06:02:05Z</time>
      </trkpt>
      <trkpt lat="42.56071" lon="0.2701">
        <ele>918</ele>
        <time>2021-06-19T06:02:27Z</time>
      </trkpt>
      <trkpt lat="42.56082" lon="0.27031">
        <ele>921</ele>
        <time>2021-06-19T06:02:32Z</time>
      </trkpt>
      <trkpt lat="42.56105" lon="0.27091">
        <ele>935</ele>
        <time>2021-06-19T06:02:43Z</time>
      </trkpt>
      <trkpt lat="42.56136" lon="0.27133">
        <ele>928</ele>
        <time>2021-06-19T06:02:54Z</time>
      </trkpt>
      <trkpt lat="42.56141" lon="0.27149">
        <ele>927</ele>
        <time>2021-06-19T06:02:57Z</time>
      </trkpt>
      <trkpt lat="42.56141" lon="0.27175">
        <ele>936</ele>
        <time>2021-06-19T06:03:01Z</time>
      </trkpt>
      <trkpt lat="42.56144" lon="0.27175">
        <ele>932</ele>
        <time>2021-06-19T06:03:02Z</time>
      </trkpt>
      <trkpt lat="42.56144" lon="0.27182">
        <ele>934</ele>
        <time>2021-06-19T06:03:03Z</time>
      </trkpt>
      <trkpt lat="42.56123" lon="0.27297">
        <ele>1013</ele>
        <time>2021-06-19T06:03:23Z</time>
      </trkpt>
      <trkpt lat="42.56123" lon="0.27318">
        <ele>1022</ele>
        <time>2021-06-19T06:03:27Z</time>
      </trkpt>
      <trkpt lat="42.56113" lon="0.27414">
        <ele>1074</ele>
        <time>2021-06-19T06:03:44Z</time>
      </trkpt>
      <trkpt lat="42.56112" lon="0.27456">
        <ele>1079</ele>
        <time>2021-06-19T06:03:51Z</time>
      </trkpt>
      <trkpt lat="42.56123" lon="0.27544">
        <ele>1061</ele>
        <time>2021-06-19T06:04:06Z</time>
      </trkpt>
      <trkpt lat="42.56132" lon="0.27582">
        <ele>1044</ele>
        <time>2021-06-19T06:04:13Z</time>
      </trkpt>
      <trkpt lat="42.5614" lon="0.27604">
        <ele>1021</ele>
        <time>2021-06-19T06:04:17Z</time>
      </trkpt>
      <trkpt lat="42.56147" lon="0.27652">
        <ele>981</ele>
        <time>2021-06-19T06:04:26Z</time>
      </trkpt>
      <trkpt lat="42.56147" lon="0.27679">
        <ele>970</ele>
        <time>2021-06-19T06:04:30Z</time>
      </trkpt>
      <trkpt lat="42.56143" lon="0.27708">
        <ele>972</ele>
        <time>2021-06-19T06:04:35Z</time>
      </trkpt>
      <trkpt lat="42.56115" lon="0.27795">
        <ele>999</ele>
        <time>2021-06-19T06:04:52Z</time>
      </trkpt>
      <trkpt lat="42.56112" lon="0.27851">
        <ele>1010</ele>
        <time>2021-06-19T06:05:01Z</time>
      </trkpt>
      <trkpt lat="42.56108" lon="0.27874">
        <ele>1023</ele>
        <time>2021-06-19T06:05:05Z</time>
      </trkpt>
      <trkpt lat="42.56108" lon="0.27898">
        <ele>1032</ele>
        <time>2021-06-19T06:05:10Z</time>
      </trkpt>
      <trkpt lat="42.56129" lon="0.27992">
        <ele>1051</ele>
        <time>2021-06-19T06:05:26Z</time>
      </trkpt>
      <trkpt lat="42.5619" lon="0.28077">
        <ele>1048</ele>
        <time>2021-06-19T06:05:47Z</time>
      </trkpt>
      <trkpt lat="42.56221" lon="0.28129">
        <ele>1051</ele>
        <time>2021-06-19T06:05:58Z</time>
      </trkpt>
      <trkpt lat="42.56258" lon="0.28219">
        <ele>1062</ele>
        <time>2021-06-19T06:06:16Z</time>
      </trkpt>
      <trkpt lat="42.5629" lon="0.28318">
        <ele>1074</ele>
        <time>2021-06-19T06:06:35Z</time>
      </trkpt>
      <trkpt lat="42.56317" lon="0.28382">
        <ele>1083</ele>
        <time>2021-06-19T06:06:47Z</time>
      </trkpt>
      <trkpt lat="42.56365" lon="0.28444">
        <ele>1083</ele>
        <time>2021-06-19T06:07:03Z</time>
      </trkpt>
      <trkpt lat="42.56412" lon="0.28519">
        <ele>1099</ele>
        <time>2021-06-19T06:07:20Z</time>
      </trkpt>
      <trkpt lat="42.56462" lon="0.2862">
        <ele>1147</ele>
        <time>2021-06-19T06:07:41Z</time>
      </trkpt>
      <trkpt lat="42.5652" lon="0.28704">
        <ele>1134</ele>
        <time>2021-06-19T06:08:01Z</time>
      </trkpt>
      <trkpt lat="42.56544" lon="0.28758">
        <ele>1127</ele>
        <time>2021-06-19T06:08:11Z</time>
      </trkpt>
      <trkpt lat="42.56555" lon="0.28807">
        <ele>1121</ele>
        <time>2021-06-19T06:08:20Z</time>
      </trkpt>
      <trkpt lat="42.5656" lon="0.28882">
        <ele>1110</ele>
        <time>2021-06-19T06:08:33Z</time>
      </trkpt>
      <trkpt lat="42.56572" lon="0.28964">
        <ele>1096</ele>
        <time>2021-06-19T06:08:48Z</time>
      </trkpt>
      <trkpt lat="42.56603" lon="0.29045">
        <ele>1091</ele>
        <time>2021-06-19T06:09:03Z</time>
      </trkpt>
      <trkpt lat="42.56604" lon="0.29043">
        <ele>1090</ele>
        <time>2021-06-19T06:09:04Z</time>
      </trkpt>
      <trkpt lat="42.56608" lon="0.29047">
        <ele>1089</ele>
        <time>2021-06-19T06:09:05Z</time>
      </trkpt>
      <trkpt lat="42.56605" lon="0.29091">
        <ele>1100</ele>
        <time>2021-06-19T06:09:12Z</time>
      </trkpt>
      <trkpt lat="42.56586" lon="0.29201">
        <ele>1143</ele>
        <time>2021-06-19T06:09:32Z</time>
      </trkpt>
      <trkpt lat="42.56611" lon="0.29298">
        <ele>1135</ele>
        <time>2021-06-19T06:09:50Z</time>
      </trkpt>
      <trkpt lat="42.56616" lon="0.2933">
        <ele>1132</ele>
        <time>2021-06-19T06:09:55Z</time>
      </trkpt>
      <trkpt lat="42.56646" lon="0.29373">
        <ele>1089</ele>
        <time>2021-06-19T06:10:05Z</time>
      </trkpt>
      <trkpt lat="42.56663" lon="0.2943">
        <ele>1061</ele>
        <time>2021-06-19T06:10:16Z</time>
      </trkpt>
      <trkpt lat="42.56666" lon="0.2948">
        <ele>1069</ele>
        <time>2021-06-19T06:10:25Z</time>
      </trkpt>
      <trkpt lat="42.56696" lon="0.29516">
        <ele>1067</ele>
        <time>2021-06-19T06:10:34Z</time>
      </trkpt>
      <trkpt lat="42.56715" lon="0.29578">
        <ele>1066</ele>
        <time>2021-06-19T06:10:45Z</time>
      </trkpt>
      <trkpt lat="42.56718" lon="0.29608">
        <ele>1070</ele>
        <time>2021-06-19T06:10:51Z</time>
      </trkpt>
      <trkpt lat="42.56754" lon="0.297">
        <ele>1062</ele>
        <time>2021-06-19T06:11:09Z</time>
      </trkpt>
      <trkpt lat="42.56785" lon="0.29727">
        <ele>1061</ele>
        <time>2021-06-19T06:11:17Z</time>
      </trkpt>
      <trkpt lat="42.56801" lon="0.29749">
        <ele>1061</ele>
        <time>2021-06-19T06:11:22Z</time>
      </trkpt>
      <trkpt lat="42.56807" lon="0.29763">
        <ele>1062</ele>
        <time>2021-06-19T06:11:25Z</time>
      </trkpt>
      <trkpt lat="42.56828" lon="0.29847">
        <ele>1068</ele>
        <time>2021-06-19T06:11:41Z</time>
      </trkpt>
      <trkpt lat="42.56835" lon="0.29862">
        <ele>1068</ele>
        <time>2021-06-19T06:11:44Z</time>
      </trkpt>
      <trkpt lat="42.56902" lon="0.2995">
        <ele>1060</ele>
        <time>2021-06-19T06:12:05Z</time>
      </trkpt>
      <trkpt lat="42.56911" lon="0.29972">
        <ele>1058</ele>
        <time>2021-06-19T06:12:10Z</time>
      </trkpt>
      <trkpt lat="42.5691" lon="0.29979">
        <ele>1059</ele>
        <time>2021-06-19T06:12:11Z</time>
      </trkpt>
      <trkpt lat="42.56902" lon="0.29992">
        <ele>1064</ele>
        <time>2021-06-19T06:12:14Z</time>
      </trkpt>
      <trkpt lat="42.56908" lon="0.30035">
        <ele>1067</ele>
        <time>2021-06-19T06:12:21Z</time>
      </trkpt>
      <trkpt lat="42.56904" lon="0.30047">
        <ele>1072</ele>
        <time>2021-06-19T06:12:24Z</time>
      </trkpt>
      <trkpt lat="42.56916" lon="0.30113">
        <ele>1077</ele>
        <time>2021-06-19T06:12:35Z</time>
      </trkpt>
      <trkpt lat="42.56966" lon="0.30465">
        <ele>1110</ele>
        <time>2021-06-19T06:13:37Z</time>
      </trkpt>
      <trkpt lat="42.5698" lon="0.30585">
        <ele>1087</ele>
        <time>2021-06-19T06:13:58Z</time>
      </trkpt>
      <trkpt lat="42.56972" lon="0.30585">
        <ele>1095</ele>
        <time>2021-06-19T06:14:00Z</time>
      </trkpt>
      <trkpt lat="42.56973" lon="0.30605">
        <ele>1097</ele>
        <time>2021-06-19T06:14:03Z</time>
      </trkpt>
      <trkpt lat="42.56982" lon="0.30639">
        <ele>1091</ele>
        <time>2021-06-19T06:14:09Z</time>
      </trkpt>
      <trkpt lat="42.56983" lon="0.30658">
        <ele>1092</ele>
        <time>2021-06-19T06:14:13Z</time>
      </trkpt>
      <trkpt lat="42.56989" lon="0.30676">
        <ele>1088</ele>
        <time>2021-06-19T06:14:16Z</time>
      </trkpt>
      <trkpt lat="42.56998" lon="0.30685">
        <ele>1080</ele>
        <time>2021-06-19T06:14:19Z</time>
      </trkpt>
      <trkpt lat="42.57018" lon="0.3075">
        <ele>1081</ele>
        <time>2021-06-19T06:14:31Z</time>
      </trkpt>
      <trkpt lat="42.5703" lon="0.30838">
        <ele>1085</ele>
        <time>2021-06-19T06:14:46Z</time>
      </trkpt>
      <trkpt lat="42.57069" lon="0.30929">
        <ele>1072</ele>
        <time>2021-06-19T06:15:04Z</time>
      </trkpt>
      <trkpt lat="42.57073" lon="0.31016">
        <ele>1075</ele>
        <time>2021-06-19T06:15:19Z</time>
      </trkpt>
      <trkpt lat="42.57082" lon="0.31042">
        <ele>1070</ele>
        <time>2021-06-19T06:15:24Z</time>
      </trkpt>
      <trkpt lat="42.57106" lon="0.31076">
        <ele>1069</ele>
        <time>2021-06-19T06:15:32Z</time>
      </trkpt>
      <trkpt lat="42.57115" lon="0.31106">
        <ele>1069</ele>
        <time>2021-06-19T06:15:38Z</time>
      </trkpt>
      <trkpt lat="42.57116" lon="0.31147">
        <ele>1071</ele>
        <time>2021-06-19T06:15:45Z</time>
      </trkpt>
      <trkpt lat="42.57127" lon="0.31174">
        <ele>1070</ele>
        <time>2021-06-19T06:15:50Z</time>
      </trkpt>
      <trkpt lat="42.57127" lon="0.31191">
        <ele>1070</ele>
        <time>2021-06-19T06:15:53Z</time>
      </trkpt>
      <trkpt lat="42.5713" lon="0.31198">
        <ele>1069</ele>
        <time>2021-06-19T06:15:55Z</time>
      </trkpt>
      <trkpt lat="42.57136" lon="0.31237">
        <ele>1068</ele>
        <time>2021-06-19T06:16:01Z</time>
      </trkpt>
      <trkpt lat="42.57147" lon="0.31273">
        <ele>1066</ele>
        <time>2021-06-19T06:16:08Z</time>
      </trkpt>
      <trkpt lat="42.57147" lon="0.31296">
        <ele>1066</ele>
        <time>2021-06-19T06:16:12Z</time>
      </trkpt>
      <trkpt lat="42.57136" lon="0.31309">
        <ele>1069</ele>
        <time>2021-06-19T06:16:15Z</time>
      </trkpt>
      <trkpt lat="42.57127" lon="0.31328">
        <ele>1072</ele>
        <time>2021-06-19T06:16:19Z</time>
      </trkpt>
      <trkpt lat="42.57126" lon="0.31359">
        <ele>1075</ele>
        <time>2021-06-19T06:16:25Z</time>
      </trkpt>
      <trkpt lat="42.57142" lon="0.31442">
        <ele>1076</ele>
        <time>2021-06-19T06:16:39Z</time>
      </trkpt>
      <trkpt lat="42.5715" lon="0.31499">
        <ele>1078</ele>
        <time>2021-06-19T06:16:49Z</time>
      </trkpt>
      <trkpt lat="42.57164" lon="0.31524">
        <ele>1072</ele>
        <time>2021-06-19T06:16:55Z</time>
      </trkpt>
      <trkpt lat="42.57285" lon="0.31663">
        <ele>1067</ele>
        <time>2021-06-19T06:17:32Z</time>
      </trkpt>
      <trkpt lat="42.57316" lon="0.31744">
        <ele>1069</ele>
        <time>2021-06-19T06:17:48Z</time>
      </trkpt>
      <trkpt lat="42.57334" lon="0.3177">
        <ele>1068</ele>
        <time>2021-06-19T06:17:54Z</time>
      </trkpt>
      <trkpt lat="42.5736" lon="0.318">
        <ele>1068</ele>
        <time>2021-06-19T06:18:02Z</time>
      </trkpt>
      <trkpt lat="42.57412" lon="0.31931">
        <ele>1069</ele>
        <time>2021-06-19T06:18:27Z</time>
      </trkpt>
      <trkpt lat="42.5744" lon="0.3199">
        <ele>1070</ele>
        <time>2021-06-19T06:18:39Z</time>
      </trkpt>
      <trkpt lat="42.57474" lon="0.32143">
        <ele>1072</ele>
        <time>2021-06-19T06:19:07Z</time>
      </trkpt>
      <trkpt lat="42.57478" lon="0.32245">
        <ele>1074</ele>
        <time>2021-06-19T06:19:24Z</time>
      </trkpt>
      <trkpt lat="42.57479" lon="0.32356">
        <ele>1079</ele>
        <time>2021-06-19T06:19:43Z</time>
      </trkpt>
      <trkpt lat="42.57493" lon="0.32416">
        <ele>1078</ele>
        <time>2021-06-19T06:19:54Z</time>
      </trkpt>
      <trkpt lat="42.57504" lon="0.32434">
        <ele>1077</ele>
        <time>2021-06-19T06:19:58Z</time>
      </trkpt>
      <trkpt lat="42.57533" lon="0.32469">
        <ele>1077</ele>
        <time>2021-06-19T06:20:07Z</time>
      </trkpt>
      <trkpt lat="42.57543" lon="0.32491">
        <ele>1077</ele>
        <time>2021-06-19T06:20:12Z</time>
      </trkpt>
      <trkpt lat="42.57555" lon="0.32543">
        <ele>1078</ele>
        <time>2021-06-19T06:20:21Z</time>
      </trkpt>
      <trkpt lat="42.57549" lon="0.32568">
        <ele>1081</ele>
        <time>2021-06-19T06:20:26Z</time>
      </trkpt>
      <trkpt lat="42.57539" lon="0.32588">
        <ele>1085</ele>
        <time>2021-06-19T06:20:30Z</time>
      </trkpt>
      <trkpt lat="42.57536" lon="0.32611">
        <ele>1088</ele>
        <time>2021-06-19T06:20:34Z</time>
      </trkpt>
      <trkpt lat="42.57539" lon="0.32645">
        <ele>1089</ele>
        <time>2021-06-19T06:20:40Z</time>
      </trkpt>
      <trkpt lat="42.57544" lon="0.3267">
        <ele>1089</ele>
        <time>2021-06-19T06:20:44Z</time>
      </trkpt>
      <trkpt lat="42.57557" lon="0.32697">
        <ele>1085</ele>
        <time>2021-06-19T06:20:50Z</time>
      </trkpt>
      <trkpt lat="42.5756" lon="0.32714">
        <ele>1084</ele>
        <time>2021-06-19T06:20:53Z</time>
      </trkpt>
      <trkpt lat="42.57544" lon="0.32736">
        <ele>1091</ele>
        <time>2021-06-19T06:20:58Z</time>
      </trkpt>
      <trkpt lat="42.57537" lon="0.32767">
        <ele>1096</ele>
        <time>2021-06-19T06:21:04Z</time>
      </trkpt>
      <trkpt lat="42.5754" lon="0.32813">
        <ele>1097</ele>
        <time>2021-06-19T06:21:12Z</time>
      </trkpt>
      <trkpt lat="42.57567" lon="0.32907">
        <ele>1090</ele>
        <time>2021-06-19T06:21:29Z</time>
      </trkpt>
      <trkpt lat="42.57588" lon="0.32954">
        <ele>1084</ele>
        <time>2021-06-19T06:21:38Z</time>
      </trkpt>
      <trkpt lat="42.57615" lon="0.32986">
        <ele>1084</ele>
        <time>2021-06-19T06:21:47Z</time>
      </trkpt>
      <trkpt lat="42.5765" lon="0.33014">
        <ele>1081</ele>
        <time>2021-06-19T06:21:56Z</time>
      </trkpt>
      <trkpt lat="42.57693" lon="0.33079">
        <ele>1080</ele>
        <time>2021-06-19T06:22:11Z</time>
      </trkpt>
      <trkpt lat="42.577" lon="0.33109">
        <ele>1081</ele>
        <time>2021-06-19T06:22:17Z</time>
      </trkpt>
      <trkpt lat="42.57682" lon="0.33179">
        <ele>1087</ele>
        <time>2021-06-19T06:22:29Z</time>
      </trkpt>
      <trkpt lat="42.57694" lon="0.332">
        <ele>1087</ele>
        <time>2021-06-19T06:22:34Z</time>
      </trkpt>
      <trkpt lat="42.57697" lon="0.33215">
        <ele>1087</ele>
        <time>2021-06-19T06:22:37Z</time>
      </trkpt>
      <trkpt lat="42.57688" lon="0.33273">
        <ele>1095</ele>
        <time>2021-06-19T06:22:47Z</time>
      </trkpt>
      <trkpt lat="42.57694" lon="0.33328">
        <ele>1100</ele>
        <time>2021-06-19T06:22:56Z</time>
      </trkpt>
      <trkpt lat="42.57712" lon="0.33386">
        <ele>1100</ele>
        <time>2021-06-19T06:23:07Z</time>
      </trkpt>
      <trkpt lat="42.57718" lon="0.33429">
        <ele>1102</ele>
        <time>2021-06-19T06:23:15Z</time>
      </trkpt>
      <trkpt lat="42.57708" lon="0.33491">
        <ele>1113</ele>
        <time>2021-06-19T06:23:26Z</time>
      </trkpt>
      <trkpt lat="42.5771" lon="0.33707">
        <ele>1131</ele>
        <time>2021-06-19T06:24:03Z</time>
      </trkpt>
      <trkpt lat="42.57717" lon="0.33745">
        <ele>1131</ele>
        <time>2021-06-19T06:24:10Z</time>
      </trkpt>
      <trkpt lat="42.57739" lon="0.33797">
        <ele>1112</ele>
        <time>2021-06-19T06:24:20Z</time>
      </trkpt>
      <trkpt lat="42.57764" lon="0.33866">
        <ele>1100</ele>
        <time>2021-06-19T06:24:33Z</time>
      </trkpt>
      <trkpt lat="42.57781" lon="0.33899">
        <ele>1098</ele>
        <time>2021-06-19T06:24:40Z</time>
      </trkpt>
      <trkpt lat="42.57773" lon="0.33918">
        <ele>1102</ele>
        <time>2021-06-19T06:24:44Z</time>
      </trkpt>
      <trkpt lat="42.57767" lon="0.33948">
        <ele>1105</ele>
        <time>2021-06-19T06:24:49Z</time>
      </trkpt>
      <trkpt lat="42.57765" lon="0.33977">
        <ele>1107</ele>
        <time>2021-06-19T06:24:54Z</time>
      </trkpt>
      <trkpt lat="42.57747" lon="0.34093">
        <ele>1110</ele>
        <time>2021-06-19T06:25:15Z</time>
      </trkpt>
      <trkpt lat="42.57748" lon="0.34131">
        <ele>1107</ele>
        <time>2021-06-19T06:25:21Z</time>
      </trkpt>
      <trkpt lat="42.57743" lon="0.34172">
        <ele>1107</ele>
        <time>2021-06-19T06:25:28Z</time>
      </trkpt>
      <trkpt lat="42.57738" lon="0.34185">
        <ele>1110</ele>
        <time>2021-06-19T06:25:31Z</time>
      </trkpt>
      <trkpt lat="42.57721" lon="0.34196">
        <ele>1120</ele>
        <time>2021-06-19T06:25:35Z</time>
      </trkpt>
      <trkpt lat="42.57701" lon="0.34225">
        <ele>1129</ele>
        <time>2021-06-19T06:25:42Z</time>
      </trkpt>
      <trkpt lat="42.577" lon="0.3425">
        <ele>1127</ele>
        <time>2021-06-19T06:25:46Z</time>
      </trkpt>
      <trkpt lat="42.57668" lon="0.3433">
        <ele>1136</ele>
        <time>2021-06-19T06:26:02Z</time>
      </trkpt>
      <trkpt lat="42.57646" lon="0.34416">
        <ele>1135</ele>
        <time>2021-06-19T06:26:18Z</time>
      </trkpt>
      <trkpt lat="42.57631" lon="0.34453">
        <ele>1141</ele>
        <time>2021-06-19T06:26:25Z</time>
      </trkpt>
      <trkpt lat="42.57614" lon="0.34511">
        <ele>1146</ele>
        <time>2021-06-19T06:26:36Z</time>
      </trkpt>
      <trkpt lat="42.57616" lon="0.34582">
        <ele>1138</ele>
        <time>2021-06-19T06:26:48Z</time>
      </trkpt>
      <trkpt lat="42.57606" lon="0.34683">
        <ele>1136</ele>
        <time>2021-06-19T06:27:05Z</time>
      </trkpt>
      <trkpt lat="42.57607" lon="0.34706">
        <ele>1135</ele>
        <time>2021-06-19T06:27:09Z</time>
      </trkpt>
      <trkpt lat="42.57616" lon="0.3474">
        <ele>1132</ele>
        <time>2021-06-19T06:27:16Z</time>
      </trkpt>
      <trkpt lat="42.57626" lon="0.34764">
        <ele>1130</ele>
        <time>2021-06-19T06:27:20Z</time>
      </trkpt>
      <trkpt lat="42.5764" lon="0.34836">
        <ele>1131</ele>
        <time>2021-06-19T06:27:33Z</time>
      </trkpt>
      <trkpt lat="42.57644" lon="0.34889">
        <ele>1132</ele>
        <time>2021-06-19T06:27:42Z</time>
      </trkpt>
      <trkpt lat="42.57644" lon="0.34941">
        <ele>1135</ele>
        <time>2021-06-19T06:27:51Z</time>
      </trkpt>
      <trkpt lat="42.5763" lon="0.3505">
        <ele>1144</ele>
        <time>2021-06-19T06:28:10Z</time>
      </trkpt>
      <trkpt lat="42.57619" lon="0.35079">
        <ele>1148</ele>
        <time>2021-06-19T06:28:16Z</time>
      </trkpt>
      <trkpt lat="42.57591" lon="0.35119">
        <ele>1157</ele>
        <time>2021-06-19T06:28:25Z</time>
      </trkpt>
      <trkpt lat="42.57582" lon="0.3514">
        <ele>1159</ele>
        <time>2021-06-19T06:28:30Z</time>
      </trkpt>
      <trkpt lat="42.57566" lon="0.352">
        <ele>1167</ele>
        <time>2021-06-19T06:28:40Z</time>
      </trkpt>
      <trkpt lat="42.57558" lon="0.35262">
        <ele>1168</ele>
        <time>2021-06-19T06:28:51Z</time>
      </trkpt>
      <trkpt lat="42.57541" lon="0.35295">
        <ele>1175</ele>
        <time>2021-06-19T06:28:58Z</time>
      </trkpt>
      <trkpt lat="42.57525" lon="0.35339">
        <ele>1178</ele>
        <time>2021-06-19T06:29:07Z</time>
      </trkpt>
      <trkpt lat="42.57519" lon="0.35371">
        <ele>1178</ele>
        <time>2021-06-19T06:29:12Z</time>
      </trkpt>
      <trkpt lat="42.57497" lon="0.35436">
        <ele>1178</ele>
        <time>2021-06-19T06:29:25Z</time>
      </trkpt>
      <trkpt lat="42.57482" lon="0.35495">
        <ele>1186</ele>
        <time>2021-06-19T06:29:35Z</time>
      </trkpt>
      <trkpt lat="42.57472" lon="0.3555">
        <ele>1191</ele>
        <time>2021-06-19T06:29:45Z</time>
      </trkpt>
      <trkpt lat="42.5747" lon="0.35584">
        <ele>1193</ele>
        <time>2021-06-19T06:29:51Z</time>
      </trkpt>
      <trkpt lat="42.5746" lon="0.3561">
        <ele>1198</ele>
        <time>2021-06-19T06:29:56Z</time>
      </trkpt>
      <trkpt lat="42.57453" lon="0.35659">
        <ele>1202</ele>
        <time>2021-06-19T06:30:05Z</time>
      </trkpt>
      <trkpt lat="42.57445" lon="0.35685">
        <ele>1205</ele>
        <time>2021-06-19T06:30:09Z</time>
      </trkpt>
      <trkpt lat="42.57438" lon="0.35721">
        <ele>1207</ele>
        <time>2021-06-19T06:30:16Z</time>
      </trkpt>
      <trkpt lat="42.57435" lon="0.3575">
        <ele>1208</ele>
        <time>2021-06-19T06:30:21Z</time>
      </trkpt>
      <trkpt lat="42.57425" lon="0.35781">
        <ele>1210</ele>
        <time>2021-06-19T06:30:27Z</time>
      </trkpt>
      <trkpt lat="42.57419" lon="0.35795">
        <ele>1210</ele>
        <time>2021-06-19T06:30:30Z</time>
      </trkpt>
      <trkpt lat="42.5741" lon="0.35797">
        <ele>1214</ele>
        <time>2021-06-19T06:30:32Z</time>
      </trkpt>
      <trkpt lat="42.574" lon="0.35784">
        <ele>1219</ele>
        <time>2021-06-19T06:30:35Z</time>
      </trkpt>
      <trkpt lat="42.57398" lon="0.35725">
        <ele>1219</ele>
        <time>2021-06-19T06:30:45Z</time>
      </trkpt>
      <trkpt lat="42.57403" lon="0.35671">
        <ele>1219</ele>
        <time>2021-06-19T06:30:54Z</time>
      </trkpt>
      <trkpt lat="42.57401" lon="0.35647">
        <ele>1221</ele>
        <time>2021-06-19T06:30:59Z</time>
      </trkpt>
      <trkpt lat="42.57406" lon="0.35629">
        <ele>1218</ele>
        <time>2021-06-19T06:31:02Z</time>
      </trkpt>
      <trkpt lat="42.57388" lon="0.35576">
        <ele>1232</ele>
        <time>2021-06-19T06:31:12Z</time>
      </trkpt>
      <trkpt lat="42.57387" lon="0.35551">
        <ele>1234</ele>
        <time>2021-06-19T06:31:16Z</time>
      </trkpt>
      <trkpt lat="42.57395" lon="0.35501">
        <ele>1231</ele>
        <time>2021-06-19T06:31:25Z</time>
      </trkpt>
      <trkpt lat="42.57387" lon="0.35478">
        <ele>1239</ele>
        <time>2021-06-19T06:31:29Z</time>
      </trkpt>
      <trkpt lat="42.57382" lon="0.35453">
        <ele>1246</ele>
        <time>2021-06-19T06:31:34Z</time>
      </trkpt>
      <trkpt lat="42.57389" lon="0.35428">
        <ele>1244</ele>
        <time>2021-06-19T06:31:38Z</time>
      </trkpt>
      <trkpt lat="42.57392" lon="0.35366">
        <ele>1253</ele>
        <time>2021-06-19T06:31:49Z</time>
      </trkpt>
      <trkpt lat="42.57402" lon="0.35329">
        <ele>1253</ele>
        <time>2021-06-19T06:31:56Z</time>
      </trkpt>
      <trkpt lat="42.57418" lon="0.35293">
        <ele>1246</ele>
        <time>2021-06-19T06:32:03Z</time>
      </trkpt>
      <trkpt lat="42.57432" lon="0.35228">
        <ele>1244</ele>
        <time>2021-06-19T06:32:15Z</time>
      </trkpt>
      <trkpt lat="42.57432" lon="0.35199">
        <ele>1246</ele>
        <time>2021-06-19T06:32:20Z</time>
      </trkpt>
      <trkpt lat="42.57446" lon="0.35148">
        <ele>1238</ele>
        <time>2021-06-19T06:32:29Z</time>
      </trkpt>
      <trkpt lat="42.57441" lon="0.35141">
        <ele>1239</ele>
        <time>2021-06-19T06:32:31Z</time>
      </trkpt>
      <trkpt lat="42.5743" lon="0.35142">
        <ele>1245</ele>
        <time>2021-06-19T06:32:33Z</time>
      </trkpt>
      <trkpt lat="42.5739" lon="0.35136">
        <ele>1265</ele>
        <time>2021-06-19T06:32:43Z</time>
      </trkpt>
      <trkpt lat="42.57361" lon="0.35085">
        <ele>1271</ele>
        <time>2021-06-19T06:32:54Z</time>
      </trkpt>
      <trkpt lat="42.57347" lon="0.35053">
        <ele>1265</ele>
        <time>2021-06-19T06:33:00Z</time>
      </trkpt>
      <trkpt lat="42.57334" lon="0.35046">
        <ele>1269</ele>
        <time>2021-06-19T06:33:04Z</time>
      </trkpt>
      <trkpt lat="42.57332" lon="0.35067">
        <ele>1278</ele>
        <time>2021-06-19T06:33:07Z</time>
      </trkpt>
      <trkpt lat="42.57343" lon="0.35116">
        <ele>1286</ele>
        <time>2021-06-19T06:33:16Z</time>
      </trkpt>
      <trkpt lat="42.57345" lon="0.35201">
        <ele>1294</ele>
        <time>2021-06-19T06:33:31Z</time>
      </trkpt>
      <trkpt lat="42.5733" lon="0.3538">
        <ele>1297</ele>
        <time>2021-06-19T06:34:02Z</time>
      </trkpt>
      <trkpt lat="42.57324" lon="0.35401">
        <ele>1299</ele>
        <time>2021-06-19T06:34:05Z</time>
      </trkpt>
      <trkpt lat="42.57302" lon="0.35417">
        <ele>1311</ele>
        <time>2021-06-19T06:34:11Z</time>
      </trkpt>
      <trkpt lat="42.57299" lon="0.35432">
        <ele>1310</ele>
        <time>2021-06-19T06:34:14Z</time>
      </trkpt>
      <trkpt lat="42.57302" lon="0.35451">
        <ele>1306</ele>
        <time>2021-06-19T06:34:17Z</time>
      </trkpt>
      <trkpt lat="42.57296" lon="0.35511">
        <ele>1303</ele>
        <time>2021-06-19T06:34:28Z</time>
      </trkpt>
      <trkpt lat="42.57276" lon="0.35557">
        <ele>1313</ele>
        <time>2021-06-19T06:34:37Z</time>
      </trkpt>
      <trkpt lat="42.57248" lon="0.35585">
        <ele>1330</ele>
        <time>2021-06-19T06:34:45Z</time>
      </trkpt>
      <trkpt lat="42.57241" lon="0.35607">
        <ele>1334</ele>
        <time>2021-06-19T06:34:49Z</time>
      </trkpt>
      <trkpt lat="42.57249" lon="0.35622">
        <ele>1327</ele>
        <time>2021-06-19T06:34:52Z</time>
      </trkpt>
      <trkpt lat="42.57252" lon="0.35638">
        <ele>1324</ele>
        <time>2021-06-19T06:34:55Z</time>
      </trkpt>
      <trkpt lat="42.57251" lon="0.35674">
        <ele>1322</ele>
        <time>2021-06-19T06:35:01Z</time>
      </trkpt>
      <trkpt lat="42.57222" lon="0.35753">
        <ele>1337</ele>
        <time>2021-06-19T06:35:17Z</time>
      </trkpt>
      <trkpt lat="42.57201" lon="0.3583">
        <ele>1343</ele>
        <time>2021-06-19T06:35:31Z</time>
      </trkpt>
      <trkpt lat="42.57199" lon="0.35856">
        <ele>1341</ele>
        <time>2021-06-19T06:35:35Z</time>
      </trkpt>
      <trkpt lat="42.57202" lon="0.3588">
        <ele>1338</ele>
        <time>2021-06-19T06:35:39Z</time>
      </trkpt>
      <trkpt lat="42.57188" lon="0.35916">
        <ele>1342</ele>
        <time>2021-06-19T06:35:46Z</time>
      </trkpt>
      <trkpt lat="42.57161" lon="0.35938">
        <ele>1358</ele>
        <time>2021-06-19T06:35:54Z</time>
      </trkpt>
      <trkpt lat="42.57161" lon="0.35963">
        <ele>1359</ele>
        <time>2021-06-19T06:35:58Z</time>
      </trkpt>
      <trkpt lat="42.57166" lon="0.36021">
        <ele>1358</ele>
        <time>2021-06-19T06:36:08Z</time>
      </trkpt>
      <trkpt lat="42.57159" lon="0.36034">
        <ele>1362</ele>
        <time>2021-06-19T06:36:11Z</time>
      </trkpt>
      <trkpt lat="42.57151" lon="0.36083">
        <ele>1367</ele>
        <time>2021-06-19T06:36:19Z</time>
      </trkpt>
      <trkpt lat="42.57132" lon="0.36113">
        <ele>1378</ele>
        <time>2021-06-19T06:36:26Z</time>
      </trkpt>
      <trkpt lat="42.57128" lon="0.36138">
        <ele>1379</ele>
        <time>2021-06-19T06:36:31Z</time>
      </trkpt>
      <trkpt lat="42.57132" lon="0.3618">
        <ele>1377</ele>
        <time>2021-06-19T06:36:38Z</time>
      </trkpt>
      <trkpt lat="42.57124" lon="0.36199">
        <ele>1381</ele>
        <time>2021-06-19T06:36:42Z</time>
      </trkpt>
      <trkpt lat="42.57121" lon="0.36215">
        <ele>1382</ele>
        <time>2021-06-19T06:36:45Z</time>
      </trkpt>
      <trkpt lat="42.57123" lon="0.36229">
        <ele>1382</ele>
        <time>2021-06-19T06:36:47Z</time>
      </trkpt>
      <trkpt lat="42.57132" lon="0.36248">
        <ele>1379</ele>
        <time>2021-06-19T06:36:51Z</time>
      </trkpt>
      <trkpt lat="42.5712" lon="0.36333">
        <ele>1392</ele>
        <time>2021-06-19T06:37:06Z</time>
      </trkpt>
      <trkpt lat="42.57129" lon="0.36398">
        <ele>1390</ele>
        <time>2021-06-19T06:37:17Z</time>
      </trkpt>
      <trkpt lat="42.57125" lon="0.36412">
        <ele>1392</ele>
        <time>2021-06-19T06:37:20Z</time>
      </trkpt>
      <trkpt lat="42.57118" lon="0.36415">
        <ele>1396</ele>
        <time>2021-06-19T06:37:21Z</time>
      </trkpt>
      <trkpt lat="42.57107" lon="0.36408">
        <ele>1400</ele>
        <time>2021-06-19T06:37:24Z</time>
      </trkpt>
      <trkpt lat="42.57101" lon="0.36397">
        <ele>1402</ele>
        <time>2021-06-19T06:37:27Z</time>
      </trkpt>
      <trkpt lat="42.57089" lon="0.36337">
        <ele>1404</ele>
        <time>2021-06-19T06:37:37Z</time>
      </trkpt>
      <trkpt lat="42.57081" lon="0.36313">
        <ele>1405</ele>
        <time>2021-06-19T06:37:42Z</time>
      </trkpt>
      <trkpt lat="42.57077" lon="0.36284">
        <ele>1405</ele>
        <time>2021-06-19T06:37:47Z</time>
      </trkpt>
      <trkpt lat="42.57079" lon="0.36269">
        <ele>1403</ele>
        <time>2021-06-19T06:37:50Z</time>
      </trkpt>
      <trkpt lat="42.57074" lon="0.36247">
        <ele>1403</ele>
        <time>2021-06-19T06:37:53Z</time>
      </trkpt>
      <trkpt lat="42.57056" lon="0.36221">
        <ele>1412</ele>
        <time>2021-06-19T06:38:00Z</time>
      </trkpt>
      <trkpt lat="42.57042" lon="0.36192">
        <ele>1418</ele>
        <time>2021-06-19T06:38:06Z</time>
      </trkpt>
      <trkpt lat="42.57033" lon="0.36196">
        <ele>1423</ele>
        <time>2021-06-19T06:38:08Z</time>
      </trkpt>
      <trkpt lat="42.5703" lon="0.36216">
        <ele>1424</ele>
        <time>2021-06-19T06:38:11Z</time>
      </trkpt>
      <trkpt lat="42.57037" lon="0.3624">
        <ele>1421</ele>
        <time>2021-06-19T06:38:16Z</time>
      </trkpt>
      <trkpt lat="42.5705" lon="0.36271">
        <ele>1416</ele>
        <time>2021-06-19T06:38:22Z</time>
      </trkpt>
      <trkpt lat="42.57039" lon="0.36318">
        <ele>1425</ele>
        <time>2021-06-19T06:38:30Z</time>
      </trkpt>
      <trkpt lat="42.5704" lon="0.36334">
        <ele>1425</ele>
        <time>2021-06-19T06:38:33Z</time>
      </trkpt>
      <trkpt lat="42.57032" lon="0.3636">
        <ele>1430</ele>
        <time>2021-06-19T06:38:38Z</time>
      </trkpt>
      <trkpt lat="42.57022" lon="0.36409">
        <ele>1435</ele>
        <time>2021-06-19T06:38:47Z</time>
      </trkpt>
      <trkpt lat="42.57023" lon="0.36455">
        <ele>1439</ele>
        <time>2021-06-19T06:38:55Z</time>
      </trkpt>
      <trkpt lat="42.57034" lon="0.36497">
        <ele>1440</ele>
        <time>2021-06-19T06:39:02Z</time>
      </trkpt>
      <trkpt lat="42.57032" lon="0.36516">
        <ele>1442</ele>
        <time>2021-06-19T06:39:06Z</time>
      </trkpt>
      <trkpt lat="42.57023" lon="0.36522">
        <ele>1446</ele>
        <time>2021-06-19T06:39:08Z</time>
      </trkpt>
      <trkpt lat="42.57015" lon="0.36516">
        <ele>1448</ele>
        <time>2021-06-19T06:39:10Z</time>
      </trkpt>
      <trkpt lat="42.57004" lon="0.36458">
        <ele>1447</ele>
        <time>2021-06-19T06:39:20Z</time>
      </trkpt>
      <trkpt lat="42.56986" lon="0.3641">
        <ele>1450</ele>
        <time>2021-06-19T06:39:30Z</time>
      </trkpt>
      <trkpt lat="42.56986" lon="0.36362">
        <ele>1450</ele>
        <time>2021-06-19T06:39:38Z</time>
      </trkpt>
      <trkpt lat="42.5698" lon="0.36353">
        <ele>1453</ele>
        <time>2021-06-19T06:39:40Z</time>
      </trkpt>
      <trkpt lat="42.56972" lon="0.36358">
        <ele>1457</ele>
        <time>2021-06-19T06:39:42Z</time>
      </trkpt>
      <trkpt lat="42.56967" lon="0.36379">
        <ele>1459</ele>
        <time>2021-06-19T06:39:46Z</time>
      </trkpt>
      <trkpt lat="42.56977" lon="0.36448">
        <ele>1456</ele>
        <time>2021-06-19T06:39:58Z</time>
      </trkpt>
      <trkpt lat="42.56978" lon="0.36524">
        <ele>1461</ele>
        <time>2021-06-19T06:40:11Z</time>
      </trkpt>
      <trkpt lat="42.56996" lon="0.36575">
        <ele>1459</ele>
        <time>2021-06-19T06:40:21Z</time>
      </trkpt>
      <trkpt lat="42.56987" lon="0.3659">
        <ele>1462</ele>
        <time>2021-06-19T06:40:24Z</time>
      </trkpt>
      <trkpt lat="42.56975" lon="0.36587">
        <ele>1465</ele>
        <time>2021-06-19T06:40:27Z</time>
      </trkpt>
      <trkpt lat="42.56969" lon="0.36579">
        <ele>1467</ele>
        <time>2021-06-19T06:40:29Z</time>
      </trkpt>
      <trkpt lat="42.56943" lon="0.36522">
        <ele>1472</ele>
        <time>2021-06-19T06:40:40Z</time>
      </trkpt>
      <trkpt lat="42.56935" lon="0.36473">
        <ele>1473</ele>
        <time>2021-06-19T06:40:49Z</time>
      </trkpt>
      <trkpt lat="42.56921" lon="0.36424">
        <ele>1480</ele>
        <time>2021-06-19T06:40:58Z</time>
      </trkpt>
      <trkpt lat="42.56922" lon="0.36391">
        <ele>1481</ele>
        <time>2021-06-19T06:41:04Z</time>
      </trkpt>
      <trkpt lat="42.56913" lon="0.36374">
        <ele>1486</ele>
        <time>2021-06-19T06:41:07Z</time>
      </trkpt>
      <trkpt lat="42.56902" lon="0.36378">
        <ele>1492</ele>
        <time>2021-06-19T06:41:10Z</time>
      </trkpt>
      <trkpt lat="42.56896" lon="0.36402">
        <ele>1494</ele>
        <time>2021-06-19T06:41:14Z</time>
      </trkpt>
      <trkpt lat="42.56897" lon="0.36448">
        <ele>1492</ele>
        <time>2021-06-19T06:41:22Z</time>
      </trkpt>
      <trkpt lat="42.56892" lon="0.36459">
        <ele>1495</ele>
        <time>2021-06-19T06:41:25Z</time>
      </trkpt>
      <trkpt lat="42.56878" lon="0.36515">
        <ele>1502</ele>
        <time>2021-06-19T06:41:35Z</time>
      </trkpt>
      <trkpt lat="42.56881" lon="0.3655">
        <ele>1500</ele>
        <time>2021-06-19T06:41:41Z</time>
      </trkpt>
      <trkpt lat="42.5688" lon="0.36581">
        <ele>1500</ele>
        <time>2021-06-19T06:41:46Z</time>
      </trkpt>
      <trkpt lat="42.56866" lon="0.3671">
        <ele>1513</ele>
        <time>2021-06-19T06:42:09Z</time>
      </trkpt>
      <trkpt lat="42.56872" lon="0.36735">
        <ele>1512</ele>
        <time>2021-06-19T06:42:13Z</time>
      </trkpt>
      <trkpt lat="42.5688" lon="0.36749">
        <ele>1510</ele>
        <time>2021-06-19T06:42:16Z</time>
      </trkpt>
      <trkpt lat="42.56884" lon="0.36771">
        <ele>1510</ele>
        <time>2021-06-19T06:42:20Z</time>
      </trkpt>
      <trkpt lat="42.56871" lon="0.36781">
        <ele>1516</ele>
        <time>2021-06-19T06:42:23Z</time>
      </trkpt>
      <trkpt lat="42.56863" lon="0.36772">
        <ele>1518</ele>
        <time>2021-06-19T06:42:26Z</time>
      </trkpt>
      <trkpt lat="42.56857" lon="0.36757">
        <ele>1519</ele>
        <time>2021-06-19T06:42:29Z</time>
      </trkpt>
      <trkpt lat="42.56853" lon="0.36732">
        <ele>1519</ele>
        <time>2021-06-19T06:42:33Z</time>
      </trkpt>
      <trkpt lat="42.56833" lon="0.36651">
        <ele>1524</ele>
        <time>2021-06-19T06:42:48Z</time>
      </trkpt>
      <trkpt lat="42.56816" lon="0.36649">
        <ele>1531</ele>
        <time>2021-06-19T06:42:52Z</time>
      </trkpt>
      <trkpt lat="42.5681" lon="0.36674">
        <ele>1533</ele>
        <time>2021-06-19T06:42:56Z</time>
      </trkpt>
      <trkpt lat="42.5682" lon="0.36688">
        <ele>1530</ele>
        <time>2021-06-19T06:43:00Z</time>
      </trkpt>
      <trkpt lat="42.5683" lon="0.3672">
        <ele>1528</ele>
        <time>2021-06-19T06:43:06Z</time>
      </trkpt>
      <trkpt lat="42.5683" lon="0.36751">
        <ele>1529</ele>
        <time>2021-06-19T06:43:11Z</time>
      </trkpt>
      <trkpt lat="42.56817" lon="0.36837">
        <ele>1538</ele>
        <time>2021-06-19T06:43:26Z</time>
      </trkpt>
      <trkpt lat="42.56788" lon="0.36881">
        <ele>1546</ele>
        <time>2021-06-19T06:43:36Z</time>
      </trkpt>
      <trkpt lat="42.56784" lon="0.36896">
        <ele>1547</ele>
        <time>2021-06-19T06:43:39Z</time>
      </trkpt>
      <trkpt lat="42.56798" lon="0.36956">
        <ele>1544</ele>
        <time>2021-06-19T06:43:50Z</time>
      </trkpt>
      <trkpt lat="42.56797" lon="0.37019">
        <ele>1545</ele>
        <time>2021-06-19T06:44:01Z</time>
      </trkpt>
      <trkpt lat="42.56789" lon="0.37038">
        <ele>1547</ele>
        <time>2021-06-19T06:44:05Z</time>
      </trkpt>
      <trkpt lat="42.56782" lon="0.37068">
        <ele>1548</ele>
        <time>2021-06-19T06:44:10Z</time>
      </trkpt>
      <trkpt lat="42.56752" lon="0.37108">
        <ele>1556</ele>
        <time>2021-06-19T06:44:20Z</time>
      </trkpt>
      <trkpt lat="42.56735" lon="0.37135">
        <ele>1557</ele>
        <time>2021-06-19T06:44:26Z</time>
      </trkpt>
      <trkpt lat="42.56729" lon="0.37139">
        <ele>1557</ele>
        <time>2021-06-19T06:44:27Z</time>
      </trkpt>
      <trkpt lat="42.56708" lon="0.37144">
        <ele>1559</ele>
        <time>2021-06-19T06:44:32Z</time>
      </trkpt>
      <trkpt lat="42.56687" lon="0.37146">
        <ele>1561</ele>
        <time>2021-06-19T06:44:37Z</time>
      </trkpt>
      <trkpt lat="42.56675" lon="0.37155">
        <ele>1561</ele>
        <time>2021-06-19T06:44:41Z</time>
      </trkpt>
      <trkpt lat="42.56637" lon="0.37195">
        <ele>1564</ele>
        <time>2021-06-19T06:44:52Z</time>
      </trkpt>
      <trkpt lat="42.566" lon="0.37208">
        <ele>1568</ele>
        <time>2021-06-19T06:45:01Z</time>
      </trkpt>
      <trkpt lat="42.56579" lon="0.37219">
        <ele>1570</ele>
        <time>2021-06-19T06:45:06Z</time>
      </trkpt>
      <trkpt lat="42.56564" lon="0.37243">
        <ele>1571</ele>
        <time>2021-06-19T06:45:11Z</time>
      </trkpt>
      <trkpt lat="42.56498" lon="0.37289">
        <ele>1583</ele>
        <time>2021-06-19T06:45:29Z</time>
      </trkpt>
      <trkpt lat="42.56491" lon="0.37309">
        <ele>1585</ele>
        <time>2021-06-19T06:45:32Z</time>
      </trkpt>
      <trkpt lat="42.56477" lon="0.37332">
        <ele>1587</ele>
        <time>2021-06-19T06:45:38Z</time>
      </trkpt>
      <trkpt lat="42.56442" lon="0.37367">
        <ele>1597</ele>
        <time>2021-06-19T06:45:48Z</time>
      </trkpt>
      <trkpt lat="42.56433" lon="0.3738">
        <ele>1598</ele>
        <time>2021-06-19T06:45:51Z</time>
      </trkpt>
      <trkpt lat="42.56431" lon="0.37389">
        <ele>1597</ele>
        <time>2021-06-19T06:45:52Z</time>
      </trkpt>
      <trkpt lat="42.56436" lon="0.37398">
        <ele>1597</ele>
        <time>2021-06-19T06:45:54Z</time>
      </trkpt>
      <trkpt lat="42.56456" lon="0.37404">
        <ele>1597</ele>
        <time>2021-06-19T06:45:59Z</time>
      </trkpt>
      <trkpt lat="42.56527" lon="0.37389">
        <ele>1596</ele>
        <time>2021-06-19T06:46:16Z</time>
      </trkpt>
      <trkpt lat="42.56571" lon="0.37383">
        <ele>1598</ele>
        <time>2021-06-19T06:46:26Z</time>
      </trkpt>
      <trkpt lat="42.56608" lon="0.37393">
        <ele>1603</ele>
        <time>2021-06-19T06:46:35Z</time>
      </trkpt>
      <trkpt lat="42.56636" lon="0.37406">
        <ele>1608</ele>
        <time>2021-06-19T06:46:42Z</time>
      </trkpt>
      <trkpt lat="42.56662" lon="0.37405">
        <ele>1608</ele>
        <time>2021-06-19T06:46:48Z</time>
      </trkpt>
      <trkpt lat="42.56703" lon="0.37399">
        <ele>1608</ele>
        <time>2021-06-19T06:46:58Z</time>
      </trkpt>
      <trkpt lat="42.56745" lon="0.37403">
        <ele>1611</ele>
        <time>2021-06-19T06:47:08Z</time>
      </trkpt>
      <trkpt lat="42.56783" lon="0.3741">
        <ele>1611</ele>
        <time>2021-06-19T06:47:16Z</time>
      </trkpt>
      <trkpt lat="42.56794" lon="0.37426">
        <ele>1612</ele>
        <time>2021-06-19T06:47:20Z</time>
      </trkpt>
      <trkpt lat="42.56801" lon="0.37449">
        <ele>1614</ele>
        <time>2021-06-19T06:47:25Z</time>
      </trkpt>
      <trkpt lat="42.56794" lon="0.37481">
        <ele>1619</ele>
        <time>2021-06-19T06:47:30Z</time>
      </trkpt>
      <trkpt lat="42.56784" lon="0.37559">
        <ele>1623</ele>
        <time>2021-06-19T06:47:44Z</time>
      </trkpt>
      <trkpt lat="42.5678" lon="0.37574">
        <ele>1624</ele>
        <time>2021-06-19T06:47:47Z</time>
      </trkpt>
      <trkpt lat="42.56731" lon="0.37659">
        <ele>1628</ele>
        <time>2021-06-19T06:48:05Z</time>
      </trkpt>
      <trkpt lat="42.56715" lon="0.37691">
        <ele>1632</ele>
        <time>2021-06-19T06:48:12Z</time>
      </trkpt>
      <trkpt lat="42.56708" lon="0.37736">
        <ele>1633</ele>
        <time>2021-06-19T06:48:20Z</time>
      </trkpt>
      <trkpt lat="42.5671" lon="0.37755">
        <ele>1633</ele>
        <time>2021-06-19T06:48:23Z</time>
      </trkpt>
      <trkpt lat="42.56703" lon="0.37786">
        <ele>1633</ele>
        <time>2021-06-19T06:48:29Z</time>
      </trkpt>
      <trkpt lat="42.56685" lon="0.37804">
        <ele>1635</ele>
        <time>2021-06-19T06:48:34Z</time>
      </trkpt>
      <trkpt lat="42.56657" lon="0.37843">
        <ele>1637</ele>
        <time>2021-06-19T06:48:43Z</time>
      </trkpt>
      <trkpt lat="42.56633" lon="0.37867">
        <ele>1642</ele>
        <time>2021-06-19T06:48:50Z</time>
      </trkpt>
      <trkpt lat="42.5656" lon="0.38005">
        <ele>1651</ele>
        <time>2021-06-19T06:49:19Z</time>
      </trkpt>
      <trkpt lat="42.56552" lon="0.38021">
        <ele>1654</ele>
        <time>2021-06-19T06:49:23Z</time>
      </trkpt>
      <trkpt lat="42.56548" lon="0.38056">
        <ele>1655</ele>
        <time>2021-06-19T06:49:29Z</time>
      </trkpt>
      <trkpt lat="42.5653" lon="0.38132">
        <ele>1663</ele>
        <time>2021-06-19T06:49:43Z</time>
      </trkpt>
      <trkpt lat="42.56513" lon="0.38158">
        <ele>1664</ele>
        <time>2021-06-19T06:49:49Z</time>
      </trkpt>
      <trkpt lat="42.56502" lon="0.38161">
        <ele>1662</ele>
        <time>2021-06-19T06:49:51Z</time>
      </trkpt>
      <trkpt lat="42.56487" lon="0.38173">
        <ele>1667</ele>
        <time>2021-06-19T06:49:55Z</time>
      </trkpt>
      <trkpt lat="42.56425" lon="0.38266">
        <ele>1682</ele>
        <time>2021-06-19T06:50:17Z</time>
      </trkpt>
      <trkpt lat="42.56404" lon="0.38275">
        <ele>1684</ele>
        <time>2021-06-19T06:50:22Z</time>
      </trkpt>
      <trkpt lat="42.56396" lon="0.3829">
        <ele>1688</ele>
        <time>2021-06-19T06:50:25Z</time>
      </trkpt>
      <trkpt lat="42.5637" lon="0.3832">
        <ele>1692</ele>
        <time>2021-06-19T06:50:33Z</time>
      </trkpt>
      <trkpt lat="42.56333" lon="0.38334">
        <ele>1688</ele>
        <time>2021-06-19T06:50:42Z</time>
      </trkpt>
      <trkpt lat="42.56318" lon="0.38342">
        <ele>1695</ele>
        <time>2021-06-19T06:50:46Z</time>
      </trkpt>
      <trkpt lat="42.56315" lon="0.38361">
        <ele>1697</ele>
        <time>2021-06-19T06:50:49Z</time>
      </trkpt>
      <trkpt lat="42.56299" lon="0.38415">
        <ele>1705</ele>
        <time>2021-06-19T06:50:59Z</time>
      </trkpt>
      <trkpt lat="42.56293" lon="0.38469">
        <ele>1708</ele>
        <time>2021-06-19T06:51:09Z</time>
      </trkpt>
      <trkpt lat="42.56275" lon="0.38536">
        <ele>1714</ele>
        <time>2021-06-19T06:51:21Z</time>
      </trkpt>
      <trkpt lat="42.56259" lon="0.38584">
        <ele>1714</ele>
        <time>2021-06-19T06:51:30Z</time>
      </trkpt>
      <trkpt lat="42.56234" lon="0.38616">
        <ele>1720</ele>
        <time>2021-06-19T06:51:38Z</time>
      </trkpt>
      <trkpt lat="42.56218" lon="0.3863">
        <ele>1721</ele>
        <time>2021-06-19T06:51:42Z</time>
      </trkpt>
      <trkpt lat="42.56195" lon="0.3866">
        <ele>1722</ele>
        <time>2021-06-19T06:51:50Z</time>
      </trkpt>
      <trkpt lat="42.5617" lon="0.38682">
        <ele>1722</ele>
        <time>2021-06-19T06:51:57Z</time>
      </trkpt>
      <trkpt lat="42.56141" lon="0.38693">
        <ele>1725</ele>
        <time>2021-06-19T06:52:04Z</time>
      </trkpt>
      <trkpt lat="42.56114" lon="0.38711">
        <ele>1728</ele>
        <time>2021-06-19T06:52:11Z</time>
      </trkpt>
      <trkpt lat="42.56105" lon="0.38727">
        <ele>1730</ele>
        <time>2021-06-19T06:52:14Z</time>
      </trkpt>
      <trkpt lat="42.56101" lon="0.3875">
        <ele>1732</ele>
        <time>2021-06-19T06:52:18Z</time>
      </trkpt>
      <trkpt lat="42.56095" lon="0.38753">
        <ele>1732</ele>
        <time>2021-06-19T06:52:20Z</time>
      </trkpt>
      <trkpt lat="42.56085" lon="0.38747">
        <ele>1730</ele>
        <time>2021-06-19T06:52:22Z</time>
      </trkpt>
      <trkpt lat="42.56063" lon="0.38722">
        <ele>1733</ele>
        <time>2021-06-19T06:52:29Z</time>
      </trkpt>
      <trkpt lat="42.56051" lon="0.38723">
        <ele>1735</ele>
        <time>2021-06-19T06:52:32Z</time>
      </trkpt>
      <trkpt lat="42.56054" lon="0.38732">
        <ele>1735</ele>
        <time>2021-06-19T06:52:34Z</time>
      </trkpt>
      <trkpt lat="42.56071" lon="0.38754">
        <ele>1733</ele>
        <time>2021-06-19T06:52:39Z</time>
      </trkpt>
      <trkpt lat="42.56078" lon="0.38767">
        <ele>1736</ele>
        <time>2021-06-19T06:52:42Z</time>
      </trkpt>
      <trkpt lat="42.56089" lon="0.38793">
        <ele>1742</ele>
        <time>2021-06-19T06:52:47Z</time>
      </trkpt>
      <trkpt lat="42.56097" lon="0.38825">
        <ele>1751</ele>
        <time>2021-06-19T06:52:53Z</time>
      </trkpt>
      <trkpt lat="42.56111" lon="0.38849">
        <ele>1756</ele>
        <time>2021-06-19T06:52:58Z</time>
      </trkpt>
      <trkpt lat="42.56125" lon="0.38841">
        <ele>1755</ele>
        <time>2021-06-19T06:53:02Z</time>
      </trkpt>
      <trkpt lat="42.56143" lon="0.38765">
        <ele>1740</ele>
        <time>2021-06-19T06:53:15Z</time>
      </trkpt>
      <trkpt lat="42.56155" lon="0.3875">
        <ele>1738</ele>
        <time>2021-06-19T06:53:19Z</time>
      </trkpt>
      <trkpt lat="42.56172" lon="0.38753">
        <ele>1741</ele>
        <time>2021-06-19T06:53:23Z</time>
      </trkpt>
      <trkpt lat="42.56171" lon="0.38763">
        <ele>1742</ele>
        <time>2021-06-19T06:53:25Z</time>
      </trkpt>
      <trkpt lat="42.56152" lon="0.38798">
        <ele>1747</ele>
        <time>2021-06-19T06:53:32Z</time>
      </trkpt>
      <trkpt lat="42.56153" lon="0.38918">
        <ele>1768</ele>
        <time>2021-06-19T06:53:53Z</time>
      </trkpt>
      <trkpt lat="42.56152" lon="0.38933">
        <ele>1770</ele>
        <time>2021-06-19T06:53:56Z</time>
      </trkpt>
      <trkpt lat="42.56146" lon="0.38948">
        <ele>1773</ele>
        <time>2021-06-19T06:53:59Z</time>
      </trkpt>
      <trkpt lat="42.56135" lon="0.38957">
        <ele>1776</ele>
        <time>2021-06-19T06:54:02Z</time>
      </trkpt>
      <trkpt lat="42.56124" lon="0.38954">
        <ele>1775</ele>
        <time>2021-06-19T06:54:04Z</time>
      </trkpt>
      <trkpt lat="42.5611" lon="0.38942">
        <ele>1774</ele>
        <time>2021-06-19T06:54:08Z</time>
      </trkpt>
      <trkpt lat="42.56076" lon="0.3892">
        <ele>1772</ele>
        <time>2021-06-19T06:54:17Z</time>
      </trkpt>
      <trkpt lat="42.56045" lon="0.38874">
        <ele>1770</ele>
        <time>2021-06-19T06:54:28Z</time>
      </trkpt>
      <trkpt lat="42.56013" lon="0.38847">
        <ele>1771</ele>
        <time>2021-06-19T06:54:36Z</time>
      </trkpt>
      <trkpt lat="42.55977" lon="0.38836">
        <ele>1771</ele>
        <time>2021-06-19T06:54:45Z</time>
      </trkpt>
      <trkpt lat="42.55966" lon="0.38835">
        <ele>1771</ele>
        <time>2021-06-19T06:54:48Z</time>
      </trkpt>
      <trkpt lat="42.55938" lon="0.38843">
        <ele>1773</ele>
        <time>2021-06-19T06:54:54Z</time>
      </trkpt>
      <trkpt lat="42.55887" lon="0.38883">
        <ele>1783</ele>
        <time>2021-06-19T06:55:08Z</time>
      </trkpt>
      <trkpt lat="42.55858" lon="0.38914">
        <ele>1788</ele>
        <time>2021-06-19T06:55:17Z</time>
      </trkpt>
      <trkpt lat="42.55831" lon="0.3895">
        <ele>1792</ele>
        <time>2021-06-19T06:55:25Z</time>
      </trkpt>
      <trkpt lat="42.55829" lon="0.38971">
        <ele>1795</ele>
        <time>2021-06-19T06:55:29Z</time>
      </trkpt>
      <trkpt lat="42.55839" lon="0.38972">
        <ele>1795</ele>
        <time>2021-06-19T06:55:31Z</time>
      </trkpt>
      <trkpt lat="42.55856" lon="0.38956">
        <ele>1794</ele>
        <time>2021-06-19T06:55:36Z</time>
      </trkpt>
      <trkpt lat="42.55879" lon="0.38929">
        <ele>1792</ele>
        <time>2021-06-19T06:55:43Z</time>
      </trkpt>
      <trkpt lat="42.55924" lon="0.38909">
        <ele>1790</ele>
        <time>2021-06-19T06:55:54Z</time>
      </trkpt>
      <trkpt lat="42.55936" lon="0.38909">
        <ele>1790</ele>
        <time>2021-06-19T06:55:57Z</time>
      </trkpt>
      <trkpt lat="42.55959" lon="0.38914">
        <ele>1792</ele>
        <time>2021-06-19T06:56:03Z</time>
      </trkpt>
      <trkpt lat="42.55972" lon="0.38927">
        <ele>1795</ele>
        <time>2021-06-19T06:56:06Z</time>
      </trkpt>
      <trkpt lat="42.55986" lon="0.38955">
        <ele>1801</ele>
        <time>2021-06-19T06:56:12Z</time>
      </trkpt>
      <trkpt lat="42.55991" lon="0.38978">
        <ele>1805</ele>
        <time>2021-06-19T06:56:16Z</time>
      </trkpt>
      <trkpt lat="42.55989" lon="0.38987">
        <ele>1807</ele>
        <time>2021-06-19T06:56:18Z</time>
      </trkpt>
      <trkpt lat="42.55977" lon="0.38985">
        <ele>1806</ele>
        <time>2021-06-19T06:56:21Z</time>
      </trkpt>
      <trkpt lat="42.55968" lon="0.38962">
        <ele>1802</ele>
        <time>2021-06-19T06:56:25Z</time>
      </trkpt>
      <trkpt lat="42.55944" lon="0.38942">
        <ele>1797</ele>
        <time>2021-06-19T06:56:32Z</time>
      </trkpt>
      <trkpt lat="42.55919" lon="0.38952">
        <ele>1798</ele>
        <time>2021-06-19T06:56:38Z</time>
      </trkpt>
      <trkpt lat="42.55895" lon="0.38974">
        <ele>1800</ele>
        <time>2021-06-19T06:56:45Z</time>
      </trkpt>
      <trkpt lat="42.55888" lon="0.38986">
        <ele>1802</ele>
        <time>2021-06-19T06:56:47Z</time>
      </trkpt>
      <trkpt lat="42.5588" lon="0.39014">
        <ele>1806</ele>
        <time>2021-06-19T06:56:53Z</time>
      </trkpt>
      <trkpt lat="42.55864" lon="0.39055">
        <ele>1811</ele>
        <time>2021-06-19T06:57:01Z</time>
      </trkpt>
      <trkpt lat="42.55847" lon="0.39082">
        <ele>1814</ele>
        <time>2021-06-19T06:57:07Z</time>
      </trkpt>
      <trkpt lat="42.55828" lon="0.39102">
        <ele>1817</ele>
        <time>2021-06-19T06:57:12Z</time>
      </trkpt>
      <trkpt lat="42.5581" lon="0.391">
        <ele>1817</ele>
        <time>2021-06-19T06:57:16Z</time>
      </trkpt>
      <trkpt lat="42.55792" lon="0.39093">
        <ele>1817</ele>
        <time>2021-06-19T06:57:21Z</time>
      </trkpt>
      <trkpt lat="42.55765" lon="0.391">
        <ele>1819</ele>
        <time>2021-06-19T06:57:27Z</time>
      </trkpt>
      <trkpt lat="42.55737" lon="0.39124">
        <ele>1817</ele>
        <time>2021-06-19T06:57:35Z</time>
      </trkpt>
      <trkpt lat="42.55734" lon="0.39132">
        <ele>1816</ele>
        <time>2021-06-19T06:57:37Z</time>
      </trkpt>
      <trkpt lat="42.55735" lon="0.39144">
        <ele>1816</ele>
        <time>2021-06-19T06:57:39Z</time>
      </trkpt>
      <trkpt lat="42.55742" lon="0.39147">
        <ele>1817</ele>
        <time>2021-06-19T06:57:40Z</time>
      </trkpt>
      <trkpt lat="42.55772" lon="0.39145">
        <ele>1821</ele>
        <time>2021-06-19T06:57:47Z</time>
      </trkpt>
      <trkpt lat="42.55828" lon="0.39158">
        <ele>1828</ele>
        <time>2021-06-19T06:58:01Z</time>
      </trkpt>
      <trkpt lat="42.55844" lon="0.39154">
        <ele>1830</ele>
        <time>2021-06-19T06:58:04Z</time>
      </trkpt>
      <trkpt lat="42.55875" lon="0.39129">
        <ele>1828</ele>
        <time>2021-06-19T06:58:13Z</time>
      </trkpt>
      <trkpt lat="42.55921" lon="0.39105">
        <ele>1828</ele>
        <time>2021-06-19T06:58:24Z</time>
      </trkpt>
      <trkpt lat="42.55955" lon="0.39104">
        <ele>1830</ele>
        <time>2021-06-19T06:58:32Z</time>
      </trkpt>
      <trkpt lat="42.56012" lon="0.39134">
        <ele>1840</ele>
        <time>2021-06-19T06:58:47Z</time>
      </trkpt>
      <trkpt lat="42.56088" lon="0.39196">
        <ele>1858</ele>
        <time>2021-06-19T06:59:07Z</time>
      </trkpt>
      <trkpt lat="42.56145" lon="0.39226">
        <ele>1861</ele>
        <time>2021-06-19T06:59:22Z</time>
      </trkpt>
      <trkpt lat="42.56176" lon="0.39257">
        <ele>1869</ele>
        <time>2021-06-19T06:59:31Z</time>
      </trkpt>
      <trkpt lat="42.56216" lon="0.3928">
        <ele>1871</ele>
        <time>2021-06-19T06:59:41Z</time>
      </trkpt>
      <trkpt lat="42.56248" lon="0.39283">
        <ele>1867</ele>
        <time>2021-06-19T06:59:48Z</time>
      </trkpt>
      <trkpt lat="42.56256" lon="0.39292">
        <ele>1867</ele>
        <time>2021-06-19T06:59:51Z</time>
      </trkpt>
      <trkpt lat="42.56263" lon="0.39354">
        <ele>1881</ele>
        <time>2021-06-19T07:00:01Z</time>
      </trkpt>
      <trkpt lat="42.56274" lon="0.39371">
        <ele>1884</ele>
        <time>2021-06-19T07:00:05Z</time>
      </trkpt>
      <trkpt lat="42.56348" lon="0.39416">
        <ele>1881</ele>
        <time>2021-06-19T07:00:24Z</time>
      </trkpt>
      <trkpt lat="42.5635" lon="0.39427">
        <ele>1882</ele>
        <time>2021-06-19T07:00:26Z</time>
      </trkpt>
      <trkpt lat="42.56342" lon="0.39431">
        <ele>1885</ele>
        <time>2021-06-19T07:00:28Z</time>
      </trkpt>
      <trkpt lat="42.56301" lon="0.39419">
        <ele>1893</ele>
        <time>2021-06-19T07:00:38Z</time>
      </trkpt>
      <trkpt lat="42.56242" lon="0.39423">
        <ele>1907</ele>
        <time>2021-06-19T07:00:52Z</time>
      </trkpt>
      <trkpt lat="42.56224" lon="0.39415">
        <ele>1909</ele>
        <time>2021-06-19T07:00:56Z</time>
      </trkpt>
      <trkpt lat="42.56168" lon="0.39372">
        <ele>1909</ele>
        <time>2021-06-19T07:01:11Z</time>
      </trkpt>
      <trkpt lat="42.56151" lon="0.39364">
        <ele>1910</ele>
        <time>2021-06-19T07:01:15Z</time>
      </trkpt>
      <trkpt lat="42.56115" lon="0.39354">
        <ele>1914</ele>
        <time>2021-06-19T07:01:24Z</time>
      </trkpt>
      <trkpt lat="42.56034" lon="0.39344">
        <ele>1914</ele>
        <time>2021-06-19T07:01:43Z</time>
      </trkpt>
      <trkpt lat="42.56015" lon="0.39344">
        <ele>1914</ele>
        <time>2021-06-19T07:01:47Z</time>
      </trkpt>
      <trkpt lat="42.55964" lon="0.39377">
        <ele>1915</ele>
        <time>2021-06-19T07:02:01Z</time>
      </trkpt>
      <trkpt lat="42.55955" lon="0.3939">
        <ele>1917</ele>
        <time>2021-06-19T07:02:04Z</time>
      </trkpt>
      <trkpt lat="42.55959" lon="0.39398">
        <ele>1920</ele>
        <time>2021-06-19T07:02:05Z</time>
      </trkpt>
      <trkpt lat="42.55978" lon="0.39386">
        <ele>1921</ele>
        <time>2021-06-19T07:02:10Z</time>
      </trkpt>
      <trkpt lat="42.56006" lon="0.39376">
        <ele>1924</ele>
        <time>2021-06-19T07:02:17Z</time>
      </trkpt>
      <trkpt lat="42.56031" lon="0.39374">
        <ele>1924</ele>
        <time>2021-06-19T07:02:23Z</time>
      </trkpt>
      <trkpt lat="42.56048" lon="0.39379">
        <ele>1927</ele>
        <time>2021-06-19T07:02:27Z</time>
      </trkpt>
      <trkpt lat="42.56079" lon="0.39401">
        <ele>1937</ele>
        <time>2021-06-19T07:02:35Z</time>
      </trkpt>
      <trkpt lat="42.56101" lon="0.39413">
        <ele>1937</ele>
        <time>2021-06-19T07:02:41Z</time>
      </trkpt>
      <trkpt lat="42.56119" lon="0.39434">
        <ele>1941</ele>
        <time>2021-06-19T07:02:46Z</time>
      </trkpt>
      <trkpt lat="42.56136" lon="0.39469">
        <ele>1949</ele>
        <time>2021-06-19T07:02:53Z</time>
      </trkpt>
      <trkpt lat="42.56182" lon="0.39529">
        <ele>1954</ele>
        <time>2021-06-19T07:03:08Z</time>
      </trkpt>
      <trkpt lat="42.56215" lon="0.39602">
        <ele>1959</ele>
        <time>2021-06-19T07:03:23Z</time>
      </trkpt>
      <trkpt lat="42.56221" lon="0.39693">
        <ele>1973</ele>
        <time>2021-06-19T07:03:39Z</time>
      </trkpt>
      <trkpt lat="42.56236" lon="0.39763">
        <ele>1975</ele>
        <time>2021-06-19T07:03:51Z</time>
      </trkpt>
      <trkpt lat="42.56282" lon="0.39862">
        <ele>1991</ele>
        <time>2021-06-19T07:04:11Z</time>
      </trkpt>
      <trkpt lat="42.56291" lon="0.39869">
        <ele>1993</ele>
        <time>2021-06-19T07:04:14Z</time>
      </trkpt>
      <trkpt lat="42.56298" lon="0.39862">
        <ele>1991</ele>
        <time>2021-06-19T07:04:16Z</time>
      </trkpt>
      <trkpt lat="42.56307" lon="0.39846">
        <ele>1985</ele>
        <time>2021-06-19T07:04:19Z</time>
      </trkpt>
      <trkpt lat="42.56329" lon="0.39817">
        <ele>1976</ele>
        <time>2021-06-19T07:04:26Z</time>
      </trkpt>
      <trkpt lat="42.56358" lon="0.39807">
        <ele>1973</ele>
        <time>2021-06-19T07:04:33Z</time>
      </trkpt>
      <trkpt lat="42.5638" lon="0.3982">
        <ele>1977</ele>
        <time>2021-06-19T07:04:39Z</time>
      </trkpt>
      <trkpt lat="42.56388" lon="0.39838">
        <ele>1982</ele>
        <time>2021-06-19T07:04:43Z</time>
      </trkpt>
      <trkpt lat="42.56416" lon="0.39885">
        <ele>1999</ele>
        <time>2021-06-19T07:04:53Z</time>
      </trkpt>
      <trkpt lat="42.56429" lon="0.39894">
        <ele>2005</ele>
        <time>2021-06-19T07:04:56Z</time>
      </trkpt>
      <trkpt lat="42.56441" lon="0.39895">
        <ele>2009</ele>
        <time>2021-06-19T07:04:59Z</time>
      </trkpt>
      <trkpt lat="42.56449" lon="0.39887">
        <ele>2009</ele>
        <time>2021-06-19T07:05:02Z</time>
      </trkpt>
      <trkpt lat="42.56513" lon="0.39767">
        <ele>1999</ele>
        <time>2021-06-19T07:05:27Z</time>
      </trkpt>
      <trkpt lat="42.56581" lon="0.39675">
        <ele>2005</ele>
        <time>2021-06-19T07:05:50Z</time>
      </trkpt>
      <trkpt lat="42.56659" lon="0.39598">
        <ele>2014</ele>
        <time>2021-06-19T07:06:12Z</time>
      </trkpt>
      <trkpt lat="42.5669" lon="0.3956">
        <ele>2014</ele>
        <time>2021-06-19T07:06:22Z</time>
      </trkpt>
      <trkpt lat="42.56749" lon="0.39504">
        <ele>2020</ele>
        <time>2021-06-19T07:06:39Z</time>
      </trkpt>
      <trkpt lat="42.56786" lon="0.3945">
        <ele>2010</ele>
        <time>2021-06-19T07:06:51Z</time>
      </trkpt>
      <trkpt lat="42.56799" lon="0.39407">
        <ele>2004</ele>
        <time>2021-06-19T07:06:59Z</time>
      </trkpt>
      <trkpt lat="42.56805" lon="0.39397">
        <ele>2003</ele>
        <time>2021-06-19T07:07:01Z</time>
      </trkpt>
      <trkpt lat="42.56812" lon="0.39398">
        <ele>2004</ele>
        <time>2021-06-19T07:07:03Z</time>
      </trkpt>
      <trkpt lat="42.56817" lon="0.39408">
        <ele>2005</ele>
        <time>2021-06-19T07:07:05Z</time>
      </trkpt>
      <trkpt lat="42.56834" lon="0.39476">
        <ele>2020</ele>
        <time>2021-06-19T07:07:18Z</time>
      </trkpt>
      <trkpt lat="42.56889" lon="0.39604">
        <ele>2014</ele>
        <time>2021-06-19T07:07:43Z</time>
      </trkpt>
      <trkpt lat="42.56891" lon="0.39647">
        <ele>2018</ele>
        <time>2021-06-19T07:07:50Z</time>
      </trkpt>
      <trkpt lat="42.56895" lon="0.3967">
        <ele>2019</ele>
        <time>2021-06-19T07:07:55Z</time>
      </trkpt>
      <trkpt lat="42.56902" lon="0.39699">
        <ele>2019</ele>
        <time>2021-06-19T07:08:00Z</time>
      </trkpt>
      <trkpt lat="42.56923" lon="0.39755">
        <ele>2017</ele>
        <time>2021-06-19T07:08:11Z</time>
      </trkpt>
      <trkpt lat="42.56937" lon="0.39813">
        <ele>2019</ele>
        <time>2021-06-19T07:08:21Z</time>
      </trkpt>
      <trkpt lat="42.56946" lon="0.39827">
        <ele>2018</ele>
        <time>2021-06-19T07:08:24Z</time>
      </trkpt>
      <trkpt lat="42.56959" lon="0.39856">
        <ele>2021</ele>
        <time>2021-06-19T07:08:30Z</time>
      </trkpt>
      <trkpt lat="42.56965" lon="0.39876">
        <ele>2024</ele>
        <time>2021-06-19T07:08:34Z</time>
      </trkpt>
      <trkpt lat="42.56976" lon="0.39895">
        <ele>2025</ele>
        <time>2021-06-19T07:08:38Z</time>
      </trkpt>
      <trkpt lat="42.57019" lon="0.39923">
        <ele>2019</ele>
        <time>2021-06-19T07:08:49Z</time>
      </trkpt>
      <trkpt lat="42.57061" lon="0.39944">
        <ele>2017</ele>
        <time>2021-06-19T07:09:00Z</time>
      </trkpt>
      <trkpt lat="42.57088" lon="0.3995">
        <ele>2013</ele>
        <time>2021-06-19T07:09:06Z</time>
      </trkpt>
      <trkpt lat="42.57199" lon="0.39992">
        <ele>2002</ele>
        <time>2021-06-19T07:09:33Z</time>
      </trkpt>
      <trkpt lat="42.57201" lon="0.39998">
        <ele>2002</ele>
        <time>2021-06-19T07:09:34Z</time>
      </trkpt>
      <trkpt lat="42.5718" lon="0.40033">
        <ele>2002</ele>
        <time>2021-06-19T07:09:42Z</time>
      </trkpt>
      <trkpt lat="42.57166" lon="0.40047">
        <ele>2004</ele>
        <time>2021-06-19T07:09:46Z</time>
      </trkpt>
      <trkpt lat="42.57154" lon="0.40051">
        <ele>2006</ele>
        <time>2021-06-19T07:09:49Z</time>
      </trkpt>
      <trkpt lat="42.57132" lon="0.40051">
        <ele>2011</ele>
        <time>2021-06-19T07:09:54Z</time>
      </trkpt>
      <trkpt lat="42.57121" lon="0.40059">
        <ele>2013</ele>
        <time>2021-06-19T07:09:57Z</time>
      </trkpt>
      <trkpt lat="42.57129" lon="0.40068">
        <ele>2011</ele>
        <time>2021-06-19T07:09:59Z</time>
      </trkpt>
      <trkpt lat="42.5715" lon="0.40075">
        <ele>2005</ele>
        <time>2021-06-19T07:10:04Z</time>
      </trkpt>
      <trkpt lat="42.57177" lon="0.40066">
        <ele>1999</ele>
        <time>2021-06-19T07:10:11Z</time>
      </trkpt>
      <trkpt lat="42.57196" lon="0.40043">
        <ele>1997</ele>
        <time>2021-06-19T07:10:17Z</time>
      </trkpt>
      <trkpt lat="42.57232" lon="0.40015">
        <ele>1993</ele>
        <time>2021-06-19T07:10:26Z</time>
      </trkpt>
      <trkpt lat="42.57277" lon="0.39995">
        <ele>1992</ele>
        <time>2021-06-19T07:10:37Z</time>
      </trkpt>
      <trkpt lat="42.57323" lon="0.39982">
        <ele>1990</ele>
        <time>2021-06-19T07:10:48Z</time>
      </trkpt>
      <trkpt lat="42.57349" lon="0.39981">
        <ele>1990</ele>
        <time>2021-06-19T07:10:54Z</time>
      </trkpt>
      <trkpt lat="42.5737" lon="0.39971">
        <ele>1992</ele>
        <time>2021-06-19T07:11:00Z</time>
      </trkpt>
      <trkpt lat="42.5739" lon="0.39996">
        <ele>1989</ele>
        <time>2021-06-19T07:11:06Z</time>
      </trkpt>
      <trkpt lat="42.57421" lon="0.40009">
        <ele>1985</ele>
        <time>2021-06-19T07:11:14Z</time>
      </trkpt>
      <trkpt lat="42.57499" lon="0.40009">
        <ele>1978</ele>
        <time>2021-06-19T07:11:32Z</time>
      </trkpt>
      <trkpt lat="42.57543" lon="0.40026">
        <ele>1972</ele>
        <time>2021-06-19T07:11:42Z</time>
      </trkpt>
      <trkpt lat="42.57592" lon="0.40035">
        <ele>1970</ele>
        <time>2021-06-19T07:11:54Z</time>
      </trkpt>
      <trkpt lat="42.57625" lon="0.40057">
        <ele>1967</ele>
        <time>2021-06-19T07:12:03Z</time>
      </trkpt>
      <trkpt lat="42.57644" lon="0.40074">
        <ele>1965</ele>
        <time>2021-06-19T07:12:08Z</time>
      </trkpt>
      <trkpt lat="42.5765" lon="0.40094">
        <ele>1961</ele>
        <time>2021-06-19T07:12:12Z</time>
      </trkpt>
      <trkpt lat="42.57676" lon="0.40126">
        <ele>1959</ele>
        <time>2021-06-19T07:12:20Z</time>
      </trkpt>
      <trkpt lat="42.5768" lon="0.40157">
        <ele>1954</ele>
        <time>2021-06-19T07:12:25Z</time>
      </trkpt>
      <trkpt lat="42.57703" lon="0.40208">
        <ele>1947</ele>
        <time>2021-06-19T07:12:36Z</time>
      </trkpt>
      <trkpt lat="42.57719" lon="0.40224">
        <ele>1946</ele>
        <time>2021-06-19T07:12:40Z</time>
      </trkpt>
      <trkpt lat="42.57733" lon="0.40219">
        <ele>1948</ele>
        <time>2021-06-19T07:12:44Z</time>
      </trkpt>
      <trkpt lat="42.57757" lon="0.40198">
        <ele>1953</ele>
        <time>2021-06-19T07:12:50Z</time>
      </trkpt>
      <trkpt lat="42.5781" lon="0.4023">
        <ele>1952</ele>
        <time>2021-06-19T07:13:04Z</time>
      </trkpt>
      <trkpt lat="42.57824" lon="0.40227">
        <ele>1953</ele>
        <time>2021-06-19T07:13:07Z</time>
      </trkpt>
      <trkpt lat="42.57836" lon="0.4023">
        <ele>1954</ele>
        <time>2021-06-19T07:13:10Z</time>
      </trkpt>
      <trkpt lat="42.5784" lon="0.40253">
        <ele>1952</ele>
        <time>2021-06-19T07:13:14Z</time>
      </trkpt>
      <trkpt lat="42.57824" lon="0.40301">
        <ele>1945</ele>
        <time>2021-06-19T07:13:23Z</time>
      </trkpt>
      <trkpt lat="42.57824" lon="0.40376">
        <ele>1935</ele>
        <time>2021-06-19T07:13:36Z</time>
      </trkpt>
      <trkpt lat="42.57827" lon="0.40399">
        <ele>1931</ele>
        <time>2021-06-19T07:13:40Z</time>
      </trkpt>
      <trkpt lat="42.57836" lon="0.40414">
        <ele>1931</ele>
        <time>2021-06-19T07:13:43Z</time>
      </trkpt>
      <trkpt lat="42.57833" lon="0.40425">
        <ele>1928</ele>
        <time>2021-06-19T07:13:45Z</time>
      </trkpt>
      <trkpt lat="42.57829" lon="0.40425">
        <ele>1927</ele>
        <time>2021-06-19T07:13:46Z</time>
      </trkpt>
      <trkpt lat="42.57829" lon="0.40447">
        <ele>1923</ele>
        <time>2021-06-19T07:13:50Z</time>
      </trkpt>
      <trkpt lat="42.57849" lon="0.40491">
        <ele>1920</ele>
        <time>2021-06-19T07:13:59Z</time>
      </trkpt>
      <trkpt lat="42.57851" lon="0.40512">
        <ele>1916</ele>
        <time>2021-06-19T07:14:03Z</time>
      </trkpt>
      <trkpt lat="42.57859" lon="0.4052">
        <ele>1917</ele>
        <time>2021-06-19T07:14:05Z</time>
      </trkpt>
      <trkpt lat="42.57882" lon="0.4057">
        <ele>1911</ele>
        <time>2021-06-19T07:14:15Z</time>
      </trkpt>
      <trkpt lat="42.57904" lon="0.40596">
        <ele>1910</ele>
        <time>2021-06-19T07:14:22Z</time>
      </trkpt>
      <trkpt lat="42.57932" lon="0.40611">
        <ele>1916</ele>
        <time>2021-06-19T07:14:29Z</time>
      </trkpt>
      <trkpt lat="42.57959" lon="0.4062">
        <ele>1924</ele>
        <time>2021-06-19T07:14:35Z</time>
      </trkpt>
      <trkpt lat="42.57972" lon="0.40646">
        <ele>1921</ele>
        <time>2021-06-19T07:14:41Z</time>
      </trkpt>
      <trkpt lat="42.57985" lon="0.40709">
        <ele>1906</ele>
        <time>2021-06-19T07:14:52Z</time>
      </trkpt>
      <trkpt lat="42.58001" lon="0.40744">
        <ele>1900</ele>
        <time>2021-06-19T07:14:59Z</time>
      </trkpt>
      <trkpt lat="42.58015" lon="0.4076">
        <ele>1902</ele>
        <time>2021-06-19T07:15:03Z</time>
      </trkpt>
      <trkpt lat="42.58033" lon="0.40772">
        <ele>1906</ele>
        <time>2021-06-19T07:15:08Z</time>
      </trkpt>
      <trkpt lat="42.58056" lon="0.40833">
        <ele>1894</ele>
        <time>2021-06-19T07:15:20Z</time>
      </trkpt>
      <trkpt lat="42.58075" lon="0.40894">
        <ele>1883</ele>
        <time>2021-06-19T07:15:31Z</time>
      </trkpt>
      <trkpt lat="42.58089" lon="0.40918">
        <ele>1879</ele>
        <time>2021-06-19T07:15:36Z</time>
      </trkpt>
      <trkpt lat="42.5811" lon="0.40931">
        <ele>1876</ele>
        <time>2021-06-19T07:15:42Z</time>
      </trkpt>
      <trkpt lat="42.58139" lon="0.40923">
        <ele>1880</ele>
        <time>2021-06-19T07:15:49Z</time>
      </trkpt>
      <trkpt lat="42.58163" lon="0.4091">
        <ele>1886</ele>
        <time>2021-06-19T07:15:55Z</time>
      </trkpt>
      <trkpt lat="42.58184" lon="0.40913">
        <ele>1883</ele>
        <time>2021-06-19T07:16:00Z</time>
      </trkpt>
      <trkpt lat="42.58207" lon="0.40921">
        <ele>1877</ele>
        <time>2021-06-19T07:16:05Z</time>
      </trkpt>
      <trkpt lat="42.58224" lon="0.40921">
        <ele>1876</ele>
        <time>2021-06-19T07:16:09Z</time>
      </trkpt>
      <trkpt lat="42.58232" lon="0.40925">
        <ele>1873</ele>
        <time>2021-06-19T07:16:11Z</time>
      </trkpt>
      <trkpt lat="42.58226" lon="0.40936">
        <ele>1871</ele>
        <time>2021-06-19T07:16:14Z</time>
      </trkpt>
      <trkpt lat="42.58196" lon="0.40938">
        <ele>1874</ele>
        <time>2021-06-19T07:16:21Z</time>
      </trkpt>
      <trkpt lat="42.58183" lon="0.40956">
        <ele>1870</ele>
        <time>2021-06-19T07:16:25Z</time>
      </trkpt>
      <trkpt lat="42.58172" lon="0.40982">
        <ele>1864</ele>
        <time>2021-06-19T07:16:30Z</time>
      </trkpt>
      <trkpt lat="42.58162" lon="0.40988">
        <ele>1862</ele>
        <time>2021-06-19T07:16:33Z</time>
      </trkpt>
      <trkpt lat="42.5815" lon="0.40991">
        <ele>1861</ele>
        <time>2021-06-19T07:16:36Z</time>
      </trkpt>
      <trkpt lat="42.58134" lon="0.41006">
        <ele>1857</ele>
        <time>2021-06-19T07:16:40Z</time>
      </trkpt>
      <trkpt lat="42.5812" lon="0.41009">
        <ele>1856</ele>
        <time>2021-06-19T07:16:43Z</time>
      </trkpt>
      <trkpt lat="42.58096" lon="0.40996">
        <ele>1858</ele>
        <time>2021-06-19T07:16:49Z</time>
      </trkpt>
      <trkpt lat="42.5809" lon="0.41001">
        <ele>1857</ele>
        <time>2021-06-19T07:16:51Z</time>
      </trkpt>
      <trkpt lat="42.58092" lon="0.41012">
        <ele>1855</ele>
        <time>2021-06-19T07:16:53Z</time>
      </trkpt>
      <trkpt lat="42.58136" lon="0.41049">
        <ele>1847</ele>
        <time>2021-06-19T07:17:05Z</time>
      </trkpt>
      <trkpt lat="42.58152" lon="0.41048">
        <ele>1848</ele>
        <time>2021-06-19T07:17:09Z</time>
      </trkpt>
      <trkpt lat="42.5817" lon="0.41028">
        <ele>1852</ele>
        <time>2021-06-19T07:17:14Z</time>
      </trkpt>
      <trkpt lat="42.58223" lon="0.40993">
        <ele>1854</ele>
        <time>2021-06-19T07:17:28Z</time>
      </trkpt>
      <trkpt lat="42.58277" lon="0.4099">
        <ele>1848</ele>
        <time>2021-06-19T07:17:41Z</time>
      </trkpt>
      <trkpt lat="42.58363" lon="0.40931">
        <ele>1858</ele>
        <time>2021-06-19T07:18:03Z</time>
      </trkpt>
      <trkpt lat="42.58406" lon="0.40931">
        <ele>1850</ele>
        <time>2021-06-19T07:18:13Z</time>
      </trkpt>
      <trkpt lat="42.58426" lon="0.40934">
        <ele>1846</ele>
        <time>2021-06-19T07:18:18Z</time>
      </trkpt>
      <trkpt lat="42.58435" lon="0.40925">
        <ele>1848</ele>
        <time>2021-06-19T07:18:20Z</time>
      </trkpt>
      <trkpt lat="42.58438" lon="0.40908">
        <ele>1854</ele>
        <time>2021-06-19T07:18:23Z</time>
      </trkpt>
      <trkpt lat="42.58478" lon="0.40879">
        <ele>1862</ele>
        <time>2021-06-19T07:18:34Z</time>
      </trkpt>
      <trkpt lat="42.58531" lon="0.40854">
        <ele>1869</ele>
        <time>2021-06-19T07:18:47Z</time>
      </trkpt>
      <trkpt lat="42.58585" lon="0.40837">
        <ele>1876</ele>
        <time>2021-06-19T07:19:00Z</time>
      </trkpt>
      <trkpt lat="42.58601" lon="0.40842">
        <ele>1877</ele>
        <time>2021-06-19T07:19:04Z</time>
      </trkpt>
      <trkpt lat="42.58617" lon="0.40866">
        <ele>1869</ele>
        <time>2021-06-19T07:19:10Z</time>
      </trkpt>
      <trkpt lat="42.58649" lon="0.40888">
        <ele>1865</ele>
        <time>2021-06-19T07:19:18Z</time>
      </trkpt>
      <trkpt lat="42.58673" lon="0.4089">
        <ele>1869</ele>
        <time>2021-06-19T07:19:24Z</time>
      </trkpt>
      <trkpt lat="42.58687" lon="0.40909">
        <ele>1861</ele>
        <time>2021-06-19T07:19:28Z</time>
      </trkpt>
      <trkpt lat="42.58722" lon="0.40908">
        <ele>1863</ele>
        <time>2021-06-19T07:19:36Z</time>
      </trkpt>
      <trkpt lat="42.58762" lon="0.40897">
        <ele>1868</ele>
        <time>2021-06-19T07:19:46Z</time>
      </trkpt>
      <trkpt lat="42.58782" lon="0.40906">
        <ele>1863</ele>
        <time>2021-06-19T07:19:51Z</time>
      </trkpt>
      <trkpt lat="42.58816" lon="0.40901">
        <ele>1864</ele>
        <time>2021-06-19T07:19:59Z</time>
      </trkpt>
      <trkpt lat="42.58841" lon="0.40891">
        <ele>1866</ele>
        <time>2021-06-19T07:20:05Z</time>
      </trkpt>
      <trkpt lat="42.58867" lon="0.40894">
        <ele>1861</ele>
        <time>2021-06-19T07:20:11Z</time>
      </trkpt>
      <trkpt lat="42.5891" lon="0.40888">
        <ele>1857</ele>
        <time>2021-06-19T07:20:21Z</time>
      </trkpt>
      <trkpt lat="42.58961" lon="0.40913">
        <ele>1843</ele>
        <time>2021-06-19T07:20:34Z</time>
      </trkpt>
      <trkpt lat="42.58995" lon="0.40911">
        <ele>1842</ele>
        <time>2021-06-19T07:20:42Z</time>
      </trkpt>
      <trkpt lat="42.59034" lon="0.40898">
        <ele>1845</ele>
        <time>2021-06-19T07:20:51Z</time>
      </trkpt>
      <trkpt lat="42.59064" lon="0.40907">
        <ele>1841</ele>
        <time>2021-06-19T07:20:58Z</time>
      </trkpt>
      <trkpt lat="42.59094" lon="0.40904">
        <ele>1844</ele>
        <time>2021-06-19T07:21:05Z</time>
      </trkpt>
      <trkpt lat="42.59113" lon="0.40913">
        <ele>1845</ele>
        <time>2021-06-19T07:21:10Z</time>
      </trkpt>
      <trkpt lat="42.5912" lon="0.40925">
        <ele>1846</ele>
        <time>2021-06-19T07:21:13Z</time>
      </trkpt>
      <trkpt lat="42.59115" lon="0.40934">
        <ele>1845</ele>
        <time>2021-06-19T07:21:14Z</time>
      </trkpt>
      <trkpt lat="42.59087" lon="0.40962">
        <ele>1837</ele>
        <time>2021-06-19T07:21:23Z</time>
      </trkpt>
      <trkpt lat="42.59076" lon="0.40994">
        <ele>1832</ele>
        <time>2021-06-19T07:21:29Z</time>
      </trkpt>
      <trkpt lat="42.59058" lon="0.41014">
        <ele>1832</ele>
        <time>2021-06-19T07:21:34Z</time>
      </trkpt>
      <trkpt lat="42.59026" lon="0.41026">
        <ele>1827</ele>
        <time>2021-06-19T07:21:42Z</time>
      </trkpt>
      <trkpt lat="42.59017" lon="0.41043">
        <ele>1827</ele>
        <time>2021-06-19T07:21:45Z</time>
      </trkpt>
      <trkpt lat="42.59012" lon="0.41069">
        <ele>1829</ele>
        <time>2021-06-19T07:21:50Z</time>
      </trkpt>
      <trkpt lat="42.59" lon="0.41072">
        <ele>1825</ele>
        <time>2021-06-19T07:21:53Z</time>
      </trkpt>
      <trkpt lat="42.59" lon="0.41087">
        <ele>1827</ele>
        <time>2021-06-19T07:21:56Z</time>
      </trkpt>
      <trkpt lat="42.58987" lon="0.41127">
        <ele>1827</ele>
        <time>2021-06-19T07:22:03Z</time>
      </trkpt>
      <trkpt lat="42.58954" lon="0.41197">
        <ele>1814</ele>
        <time>2021-06-19T07:22:17Z</time>
      </trkpt>
      <trkpt lat="42.58951" lon="0.41228">
        <ele>1812</ele>
        <time>2021-06-19T07:22:23Z</time>
      </trkpt>
      <trkpt lat="42.58937" lon="0.41254">
        <ele>1803</ele>
        <time>2021-06-19T07:22:28Z</time>
      </trkpt>
      <trkpt lat="42.58924" lon="0.41288">
        <ele>1792</ele>
        <time>2021-06-19T07:22:35Z</time>
      </trkpt>
      <trkpt lat="42.58912" lon="0.41351">
        <ele>1784</ele>
        <time>2021-06-19T07:22:46Z</time>
      </trkpt>
      <trkpt lat="42.58902" lon="0.4136">
        <ele>1780</ele>
        <time>2021-06-19T07:22:49Z</time>
      </trkpt>
      <trkpt lat="42.58885" lon="0.41361">
        <ele>1770</ele>
        <time>2021-06-19T07:22:53Z</time>
      </trkpt>
      <trkpt lat="42.58873" lon="0.4138">
        <ele>1766</ele>
        <time>2021-06-19T07:22:57Z</time>
      </trkpt>
      <trkpt lat="42.58849" lon="0.41441">
        <ele>1766</ele>
        <time>2021-06-19T07:23:09Z</time>
      </trkpt>
      <trkpt lat="42.58832" lon="0.41458">
        <ele>1761</ele>
        <time>2021-06-19T07:23:14Z</time>
      </trkpt>
      <trkpt lat="42.58805" lon="0.41473">
        <ele>1751</ele>
        <time>2021-06-19T07:23:21Z</time>
      </trkpt>
      <trkpt lat="42.58773" lon="0.41496">
        <ele>1740</ele>
        <time>2021-06-19T07:23:29Z</time>
      </trkpt>
      <trkpt lat="42.58742" lon="0.41511">
        <ele>1729</ele>
        <time>2021-06-19T07:23:37Z</time>
      </trkpt>
      <trkpt lat="42.58728" lon="0.41495">
        <ele>1719</ele>
        <time>2021-06-19T07:23:41Z</time>
      </trkpt>
      <trkpt lat="42.58711" lon="0.41458">
        <ele>1704</ele>
        <time>2021-06-19T07:23:49Z</time>
      </trkpt>
      <trkpt lat="42.58698" lon="0.41451">
        <ele>1698</ele>
        <time>2021-06-19T07:23:52Z</time>
      </trkpt>
      <trkpt lat="42.58668" lon="0.41474">
        <ele>1692</ele>
        <time>2021-06-19T07:24:00Z</time>
      </trkpt>
      <trkpt lat="42.58612" lon="0.41558">
        <ele>1693</ele>
        <time>2021-06-19T07:24:19Z</time>
      </trkpt>
      <trkpt lat="42.58572" lon="0.41623">
        <ele>1698</ele>
        <time>2021-06-19T07:24:34Z</time>
      </trkpt>
      <trkpt lat="42.58553" lon="0.41662">
        <ele>1703</ele>
        <time>2021-06-19T07:24:42Z</time>
      </trkpt>
      <trkpt lat="42.58544" lon="0.41691">
        <ele>1704</ele>
        <time>2021-06-19T07:24:47Z</time>
      </trkpt>
      <trkpt lat="42.5849" lon="0.41816">
        <ele>1706</ele>
        <time>2021-06-19T07:25:12Z</time>
      </trkpt>
      <trkpt lat="42.58453" lon="0.4188">
        <ele>1711</ele>
        <time>2021-06-19T07:25:26Z</time>
      </trkpt>
      <trkpt lat="42.58429" lon="0.41906">
        <ele>1708</ele>
        <time>2021-06-19T07:25:34Z</time>
      </trkpt>
      <trkpt lat="42.58352" lon="0.41961">
        <ele>1697</ele>
        <time>2021-06-19T07:25:54Z</time>
      </trkpt>
      <trkpt lat="42.58336" lon="0.41979">
        <ele>1695</ele>
        <time>2021-06-19T07:25:59Z</time>
      </trkpt>
      <trkpt lat="42.58348" lon="0.4203">
        <ele>1713</ele>
        <time>2021-06-19T07:26:08Z</time>
      </trkpt>
      <trkpt lat="42.58348" lon="0.42042">
        <ele>1716</ele>
        <time>2021-06-19T07:26:10Z</time>
      </trkpt>
      <trkpt lat="42.58326" lon="0.42037">
        <ele>1708</ele>
        <time>2021-06-19T07:26:15Z</time>
      </trkpt>
      <trkpt lat="42.58306" lon="0.42027">
        <ele>1700</ele>
        <time>2021-06-19T07:26:20Z</time>
      </trkpt>
      <trkpt lat="42.58283" lon="0.42024">
        <ele>1694</ele>
        <time>2021-06-19T07:26:26Z</time>
      </trkpt>
      <trkpt lat="42.5824" lon="0.42034">
        <ele>1688</ele>
        <time>2021-06-19T07:26:36Z</time>
      </trkpt>
      <trkpt lat="42.58214" lon="0.42064">
        <ele>1692</ele>
        <time>2021-06-19T07:26:44Z</time>
      </trkpt>
      <trkpt lat="42.58175" lon="0.42079">
        <ele>1684</ele>
        <time>2021-06-19T07:26:53Z</time>
      </trkpt>
      <trkpt lat="42.58092" lon="0.42148">
        <ele>1678</ele>
        <time>2021-06-19T07:27:16Z</time>
      </trkpt>
      <trkpt lat="42.57989" lon="0.42198">
        <ele>1655</ele>
        <time>2021-06-19T07:27:41Z</time>
      </trkpt>
      <trkpt lat="42.57932" lon="0.42219">
        <ele>1637</ele>
        <time>2021-06-19T07:27:55Z</time>
      </trkpt>
      <trkpt lat="42.57863" lon="0.42295">
        <ele>1632</ele>
        <time>2021-06-19T07:28:16Z</time>
      </trkpt>
      <trkpt lat="42.57838" lon="0.42337">
        <ele>1638</ele>
        <time>2021-06-19T07:28:25Z</time>
      </trkpt>
      <trkpt lat="42.57793" lon="0.42395">
        <ele>1629</ele>
        <time>2021-06-19T07:28:40Z</time>
      </trkpt>
      <trkpt lat="42.57767" lon="0.42436">
        <ele>1624</ele>
        <time>2021-06-19T07:28:49Z</time>
      </trkpt>
      <trkpt lat="42.57746" lon="0.42533">
        <ele>1640</ele>
        <time>2021-06-19T07:29:06Z</time>
      </trkpt>
      <trkpt lat="42.57727" lon="0.42568">
        <ele>1631</ele>
        <time>2021-06-19T07:29:14Z</time>
      </trkpt>
      <trkpt lat="42.57666" lon="0.42644">
        <ele>1601</ele>
        <time>2021-06-19T07:29:33Z</time>
      </trkpt>
      <trkpt lat="42.57643" lon="0.42754">
        <ele>1608</ele>
        <time>2021-06-19T07:29:53Z</time>
      </trkpt>
      <trkpt lat="42.5763" lon="0.4278">
        <ele>1602</ele>
        <time>2021-06-19T07:29:58Z</time>
      </trkpt>
      <trkpt lat="42.57589" lon="0.42824">
        <ele>1580</ele>
        <time>2021-06-19T07:30:11Z</time>
      </trkpt>
      <trkpt lat="42.57579" lon="0.42867">
        <ele>1580</ele>
        <time>2021-06-19T07:30:18Z</time>
      </trkpt>
      <trkpt lat="42.57586" lon="0.42972">
        <ele>1592</ele>
        <time>2021-06-19T07:30:36Z</time>
      </trkpt>
      <trkpt lat="42.57586" lon="0.43042">
        <ele>1593</ele>
        <time>2021-06-19T07:30:48Z</time>
      </trkpt>
      <trkpt lat="42.57575" lon="0.43087">
        <ele>1587</ele>
        <time>2021-06-19T07:30:57Z</time>
      </trkpt>
      <trkpt lat="42.5754" lon="0.43134">
        <ele>1567</ele>
        <time>2021-06-19T07:31:08Z</time>
      </trkpt>
      <trkpt lat="42.57534" lon="0.43184">
        <ele>1566</ele>
        <time>2021-06-19T07:31:17Z</time>
      </trkpt>
      <trkpt lat="42.57517" lon="0.4327">
        <ele>1553</ele>
        <time>2021-06-19T07:31:32Z</time>
      </trkpt>
      <trkpt lat="42.57525" lon="0.43335">
        <ele>1549</ele>
        <time>2021-06-19T07:31:43Z</time>
      </trkpt>
      <trkpt lat="42.57552" lon="0.43426">
        <ele>1536</ele>
        <time>2021-06-19T07:32:00Z</time>
      </trkpt>
      <trkpt lat="42.57582" lon="0.43493">
        <ele>1520</ele>
        <time>2021-06-19T07:32:14Z</time>
      </trkpt>
      <trkpt lat="42.57633" lon="0.43532">
        <ele>1519</ele>
        <time>2021-06-19T07:32:27Z</time>
      </trkpt>
      <trkpt lat="42.57634" lon="0.43566">
        <ele>1511</ele>
        <time>2021-06-19T07:32:33Z</time>
      </trkpt>
      <trkpt lat="42.57621" lon="0.43586">
        <ele>1502</ele>
        <time>2021-06-19T07:32:38Z</time>
      </trkpt>
      <trkpt lat="42.57634" lon="0.43602">
        <ele>1508</ele>
        <time>2021-06-19T07:32:42Z</time>
      </trkpt>
      <trkpt lat="42.57635" lon="0.43645">
        <ele>1512</ele>
        <time>2021-06-19T07:32:49Z</time>
      </trkpt>
      <trkpt lat="42.57627" lon="0.43689">
        <ele>1518</ele>
        <time>2021-06-19T07:32:57Z</time>
      </trkpt>
      <trkpt lat="42.57597" lon="0.43719">
        <ele>1511</ele>
        <time>2021-06-19T07:33:06Z</time>
      </trkpt>
      <trkpt lat="42.57514" lon="0.43774">
        <ele>1491</ele>
        <time>2021-06-19T07:33:27Z</time>
      </trkpt>
      <trkpt lat="42.57497" lon="0.43802">
        <ele>1492</ele>
        <time>2021-06-19T07:33:34Z</time>
      </trkpt>
      <trkpt lat="42.57476" lon="0.4381">
        <ele>1480</ele>
        <time>2021-06-19T07:33:39Z</time>
      </trkpt>
      <trkpt lat="42.57467" lon="0.43822">
        <ele>1478</ele>
        <time>2021-06-19T07:33:42Z</time>
      </trkpt>
      <trkpt lat="42.57455" lon="0.43898">
        <ele>1477</ele>
        <time>2021-06-19T07:33:55Z</time>
      </trkpt>
      <trkpt lat="42.57449" lon="0.43991">
        <ele>1474</ele>
        <time>2021-06-19T07:34:11Z</time>
      </trkpt>
      <trkpt lat="42.57444" lon="0.44027">
        <ele>1468</ele>
        <time>2021-06-19T07:34:17Z</time>
      </trkpt>
      <trkpt lat="42.57452" lon="0.4406">
        <ele>1471</ele>
        <time>2021-06-19T07:34:23Z</time>
      </trkpt>
      <trkpt lat="42.57467" lon="0.44093">
        <ele>1478</ele>
        <time>2021-06-19T07:34:30Z</time>
      </trkpt>
      <trkpt lat="42.57446" lon="0.44133">
        <ele>1465</ele>
        <time>2021-06-19T07:34:39Z</time>
      </trkpt>
      <trkpt lat="42.57429" lon="0.44141">
        <ele>1454</ele>
        <time>2021-06-19T07:34:43Z</time>
      </trkpt>
      <trkpt lat="42.57419" lon="0.44172">
        <ele>1447</ele>
        <time>2021-06-19T07:34:49Z</time>
      </trkpt>
      <trkpt lat="42.57422" lon="0.44196">
        <ele>1444</ele>
        <time>2021-06-19T07:34:53Z</time>
      </trkpt>
      <trkpt lat="42.5745" lon="0.44233">
        <ele>1453</ele>
        <time>2021-06-19T07:35:02Z</time>
      </trkpt>
      <trkpt lat="42.57459" lon="0.44253">
        <ele>1455</ele>
        <time>2021-06-19T07:35:06Z</time>
      </trkpt>
      <trkpt lat="42.57461" lon="0.44285">
        <ele>1455</ele>
        <time>2021-06-19T07:35:11Z</time>
      </trkpt>
      <trkpt lat="42.57435" lon="0.4432">
        <ele>1433</ele>
        <time>2021-06-19T07:35:20Z</time>
      </trkpt>
      <trkpt lat="42.57433" lon="0.44362">
        <ele>1427</ele>
        <time>2021-06-19T07:35:27Z</time>
      </trkpt>
      <trkpt lat="42.57419" lon="0.44412">
        <ele>1410</ele>
        <time>2021-06-19T07:35:36Z</time>
      </trkpt>
      <trkpt lat="42.57417" lon="0.4443">
        <ele>1405</ele>
        <time>2021-06-19T07:35:40Z</time>
      </trkpt>
      <trkpt lat="42.57449" lon="0.44507">
        <ele>1413</ele>
        <time>2021-06-19T07:35:55Z</time>
      </trkpt>
      <trkpt lat="42.57457" lon="0.44539">
        <ele>1405</ele>
        <time>2021-06-19T07:36:01Z</time>
      </trkpt>
      <trkpt lat="42.5745" lon="0.44569">
        <ele>1387</ele>
        <time>2021-06-19T07:36:06Z</time>
      </trkpt>
      <trkpt lat="42.57458" lon="0.44584">
        <ele>1386</ele>
        <time>2021-06-19T07:36:09Z</time>
      </trkpt>
      <trkpt lat="42.57529" lon="0.44632">
        <ele>1416</ele>
        <time>2021-06-19T07:36:28Z</time>
      </trkpt>
      <trkpt lat="42.57543" lon="0.44644">
        <ele>1422</ele>
        <time>2021-06-19T07:36:32Z</time>
      </trkpt>
      <trkpt lat="42.57532" lon="0.44663">
        <ele>1408</ele>
        <time>2021-06-19T07:36:36Z</time>
      </trkpt>
      <trkpt lat="42.57523" lon="0.44704">
        <ele>1401</ele>
        <time>2021-06-19T07:36:43Z</time>
      </trkpt>
      <trkpt lat="42.57524" lon="0.44716">
        <ele>1402</ele>
        <time>2021-06-19T07:36:45Z</time>
      </trkpt>
      <trkpt lat="42.57539" lon="0.44739">
        <ele>1415</ele>
        <time>2021-06-19T07:36:50Z</time>
      </trkpt>
      <trkpt lat="42.5749" lon="0.44787">
        <ele>1382</ele>
        <time>2021-06-19T07:37:05Z</time>
      </trkpt>
      <trkpt lat="42.5748" lon="0.44819">
        <ele>1380</ele>
        <time>2021-06-19T07:37:11Z</time>
      </trkpt>
      <trkpt lat="42.57474" lon="0.44883">
        <ele>1390</ele>
        <time>2021-06-19T07:37:22Z</time>
      </trkpt>
      <trkpt lat="42.57447" lon="0.44912">
        <ele>1379</ele>
        <time>2021-06-19T07:37:30Z</time>
      </trkpt>
      <trkpt lat="42.57422" lon="0.44971">
        <ele>1377</ele>
        <time>2021-06-19T07:37:41Z</time>
      </trkpt>
      <trkpt lat="42.57386" lon="0.45038">
        <ele>1366</ele>
        <time>2021-06-19T07:37:56Z</time>
      </trkpt>
      <trkpt lat="42.57353" lon="0.45123">
        <ele>1365</ele>
        <time>2021-06-19T07:38:12Z</time>
      </trkpt>
      <trkpt lat="42.57331" lon="0.45146">
        <ele>1355</ele>
        <time>2021-06-19T07:38:19Z</time>
      </trkpt>
      <trkpt lat="42.57326" lon="0.45173">
        <ele>1359</ele>
        <time>2021-06-19T07:38:23Z</time>
      </trkpt>
      <trkpt lat="42.57299" lon="0.45225">
        <ele>1357</ele>
        <time>2021-06-19T07:38:34Z</time>
      </trkpt>
      <trkpt lat="42.57272" lon="0.45252">
        <ele>1345</ele>
        <time>2021-06-19T07:38:42Z</time>
      </trkpt>
      <trkpt lat="42.57267" lon="0.45285">
        <ele>1347</ele>
        <time>2021-06-19T07:38:48Z</time>
      </trkpt>
      <trkpt lat="42.5727" lon="0.4533">
        <ele>1356</ele>
        <time>2021-06-19T07:38:56Z</time>
      </trkpt>
      <trkpt lat="42.57246" lon="0.45409">
        <ele>1351</ele>
        <time>2021-06-19T07:39:10Z</time>
      </trkpt>
      <trkpt lat="42.57239" lon="0.45422">
        <ele>1350</ele>
        <time>2021-06-19T07:39:13Z</time>
      </trkpt>
      <trkpt lat="42.57227" lon="0.45433">
        <ele>1346</ele>
        <time>2021-06-19T07:39:17Z</time>
      </trkpt>
      <trkpt lat="42.57208" lon="0.45461">
        <ele>1342</ele>
        <time>2021-06-19T07:39:23Z</time>
      </trkpt>
      <trkpt lat="42.57203" lon="0.45476">
        <ele>1343</ele>
        <time>2021-06-19T07:39:26Z</time>
      </trkpt>
      <trkpt lat="42.57188" lon="0.45484">
        <ele>1337</ele>
        <time>2021-06-19T07:39:30Z</time>
      </trkpt>
      <trkpt lat="42.57183" lon="0.4548">
        <ele>1334</ele>
        <time>2021-06-19T07:39:31Z</time>
      </trkpt>
      <trkpt lat="42.57183" lon="0.45472">
        <ele>1332</ele>
        <time>2021-06-19T07:39:33Z</time>
      </trkpt>
      <trkpt lat="42.57195" lon="0.45457">
        <ele>1335</ele>
        <time>2021-06-19T07:39:36Z</time>
      </trkpt>
      <trkpt lat="42.57191" lon="0.45452">
        <ele>1332</ele>
        <time>2021-06-19T07:39:38Z</time>
      </trkpt>
      <trkpt lat="42.57172" lon="0.45452">
        <ele>1323</ele>
        <time>2021-06-19T07:39:42Z</time>
      </trkpt>
      <trkpt lat="42.57146" lon="0.4546">
        <ele>1311</ele>
        <time>2021-06-19T07:39:48Z</time>
      </trkpt>
      <trkpt lat="42.57117" lon="0.45499">
        <ele>1306</ele>
        <time>2021-06-19T07:39:58Z</time>
      </trkpt>
      <trkpt lat="42.57089" lon="0.45524">
        <ele>1292</ele>
        <time>2021-06-19T07:40:06Z</time>
      </trkpt>
      <trkpt lat="42.57084" lon="0.45534">
        <ele>1290</ele>
        <time>2021-06-19T07:40:08Z</time>
      </trkpt>
      <trkpt lat="42.57081" lon="0.45592">
        <ele>1287</ele>
        <time>2021-06-19T07:40:18Z</time>
      </trkpt>
      <trkpt lat="42.57084" lon="0.45605">
        <ele>1285</ele>
        <time>2021-06-19T07:40:20Z</time>
      </trkpt>
      <trkpt lat="42.57094" lon="0.4562">
        <ele>1285</ele>
        <time>2021-06-19T07:40:24Z</time>
      </trkpt>
      <trkpt lat="42.57118" lon="0.45638">
        <ele>1286</ele>
        <time>2021-06-19T07:40:30Z</time>
      </trkpt>
      <trkpt lat="42.57148" lon="0.45667">
        <ele>1283</ele>
        <time>2021-06-19T07:40:39Z</time>
      </trkpt>
      <trkpt lat="42.57198" lon="0.45736">
        <ele>1260</ele>
        <time>2021-06-19T07:40:55Z</time>
      </trkpt>
      <trkpt lat="42.57224" lon="0.45767">
        <ele>1250</ele>
        <time>2021-06-19T07:41:03Z</time>
      </trkpt>
      <trkpt lat="42.57252" lon="0.45788">
        <ele>1246</ele>
        <time>2021-06-19T07:41:11Z</time>
      </trkpt>
      <trkpt lat="42.57317" lon="0.45817">
        <ele>1239</ele>
        <time>2021-06-19T07:41:27Z</time>
      </trkpt>
      <trkpt lat="42.57342" lon="0.45839">
        <ele>1230</ele>
        <time>2021-06-19T07:41:34Z</time>
      </trkpt>
      <trkpt lat="42.57369" lon="0.45849">
        <ele>1231</ele>
        <time>2021-06-19T07:41:40Z</time>
      </trkpt>
      <trkpt lat="42.57383" lon="0.45861">
        <ele>1229</ele>
        <time>2021-06-19T07:41:44Z</time>
      </trkpt>
      <trkpt lat="42.57388" lon="0.45874">
        <ele>1225</ele>
        <time>2021-06-19T07:41:47Z</time>
      </trkpt>
      <trkpt lat="42.5739" lon="0.45893">
        <ele>1218</ele>
        <time>2021-06-19T07:41:50Z</time>
      </trkpt>
      <trkpt lat="42.57397" lon="0.45913">
        <ele>1212</ele>
        <time>2021-06-19T07:41:54Z</time>
      </trkpt>
      <trkpt lat="42.57411" lon="0.45936">
        <ele>1207</ele>
        <time>2021-06-19T07:41:59Z</time>
      </trkpt>
      <trkpt lat="42.57428" lon="0.45972">
        <ele>1198</ele>
        <time>2021-06-19T07:42:06Z</time>
      </trkpt>
      <trkpt lat="42.57459" lon="0.46016">
        <ele>1189</ele>
        <time>2021-06-19T07:42:17Z</time>
      </trkpt>
      <trkpt lat="42.5749" lon="0.4605">
        <ele>1181</ele>
        <time>2021-06-19T07:42:26Z</time>
      </trkpt>
      <trkpt lat="42.57557" lon="0.46092">
        <ele>1171</ele>
        <time>2021-06-19T07:42:43Z</time>
      </trkpt>
      <trkpt lat="42.57575" lon="0.4611">
        <ele>1166</ele>
        <time>2021-06-19T07:42:48Z</time>
      </trkpt>
      <trkpt lat="42.57596" lon="0.46141">
        <ele>1160</ele>
        <time>2021-06-19T07:42:56Z</time>
      </trkpt>
      <trkpt lat="42.57607" lon="0.46171">
        <ele>1152</ele>
        <time>2021-06-19T07:43:01Z</time>
      </trkpt>
      <trkpt lat="42.57644" lon="0.46245">
        <ele>1143</ele>
        <time>2021-06-19T07:43:17Z</time>
      </trkpt>
      <trkpt lat="42.5765" lon="0.46275">
        <ele>1139</ele>
        <time>2021-06-19T07:43:22Z</time>
      </trkpt>
      <trkpt lat="42.57664" lon="0.46317">
        <ele>1134</ele>
        <time>2021-06-19T07:43:30Z</time>
      </trkpt>
      <trkpt lat="42.57702" lon="0.46365">
        <ele>1137</ele>
        <time>2021-06-19T07:43:42Z</time>
      </trkpt>
      <trkpt lat="42.57711" lon="0.46394">
        <ele>1135</ele>
        <time>2021-06-19T07:43:48Z</time>
      </trkpt>
      <trkpt lat="42.57716" lon="0.4644">
        <ele>1132</ele>
        <time>2021-06-19T07:43:56Z</time>
      </trkpt>
      <trkpt lat="42.57715" lon="0.46457">
        <ele>1130</ele>
        <time>2021-06-19T07:43:59Z</time>
      </trkpt>
      <trkpt lat="42.57712" lon="0.46469">
        <ele>1129</ele>
        <time>2021-06-19T07:44:01Z</time>
      </trkpt>
      <trkpt lat="42.57697" lon="0.46489">
        <ele>1124</ele>
        <time>2021-06-19T07:44:06Z</time>
      </trkpt>
      <trkpt lat="42.5769" lon="0.46504">
        <ele>1122</ele>
        <time>2021-06-19T07:44:09Z</time>
      </trkpt>
      <trkpt lat="42.57679" lon="0.46542">
        <ele>1118</ele>
        <time>2021-06-19T07:44:16Z</time>
      </trkpt>
      <trkpt lat="42.57713" lon="0.46592">
        <ele>1121</ele>
        <time>2021-06-19T07:44:27Z</time>
      </trkpt>
      <trkpt lat="42.57724" lon="0.4659">
        <ele>1122</ele>
        <time>2021-06-19T07:44:30Z</time>
      </trkpt>
      <trkpt lat="42.57728" lon="0.4664">
        <ele>1116</ele>
        <time>2021-06-19T07:44:39Z</time>
      </trkpt>
      <trkpt lat="42.57737" lon="0.46652">
        <ele>1115</ele>
        <time>2021-06-19T07:44:42Z</time>
      </trkpt>
      <trkpt lat="42.57749" lon="0.4666">
        <ele>1115</ele>
        <time>2021-06-19T07:44:45Z</time>
      </trkpt>
      <trkpt lat="42.5778" lon="0.46639">
        <ele>1121</ele>
        <time>2021-06-19T07:44:53Z</time>
      </trkpt>
      <trkpt lat="42.57821" lon="0.46623">
        <ele>1128</ele>
        <time>2021-06-19T07:45:03Z</time>
      </trkpt>
      <trkpt lat="42.57839" lon="0.46622">
        <ele>1130</ele>
        <time>2021-06-19T07:45:07Z</time>
      </trkpt>
      <trkpt lat="42.57846" lon="0.46633">
        <ele>1130</ele>
        <time>2021-06-19T07:45:09Z</time>
      </trkpt>
      <trkpt lat="42.57847" lon="0.46641">
        <ele>1129</ele>
        <time>2021-06-19T07:45:11Z</time>
      </trkpt>
      <trkpt lat="42.57843" lon="0.4666">
        <ele>1124</ele>
        <time>2021-06-19T07:45:14Z</time>
      </trkpt>
      <trkpt lat="42.57842" lon="0.46692">
        <ele>1120</ele>
        <time>2021-06-19T07:45:20Z</time>
      </trkpt>
      <trkpt lat="42.57845" lon="0.46707">
        <ele>1118</ele>
        <time>2021-06-19T07:45:22Z</time>
      </trkpt>
      <trkpt lat="42.57859" lon="0.46744">
        <ele>1115</ele>
        <time>2021-06-19T07:45:30Z</time>
      </trkpt>
      <trkpt lat="42.57872" lon="0.46763">
        <ele>1115</ele>
        <time>2021-06-19T07:45:34Z</time>
      </trkpt>
      <trkpt lat="42.5789" lon="0.46777">
        <ele>1115</ele>
        <time>2021-06-19T07:45:39Z</time>
      </trkpt>
      <trkpt lat="42.57972" lon="0.46813">
        <ele>1114</ele>
        <time>2021-06-19T07:45:59Z</time>
      </trkpt>
      <trkpt lat="42.58008" lon="0.46846">
        <ele>1108</ele>
        <time>2021-06-19T07:46:09Z</time>
      </trkpt>
      <trkpt lat="42.58016" lon="0.46849">
        <ele>1109</ele>
        <time>2021-06-19T07:46:11Z</time>
      </trkpt>
      <trkpt lat="42.58032" lon="0.46846">
        <ele>1112</ele>
        <time>2021-06-19T07:46:15Z</time>
      </trkpt>
      <trkpt lat="42.58072" lon="0.46848">
        <ele>1118</ele>
        <time>2021-06-19T07:46:24Z</time>
      </trkpt>
      <trkpt lat="42.58087" lon="0.46854">
        <ele>1121</ele>
        <time>2021-06-19T07:46:28Z</time>
      </trkpt>
      <trkpt lat="42.58105" lon="0.46869">
        <ele>1128</ele>
        <time>2021-06-19T07:46:33Z</time>
      </trkpt>
      <trkpt lat="42.58115" lon="0.46892">
        <ele>1126</ele>
        <time>2021-06-19T07:46:37Z</time>
      </trkpt>
      <trkpt lat="42.58131" lon="0.46911">
        <ele>1129</ele>
        <time>2021-06-19T07:46:42Z</time>
      </trkpt>
      <trkpt lat="42.58149" lon="0.46938">
        <ele>1129</ele>
        <time>2021-06-19T07:46:49Z</time>
      </trkpt>
      <trkpt lat="42.58158" lon="0.4696">
        <ele>1125</ele>
        <time>2021-06-19T07:46:53Z</time>
      </trkpt>
      <trkpt lat="42.58164" lon="0.46985">
        <ele>1118</ele>
        <time>2021-06-19T07:46:57Z</time>
      </trkpt>
      <trkpt lat="42.58167" lon="0.47047">
        <ele>1109</ele>
        <time>2021-06-19T07:47:08Z</time>
      </trkpt>
      <trkpt lat="42.58166" lon="0.47169">
        <ele>1088</ele>
        <time>2021-06-19T07:47:29Z</time>
      </trkpt>
      <trkpt lat="42.58188" lon="0.47216">
        <ele>1087</ele>
        <time>2021-06-19T07:47:39Z</time>
      </trkpt>
      <trkpt lat="42.58209" lon="0.47274">
        <ele>1086</ele>
        <time>2021-06-19T07:47:50Z</time>
      </trkpt>
      <trkpt lat="42.58223" lon="0.47305">
        <ele>1084</ele>
        <time>2021-06-19T07:47:56Z</time>
      </trkpt>
      <trkpt lat="42.58237" lon="0.47317">
        <ele>1086</ele>
        <time>2021-06-19T07:48:00Z</time>
      </trkpt>
      <trkpt lat="42.58253" lon="0.47372">
        <ele>1085</ele>
        <time>2021-06-19T07:48:10Z</time>
      </trkpt>
      <trkpt lat="42.58262" lon="0.47394">
        <ele>1088</ele>
        <time>2021-06-19T07:48:14Z</time>
      </trkpt>
      <trkpt lat="42.58278" lon="0.47503">
        <ele>1088</ele>
        <time>2021-06-19T07:48:34Z</time>
      </trkpt>
      <trkpt lat="42.5828" lon="0.47558">
        <ele>1082</ele>
        <time>2021-06-19T07:48:43Z</time>
      </trkpt>
      <trkpt lat="42.58342" lon="0.4771">
        <ele>1093</ele>
        <time>2021-06-19T07:49:13Z</time>
      </trkpt>
      <trkpt lat="42.58354" lon="0.47756">
        <ele>1092</ele>
        <time>2021-06-19T07:49:21Z</time>
      </trkpt>
      <trkpt lat="42.58344" lon="0.47799">
        <ele>1080</ele>
        <time>2021-06-19T07:49:29Z</time>
      </trkpt>
      <trkpt lat="42.58353" lon="0.47843">
        <ele>1080</ele>
        <time>2021-06-19T07:49:37Z</time>
      </trkpt>
      <trkpt lat="42.58347" lon="0.47886">
        <ele>1073</ele>
        <time>2021-06-19T07:49:44Z</time>
      </trkpt>
      <trkpt lat="42.58373" lon="0.47955">
        <ele>1083</ele>
        <time>2021-06-19T07:49:58Z</time>
      </trkpt>
      <trkpt lat="42.5839" lon="0.48045">
        <ele>1085</ele>
        <time>2021-06-19T07:50:14Z</time>
      </trkpt>
      <trkpt lat="42.584" lon="0.48144">
        <ele>1079</ele>
        <time>2021-06-19T07:50:31Z</time>
      </trkpt>
      <trkpt lat="42.58407" lon="0.48182">
        <ele>1076</ele>
        <time>2021-06-19T07:50:38Z</time>
      </trkpt>
      <trkpt lat="42.58438" lon="0.48257">
        <ele>1085</ele>
        <time>2021-06-19T07:50:52Z</time>
      </trkpt>
      <trkpt lat="42.58446" lon="0.48289">
        <ele>1089</ele>
        <time>2021-06-19T07:50:58Z</time>
      </trkpt>
      <trkpt lat="42.58451" lon="0.48321">
        <ele>1092</ele>
        <time>2021-06-19T07:51:04Z</time>
      </trkpt>
      <trkpt lat="42.58453" lon="0.48365">
        <ele>1093</ele>
        <time>2021-06-19T07:51:11Z</time>
      </trkpt>
      <trkpt lat="42.58458" lon="0.48402">
        <ele>1096</ele>
        <time>2021-06-19T07:51:18Z</time>
      </trkpt>
      <trkpt lat="42.58465" lon="0.4843">
        <ele>1097</ele>
        <time>2021-06-19T07:51:23Z</time>
      </trkpt>
      <trkpt lat="42.58566" lon="0.48735">
        <ele>1086</ele>
        <time>2021-06-19T07:52:20Z</time>
      </trkpt>
      <trkpt lat="42.58621" lon="0.48914">
        <ele>1083</ele>
        <time>2021-06-19T07:52:54Z</time>
      </trkpt>
      <trkpt lat="42.58657" lon="0.49021">
        <ele>1087</ele>
        <time>2021-06-19T07:53:14Z</time>
      </trkpt>
      <trkpt lat="42.58673" lon="0.49053">
        <ele>1087</ele>
        <time>2021-06-19T07:53:21Z</time>
      </trkpt>
      <trkpt lat="42.58701" lon="0.49089">
        <ele>1086</ele>
        <time>2021-06-19T07:53:30Z</time>
      </trkpt>
      <trkpt lat="42.58743" lon="0.49124">
        <ele>1085</ele>
        <time>2021-06-19T07:53:41Z</time>
      </trkpt>
      <trkpt lat="42.58797" lon="0.4915">
        <ele>1083</ele>
        <time>2021-06-19T07:53:55Z</time>
      </trkpt>
      <trkpt lat="42.58828" lon="0.49168">
        <ele>1081</ele>
        <time>2021-06-19T07:54:02Z</time>
      </trkpt>
      <trkpt lat="42.58843" lon="0.49182">
        <ele>1082</ele>
        <time>2021-06-19T07:54:07Z</time>
      </trkpt>
      <trkpt lat="42.58875" lon="0.49238">
        <ele>1085</ele>
        <time>2021-06-19T07:54:19Z</time>
      </trkpt>
      <trkpt lat="42.59058" lon="0.49654">
        <ele>1084</ele>
        <time>2021-06-19T07:55:42Z</time>
      </trkpt>
      <trkpt lat="42.59114" lon="0.49773">
        <ele>1092</ele>
        <time>2021-06-19T07:56:07Z</time>
      </trkpt>
      <trkpt lat="42.5935" lon="0.50212">
        <ele>1101</ele>
        <time>2021-06-19T07:57:40Z</time>
      </trkpt>
      <trkpt lat="42.59388" lon="0.50296">
        <ele>1107</ele>
        <time>2021-06-19T07:57:57Z</time>
      </trkpt>
      <trkpt lat="42.5958" lon="0.50871">
        <ele>1104</ele>
        <time>2021-06-19T07:59:45Z</time>
      </trkpt>
      <trkpt lat="42.59607" lon="0.50921">
        <ele>1104</ele>
        <time>2021-06-19T07:59:56Z</time>
      </trkpt>
      <trkpt lat="42.59681" lon="0.51028">
        <ele>1108</ele>
        <time>2021-06-19T08:00:21Z</time>
      </trkpt>
      <trkpt lat="42.5972" lon="0.51091">
        <ele>1109</ele>
        <time>2021-06-19T08:00:36Z</time>
      </trkpt>
      <trkpt lat="42.59751" lon="0.51148">
        <ele>1109</ele>
        <time>2021-06-19T08:00:48Z</time>
      </trkpt>
      <trkpt lat="42.59756" lon="0.51181">
        <ele>1109</ele>
        <time>2021-06-19T08:00:53Z</time>
      </trkpt>
      <trkpt lat="42.59756" lon="0.51175">
        <ele>1108</ele>
        <time>2021-06-19T08:00:55Z</time>
      </trkpt>
      <trkpt lat="42.59761" lon="0.51166">
        <ele>1109</ele>
        <time>2021-06-19T08:00:56Z</time>
      </trkpt>
      <trkpt lat="42.59795" lon="0.5116">
        <ele>1110</ele>
        <time>2021-06-19T08:01:04Z</time>
      </trkpt>
      <trkpt lat="42.5979" lon="0.51175">
        <ele>1110</ele>
        <time>2021-06-19T08:01:07Z</time>
      </trkpt>
      <trkpt lat="42.59789" lon="0.51195">
        <ele>1110</ele>
        <time>2021-06-19T08:01:11Z</time>
      </trkpt>
      <trkpt lat="42.59795" lon="0.51216">
        <ele>1111</ele>
        <time>2021-06-19T08:01:15Z</time>
      </trkpt>
      <trkpt lat="42.59851" lon="0.51319">
        <ele>1114</ele>
        <time>2021-06-19T08:01:37Z</time>
      </trkpt>
      <trkpt lat="42.59901" lon="0.51424">
        <ele>1121</ele>
        <time>2021-06-19T08:01:58Z</time>
      </trkpt>
      <trkpt lat="42.59917" lon="0.51448">
        <ele>1123</ele>
        <time>2021-06-19T08:02:04Z</time>
      </trkpt>
      <trkpt lat="42.59928" lon="0.51473">
        <ele>1123</ele>
        <time>2021-06-19T08:02:09Z</time>
      </trkpt>
      <trkpt lat="42.59969" lon="0.51548">
        <ele>1120</ele>
        <time>2021-06-19T08:02:25Z</time>
      </trkpt>
      <trkpt lat="42.59985" lon="0.51572">
        <ele>1119</ele>
        <time>2021-06-19T08:02:30Z</time>
      </trkpt>
      <trkpt lat="42.59997" lon="0.5158">
        <ele>1118</ele>
        <time>2021-06-19T08:02:33Z</time>
      </trkpt>
      <trkpt lat="42.6" lon="0.51603">
        <ele>1118</ele>
        <time>2021-06-19T08:02:37Z</time>
      </trkpt>
      <trkpt lat="42.59998" lon="0.51625">
        <ele>1118</ele>
        <time>2021-06-19T08:02:41Z</time>
      </trkpt>
      <trkpt lat="42.60005" lon="0.51644">
        <ele>1119</ele>
        <time>2021-06-19T08:02:45Z</time>
      </trkpt>
      <trkpt lat="42.60157" lon="0.51948">
        <ele>1130</ele>
        <time>2021-06-19T08:03:48Z</time>
      </trkpt>
      <trkpt lat="42.60188" lon="0.52003">
        <ele>1133</ele>
        <time>2021-06-19T08:04:00Z</time>
      </trkpt>
      <trkpt lat="42.60211" lon="0.52034">
        <ele>1134</ele>
        <time>2021-06-19T08:04:08Z</time>
      </trkpt>
      <trkpt lat="42.60231" lon="0.52052">
        <ele>1135</ele>
        <time>2021-06-19T08:04:13Z</time>
      </trkpt>
      <trkpt lat="42.60248" lon="0.52063">
        <ele>1135</ele>
        <time>2021-06-19T08:04:18Z</time>
      </trkpt>
      <trkpt lat="42.60286" lon="0.52081">
        <ele>1136</ele>
        <time>2021-06-19T08:04:27Z</time>
      </trkpt>
      <trkpt lat="42.60302" lon="0.52094">
        <ele>1136</ele>
        <time>2021-06-19T08:04:31Z</time>
      </trkpt>
      <trkpt lat="42.60306" lon="0.52104">
        <ele>1136</ele>
        <time>2021-06-19T08:04:33Z</time>
      </trkpt>
      <trkpt lat="42.60306" lon="0.52111">
        <ele>1136</ele>
        <time>2021-06-19T08:04:34Z</time>
      </trkpt>
      <trkpt lat="42.60301" lon="0.52186">
        <ele>1135</ele>
        <time>2021-06-19T08:04:47Z</time>
      </trkpt>
      <trkpt lat="42.60296" lon="0.52223">
        <ele>1135</ele>
        <time>2021-06-19T08:04:54Z</time>
      </trkpt>
      <trkpt lat="42.60298" lon="0.5225">
        <ele>1135</ele>
        <time>2021-06-19T08:04:59Z</time>
      </trkpt>
      <trkpt lat="42.60311" lon="0.52318">
        <ele>1136</ele>
        <time>2021-06-19T08:05:11Z</time>
      </trkpt>
      <trkpt lat="42.60322" lon="0.52351">
        <ele>1136</ele>
        <time>2021-06-19T08:05:17Z</time>
      </trkpt>
      <trkpt lat="42.60339" lon="0.52388">
        <ele>1136</ele>
        <time>2021-06-19T08:05:24Z</time>
      </trkpt>
      <trkpt lat="42.60354" lon="0.52414">
        <ele>1137</ele>
        <time>2021-06-19T08:05:30Z</time>
      </trkpt>
      <trkpt lat="42.60367" lon="0.52432">
        <ele>1137</ele>
        <time>2021-06-19T08:05:34Z</time>
      </trkpt>
      <trkpt lat="42.604" lon="0.52466">
        <ele>1137</ele>
        <time>2021-06-19T08:05:44Z</time>
      </trkpt>
      <trkpt lat="42.60394" lon="0.52478">
        <ele>1137</ele>
        <time>2021-06-19T08:05:47Z</time>
      </trkpt>
      <trkpt lat="42.6043" lon="0.52502">
        <ele>1137</ele>
        <time>2021-06-19T08:05:56Z</time>
      </trkpt>
      <trkpt lat="42.60463" lon="0.52515">
        <ele>1138</ele>
        <time>2021-06-19T08:06:04Z</time>
      </trkpt>
      <trkpt lat="42.60496" lon="0.52522">
        <ele>1138</ele>
        <time>2021-06-19T08:06:12Z</time>
      </trkpt>
      <trkpt lat="42.60512" lon="0.52523">
        <ele>1139</ele>
        <time>2021-06-19T08:06:15Z</time>
      </trkpt>
      <trkpt lat="42.60514" lon="0.5251">
        <ele>1139</ele>
        <time>2021-06-19T08:06:18Z</time>
      </trkpt>
      <trkpt lat="42.60527" lon="0.5251">
        <ele>1140</ele>
        <time>2021-06-19T08:06:21Z</time>
      </trkpt>
      <trkpt lat="42.60545" lon="0.52519">
        <ele>1141</ele>
        <time>2021-06-19T08:06:25Z</time>
      </trkpt>
      <trkpt lat="42.60584" lon="0.52509">
        <ele>1143</ele>
        <time>2021-06-19T08:06:35Z</time>
      </trkpt>
      <trkpt lat="42.6059" lon="0.52499">
        <ele>1143</ele>
        <time>2021-06-19T08:06:37Z</time>
      </trkpt>
      <trkpt lat="42.60591" lon="0.5249">
        <ele>1143</ele>
        <time>2021-06-19T08:06:38Z</time>
      </trkpt>
      <trkpt lat="42.60614" lon="0.52479">
        <ele>1145</ele>
        <time>2021-06-19T08:06:44Z</time>
      </trkpt>
      <trkpt lat="42.60654" lon="0.5245">
        <ele>1147</ele>
        <time>2021-06-19T08:06:55Z</time>
      </trkpt>
      <trkpt lat="42.60751" lon="0.52333">
        <ele>1150</ele>
        <time>2021-06-19T08:07:25Z</time>
      </trkpt>
      <trkpt lat="42.60768" lon="0.52321">
        <ele>1150</ele>
        <time>2021-06-19T08:07:29Z</time>
      </trkpt>
      <trkpt lat="42.60792" lon="0.52314">
        <ele>1151</ele>
        <time>2021-06-19T08:07:35Z</time>
      </trkpt>
      <trkpt lat="42.6081" lon="0.52319">
        <ele>1152</ele>
        <time>2021-06-19T08:07:39Z</time>
      </trkpt>
      <trkpt lat="42.60853" lon="0.52338">
        <ele>1153</ele>
        <time>2021-06-19T08:07:50Z</time>
      </trkpt>
      <trkpt lat="42.60865" lon="0.5234">
        <ele>1153</ele>
        <time>2021-06-19T08:07:53Z</time>
      </trkpt>
      <trkpt lat="42.6091" lon="0.5237">
        <ele>1149</ele>
        <time>2021-06-19T08:08:04Z</time>
      </trkpt>
      <trkpt lat="42.60952" lon="0.5239">
        <ele>1150</ele>
        <time>2021-06-19T08:08:15Z</time>
      </trkpt>
      <trkpt lat="42.60986" lon="0.52413">
        <ele>1151</ele>
        <time>2021-06-19T08:08:24Z</time>
      </trkpt>
      <trkpt lat="42.61017" lon="0.52428">
        <ele>1153</ele>
        <time>2021-06-19T08:08:31Z</time>
      </trkpt>
      <trkpt lat="42.61061" lon="0.52463">
        <ele>1155</ele>
        <time>2021-06-19T08:08:43Z</time>
      </trkpt>
      <trkpt lat="42.61082" lon="0.52485">
        <ele>1155</ele>
        <time>2021-06-19T08:08:50Z</time>
      </trkpt>
      <trkpt lat="42.61091" lon="0.52507">
        <ele>1156</ele>
        <time>2021-06-19T08:08:54Z</time>
      </trkpt>
      <trkpt lat="42.61104" lon="0.52523">
        <ele>1157</ele>
        <time>2021-06-19T08:08:58Z</time>
      </trkpt>
      <trkpt lat="42.61143" lon="0.52547">
        <ele>1159</ele>
        <time>2021-06-19T08:09:08Z</time>
      </trkpt>
      <trkpt lat="42.6116" lon="0.52564">
        <ele>1160</ele>
        <time>2021-06-19T08:09:13Z</time>
      </trkpt>
      <trkpt lat="42.61166" lon="0.52572">
        <ele>1160</ele>
        <time>2021-06-19T08:09:15Z</time>
      </trkpt>
      <trkpt lat="42.61169" lon="0.52583">
        <ele>1160</ele>
        <time>2021-06-19T08:09:17Z</time>
      </trkpt>
      <trkpt lat="42.61169" lon="0.52594">
        <ele>1161</ele>
        <time>2021-06-19T08:09:19Z</time>
      </trkpt>
      <trkpt lat="42.61163" lon="0.52618">
        <ele>1162</ele>
        <time>2021-06-19T08:09:23Z</time>
      </trkpt>
      <trkpt lat="42.61167" lon="0.52623">
        <ele>1162</ele>
        <time>2021-06-19T08:09:24Z</time>
      </trkpt>
      <trkpt lat="42.61236" lon="0.52667">
        <ele>1164</ele>
        <time>2021-06-19T08:09:42Z</time>
      </trkpt>
      <trkpt lat="42.61242" lon="0.52669">
        <ele>1164</ele>
        <time>2021-06-19T08:09:44Z</time>
      </trkpt>
      <trkpt lat="42.61258" lon="0.52668">
        <ele>1164</ele>
        <time>2021-06-19T08:09:47Z</time>
      </trkpt>
      <trkpt lat="42.61276" lon="0.52676">
        <ele>1165</ele>
        <time>2021-06-19T08:09:52Z</time>
      </trkpt>
      <trkpt lat="42.613" lon="0.5268">
        <ele>1164</ele>
        <time>2021-06-19T08:09:57Z</time>
      </trkpt>
      <trkpt lat="42.61309" lon="0.52684">
        <ele>1164</ele>
        <time>2021-06-19T08:10:00Z</time>
      </trkpt>
      <trkpt lat="42.6132" lon="0.52701">
        <ele>1165</ele>
        <time>2021-06-19T08:10:04Z</time>
      </trkpt>
      <trkpt lat="42.61335" lon="0.52746">
        <ele>1167</ele>
        <time>2021-06-19T08:10:12Z</time>
      </trkpt>
      <trkpt lat="42.61373" lon="0.52779">
        <ele>1169</ele>
        <time>2021-06-19T08:10:23Z</time>
      </trkpt>
      <trkpt lat="42.6138" lon="0.52801">
        <ele>1171</ele>
        <time>2021-06-19T08:10:27Z</time>
      </trkpt>
      <trkpt lat="42.61386" lon="0.52856">
        <ele>1174</ele>
        <time>2021-06-19T08:10:36Z</time>
      </trkpt>
      <trkpt lat="42.61392" lon="0.52867">
        <ele>1175</ele>
        <time>2021-06-19T08:10:39Z</time>
      </trkpt>
      <trkpt lat="42.61441" lon="0.52923">
        <ele>1174</ele>
        <time>2021-06-19T08:10:54Z</time>
      </trkpt>
      <trkpt lat="42.61464" lon="0.52953">
        <ele>1175</ele>
        <time>2021-06-19T08:11:01Z</time>
      </trkpt>
      <trkpt lat="42.615" lon="0.53011">
        <ele>1176</ele>
        <time>2021-06-19T08:11:14Z</time>
      </trkpt>
      <trkpt lat="42.61549" lon="0.53114">
        <ele>1177</ele>
        <time>2021-06-19T08:11:35Z</time>
      </trkpt>
      <trkpt lat="42.61558" lon="0.53146">
        <ele>1175</ele>
        <time>2021-06-19T08:11:41Z</time>
      </trkpt>
      <trkpt lat="42.61562" lon="0.53181">
        <ele>1175</ele>
        <time>2021-06-19T08:11:47Z</time>
      </trkpt>
      <trkpt lat="42.61562" lon="0.53271">
        <ele>1178</ele>
        <time>2021-06-19T08:12:03Z</time>
      </trkpt>
      <trkpt lat="42.61577" lon="0.53338">
        <ele>1182</ele>
        <time>2021-06-19T08:12:15Z</time>
      </trkpt>
      <trkpt lat="42.61577" lon="0.53379">
        <ele>1184</ele>
        <time>2021-06-19T08:12:22Z</time>
      </trkpt>
      <trkpt lat="42.61573" lon="0.53433">
        <ele>1189</ele>
        <time>2021-06-19T08:12:31Z</time>
      </trkpt>
      <trkpt lat="42.61571" lon="0.53435">
        <ele>1190</ele>
        <time>2021-06-19T08:12:32Z</time>
      </trkpt>
      <trkpt lat="42.61598" lon="0.53448">
        <ele>1191</ele>
        <time>2021-06-19T08:12:38Z</time>
      </trkpt>
      <trkpt lat="42.61657" lon="0.53464">
        <ele>1193</ele>
        <time>2021-06-19T08:12:52Z</time>
      </trkpt>
      <trkpt lat="42.61659" lon="0.53461">
        <ele>1192</ele>
        <time>2021-06-19T08:12:53Z</time>
      </trkpt>
      <trkpt lat="42.6166" lon="0.53465">
        <ele>1193</ele>
        <time>2021-06-19T08:12:54Z</time>
      </trkpt>
      <trkpt lat="42.61697" lon="0.53478">
        <ele>1193</ele>
        <time>2021-06-19T08:13:03Z</time>
      </trkpt>
      <trkpt lat="42.61722" lon="0.5349">
        <ele>1192</ele>
        <time>2021-06-19T08:13:09Z</time>
      </trkpt>
      <trkpt lat="42.61783" lon="0.53541">
        <ele>1195</ele>
        <time>2021-06-19T08:13:26Z</time>
      </trkpt>
      <trkpt lat="42.61813" lon="0.53553">
        <ele>1191</ele>
        <time>2021-06-19T08:13:33Z</time>
      </trkpt>
      <trkpt lat="42.6182" lon="0.53561">
        <ele>1191</ele>
        <time>2021-06-19T08:13:35Z</time>
      </trkpt>
      <trkpt lat="42.61841" lon="0.536">
        <ele>1191</ele>
        <time>2021-06-19T08:13:43Z</time>
      </trkpt>
      <trkpt lat="42.61852" lon="0.53615">
        <ele>1193</ele>
        <time>2021-06-19T08:13:47Z</time>
      </trkpt>
      <trkpt lat="42.61955" lon="0.5371">
        <ele>1200</ele>
        <time>2021-06-19T08:14:16Z</time>
      </trkpt>
      <trkpt lat="42.62002" lon="0.53743">
        <ele>1203</ele>
        <time>2021-06-19T08:14:28Z</time>
      </trkpt>
      <trkpt lat="42.62018" lon="0.53751">
        <ele>1203</ele>
        <time>2021-06-19T08:14:32Z</time>
      </trkpt>
      <trkpt lat="42.62057" lon="0.53758">
        <ele>1203</ele>
        <time>2021-06-19T08:14:42Z</time>
      </trkpt>
      <trkpt lat="42.62146" lon="0.53783">
        <ele>1207</ele>
        <time>2021-06-19T08:15:03Z</time>
      </trkpt>
      <trkpt lat="42.62168" lon="0.53792">
        <ele>1209</ele>
        <time>2021-06-19T08:15:08Z</time>
      </trkpt>
      <trkpt lat="42.6218" lon="0.53801">
        <ele>1211</ele>
        <time>2021-06-19T08:15:11Z</time>
      </trkpt>
      <trkpt lat="42.6219" lon="0.53814">
        <ele>1212</ele>
        <time>2021-06-19T08:15:15Z</time>
      </trkpt>
      <trkpt lat="42.62218" lon="0.53895">
        <ele>1216</ele>
        <time>2021-06-19T08:15:30Z</time>
      </trkpt>
      <trkpt lat="42.62234" lon="0.53929">
        <ele>1216</ele>
        <time>2021-06-19T08:15:37Z</time>
      </trkpt>
      <trkpt lat="42.62237" lon="0.53948">
        <ele>1217</ele>
        <time>2021-06-19T08:15:40Z</time>
      </trkpt>
      <trkpt lat="42.62231" lon="0.53978">
        <ele>1218</ele>
        <time>2021-06-19T08:15:46Z</time>
      </trkpt>
      <trkpt lat="42.6224" lon="0.54024">
        <ele>1220</ele>
        <time>2021-06-19T08:15:54Z</time>
      </trkpt>
      <trkpt lat="42.62274" lon="0.54089">
        <ele>1224</ele>
        <time>2021-06-19T08:16:07Z</time>
      </trkpt>
      <trkpt lat="42.62277" lon="0.541">
        <ele>1224</ele>
        <time>2021-06-19T08:16:09Z</time>
      </trkpt>
      <trkpt lat="42.6228" lon="0.54159">
        <ele>1226</ele>
        <time>2021-06-19T08:16:20Z</time>
      </trkpt>
      <trkpt lat="42.62285" lon="0.54179">
        <ele>1226</ele>
        <time>2021-06-19T08:16:23Z</time>
      </trkpt>
      <trkpt lat="42.62303" lon="0.54221">
        <ele>1227</ele>
        <time>2021-06-19T08:16:32Z</time>
      </trkpt>
      <trkpt lat="42.62364" lon="0.54309">
        <ele>1232</ele>
        <time>2021-06-19T08:16:52Z</time>
      </trkpt>
      <trkpt lat="42.62458" lon="0.54393">
        <ele>1240</ele>
        <time>2021-06-19T08:17:19Z</time>
      </trkpt>
      <trkpt lat="42.62541" lon="0.54519">
        <ele>1251</ele>
        <time>2021-06-19T08:17:48Z</time>
      </trkpt>
      <trkpt lat="42.6255" lon="0.54537">
        <ele>1253</ele>
        <time>2021-06-19T08:17:51Z</time>
      </trkpt>
      <trkpt lat="42.62563" lon="0.54555">
        <ele>1253</ele>
        <time>2021-06-19T08:17:56Z</time>
      </trkpt>
      <trkpt lat="42.62577" lon="0.54564">
        <ele>1252</ele>
        <time>2021-06-19T08:17:59Z</time>
      </trkpt>
      <trkpt lat="42.62584" lon="0.54577">
        <ele>1250</ele>
        <time>2021-06-19T08:18:02Z</time>
      </trkpt>
      <trkpt lat="42.62597" lon="0.54654">
        <ele>1261</ele>
        <time>2021-06-19T08:18:16Z</time>
      </trkpt>
      <trkpt lat="42.62606" lon="0.54673">
        <ele>1263</ele>
        <time>2021-06-19T08:18:20Z</time>
      </trkpt>
      <trkpt lat="42.62623" lon="0.54737">
        <ele>1271</ele>
        <time>2021-06-19T08:18:31Z</time>
      </trkpt>
      <trkpt lat="42.6263" lon="0.54745">
        <ele>1271</ele>
        <time>2021-06-19T08:18:33Z</time>
      </trkpt>
      <trkpt lat="42.62637" lon="0.54744">
        <ele>1270</ele>
        <time>2021-06-19T08:18:35Z</time>
      </trkpt>
      <trkpt lat="42.62644" lon="0.54729">
        <ele>1267</ele>
        <time>2021-06-19T08:18:38Z</time>
      </trkpt>
      <trkpt lat="42.62653" lon="0.54732">
        <ele>1266</ele>
        <time>2021-06-19T08:18:40Z</time>
      </trkpt>
      <trkpt lat="42.62656" lon="0.5474">
        <ele>1266</ele>
        <time>2021-06-19T08:18:42Z</time>
      </trkpt>
      <trkpt lat="42.6266" lon="0.54788">
        <ele>1271</ele>
        <time>2021-06-19T08:18:50Z</time>
      </trkpt>
      <trkpt lat="42.62669" lon="0.54807">
        <ele>1273</ele>
        <time>2021-06-19T08:18:54Z</time>
      </trkpt>
      <trkpt lat="42.62681" lon="0.54812">
        <ele>1272</ele>
        <time>2021-06-19T08:18:57Z</time>
      </trkpt>
      <trkpt lat="42.62738" lon="0.5482">
        <ele>1266</ele>
        <time>2021-06-19T08:19:10Z</time>
      </trkpt>
      <trkpt lat="42.62754" lon="0.54829">
        <ele>1265</ele>
        <time>2021-06-19T08:19:14Z</time>
      </trkpt>
      <trkpt lat="42.62763" lon="0.54843">
        <ele>1267</ele>
        <time>2021-06-19T08:19:18Z</time>
      </trkpt>
      <trkpt lat="42.6279" lon="0.54857">
        <ele>1268</ele>
        <time>2021-06-19T08:19:24Z</time>
      </trkpt>
      <trkpt lat="42.62837" lon="0.54874">
        <ele>1269</ele>
        <time>2021-06-19T08:19:36Z</time>
      </trkpt>
      <trkpt lat="42.62864" lon="0.54897">
        <ele>1275</ele>
        <time>2021-06-19T08:19:43Z</time>
      </trkpt>
      <trkpt lat="42.62881" lon="0.54902">
        <ele>1277</ele>
        <time>2021-06-19T08:19:47Z</time>
      </trkpt>
      <trkpt lat="42.629" lon="0.54895">
        <ele>1278</ele>
        <time>2021-06-19T08:19:52Z</time>
      </trkpt>
      <trkpt lat="42.62922" lon="0.5488">
        <ele>1278</ele>
        <time>2021-06-19T08:19:58Z</time>
      </trkpt>
      <trkpt lat="42.62949" lon="0.5487">
        <ele>1281</ele>
        <time>2021-06-19T08:20:04Z</time>
      </trkpt>
      <trkpt lat="42.62986" lon="0.54873">
        <ele>1285</ele>
        <time>2021-06-19T08:20:13Z</time>
      </trkpt>
      <trkpt lat="42.62999" lon="0.54876">
        <ele>1287</ele>
        <time>2021-06-19T08:20:16Z</time>
      </trkpt>
      <trkpt lat="42.63008" lon="0.54883">
        <ele>1289</ele>
        <time>2021-06-19T08:20:18Z</time>
      </trkpt>
      <trkpt lat="42.63014" lon="0.54907">
        <ele>1287</ele>
        <time>2021-06-19T08:20:23Z</time>
      </trkpt>
      <trkpt lat="42.63025" lon="0.55088">
        <ele>1303</ele>
        <time>2021-06-19T08:20:54Z</time>
      </trkpt>
      <trkpt lat="42.63028" lon="0.55108">
        <ele>1308</ele>
        <time>2021-06-19T08:20:57Z</time>
      </trkpt>
      <trkpt lat="42.63038" lon="0.55125">
        <ele>1309</ele>
        <time>2021-06-19T08:21:01Z</time>
      </trkpt>
      <trkpt lat="42.63063" lon="0.55158">
        <ele>1301</ele>
        <time>2021-06-19T08:21:09Z</time>
      </trkpt>
      <trkpt lat="42.63079" lon="0.55189">
        <ele>1291</ele>
        <time>2021-06-19T08:21:16Z</time>
      </trkpt>
      <trkpt lat="42.6308" lon="0.55295">
        <ele>1296</ele>
        <time>2021-06-19T08:21:34Z</time>
      </trkpt>
      <trkpt lat="42.63084" lon="0.55334">
        <ele>1296</ele>
        <time>2021-06-19T08:21:41Z</time>
      </trkpt>
      <trkpt lat="42.63096" lon="0.55365">
        <ele>1301</ele>
        <time>2021-06-19T08:21:47Z</time>
      </trkpt>
      <trkpt lat="42.63115" lon="0.55382">
        <ele>1302</ele>
        <time>2021-06-19T08:21:52Z</time>
      </trkpt>
      <trkpt lat="42.63129" lon="0.55387">
        <ele>1300</ele>
        <time>2021-06-19T08:21:55Z</time>
      </trkpt>
      <trkpt lat="42.63146" lon="0.554">
        <ele>1299</ele>
        <time>2021-06-19T08:22:00Z</time>
      </trkpt>
      <trkpt lat="42.63149" lon="0.55417">
        <ele>1301</ele>
        <time>2021-06-19T08:22:03Z</time>
      </trkpt>
      <trkpt lat="42.63144" lon="0.55449">
        <ele>1310</ele>
        <time>2021-06-19T08:22:09Z</time>
      </trkpt>
      <trkpt lat="42.63147" lon="0.55486">
        <ele>1319</ele>
        <time>2021-06-19T08:22:15Z</time>
      </trkpt>
      <trkpt lat="42.63145" lon="0.5551">
        <ele>1324</ele>
        <time>2021-06-19T08:22:19Z</time>
      </trkpt>
      <trkpt lat="42.63151" lon="0.55538">
        <ele>1326</ele>
        <time>2021-06-19T08:22:24Z</time>
      </trkpt>
      <trkpt lat="42.63175" lon="0.55599">
        <ele>1329</ele>
        <time>2021-06-19T08:22:36Z</time>
      </trkpt>
      <trkpt lat="42.63194" lon="0.55632">
        <ele>1332</ele>
        <time>2021-06-19T08:22:43Z</time>
      </trkpt>
      <trkpt lat="42.63211" lon="0.55651">
        <ele>1332</ele>
        <time>2021-06-19T08:22:48Z</time>
      </trkpt>
      <trkpt lat="42.63238" lon="0.55674">
        <ele>1330</ele>
        <time>2021-06-19T08:22:56Z</time>
      </trkpt>
      <trkpt lat="42.63251" lon="0.55695">
        <ele>1336</ele>
        <time>2021-06-19T08:23:00Z</time>
      </trkpt>
      <trkpt lat="42.6325" lon="0.55711">
        <ele>1342</ele>
        <time>2021-06-19T08:23:03Z</time>
      </trkpt>
      <trkpt lat="42.63241" lon="0.55717">
        <ele>1346</ele>
        <time>2021-06-19T08:23:06Z</time>
      </trkpt>
      <trkpt lat="42.63236" lon="0.55716">
        <ele>1346</ele>
        <time>2021-06-19T08:23:07Z</time>
      </trkpt>
      <trkpt lat="42.6322" lon="0.55728">
        <ele>1353</ele>
        <time>2021-06-19T08:23:11Z</time>
      </trkpt>
      <trkpt lat="42.63222" lon="0.55744">
        <ele>1358</ele>
        <time>2021-06-19T08:23:14Z</time>
      </trkpt>
      <trkpt lat="42.63218" lon="0.55756">
        <ele>1362</ele>
        <time>2021-06-19T08:23:16Z</time>
      </trkpt>
      <trkpt lat="42.63222" lon="0.55782">
        <ele>1365</ele>
        <time>2021-06-19T08:23:21Z</time>
      </trkpt>
      <trkpt lat="42.63221" lon="0.55814">
        <ele>1370</ele>
        <time>2021-06-19T08:23:26Z</time>
      </trkpt>
      <trkpt lat="42.63204" lon="0.55832">
        <ele>1373</ele>
        <time>2021-06-19T08:23:31Z</time>
      </trkpt>
      <trkpt lat="42.63181" lon="0.55869">
        <ele>1374</ele>
        <time>2021-06-19T08:23:39Z</time>
      </trkpt>
      <trkpt lat="42.63166" lon="0.55927">
        <ele>1375</ele>
        <time>2021-06-19T08:23:50Z</time>
      </trkpt>
      <trkpt lat="42.63161" lon="0.56017">
        <ele>1388</ele>
        <time>2021-06-19T08:24:06Z</time>
      </trkpt>
      <trkpt lat="42.63171" lon="0.5605">
        <ele>1394</ele>
        <time>2021-06-19T08:24:12Z</time>
      </trkpt>
      <trkpt lat="42.63182" lon="0.5607">
        <ele>1398</ele>
        <time>2021-06-19T08:24:16Z</time>
      </trkpt>
      <trkpt lat="42.6321" lon="0.56078">
        <ele>1402</ele>
        <time>2021-06-19T08:24:23Z</time>
      </trkpt>
      <trkpt lat="42.63231" lon="0.56079">
        <ele>1405</ele>
        <time>2021-06-19T08:24:28Z</time>
      </trkpt>
      <trkpt lat="42.63316" lon="0.56016">
        <ele>1397</ele>
        <time>2021-06-19T08:24:50Z</time>
      </trkpt>
      <trkpt lat="42.6334" lon="0.56002">
        <ele>1393</ele>
        <time>2021-06-19T08:24:56Z</time>
      </trkpt>
      <trkpt lat="42.63357" lon="0.55997">
        <ele>1388</ele>
        <time>2021-06-19T08:25:00Z</time>
      </trkpt>
      <trkpt lat="42.63412" lon="0.5606">
        <ele>1382</ele>
        <time>2021-06-19T08:25:17Z</time>
      </trkpt>
      <trkpt lat="42.63449" lon="0.5608">
        <ele>1381</ele>
        <time>2021-06-19T08:25:26Z</time>
      </trkpt>
      <trkpt lat="42.63494" lon="0.56075">
        <ele>1375</ele>
        <time>2021-06-19T08:25:37Z</time>
      </trkpt>
      <trkpt lat="42.63588" lon="0.561">
        <ele>1387</ele>
        <time>2021-06-19T08:25:59Z</time>
      </trkpt>
      <trkpt lat="42.63646" lon="0.56136">
        <ele>1390</ele>
        <time>2021-06-19T08:26:14Z</time>
      </trkpt>
      <trkpt lat="42.63708" lon="0.56193">
        <ele>1396</ele>
        <time>2021-06-19T08:26:32Z</time>
      </trkpt>
      <trkpt lat="42.6374" lon="0.56196">
        <ele>1385</ele>
        <time>2021-06-19T08:26:39Z</time>
      </trkpt>
      <trkpt lat="42.63755" lon="0.56183">
        <ele>1376</ele>
        <time>2021-06-19T08:26:43Z</time>
      </trkpt>
      <trkpt lat="42.63777" lon="0.56189">
        <ele>1375</ele>
        <time>2021-06-19T08:26:49Z</time>
      </trkpt>
      <trkpt lat="42.63784" lon="0.56248">
        <ele>1388</ele>
        <time>2021-06-19T08:26:59Z</time>
      </trkpt>
      <trkpt lat="42.63795" lon="0.56285">
        <ele>1388</ele>
        <time>2021-06-19T08:27:06Z</time>
      </trkpt>
      <trkpt lat="42.63813" lon="0.56289">
        <ele>1384</ele>
        <time>2021-06-19T08:27:10Z</time>
      </trkpt>
      <trkpt lat="42.63841" lon="0.5627">
        <ele>1378</ele>
        <time>2021-06-19T08:27:17Z</time>
      </trkpt>
      <trkpt lat="42.63859" lon="0.56264">
        <ele>1380</ele>
        <time>2021-06-19T08:27:22Z</time>
      </trkpt>
      <trkpt lat="42.63877" lon="0.56275">
        <ele>1383</ele>
        <time>2021-06-19T08:27:26Z</time>
      </trkpt>
      <trkpt lat="42.63891" lon="0.56298">
        <ele>1387</ele>
        <time>2021-06-19T08:27:31Z</time>
      </trkpt>
      <trkpt lat="42.6391" lon="0.56343">
        <ele>1392</ele>
        <time>2021-06-19T08:27:40Z</time>
      </trkpt>
      <trkpt lat="42.63908" lon="0.56373">
        <ele>1394</ele>
        <time>2021-06-19T08:27:45Z</time>
      </trkpt>
      <trkpt lat="42.63926" lon="0.56378">
        <ele>1392</ele>
        <time>2021-06-19T08:27:50Z</time>
      </trkpt>
      <trkpt lat="42.63966" lon="0.56462">
        <ele>1384</ele>
        <time>2021-06-19T08:28:07Z</time>
      </trkpt>
      <trkpt lat="42.63966" lon="0.56496">
        <ele>1384</ele>
        <time>2021-06-19T08:28:13Z</time>
      </trkpt>
      <trkpt lat="42.6399" lon="0.56518">
        <ele>1378</ele>
        <time>2021-06-19T08:28:20Z</time>
      </trkpt>
      <trkpt lat="42.64022" lon="0.56563">
        <ele>1375</ele>
        <time>2021-06-19T08:28:30Z</time>
      </trkpt>
      <trkpt lat="42.64059" lon="0.56609">
        <ele>1374</ele>
        <time>2021-06-19T08:28:42Z</time>
      </trkpt>
      <trkpt lat="42.6411" lon="0.56657">
        <ele>1374</ele>
        <time>2021-06-19T08:28:56Z</time>
      </trkpt>
      <trkpt lat="42.64144" lon="0.56694">
        <ele>1378</ele>
        <time>2021-06-19T08:29:07Z</time>
      </trkpt>
      <trkpt lat="42.64196" lon="0.5674">
        <ele>1380</ele>
        <time>2021-06-19T08:29:21Z</time>
      </trkpt>
      <trkpt lat="42.64232" lon="0.56799">
        <ele>1387</ele>
        <time>2021-06-19T08:29:34Z</time>
      </trkpt>
      <trkpt lat="42.64259" lon="0.56833">
        <ele>1393</ele>
        <time>2021-06-19T08:29:43Z</time>
      </trkpt>
      <trkpt lat="42.64334" lon="0.569">
        <ele>1404</ele>
        <time>2021-06-19T08:30:04Z</time>
      </trkpt>
      <trkpt lat="42.6436" lon="0.56929">
        <ele>1408</ele>
        <time>2021-06-19T08:30:12Z</time>
      </trkpt>
      <trkpt lat="42.64406" lon="0.56957">
        <ele>1409</ele>
        <time>2021-06-19T08:30:23Z</time>
      </trkpt>
      <trkpt lat="42.64425" lon="0.5699">
        <ele>1416</ele>
        <time>2021-06-19T08:30:31Z</time>
      </trkpt>
      <trkpt lat="42.64443" lon="0.57052">
        <ele>1427</ele>
        <time>2021-06-19T08:30:42Z</time>
      </trkpt>
      <trkpt lat="42.64449" lon="0.57062">
        <ele>1428</ele>
        <time>2021-06-19T08:30:44Z</time>
      </trkpt>
      <trkpt lat="42.64477" lon="0.57093">
        <ele>1426</ele>
        <time>2021-06-19T08:30:53Z</time>
      </trkpt>
      <trkpt lat="42.64491" lon="0.57104">
        <ele>1425</ele>
        <time>2021-06-19T08:30:57Z</time>
      </trkpt>
      <trkpt lat="42.64507" lon="0.5711">
        <ele>1422</ele>
        <time>2021-06-19T08:31:00Z</time>
      </trkpt>
      <trkpt lat="42.64537" lon="0.57116">
        <ele>1416</ele>
        <time>2021-06-19T08:31:08Z</time>
      </trkpt>
      <trkpt lat="42.64545" lon="0.57124">
        <ele>1415</ele>
        <time>2021-06-19T08:31:10Z</time>
      </trkpt>
      <trkpt lat="42.64554" lon="0.57153">
        <ele>1416</ele>
        <time>2021-06-19T08:31:15Z</time>
      </trkpt>
      <trkpt lat="42.64555" lon="0.57182">
        <ele>1419</ele>
        <time>2021-06-19T08:31:20Z</time>
      </trkpt>
      <trkpt lat="42.64567" lon="0.57227">
        <ele>1421</ele>
        <time>2021-06-19T08:31:28Z</time>
      </trkpt>
      <trkpt lat="42.64577" lon="0.57236">
        <ele>1417</ele>
        <time>2021-06-19T08:31:31Z</time>
      </trkpt>
      <trkpt lat="42.64596" lon="0.57246">
        <ele>1413</ele>
        <time>2021-06-19T08:31:36Z</time>
      </trkpt>
      <trkpt lat="42.64605" lon="0.57257">
        <ele>1414</ele>
        <time>2021-06-19T08:31:39Z</time>
      </trkpt>
      <trkpt lat="42.64621" lon="0.57287">
        <ele>1420</ele>
        <time>2021-06-19T08:31:45Z</time>
      </trkpt>
      <trkpt lat="42.64636" lon="0.57306">
        <ele>1422</ele>
        <time>2021-06-19T08:31:50Z</time>
      </trkpt>
      <trkpt lat="42.64664" lon="0.57331">
        <ele>1422</ele>
        <time>2021-06-19T08:31:58Z</time>
      </trkpt>
      <trkpt lat="42.64709" lon="0.5736">
        <ele>1427</ele>
        <time>2021-06-19T08:32:09Z</time>
      </trkpt>
      <trkpt lat="42.64748" lon="0.57391">
        <ele>1433</ele>
        <time>2021-06-19T08:32:20Z</time>
      </trkpt>
      <trkpt lat="42.64795" lon="0.57439">
        <ele>1433</ele>
        <time>2021-06-19T08:32:34Z</time>
      </trkpt>
      <trkpt lat="42.64828" lon="0.5746">
        <ele>1428</ele>
        <time>2021-06-19T08:32:42Z</time>
      </trkpt>
      <trkpt lat="42.64842" lon="0.57464">
        <ele>1427</ele>
        <time>2021-06-19T08:32:46Z</time>
      </trkpt>
      <trkpt lat="42.64865" lon="0.57468">
        <ele>1429</ele>
        <time>2021-06-19T08:32:51Z</time>
      </trkpt>
      <trkpt lat="42.64932" lon="0.57462">
        <ele>1427</ele>
        <time>2021-06-19T08:33:07Z</time>
      </trkpt>
      <trkpt lat="42.64963" lon="0.57478">
        <ele>1429</ele>
        <time>2021-06-19T08:33:14Z</time>
      </trkpt>
      <trkpt lat="42.64992" lon="0.57505">
        <ele>1433</ele>
        <time>2021-06-19T08:33:23Z</time>
      </trkpt>
      <trkpt lat="42.65044" lon="0.57564">
        <ele>1440</ele>
        <time>2021-06-19T08:33:38Z</time>
      </trkpt>
      <trkpt lat="42.65086" lon="0.57606">
        <ele>1445</ele>
        <time>2021-06-19T08:33:51Z</time>
      </trkpt>
      <trkpt lat="42.651" lon="0.57617">
        <ele>1450</ele>
        <time>2021-06-19T08:33:54Z</time>
      </trkpt>
      <trkpt lat="42.65137" lon="0.57629">
        <ele>1452</ele>
        <time>2021-06-19T08:34:03Z</time>
      </trkpt>
      <trkpt lat="42.65183" lon="0.5766">
        <ele>1459</ele>
        <time>2021-06-19T08:34:15Z</time>
      </trkpt>
      <trkpt lat="42.65213" lon="0.57669">
        <ele>1460</ele>
        <time>2021-06-19T08:34:22Z</time>
      </trkpt>
      <trkpt lat="42.65234" lon="0.57671">
        <ele>1459</ele>
        <time>2021-06-19T08:34:27Z</time>
      </trkpt>
      <trkpt lat="42.65258" lon="0.5768">
        <ele>1461</ele>
        <time>2021-06-19T08:34:33Z</time>
      </trkpt>
      <trkpt lat="42.65286" lon="0.577">
        <ele>1467</ele>
        <time>2021-06-19T08:34:41Z</time>
      </trkpt>
      <trkpt lat="42.65311" lon="0.57726">
        <ele>1472</ele>
        <time>2021-06-19T08:34:48Z</time>
      </trkpt>
      <trkpt lat="42.65348" lon="0.57737">
        <ele>1472</ele>
        <time>2021-06-19T08:34:57Z</time>
      </trkpt>
      <trkpt lat="42.65369" lon="0.57739">
        <ele>1472</ele>
        <time>2021-06-19T08:35:02Z</time>
      </trkpt>
      <trkpt lat="42.65399" lon="0.57746">
        <ele>1472</ele>
        <time>2021-06-19T08:35:09Z</time>
      </trkpt>
      <trkpt lat="42.65416" lon="0.57754">
        <ele>1473</ele>
        <time>2021-06-19T08:35:13Z</time>
      </trkpt>
      <trkpt lat="42.65447" lon="0.57778">
        <ele>1484</ele>
        <time>2021-06-19T08:35:21Z</time>
      </trkpt>
      <trkpt lat="42.65475" lon="0.57784">
        <ele>1489</ele>
        <time>2021-06-19T08:35:28Z</time>
      </trkpt>
      <trkpt lat="42.6548" lon="0.57775">
        <ele>1487</ele>
        <time>2021-06-19T08:35:30Z</time>
      </trkpt>
      <trkpt lat="42.65486" lon="0.57754">
        <ele>1482</ele>
        <time>2021-06-19T08:35:34Z</time>
      </trkpt>
      <trkpt lat="42.65484" lon="0.57722">
        <ele>1483</ele>
        <time>2021-06-19T08:35:39Z</time>
      </trkpt>
      <trkpt lat="42.6549" lon="0.57714">
        <ele>1485</ele>
        <time>2021-06-19T08:35:41Z</time>
      </trkpt>
      <trkpt lat="42.65496" lon="0.57711">
        <ele>1486</ele>
        <time>2021-06-19T08:35:43Z</time>
      </trkpt>
      <trkpt lat="42.65535" lon="0.57731">
        <ele>1480</ele>
        <time>2021-06-19T08:35:52Z</time>
      </trkpt>
      <trkpt lat="42.65572" lon="0.57731">
        <ele>1475</ele>
        <time>2021-06-19T08:36:01Z</time>
      </trkpt>
      <trkpt lat="42.65605" lon="0.57717">
        <ele>1478</ele>
        <time>2021-06-19T08:36:09Z</time>
      </trkpt>
      <trkpt lat="42.65662" lon="0.57708">
        <ele>1487</ele>
        <time>2021-06-19T08:36:23Z</time>
      </trkpt>
      <trkpt lat="42.65676" lon="0.57708">
        <ele>1490</ele>
        <time>2021-06-19T08:36:26Z</time>
      </trkpt>
      <trkpt lat="42.6576" lon="0.57752">
        <ele>1493</ele>
        <time>2021-06-19T08:36:47Z</time>
      </trkpt>
      <trkpt lat="42.65809" lon="0.5779">
        <ele>1498</ele>
        <time>2021-06-19T08:37:00Z</time>
      </trkpt>
      <trkpt lat="42.65846" lon="0.57791">
        <ele>1508</ele>
        <time>2021-06-19T08:37:09Z</time>
      </trkpt>
      <trkpt lat="42.65868" lon="0.57804">
        <ele>1511</ele>
        <time>2021-06-19T08:37:14Z</time>
      </trkpt>
      <trkpt lat="42.65913" lon="0.5786">
        <ele>1513</ele>
        <time>2021-06-19T08:37:28Z</time>
      </trkpt>
      <trkpt lat="42.65922" lon="0.57877">
        <ele>1516</ele>
        <time>2021-06-19T08:37:32Z</time>
      </trkpt>
      <trkpt lat="42.65931" lon="0.5793">
        <ele>1516</ele>
        <time>2021-06-19T08:37:41Z</time>
      </trkpt>
      <trkpt lat="42.65932" lon="0.58013">
        <ele>1519</ele>
        <time>2021-06-19T08:37:56Z</time>
      </trkpt>
      <trkpt lat="42.6597" lon="0.5804">
        <ele>1530</ele>
        <time>2021-06-19T08:38:06Z</time>
      </trkpt>
      <trkpt lat="42.65988" lon="0.58057">
        <ele>1531</ele>
        <time>2021-06-19T08:38:11Z</time>
      </trkpt>
      <trkpt lat="42.66021" lon="0.58068">
        <ele>1534</ele>
        <time>2021-06-19T08:38:19Z</time>
      </trkpt>
      <trkpt lat="42.66082" lon="0.58075">
        <ele>1541</ele>
        <time>2021-06-19T08:38:33Z</time>
      </trkpt>
      <trkpt lat="42.66132" lon="0.58126">
        <ele>1535</ele>
        <time>2021-06-19T08:38:48Z</time>
      </trkpt>
      <trkpt lat="42.66136" lon="0.58149">
        <ele>1535</ele>
        <time>2021-06-19T08:38:52Z</time>
      </trkpt>
      <trkpt lat="42.66141" lon="0.58163">
        <ele>1533</ele>
        <time>2021-06-19T08:38:54Z</time>
      </trkpt>
      <trkpt lat="42.66146" lon="0.58169">
        <ele>1533</ele>
        <time>2021-06-19T08:38:56Z</time>
      </trkpt>
      <trkpt lat="42.66171" lon="0.58195">
        <ele>1532</ele>
        <time>2021-06-19T08:39:03Z</time>
      </trkpt>
      <trkpt lat="42.662" lon="0.5821">
        <ele>1532</ele>
        <time>2021-06-19T08:39:11Z</time>
      </trkpt>
      <trkpt lat="42.66241" lon="0.58255">
        <ele>1533</ele>
        <time>2021-06-19T08:39:23Z</time>
      </trkpt>
      <trkpt lat="42.66267" lon="0.58263">
        <ele>1535</ele>
        <time>2021-06-19T08:39:29Z</time>
      </trkpt>
      <trkpt lat="42.66281" lon="0.58248">
        <ele>1530</ele>
        <time>2021-06-19T08:39:33Z</time>
      </trkpt>
      <trkpt lat="42.66291" lon="0.58242">
        <ele>1530</ele>
        <time>2021-06-19T08:39:36Z</time>
      </trkpt>
      <trkpt lat="42.66309" lon="0.58243">
        <ele>1531</ele>
        <time>2021-06-19T08:39:40Z</time>
      </trkpt>
      <trkpt lat="42.66335" lon="0.58285">
        <ele>1539</ele>
        <time>2021-06-19T08:39:49Z</time>
      </trkpt>
      <trkpt lat="42.66383" lon="0.58311">
        <ele>1543</ele>
        <time>2021-06-19T08:40:01Z</time>
      </trkpt>
      <trkpt lat="42.6639" lon="0.58319">
        <ele>1545</ele>
        <time>2021-06-19T08:40:04Z</time>
      </trkpt>
      <trkpt lat="42.66407" lon="0.58344">
        <ele>1550</ele>
        <time>2021-06-19T08:40:09Z</time>
      </trkpt>
      <trkpt lat="42.66404" lon="0.58347">
        <ele>1551</ele>
        <time>2021-06-19T08:40:10Z</time>
      </trkpt>
      <trkpt lat="42.66405" lon="0.58355">
        <ele>1552</ele>
        <time>2021-06-19T08:40:12Z</time>
      </trkpt>
      <trkpt lat="42.66416" lon="0.58371">
        <ele>1556</ele>
        <time>2021-06-19T08:40:15Z</time>
      </trkpt>
      <trkpt lat="42.66443" lon="0.58377">
        <ele>1556</ele>
        <time>2021-06-19T08:40:22Z</time>
      </trkpt>
      <trkpt lat="42.66466" lon="0.58379">
        <ele>1556</ele>
        <time>2021-06-19T08:40:27Z</time>
      </trkpt>
      <trkpt lat="42.66473" lon="0.58382">
        <ele>1557</ele>
        <time>2021-06-19T08:40:29Z</time>
      </trkpt>
      <trkpt lat="42.66528" lon="0.58412">
        <ele>1562</ele>
        <time>2021-06-19T08:40:43Z</time>
      </trkpt>
      <trkpt lat="42.66538" lon="0.58426">
        <ele>1566</ele>
        <time>2021-06-19T08:40:46Z</time>
      </trkpt>
      <trkpt lat="42.66537" lon="0.58435">
        <ele>1569</ele>
        <time>2021-06-19T08:40:48Z</time>
      </trkpt>
      <trkpt lat="42.66531" lon="0.58441">
        <ele>1571</ele>
        <time>2021-06-19T08:40:49Z</time>
      </trkpt>
      <trkpt lat="42.66499" lon="0.58432">
        <ele>1568</ele>
        <time>2021-06-19T08:40:57Z</time>
      </trkpt>
      <trkpt lat="42.66475" lon="0.58441">
        <ele>1571</ele>
        <time>2021-06-19T08:41:03Z</time>
      </trkpt>
      <trkpt lat="42.66439" lon="0.58459">
        <ele>1577</ele>
        <time>2021-06-19T08:41:12Z</time>
      </trkpt>
      <trkpt lat="42.66413" lon="0.58461">
        <ele>1578</ele>
        <time>2021-06-19T08:41:18Z</time>
      </trkpt>
      <trkpt lat="42.66409" lon="0.58457">
        <ele>1577</ele>
        <time>2021-06-19T08:41:19Z</time>
      </trkpt>
      <trkpt lat="42.66387" lon="0.58453">
        <ele>1579</ele>
        <time>2021-06-19T08:41:24Z</time>
      </trkpt>
      <trkpt lat="42.66356" lon="0.58437">
        <ele>1578</ele>
        <time>2021-06-19T08:41:32Z</time>
      </trkpt>
      <trkpt lat="42.66345" lon="0.58438">
        <ele>1580</ele>
        <time>2021-06-19T08:41:35Z</time>
      </trkpt>
      <trkpt lat="42.66341" lon="0.58447">
        <ele>1583</ele>
        <time>2021-06-19T08:41:36Z</time>
      </trkpt>
      <trkpt lat="42.66345" lon="0.58456">
        <ele>1585</ele>
        <time>2021-06-19T08:41:38Z</time>
      </trkpt>
      <trkpt lat="42.66369" lon="0.58475">
        <ele>1587</ele>
        <time>2021-06-19T08:41:45Z</time>
      </trkpt>
      <trkpt lat="42.66374" lon="0.58482">
        <ele>1589</ele>
        <time>2021-06-19T08:41:46Z</time>
      </trkpt>
      <trkpt lat="42.66397" lon="0.5854">
        <ele>1601</ele>
        <time>2021-06-19T08:41:58Z</time>
      </trkpt>
      <trkpt lat="42.66409" lon="0.58562">
        <ele>1605</ele>
        <time>2021-06-19T08:42:02Z</time>
      </trkpt>
      <trkpt lat="42.66417" lon="0.5857">
        <ele>1605</ele>
        <time>2021-06-19T08:42:05Z</time>
      </trkpt>
      <trkpt lat="42.66435" lon="0.58579">
        <ele>1608</ele>
        <time>2021-06-19T08:42:09Z</time>
      </trkpt>
      <trkpt lat="42.66486" lon="0.58578">
        <ele>1608</ele>
        <time>2021-06-19T08:42:21Z</time>
      </trkpt>
      <trkpt lat="42.66502" lon="0.58583">
        <ele>1610</ele>
        <time>2021-06-19T08:42:25Z</time>
      </trkpt>
      <trkpt lat="42.66505" lon="0.58588">
        <ele>1613</ele>
        <time>2021-06-19T08:42:26Z</time>
      </trkpt>
      <trkpt lat="42.66506" lon="0.58603">
        <ele>1620</ele>
        <time>2021-06-19T08:42:29Z</time>
      </trkpt>
      <trkpt lat="42.66502" lon="0.58608">
        <ele>1622</ele>
        <time>2021-06-19T08:42:30Z</time>
      </trkpt>
      <trkpt lat="42.66493" lon="0.58613">
        <ele>1624</ele>
        <time>2021-06-19T08:42:32Z</time>
      </trkpt>
      <trkpt lat="42.6647" lon="0.5862">
        <ele>1627</ele>
        <time>2021-06-19T08:42:38Z</time>
      </trkpt>
      <trkpt lat="42.66428" lon="0.58627">
        <ele>1628</ele>
        <time>2021-06-19T08:42:48Z</time>
      </trkpt>
      <trkpt lat="42.66396" lon="0.58636">
        <ele>1636</ele>
        <time>2021-06-19T08:42:55Z</time>
      </trkpt>
      <trkpt lat="42.66379" lon="0.58635">
        <ele>1639</ele>
        <time>2021-06-19T08:42:59Z</time>
      </trkpt>
      <trkpt lat="42.66325" lon="0.58621">
        <ele>1644</ele>
        <time>2021-06-19T08:43:12Z</time>
      </trkpt>
      <trkpt lat="42.66308" lon="0.58611">
        <ele>1645</ele>
        <time>2021-06-19T08:43:16Z</time>
      </trkpt>
      <trkpt lat="42.66283" lon="0.58608">
        <ele>1651</ele>
        <time>2021-06-19T08:43:22Z</time>
      </trkpt>
      <trkpt lat="42.66244" lon="0.58575">
        <ele>1653</ele>
        <time>2021-06-19T08:43:33Z</time>
      </trkpt>
      <trkpt lat="42.66229" lon="0.58558">
        <ele>1654</ele>
        <time>2021-06-19T08:43:37Z</time>
      </trkpt>
      <trkpt lat="42.66222" lon="0.58554">
        <ele>1656</ele>
        <time>2021-06-19T08:43:39Z</time>
      </trkpt>
      <trkpt lat="42.66216" lon="0.58555">
        <ele>1659</ele>
        <time>2021-06-19T08:43:41Z</time>
      </trkpt>
      <trkpt lat="42.66215" lon="0.58558">
        <ele>1660</ele>
        <time>2021-06-19T08:43:41Z</time>
      </trkpt>
      <trkpt lat="42.6622" lon="0.58575">
        <ele>1661</ele>
        <time>2021-06-19T08:43:44Z</time>
      </trkpt>
      <trkpt lat="42.66251" lon="0.58617">
        <ele>1663</ele>
        <time>2021-06-19T08:43:55Z</time>
      </trkpt>
      <trkpt lat="42.66255" lon="0.58627">
        <ele>1665</ele>
        <time>2021-06-19T08:43:57Z</time>
      </trkpt>
      <trkpt lat="42.66253" lon="0.5863">
        <ele>1666</ele>
        <time>2021-06-19T08:43:57Z</time>
      </trkpt>
      <trkpt lat="42.66255" lon="0.58663">
        <ele>1676</ele>
        <time>2021-06-19T08:44:03Z</time>
      </trkpt>
      <trkpt lat="42.66258" lon="0.58671">
        <ele>1678</ele>
        <time>2021-06-19T08:44:04Z</time>
      </trkpt>
      <trkpt lat="42.66265" lon="0.58679">
        <ele>1679</ele>
        <time>2021-06-19T08:44:07Z</time>
      </trkpt>
      <trkpt lat="42.66276" lon="0.58681">
        <ele>1678</ele>
        <time>2021-06-19T08:44:09Z</time>
      </trkpt>
      <trkpt lat="42.6629" lon="0.58678">
        <ele>1674</ele>
        <time>2021-06-19T08:44:13Z</time>
      </trkpt>
      <trkpt lat="42.66301" lon="0.5868">
        <ele>1673</ele>
        <time>2021-06-19T08:44:15Z</time>
      </trkpt>
      <trkpt lat="42.6633" lon="0.58695">
        <ele>1674</ele>
        <time>2021-06-19T08:44:22Z</time>
      </trkpt>
      <trkpt lat="42.66351" lon="0.58709">
        <ele>1676</ele>
        <time>2021-06-19T08:44:28Z</time>
      </trkpt>
      <trkpt lat="42.66371" lon="0.58734">
        <ele>1684</ele>
        <time>2021-06-19T08:44:34Z</time>
      </trkpt>
      <trkpt lat="42.66384" lon="0.58741">
        <ele>1685</ele>
        <time>2021-06-19T08:44:37Z</time>
      </trkpt>
      <trkpt lat="42.66402" lon="0.58744">
        <ele>1684</ele>
        <time>2021-06-19T08:44:42Z</time>
      </trkpt>
      <trkpt lat="42.6642" lon="0.58743">
        <ele>1682</ele>
        <time>2021-06-19T08:44:46Z</time>
      </trkpt>
      <trkpt lat="42.66441" lon="0.58752">
        <ele>1686</ele>
        <time>2021-06-19T08:44:51Z</time>
      </trkpt>
      <trkpt lat="42.66464" lon="0.58754">
        <ele>1687</ele>
        <time>2021-06-19T08:44:56Z</time>
      </trkpt>
      <trkpt lat="42.66477" lon="0.58761">
        <ele>1689</ele>
        <time>2021-06-19T08:45:00Z</time>
      </trkpt>
      <trkpt lat="42.66498" lon="0.58758">
        <ele>1688</ele>
        <time>2021-06-19T08:45:05Z</time>
      </trkpt>
      <trkpt lat="42.66537" lon="0.5877">
        <ele>1694</ele>
        <time>2021-06-19T08:45:14Z</time>
      </trkpt>
      <trkpt lat="42.66554" lon="0.58789">
        <ele>1701</ele>
        <time>2021-06-19T08:45:19Z</time>
      </trkpt>
      <trkpt lat="42.66579" lon="0.58804">
        <ele>1706</ele>
        <time>2021-06-19T08:45:25Z</time>
      </trkpt>
      <trkpt lat="42.66591" lon="0.58818">
        <ele>1710</ele>
        <time>2021-06-19T08:45:29Z</time>
      </trkpt>
      <trkpt lat="42.66596" lon="0.5882">
        <ele>1711</ele>
        <time>2021-06-19T08:45:30Z</time>
      </trkpt>
      <trkpt lat="42.66612" lon="0.58816">
        <ele>1708</ele>
        <time>2021-06-19T08:45:34Z</time>
      </trkpt>
      <trkpt lat="42.66669" lon="0.58838">
        <ele>1712</ele>
        <time>2021-06-19T08:45:48Z</time>
      </trkpt>
      <trkpt lat="42.66689" lon="0.5883">
        <ele>1703</ele>
        <time>2021-06-19T08:45:53Z</time>
      </trkpt>
      <trkpt lat="42.66695" lon="0.58833">
        <ele>1703</ele>
        <time>2021-06-19T08:45:54Z</time>
      </trkpt>
      <trkpt lat="42.66715" lon="0.58851">
        <ele>1705</ele>
        <time>2021-06-19T08:46:00Z</time>
      </trkpt>
      <trkpt lat="42.66728" lon="0.58857">
        <ele>1705</ele>
        <time>2021-06-19T08:46:03Z</time>
      </trkpt>
      <trkpt lat="42.6676" lon="0.58898">
        <ele>1714</ele>
        <time>2021-06-19T08:46:13Z</time>
      </trkpt>
      <trkpt lat="42.66787" lon="0.58919">
        <ele>1711</ele>
        <time>2021-06-19T08:46:21Z</time>
      </trkpt>
      <trkpt lat="42.66804" lon="0.58942">
        <ele>1712</ele>
        <time>2021-06-19T08:46:26Z</time>
      </trkpt>
      <trkpt lat="42.66833" lon="0.58966">
        <ele>1710</ele>
        <time>2021-06-19T08:46:34Z</time>
      </trkpt>
      <trkpt lat="42.66842" lon="0.58977">
        <ele>1710</ele>
        <time>2021-06-19T08:46:37Z</time>
      </trkpt>
      <trkpt lat="42.66849" lon="0.58988">
        <ele>1710</ele>
        <time>2021-06-19T08:46:40Z</time>
      </trkpt>
      <trkpt lat="42.66873" lon="0.59041">
        <ele>1716</ele>
        <time>2021-06-19T08:46:50Z</time>
      </trkpt>
      <trkpt lat="42.66922" lon="0.59114">
        <ele>1711</ele>
        <time>2021-06-19T08:47:07Z</time>
      </trkpt>
      <trkpt lat="42.66949" lon="0.59141">
        <ele>1706</ele>
        <time>2021-06-19T08:47:15Z</time>
      </trkpt>
      <trkpt lat="42.66968" lon="0.59169">
        <ele>1706</ele>
        <time>2021-06-19T08:47:22Z</time>
      </trkpt>
      <trkpt lat="42.66998" lon="0.59199">
        <ele>1700</ele>
        <time>2021-06-19T08:47:30Z</time>
      </trkpt>
      <trkpt lat="42.67023" lon="0.59217">
        <ele>1698</ele>
        <time>2021-06-19T08:47:37Z</time>
      </trkpt>
      <trkpt lat="42.67039" lon="0.59224">
        <ele>1695</ele>
        <time>2021-06-19T08:47:41Z</time>
      </trkpt>
      <trkpt lat="42.67066" lon="0.59241">
        <ele>1693</ele>
        <time>2021-06-19T08:47:48Z</time>
      </trkpt>
      <trkpt lat="42.6708" lon="0.59248">
        <ele>1691</ele>
        <time>2021-06-19T08:47:51Z</time>
      </trkpt>
      <trkpt lat="42.67107" lon="0.59253">
        <ele>1689</ele>
        <time>2021-06-19T08:47:58Z</time>
      </trkpt>
      <trkpt lat="42.67113" lon="0.59248">
        <ele>1687</ele>
        <time>2021-06-19T08:47:59Z</time>
      </trkpt>
      <trkpt lat="42.67115" lon="0.59238">
        <ele>1684</ele>
        <time>2021-06-19T08:48:01Z</time>
      </trkpt>
      <trkpt lat="42.67105" lon="0.59225">
        <ele>1681</ele>
        <time>2021-06-19T08:48:04Z</time>
      </trkpt>
      <trkpt lat="42.67104" lon="0.59215">
        <ele>1678</ele>
        <time>2021-06-19T08:48:06Z</time>
      </trkpt>
      <trkpt lat="42.67105" lon="0.59213">
        <ele>1677</ele>
        <time>2021-06-19T08:48:06Z</time>
      </trkpt>
      <trkpt lat="42.67118" lon="0.59212">
        <ele>1676</ele>
        <time>2021-06-19T08:48:09Z</time>
      </trkpt>
      <trkpt lat="42.67154" lon="0.59216">
        <ele>1674</ele>
        <time>2021-06-19T08:48:18Z</time>
      </trkpt>
      <trkpt lat="42.67179" lon="0.59239">
        <ele>1678</ele>
        <time>2021-06-19T08:48:25Z</time>
      </trkpt>
      <trkpt lat="42.67225" lon="0.59233">
        <ele>1673</ele>
        <time>2021-06-19T08:48:36Z</time>
      </trkpt>
      <trkpt lat="42.67246" lon="0.59225">
        <ele>1670</ele>
        <time>2021-06-19T08:48:41Z</time>
      </trkpt>
      <trkpt lat="42.67271" lon="0.59233">
        <ele>1669</ele>
        <time>2021-06-19T08:48:47Z</time>
      </trkpt>
      <trkpt lat="42.6728" lon="0.59245">
        <ele>1669</ele>
        <time>2021-06-19T08:48:50Z</time>
      </trkpt>
      <trkpt lat="42.67287" lon="0.59261">
        <ele>1670</ele>
        <time>2021-06-19T08:48:53Z</time>
      </trkpt>
      <trkpt lat="42.67299" lon="0.59304">
        <ele>1672</ele>
        <time>2021-06-19T08:49:01Z</time>
      </trkpt>
      <trkpt lat="42.67322" lon="0.59362">
        <ele>1674</ele>
        <time>2021-06-19T08:49:12Z</time>
      </trkpt>
      <trkpt lat="42.67329" lon="0.59391">
        <ele>1676</ele>
        <time>2021-06-19T08:49:17Z</time>
      </trkpt>
      <trkpt lat="42.67341" lon="0.59423">
        <ele>1680</ele>
        <time>2021-06-19T08:49:24Z</time>
      </trkpt>
      <trkpt lat="42.67348" lon="0.59433">
        <ele>1681</ele>
        <time>2021-06-19T08:49:26Z</time>
      </trkpt>
      <trkpt lat="42.67365" lon="0.59443">
        <ele>1680</ele>
        <time>2021-06-19T08:49:30Z</time>
      </trkpt>
      <trkpt lat="42.67394" lon="0.595">
        <ele>1682</ele>
        <time>2021-06-19T08:49:42Z</time>
      </trkpt>
      <trkpt lat="42.67409" lon="0.59508">
        <ele>1680</ele>
        <time>2021-06-19T08:49:46Z</time>
      </trkpt>
      <trkpt lat="42.6744" lon="0.59515">
        <ele>1679</ele>
        <time>2021-06-19T08:49:53Z</time>
      </trkpt>
      <trkpt lat="42.67455" lon="0.59515">
        <ele>1679</ele>
        <time>2021-06-19T08:49:57Z</time>
      </trkpt>
      <trkpt lat="42.67466" lon="0.59505">
        <ele>1676</ele>
        <time>2021-06-19T08:50:00Z</time>
      </trkpt>
      <trkpt lat="42.67486" lon="0.59464">
        <ele>1671</ele>
        <time>2021-06-19T08:50:08Z</time>
      </trkpt>
      <trkpt lat="42.67491" lon="0.59462">
        <ele>1671</ele>
        <time>2021-06-19T08:50:10Z</time>
      </trkpt>
      <trkpt lat="42.67507" lon="0.59463">
        <ele>1673</ele>
        <time>2021-06-19T08:50:13Z</time>
      </trkpt>
      <trkpt lat="42.67514" lon="0.59459">
        <ele>1674</ele>
        <time>2021-06-19T08:50:15Z</time>
      </trkpt>
      <trkpt lat="42.6752" lon="0.59446">
        <ele>1676</ele>
        <time>2021-06-19T08:50:18Z</time>
      </trkpt>
      <trkpt lat="42.6752" lon="0.59436">
        <ele>1676</ele>
        <time>2021-06-19T08:50:19Z</time>
      </trkpt>
      <trkpt lat="42.67514" lon="0.59421">
        <ele>1673</ele>
        <time>2021-06-19T08:50:22Z</time>
      </trkpt>
      <trkpt lat="42.67488" lon="0.59388">
        <ele>1674</ele>
        <time>2021-06-19T08:50:31Z</time>
      </trkpt>
      <trkpt lat="42.67489" lon="0.59381">
        <ele>1675</ele>
        <time>2021-06-19T08:50:32Z</time>
      </trkpt>
      <trkpt lat="42.67493" lon="0.59379">
        <ele>1676</ele>
        <time>2021-06-19T08:50:33Z</time>
      </trkpt>
      <trkpt lat="42.67504" lon="0.59385">
        <ele>1678</ele>
        <time>2021-06-19T08:50:36Z</time>
      </trkpt>
      <trkpt lat="42.67534" lon="0.59414">
        <ele>1682</ele>
        <time>2021-06-19T08:50:44Z</time>
      </trkpt>
      <trkpt lat="42.67564" lon="0.59454">
        <ele>1687</ele>
        <time>2021-06-19T08:50:54Z</time>
      </trkpt>
      <trkpt lat="42.67603" lon="0.59529">
        <ele>1688</ele>
        <time>2021-06-19T08:51:10Z</time>
      </trkpt>
      <trkpt lat="42.67671" lon="0.59605">
        <ele>1696</ele>
        <time>2021-06-19T08:51:30Z</time>
      </trkpt>
      <trkpt lat="42.67682" lon="0.59623">
        <ele>1698</ele>
        <time>2021-06-19T08:51:34Z</time>
      </trkpt>
      <trkpt lat="42.677" lon="0.5967">
        <ele>1697</ele>
        <time>2021-06-19T08:51:43Z</time>
      </trkpt>
      <trkpt lat="42.67713" lon="0.59695">
        <ele>1699</ele>
        <time>2021-06-19T08:51:49Z</time>
      </trkpt>
      <trkpt lat="42.67735" lon="0.59725">
        <ele>1703</ele>
        <time>2021-06-19T08:51:56Z</time>
      </trkpt>
      <trkpt lat="42.67778" lon="0.59806">
        <ele>1702</ele>
        <time>2021-06-19T08:52:13Z</time>
      </trkpt>
      <trkpt lat="42.67796" lon="0.59827">
        <ele>1703</ele>
        <time>2021-06-19T08:52:19Z</time>
      </trkpt>
      <trkpt lat="42.67816" lon="0.59864">
        <ele>1704</ele>
        <time>2021-06-19T08:52:27Z</time>
      </trkpt>
      <trkpt lat="42.67838" lon="0.59897">
        <ele>1704</ele>
        <time>2021-06-19T08:52:34Z</time>
      </trkpt>
      <trkpt lat="42.67878" lon="0.60014">
        <ele>1718</ele>
        <time>2021-06-19T08:52:56Z</time>
      </trkpt>
      <trkpt lat="42.67887" lon="0.60057">
        <ele>1720</ele>
        <time>2021-06-19T08:53:04Z</time>
      </trkpt>
      <trkpt lat="42.67896" lon="0.60085">
        <ele>1722</ele>
        <time>2021-06-19T08:53:09Z</time>
      </trkpt>
      <trkpt lat="42.6793" lon="0.6014">
        <ele>1727</ele>
        <time>2021-06-19T08:53:22Z</time>
      </trkpt>
      <trkpt lat="42.67984" lon="0.60217">
        <ele>1739</ele>
        <time>2021-06-19T08:53:40Z</time>
      </trkpt>
      <trkpt lat="42.67999" lon="0.60259">
        <ele>1735</ele>
        <time>2021-06-19T08:53:48Z</time>
      </trkpt>
      <trkpt lat="42.68026" lon="0.6031">
        <ele>1738</ele>
        <time>2021-06-19T08:53:59Z</time>
      </trkpt>
      <trkpt lat="42.68052" lon="0.60352">
        <ele>1739</ele>
        <time>2021-06-19T08:54:08Z</time>
      </trkpt>
      <trkpt lat="42.68083" lon="0.60388">
        <ele>1735</ele>
        <time>2021-06-19T08:54:18Z</time>
      </trkpt>
      <trkpt lat="42.681" lon="0.60429">
        <ele>1735</ele>
        <time>2021-06-19T08:54:26Z</time>
      </trkpt>
      <trkpt lat="42.68135" lon="0.6055">
        <ele>1745</ele>
        <time>2021-06-19T08:54:48Z</time>
      </trkpt>
      <trkpt lat="42.68141" lon="0.60588">
        <ele>1746</ele>
        <time>2021-06-19T08:54:55Z</time>
      </trkpt>
      <trkpt lat="42.68175" lon="0.60651">
        <ele>1746</ele>
        <time>2021-06-19T08:55:08Z</time>
      </trkpt>
      <trkpt lat="42.68233" lon="0.6074">
        <ele>1750</ele>
        <time>2021-06-19T08:55:29Z</time>
      </trkpt>
      <trkpt lat="42.68259" lon="0.60832">
        <ele>1754</ele>
        <time>2021-06-19T08:55:45Z</time>
      </trkpt>
      <trkpt lat="42.68296" lon="0.60945">
        <ele>1762</ele>
        <time>2021-06-19T08:56:07Z</time>
      </trkpt>
      <trkpt lat="42.68305" lon="0.6099">
        <ele>1768</ele>
        <time>2021-06-19T08:56:15Z</time>
      </trkpt>
      <trkpt lat="42.6831" lon="0.61042">
        <ele>1774</ele>
        <time>2021-06-19T08:56:24Z</time>
      </trkpt>
      <trkpt lat="42.68323" lon="0.61077">
        <ele>1772</ele>
        <time>2021-06-19T08:56:30Z</time>
      </trkpt>
      <trkpt lat="42.68336" lon="0.61099">
        <ele>1765</ele>
        <time>2021-06-19T08:56:35Z</time>
      </trkpt>
      <trkpt lat="42.68352" lon="0.61161">
        <ele>1761</ele>
        <time>2021-06-19T08:56:47Z</time>
      </trkpt>
      <trkpt lat="42.68336" lon="0.61099">
        <ele>1765</ele>
        <time>2021-06-19T08:56:58Z</time>
      </trkpt>
      <trkpt lat="42.68323" lon="0.61077">
        <ele>1772</ele>
        <time>2021-06-19T08:57:03Z</time>
      </trkpt>
      <trkpt lat="42.6831" lon="0.61042">
        <ele>1774</ele>
        <time>2021-06-19T08:57:09Z</time>
      </trkpt>
      <trkpt lat="42.68309" lon="0.61071">
        <ele>1780</ele>
        <time>2021-06-19T08:57:14Z</time>
      </trkpt>
      <trkpt lat="42.68326" lon="0.61162">
        <ele>1770</ele>
        <time>2021-06-19T08:57:31Z</time>
      </trkpt>
      <trkpt lat="42.68325" lon="0.61242">
        <ele>1779</ele>
        <time>2021-06-19T08:57:44Z</time>
      </trkpt>
      <trkpt lat="42.68328" lon="0.61289">
        <ele>1786</ele>
        <time>2021-06-19T08:57:52Z</time>
      </trkpt>
      <trkpt lat="42.68335" lon="0.61323">
        <ele>1790</ele>
        <time>2021-06-19T08:57:58Z</time>
      </trkpt>
      <trkpt lat="42.68366" lon="0.61381">
        <ele>1788</ele>
        <time>2021-06-19T08:58:11Z</time>
      </trkpt>
      <trkpt lat="42.68392" lon="0.61407">
        <ele>1783</ele>
        <time>2021-06-19T08:58:18Z</time>
      </trkpt>
      <trkpt lat="42.68404" lon="0.61416">
        <ele>1781</ele>
        <time>2021-06-19T08:58:21Z</time>
      </trkpt>
      <trkpt lat="42.68418" lon="0.61444">
        <ele>1779</ele>
        <time>2021-06-19T08:58:27Z</time>
      </trkpt>
      <trkpt lat="42.68423" lon="0.61473">
        <ele>1779</ele>
        <time>2021-06-19T08:58:32Z</time>
      </trkpt>
      <trkpt lat="42.68419" lon="0.61568">
        <ele>1784</ele>
        <time>2021-06-19T08:58:49Z</time>
      </trkpt>
      <trkpt lat="42.68427" lon="0.61663">
        <ele>1788</ele>
        <time>2021-06-19T08:59:05Z</time>
      </trkpt>
      <trkpt lat="42.68423" lon="0.61765">
        <ele>1797</ele>
        <time>2021-06-19T08:59:23Z</time>
      </trkpt>
      <trkpt lat="42.68392" lon="0.61885">
        <ele>1813</ele>
        <time>2021-06-19T08:59:45Z</time>
      </trkpt>
      <trkpt lat="42.68367" lon="0.61966">
        <ele>1824</ele>
        <time>2021-06-19T09:00:00Z</time>
      </trkpt>
      <trkpt lat="42.68364" lon="0.62007">
        <ele>1824</ele>
        <time>2021-06-19T09:00:07Z</time>
      </trkpt>
      <trkpt lat="42.68357" lon="0.62038">
        <ele>1826</ele>
        <time>2021-06-19T09:00:12Z</time>
      </trkpt>
      <trkpt lat="42.6836" lon="0.62091">
        <ele>1827</ele>
        <time>2021-06-19T09:00:21Z</time>
      </trkpt>
      <trkpt lat="42.68376" lon="0.62178">
        <ele>1831</ele>
        <time>2021-06-19T09:00:37Z</time>
      </trkpt>
      <trkpt lat="42.68373" lon="0.62204">
        <ele>1832</ele>
        <time>2021-06-19T09:00:41Z</time>
      </trkpt>
      <trkpt lat="42.68365" lon="0.62231">
        <ele>1834</ele>
        <time>2021-06-19T09:00:46Z</time>
      </trkpt>
      <trkpt lat="42.68363" lon="0.62249">
        <ele>1835</ele>
        <time>2021-06-19T09:00:49Z</time>
      </trkpt>
      <trkpt lat="42.68365" lon="0.62273">
        <ele>1834</ele>
        <time>2021-06-19T09:00:54Z</time>
      </trkpt>
      <trkpt lat="42.68374" lon="0.62301">
        <ele>1833</ele>
        <time>2021-06-19T09:00:59Z</time>
      </trkpt>
      <trkpt lat="42.68374" lon="0.62328">
        <ele>1833</ele>
        <time>2021-06-19T09:01:03Z</time>
      </trkpt>
      <trkpt lat="42.68366" lon="0.62354">
        <ele>1833</ele>
        <time>2021-06-19T09:01:08Z</time>
      </trkpt>
      <trkpt lat="42.68272" lon="0.625">
        <ele>1847</ele>
        <time>2021-06-19T09:01:42Z</time>
      </trkpt>
      <trkpt lat="42.68257" lon="0.6254">
        <ele>1848</ele>
        <time>2021-06-19T09:01:49Z</time>
      </trkpt>
      <trkpt lat="42.68243" lon="0.62597">
        <ele>1849</ele>
        <time>2021-06-19T09:02:00Z</time>
      </trkpt>
      <trkpt lat="42.68226" lon="0.62697">
        <ele>1853</ele>
        <time>2021-06-19T09:02:17Z</time>
      </trkpt>
      <trkpt lat="42.68221" lon="0.62701">
        <ele>1854</ele>
        <time>2021-06-19T09:02:19Z</time>
      </trkpt>
      <trkpt lat="42.68209" lon="0.62723">
        <ele>1855</ele>
        <time>2021-06-19T09:02:23Z</time>
      </trkpt>
      <trkpt lat="42.68203" lon="0.6274">
        <ele>1856</ele>
        <time>2021-06-19T09:02:27Z</time>
      </trkpt>
      <trkpt lat="42.68186" lon="0.62819">
        <ele>1858</ele>
        <time>2021-06-19T09:02:41Z</time>
      </trkpt>
      <trkpt lat="42.68181" lon="0.62881">
        <ele>1857</ele>
        <time>2021-06-19T09:02:51Z</time>
      </trkpt>
      <trkpt lat="42.68172" lon="0.62922">
        <ele>1855</ele>
        <time>2021-06-19T09:02:59Z</time>
      </trkpt>
      <trkpt lat="42.68174" lon="0.62959">
        <ele>1855</ele>
        <time>2021-06-19T09:03:05Z</time>
      </trkpt>
      <trkpt lat="42.68172" lon="0.62974">
        <ele>1855</ele>
        <time>2021-06-19T09:03:08Z</time>
      </trkpt>
      <trkpt lat="42.68177" lon="0.62983">
        <ele>1856</ele>
        <time>2021-06-19T09:03:10Z</time>
      </trkpt>
      <trkpt lat="42.68159" lon="0.63083">
        <ele>1855</ele>
        <time>2021-06-19T09:03:27Z</time>
      </trkpt>
      <trkpt lat="42.68154" lon="0.63125">
        <ele>1857</ele>
        <time>2021-06-19T09:03:35Z</time>
      </trkpt>
      <trkpt lat="42.68153" lon="0.6317">
        <ele>1858</ele>
        <time>2021-06-19T09:03:42Z</time>
      </trkpt>
      <trkpt lat="42.68133" lon="0.63295">
        <ele>1854</ele>
        <time>2021-06-19T09:04:04Z</time>
      </trkpt>
      <trkpt lat="42.68113" lon="0.63324">
        <ele>1853</ele>
        <time>2021-06-19T09:04:11Z</time>
      </trkpt>
      <trkpt lat="42.68043" lon="0.63459">
        <ele>1863</ele>
        <time>2021-06-19T09:04:39Z</time>
      </trkpt>
      <trkpt lat="42.68034" lon="0.63568">
        <ele>1856</ele>
        <time>2021-06-19T09:04:58Z</time>
      </trkpt>
      <trkpt lat="42.6802" lon="0.63642">
        <ele>1852</ele>
        <time>2021-06-19T09:05:11Z</time>
      </trkpt>
      <trkpt lat="42.68003" lon="0.63709">
        <ele>1849</ele>
        <time>2021-06-19T09:05:24Z</time>
      </trkpt>
      <trkpt lat="42.68004" lon="0.6373">
        <ele>1847</ele>
        <time>2021-06-19T09:05:27Z</time>
      </trkpt>
      <trkpt lat="42.68024" lon="0.63763">
        <ele>1844</ele>
        <time>2021-06-19T09:05:35Z</time>
      </trkpt>
      <trkpt lat="42.68028" lon="0.63775">
        <ele>1844</ele>
        <time>2021-06-19T09:05:37Z</time>
      </trkpt>
      <trkpt lat="42.6803" lon="0.638">
        <ele>1844</ele>
        <time>2021-06-19T09:05:41Z</time>
      </trkpt>
      <trkpt lat="42.68026" lon="0.63851">
        <ele>1844</ele>
        <time>2021-06-19T09:05:50Z</time>
      </trkpt>
      <trkpt lat="42.68013" lon="0.63939">
        <ele>1843</ele>
        <time>2021-06-19T09:06:05Z</time>
      </trkpt>
      <trkpt lat="42.68015" lon="0.6396">
        <ele>1843</ele>
        <time>2021-06-19T09:06:09Z</time>
      </trkpt>
      <trkpt lat="42.6802" lon="0.63971">
        <ele>1843</ele>
        <time>2021-06-19T09:06:11Z</time>
      </trkpt>
      <trkpt lat="42.68042" lon="0.63995">
        <ele>1842</ele>
        <time>2021-06-19T09:06:18Z</time>
      </trkpt>
      <trkpt lat="42.68049" lon="0.63999">
        <ele>1841</ele>
        <time>2021-06-19T09:06:20Z</time>
      </trkpt>
      <trkpt lat="42.68062" lon="0.64">
        <ele>1840</ele>
        <time>2021-06-19T09:06:23Z</time>
      </trkpt>
      <trkpt lat="42.68074" lon="0.64009">
        <ele>1839</ele>
        <time>2021-06-19T09:06:26Z</time>
      </trkpt>
      <trkpt lat="42.68094" lon="0.64047">
        <ele>1841</ele>
        <time>2021-06-19T09:06:34Z</time>
      </trkpt>
      <trkpt lat="42.68105" lon="0.64076">
        <ele>1843</ele>
        <time>2021-06-19T09:06:39Z</time>
      </trkpt>
      <trkpt lat="42.68115" lon="0.64114">
        <ele>1847</ele>
        <time>2021-06-19T09:06:46Z</time>
      </trkpt>
      <trkpt lat="42.68117" lon="0.64134">
        <ele>1849</ele>
        <time>2021-06-19T09:06:50Z</time>
      </trkpt>
      <trkpt lat="42.68115" lon="0.64208">
        <ele>1857</ele>
        <time>2021-06-19T09:07:03Z</time>
      </trkpt>
      <trkpt lat="42.68086" lon="0.64357">
        <ele>1866</ele>
        <time>2021-06-19T09:07:29Z</time>
      </trkpt>
      <trkpt lat="42.68054" lon="0.64471">
        <ele>1866</ele>
        <time>2021-06-19T09:07:50Z</time>
      </trkpt>
      <trkpt lat="42.68045" lon="0.64555">
        <ele>1867</ele>
        <time>2021-06-19T09:08:05Z</time>
      </trkpt>
      <trkpt lat="42.68043" lon="0.64615">
        <ele>1868</ele>
        <time>2021-06-19T09:08:15Z</time>
      </trkpt>
      <trkpt lat="42.68047" lon="0.64647">
        <ele>1869</ele>
        <time>2021-06-19T09:08:20Z</time>
      </trkpt>
      <trkpt lat="42.68059" lon="0.6467">
        <ele>1871</ele>
        <time>2021-06-19T09:08:25Z</time>
      </trkpt>
      <trkpt lat="42.68093" lon="0.64717">
        <ele>1878</ele>
        <time>2021-06-19T09:08:37Z</time>
      </trkpt>
      <trkpt lat="42.68103" lon="0.64755">
        <ele>1882</ele>
        <time>2021-06-19T09:08:44Z</time>
      </trkpt>
      <trkpt lat="42.68103" lon="0.64781">
        <ele>1885</ele>
        <time>2021-06-19T09:08:48Z</time>
      </trkpt>
      <trkpt lat="42.6811" lon="0.64745">
        <ele>1884</ele>
        <time>2021-06-19T09:08:54Z</time>
      </trkpt>
      <trkpt lat="42.68132" lon="0.64695">
        <ele>1889</ele>
        <time>2021-06-19T09:09:04Z</time>
      </trkpt>
      <trkpt lat="42.68145" lon="0.64676">
        <ele>1892</ele>
        <time>2021-06-19T09:09:09Z</time>
      </trkpt>
      <trkpt lat="42.68177" lon="0.64641">
        <ele>1901</ele>
        <time>2021-06-19T09:09:18Z</time>
      </trkpt>
      <trkpt lat="42.68212" lon="0.64641">
        <ele>1912</ele>
        <time>2021-06-19T09:09:27Z</time>
      </trkpt>
      <trkpt lat="42.68217" lon="0.64646">
        <ele>1913</ele>
        <time>2021-06-19T09:09:28Z</time>
      </trkpt>
      <trkpt lat="42.68225" lon="0.64647">
        <ele>1916</ele>
        <time>2021-06-19T09:09:30Z</time>
      </trkpt>
      <trkpt lat="42.68252" lon="0.64627">
        <ele>1924</ele>
        <time>2021-06-19T09:09:37Z</time>
      </trkpt>
      <trkpt lat="42.68263" lon="0.64622">
        <ele>1929</ele>
        <time>2021-06-19T09:09:40Z</time>
      </trkpt>
      <trkpt lat="42.68274" lon="0.64623">
        <ele>1934</ele>
        <time>2021-06-19T09:09:42Z</time>
      </trkpt>
      <trkpt lat="42.68289" lon="0.6463">
        <ele>1942</ele>
        <time>2021-06-19T09:09:46Z</time>
      </trkpt>
      <trkpt lat="42.68298" lon="0.6464">
        <ele>1946</ele>
        <time>2021-06-19T09:09:49Z</time>
      </trkpt>
      <trkpt lat="42.68318" lon="0.64686">
        <ele>1959</ele>
        <time>2021-06-19T09:09:58Z</time>
      </trkpt>
      <trkpt lat="42.68318" lon="0.64713">
        <ele>1963</ele>
        <time>2021-06-19T09:10:03Z</time>
      </trkpt>
      <trkpt lat="42.68308" lon="0.64762">
        <ele>1965</ele>
        <time>2021-06-19T09:10:11Z</time>
      </trkpt>
      <trkpt lat="42.68308" lon="0.64823">
        <ele>1977</ele>
        <time>2021-06-19T09:10:22Z</time>
      </trkpt>
      <trkpt lat="42.68303" lon="0.6484">
        <ele>1978</ele>
        <time>2021-06-19T09:10:25Z</time>
      </trkpt>
      <trkpt lat="42.68282" lon="0.64885">
        <ele>1976</ele>
        <time>2021-06-19T09:10:34Z</time>
      </trkpt>
      <trkpt lat="42.6828" lon="0.64895">
        <ele>1976</ele>
        <time>2021-06-19T09:10:36Z</time>
      </trkpt>
      <trkpt lat="42.68286" lon="0.64933">
        <ele>1984</ele>
        <time>2021-06-19T09:10:43Z</time>
      </trkpt>
      <trkpt lat="42.68293" lon="0.64946">
        <ele>1988</ele>
        <time>2021-06-19T09:10:45Z</time>
      </trkpt>
      <trkpt lat="42.68298" lon="0.64937">
        <ele>1989</ele>
        <time>2021-06-19T09:10:47Z</time>
      </trkpt>
      <trkpt lat="42.68305" lon="0.64912">
        <ele>1989</ele>
        <time>2021-06-19T09:10:52Z</time>
      </trkpt>
      <trkpt lat="42.68348" lon="0.64834">
        <ele>1999</ele>
        <time>2021-06-19T09:11:09Z</time>
      </trkpt>
      <trkpt lat="42.68353" lon="0.64836">
        <ele>2002</ele>
        <time>2021-06-19T09:11:10Z</time>
      </trkpt>
      <trkpt lat="42.68355" lon="0.64948">
        <ele>2019</ele>
        <time>2021-06-19T09:11:29Z</time>
      </trkpt>
      <trkpt lat="42.6836" lon="0.64949">
        <ele>2022</ele>
        <time>2021-06-19T09:11:30Z</time>
      </trkpt>
      <trkpt lat="42.68396" lon="0.64859">
        <ele>2031</ele>
        <time>2021-06-19T09:11:48Z</time>
      </trkpt>
      <trkpt lat="42.68405" lon="0.64842">
        <ele>2035</ele>
        <time>2021-06-19T09:11:51Z</time>
      </trkpt>
      <trkpt lat="42.68411" lon="0.64841">
        <ele>2038</ele>
        <time>2021-06-19T09:11:53Z</time>
      </trkpt>
      <trkpt lat="42.68408" lon="0.6488">
        <ele>2041</ele>
        <time>2021-06-19T09:12:00Z</time>
      </trkpt>
      <trkpt lat="42.68415" lon="0.64975">
        <ele>2060</ele>
        <time>2021-06-19T09:12:16Z</time>
      </trkpt>
      <trkpt lat="42.68412" lon="0.65007">
        <ele>2065</ele>
        <time>2021-06-19T09:12:21Z</time>
      </trkpt>
      <trkpt lat="42.68405" lon="0.65022">
        <ele>2065</ele>
        <time>2021-06-19T09:12:25Z</time>
      </trkpt>
      <trkpt lat="42.68416" lon="0.65028">
        <ele>2074</ele>
        <time>2021-06-19T09:12:27Z</time>
      </trkpt>
      <trkpt lat="42.68403" lon="0.65053">
        <ele>2073</ele>
        <time>2021-06-19T09:12:33Z</time>
      </trkpt>
      <trkpt lat="42.68406" lon="0.65056">
        <ele>2076</ele>
        <time>2021-06-19T09:12:33Z</time>
      </trkpt>
      <trkpt lat="42.68414" lon="0.65053">
        <ele>2080</ele>
        <time>2021-06-19T09:12:35Z</time>
      </trkpt>
      <trkpt lat="42.68415" lon="0.6506">
        <ele>2082</ele>
        <time>2021-06-19T09:12:37Z</time>
      </trkpt>
      <trkpt lat="42.6841" lon="0.65072">
        <ele>2083</ele>
        <time>2021-06-19T09:12:39Z</time>
      </trkpt>
      <trkpt lat="42.68412" lon="0.65076">
        <ele>2085</ele>
        <time>2021-06-19T09:12:40Z</time>
      </trkpt>
      <trkpt lat="42.68419" lon="0.65068">
        <ele>2087</ele>
        <time>2021-06-19T09:12:42Z</time>
      </trkpt>
      <trkpt lat="42.68424" lon="0.6507">
        <ele>2091</ele>
        <time>2021-06-19T09:12:43Z</time>
      </trkpt>
      <trkpt lat="42.68415" lon="0.65092">
        <ele>2090</ele>
        <time>2021-06-19T09:12:47Z</time>
      </trkpt>
      <trkpt lat="42.68417" lon="0.65118">
        <ele>2096</ele>
        <time>2021-06-19T09:12:52Z</time>
      </trkpt>
      <trkpt lat="42.68424" lon="0.65148">
        <ele>2105</ele>
        <time>2021-06-19T09:12:57Z</time>
      </trkpt>
      <trkpt lat="42.68426" lon="0.6522">
        <ele>2116</ele>
        <time>2021-06-19T09:13:10Z</time>
      </trkpt>
      <trkpt lat="42.68444" lon="0.65191">
        <ele>2124</ele>
        <time>2021-06-19T09:13:16Z</time>
      </trkpt>
      <trkpt lat="42.68451" lon="0.65175">
        <ele>2128</ele>
        <time>2021-06-19T09:13:19Z</time>
      </trkpt>
      <trkpt lat="42.68456" lon="0.65146">
        <ele>2127</ele>
        <time>2021-06-19T09:13:25Z</time>
      </trkpt>
      <trkpt lat="42.68461" lon="0.65143">
        <ele>2130</ele>
        <time>2021-06-19T09:13:26Z</time>
      </trkpt>
      <trkpt lat="42.6847" lon="0.65163">
        <ele>2139</ele>
        <time>2021-06-19T09:13:30Z</time>
      </trkpt>
      <trkpt lat="42.68474" lon="0.65241">
        <ele>2149</ele>
        <time>2021-06-19T09:13:43Z</time>
      </trkpt>
      <trkpt lat="42.68478" lon="0.65239">
        <ele>2151</ele>
        <time>2021-06-19T09:13:44Z</time>
      </trkpt>
      <trkpt lat="42.68483" lon="0.65231">
        <ele>2154</ele>
        <time>2021-06-19T09:13:46Z</time>
      </trkpt>
      <trkpt lat="42.68501" lon="0.65189">
        <ele>2163</ele>
        <time>2021-06-19T09:13:54Z</time>
      </trkpt>
      <trkpt lat="42.68514" lon="0.6517">
        <ele>2170</ele>
        <time>2021-06-19T09:13:59Z</time>
      </trkpt>
      <trkpt lat="42.68516" lon="0.65181">
        <ele>2172</ele>
        <time>2021-06-19T09:14:01Z</time>
      </trkpt>
      <trkpt lat="42.68515" lon="0.65262">
        <ele>2178</ele>
        <time>2021-06-19T09:14:15Z</time>
      </trkpt>
      <trkpt lat="42.68535" lon="0.65226">
        <ele>2188</ele>
        <time>2021-06-19T09:14:22Z</time>
      </trkpt>
      <trkpt lat="42.68543" lon="0.65202">
        <ele>2191</ele>
        <time>2021-06-19T09:14:27Z</time>
      </trkpt>
      <trkpt lat="42.68567" lon="0.65167">
        <ele>2203</ele>
        <time>2021-06-19T09:14:35Z</time>
      </trkpt>
      <trkpt lat="42.6857" lon="0.65174">
        <ele>2205</ele>
        <time>2021-06-19T09:14:37Z</time>
      </trkpt>
      <trkpt lat="42.68565" lon="0.65251">
        <ele>2210</ele>
        <time>2021-06-19T09:14:50Z</time>
      </trkpt>
      <trkpt lat="42.6857" lon="0.65325">
        <ele>2221</ele>
        <time>2021-06-19T09:15:03Z</time>
      </trkpt>
      <trkpt lat="42.68607" lon="0.65225">
        <ele>2231</ele>
        <time>2021-06-19T09:15:22Z</time>
      </trkpt>
      <trkpt lat="42.68616" lon="0.65233">
        <ele>2236</ele>
        <time>2021-06-19T09:15:24Z</time>
      </trkpt>
      <trkpt lat="42.68624" lon="0.65253">
        <ele>2241</ele>
        <time>2021-06-19T09:15:28Z</time>
      </trkpt>
      <trkpt lat="42.68628" lon="0.65288">
        <ele>2245</ele>
        <time>2021-06-19T09:15:34Z</time>
      </trkpt>
      <trkpt lat="42.68647" lon="0.6535">
        <ele>2257</ele>
        <time>2021-06-19T09:15:46Z</time>
      </trkpt>
      <trkpt lat="42.68654" lon="0.6536">
        <ele>2261</ele>
        <time>2021-06-19T09:15:48Z</time>
      </trkpt>
      <trkpt lat="42.68659" lon="0.65356">
        <ele>2262</ele>
        <time>2021-06-19T09:15:50Z</time>
      </trkpt>
      <trkpt lat="42.68681" lon="0.65306">
        <ele>2267</ele>
        <time>2021-06-19T09:16:00Z</time>
      </trkpt>
      <trkpt lat="42.68688" lon="0.65309">
        <ele>2269</ele>
        <time>2021-06-19T09:16:01Z</time>
      </trkpt>
      <trkpt lat="42.68707" lon="0.65351">
        <ele>2276</ele>
        <time>2021-06-19T09:16:10Z</time>
      </trkpt>
      <trkpt lat="42.68713" lon="0.65389">
        <ele>2280</ele>
        <time>2021-06-19T09:16:16Z</time>
      </trkpt>
      <trkpt lat="42.68712" lon="0.6544">
        <ele>2286</ele>
        <time>2021-06-19T09:16:25Z</time>
      </trkpt>
      <trkpt lat="42.68717" lon="0.65464">
        <ele>2293</ele>
        <time>2021-06-19T09:16:29Z</time>
      </trkpt>
      <trkpt lat="42.68739" lon="0.65452">
        <ele>2297</ele>
        <time>2021-06-19T09:16:35Z</time>
      </trkpt>
      <trkpt lat="42.68779" lon="0.65424">
        <ele>2303</ele>
        <time>2021-06-19T09:16:46Z</time>
      </trkpt>
      <trkpt lat="42.68783" lon="0.6544">
        <ele>2308</ele>
        <time>2021-06-19T09:16:48Z</time>
      </trkpt>
      <trkpt lat="42.68807" lon="0.65438">
        <ele>2314</ele>
        <time>2021-06-19T09:16:54Z</time>
      </trkpt>
      <trkpt lat="42.68818" lon="0.65431">
        <ele>2316</ele>
        <time>2021-06-19T09:16:57Z</time>
      </trkpt>
      <trkpt lat="42.68844" lon="0.65391">
        <ele>2316</ele>
        <time>2021-06-19T09:17:06Z</time>
      </trkpt>
      <trkpt lat="42.68869" lon="0.65379">
        <ele>2319</ele>
        <time>2021-06-19T09:17:12Z</time>
      </trkpt>
      <trkpt lat="42.68879" lon="0.65383">
        <ele>2322</ele>
        <time>2021-06-19T09:17:15Z</time>
      </trkpt>
      <trkpt lat="42.68888" lon="0.65412">
        <ele>2327</ele>
        <time>2021-06-19T09:17:20Z</time>
      </trkpt>
      <trkpt lat="42.68897" lon="0.65419">
        <ele>2330</ele>
        <time>2021-06-19T09:17:22Z</time>
      </trkpt>
      <trkpt lat="42.68901" lon="0.65428">
        <ele>2333</ele>
        <time>2021-06-19T09:17:24Z</time>
      </trkpt>
      <trkpt lat="42.68919" lon="0.65423">
        <ele>2336</ele>
        <time>2021-06-19T09:17:29Z</time>
      </trkpt>
      <trkpt lat="42.68923" lon="0.65424">
        <ele>2337</ele>
        <time>2021-06-19T09:17:30Z</time>
      </trkpt>
      <trkpt lat="42.68922" lon="0.6544">
        <ele>2341</ele>
        <time>2021-06-19T09:17:32Z</time>
      </trkpt>
      <trkpt lat="42.68909" lon="0.65498">
        <ele>2352</ele>
        <time>2021-06-19T09:17:43Z</time>
      </trkpt>
      <trkpt lat="42.68903" lon="0.65512">
        <ele>2354</ele>
        <time>2021-06-19T09:17:45Z</time>
      </trkpt>
      <trkpt lat="42.68893" lon="0.65522">
        <ele>2354</ele>
        <time>2021-06-19T09:17:48Z</time>
      </trkpt>
      <trkpt lat="42.68887" lon="0.65542">
        <ele>2358</ele>
        <time>2021-06-19T09:17:52Z</time>
      </trkpt>
      <trkpt lat="42.68883" lon="0.65576">
        <ele>2365</ele>
        <time>2021-06-19T09:17:58Z</time>
      </trkpt>
      <trkpt lat="42.68885" lon="0.65588">
        <ele>2368</ele>
        <time>2021-06-19T09:18:00Z</time>
      </trkpt>
      <trkpt lat="42.68889" lon="0.65595">
        <ele>2370</ele>
        <time>2021-06-19T09:18:02Z</time>
      </trkpt>
      <trkpt lat="42.68898" lon="0.65603">
        <ele>2373</ele>
        <time>2021-06-19T09:18:04Z</time>
      </trkpt>
      <trkpt lat="42.6891" lon="0.65664">
        <ele>2386</ele>
        <time>2021-06-19T09:18:15Z</time>
      </trkpt>
      <trkpt lat="42.68911" lon="0.65689">
        <ele>2393</ele>
        <time>2021-06-19T09:18:19Z</time>
      </trkpt>
      <trkpt lat="42.68903" lon="0.65712">
        <ele>2400</ele>
        <time>2021-06-19T09:18:24Z</time>
      </trkpt>
      <trkpt lat="42.68901" lon="0.65736">
        <ele>2407</ele>
        <time>2021-06-19T09:18:28Z</time>
      </trkpt>
      <trkpt lat="42.68901" lon="0.65741">
        <ele>2409</ele>
        <time>2021-06-19T09:18:29Z</time>
      </trkpt>
      <trkpt lat="42.68908" lon="0.65753">
        <ele>2412</ele>
        <time>2021-06-19T09:18:31Z</time>
      </trkpt>
      <trkpt lat="42.68909" lon="0.65759">
        <ele>2414</ele>
        <time>2021-06-19T09:18:32Z</time>
      </trkpt>
      <trkpt lat="42.68908" lon="0.65764">
        <ele>2416</ele>
        <time>2021-06-19T09:18:33Z</time>
      </trkpt>
      <trkpt lat="42.68897" lon="0.65776">
        <ele>2421</ele>
        <time>2021-06-19T09:18:37Z</time>
      </trkpt>
      <trkpt lat="42.68896" lon="0.6578">
        <ele>2422</ele>
        <time>2021-06-19T09:18:37Z</time>
      </trkpt>
      <trkpt lat="42.68898" lon="0.65784">
        <ele>2423</ele>
        <time>2021-06-19T09:18:38Z</time>
      </trkpt>
      <trkpt lat="42.68912" lon="0.65792">
        <ele>2425</ele>
        <time>2021-06-19T09:18:42Z</time>
      </trkpt>
      <trkpt lat="42.68922" lon="0.65805">
        <ele>2433</ele>
        <time>2021-06-19T09:18:45Z</time>
      </trkpt>
      <trkpt lat="42.68924" lon="0.65813">
        <ele>2437</ele>
        <time>2021-06-19T09:18:46Z</time>
      </trkpt>
      <trkpt lat="42.68923" lon="0.6588">
        <ele>2456</ele>
        <time>2021-06-19T09:18:58Z</time>
      </trkpt>
      <trkpt lat="42.68927" lon="0.65897">
        <ele>2462</ele>
        <time>2021-06-19T09:19:01Z</time>
      </trkpt>
      <trkpt lat="42.68926" lon="0.6591">
        <ele>2465</ele>
        <time>2021-06-19T09:19:03Z</time>
      </trkpt>
      <trkpt lat="42.68933" lon="0.65934">
        <ele>2473</ele>
        <time>2021-06-19T09:19:08Z</time>
      </trkpt>
      <trkpt lat="42.68931" lon="0.65959">
        <ele>2476</ele>
        <time>2021-06-19T09:19:12Z</time>
      </trkpt>
      <trkpt lat="42.68928" lon="0.65968">
        <ele>2476</ele>
        <time>2021-06-19T09:19:14Z</time>
      </trkpt>
      <trkpt lat="42.6892" lon="0.65978">
        <ele>2474</ele>
        <time>2021-06-19T09:19:16Z</time>
      </trkpt>
      <trkpt lat="42.68928" lon="0.65995">
        <ele>2480</ele>
        <time>2021-06-19T09:19:20Z</time>
      </trkpt>
      <trkpt lat="42.68928" lon="0.66009">
        <ele>2480</ele>
        <time>2021-06-19T09:19:22Z</time>
      </trkpt>
      <trkpt lat="42.68924" lon="0.66031">
        <ele>2477</ele>
        <time>2021-06-19T09:19:26Z</time>
      </trkpt>
      <trkpt lat="42.68936" lon="0.6608">
        <ele>2480</ele>
        <time>2021-06-19T09:19:35Z</time>
      </trkpt>
      <trkpt lat="42.68934" lon="0.66103">
        <ele>2473</ele>
        <time>2021-06-19T09:19:39Z</time>
      </trkpt>
      <trkpt lat="42.68944" lon="0.66132">
        <ele>2470</ele>
        <time>2021-06-19T09:19:44Z</time>
      </trkpt>
      <trkpt lat="42.68944" lon="0.66157">
        <ele>2462</ele>
        <time>2021-06-19T09:19:48Z</time>
      </trkpt>
      <trkpt lat="42.68955" lon="0.66244">
        <ele>2445</ele>
        <time>2021-06-19T09:20:04Z</time>
      </trkpt>
      <trkpt lat="42.68957" lon="0.6628">
        <ele>2439</ele>
        <time>2021-06-19T09:20:10Z</time>
      </trkpt>
      <trkpt lat="42.68953" lon="0.66347">
        <ele>2427</ele>
        <time>2021-06-19T09:20:21Z</time>
      </trkpt>
      <trkpt lat="42.68933" lon="0.66472">
        <ele>2416</ele>
        <time>2021-06-19T09:20:43Z</time>
      </trkpt>
      <trkpt lat="42.68916" lon="0.66532">
        <ele>2406</ele>
        <time>2021-06-19T09:20:54Z</time>
      </trkpt>
      <trkpt lat="42.68901" lon="0.66572">
        <ele>2401</ele>
        <time>2021-06-19T09:21:02Z</time>
      </trkpt>
      <trkpt lat="42.68897" lon="0.66612">
        <ele>2401</ele>
        <time>2021-06-19T09:21:09Z</time>
      </trkpt>
      <trkpt lat="42.68896" lon="0.66658">
        <ele>2402</ele>
        <time>2021-06-19T09:21:17Z</time>
      </trkpt>
      <trkpt lat="42.68902" lon="0.66705">
        <ele>2403</ele>
        <time>2021-06-19T09:21:25Z</time>
      </trkpt>
      <trkpt lat="42.68899" lon="0.6672">
        <ele>2402</ele>
        <time>2021-06-19T09:21:28Z</time>
      </trkpt>
      <trkpt lat="42.68883" lon="0.66755">
        <ele>2400</ele>
        <time>2021-06-19T09:21:35Z</time>
      </trkpt>
      <trkpt lat="42.68875" lon="0.66785">
        <ele>2397</ele>
        <time>2021-06-19T09:21:40Z</time>
      </trkpt>
      <trkpt lat="42.68877" lon="0.66813">
        <ele>2396</ele>
        <time>2021-06-19T09:21:45Z</time>
      </trkpt>
      <trkpt lat="42.68874" lon="0.66862">
        <ele>2391</ele>
        <time>2021-06-19T09:21:54Z</time>
      </trkpt>
      <trkpt lat="42.68881" lon="0.66948">
        <ele>2385</ele>
        <time>2021-06-19T09:22:08Z</time>
      </trkpt>
      <trkpt lat="42.68874" lon="0.67021">
        <ele>2375</ele>
        <time>2021-06-19T09:22:21Z</time>
      </trkpt>
      <trkpt lat="42.68868" lon="0.67058">
        <ele>2366</ele>
        <time>2021-06-19T09:22:28Z</time>
      </trkpt>
      <trkpt lat="42.68855" lon="0.67108">
        <ele>2349</ele>
        <time>2021-06-19T09:22:37Z</time>
      </trkpt>
      <trkpt lat="42.68851" lon="0.67144">
        <ele>2338</ele>
        <time>2021-06-19T09:22:43Z</time>
      </trkpt>
      <trkpt lat="42.68854" lon="0.67161">
        <ele>2335</ele>
        <time>2021-06-19T09:22:46Z</time>
      </trkpt>
      <trkpt lat="42.68854" lon="0.6723">
        <ele>2313</ele>
        <time>2021-06-19T09:22:58Z</time>
      </trkpt>
      <trkpt lat="42.68841" lon="0.67294">
        <ele>2286</ele>
        <time>2021-06-19T09:23:09Z</time>
      </trkpt>
      <trkpt lat="42.68842" lon="0.67359">
        <ele>2271</ele>
        <time>2021-06-19T09:23:20Z</time>
      </trkpt>
      <trkpt lat="42.6884" lon="0.67384">
        <ele>2265</ele>
        <time>2021-06-19T09:23:25Z</time>
      </trkpt>
      <trkpt lat="42.68834" lon="0.674">
        <ele>2257</ele>
        <time>2021-06-19T09:23:28Z</time>
      </trkpt>
      <trkpt lat="42.68816" lon="0.67426">
        <ele>2258</ele>
        <time>2021-06-19T09:23:34Z</time>
      </trkpt>
      <trkpt lat="42.68806" lon="0.67479">
        <ele>2250</ele>
        <time>2021-06-19T09:23:43Z</time>
      </trkpt>
      <trkpt lat="42.68779" lon="0.67557">
        <ele>2227</ele>
        <time>2021-06-19T09:23:58Z</time>
      </trkpt>
      <trkpt lat="42.68768" lon="0.67646">
        <ele>2194</ele>
        <time>2021-06-19T09:24:14Z</time>
      </trkpt>
      <trkpt lat="42.68752" lon="0.67693">
        <ele>2173</ele>
        <time>2021-06-19T09:24:22Z</time>
      </trkpt>
      <trkpt lat="42.68749" lon="0.67727">
        <ele>2169</ele>
        <time>2021-06-19T09:24:28Z</time>
      </trkpt>
      <trkpt lat="42.68749" lon="0.67763">
        <ele>2166</ele>
        <time>2021-06-19T09:24:35Z</time>
      </trkpt>
      <trkpt lat="42.68739" lon="0.67796">
        <ele>2167</ele>
        <time>2021-06-19T09:24:41Z</time>
      </trkpt>
      <trkpt lat="42.68738" lon="0.67814">
        <ele>2166</ele>
        <time>2021-06-19T09:24:44Z</time>
      </trkpt>
      <trkpt lat="42.68743" lon="0.67848">
        <ele>2162</ele>
        <time>2021-06-19T09:24:50Z</time>
      </trkpt>
      <trkpt lat="42.68732" lon="0.6788">
        <ele>2156</ele>
        <time>2021-06-19T09:24:56Z</time>
      </trkpt>
      <trkpt lat="42.68721" lon="0.67931">
        <ele>2145</ele>
        <time>2021-06-19T09:25:05Z</time>
      </trkpt>
      <trkpt lat="42.68702" lon="0.67979">
        <ele>2131</ele>
        <time>2021-06-19T09:25:14Z</time>
      </trkpt>
      <trkpt lat="42.68697" lon="0.68033">
        <ele>2118</ele>
        <time>2021-06-19T09:25:24Z</time>
      </trkpt>
      <trkpt lat="42.68679" lon="0.681">
        <ele>2095</ele>
        <time>2021-06-19T09:25:36Z</time>
      </trkpt>
      <trkpt lat="42.6868" lon="0.68148">
        <ele>2082</ele>
        <time>2021-06-19T09:25:44Z</time>
      </trkpt>
      <trkpt lat="42.68674" lon="0.68151">
        <ele>2078</ele>
        <time>2021-06-19T09:25:46Z</time>
      </trkpt>
      <trkpt lat="42.68673" lon="0.68155">
        <ele>2077</ele>
        <time>2021-06-19T09:25:46Z</time>
      </trkpt>
      <trkpt lat="42.6868" lon="0.68165">
        <ele>2078</ele>
        <time>2021-06-19T09:25:49Z</time>
      </trkpt>
      <trkpt lat="42.68679" lon="0.68169">
        <ele>2076</ele>
        <time>2021-06-19T09:25:49Z</time>
      </trkpt>
      <trkpt lat="42.68673" lon="0.68173">
        <ele>2071</ele>
        <time>2021-06-19T09:25:51Z</time>
      </trkpt>
      <trkpt lat="42.68678" lon="0.68185">
        <ele>2071</ele>
        <time>2021-06-19T09:25:53Z</time>
      </trkpt>
      <trkpt lat="42.68675" lon="0.68186">
        <ele>2069</ele>
        <time>2021-06-19T09:25:54Z</time>
      </trkpt>
      <trkpt lat="42.68671" lon="0.6822">
        <ele>2055</ele>
        <time>2021-06-19T09:26:00Z</time>
      </trkpt>
      <trkpt lat="42.68668" lon="0.68221">
        <ele>2053</ele>
        <time>2021-06-19T09:26:01Z</time>
      </trkpt>
      <trkpt lat="42.68655" lon="0.68212">
        <ele>2057</ele>
        <time>2021-06-19T09:26:04Z</time>
      </trkpt>
      <trkpt lat="42.68654" lon="0.68216">
        <ele>2055</ele>
        <time>2021-06-19T09:26:05Z</time>
      </trkpt>
      <trkpt lat="42.68662" lon="0.68242">
        <ele>2046</ele>
        <time>2021-06-19T09:26:10Z</time>
      </trkpt>
      <trkpt lat="42.68661" lon="0.68251">
        <ele>2043</ele>
        <time>2021-06-19T09:26:11Z</time>
      </trkpt>
      <trkpt lat="42.68654" lon="0.6826">
        <ele>2041</ele>
        <time>2021-06-19T09:26:13Z</time>
      </trkpt>
      <trkpt lat="42.68638" lon="0.68272">
        <ele>2037</ele>
        <time>2021-06-19T09:26:18Z</time>
      </trkpt>
      <trkpt lat="42.68636" lon="0.68326">
        <ele>2020</ele>
        <time>2021-06-19T09:26:27Z</time>
      </trkpt>
      <trkpt lat="42.68642" lon="0.68361">
        <ele>2011</ele>
        <time>2021-06-19T09:26:33Z</time>
      </trkpt>
      <trkpt lat="42.68645" lon="0.6837">
        <ele>2009</ele>
        <time>2021-06-19T09:26:35Z</time>
      </trkpt>
      <trkpt lat="42.6865" lon="0.68375">
        <ele>2009</ele>
        <time>2021-06-19T09:26:36Z</time>
      </trkpt>
      <trkpt lat="42.68642" lon="0.68424">
        <ele>1993</ele>
        <time>2021-06-19T09:26:45Z</time>
      </trkpt>
      <trkpt lat="42.68642" lon="0.68454">
        <ele>1987</ele>
        <time>2021-06-19T09:26:50Z</time>
      </trkpt>
      <trkpt lat="42.68638" lon="0.68482">
        <ele>1980</ele>
        <time>2021-06-19T09:26:55Z</time>
      </trkpt>
      <trkpt lat="42.68617" lon="0.6857">
        <ele>1953</ele>
        <time>2021-06-19T09:27:11Z</time>
      </trkpt>
      <trkpt lat="42.68589" lon="0.68634">
        <ele>1933</ele>
        <time>2021-06-19T09:27:24Z</time>
      </trkpt>
      <trkpt lat="42.68583" lon="0.68689">
        <ele>1924</ele>
        <time>2021-06-19T09:27:33Z</time>
      </trkpt>
      <trkpt lat="42.68565" lon="0.68737">
        <ele>1916</ele>
        <time>2021-06-19T09:27:42Z</time>
      </trkpt>
      <trkpt lat="42.68548" lon="0.68805">
        <ele>1905</ele>
        <time>2021-06-19T09:27:55Z</time>
      </trkpt>
      <trkpt lat="42.68525" lon="0.68856">
        <ele>1896</ele>
        <time>2021-06-19T09:28:05Z</time>
      </trkpt>
      <trkpt lat="42.68503" lon="0.68892">
        <ele>1886</ele>
        <time>2021-06-19T09:28:13Z</time>
      </trkpt>
      <trkpt lat="42.68489" lon="0.68933">
        <ele>1881</ele>
        <time>2021-06-19T09:28:21Z</time>
      </trkpt>
      <trkpt lat="42.68488" lon="0.68951">
        <ele>1880</ele>
        <time>2021-06-19T09:28:24Z</time>
      </trkpt>
      <trkpt lat="42.68492" lon="0.68977">
        <ele>1878</ele>
        <time>2021-06-19T09:28:28Z</time>
      </trkpt>
      <trkpt lat="42.68484" lon="0.69003">
        <ele>1875</ele>
        <time>2021-06-19T09:28:33Z</time>
      </trkpt>
      <trkpt lat="42.68463" lon="0.69041">
        <ele>1870</ele>
        <time>2021-06-19T09:28:41Z</time>
      </trkpt>
      <trkpt lat="42.68438" lon="0.69094">
        <ele>1858</ele>
        <time>2021-06-19T09:28:52Z</time>
      </trkpt>
      <trkpt lat="42.68412" lon="0.69183">
        <ele>1846</ele>
        <time>2021-06-19T09:29:09Z</time>
      </trkpt>
      <trkpt lat="42.68398" lon="0.69247">
        <ele>1841</ele>
        <time>2021-06-19T09:29:20Z</time>
      </trkpt>
      <trkpt lat="42.68391" lon="0.69339">
        <ele>1837</ele>
        <time>2021-06-19T09:29:36Z</time>
      </trkpt>
      <trkpt lat="42.68366" lon="0.69449">
        <ele>1815</ele>
        <time>2021-06-19T09:29:56Z</time>
      </trkpt>
      <trkpt lat="42.6836" lon="0.69573">
        <ele>1794</ele>
        <time>2021-06-19T09:30:17Z</time>
      </trkpt>
      <trkpt lat="42.68356" lon="0.6958">
        <ele>1791</ele>
        <time>2021-06-19T09:30:19Z</time>
      </trkpt>
      <trkpt lat="42.68317" lon="0.69617">
        <ele>1774</ele>
        <time>2021-06-19T09:30:30Z</time>
      </trkpt>
      <trkpt lat="42.68295" lon="0.69652">
        <ele>1762</ele>
        <time>2021-06-19T09:30:38Z</time>
      </trkpt>
      <trkpt lat="42.68289" lon="0.69668">
        <ele>1758</ele>
        <time>2021-06-19T09:30:41Z</time>
      </trkpt>
      <trkpt lat="42.68282" lon="0.6971">
        <ele>1746</ele>
        <time>2021-06-19T09:30:48Z</time>
      </trkpt>
      <trkpt lat="42.6828" lon="0.69746">
        <ele>1737</ele>
        <time>2021-06-19T09:30:54Z</time>
      </trkpt>
      <trkpt lat="42.68276" lon="0.69765">
        <ele>1732</ele>
        <time>2021-06-19T09:30:58Z</time>
      </trkpt>
      <trkpt lat="42.68258" lon="0.69816">
        <ele>1715</ele>
        <time>2021-06-19T09:31:07Z</time>
      </trkpt>
      <trkpt lat="42.6826" lon="0.69853">
        <ele>1709</ele>
        <time>2021-06-19T09:31:14Z</time>
      </trkpt>
      <trkpt lat="42.68257" lon="0.69861">
        <ele>1706</ele>
        <time>2021-06-19T09:31:15Z</time>
      </trkpt>
      <trkpt lat="42.68246" lon="0.70002">
        <ele>1678</ele>
        <time>2021-06-19T09:31:40Z</time>
      </trkpt>
      <trkpt lat="42.68246" lon="0.70021">
        <ele>1675</ele>
        <time>2021-06-19T09:31:43Z</time>
      </trkpt>
      <trkpt lat="42.6825" lon="0.70048">
        <ele>1672</ele>
        <time>2021-06-19T09:31:48Z</time>
      </trkpt>
      <trkpt lat="42.68238" lon="0.70091">
        <ele>1663</ele>
        <time>2021-06-19T09:31:56Z</time>
      </trkpt>
      <trkpt lat="42.68224" lon="0.70112">
        <ele>1656</ele>
        <time>2021-06-19T09:32:01Z</time>
      </trkpt>
      <trkpt lat="42.68203" lon="0.70134">
        <ele>1646</ele>
        <time>2021-06-19T09:32:07Z</time>
      </trkpt>
      <trkpt lat="42.68166" lon="0.70167">
        <ele>1626</ele>
        <time>2021-06-19T09:32:17Z</time>
      </trkpt>
      <trkpt lat="42.6816" lon="0.70168">
        <ele>1624</ele>
        <time>2021-06-19T09:32:18Z</time>
      </trkpt>
      <trkpt lat="42.68155" lon="0.70162">
        <ele>1623</ele>
        <time>2021-06-19T09:32:20Z</time>
      </trkpt>
      <trkpt lat="42.6813" lon="0.70108">
        <ele>1630</ele>
        <time>2021-06-19T09:32:31Z</time>
      </trkpt>
      <trkpt lat="42.68111" lon="0.70108">
        <ele>1628</ele>
        <time>2021-06-19T09:32:35Z</time>
      </trkpt>
      <trkpt lat="42.68069" lon="0.70125">
        <ele>1616</ele>
        <time>2021-06-19T09:32:46Z</time>
      </trkpt>
      <trkpt lat="42.68054" lon="0.70141">
        <ele>1608</ele>
        <time>2021-06-19T09:32:50Z</time>
      </trkpt>
      <trkpt lat="42.6804" lon="0.70144">
        <ele>1606</ele>
        <time>2021-06-19T09:32:53Z</time>
      </trkpt>
      <trkpt lat="42.68016" lon="0.70158">
        <ele>1598</ele>
        <time>2021-06-19T09:32:59Z</time>
      </trkpt>
      <trkpt lat="42.68011" lon="0.70164">
        <ele>1595</ele>
        <time>2021-06-19T09:33:01Z</time>
      </trkpt>
      <trkpt lat="42.68006" lon="0.70181">
        <ele>1587</ele>
        <time>2021-06-19T09:33:04Z</time>
      </trkpt>
      <trkpt lat="42.68" lon="0.70185">
        <ele>1584</ele>
        <time>2021-06-19T09:33:06Z</time>
      </trkpt>
      <trkpt lat="42.67988" lon="0.70179">
        <ele>1586</ele>
        <time>2021-06-19T09:33:09Z</time>
      </trkpt>
      <trkpt lat="42.6796" lon="0.70172">
        <ele>1585</ele>
        <time>2021-06-19T09:33:15Z</time>
      </trkpt>
      <trkpt lat="42.67953" lon="0.70174">
        <ele>1583</ele>
        <time>2021-06-19T09:33:17Z</time>
      </trkpt>
      <trkpt lat="42.67936" lon="0.70185">
        <ele>1576</ele>
        <time>2021-06-19T09:33:21Z</time>
      </trkpt>
      <trkpt lat="42.67916" lon="0.70186">
        <ele>1572</ele>
        <time>2021-06-19T09:33:26Z</time>
      </trkpt>
      <trkpt lat="42.67878" lon="0.70197">
        <ele>1564</ele>
        <time>2021-06-19T09:33:35Z</time>
      </trkpt>
      <trkpt lat="42.67874" lon="0.70204">
        <ele>1560</ele>
        <time>2021-06-19T09:33:37Z</time>
      </trkpt>
      <trkpt lat="42.67874" lon="0.70213">
        <ele>1556</ele>
        <time>2021-06-19T09:33:38Z</time>
      </trkpt>
      <trkpt lat="42.67892" lon="0.70242">
        <ele>1545</ele>
        <time>2021-06-19T09:33:45Z</time>
      </trkpt>
      <trkpt lat="42.67894" lon="0.70277">
        <ele>1532</ele>
        <time>2021-06-19T09:33:51Z</time>
      </trkpt>
      <trkpt lat="42.679" lon="0.70292">
        <ele>1527</ele>
        <time>2021-06-19T09:33:54Z</time>
      </trkpt>
      <trkpt lat="42.67918" lon="0.70317">
        <ele>1518</ele>
        <time>2021-06-19T09:34:00Z</time>
      </trkpt>
      <trkpt lat="42.6794" lon="0.70342">
        <ele>1510</ele>
        <time>2021-06-19T09:34:06Z</time>
      </trkpt>
      <trkpt lat="42.67944" lon="0.7035">
        <ele>1508</ele>
        <time>2021-06-19T09:34:08Z</time>
      </trkpt>
      <trkpt lat="42.67941" lon="0.70357">
        <ele>1505</ele>
        <time>2021-06-19T09:34:09Z</time>
      </trkpt>
      <trkpt lat="42.67915" lon="0.70362">
        <ele>1503</ele>
        <time>2021-06-19T09:34:16Z</time>
      </trkpt>
      <trkpt lat="42.67885" lon="0.70388">
        <ele>1492</ele>
        <time>2021-06-19T09:34:24Z</time>
      </trkpt>
      <trkpt lat="42.67862" lon="0.70436">
        <ele>1477</ele>
        <time>2021-06-19T09:34:34Z</time>
      </trkpt>
      <trkpt lat="42.67859" lon="0.7045">
        <ele>1474</ele>
        <time>2021-06-19T09:34:36Z</time>
      </trkpt>
      <trkpt lat="42.67844" lon="0.70459">
        <ele>1472</ele>
        <time>2021-06-19T09:34:40Z</time>
      </trkpt>
      <trkpt lat="42.67839" lon="0.70472">
        <ele>1469</ele>
        <time>2021-06-19T09:34:43Z</time>
      </trkpt>
      <trkpt lat="42.67845" lon="0.70484">
        <ele>1468</ele>
        <time>2021-06-19T09:34:45Z</time>
      </trkpt>
      <trkpt lat="42.67848" lon="0.70542">
        <ele>1466</ele>
        <time>2021-06-19T09:34:55Z</time>
      </trkpt>
      <trkpt lat="42.6783" lon="0.70545">
        <ele>1467</ele>
        <time>2021-06-19T09:34:59Z</time>
      </trkpt>
      <trkpt lat="42.67809" lon="0.70553">
        <ele>1470</ele>
        <time>2021-06-19T09:35:04Z</time>
      </trkpt>
      <trkpt lat="42.67785" lon="0.70576">
        <ele>1474</ele>
        <time>2021-06-19T09:35:11Z</time>
      </trkpt>
      <trkpt lat="42.67777" lon="0.70587">
        <ele>1476</ele>
        <time>2021-06-19T09:35:14Z</time>
      </trkpt>
      <trkpt lat="42.67774" lon="0.70598">
        <ele>1477</ele>
        <time>2021-06-19T09:35:16Z</time>
      </trkpt>
      <trkpt lat="42.67781" lon="0.70615">
        <ele>1479</ele>
        <time>2021-06-19T09:35:19Z</time>
      </trkpt>
      <trkpt lat="42.67798" lon="0.70635">
        <ele>1479</ele>
        <time>2021-06-19T09:35:25Z</time>
      </trkpt>
      <trkpt lat="42.6783" lon="0.7068">
        <ele>1478</ele>
        <time>2021-06-19T09:35:35Z</time>
      </trkpt>
      <trkpt lat="42.67792" lon="0.70624">
        <ele>1478</ele>
        <time>2021-06-19T09:35:48Z</time>
      </trkpt>
      <trkpt lat="42.67777" lon="0.70608">
        <ele>1478</ele>
        <time>2021-06-19T09:35:53Z</time>
      </trkpt>
      <trkpt lat="42.67775" lon="0.70601">
        <ele>1478</ele>
        <time>2021-06-19T09:35:54Z</time>
      </trkpt>
      <trkpt lat="42.67779" lon="0.70584">
        <ele>1475</ele>
        <time>2021-06-19T09:35:57Z</time>
      </trkpt>
      <trkpt lat="42.67797" lon="0.70565">
        <ele>1472</ele>
        <time>2021-06-19T09:36:02Z</time>
      </trkpt>
      <trkpt lat="42.6781" lon="0.70556">
        <ele>1470</ele>
        <time>2021-06-19T09:36:06Z</time>
      </trkpt>
      <trkpt lat="42.67842" lon="0.70543">
        <ele>1466</ele>
        <time>2021-06-19T09:36:14Z</time>
      </trkpt>
      <trkpt lat="42.67848" lon="0.70543">
        <ele>1466</ele>
        <time>2021-06-19T09:36:15Z</time>
      </trkpt>
      <trkpt lat="42.67884" lon="0.70559">
        <ele>1465</ele>
        <time>2021-06-19T09:36:24Z</time>
      </trkpt>
      <trkpt lat="42.67894" lon="0.70558">
        <ele>1465</ele>
        <time>2021-06-19T09:36:26Z</time>
      </trkpt>
      <trkpt lat="42.67928" lon="0.70538">
        <ele>1464</ele>
        <time>2021-06-19T09:36:35Z</time>
      </trkpt>
      <trkpt lat="42.67934" lon="0.70538">
        <ele>1464</ele>
        <time>2021-06-19T09:36:36Z</time>
      </trkpt>
      <trkpt lat="42.67946" lon="0.70561">
        <ele>1461</ele>
        <time>2021-06-19T09:36:41Z</time>
      </trkpt>
      <trkpt lat="42.67969" lon="0.70581">
        <ele>1455</ele>
        <time>2021-06-19T09:36:48Z</time>
      </trkpt>
      <trkpt lat="42.6798" lon="0.70584">
        <ele>1453</ele>
        <time>2021-06-19T09:36:50Z</time>
      </trkpt>
      <trkpt lat="42.68" lon="0.7057">
        <ele>1453</ele>
        <time>2021-06-19T09:36:55Z</time>
      </trkpt>
      <trkpt lat="42.68027" lon="0.70567">
        <ele>1450</ele>
        <time>2021-06-19T09:37:02Z</time>
      </trkpt>
      <trkpt lat="42.68033" lon="0.70564">
        <ele>1450</ele>
        <time>2021-06-19T09:37:03Z</time>
      </trkpt>
      <trkpt lat="42.68051" lon="0.70535">
        <ele>1456</ele>
        <time>2021-06-19T09:37:10Z</time>
      </trkpt>
      <trkpt lat="42.68061" lon="0.70527">
        <ele>1458</ele>
        <time>2021-06-19T09:37:12Z</time>
      </trkpt>
      <trkpt lat="42.68073" lon="0.70526">
        <ele>1457</ele>
        <time>2021-06-19T09:37:15Z</time>
      </trkpt>
      <trkpt lat="42.6813" lon="0.7056">
        <ele>1453</ele>
        <time>2021-06-19T09:37:30Z</time>
      </trkpt>
      <trkpt lat="42.68147" lon="0.70581">
        <ele>1447</ele>
        <time>2021-06-19T09:37:35Z</time>
      </trkpt>
      <trkpt lat="42.68175" lon="0.70624">
        <ele>1438</ele>
        <time>2021-06-19T09:37:45Z</time>
      </trkpt>
      <trkpt lat="42.68214" lon="0.70695">
        <ele>1426</ele>
        <time>2021-06-19T09:38:00Z</time>
      </trkpt>
      <trkpt lat="42.68234" lon="0.70723">
        <ele>1420</ele>
        <time>2021-06-19T09:38:07Z</time>
      </trkpt>
      <trkpt lat="42.68269" lon="0.7075">
        <ele>1409</ele>
        <time>2021-06-19T09:38:16Z</time>
      </trkpt>
      <trkpt lat="42.6828" lon="0.70764">
        <ele>1404</ele>
        <time>2021-06-19T09:38:20Z</time>
      </trkpt>
      <trkpt lat="42.68288" lon="0.70766">
        <ele>1403</ele>
        <time>2021-06-19T09:38:22Z</time>
      </trkpt>
      <trkpt lat="42.68329" lon="0.70743">
        <ele>1408</ele>
        <time>2021-06-19T09:38:32Z</time>
      </trkpt>
      <trkpt lat="42.68324" lon="0.7076">
        <ele>1403</ele>
        <time>2021-06-19T09:38:35Z</time>
      </trkpt>
      <trkpt lat="42.68339" lon="0.70765">
        <ele>1400</ele>
        <time>2021-06-19T09:38:39Z</time>
      </trkpt>
      <trkpt lat="42.68343" lon="0.70774">
        <ele>1396</ele>
        <time>2021-06-19T09:38:41Z</time>
      </trkpt>
      <trkpt lat="42.68338" lon="0.70794">
        <ele>1392</ele>
        <time>2021-06-19T09:38:44Z</time>
      </trkpt>
      <trkpt lat="42.68337" lon="0.70827">
        <ele>1384</ele>
        <time>2021-06-19T09:38:50Z</time>
      </trkpt>
      <trkpt lat="42.6834" lon="0.70831">
        <ele>1382</ele>
        <time>2021-06-19T09:38:51Z</time>
      </trkpt>
      <trkpt lat="42.68346" lon="0.70831">
        <ele>1380</ele>
        <time>2021-06-19T09:38:52Z</time>
      </trkpt>
      <trkpt lat="42.68352" lon="0.70827">
        <ele>1379</ele>
        <time>2021-06-19T09:38:54Z</time>
      </trkpt>
      <trkpt lat="42.68362" lon="0.70828">
        <ele>1376</ele>
        <time>2021-06-19T09:38:56Z</time>
      </trkpt>
      <trkpt lat="42.68374" lon="0.70864">
        <ele>1366</ele>
        <time>2021-06-19T09:39:03Z</time>
      </trkpt>
      <trkpt lat="42.68381" lon="0.70864">
        <ele>1364</ele>
        <time>2021-06-19T09:39:05Z</time>
      </trkpt>
      <trkpt lat="42.68397" lon="0.7085">
        <ele>1360</ele>
        <time>2021-06-19T09:39:09Z</time>
      </trkpt>
      <trkpt lat="42.68408" lon="0.70849">
        <ele>1357</ele>
        <time>2021-06-19T09:39:12Z</time>
      </trkpt>
      <trkpt lat="42.68416" lon="0.70852">
        <ele>1354</ele>
        <time>2021-06-19T09:39:14Z</time>
      </trkpt>
      <trkpt lat="42.68431" lon="0.70865">
        <ele>1349</ele>
        <time>2021-06-19T09:39:18Z</time>
      </trkpt>
      <trkpt lat="42.68444" lon="0.70893">
        <ele>1342</ele>
        <time>2021-06-19T09:39:23Z</time>
      </trkpt>
      <trkpt lat="42.68444" lon="0.70933">
        <ele>1339</ele>
        <time>2021-06-19T09:39:30Z</time>
      </trkpt>
      <trkpt lat="42.68446" lon="0.70937">
        <ele>1339</ele>
        <time>2021-06-19T09:39:31Z</time>
      </trkpt>
      <trkpt lat="42.68452" lon="0.7094">
        <ele>1337</ele>
        <time>2021-06-19T09:39:33Z</time>
      </trkpt>
      <trkpt lat="42.68511" lon="0.70921">
        <ele>1321</ele>
        <time>2021-06-19T09:39:47Z</time>
      </trkpt>
      <trkpt lat="42.68568" lon="0.70922">
        <ele>1320</ele>
        <time>2021-06-19T09:40:00Z</time>
      </trkpt>
      <trkpt lat="42.68585" lon="0.70915">
        <ele>1321</ele>
        <time>2021-06-19T09:40:04Z</time>
      </trkpt>
      <trkpt lat="42.68631" lon="0.70912">
        <ele>1322</ele>
        <time>2021-06-19T09:40:15Z</time>
      </trkpt>
      <trkpt lat="42.68676" lon="0.70901">
        <ele>1323</ele>
        <time>2021-06-19T09:40:26Z</time>
      </trkpt>
      <trkpt lat="42.68768" lon="0.70901">
        <ele>1313</ele>
        <time>2021-06-19T09:40:47Z</time>
      </trkpt>
      <trkpt lat="42.68832" lon="0.70894">
        <ele>1303</ele>
        <time>2021-06-19T09:41:02Z</time>
      </trkpt>
      <trkpt lat="42.68858" lon="0.70879">
        <ele>1296</ele>
        <time>2021-06-19T09:41:09Z</time>
      </trkpt>
      <trkpt lat="42.68875" lon="0.70857">
        <ele>1294</ele>
        <time>2021-06-19T09:41:14Z</time>
      </trkpt>
      <trkpt lat="42.68881" lon="0.70853">
        <ele>1293</ele>
        <time>2021-06-19T09:41:16Z</time>
      </trkpt>
      <trkpt lat="42.68922" lon="0.70844">
        <ele>1281</ele>
        <time>2021-06-19T09:41:26Z</time>
      </trkpt>
      <trkpt lat="42.68995" lon="0.70803">
        <ele>1286</ele>
        <time>2021-06-19T09:41:44Z</time>
      </trkpt>
      <trkpt lat="42.69021" lon="0.70785">
        <ele>1287</ele>
        <time>2021-06-19T09:41:51Z</time>
      </trkpt>
      <trkpt lat="42.69039" lon="0.70769">
        <ele>1290</ele>
        <time>2021-06-19T09:41:56Z</time>
      </trkpt>
      <trkpt lat="42.69051" lon="0.70766">
        <ele>1289</ele>
        <time>2021-06-19T09:41:59Z</time>
      </trkpt>
      <trkpt lat="42.6909" lon="0.70747">
        <ele>1291</ele>
        <time>2021-06-19T09:42:08Z</time>
      </trkpt>
      <trkpt lat="42.69109" lon="0.70729">
        <ele>1296</ele>
        <time>2021-06-19T09:42:14Z</time>
      </trkpt>
      <trkpt lat="42.69126" lon="0.70722">
        <ele>1297</ele>
        <time>2021-06-19T09:42:18Z</time>
      </trkpt>
      <trkpt lat="42.69189" lon="0.70725">
        <ele>1291</ele>
        <time>2021-06-19T09:42:33Z</time>
      </trkpt>
      <trkpt lat="42.69225" lon="0.70747">
        <ele>1282</ele>
        <time>2021-06-19T09:42:42Z</time>
      </trkpt>
      <trkpt lat="42.6924" lon="0.7075">
        <ele>1281</ele>
        <time>2021-06-19T09:42:45Z</time>
      </trkpt>
      <trkpt lat="42.69254" lon="0.70749">
        <ele>1281</ele>
        <time>2021-06-19T09:42:49Z</time>
      </trkpt>
      <trkpt lat="42.69295" lon="0.70733">
        <ele>1279</ele>
        <time>2021-06-19T09:42:59Z</time>
      </trkpt>
      <trkpt lat="42.69328" lon="0.70735">
        <ele>1271</ele>
        <time>2021-06-19T09:43:06Z</time>
      </trkpt>
      <trkpt lat="42.69353" lon="0.70751">
        <ele>1258</ele>
        <time>2021-06-19T09:43:13Z</time>
      </trkpt>
      <trkpt lat="42.69378" lon="0.70752">
        <ele>1251</ele>
        <time>2021-06-19T09:43:19Z</time>
      </trkpt>
      <trkpt lat="42.69389" lon="0.70747">
        <ele>1251</ele>
        <time>2021-06-19T09:43:21Z</time>
      </trkpt>
      <trkpt lat="42.6941" lon="0.70744">
        <ele>1247</ele>
        <time>2021-06-19T09:43:26Z</time>
      </trkpt>
      <trkpt lat="42.6943" lon="0.70752">
        <ele>1240</ele>
        <time>2021-06-19T09:43:31Z</time>
      </trkpt>
      <trkpt lat="42.69439" lon="0.70753">
        <ele>1239</ele>
        <time>2021-06-19T09:43:33Z</time>
      </trkpt>
      <trkpt lat="42.69461" lon="0.70766">
        <ele>1232</ele>
        <time>2021-06-19T09:43:39Z</time>
      </trkpt>
      <trkpt lat="42.69485" lon="0.70775">
        <ele>1226</ele>
        <time>2021-06-19T09:43:45Z</time>
      </trkpt>
      <trkpt lat="42.69499" lon="0.70788">
        <ele>1221</ele>
        <time>2021-06-19T09:43:49Z</time>
      </trkpt>
      <trkpt lat="42.69517" lon="0.70812">
        <ele>1214</ele>
        <time>2021-06-19T09:43:54Z</time>
      </trkpt>
      <trkpt lat="42.69535" lon="0.70845">
        <ele>1207</ele>
        <time>2021-06-19T09:44:02Z</time>
      </trkpt>
      <trkpt lat="42.69551" lon="0.70863">
        <ele>1204</ele>
        <time>2021-06-19T09:44:06Z</time>
      </trkpt>
      <trkpt lat="42.6961" lon="0.70898">
        <ele>1199</ele>
        <time>2021-06-19T09:44:21Z</time>
      </trkpt>
      <trkpt lat="42.69654" lon="0.709">
        <ele>1203</ele>
        <time>2021-06-19T09:44:32Z</time>
      </trkpt>
      <trkpt lat="42.69665" lon="0.70882">
        <ele>1208</ele>
        <time>2021-06-19T09:44:36Z</time>
      </trkpt>
      <trkpt lat="42.69674" lon="0.70886">
        <ele>1207</ele>
        <time>2021-06-19T09:44:38Z</time>
      </trkpt>
      <trkpt lat="42.69681" lon="0.70885">
        <ele>1208</ele>
        <time>2021-06-19T09:44:40Z</time>
      </trkpt>
      <trkpt lat="42.69689" lon="0.70867">
        <ele>1212</ele>
        <time>2021-06-19T09:44:43Z</time>
      </trkpt>
      <trkpt lat="42.69694" lon="0.70867">
        <ele>1212</ele>
        <time>2021-06-19T09:44:44Z</time>
      </trkpt>
      <trkpt lat="42.69712" lon="0.70856">
        <ele>1214</ele>
        <time>2021-06-19T09:44:49Z</time>
      </trkpt>
      <trkpt lat="42.69763" lon="0.70849">
        <ele>1216</ele>
        <time>2021-06-19T09:45:01Z</time>
      </trkpt>
      <trkpt lat="42.69815" lon="0.70854">
        <ele>1218</ele>
        <time>2021-06-19T09:45:13Z</time>
      </trkpt>
      <trkpt lat="42.69818" lon="0.70852">
        <ele>1219</ele>
        <time>2021-06-19T09:45:14Z</time>
      </trkpt>
      <trkpt lat="42.69864" lon="0.70908">
        <ele>1207</ele>
        <time>2021-06-19T09:45:28Z</time>
      </trkpt>
      <trkpt lat="42.69892" lon="0.70924">
        <ele>1205</ele>
        <time>2021-06-19T09:45:35Z</time>
      </trkpt>
      <trkpt lat="42.69925" lon="0.70964">
        <ele>1196</ele>
        <time>2021-06-19T09:45:46Z</time>
      </trkpt>
      <trkpt lat="42.69934" lon="0.70969">
        <ele>1196</ele>
        <time>2021-06-19T09:45:48Z</time>
      </trkpt>
      <trkpt lat="42.69973" lon="0.7098">
        <ele>1199</ele>
        <time>2021-06-19T09:45:57Z</time>
      </trkpt>
      <trkpt lat="42.69982" lon="0.70986">
        <ele>1199</ele>
        <time>2021-06-19T09:46:00Z</time>
      </trkpt>
      <trkpt lat="42.70006" lon="0.71015">
        <ele>1193</ele>
        <time>2021-06-19T09:46:07Z</time>
      </trkpt>
      <trkpt lat="42.70033" lon="0.71053">
        <ele>1184</ele>
        <time>2021-06-19T09:46:16Z</time>
      </trkpt>
      <trkpt lat="42.70061" lon="0.71075">
        <ele>1180</ele>
        <time>2021-06-19T09:46:24Z</time>
      </trkpt>
      <trkpt lat="42.70107" lon="0.71105">
        <ele>1179</ele>
        <time>2021-06-19T09:46:36Z</time>
      </trkpt>
      <trkpt lat="42.70128" lon="0.71123">
        <ele>1175</ele>
        <time>2021-06-19T09:46:41Z</time>
      </trkpt>
      <trkpt lat="42.70157" lon="0.71129">
        <ele>1177</ele>
        <time>2021-06-19T09:46:48Z</time>
      </trkpt>
      <trkpt lat="42.70193" lon="0.71154">
        <ele>1167</ele>
        <time>2021-06-19T09:46:58Z</time>
      </trkpt>
      <trkpt lat="42.7023" lon="0.71194">
        <ele>1156</ele>
        <time>2021-06-19T09:47:09Z</time>
      </trkpt>
      <trkpt lat="42.7025" lon="0.71208">
        <ele>1154</ele>
        <time>2021-06-19T09:47:14Z</time>
      </trkpt>
      <trkpt lat="42.70255" lon="0.71208">
        <ele>1154</ele>
        <time>2021-06-19T09:47:15Z</time>
      </trkpt>
      <trkpt lat="42.70274" lon="0.71198">
        <ele>1158</ele>
        <time>2021-06-19T09:47:20Z</time>
      </trkpt>
      <trkpt lat="42.70312" lon="0.71192">
        <ele>1163</ele>
        <time>2021-06-19T09:47:29Z</time>
      </trkpt>
      <trkpt lat="42.70397" lon="0.71233">
        <ele>1151</ele>
        <time>2021-06-19T09:47:50Z</time>
      </trkpt>
      <trkpt lat="42.7044" lon="0.71244">
        <ele>1148</ele>
        <time>2021-06-19T09:48:00Z</time>
      </trkpt>
      <trkpt lat="42.70474" lon="0.71244">
        <ele>1153</ele>
        <time>2021-06-19T09:48:08Z</time>
      </trkpt>
      <trkpt lat="42.7055" lon="0.71314">
        <ele>1137</ele>
        <time>2021-06-19T09:48:30Z</time>
      </trkpt>
      <trkpt lat="42.70595" lon="0.71345">
        <ele>1133</ele>
        <time>2021-06-19T09:48:41Z</time>
      </trkpt>
      <trkpt lat="42.70627" lon="0.71359">
        <ele>1140</ele>
        <time>2021-06-19T09:48:49Z</time>
      </trkpt>
      <trkpt lat="42.70662" lon="0.71385">
        <ele>1135</ele>
        <time>2021-06-19T09:48:58Z</time>
      </trkpt>
      <trkpt lat="42.70687" lon="0.71429">
        <ele>1124</ele>
        <time>2021-06-19T09:49:08Z</time>
      </trkpt>
      <trkpt lat="42.70707" lon="0.71458">
        <ele>1125</ele>
        <time>2021-06-19T09:49:15Z</time>
      </trkpt>
      <trkpt lat="42.70754" lon="0.71548">
        <ele>1105</ele>
        <time>2021-06-19T09:49:34Z</time>
      </trkpt>
      <trkpt lat="42.70779" lon="0.71578">
        <ele>1105</ele>
        <time>2021-06-19T09:49:42Z</time>
      </trkpt>
      <trkpt lat="42.708" lon="0.71608">
        <ele>1106</ele>
        <time>2021-06-19T09:49:49Z</time>
      </trkpt>
      <trkpt lat="42.70833" lon="0.71637">
        <ele>1101</ele>
        <time>2021-06-19T09:49:58Z</time>
      </trkpt>
      <trkpt lat="42.70874" lon="0.71715">
        <ele>1092</ele>
        <time>2021-06-19T09:50:14Z</time>
      </trkpt>
      <trkpt lat="42.7089" lon="0.7173">
        <ele>1089</ele>
        <time>2021-06-19T09:50:19Z</time>
      </trkpt>
      <trkpt lat="42.70927" lon="0.71755">
        <ele>1081</ele>
        <time>2021-06-19T09:50:28Z</time>
      </trkpt>
      <trkpt lat="42.70964" lon="0.71808">
        <ele>1075</ele>
        <time>2021-06-19T09:50:41Z</time>
      </trkpt>
      <trkpt lat="42.70973" lon="0.71815">
        <ele>1073</ele>
        <time>2021-06-19T09:50:43Z</time>
      </trkpt>
      <trkpt lat="42.71048" lon="0.71861">
        <ele>1070</ele>
        <time>2021-06-19T09:51:03Z</time>
      </trkpt>
      <trkpt lat="42.71054" lon="0.71864">
        <ele>1070</ele>
        <time>2021-06-19T09:51:04Z</time>
      </trkpt>
      <trkpt lat="42.71077" lon="0.71868">
        <ele>1071</ele>
        <time>2021-06-19T09:51:10Z</time>
      </trkpt>
      <trkpt lat="42.71095" lon="0.71876">
        <ele>1071</ele>
        <time>2021-06-19T09:51:14Z</time>
      </trkpt>
      <trkpt lat="42.71208" lon="0.71935">
        <ele>1070</ele>
        <time>2021-06-19T09:51:42Z</time>
      </trkpt>
      <trkpt lat="42.71233" lon="0.71955">
        <ele>1070</ele>
        <time>2021-06-19T09:51:49Z</time>
      </trkpt>
      <trkpt lat="42.71279" lon="0.71998">
        <ele>1065</ele>
        <time>2021-06-19T09:52:02Z</time>
      </trkpt>
      <trkpt lat="42.71294" lon="0.72016">
        <ele>1066</ele>
        <time>2021-06-19T09:52:07Z</time>
      </trkpt>
      <trkpt lat="42.71309" lon="0.72046">
        <ele>1066</ele>
        <time>2021-06-19T09:52:13Z</time>
      </trkpt>
      <trkpt lat="42.71321" lon="0.72079">
        <ele>1062</ele>
        <time>2021-06-19T09:52:19Z</time>
      </trkpt>
      <trkpt lat="42.71327" lon="0.72087">
        <ele>1061</ele>
        <time>2021-06-19T09:52:21Z</time>
      </trkpt>
      <trkpt lat="42.71339" lon="0.72092">
        <ele>1061</ele>
        <time>2021-06-19T09:52:24Z</time>
      </trkpt>
      <trkpt lat="42.71411" lon="0.72097">
        <ele>1056</ele>
        <time>2021-06-19T09:52:41Z</time>
      </trkpt>
      <trkpt lat="42.71428" lon="0.72102">
        <ele>1057</ele>
        <time>2021-06-19T09:52:45Z</time>
      </trkpt>
      <trkpt lat="42.71492" lon="0.72151">
        <ele>1048</ele>
        <time>2021-06-19T09:53:02Z</time>
      </trkpt>
      <trkpt lat="42.71507" lon="0.72156">
        <ele>1045</ele>
        <time>2021-06-19T09:53:06Z</time>
      </trkpt>
      <trkpt lat="42.71598" lon="0.72147">
        <ele>1044</ele>
        <time>2021-06-19T09:53:27Z</time>
      </trkpt>
      <trkpt lat="42.71611" lon="0.7215">
        <ele>1044</ele>
        <time>2021-06-19T09:53:30Z</time>
      </trkpt>
      <trkpt lat="42.7164" lon="0.72169">
        <ele>1039</ele>
        <time>2021-06-19T09:53:38Z</time>
      </trkpt>
      <trkpt lat="42.71663" lon="0.72211">
        <ele>1032</ele>
        <time>2021-06-19T09:53:47Z</time>
      </trkpt>
      <trkpt lat="42.71702" lon="0.7227">
        <ele>1028</ele>
        <time>2021-06-19T09:54:00Z</time>
      </trkpt>
      <trkpt lat="42.71717" lon="0.72284">
        <ele>1028</ele>
        <time>2021-06-19T09:54:05Z</time>
      </trkpt>
      <trkpt lat="42.71781" lon="0.72315">
        <ele>1026</ele>
        <time>2021-06-19T09:54:20Z</time>
      </trkpt>
      <trkpt lat="42.71833" lon="0.72363">
        <ele>1024</ele>
        <time>2021-06-19T09:54:35Z</time>
      </trkpt>
      <trkpt lat="42.71885" lon="0.72385">
        <ele>1016</ele>
        <time>2021-06-19T09:54:48Z</time>
      </trkpt>
      <trkpt lat="42.71905" lon="0.72409">
        <ele>1009</ele>
        <time>2021-06-19T09:54:54Z</time>
      </trkpt>
      <trkpt lat="42.71915" lon="0.72416">
        <ele>1006</ele>
        <time>2021-06-19T09:54:57Z</time>
      </trkpt>
      <trkpt lat="42.71942" lon="0.72424">
        <ele>1009</ele>
        <time>2021-06-19T09:55:03Z</time>
      </trkpt>
      <trkpt lat="42.72018" lon="0.724">
        <ele>1005</ele>
        <time>2021-06-19T09:55:21Z</time>
      </trkpt>
      <trkpt lat="42.72042" lon="0.72405">
        <ele>1001</ele>
        <time>2021-06-19T09:55:27Z</time>
      </trkpt>
      <trkpt lat="42.72083" lon="0.72438">
        <ele>998</ele>
        <time>2021-06-19T09:55:38Z</time>
      </trkpt>
      <trkpt lat="42.72149" lon="0.72472">
        <ele>994</ele>
        <time>2021-06-19T09:55:55Z</time>
      </trkpt>
      <trkpt lat="42.72171" lon="0.72477">
        <ele>991</ele>
        <time>2021-06-19T09:56:00Z</time>
      </trkpt>
      <trkpt lat="42.72188" lon="0.72493">
        <ele>990</ele>
        <time>2021-06-19T09:56:05Z</time>
      </trkpt>
      <trkpt lat="42.7219" lon="0.72532">
        <ele>993</ele>
        <time>2021-06-19T09:56:11Z</time>
      </trkpt>
      <trkpt lat="42.722" lon="0.7256">
        <ele>995</ele>
        <time>2021-06-19T09:56:17Z</time>
      </trkpt>
      <trkpt lat="42.72257" lon="0.72637">
        <ele>991</ele>
        <time>2021-06-19T09:56:35Z</time>
      </trkpt>
      <trkpt lat="42.72298" lon="0.72714">
        <ele>998</ele>
        <time>2021-06-19T09:56:52Z</time>
      </trkpt>
      <trkpt lat="42.72311" lon="0.72728">
        <ele>997</ele>
        <time>2021-06-19T09:56:56Z</time>
      </trkpt>
      <trkpt lat="42.72326" lon="0.72736">
        <ele>993</ele>
        <time>2021-06-19T09:56:59Z</time>
      </trkpt>
      <trkpt lat="42.72343" lon="0.72737">
        <ele>988</ele>
        <time>2021-06-19T09:57:03Z</time>
      </trkpt>
      <trkpt lat="42.72361" lon="0.72733">
        <ele>985</ele>
        <time>2021-06-19T09:57:08Z</time>
      </trkpt>
      <trkpt lat="42.72409" lon="0.72712">
        <ele>975</ele>
        <time>2021-06-19T09:57:19Z</time>
      </trkpt>
      <trkpt lat="42.72431" lon="0.72696">
        <ele>970</ele>
        <time>2021-06-19T09:57:25Z</time>
      </trkpt>
      <trkpt lat="42.7244" lon="0.72693">
        <ele>969</ele>
        <time>2021-06-19T09:57:27Z</time>
      </trkpt>
      <trkpt lat="42.72453" lon="0.72701">
        <ele>968</ele>
        <time>2021-06-19T09:57:31Z</time>
      </trkpt>
      <trkpt lat="42.72465" lon="0.72714">
        <ele>965</ele>
        <time>2021-06-19T09:57:34Z</time>
      </trkpt>
      <trkpt lat="42.72495" lon="0.72762">
        <ele>957</ele>
        <time>2021-06-19T09:57:45Z</time>
      </trkpt>
      <trkpt lat="42.72552" lon="0.72811">
        <ele>955</ele>
        <time>2021-06-19T09:58:01Z</time>
      </trkpt>
      <trkpt lat="42.72579" lon="0.72842">
        <ele>944</ele>
        <time>2021-06-19T09:58:09Z</time>
      </trkpt>
      <trkpt lat="42.72616" lon="0.729">
        <ele>940</ele>
        <time>2021-06-19T09:58:22Z</time>
      </trkpt>
      <trkpt lat="42.72633" lon="0.72974">
        <ele>944</ele>
        <time>2021-06-19T09:58:36Z</time>
      </trkpt>
      <trkpt lat="42.72646" lon="0.73004">
        <ele>945</ele>
        <time>2021-06-19T09:58:42Z</time>
      </trkpt>
      <trkpt lat="42.72663" lon="0.73025">
        <ele>948</ele>
        <time>2021-06-19T09:58:47Z</time>
      </trkpt>
      <trkpt lat="42.72676" lon="0.73034">
        <ele>949</ele>
        <time>2021-06-19T09:58:50Z</time>
      </trkpt>
      <trkpt lat="42.72694" lon="0.73042">
        <ele>950</ele>
        <time>2021-06-19T09:58:55Z</time>
      </trkpt>
      <trkpt lat="42.72718" lon="0.73047">
        <ele>949</ele>
        <time>2021-06-19T09:59:00Z</time>
      </trkpt>
      <trkpt lat="42.72734" lon="0.73042">
        <ele>945</ele>
        <time>2021-06-19T09:59:04Z</time>
      </trkpt>
      <trkpt lat="42.72753" lon="0.7303">
        <ele>937</ele>
        <time>2021-06-19T09:59:09Z</time>
      </trkpt>
      <trkpt lat="42.7277" lon="0.73031">
        <ele>938</ele>
        <time>2021-06-19T09:59:13Z</time>
      </trkpt>
      <trkpt lat="42.72778" lon="0.73027">
        <ele>936</ele>
        <time>2021-06-19T09:59:15Z</time>
      </trkpt>
      <trkpt lat="42.72788" lon="0.73014">
        <ele>931</ele>
        <time>2021-06-19T09:59:18Z</time>
      </trkpt>
      <trkpt lat="42.72804" lon="0.72999">
        <ele>925</ele>
        <time>2021-06-19T09:59:23Z</time>
      </trkpt>
      <trkpt lat="42.72813" lon="0.72995">
        <ele>925</ele>
        <time>2021-06-19T09:59:25Z</time>
      </trkpt>
      <trkpt lat="42.7283" lon="0.72996">
        <ele>926</ele>
        <time>2021-06-19T09:59:29Z</time>
      </trkpt>
      <trkpt lat="42.72848" lon="0.73001">
        <ele>928</ele>
        <time>2021-06-19T09:59:33Z</time>
      </trkpt>
      <trkpt lat="42.72892" lon="0.73004">
        <ele>933</ele>
        <time>2021-06-19T09:59:44Z</time>
      </trkpt>
      <trkpt lat="42.72906" lon="0.72992">
        <ele>930</ele>
        <time>2021-06-19T09:59:48Z</time>
      </trkpt>
      <trkpt lat="42.7292" lon="0.72972">
        <ele>924</ele>
        <time>2021-06-19T09:59:52Z</time>
      </trkpt>
      <trkpt lat="42.72976" lon="0.7295">
        <ele>924</ele>
        <time>2021-06-19T10:00:06Z</time>
      </trkpt>
      <trkpt lat="42.72988" lon="0.72942">
        <ele>923</ele>
        <time>2021-06-19T10:00:09Z</time>
      </trkpt>
      <trkpt lat="42.72998" lon="0.7293">
        <ele>919</ele>
        <time>2021-06-19T10:00:12Z</time>
      </trkpt>
      <trkpt lat="42.73025" lon="0.72884">
        <ele>916</ele>
        <time>2021-06-19T10:00:22Z</time>
      </trkpt>
      <trkpt lat="42.73053" lon="0.72828">
        <ele>912</ele>
        <time>2021-06-19T10:00:34Z</time>
      </trkpt>
      <trkpt lat="42.73083" lon="0.7276">
        <ele>904</ele>
        <time>2021-06-19T10:00:47Z</time>
      </trkpt>
      <trkpt lat="42.73131" lon="0.72624">
        <ele>901</ele>
        <time>2021-06-19T10:01:13Z</time>
      </trkpt>
      <trkpt lat="42.73138" lon="0.7261">
        <ele>900</ele>
        <time>2021-06-19T10:01:16Z</time>
      </trkpt>
      <trkpt lat="42.73152" lon="0.72591">
        <ele>898</ele>
        <time>2021-06-19T10:01:21Z</time>
      </trkpt>
      <trkpt lat="42.73163" lon="0.72561">
        <ele>894</ele>
        <time>2021-06-19T10:01:27Z</time>
      </trkpt>
      <trkpt lat="42.73187" lon="0.72469">
        <ele>886</ele>
        <time>2021-06-19T10:01:43Z</time>
      </trkpt>
      <trkpt lat="42.732" lon="0.72437">
        <ele>886</ele>
        <time>2021-06-19T10:01:50Z</time>
      </trkpt>
      <trkpt lat="42.73223" lon="0.72347">
        <ele>876</ele>
        <time>2021-06-19T10:02:06Z</time>
      </trkpt>
      <trkpt lat="42.73236" lon="0.72316">
        <ele>872</ele>
        <time>2021-06-19T10:02:12Z</time>
      </trkpt>
      <trkpt lat="42.73251" lon="0.72287">
        <ele>867</ele>
        <time>2021-06-19T10:02:18Z</time>
      </trkpt>
      <trkpt lat="42.73316" lon="0.72201">
        <ele>871</ele>
        <time>2021-06-19T10:02:39Z</time>
      </trkpt>
      <trkpt lat="42.7333" lon="0.72176">
        <ele>865</ele>
        <time>2021-06-19T10:02:45Z</time>
      </trkpt>
      <trkpt lat="42.73358" lon="0.72109">
        <ele>860</ele>
        <time>2021-06-19T10:02:58Z</time>
      </trkpt>
      <trkpt lat="42.7337" lon="0.72093">
        <ele>860</ele>
        <time>2021-06-19T10:03:02Z</time>
      </trkpt>
      <trkpt lat="42.73444" lon="0.72018">
        <ele>855</ele>
        <time>2021-06-19T10:03:23Z</time>
      </trkpt>
      <trkpt lat="42.73459" lon="0.72006">
        <ele>854</ele>
        <time>2021-06-19T10:03:27Z</time>
      </trkpt>
      <trkpt lat="42.73475" lon="0.71998">
        <ele>853</ele>
        <time>2021-06-19T10:03:31Z</time>
      </trkpt>
      <trkpt lat="42.73497" lon="0.72003">
        <ele>856</ele>
        <time>2021-06-19T10:03:37Z</time>
      </trkpt>
      <trkpt lat="42.73531" lon="0.72022">
        <ele>862</ele>
        <time>2021-06-19T10:03:45Z</time>
      </trkpt>
      <trkpt lat="42.73552" lon="0.72027">
        <ele>863</ele>
        <time>2021-06-19T10:03:50Z</time>
      </trkpt>
      <trkpt lat="42.73605" lon="0.72048">
        <ele>869</ele>
        <time>2021-06-19T10:04:03Z</time>
      </trkpt>
      <trkpt lat="42.73623" lon="0.72049">
        <ele>870</ele>
        <time>2021-06-19T10:04:07Z</time>
      </trkpt>
      <trkpt lat="42.73639" lon="0.72045">
        <ele>869</ele>
        <time>2021-06-19T10:04:11Z</time>
      </trkpt>
      <trkpt lat="42.73695" lon="0.72001">
        <ele>859</ele>
        <time>2021-06-19T10:04:26Z</time>
      </trkpt>
      <trkpt lat="42.73772" lon="0.7191">
        <ele>861</ele>
        <time>2021-06-19T10:04:50Z</time>
      </trkpt>
      <trkpt lat="42.73776" lon="0.71908">
        <ele>860</ele>
        <time>2021-06-19T10:04:51Z</time>
      </trkpt>
      <trkpt lat="42.73786" lon="0.71907">
        <ele>859</ele>
        <time>2021-06-19T10:04:53Z</time>
      </trkpt>
      <trkpt lat="42.73793" lon="0.71909">
        <ele>858</ele>
        <time>2021-06-19T10:04:55Z</time>
      </trkpt>
      <trkpt lat="42.73801" lon="0.71919">
        <ele>856</ele>
        <time>2021-06-19T10:04:58Z</time>
      </trkpt>
      <trkpt lat="42.73804" lon="0.71928">
        <ele>854</ele>
        <time>2021-06-19T10:04:59Z</time>
      </trkpt>
      <trkpt lat="42.738" lon="0.71942">
        <ele>853</ele>
        <time>2021-06-19T10:05:02Z</time>
      </trkpt>
      <trkpt lat="42.73805" lon="0.71981">
        <ele>846</ele>
        <time>2021-06-19T10:05:09Z</time>
      </trkpt>
      <trkpt lat="42.7378" lon="0.72113">
        <ele>840</ele>
        <time>2021-06-19T10:05:32Z</time>
      </trkpt>
      <trkpt lat="42.7378" lon="0.72154">
        <ele>838</ele>
        <time>2021-06-19T10:05:39Z</time>
      </trkpt>
      <trkpt lat="42.7377" lon="0.72217">
        <ele>839</ele>
        <time>2021-06-19T10:05:50Z</time>
      </trkpt>
      <trkpt lat="42.73751" lon="0.72263">
        <ele>844</ele>
        <time>2021-06-19T10:05:59Z</time>
      </trkpt>
      <trkpt lat="42.73732" lon="0.72337">
        <ele>857</ele>
        <time>2021-06-19T10:06:13Z</time>
      </trkpt>
      <trkpt lat="42.73731" lon="0.72374">
        <ele>859</ele>
        <time>2021-06-19T10:06:19Z</time>
      </trkpt>
      <trkpt lat="42.73725" lon="0.72429">
        <ele>863</ele>
        <time>2021-06-19T10:06:29Z</time>
      </trkpt>
      <trkpt lat="42.73729" lon="0.72516">
        <ele>856</ele>
        <time>2021-06-19T10:06:43Z</time>
      </trkpt>
      <trkpt lat="42.73714" lon="0.72628">
        <ele>851</ele>
        <time>2021-06-19T10:07:03Z</time>
      </trkpt>
      <trkpt lat="42.73681" lon="0.72735">
        <ele>851</ele>
        <time>2021-06-19T10:07:23Z</time>
      </trkpt>
      <trkpt lat="42.73676" lon="0.72778">
        <ele>850</ele>
        <time>2021-06-19T10:07:30Z</time>
      </trkpt>
      <trkpt lat="42.73676" lon="0.72845">
        <ele>849</ele>
        <time>2021-06-19T10:07:42Z</time>
      </trkpt>
      <trkpt lat="42.73685" lon="0.72891">
        <ele>846</ele>
        <time>2021-06-19T10:07:50Z</time>
      </trkpt>
      <trkpt lat="42.73685" lon="0.72931">
        <ele>847</ele>
        <time>2021-06-19T10:07:57Z</time>
      </trkpt>
      <trkpt lat="42.7368" lon="0.72993">
        <ele>849</ele>
        <time>2021-06-19T10:08:08Z</time>
      </trkpt>
      <trkpt lat="42.73683" lon="0.73042">
        <ele>850</ele>
        <time>2021-06-19T10:08:16Z</time>
      </trkpt>
      <trkpt lat="42.73695" lon="0.73094">
        <ele>849</ele>
        <time>2021-06-19T10:08:25Z</time>
      </trkpt>
      <trkpt lat="42.73708" lon="0.73117">
        <ele>847</ele>
        <time>2021-06-19T10:08:30Z</time>
      </trkpt>
      <trkpt lat="42.73745" lon="0.73164">
        <ele>836</ele>
        <time>2021-06-19T10:08:42Z</time>
      </trkpt>
      <trkpt lat="42.73754" lon="0.73182">
        <ele>834</ele>
        <time>2021-06-19T10:08:46Z</time>
      </trkpt>
      <trkpt lat="42.73753" lon="0.73236">
        <ele>837</ele>
        <time>2021-06-19T10:08:55Z</time>
      </trkpt>
      <trkpt lat="42.73746" lon="0.73292">
        <ele>836</ele>
        <time>2021-06-19T10:09:05Z</time>
      </trkpt>
      <trkpt lat="42.73706" lon="0.73413">
        <ele>840</ele>
        <time>2021-06-19T10:09:28Z</time>
      </trkpt>
      <trkpt lat="42.73696" lon="0.73511">
        <ele>842</ele>
        <time>2021-06-19T10:09:45Z</time>
      </trkpt>
      <trkpt lat="42.73703" lon="0.73677">
        <ele>850</ele>
        <time>2021-06-19T10:10:13Z</time>
      </trkpt>
      <trkpt lat="42.73708" lon="0.73726">
        <ele>850</ele>
        <time>2021-06-19T10:10:22Z</time>
      </trkpt>
      <trkpt lat="42.73704" lon="0.73739">
        <ele>851</ele>
        <time>2021-06-19T10:10:24Z</time>
      </trkpt>
      <trkpt lat="42.73691" lon="0.73765">
        <ele>855</ele>
        <time>2021-06-19T10:10:29Z</time>
      </trkpt>
      <trkpt lat="42.73695" lon="0.73819">
        <ele>854</ele>
        <time>2021-06-19T10:10:39Z</time>
      </trkpt>
      <trkpt lat="42.73696" lon="0.73928">
        <ele>854</ele>
        <time>2021-06-19T10:10:57Z</time>
      </trkpt>
      <trkpt lat="42.73692" lon="0.73982">
        <ele>854</ele>
        <time>2021-06-19T10:11:07Z</time>
      </trkpt>
      <trkpt lat="42.73683" lon="0.74033">
        <ele>851</ele>
        <time>2021-06-19T10:11:16Z</time>
      </trkpt>
      <trkpt lat="42.73641" lon="0.74109">
        <ele>857</ele>
        <time>2021-06-19T10:11:32Z</time>
      </trkpt>
      <trkpt lat="42.73617" lon="0.74179">
        <ele>860</ele>
        <time>2021-06-19T10:11:45Z</time>
      </trkpt>
      <trkpt lat="42.73589" lon="0.74284">
        <ele>859</ele>
        <time>2021-06-19T10:12:04Z</time>
      </trkpt>
      <trkpt lat="42.73584" lon="0.74327">
        <ele>859</ele>
        <time>2021-06-19T10:12:12Z</time>
      </trkpt>
      <trkpt lat="42.73582" lon="0.74449">
        <ele>859</ele>
        <time>2021-06-19T10:12:33Z</time>
      </trkpt>
      <trkpt lat="42.73586" lon="0.74538">
        <ele>863</ele>
        <time>2021-06-19T10:12:48Z</time>
      </trkpt>
      <trkpt lat="42.73603" lon="0.74661">
        <ele>866</ele>
        <time>2021-06-19T10:13:10Z</time>
      </trkpt>
      <trkpt lat="42.73682" lon="0.74913">
        <ele>865</ele>
        <time>2021-06-19T10:13:57Z</time>
      </trkpt>
      <trkpt lat="42.73683" lon="0.74939">
        <ele>866</ele>
        <time>2021-06-19T10:14:01Z</time>
      </trkpt>
      <trkpt lat="42.73672" lon="0.75008">
        <ele>869</ele>
        <time>2021-06-19T10:14:13Z</time>
      </trkpt>
      <trkpt lat="42.73669" lon="0.75181">
        <ele>867</ele>
        <time>2021-06-19T10:14:43Z</time>
      </trkpt>
      <trkpt lat="42.73678" lon="0.75378">
        <ele>868</ele>
        <time>2021-06-19T10:15:17Z</time>
      </trkpt>
      <trkpt lat="42.73671" lon="0.75543">
        <ele>870</ele>
        <time>2021-06-19T10:15:45Z</time>
      </trkpt>
      <trkpt lat="42.73655" lon="0.7571">
        <ele>876</ele>
        <time>2021-06-19T10:16:14Z</time>
      </trkpt>
      <trkpt lat="42.73646" lon="0.75756">
        <ele>878</ele>
        <time>2021-06-19T10:16:22Z</time>
      </trkpt>
      <trkpt lat="42.73616" lon="0.75823">
        <ele>882</ele>
        <time>2021-06-19T10:16:36Z</time>
      </trkpt>
      <trkpt lat="42.73593" lon="0.7587">
        <ele>880</ele>
        <time>2021-06-19T10:16:45Z</time>
      </trkpt>
      <trkpt lat="42.73533" lon="0.75949">
        <ele>897</ele>
        <time>2021-06-19T10:17:05Z</time>
      </trkpt>
      <trkpt lat="42.7352" lon="0.75995">
        <ele>895</ele>
        <time>2021-06-19T10:17:13Z</time>
      </trkpt>
      <trkpt lat="42.73513" lon="0.76036">
        <ele>893</ele>
        <time>2021-06-19T10:17:20Z</time>
      </trkpt>
      <trkpt lat="42.73513" lon="0.76155">
        <ele>888</ele>
        <time>2021-06-19T10:17:41Z</time>
      </trkpt>
      <trkpt lat="42.73525" lon="0.76266">
        <ele>887</ele>
        <time>2021-06-19T10:18:00Z</time>
      </trkpt>
      <trkpt lat="42.73525" lon="0.76305">
        <ele>889</ele>
        <time>2021-06-19T10:18:07Z</time>
      </trkpt>
      <trkpt lat="42.73521" lon="0.7636">
        <ele>890</ele>
        <time>2021-06-19T10:18:16Z</time>
      </trkpt>
      <trkpt lat="42.73511" lon="0.7642">
        <ele>888</ele>
        <time>2021-06-19T10:18:27Z</time>
      </trkpt>
      <trkpt lat="42.73488" lon="0.76474">
        <ele>889</ele>
        <time>2021-06-19T10:18:38Z</time>
      </trkpt>
      <trkpt lat="42.73451" lon="0.76544">
        <ele>895</ele>
        <time>2021-06-19T10:18:52Z</time>
      </trkpt>
      <trkpt lat="42.7342" lon="0.76596">
        <ele>891</ele>
        <time>2021-06-19T10:19:04Z</time>
      </trkpt>
      <trkpt lat="42.73355" lon="0.76666">
        <ele>897</ele>
        <time>2021-06-19T10:19:23Z</time>
      </trkpt>
      <trkpt lat="42.73329" lon="0.76704">
        <ele>898</ele>
        <time>2021-06-19T10:19:32Z</time>
      </trkpt>
      <trkpt lat="42.7332" lon="0.76726">
        <ele>897</ele>
        <time>2021-06-19T10:19:36Z</time>
      </trkpt>
      <trkpt lat="42.73312" lon="0.76749">
        <ele>895</ele>
        <time>2021-06-19T10:19:41Z</time>
      </trkpt>
      <trkpt lat="42.7328" lon="0.76953">
        <ele>894</ele>
        <time>2021-06-19T10:20:17Z</time>
      </trkpt>
      <trkpt lat="42.73246" lon="0.7707">
        <ele>893</ele>
        <time>2021-06-19T10:20:38Z</time>
      </trkpt>
      <trkpt lat="42.73218" lon="0.77139">
        <ele>899</ele>
        <time>2021-06-19T10:20:52Z</time>
      </trkpt>
      <trkpt lat="42.73185" lon="0.77299">
        <ele>901</ele>
        <time>2021-06-19T10:21:20Z</time>
      </trkpt>
      <trkpt lat="42.73184" lon="0.77323">
        <ele>899</ele>
        <time>2021-06-19T10:21:24Z</time>
      </trkpt>
      <trkpt lat="42.73143" lon="0.77475">
        <ele>897</ele>
        <time>2021-06-19T10:21:52Z</time>
      </trkpt>
      <trkpt lat="42.73127" lon="0.77493">
        <ele>899</ele>
        <time>2021-06-19T10:21:57Z</time>
      </trkpt>
      <trkpt lat="42.73119" lon="0.77499">
        <ele>899</ele>
        <time>2021-06-19T10:21:59Z</time>
      </trkpt>
      <trkpt lat="42.73108" lon="0.77503">
        <ele>902</ele>
        <time>2021-06-19T10:22:02Z</time>
      </trkpt>
      <trkpt lat="42.73068" lon="0.7755">
        <ele>905</ele>
        <time>2021-06-19T10:22:14Z</time>
      </trkpt>
      <trkpt lat="42.73053" lon="0.77581">
        <ele>902</ele>
        <time>2021-06-19T10:22:20Z</time>
      </trkpt>
      <trkpt lat="42.73013" lon="0.7764">
        <ele>902</ele>
        <time>2021-06-19T10:22:34Z</time>
      </trkpt>
      <trkpt lat="42.73002" lon="0.77666">
        <ele>896</ele>
        <time>2021-06-19T10:22:39Z</time>
      </trkpt>
      <trkpt lat="42.73001" lon="0.77676">
        <ele>896</ele>
        <time>2021-06-19T10:22:41Z</time>
      </trkpt>
      <trkpt lat="42.73008" lon="0.77691">
        <ele>896</ele>
        <time>2021-06-19T10:22:44Z</time>
      </trkpt>
      <trkpt lat="42.73038" lon="0.77719">
        <ele>899</ele>
        <time>2021-06-19T10:22:53Z</time>
      </trkpt>
      <trkpt lat="42.73046" lon="0.77719">
        <ele>900</ele>
        <time>2021-06-19T10:22:54Z</time>
      </trkpt>
      <trkpt lat="42.73065" lon="0.77675">
        <ele>898</ele>
        <time>2021-06-19T10:23:03Z</time>
      </trkpt>
      <trkpt lat="42.73112" lon="0.7765">
        <ele>900</ele>
        <time>2021-06-19T10:23:15Z</time>
      </trkpt>
      <trkpt lat="42.73119" lon="0.77659">
        <ele>901</ele>
        <time>2021-06-19T10:23:17Z</time>
      </trkpt>
      <trkpt lat="42.73145" lon="0.77631">
        <ele>901</ele>
        <time>2021-06-19T10:23:25Z</time>
      </trkpt>
      <trkpt lat="42.73165" lon="0.77665">
        <ele>908</ele>
        <time>2021-06-19T10:23:32Z</time>
      </trkpt>
      <trkpt lat="42.73167" lon="0.77673">
        <ele>910</ele>
        <time>2021-06-19T10:23:34Z</time>
      </trkpt>
      <trkpt lat="42.73163" lon="0.7768">
        <ele>910</ele>
        <time>2021-06-19T10:23:35Z</time>
      </trkpt>
      <trkpt lat="42.73126" lon="0.77712">
        <ele>909</ele>
        <time>2021-06-19T10:23:46Z</time>
      </trkpt>
      <trkpt lat="42.73101" lon="0.77745">
        <ele>910</ele>
        <time>2021-06-19T10:23:54Z</time>
      </trkpt>
      <trkpt lat="42.73091" lon="0.77764">
        <ele>911</ele>
        <time>2021-06-19T10:23:58Z</time>
      </trkpt>
      <trkpt lat="42.73085" lon="0.77794">
        <ele>916</ele>
        <time>2021-06-19T10:24:03Z</time>
      </trkpt>
      <trkpt lat="42.73105" lon="0.77809">
        <ele>920</ele>
        <time>2021-06-19T10:24:09Z</time>
      </trkpt>
      <trkpt lat="42.73087" lon="0.77864">
        <ele>926</ele>
        <time>2021-06-19T10:24:19Z</time>
      </trkpt>
      <trkpt lat="42.73074" lon="0.77887">
        <ele>926</ele>
        <time>2021-06-19T10:24:24Z</time>
      </trkpt>
      <trkpt lat="42.73075" lon="0.77899">
        <ele>927</ele>
        <time>2021-06-19T10:24:26Z</time>
      </trkpt>
      <trkpt lat="42.73114" lon="0.77955">
        <ele>943</ele>
        <time>2021-06-19T10:24:39Z</time>
      </trkpt>
      <trkpt lat="42.73084" lon="0.7803">
        <ele>948</ele>
        <time>2021-06-19T10:24:54Z</time>
      </trkpt>
      <trkpt lat="42.73074" lon="0.78051">
        <ele>950</ele>
        <time>2021-06-19T10:24:58Z</time>
      </trkpt>
      <trkpt lat="42.73064" lon="0.78063">
        <ele>950</ele>
        <time>2021-06-19T10:25:01Z</time>
      </trkpt>
      <trkpt lat="42.73046" lon="0.78122">
        <ele>961</ele>
        <time>2021-06-19T10:25:12Z</time>
      </trkpt>
      <trkpt lat="42.73041" lon="0.78131">
        <ele>962</ele>
        <time>2021-06-19T10:25:14Z</time>
      </trkpt>
      <trkpt lat="42.73029" lon="0.78143">
        <ele>963</ele>
        <time>2021-06-19T10:25:18Z</time>
      </trkpt>
      <trkpt lat="42.73021" lon="0.78176">
        <ele>972</ele>
        <time>2021-06-19T10:25:24Z</time>
      </trkpt>
      <trkpt lat="42.73008" lon="0.78177">
        <ele>970</ele>
        <time>2021-06-19T10:25:27Z</time>
      </trkpt>
      <trkpt lat="42.72987" lon="0.78216">
        <ele>979</ele>
        <time>2021-06-19T10:25:35Z</time>
      </trkpt>
      <trkpt lat="42.72973" lon="0.78262">
        <ele>990</ele>
        <time>2021-06-19T10:25:43Z</time>
      </trkpt>
      <trkpt lat="42.72954" lon="0.78293">
        <ele>995</ele>
        <time>2021-06-19T10:25:50Z</time>
      </trkpt>
      <trkpt lat="42.72932" lon="0.78338">
        <ele>1006</ele>
        <time>2021-06-19T10:26:00Z</time>
      </trkpt>
      <trkpt lat="42.72915" lon="0.78357">
        <ele>1008</ele>
        <time>2021-06-19T10:26:05Z</time>
      </trkpt>
      <trkpt lat="42.72883" lon="0.78363">
        <ele>998</ele>
        <time>2021-06-19T10:26:12Z</time>
      </trkpt>
      <trkpt lat="42.72857" lon="0.78375">
        <ele>993</ele>
        <time>2021-06-19T10:26:19Z</time>
      </trkpt>
      <trkpt lat="42.72843" lon="0.78411">
        <ele>998</ele>
        <time>2021-06-19T10:26:26Z</time>
      </trkpt>
      <trkpt lat="42.72836" lon="0.78439">
        <ele>1002</ele>
        <time>2021-06-19T10:26:31Z</time>
      </trkpt>
      <trkpt lat="42.72822" lon="0.78478">
        <ele>1003</ele>
        <time>2021-06-19T10:26:38Z</time>
      </trkpt>
      <trkpt lat="42.72748" lon="0.78618">
        <ele>996</ele>
        <time>2021-06-19T10:27:08Z</time>
      </trkpt>
      <trkpt lat="42.72672" lon="0.78752">
        <ele>985</ele>
        <time>2021-06-19T10:27:37Z</time>
      </trkpt>
      <trkpt lat="42.72666" lon="0.78773">
        <ele>985</ele>
        <time>2021-06-19T10:27:41Z</time>
      </trkpt>
      <trkpt lat="42.72665" lon="0.788">
        <ele>989</ele>
        <time>2021-06-19T10:27:45Z</time>
      </trkpt>
      <trkpt lat="42.72661" lon="0.78805">
        <ele>989</ele>
        <time>2021-06-19T10:27:47Z</time>
      </trkpt>
      <trkpt lat="42.72656" lon="0.78805">
        <ele>988</ele>
        <time>2021-06-19T10:27:48Z</time>
      </trkpt>
      <trkpt lat="42.72651" lon="0.78801">
        <ele>986</ele>
        <time>2021-06-19T10:27:49Z</time>
      </trkpt>
      <trkpt lat="42.72631" lon="0.78772">
        <ele>977</ele>
        <time>2021-06-19T10:27:56Z</time>
      </trkpt>
      <trkpt lat="42.72619" lon="0.7877">
        <ele>974</ele>
        <time>2021-06-19T10:27:59Z</time>
      </trkpt>
      <trkpt lat="42.72605" lon="0.78776">
        <ele>972</ele>
        <time>2021-06-19T10:28:02Z</time>
      </trkpt>
      <trkpt lat="42.72584" lon="0.78814">
        <ele>974</ele>
        <time>2021-06-19T10:28:10Z</time>
      </trkpt>
      <trkpt lat="42.72553" lon="0.78827">
        <ele>970</ele>
        <time>2021-06-19T10:28:18Z</time>
      </trkpt>
      <trkpt lat="42.72538" lon="0.78837">
        <ele>968</ele>
        <time>2021-06-19T10:28:22Z</time>
      </trkpt>
      <trkpt lat="42.72524" lon="0.78856">
        <ele>968</ele>
        <time>2021-06-19T10:28:26Z</time>
      </trkpt>
      <trkpt lat="42.72511" lon="0.78886">
        <ele>969</ele>
        <time>2021-06-19T10:28:32Z</time>
      </trkpt>
      <trkpt lat="42.72499" lon="0.78906">
        <ele>967</ele>
        <time>2021-06-19T10:28:37Z</time>
      </trkpt>
      <trkpt lat="42.72494" lon="0.7891">
        <ele>966</ele>
        <time>2021-06-19T10:28:38Z</time>
      </trkpt>
      <trkpt lat="42.72488" lon="0.78911">
        <ele>964</ele>
        <time>2021-06-19T10:28:40Z</time>
      </trkpt>
      <trkpt lat="42.72474" lon="0.78905">
        <ele>960</ele>
        <time>2021-06-19T10:28:43Z</time>
      </trkpt>
      <trkpt lat="42.72471" lon="0.789">
        <ele>959</ele>
        <time>2021-06-19T10:28:44Z</time>
      </trkpt>
      <trkpt lat="42.72442" lon="0.78958">
        <ele>959</ele>
        <time>2021-06-19T10:28:56Z</time>
      </trkpt>
      <trkpt lat="42.72421" lon="0.78984">
        <ele>956</ele>
        <time>2021-06-19T10:29:03Z</time>
      </trkpt>
      <trkpt lat="42.72391" lon="0.79013">
        <ele>952</ele>
        <time>2021-06-19T10:29:11Z</time>
      </trkpt>
      <trkpt lat="42.72341" lon="0.79106">
        <ele>958</ele>
        <time>2021-06-19T10:29:31Z</time>
      </trkpt>
      <trkpt lat="42.72308" lon="0.79149">
        <ele>963</ele>
        <time>2021-06-19T10:29:42Z</time>
      </trkpt>
      <trkpt lat="42.72248" lon="0.79212">
        <ele>964</ele>
        <time>2021-06-19T10:30:00Z</time>
      </trkpt>
      <trkpt lat="42.72194" lon="0.79308">
        <ele>973</ele>
        <time>2021-06-19T10:30:20Z</time>
      </trkpt>
      <trkpt lat="42.72181" lon="0.79325">
        <ele>974</ele>
        <time>2021-06-19T10:30:24Z</time>
      </trkpt>
      <trkpt lat="42.72177" lon="0.7934">
        <ele>975</ele>
        <time>2021-06-19T10:30:27Z</time>
      </trkpt>
      <trkpt lat="42.72117" lon="0.79403">
        <ele>963</ele>
        <time>2021-06-19T10:30:45Z</time>
      </trkpt>
      <trkpt lat="42.7207" lon="0.79445">
        <ele>956</ele>
        <time>2021-06-19T10:30:58Z</time>
      </trkpt>
      <trkpt lat="42.72024" lon="0.79475">
        <ele>952</ele>
        <time>2021-06-19T10:31:10Z</time>
      </trkpt>
      <trkpt lat="42.7198" lon="0.79517">
        <ele>957</ele>
        <time>2021-06-19T10:31:23Z</time>
      </trkpt>
      <trkpt lat="42.71921" lon="0.79553">
        <ele>951</ele>
        <time>2021-06-19T10:31:38Z</time>
      </trkpt>
      <trkpt lat="42.71885" lon="0.79586">
        <ele>951</ele>
        <time>2021-06-19T10:31:48Z</time>
      </trkpt>
      <trkpt lat="42.71789" lon="0.79615">
        <ele>946</ele>
        <time>2021-06-19T10:32:11Z</time>
      </trkpt>
      <trkpt lat="42.71772" lon="0.79628">
        <ele>946</ele>
        <time>2021-06-19T10:32:15Z</time>
      </trkpt>
      <trkpt lat="42.71755" lon="0.79646">
        <ele>947</ele>
        <time>2021-06-19T10:32:20Z</time>
      </trkpt>
      <trkpt lat="42.71732" lon="0.79678">
        <ele>950</ele>
        <time>2021-06-19T10:32:28Z</time>
      </trkpt>
      <trkpt lat="42.71723" lon="0.79687">
        <ele>951</ele>
        <time>2021-06-19T10:32:31Z</time>
      </trkpt>
      <trkpt lat="42.71713" lon="0.79687">
        <ele>950</ele>
        <time>2021-06-19T10:32:33Z</time>
      </trkpt>
      <trkpt lat="42.71688" lon="0.79668">
        <ele>943</ele>
        <time>2021-06-19T10:32:40Z</time>
      </trkpt>
      <trkpt lat="42.71663" lon="0.7966">
        <ele>942</ele>
        <time>2021-06-19T10:32:46Z</time>
      </trkpt>
      <trkpt lat="42.71644" lon="0.79658">
        <ele>942</ele>
        <time>2021-06-19T10:32:50Z</time>
      </trkpt>
      <trkpt lat="42.71597" lon="0.79665">
        <ele>940</ele>
        <time>2021-06-19T10:33:01Z</time>
      </trkpt>
      <trkpt lat="42.71525" lon="0.79682">
        <ele>941</ele>
        <time>2021-06-19T10:33:18Z</time>
      </trkpt>
      <trkpt lat="42.71515" lon="0.79693">
        <ele>942</ele>
        <time>2021-06-19T10:33:21Z</time>
      </trkpt>
      <trkpt lat="42.71481" lon="0.79711">
        <ele>944</ele>
        <time>2021-06-19T10:33:30Z</time>
      </trkpt>
      <trkpt lat="42.71474" lon="0.79727">
        <ele>945</ele>
        <time>2021-06-19T10:33:33Z</time>
      </trkpt>
      <trkpt lat="42.71464" lon="0.79733">
        <ele>945</ele>
        <time>2021-06-19T10:33:35Z</time>
      </trkpt>
      <trkpt lat="42.71387" lon="0.7975">
        <ele>944</ele>
        <time>2021-06-19T10:33:54Z</time>
      </trkpt>
      <trkpt lat="42.71112" lon="0.79707">
        <ele>945</ele>
        <time>2021-06-19T10:34:58Z</time>
      </trkpt>
      <trkpt lat="42.71082" lon="0.79704">
        <ele>945</ele>
        <time>2021-06-19T10:35:05Z</time>
      </trkpt>
      <trkpt lat="42.71015" lon="0.79688">
        <ele>946</ele>
        <time>2021-06-19T10:35:21Z</time>
      </trkpt>
      <trkpt lat="42.7098" lon="0.79686">
        <ele>947</ele>
        <time>2021-06-19T10:35:29Z</time>
      </trkpt>
      <trkpt lat="42.70808" lon="0.7965">
        <ele>953</ele>
        <time>2021-06-19T10:36:10Z</time>
      </trkpt>
      <trkpt lat="42.70652" lon="0.79613">
        <ele>960</ele>
        <time>2021-06-19T10:36:47Z</time>
      </trkpt>
      <trkpt lat="42.70643" lon="0.79601">
        <ele>959</ele>
        <time>2021-06-19T10:36:50Z</time>
      </trkpt>
      <trkpt lat="42.70639" lon="0.79602">
        <ele>959</ele>
        <time>2021-06-19T10:36:51Z</time>
      </trkpt>
      <trkpt lat="42.70631" lon="0.79597">
        <ele>959</ele>
        <time>2021-06-19T10:36:53Z</time>
      </trkpt>
      <trkpt lat="42.7061" lon="0.79601">
        <ele>960</ele>
        <time>2021-06-19T10:36:58Z</time>
      </trkpt>
      <trkpt lat="42.7049" lon="0.79717">
        <ele>965</ele>
        <time>2021-06-19T10:37:32Z</time>
      </trkpt>
      <trkpt lat="42.7045" lon="0.79746">
        <ele>964</ele>
        <time>2021-06-19T10:37:43Z</time>
      </trkpt>
      <trkpt lat="42.70438" lon="0.79719">
        <ele>963</ele>
        <time>2021-06-19T10:37:48Z</time>
      </trkpt>
      <trkpt lat="42.70357" lon="0.79657">
        <ele>966</ele>
        <time>2021-06-19T10:38:10Z</time>
      </trkpt>
      <trkpt lat="42.70315" lon="0.79705">
        <ele>966</ele>
        <time>2021-06-19T10:38:23Z</time>
      </trkpt>
      <trkpt lat="42.70278" lon="0.79642">
        <ele>970</ele>
        <time>2021-06-19T10:38:37Z</time>
      </trkpt>
      <trkpt lat="42.70263" lon="0.79659">
        <ele>970</ele>
        <time>2021-06-19T10:38:41Z</time>
      </trkpt>
      <trkpt lat="42.70245" lon="0.79659">
        <ele>970</ele>
        <time>2021-06-19T10:38:45Z</time>
      </trkpt>
      <trkpt lat="42.70228" lon="0.79623">
        <ele>972</ele>
        <time>2021-06-19T10:38:53Z</time>
      </trkpt>
      <trkpt lat="42.7019" lon="0.79529">
        <ele>976</ele>
        <time>2021-06-19T10:39:11Z</time>
      </trkpt>
      <trkpt lat="42.70208" lon="0.79541">
        <ele>975</ele>
        <time>2021-06-19T10:39:16Z</time>
      </trkpt>
      <trkpt lat="42.70176" lon="0.79581">
        <ele>975</ele>
        <time>2021-06-19T10:39:26Z</time>
      </trkpt>
      <trkpt lat="42.70161" lon="0.79611">
        <ele>976</ele>
        <time>2021-06-19T10:39:32Z</time>
      </trkpt>
      <trkpt lat="42.70121" lon="0.79662">
        <ele>976</ele>
        <time>2021-06-19T10:39:45Z</time>
      </trkpt>
      <trkpt lat="42.70127" lon="0.79669">
        <ele>976</ele>
        <time>2021-06-19T10:39:47Z</time>
      </trkpt>
      <trkpt lat="42.70121" lon="0.79676">
        <ele>976</ele>
        <time>2021-06-19T10:39:49Z</time>
      </trkpt>
      <trkpt lat="42.70125" lon="0.7968">
        <ele>976</ele>
        <time>2021-06-19T10:39:50Z</time>
      </trkpt>
      <trkpt lat="42.70086" lon="0.79746">
        <ele>975</ele>
        <time>2021-06-19T10:40:04Z</time>
      </trkpt>
      <trkpt lat="42.70026" lon="0.79894">
        <ele>975</ele>
        <time>2021-06-19T10:40:33Z</time>
      </trkpt>
      <trkpt lat="42.70022" lon="0.79897">
        <ele>975</ele>
        <time>2021-06-19T10:40:34Z</time>
      </trkpt>
      <trkpt lat="42.70002" lon="0.79947">
        <ele>976</ele>
        <time>2021-06-19T10:40:44Z</time>
      </trkpt>
      <trkpt lat="42.69995" lon="0.79941">
        <ele>977</ele>
        <time>2021-06-19T10:40:46Z</time>
      </trkpt>
      <trkpt lat="42.69922" lon="0.80116">
        <ele>983</ele>
        <time>2021-06-19T10:41:21Z</time>
      </trkpt>
      <trkpt lat="42.69911" lon="0.80154">
        <ele>984</ele>
        <time>2021-06-19T10:41:28Z</time>
      </trkpt>
      <trkpt lat="42.69897" lon="0.80149">
        <ele>988</ele>
        <time>2021-06-19T10:41:31Z</time>
      </trkpt>
      <trkpt lat="42.69858" lon="0.80384">
        <ele>991</ele>
        <time>2021-06-19T10:42:12Z</time>
      </trkpt>
      <trkpt lat="42.69852" lon="0.80402">
        <ele>992</ele>
        <time>2021-06-19T10:42:16Z</time>
      </trkpt>
      <trkpt lat="42.69837" lon="0.8043">
        <ele>994</ele>
        <time>2021-06-19T10:42:22Z</time>
      </trkpt>
      <trkpt lat="42.69844" lon="0.80439">
        <ele>994</ele>
        <time>2021-06-19T10:42:24Z</time>
      </trkpt>
      <trkpt lat="42.69753" lon="0.80564">
        <ele>1005</ele>
        <time>2021-06-19T10:42:54Z</time>
      </trkpt>
      <trkpt lat="42.69742" lon="0.80574">
        <ele>1005</ele>
        <time>2021-06-19T10:42:57Z</time>
      </trkpt>
      <trkpt lat="42.69748" lon="0.8058">
        <ele>1004</ele>
        <time>2021-06-19T10:42:59Z</time>
      </trkpt>
      <trkpt lat="42.6975" lon="0.8059">
        <ele>1004</ele>
        <time>2021-06-19T10:43:01Z</time>
      </trkpt>
      <trkpt lat="42.69744" lon="0.806">
        <ele>1005</ele>
        <time>2021-06-19T10:43:03Z</time>
      </trkpt>
      <trkpt lat="42.69739" lon="0.80665">
        <ele>1007</ele>
        <time>2021-06-19T10:43:14Z</time>
      </trkpt>
      <trkpt lat="42.6972" lon="0.80801">
        <ele>1008</ele>
        <time>2021-06-19T10:43:38Z</time>
      </trkpt>
      <trkpt lat="42.69715" lon="0.80857">
        <ele>1007</ele>
        <time>2021-06-19T10:43:48Z</time>
      </trkpt>
      <trkpt lat="42.69717" lon="0.80958">
        <ele>1008</ele>
        <time>2021-06-19T10:44:05Z</time>
      </trkpt>
      <trkpt lat="42.69721" lon="0.80966">
        <ele>1008</ele>
        <time>2021-06-19T10:44:07Z</time>
      </trkpt>
      <trkpt lat="42.69721" lon="0.80975">
        <ele>1008</ele>
        <time>2021-06-19T10:44:08Z</time>
      </trkpt>
      <trkpt lat="42.69715" lon="0.8101">
        <ele>1009</ele>
        <time>2021-06-19T10:44:14Z</time>
      </trkpt>
      <trkpt lat="42.69714" lon="0.81045">
        <ele>1009</ele>
        <time>2021-06-19T10:44:20Z</time>
      </trkpt>
      <trkpt lat="42.69686" lon="0.8125">
        <ele>1014</ele>
        <time>2021-06-19T10:44:56Z</time>
      </trkpt>
      <trkpt lat="42.6967" lon="0.81417">
        <ele>1024</ele>
        <time>2021-06-19T10:45:25Z</time>
      </trkpt>
      <trkpt lat="42.69671" lon="0.81455">
        <ele>1025</ele>
        <time>2021-06-19T10:45:32Z</time>
      </trkpt>
      <trkpt lat="42.69674" lon="0.81486">
        <ele>1025</ele>
        <time>2021-06-19T10:45:37Z</time>
      </trkpt>
      <trkpt lat="42.69684" lon="0.81522">
        <ele>1024</ele>
        <time>2021-06-19T10:45:44Z</time>
      </trkpt>
      <trkpt lat="42.69725" lon="0.81629">
        <ele>1024</ele>
        <time>2021-06-19T10:46:04Z</time>
      </trkpt>
      <trkpt lat="42.69799" lon="0.81836">
        <ele>1030</ele>
        <time>2021-06-19T10:46:44Z</time>
      </trkpt>
      <trkpt lat="42.69808" lon="0.81874">
        <ele>1029</ele>
        <time>2021-06-19T10:46:51Z</time>
      </trkpt>
      <trkpt lat="42.69811" lon="0.81898">
        <ele>1028</ele>
        <time>2021-06-19T10:46:55Z</time>
      </trkpt>
      <trkpt lat="42.69811" lon="0.81932">
        <ele>1027</ele>
        <time>2021-06-19T10:47:01Z</time>
      </trkpt>
      <trkpt lat="42.69798" lon="0.82051">
        <ele>1028</ele>
        <time>2021-06-19T10:47:21Z</time>
      </trkpt>
      <trkpt lat="42.69795" lon="0.8212">
        <ele>1029</ele>
        <time>2021-06-19T10:47:33Z</time>
      </trkpt>
      <trkpt lat="42.69792" lon="0.8214">
        <ele>1029</ele>
        <time>2021-06-19T10:47:37Z</time>
      </trkpt>
      <trkpt lat="42.69789" lon="0.82155">
        <ele>1029</ele>
        <time>2021-06-19T10:47:39Z</time>
      </trkpt>
      <trkpt lat="42.69784" lon="0.82158">
        <ele>1030</ele>
        <time>2021-06-19T10:47:41Z</time>
      </trkpt>
      <trkpt lat="42.69778" lon="0.82172">
        <ele>1031</ele>
        <time>2021-06-19T10:47:43Z</time>
      </trkpt>
      <trkpt lat="42.69765" lon="0.82185">
        <ele>1032</ele>
        <time>2021-06-19T10:47:47Z</time>
      </trkpt>
      <trkpt lat="42.69761" lon="0.82194">
        <ele>1033</ele>
        <time>2021-06-19T10:47:49Z</time>
      </trkpt>
      <trkpt lat="42.69761" lon="0.82209">
        <ele>1033</ele>
        <time>2021-06-19T10:47:52Z</time>
      </trkpt>
      <trkpt lat="42.6978" lon="0.82263">
        <ele>1031</ele>
        <time>2021-06-19T10:48:02Z</time>
      </trkpt>
      <trkpt lat="42.69782" lon="0.82303">
        <ele>1032</ele>
        <time>2021-06-19T10:48:09Z</time>
      </trkpt>
      <trkpt lat="42.69768" lon="0.82374">
        <ele>1034</ele>
        <time>2021-06-19T10:48:21Z</time>
      </trkpt>
      <trkpt lat="42.69759" lon="0.82392">
        <ele>1035</ele>
        <time>2021-06-19T10:48:25Z</time>
      </trkpt>
      <trkpt lat="42.69727" lon="0.82407">
        <ele>1039</ele>
        <time>2021-06-19T10:48:33Z</time>
      </trkpt>
      <trkpt lat="42.6973" lon="0.82482">
        <ele>1040</ele>
        <time>2021-06-19T10:48:46Z</time>
      </trkpt>
      <trkpt lat="42.69751" lon="0.82527">
        <ele>1038</ele>
        <time>2021-06-19T10:48:55Z</time>
      </trkpt>
      <trkpt lat="42.69766" lon="0.82584">
        <ele>1040</ele>
        <time>2021-06-19T10:49:05Z</time>
      </trkpt>
      <trkpt lat="42.69847" lon="0.82782">
        <ele>1042</ele>
        <time>2021-06-19T10:49:44Z</time>
      </trkpt>
      <trkpt lat="42.69852" lon="0.82812">
        <ele>1043</ele>
        <time>2021-06-19T10:49:50Z</time>
      </trkpt>
      <trkpt lat="42.69901" lon="0.8301">
        <ele>1051</ele>
        <time>2021-06-19T10:50:25Z</time>
      </trkpt>
      <trkpt lat="42.69905" lon="0.83041">
        <ele>1052</ele>
        <time>2021-06-19T10:50:31Z</time>
      </trkpt>
      <trkpt lat="42.6991" lon="0.83041">
        <ele>1051</ele>
        <time>2021-06-19T10:50:32Z</time>
      </trkpt>
      <trkpt lat="42.69935" lon="0.83125">
        <ele>1052</ele>
        <time>2021-06-19T10:50:48Z</time>
      </trkpt>
      <trkpt lat="42.69939" lon="0.83269">
        <ele>1060</ele>
        <time>2021-06-19T10:51:12Z</time>
      </trkpt>
      <trkpt lat="42.69938" lon="0.83316">
        <ele>1061</ele>
        <time>2021-06-19T10:51:20Z</time>
      </trkpt>
      <trkpt lat="42.69932" lon="0.83384">
        <ele>1062</ele>
        <time>2021-06-19T10:51:32Z</time>
      </trkpt>
      <trkpt lat="42.69928" lon="0.83404">
        <ele>1063</ele>
        <time>2021-06-19T10:51:36Z</time>
      </trkpt>
      <trkpt lat="42.69932" lon="0.8342">
        <ele>1063</ele>
        <time>2021-06-19T10:51:39Z</time>
      </trkpt>
      <trkpt lat="42.6993" lon="0.83427">
        <ele>1063</ele>
        <time>2021-06-19T10:51:40Z</time>
      </trkpt>
      <trkpt lat="42.69922" lon="0.83437">
        <ele>1064</ele>
        <time>2021-06-19T10:51:42Z</time>
      </trkpt>
      <trkpt lat="42.69896" lon="0.83549">
        <ele>1070</ele>
        <time>2021-06-19T10:52:03Z</time>
      </trkpt>
      <trkpt lat="42.69848" lon="0.837">
        <ele>1080</ele>
        <time>2021-06-19T10:52:31Z</time>
      </trkpt>
      <trkpt lat="42.69837" lon="0.8376">
        <ele>1081</ele>
        <time>2021-06-19T10:52:41Z</time>
      </trkpt>
      <trkpt lat="42.69831" lon="0.83819">
        <ele>1082</ele>
        <time>2021-06-19T10:52:52Z</time>
      </trkpt>
      <trkpt lat="42.6983" lon="0.83902">
        <ele>1082</ele>
        <time>2021-06-19T10:53:06Z</time>
      </trkpt>
      <trkpt lat="42.69833" lon="0.83923">
        <ele>1082</ele>
        <time>2021-06-19T10:53:10Z</time>
      </trkpt>
      <trkpt lat="42.69846" lon="0.83964">
        <ele>1086</ele>
        <time>2021-06-19T10:53:17Z</time>
      </trkpt>
      <trkpt lat="42.69858" lon="0.83992">
        <ele>1089</ele>
        <time>2021-06-19T10:53:23Z</time>
      </trkpt>
      <trkpt lat="42.69893" lon="0.84062">
        <ele>1092</ele>
        <time>2021-06-19T10:53:37Z</time>
      </trkpt>
      <trkpt lat="42.69908" lon="0.8413">
        <ele>1093</ele>
        <time>2021-06-19T10:53:50Z</time>
      </trkpt>
      <trkpt lat="42.69916" lon="0.84273">
        <ele>1098</ele>
        <time>2021-06-19T10:54:14Z</time>
      </trkpt>
      <trkpt lat="42.69916" lon="0.84324">
        <ele>1101</ele>
        <time>2021-06-19T10:54:23Z</time>
      </trkpt>
      <trkpt lat="42.69911" lon="0.844">
        <ele>1100</ele>
        <time>2021-06-19T10:54:36Z</time>
      </trkpt>
      <trkpt lat="42.69892" lon="0.84433">
        <ele>1106</ele>
        <time>2021-06-19T10:54:43Z</time>
      </trkpt>
      <trkpt lat="42.6985" lon="0.8454">
        <ele>1115</ele>
        <time>2021-06-19T10:55:04Z</time>
      </trkpt>
      <trkpt lat="42.69844" lon="0.84627">
        <ele>1116</ele>
        <time>2021-06-19T10:55:19Z</time>
      </trkpt>
      <trkpt lat="42.69847" lon="0.84677">
        <ele>1117</ele>
        <time>2021-06-19T10:55:28Z</time>
      </trkpt>
      <trkpt lat="42.6988" lon="0.84795">
        <ele>1112</ele>
        <time>2021-06-19T10:55:49Z</time>
      </trkpt>
      <trkpt lat="42.69879" lon="0.84818">
        <ele>1112</ele>
        <time>2021-06-19T10:55:53Z</time>
      </trkpt>
      <trkpt lat="42.69864" lon="0.84865">
        <ele>1115</ele>
        <time>2021-06-19T10:56:02Z</time>
      </trkpt>
      <trkpt lat="42.69855" lon="0.84914">
        <ele>1116</ele>
        <time>2021-06-19T10:56:11Z</time>
      </trkpt>
      <trkpt lat="42.69848" lon="0.84995">
        <ele>1117</ele>
        <time>2021-06-19T10:56:25Z</time>
      </trkpt>
      <trkpt lat="42.69833" lon="0.85065">
        <ele>1117</ele>
        <time>2021-06-19T10:56:37Z</time>
      </trkpt>
      <trkpt lat="42.69819" lon="0.85255">
        <ele>1127</ele>
        <time>2021-06-19T10:57:10Z</time>
      </trkpt>
      <trkpt lat="42.69824" lon="0.85282">
        <ele>1124</ele>
        <time>2021-06-19T10:57:15Z</time>
      </trkpt>
      <trkpt lat="42.69845" lon="0.85333">
        <ele>1118</ele>
        <time>2021-06-19T10:57:25Z</time>
      </trkpt>
      <trkpt lat="42.69842" lon="0.85391">
        <ele>1120</ele>
        <time>2021-06-19T10:57:35Z</time>
      </trkpt>
      <trkpt lat="42.6985" lon="0.85497">
        <ele>1122</ele>
        <time>2021-06-19T10:57:53Z</time>
      </trkpt>
      <trkpt lat="42.69863" lon="0.85554">
        <ele>1123</ele>
        <time>2021-06-19T10:58:03Z</time>
      </trkpt>
      <trkpt lat="42.69892" lon="0.85644">
        <ele>1121</ele>
        <time>2021-06-19T10:58:20Z</time>
      </trkpt>
      <trkpt lat="42.69893" lon="0.85661">
        <ele>1122</ele>
        <time>2021-06-19T10:58:23Z</time>
      </trkpt>
      <trkpt lat="42.69878" lon="0.85694">
        <ele>1126</ele>
        <time>2021-06-19T10:58:30Z</time>
      </trkpt>
      <trkpt lat="42.69864" lon="0.85762">
        <ele>1130</ele>
        <time>2021-06-19T10:58:42Z</time>
      </trkpt>
      <trkpt lat="42.69869" lon="0.85785">
        <ele>1129</ele>
        <time>2021-06-19T10:58:46Z</time>
      </trkpt>
      <trkpt lat="42.6986" lon="0.85839">
        <ele>1133</ele>
        <time>2021-06-19T10:58:56Z</time>
      </trkpt>
      <trkpt lat="42.69857" lon="0.85921">
        <ele>1138</ele>
        <time>2021-06-19T10:59:10Z</time>
      </trkpt>
      <trkpt lat="42.69852" lon="0.85959">
        <ele>1142</ele>
        <time>2021-06-19T10:59:16Z</time>
      </trkpt>
      <trkpt lat="42.69853" lon="0.85976">
        <ele>1142</ele>
        <time>2021-06-19T10:59:19Z</time>
      </trkpt>
      <trkpt lat="42.69857" lon="0.85991">
        <ele>1141</ele>
        <time>2021-06-19T10:59:22Z</time>
      </trkpt>
      <trkpt lat="42.69888" lon="0.86087">
        <ele>1132</ele>
        <time>2021-06-19T10:59:40Z</time>
      </trkpt>
      <trkpt lat="42.69887" lon="0.86111">
        <ele>1133</ele>
        <time>2021-06-19T10:59:44Z</time>
      </trkpt>
      <trkpt lat="42.69855" lon="0.863">
        <ele>1138</ele>
        <time>2021-06-19T11:00:17Z</time>
      </trkpt>
      <trkpt lat="42.69852" lon="0.86361">
        <ele>1137</ele>
        <time>2021-06-19T11:00:28Z</time>
      </trkpt>
      <trkpt lat="42.69843" lon="0.86407">
        <ele>1138</ele>
        <time>2021-06-19T11:00:36Z</time>
      </trkpt>
      <trkpt lat="42.69835" lon="0.8643">
        <ele>1140</ele>
        <time>2021-06-19T11:00:40Z</time>
      </trkpt>
      <trkpt lat="42.69831" lon="0.86462">
        <ele>1143</ele>
        <time>2021-06-19T11:00:46Z</time>
      </trkpt>
      <trkpt lat="42.69829" lon="0.86517">
        <ele>1145</ele>
        <time>2021-06-19T11:00:55Z</time>
      </trkpt>
      <trkpt lat="42.6983" lon="0.86575">
        <ele>1142</ele>
        <time>2021-06-19T11:01:05Z</time>
      </trkpt>
      <trkpt lat="42.69822" lon="0.8663">
        <ele>1147</ele>
        <time>2021-06-19T11:01:15Z</time>
      </trkpt>
      <trkpt lat="42.69819" lon="0.86691">
        <ele>1146</ele>
        <time>2021-06-19T11:01:25Z</time>
      </trkpt>
      <trkpt lat="42.69799" lon="0.8678">
        <ele>1154</ele>
        <time>2021-06-19T11:01:41Z</time>
      </trkpt>
      <trkpt lat="42.69795" lon="0.86823">
        <ele>1152</ele>
        <time>2021-06-19T11:01:49Z</time>
      </trkpt>
      <trkpt lat="42.69795" lon="0.86867">
        <ele>1150</ele>
        <time>2021-06-19T11:01:56Z</time>
      </trkpt>
      <trkpt lat="42.69798" lon="0.86909">
        <ele>1147</ele>
        <time>2021-06-19T11:02:04Z</time>
      </trkpt>
      <trkpt lat="42.69808" lon="0.86951">
        <ele>1145</ele>
        <time>2021-06-19T11:02:11Z</time>
      </trkpt>
      <trkpt lat="42.69811" lon="0.86987">
        <ele>1145</ele>
        <time>2021-06-19T11:02:17Z</time>
      </trkpt>
      <trkpt lat="42.69799" lon="0.87035">
        <ele>1147</ele>
        <time>2021-06-19T11:02:26Z</time>
      </trkpt>
      <trkpt lat="42.69811" lon="0.87071">
        <ele>1146</ele>
        <time>2021-06-19T11:02:33Z</time>
      </trkpt>
      <trkpt lat="42.69818" lon="0.87085">
        <ele>1145</ele>
        <time>2021-06-19T11:02:36Z</time>
      </trkpt>
      <trkpt lat="42.69829" lon="0.87092">
        <ele>1144</ele>
        <time>2021-06-19T11:02:39Z</time>
      </trkpt>
      <trkpt lat="42.6984" lon="0.87112">
        <ele>1143</ele>
        <time>2021-06-19T11:02:43Z</time>
      </trkpt>
      <trkpt lat="42.69848" lon="0.87146">
        <ele>1143</ele>
        <time>2021-06-19T11:02:49Z</time>
      </trkpt>
      <trkpt lat="42.69852" lon="0.87154">
        <ele>1143</ele>
        <time>2021-06-19T11:02:51Z</time>
      </trkpt>
      <trkpt lat="42.6986" lon="0.87161">
        <ele>1142</ele>
        <time>2021-06-19T11:02:53Z</time>
      </trkpt>
      <trkpt lat="42.69903" lon="0.87171">
        <ele>1140</ele>
        <time>2021-06-19T11:03:03Z</time>
      </trkpt>
      <trkpt lat="42.69923" lon="0.87184">
        <ele>1140</ele>
        <time>2021-06-19T11:03:08Z</time>
      </trkpt>
      <trkpt lat="42.69962" lon="0.87255">
        <ele>1143</ele>
        <time>2021-06-19T11:03:24Z</time>
      </trkpt>
      <trkpt lat="42.70024" lon="0.87399">
        <ele>1146</ele>
        <time>2021-06-19T11:03:52Z</time>
      </trkpt>
      <trkpt lat="42.70032" lon="0.8748">
        <ele>1149</ele>
        <time>2021-06-19T11:04:06Z</time>
      </trkpt>
      <trkpt lat="42.70042" lon="0.87528">
        <ele>1152</ele>
        <time>2021-06-19T11:04:15Z</time>
      </trkpt>
      <trkpt lat="42.70086" lon="0.87593">
        <ele>1155</ele>
        <time>2021-06-19T11:04:30Z</time>
      </trkpt>
      <trkpt lat="42.70162" lon="0.87685">
        <ele>1161</ele>
        <time>2021-06-19T11:04:54Z</time>
      </trkpt>
      <trkpt lat="42.70188" lon="0.87722">
        <ele>1166</ele>
        <time>2021-06-19T11:05:02Z</time>
      </trkpt>
      <trkpt lat="42.70206" lon="0.87756">
        <ele>1169</ele>
        <time>2021-06-19T11:05:10Z</time>
      </trkpt>
      <trkpt lat="42.70204" lon="0.87769">
        <ele>1170</ele>
        <time>2021-06-19T11:05:12Z</time>
      </trkpt>
      <trkpt lat="42.70206" lon="0.87784">
        <ele>1170</ele>
        <time>2021-06-19T11:05:15Z</time>
      </trkpt>
      <trkpt lat="42.70187" lon="0.87807">
        <ele>1172</ele>
        <time>2021-06-19T11:05:20Z</time>
      </trkpt>
      <trkpt lat="42.70176" lon="0.8783">
        <ele>1173</ele>
        <time>2021-06-19T11:05:25Z</time>
      </trkpt>
      <trkpt lat="42.7017" lon="0.87856">
        <ele>1174</ele>
        <time>2021-06-19T11:05:30Z</time>
      </trkpt>
      <trkpt lat="42.7017" lon="0.87875">
        <ele>1174</ele>
        <time>2021-06-19T11:05:33Z</time>
      </trkpt>
      <trkpt lat="42.70174" lon="0.8789">
        <ele>1174</ele>
        <time>2021-06-19T11:05:36Z</time>
      </trkpt>
      <trkpt lat="42.70176" lon="0.8793">
        <ele>1177</ele>
        <time>2021-06-19T11:05:43Z</time>
      </trkpt>
      <trkpt lat="42.70207" lon="0.88055">
        <ele>1186</ele>
        <time>2021-06-19T11:06:05Z</time>
      </trkpt>
      <trkpt lat="42.70238" lon="0.88142">
        <ele>1190</ele>
        <time>2021-06-19T11:06:22Z</time>
      </trkpt>
      <trkpt lat="42.70266" lon="0.88198">
        <ele>1193</ele>
        <time>2021-06-19T11:06:34Z</time>
      </trkpt>
      <trkpt lat="42.70282" lon="0.88244">
        <ele>1194</ele>
        <time>2021-06-19T11:06:42Z</time>
      </trkpt>
      <trkpt lat="42.70286" lon="0.88304">
        <ele>1196</ele>
        <time>2021-06-19T11:06:53Z</time>
      </trkpt>
      <trkpt lat="42.70285" lon="0.8838">
        <ele>1197</ele>
        <time>2021-06-19T11:07:06Z</time>
      </trkpt>
      <trkpt lat="42.70276" lon="0.88412">
        <ele>1197</ele>
        <time>2021-06-19T11:07:12Z</time>
      </trkpt>
      <trkpt lat="42.70244" lon="0.88501">
        <ele>1201</ele>
        <time>2021-06-19T11:07:29Z</time>
      </trkpt>
      <trkpt lat="42.70239" lon="0.8853">
        <ele>1204</ele>
        <time>2021-06-19T11:07:34Z</time>
      </trkpt>
      <trkpt lat="42.7024" lon="0.88559">
        <ele>1205</ele>
        <time>2021-06-19T11:07:39Z</time>
      </trkpt>
      <trkpt lat="42.70249" lon="0.88612">
        <ele>1205</ele>
        <time>2021-06-19T11:07:48Z</time>
      </trkpt>
      <trkpt lat="42.7026" lon="0.88654">
        <ele>1207</ele>
        <time>2021-06-19T11:07:56Z</time>
      </trkpt>
      <trkpt lat="42.70287" lon="0.88731">
        <ele>1208</ele>
        <time>2021-06-19T11:08:10Z</time>
      </trkpt>
      <trkpt lat="42.70307" lon="0.88818">
        <ele>1210</ele>
        <time>2021-06-19T11:08:26Z</time>
      </trkpt>
      <trkpt lat="42.70323" lon="0.88861">
        <ele>1210</ele>
        <time>2021-06-19T11:08:34Z</time>
      </trkpt>
      <trkpt lat="42.70348" lon="0.88908">
        <ele>1211</ele>
        <time>2021-06-19T11:08:44Z</time>
      </trkpt>
      <trkpt lat="42.70358" lon="0.88942">
        <ele>1213</ele>
        <time>2021-06-19T11:08:50Z</time>
      </trkpt>
      <trkpt lat="42.70374" lon="0.88981">
        <ele>1213</ele>
        <time>2021-06-19T11:08:58Z</time>
      </trkpt>
      <trkpt lat="42.70387" lon="0.89039">
        <ele>1216</ele>
        <time>2021-06-19T11:09:09Z</time>
      </trkpt>
      <trkpt lat="42.70402" lon="0.89078">
        <ele>1215</ele>
        <time>2021-06-19T11:09:16Z</time>
      </trkpt>
      <trkpt lat="42.70422" lon="0.89141">
        <ele>1217</ele>
        <time>2021-06-19T11:09:28Z</time>
      </trkpt>
      <trkpt lat="42.70431" lon="0.89202">
        <ele>1224</ele>
        <time>2021-06-19T11:09:39Z</time>
      </trkpt>
      <trkpt lat="42.70459" lon="0.89302">
        <ele>1226</ele>
        <time>2021-06-19T11:09:57Z</time>
      </trkpt>
      <trkpt lat="42.70491" lon="0.89513">
        <ele>1220</ele>
        <time>2021-06-19T11:10:34Z</time>
      </trkpt>
      <trkpt lat="42.70497" lon="0.89584">
        <ele>1219</ele>
        <time>2021-06-19T11:10:46Z</time>
      </trkpt>
      <trkpt lat="42.70488" lon="0.89785">
        <ele>1239</ele>
        <time>2021-06-19T11:11:21Z</time>
      </trkpt>
      <trkpt lat="42.7053" lon="0.89824">
        <ele>1235</ele>
        <time>2021-06-19T11:11:33Z</time>
      </trkpt>
      <trkpt lat="42.70536" lon="0.89883">
        <ele>1237</ele>
        <time>2021-06-19T11:11:43Z</time>
      </trkpt>
      <trkpt lat="42.70562" lon="0.90049">
        <ele>1239</ele>
        <time>2021-06-19T11:12:12Z</time>
      </trkpt>
      <trkpt lat="42.70582" lon="0.90138">
        <ele>1238</ele>
        <time>2021-06-19T11:12:28Z</time>
      </trkpt>
      <trkpt lat="42.70588" lon="0.90199">
        <ele>1239</ele>
        <time>2021-06-19T11:12:38Z</time>
      </trkpt>
      <trkpt lat="42.70588" lon="0.90321">
        <ele>1241</ele>
        <time>2021-06-19T11:12:59Z</time>
      </trkpt>
      <trkpt lat="42.70587" lon="0.90333">
        <ele>1241</ele>
        <time>2021-06-19T11:13:02Z</time>
      </trkpt>
      <trkpt lat="42.70583" lon="0.90344">
        <ele>1242</ele>
        <time>2021-06-19T11:13:04Z</time>
      </trkpt>
      <trkpt lat="42.70575" lon="0.90352">
        <ele>1243</ele>
        <time>2021-06-19T11:13:06Z</time>
      </trkpt>
      <trkpt lat="42.70523" lon="0.90347">
        <ele>1251</ele>
        <time>2021-06-19T11:13:18Z</time>
      </trkpt>
      <trkpt lat="42.70538" lon="0.90396">
        <ele>1249</ele>
        <time>2021-06-19T11:13:27Z</time>
      </trkpt>
      <trkpt lat="42.70551" lon="0.90417">
        <ele>1249</ele>
        <time>2021-06-19T11:13:32Z</time>
      </trkpt>
      <trkpt lat="42.70567" lon="0.90436">
        <ele>1249</ele>
        <time>2021-06-19T11:13:37Z</time>
      </trkpt>
      <trkpt lat="42.70574" lon="0.9044">
        <ele>1249</ele>
        <time>2021-06-19T11:13:39Z</time>
      </trkpt>
      <trkpt lat="42.7058" lon="0.9044">
        <ele>1249</ele>
        <time>2021-06-19T11:13:40Z</time>
      </trkpt>
      <trkpt lat="42.70564" lon="0.9045">
        <ele>1251</ele>
        <time>2021-06-19T11:13:44Z</time>
      </trkpt>
      <trkpt lat="42.70541" lon="0.90489">
        <ele>1253</ele>
        <time>2021-06-19T11:13:53Z</time>
      </trkpt>
      <trkpt lat="42.70539" lon="0.905">
        <ele>1254</ele>
        <time>2021-06-19T11:13:55Z</time>
      </trkpt>
      <trkpt lat="42.70541" lon="0.90507">
        <ele>1255</ele>
        <time>2021-06-19T11:13:56Z</time>
      </trkpt>
      <trkpt lat="42.70546" lon="0.90505">
        <ele>1255</ele>
        <time>2021-06-19T11:13:57Z</time>
      </trkpt>
      <trkpt lat="42.7055" lon="0.90499">
        <ele>1254</ele>
        <time>2021-06-19T11:13:59Z</time>
      </trkpt>
      <trkpt lat="42.70509" lon="0.90617">
        <ele>1258</ele>
        <time>2021-06-19T11:14:21Z</time>
      </trkpt>
      <trkpt lat="42.70492" lon="0.90688">
        <ele>1261</ele>
        <time>2021-06-19T11:14:34Z</time>
      </trkpt>
      <trkpt lat="42.70489" lon="0.90767">
        <ele>1266</ele>
        <time>2021-06-19T11:14:47Z</time>
      </trkpt>
      <trkpt lat="42.7047" lon="0.90887">
        <ele>1270</ele>
        <time>2021-06-19T11:15:08Z</time>
      </trkpt>
      <trkpt lat="42.70454" lon="0.90968">
        <ele>1276</ele>
        <time>2021-06-19T11:15:23Z</time>
      </trkpt>
      <trkpt lat="42.70455" lon="0.91001">
        <ele>1279</ele>
        <time>2021-06-19T11:15:29Z</time>
      </trkpt>
      <trkpt lat="42.70444" lon="0.91115">
        <ele>1287</ele>
        <time>2021-06-19T11:15:48Z</time>
      </trkpt>
      <trkpt lat="42.70433" lon="0.9115">
        <ele>1288</ele>
        <time>2021-06-19T11:15:55Z</time>
      </trkpt>
      <trkpt lat="42.70411" lon="0.91174">
        <ele>1286</ele>
        <time>2021-06-19T11:16:01Z</time>
      </trkpt>
      <trkpt lat="42.7034" lon="0.91262">
        <ele>1284</ele>
        <time>2021-06-19T11:16:24Z</time>
      </trkpt>
      <trkpt lat="42.70315" lon="0.9127">
        <ele>1285</ele>
        <time>2021-06-19T11:16:30Z</time>
      </trkpt>
      <trkpt lat="42.70294" lon="0.91292">
        <ele>1288</ele>
        <time>2021-06-19T11:16:36Z</time>
      </trkpt>
      <trkpt lat="42.70285" lon="0.91291">
        <ele>1287</ele>
        <time>2021-06-19T11:16:38Z</time>
      </trkpt>
      <trkpt lat="42.70279" lon="0.91282">
        <ele>1287</ele>
        <time>2021-06-19T11:16:40Z</time>
      </trkpt>
      <trkpt lat="42.70273" lon="0.91284">
        <ele>1287</ele>
        <time>2021-06-19T11:16:42Z</time>
      </trkpt>
      <trkpt lat="42.70264" lon="0.91309">
        <ele>1288</ele>
        <time>2021-06-19T11:16:46Z</time>
      </trkpt>
      <trkpt lat="42.70249" lon="0.91337">
        <ele>1289</ele>
        <time>2021-06-19T11:16:52Z</time>
      </trkpt>
      <trkpt lat="42.70208" lon="0.9143">
        <ele>1298</ele>
        <time>2021-06-19T11:17:11Z</time>
      </trkpt>
      <trkpt lat="42.7019" lon="0.91464">
        <ele>1300</ele>
        <time>2021-06-19T11:17:18Z</time>
      </trkpt>
      <trkpt lat="42.70248" lon="0.91454">
        <ele>1299</ele>
        <time>2021-06-19T11:17:32Z</time>
      </trkpt>
      <trkpt lat="42.70263" lon="0.91445">
        <ele>1300</ele>
        <time>2021-06-19T11:17:36Z</time>
      </trkpt>
      <trkpt lat="42.7027" lon="0.9145">
        <ele>1302</ele>
        <time>2021-06-19T11:17:37Z</time>
      </trkpt>
      <trkpt lat="42.70288" lon="0.91474">
        <ele>1306</ele>
        <time>2021-06-19T11:17:43Z</time>
      </trkpt>
      <trkpt lat="42.70292" lon="0.91495">
        <ele>1309</ele>
        <time>2021-06-19T11:17:47Z</time>
      </trkpt>
      <trkpt lat="42.703" lon="0.91511">
        <ele>1312</ele>
        <time>2021-06-19T11:17:50Z</time>
      </trkpt>
      <trkpt lat="42.70295" lon="0.91534">
        <ele>1315</ele>
        <time>2021-06-19T11:17:55Z</time>
      </trkpt>
      <trkpt lat="42.70313" lon="0.91544">
        <ele>1319</ele>
        <time>2021-06-19T11:17:59Z</time>
      </trkpt>
      <trkpt lat="42.70321" lon="0.91559">
        <ele>1322</ele>
        <time>2021-06-19T11:18:02Z</time>
      </trkpt>
      <trkpt lat="42.70331" lon="0.91571">
        <ele>1325</ele>
        <time>2021-06-19T11:18:05Z</time>
      </trkpt>
      <trkpt lat="42.70328" lon="0.9159">
        <ele>1328</ele>
        <time>2021-06-19T11:18:09Z</time>
      </trkpt>
      <trkpt lat="42.70336" lon="0.91605">
        <ele>1331</ele>
        <time>2021-06-19T11:18:12Z</time>
      </trkpt>
      <trkpt lat="42.70343" lon="0.91607">
        <ele>1333</ele>
        <time>2021-06-19T11:18:14Z</time>
      </trkpt>
      <trkpt lat="42.70355" lon="0.916">
        <ele>1334</ele>
        <time>2021-06-19T11:18:17Z</time>
      </trkpt>
      <trkpt lat="42.70485" lon="0.91462">
        <ele>1345</ele>
        <time>2021-06-19T11:18:55Z</time>
      </trkpt>
      <trkpt lat="42.70523" lon="0.91408">
        <ele>1351</ele>
        <time>2021-06-19T11:19:08Z</time>
      </trkpt>
      <trkpt lat="42.70546" lon="0.91358">
        <ele>1353</ele>
        <time>2021-06-19T11:19:18Z</time>
      </trkpt>
      <trkpt lat="42.70558" lon="0.91319">
        <ele>1353</ele>
        <time>2021-06-19T11:19:25Z</time>
      </trkpt>
      <trkpt lat="42.70569" lon="0.91271">
        <ele>1352</ele>
        <time>2021-06-19T11:19:34Z</time>
      </trkpt>
      <trkpt lat="42.70586" lon="0.91175">
        <ele>1348</ele>
        <time>2021-06-19T11:19:51Z</time>
      </trkpt>
      <trkpt lat="42.70593" lon="0.91154">
        <ele>1349</ele>
        <time>2021-06-19T11:19:55Z</time>
      </trkpt>
      <trkpt lat="42.70613" lon="0.91113">
        <ele>1353</ele>
        <time>2021-06-19T11:20:03Z</time>
      </trkpt>
      <trkpt lat="42.70688" lon="0.90996">
        <ele>1361</ele>
        <time>2021-06-19T11:20:30Z</time>
      </trkpt>
      <trkpt lat="42.70698" lon="0.90989">
        <ele>1362</ele>
        <time>2021-06-19T11:20:33Z</time>
      </trkpt>
      <trkpt lat="42.70707" lon="0.90991">
        <ele>1365</ele>
        <time>2021-06-19T11:20:35Z</time>
      </trkpt>
      <trkpt lat="42.70716" lon="0.91001">
        <ele>1369</ele>
        <time>2021-06-19T11:20:37Z</time>
      </trkpt>
      <trkpt lat="42.70718" lon="0.91009">
        <ele>1372</ele>
        <time>2021-06-19T11:20:39Z</time>
      </trkpt>
      <trkpt lat="42.70717" lon="0.91021">
        <ele>1374</ele>
        <time>2021-06-19T11:20:41Z</time>
      </trkpt>
      <trkpt lat="42.70713" lon="0.9103">
        <ele>1375</ele>
        <time>2021-06-19T11:20:43Z</time>
      </trkpt>
      <trkpt lat="42.70683" lon="0.91057">
        <ele>1373</ele>
        <time>2021-06-19T11:20:51Z</time>
      </trkpt>
      <trkpt lat="42.70668" lon="0.91078">
        <ele>1372</ele>
        <time>2021-06-19T11:20:56Z</time>
      </trkpt>
      <trkpt lat="42.70658" lon="0.91105">
        <ele>1373</ele>
        <time>2021-06-19T11:21:01Z</time>
      </trkpt>
      <trkpt lat="42.70625" lon="0.91252">
        <ele>1378</ele>
        <time>2021-06-19T11:21:28Z</time>
      </trkpt>
      <trkpt lat="42.70616" lon="0.91324">
        <ele>1384</ele>
        <time>2021-06-19T11:21:40Z</time>
      </trkpt>
      <trkpt lat="42.70602" lon="0.91517">
        <ele>1404</ele>
        <time>2021-06-19T11:22:14Z</time>
      </trkpt>
      <trkpt lat="42.70592" lon="0.91564">
        <ele>1405</ele>
        <time>2021-06-19T11:22:22Z</time>
      </trkpt>
      <trkpt lat="42.70549" lon="0.91696">
        <ele>1412</ele>
        <time>2021-06-19T11:22:47Z</time>
      </trkpt>
      <trkpt lat="42.70538" lon="0.91721">
        <ele>1414</ele>
        <time>2021-06-19T11:22:52Z</time>
      </trkpt>
      <trkpt lat="42.70528" lon="0.91738">
        <ele>1415</ele>
        <time>2021-06-19T11:22:55Z</time>
      </trkpt>
      <trkpt lat="42.705" lon="0.91775">
        <ele>1414</ele>
        <time>2021-06-19T11:23:05Z</time>
      </trkpt>
      <trkpt lat="42.70463" lon="0.91814">
        <ele>1412</ele>
        <time>2021-06-19T11:23:15Z</time>
      </trkpt>
      <trkpt lat="42.70451" lon="0.91832">
        <ele>1413</ele>
        <time>2021-06-19T11:23:20Z</time>
      </trkpt>
      <trkpt lat="42.7036" lon="0.92">
        <ele>1423</ele>
        <time>2021-06-19T11:23:55Z</time>
      </trkpt>
      <trkpt lat="42.70364" lon="0.92014">
        <ele>1427</ele>
        <time>2021-06-19T11:23:58Z</time>
      </trkpt>
      <trkpt lat="42.70329" lon="0.92088">
        <ele>1431</ele>
        <time>2021-06-19T11:24:13Z</time>
      </trkpt>
      <trkpt lat="42.70268" lon="0.92258">
        <ele>1439</ele>
        <time>2021-06-19T11:24:46Z</time>
      </trkpt>
      <trkpt lat="42.70219" lon="0.92414">
        <ele>1445</ele>
        <time>2021-06-19T11:25:15Z</time>
      </trkpt>
      <trkpt lat="42.70215" lon="0.92413">
        <ele>1444</ele>
        <time>2021-06-19T11:25:16Z</time>
      </trkpt>
      <trkpt lat="42.70175" lon="0.92565">
        <ele>1450</ele>
        <time>2021-06-19T11:25:43Z</time>
      </trkpt>
      <trkpt lat="42.70151" lon="0.92623">
        <ele>1453</ele>
        <time>2021-06-19T11:25:55Z</time>
      </trkpt>
      <trkpt lat="42.70082" lon="0.92757">
        <ele>1460</ele>
        <time>2021-06-19T11:26:23Z</time>
      </trkpt>
      <trkpt lat="42.70076" lon="0.92784">
        <ele>1464</ele>
        <time>2021-06-19T11:26:28Z</time>
      </trkpt>
      <trkpt lat="42.70077" lon="0.92814">
        <ele>1469</ele>
        <time>2021-06-19T11:26:33Z</time>
      </trkpt>
      <trkpt lat="42.70051" lon="0.92877">
        <ele>1474</ele>
        <time>2021-06-19T11:26:45Z</time>
      </trkpt>
      <trkpt lat="42.70005" lon="0.92974">
        <ele>1475</ele>
        <time>2021-06-19T11:27:05Z</time>
      </trkpt>
      <trkpt lat="42.69989" lon="0.93013">
        <ele>1476</ele>
        <time>2021-06-19T11:27:13Z</time>
      </trkpt>
      <trkpt lat="42.69977" lon="0.93049">
        <ele>1478</ele>
        <time>2021-06-19T11:27:20Z</time>
      </trkpt>
      <trkpt lat="42.69966" lon="0.93119">
        <ele>1483</ele>
        <time>2021-06-19T11:27:32Z</time>
      </trkpt>
      <trkpt lat="42.69959" lon="0.93311">
        <ele>1496</ele>
        <time>2021-06-19T11:28:05Z</time>
      </trkpt>
      <trkpt lat="42.69955" lon="0.93338">
        <ele>1498</ele>
        <time>2021-06-19T11:28:10Z</time>
      </trkpt>
      <trkpt lat="42.69945" lon="0.93357">
        <ele>1499</ele>
        <time>2021-06-19T11:28:14Z</time>
      </trkpt>
      <trkpt lat="42.69906" lon="0.93379">
        <ele>1498</ele>
        <time>2021-06-19T11:28:23Z</time>
      </trkpt>
      <trkpt lat="42.69831" lon="0.93413">
        <ele>1498</ele>
        <time>2021-06-19T11:28:42Z</time>
      </trkpt>
      <trkpt lat="42.69822" lon="0.9342">
        <ele>1497</ele>
        <time>2021-06-19T11:28:44Z</time>
      </trkpt>
      <trkpt lat="42.69801" lon="0.93445">
        <ele>1497</ele>
        <time>2021-06-19T11:28:51Z</time>
      </trkpt>
      <trkpt lat="42.69781" lon="0.93475">
        <ele>1499</ele>
        <time>2021-06-19T11:28:58Z</time>
      </trkpt>
      <trkpt lat="42.6977" lon="0.93473">
        <ele>1496</ele>
        <time>2021-06-19T11:29:00Z</time>
      </trkpt>
      <trkpt lat="42.69758" lon="0.93488">
        <ele>1496</ele>
        <time>2021-06-19T11:29:04Z</time>
      </trkpt>
      <trkpt lat="42.69754" lon="0.93501">
        <ele>1498</ele>
        <time>2021-06-19T11:29:07Z</time>
      </trkpt>
      <trkpt lat="42.69756" lon="0.93509">
        <ele>1501</ele>
        <time>2021-06-19T11:29:08Z</time>
      </trkpt>
      <trkpt lat="42.69742" lon="0.93534">
        <ele>1506</ele>
        <time>2021-06-19T11:29:13Z</time>
      </trkpt>
      <trkpt lat="42.69737" lon="0.93536">
        <ele>1505</ele>
        <time>2021-06-19T11:29:15Z</time>
      </trkpt>
      <trkpt lat="42.69731" lon="0.93544">
        <ele>1507</ele>
        <time>2021-06-19T11:29:17Z</time>
      </trkpt>
      <trkpt lat="42.69727" lon="0.93545">
        <ele>1506</ele>
        <time>2021-06-19T11:29:18Z</time>
      </trkpt>
      <trkpt lat="42.6972" lon="0.9356">
        <ele>1509</ele>
        <time>2021-06-19T11:29:21Z</time>
      </trkpt>
      <trkpt lat="42.69719" lon="0.93572">
        <ele>1513</ele>
        <time>2021-06-19T11:29:23Z</time>
      </trkpt>
      <trkpt lat="42.69671" lon="0.93612">
        <ele>1517</ele>
        <time>2021-06-19T11:29:36Z</time>
      </trkpt>
      <trkpt lat="42.69658" lon="0.93626">
        <ele>1519</ele>
        <time>2021-06-19T11:29:40Z</time>
      </trkpt>
      <trkpt lat="42.69508" lon="0.93839">
        <ele>1539</ele>
        <time>2021-06-19T11:30:30Z</time>
      </trkpt>
      <trkpt lat="42.69481" lon="0.93864">
        <ele>1541</ele>
        <time>2021-06-19T11:30:38Z</time>
      </trkpt>
      <trkpt lat="42.69458" lon="0.93876">
        <ele>1540</ele>
        <time>2021-06-19T11:30:44Z</time>
      </trkpt>
      <trkpt lat="42.69438" lon="0.9389">
        <ele>1540</ele>
        <time>2021-06-19T11:30:49Z</time>
      </trkpt>
      <trkpt lat="42.69416" lon="0.93917">
        <ele>1544</ele>
        <time>2021-06-19T11:30:56Z</time>
      </trkpt>
      <trkpt lat="42.69363" lon="0.94007">
        <ele>1547</ele>
        <time>2021-06-19T11:31:16Z</time>
      </trkpt>
      <trkpt lat="42.69345" lon="0.94047">
        <ele>1552</ele>
        <time>2021-06-19T11:31:24Z</time>
      </trkpt>
      <trkpt lat="42.69328" lon="0.94096">
        <ele>1559</ele>
        <time>2021-06-19T11:31:33Z</time>
      </trkpt>
      <trkpt lat="42.69311" lon="0.94133">
        <ele>1563</ele>
        <time>2021-06-19T11:31:41Z</time>
      </trkpt>
      <trkpt lat="42.69246" lon="0.94243">
        <ele>1567</ele>
        <time>2021-06-19T11:32:05Z</time>
      </trkpt>
      <trkpt lat="42.69182" lon="0.94359">
        <ele>1580</ele>
        <time>2021-06-19T11:32:30Z</time>
      </trkpt>
      <trkpt lat="42.6916" lon="0.94394">
        <ele>1582</ele>
        <time>2021-06-19T11:32:38Z</time>
      </trkpt>
      <trkpt lat="42.69137" lon="0.94425">
        <ele>1583</ele>
        <time>2021-06-19T11:32:45Z</time>
      </trkpt>
      <trkpt lat="42.69054" lon="0.94518">
        <ele>1593</ele>
        <time>2021-06-19T11:33:10Z</time>
      </trkpt>
      <trkpt lat="42.69033" lon="0.94538">
        <ele>1597</ele>
        <time>2021-06-19T11:33:16Z</time>
      </trkpt>
      <trkpt lat="42.6898" lon="0.94575">
        <ele>1598</ele>
        <time>2021-06-19T11:33:30Z</time>
      </trkpt>
      <trkpt lat="42.68904" lon="0.94618">
        <ele>1599</ele>
        <time>2021-06-19T11:33:49Z</time>
      </trkpt>
      <trkpt lat="42.68874" lon="0.94638">
        <ele>1598</ele>
        <time>2021-06-19T11:33:57Z</time>
      </trkpt>
      <trkpt lat="42.68822" lon="0.94685">
        <ele>1602</ele>
        <time>2021-06-19T11:34:12Z</time>
      </trkpt>
      <trkpt lat="42.68748" lon="0.94779">
        <ele>1613</ele>
        <time>2021-06-19T11:34:35Z</time>
      </trkpt>
      <trkpt lat="42.68439" lon="0.95221">
        <ele>1645</ele>
        <time>2021-06-19T11:36:20Z</time>
      </trkpt>
      <trkpt lat="42.6831" lon="0.95384">
        <ele>1661</ele>
        <time>2021-06-19T11:37:01Z</time>
      </trkpt>
      <trkpt lat="42.68238" lon="0.95464">
        <ele>1665</ele>
        <time>2021-06-19T11:37:23Z</time>
      </trkpt>
      <trkpt lat="42.68184" lon="0.95518">
        <ele>1671</ele>
        <time>2021-06-19T11:37:39Z</time>
      </trkpt>
      <trkpt lat="42.68053" lon="0.95598">
        <ele>1676</ele>
        <time>2021-06-19T11:38:12Z</time>
      </trkpt>
      <trkpt lat="42.68024" lon="0.95618">
        <ele>1677</ele>
        <time>2021-06-19T11:38:20Z</time>
      </trkpt>
      <trkpt lat="42.67973" lon="0.95662">
        <ele>1681</ele>
        <time>2021-06-19T11:38:34Z</time>
      </trkpt>
      <trkpt lat="42.67911" lon="0.95722">
        <ele>1691</ele>
        <time>2021-06-19T11:38:52Z</time>
      </trkpt>
      <trkpt lat="42.67891" lon="0.95738">
        <ele>1693</ele>
        <time>2021-06-19T11:38:57Z</time>
      </trkpt>
      <trkpt lat="42.67884" lon="0.95735">
        <ele>1689</ele>
        <time>2021-06-19T11:38:59Z</time>
      </trkpt>
      <trkpt lat="42.67837" lon="0.95775">
        <ele>1692</ele>
        <time>2021-06-19T11:39:12Z</time>
      </trkpt>
      <trkpt lat="42.67836" lon="0.95785">
        <ele>1697</ele>
        <time>2021-06-19T11:39:13Z</time>
      </trkpt>
      <trkpt lat="42.67803" lon="0.95812">
        <ele>1701</ele>
        <time>2021-06-19T11:39:22Z</time>
      </trkpt>
      <trkpt lat="42.67775" lon="0.95829">
        <ele>1701</ele>
        <time>2021-06-19T11:39:30Z</time>
      </trkpt>
      <trkpt lat="42.67676" lon="0.95858">
        <ele>1705</ele>
        <time>2021-06-19T11:39:53Z</time>
      </trkpt>
      <trkpt lat="42.67638" lon="0.95872">
        <ele>1708</ele>
        <time>2021-06-19T11:40:02Z</time>
      </trkpt>
      <trkpt lat="42.6758" lon="0.959">
        <ele>1714</ele>
        <time>2021-06-19T11:40:17Z</time>
      </trkpt>
      <trkpt lat="42.67502" lon="0.95948">
        <ele>1724</ele>
        <time>2021-06-19T11:40:37Z</time>
      </trkpt>
      <trkpt lat="42.67454" lon="0.95987">
        <ele>1727</ele>
        <time>2021-06-19T11:40:50Z</time>
      </trkpt>
      <trkpt lat="42.67277" lon="0.96192">
        <ele>1740</ele>
        <time>2021-06-19T11:41:44Z</time>
      </trkpt>
      <trkpt lat="42.67146" lon="0.96389">
        <ele>1758</ele>
        <time>2021-06-19T11:42:30Z</time>
      </trkpt>
      <trkpt lat="42.67092" lon="0.96448">
        <ele>1760</ele>
        <time>2021-06-19T11:42:46Z</time>
      </trkpt>
      <trkpt lat="42.67014" lon="0.96549">
        <ele>1768</ele>
        <time>2021-06-19T11:43:11Z</time>
      </trkpt>
      <trkpt lat="42.66954" lon="0.96644">
        <ele>1778</ele>
        <time>2021-06-19T11:43:33Z</time>
      </trkpt>
      <trkpt lat="42.66899" lon="0.96757">
        <ele>1788</ele>
        <time>2021-06-19T11:43:56Z</time>
      </trkpt>
      <trkpt lat="42.66863" lon="0.96808">
        <ele>1788</ele>
        <time>2021-06-19T11:44:08Z</time>
      </trkpt>
      <trkpt lat="42.66815" lon="0.9686">
        <ele>1782</ele>
        <time>2021-06-19T11:44:22Z</time>
      </trkpt>
      <trkpt lat="42.6681" lon="0.96872">
        <ele>1783</ele>
        <time>2021-06-19T11:44:25Z</time>
      </trkpt>
      <trkpt lat="42.6681" lon="0.96881">
        <ele>1785</ele>
        <time>2021-06-19T11:44:26Z</time>
      </trkpt>
      <trkpt lat="42.66816" lon="0.96892">
        <ele>1790</ele>
        <time>2021-06-19T11:44:29Z</time>
      </trkpt>
      <trkpt lat="42.66827" lon="0.96892">
        <ele>1795</ele>
        <time>2021-06-19T11:44:31Z</time>
      </trkpt>
      <trkpt lat="42.66844" lon="0.96881">
        <ele>1800</ele>
        <time>2021-06-19T11:44:35Z</time>
      </trkpt>
      <trkpt lat="42.66896" lon="0.96812">
        <ele>1806</ele>
        <time>2021-06-19T11:44:52Z</time>
      </trkpt>
      <trkpt lat="42.66938" lon="0.96763">
        <ele>1813</ele>
        <time>2021-06-19T11:45:05Z</time>
      </trkpt>
      <trkpt lat="42.66959" lon="0.96714">
        <ele>1808</ele>
        <time>2021-06-19T11:45:15Z</time>
      </trkpt>
      <trkpt lat="42.66968" lon="0.967">
        <ele>1808</ele>
        <time>2021-06-19T11:45:18Z</time>
      </trkpt>
      <trkpt lat="42.6699" lon="0.96673">
        <ele>1811</ele>
        <time>2021-06-19T11:45:25Z</time>
      </trkpt>
      <trkpt lat="42.67014" lon="0.96649">
        <ele>1814</ele>
        <time>2021-06-19T11:45:32Z</time>
      </trkpt>
      <trkpt lat="42.67032" lon="0.96625">
        <ele>1812</ele>
        <time>2021-06-19T11:45:38Z</time>
      </trkpt>
      <trkpt lat="42.67039" lon="0.96618">
        <ele>1812</ele>
        <time>2021-06-19T11:45:40Z</time>
      </trkpt>
      <trkpt lat="42.67064" lon="0.96604">
        <ele>1818</ele>
        <time>2021-06-19T11:45:46Z</time>
      </trkpt>
      <trkpt lat="42.67093" lon="0.96582">
        <ele>1821</ele>
        <time>2021-06-19T11:45:54Z</time>
      </trkpt>
      <trkpt lat="42.67124" lon="0.96573">
        <ele>1826</ele>
        <time>2021-06-19T11:46:02Z</time>
      </trkpt>
      <trkpt lat="42.67138" lon="0.96566">
        <ele>1827</ele>
        <time>2021-06-19T11:46:05Z</time>
      </trkpt>
      <trkpt lat="42.67172" lon="0.96535">
        <ele>1828</ele>
        <time>2021-06-19T11:46:15Z</time>
      </trkpt>
      <trkpt lat="42.672" lon="0.96517">
        <ele>1835</ele>
        <time>2021-06-19T11:46:22Z</time>
      </trkpt>
      <trkpt lat="42.67208" lon="0.96502">
        <ele>1834</ele>
        <time>2021-06-19T11:46:25Z</time>
      </trkpt>
      <trkpt lat="42.67229" lon="0.96487">
        <ele>1838</ele>
        <time>2021-06-19T11:46:31Z</time>
      </trkpt>
      <trkpt lat="42.67256" lon="0.96449">
        <ele>1835</ele>
        <time>2021-06-19T11:46:40Z</time>
      </trkpt>
      <trkpt lat="42.67269" lon="0.96436">
        <ele>1835</ele>
        <time>2021-06-19T11:46:43Z</time>
      </trkpt>
      <trkpt lat="42.6735" lon="0.96363">
        <ele>1839</ele>
        <time>2021-06-19T11:47:06Z</time>
      </trkpt>
      <trkpt lat="42.67391" lon="0.96335">
        <ele>1848</ele>
        <time>2021-06-19T11:47:17Z</time>
      </trkpt>
      <trkpt lat="42.67403" lon="0.96318">
        <ele>1849</ele>
        <time>2021-06-19T11:47:21Z</time>
      </trkpt>
      <trkpt lat="42.67409" lon="0.96286">
        <ele>1843</ele>
        <time>2021-06-19T11:47:27Z</time>
      </trkpt>
      <trkpt lat="42.67414" lon="0.96282">
        <ele>1844</ele>
        <time>2021-06-19T11:47:28Z</time>
      </trkpt>
      <trkpt lat="42.67421" lon="0.96284">
        <ele>1849</ele>
        <time>2021-06-19T11:47:30Z</time>
      </trkpt>
      <trkpt lat="42.67423" lon="0.96299">
        <ele>1854</ele>
        <time>2021-06-19T11:47:32Z</time>
      </trkpt>
      <trkpt lat="42.6741" lon="0.96334">
        <ele>1857</ele>
        <time>2021-06-19T11:47:39Z</time>
      </trkpt>
      <trkpt lat="42.67401" lon="0.96348">
        <ele>1859</ele>
        <time>2021-06-19T11:47:42Z</time>
      </trkpt>
      <trkpt lat="42.67341" lon="0.96399">
        <ele>1850</ele>
        <time>2021-06-19T11:47:59Z</time>
      </trkpt>
      <trkpt lat="42.67304" lon="0.96453">
        <ele>1857</ele>
        <time>2021-06-19T11:48:11Z</time>
      </trkpt>
      <trkpt lat="42.67276" lon="0.96486">
        <ele>1859</ele>
        <time>2021-06-19T11:48:20Z</time>
      </trkpt>
      <trkpt lat="42.67241" lon="0.96546">
        <ele>1864</ele>
        <time>2021-06-19T11:48:33Z</time>
      </trkpt>
      <trkpt lat="42.67232" lon="0.96599">
        <ele>1876</ele>
        <time>2021-06-19T11:48:42Z</time>
      </trkpt>
      <trkpt lat="42.67222" lon="0.96619">
        <ele>1878</ele>
        <time>2021-06-19T11:48:47Z</time>
      </trkpt>
      <trkpt lat="42.67184" lon="0.96663">
        <ele>1876</ele>
        <time>2021-06-19T11:48:58Z</time>
      </trkpt>
      <trkpt lat="42.67161" lon="0.96683">
        <ele>1877</ele>
        <time>2021-06-19T11:49:05Z</time>
      </trkpt>
      <trkpt lat="42.6714" lon="0.96698">
        <ele>1880</ele>
        <time>2021-06-19T11:49:10Z</time>
      </trkpt>
      <trkpt lat="42.67122" lon="0.96707">
        <ele>1880</ele>
        <time>2021-06-19T11:49:15Z</time>
      </trkpt>
      <trkpt lat="42.67076" lon="0.96722">
        <ele>1875</ele>
        <time>2021-06-19T11:49:26Z</time>
      </trkpt>
      <trkpt lat="42.67066" lon="0.96728">
        <ele>1872</ele>
        <time>2021-06-19T11:49:28Z</time>
      </trkpt>
      <trkpt lat="42.67061" lon="0.96734">
        <ele>1872</ele>
        <time>2021-06-19T11:49:30Z</time>
      </trkpt>
      <trkpt lat="42.67012" lon="0.96871">
        <ele>1891</ele>
        <time>2021-06-19T11:49:56Z</time>
      </trkpt>
      <trkpt lat="42.67002" lon="0.96885">
        <ele>1891</ele>
        <time>2021-06-19T11:49:59Z</time>
      </trkpt>
      <trkpt lat="42.67007" lon="0.96895">
        <ele>1895</ele>
        <time>2021-06-19T11:50:01Z</time>
      </trkpt>
      <trkpt lat="42.67013" lon="0.96895">
        <ele>1898</ele>
        <time>2021-06-19T11:50:03Z</time>
      </trkpt>
      <trkpt lat="42.67018" lon="0.96889">
        <ele>1899</ele>
        <time>2021-06-19T11:50:04Z</time>
      </trkpt>
      <trkpt lat="42.6705" lon="0.96794">
        <ele>1886</ele>
        <time>2021-06-19T11:50:22Z</time>
      </trkpt>
      <trkpt lat="42.67065" lon="0.9677">
        <ele>1886</ele>
        <time>2021-06-19T11:50:28Z</time>
      </trkpt>
      <trkpt lat="42.6712" lon="0.96745">
        <ele>1895</ele>
        <time>2021-06-19T11:50:41Z</time>
      </trkpt>
      <trkpt lat="42.67165" lon="0.96739">
        <ele>1903</ele>
        <time>2021-06-19T11:50:52Z</time>
      </trkpt>
      <trkpt lat="42.67197" lon="0.9673">
        <ele>1910</ele>
        <time>2021-06-19T11:50:59Z</time>
      </trkpt>
      <trkpt lat="42.67228" lon="0.96712">
        <ele>1913</ele>
        <time>2021-06-19T11:51:07Z</time>
      </trkpt>
      <trkpt lat="42.67256" lon="0.96684">
        <ele>1913</ele>
        <time>2021-06-19T11:51:15Z</time>
      </trkpt>
      <trkpt lat="42.67284" lon="0.96638">
        <ele>1911</ele>
        <time>2021-06-19T11:51:26Z</time>
      </trkpt>
      <trkpt lat="42.67325" lon="0.96603">
        <ele>1918</ele>
        <time>2021-06-19T11:51:37Z</time>
      </trkpt>
      <trkpt lat="42.67356" lon="0.96554">
        <ele>1917</ele>
        <time>2021-06-19T11:51:48Z</time>
      </trkpt>
      <trkpt lat="42.67386" lon="0.9652">
        <ele>1921</ele>
        <time>2021-06-19T11:51:57Z</time>
      </trkpt>
      <trkpt lat="42.67404" lon="0.96493">
        <ele>1920</ele>
        <time>2021-06-19T11:52:03Z</time>
      </trkpt>
      <trkpt lat="42.67435" lon="0.9646">
        <ele>1922</ele>
        <time>2021-06-19T11:52:13Z</time>
      </trkpt>
      <trkpt lat="42.67505" lon="0.964">
        <ele>1931</ele>
        <time>2021-06-19T11:52:32Z</time>
      </trkpt>
      <trkpt lat="42.67527" lon="0.96363">
        <ele>1931</ele>
        <time>2021-06-19T11:52:40Z</time>
      </trkpt>
      <trkpt lat="42.67535" lon="0.96345">
        <ele>1929</ele>
        <time>2021-06-19T11:52:44Z</time>
      </trkpt>
      <trkpt lat="42.67541" lon="0.96343">
        <ele>1932</ele>
        <time>2021-06-19T11:52:45Z</time>
      </trkpt>
      <trkpt lat="42.67546" lon="0.96348">
        <ele>1937</ele>
        <time>2021-06-19T11:52:47Z</time>
      </trkpt>
      <trkpt lat="42.67545" lon="0.96357">
        <ele>1940</ele>
        <time>2021-06-19T11:52:48Z</time>
      </trkpt>
      <trkpt lat="42.67539" lon="0.9637">
        <ele>1942</ele>
        <time>2021-06-19T11:52:51Z</time>
      </trkpt>
      <trkpt lat="42.67519" lon="0.96403">
        <ele>1942</ele>
        <time>2021-06-19T11:52:58Z</time>
      </trkpt>
      <trkpt lat="42.67456" lon="0.96487">
        <ele>1943</ele>
        <time>2021-06-19T11:53:19Z</time>
      </trkpt>
      <trkpt lat="42.6739" lon="0.96616">
        <ele>1956</ele>
        <time>2021-06-19T11:53:46Z</time>
      </trkpt>
      <trkpt lat="42.67368" lon="0.96665">
        <ele>1962</ele>
        <time>2021-06-19T11:53:56Z</time>
      </trkpt>
      <trkpt lat="42.6735" lon="0.96682">
        <ele>1960</ele>
        <time>2021-06-19T11:54:01Z</time>
      </trkpt>
      <trkpt lat="42.67307" lon="0.96733">
        <ele>1962</ele>
        <time>2021-06-19T11:54:14Z</time>
      </trkpt>
      <trkpt lat="42.67283" lon="0.96779">
        <ele>1971</ele>
        <time>2021-06-19T11:54:24Z</time>
      </trkpt>
      <trkpt lat="42.67273" lon="0.96791">
        <ele>1971</ele>
        <time>2021-06-19T11:54:27Z</time>
      </trkpt>
      <trkpt lat="42.67217" lon="0.96844">
        <ele>1971</ele>
        <time>2021-06-19T11:54:43Z</time>
      </trkpt>
      <trkpt lat="42.67141" lon="0.96951">
        <ele>1975</ele>
        <time>2021-06-19T11:55:08Z</time>
      </trkpt>
      <trkpt lat="42.67099" lon="0.97043">
        <ele>1985</ele>
        <time>2021-06-19T11:55:27Z</time>
      </trkpt>
      <trkpt lat="42.67076" lon="0.97102">
        <ele>1990</ele>
        <time>2021-06-19T11:55:38Z</time>
      </trkpt>
      <trkpt lat="42.67039" lon="0.97213">
        <ele>1997</ele>
        <time>2021-06-19T11:55:59Z</time>
      </trkpt>
      <trkpt lat="42.67027" lon="0.97263">
        <ele>1999</ele>
        <time>2021-06-19T11:56:08Z</time>
      </trkpt>
      <trkpt lat="42.67012" lon="0.97363">
        <ele>2004</ele>
        <time>2021-06-19T11:56:26Z</time>
      </trkpt>
      <trkpt lat="42.66958" lon="0.97538">
        <ele>2018</ele>
        <time>2021-06-19T11:56:58Z</time>
      </trkpt>
      <trkpt lat="42.66916" lon="0.97645">
        <ele>2024</ele>
        <time>2021-06-19T11:57:19Z</time>
      </trkpt>
      <trkpt lat="42.66895" lon="0.97679">
        <ele>2027</ele>
        <time>2021-06-19T11:57:27Z</time>
      </trkpt>
      <trkpt lat="42.66875" lon="0.97732">
        <ele>2035</ele>
        <time>2021-06-19T11:57:37Z</time>
      </trkpt>
      <trkpt lat="42.66833" lon="0.97786">
        <ele>2036</ele>
        <time>2021-06-19T11:57:51Z</time>
      </trkpt>
      <trkpt lat="42.66813" lon="0.97803">
        <ele>2040</ele>
        <time>2021-06-19T11:57:56Z</time>
      </trkpt>
      <trkpt lat="42.66789" lon="0.97804">
        <ele>2040</ele>
        <time>2021-06-19T11:58:02Z</time>
      </trkpt>
      <trkpt lat="42.66713" lon="0.97783">
        <ele>2039</ele>
        <time>2021-06-19T11:58:20Z</time>
      </trkpt>
      <trkpt lat="42.66702" lon="0.97782">
        <ele>2039</ele>
        <time>2021-06-19T11:58:22Z</time>
      </trkpt>
      <trkpt lat="42.66643" lon="0.97806">
        <ele>2050</ele>
        <time>2021-06-19T11:58:37Z</time>
      </trkpt>
      <trkpt lat="42.66625" lon="0.97807">
        <ele>2052</ele>
        <time>2021-06-19T11:58:41Z</time>
      </trkpt>
      <trkpt lat="42.66579" lon="0.97799">
        <ele>2057</ele>
        <time>2021-06-19T11:58:52Z</time>
      </trkpt>
      <trkpt lat="42.66562" lon="0.97803">
        <ele>2059</ele>
        <time>2021-06-19T11:58:56Z</time>
      </trkpt>
      <trkpt lat="42.66546" lon="0.97812">
        <ele>2061</ele>
        <time>2021-06-19T11:59:00Z</time>
      </trkpt>
      <trkpt lat="42.66533" lon="0.97816">
        <ele>2062</ele>
        <time>2021-06-19T11:59:03Z</time>
      </trkpt>
      <trkpt lat="42.6651" lon="0.97831">
        <ele>2064</ele>
        <time>2021-06-19T11:59:09Z</time>
      </trkpt>
      <trkpt lat="42.66494" lon="0.97835">
        <ele>2064</ele>
        <time>2021-06-19T11:59:13Z</time>
      </trkpt>
      <trkpt lat="42.66474" lon="0.97829">
        <ele>2065</ele>
        <time>2021-06-19T11:59:18Z</time>
      </trkpt>
      <trkpt lat="42.66472" lon="0.97832">
        <ele>2065</ele>
        <time>2021-06-19T11:59:18Z</time>
      </trkpt>
      <trkpt lat="42.66465" lon="0.9783">
        <ele>2065</ele>
        <time>2021-06-19T11:59:20Z</time>
      </trkpt>
      <trkpt lat="42.66454" lon="0.97835">
        <ele>2066</ele>
        <time>2021-06-19T11:59:23Z</time>
      </trkpt>
      <trkpt lat="42.66434" lon="0.97853">
        <ele>2066</ele>
        <time>2021-06-19T11:59:28Z</time>
      </trkpt>
      <trkpt lat="42.66415" lon="0.97886">
        <ele>2066</ele>
        <time>2021-06-19T11:59:35Z</time>
      </trkpt>
      <trkpt lat="42.66383" lon="0.97991">
        <ele>2069</ele>
        <time>2021-06-19T11:59:55Z</time>
      </trkpt>
      <trkpt lat="42.66373" lon="0.98035">
        <ele>2075</ele>
        <time>2021-06-19T12:00:03Z</time>
      </trkpt>
      <trkpt lat="42.66372" lon="0.98099">
        <ele>2081</ele>
        <time>2021-06-19T12:00:14Z</time>
      </trkpt>
      <trkpt lat="42.66369" lon="0.9812">
        <ele>2081</ele>
        <time>2021-06-19T12:00:18Z</time>
      </trkpt>
      <trkpt lat="42.6635" lon="0.98171">
        <ele>2079</ele>
        <time>2021-06-19T12:00:27Z</time>
      </trkpt>
      <trkpt lat="42.66346" lon="0.98188">
        <ele>2078</ele>
        <time>2021-06-19T12:00:30Z</time>
      </trkpt>
      <trkpt lat="42.66345" lon="0.98216">
        <ele>2079</ele>
        <time>2021-06-19T12:00:35Z</time>
      </trkpt>
      <trkpt lat="42.66355" lon="0.98268">
        <ele>2083</ele>
        <time>2021-06-19T12:00:44Z</time>
      </trkpt>
      <trkpt lat="42.66356" lon="0.98288">
        <ele>2085</ele>
        <time>2021-06-19T12:00:48Z</time>
      </trkpt>
      <trkpt lat="42.66354" lon="0.98303">
        <ele>2085</ele>
        <time>2021-06-19T12:00:51Z</time>
      </trkpt>
      <trkpt lat="42.66343" lon="0.9835">
        <ele>2084</ele>
        <time>2021-06-19T12:00:59Z</time>
      </trkpt>
      <trkpt lat="42.66294" lon="0.98452">
        <ele>2078</ele>
        <time>2021-06-19T12:01:20Z</time>
      </trkpt>
      <trkpt lat="42.6623" lon="0.98671">
        <ele>2068</ele>
        <time>2021-06-19T12:02:00Z</time>
      </trkpt>
      <trkpt lat="42.66217" lon="0.98736">
        <ele>2070</ele>
        <time>2021-06-19T12:02:12Z</time>
      </trkpt>
      <trkpt lat="42.66195" lon="0.98797">
        <ele>2065</ele>
        <time>2021-06-19T12:02:24Z</time>
      </trkpt>
      <trkpt lat="42.66181" lon="0.98871">
        <ele>2062</ele>
        <time>2021-06-19T12:02:37Z</time>
      </trkpt>
      <trkpt lat="42.66168" lon="0.98981">
        <ele>2059</ele>
        <time>2021-06-19T12:02:56Z</time>
      </trkpt>
      <trkpt lat="42.66161" lon="0.99021">
        <ele>2057</ele>
        <time>2021-06-19T12:03:03Z</time>
      </trkpt>
      <trkpt lat="42.6614" lon="0.99117">
        <ele>2055</ele>
        <time>2021-06-19T12:03:20Z</time>
      </trkpt>
      <trkpt lat="42.66136" lon="0.99123">
        <ele>2054</ele>
        <time>2021-06-19T12:03:22Z</time>
      </trkpt>
      <trkpt lat="42.66138" lon="0.99136">
        <ele>2056</ele>
        <time>2021-06-19T12:03:24Z</time>
      </trkpt>
      <trkpt lat="42.66127" lon="0.99227">
        <ele>2062</ele>
        <time>2021-06-19T12:03:40Z</time>
      </trkpt>
      <trkpt lat="42.66131" lon="0.99242">
        <ele>2065</ele>
        <time>2021-06-19T12:03:42Z</time>
      </trkpt>
      <trkpt lat="42.66128" lon="0.99281">
        <ele>2067</ele>
        <time>2021-06-19T12:03:49Z</time>
      </trkpt>
      <trkpt lat="42.66135" lon="0.993">
        <ele>2071</ele>
        <time>2021-06-19T12:03:53Z</time>
      </trkpt>
      <trkpt lat="42.6615" lon="0.99391">
        <ele>2087</ele>
        <time>2021-06-19T12:04:09Z</time>
      </trkpt>
      <trkpt lat="42.66148" lon="0.99458">
        <ele>2089</ele>
        <time>2021-06-19T12:04:20Z</time>
      </trkpt>
      <trkpt lat="42.66159" lon="0.99507">
        <ele>2098</ele>
        <time>2021-06-19T12:04:29Z</time>
      </trkpt>
      <trkpt lat="42.6617" lon="0.99503">
        <ele>2105</ele>
        <time>2021-06-19T12:04:32Z</time>
      </trkpt>
      <trkpt lat="42.66188" lon="0.99608">
        <ele>2129</ele>
        <time>2021-06-19T12:04:50Z</time>
      </trkpt>
      <trkpt lat="42.66212" lon="0.99659">
        <ele>2141</ele>
        <time>2021-06-19T12:05:01Z</time>
      </trkpt>
      <trkpt lat="42.66244" lon="0.99685">
        <ele>2154</ele>
        <time>2021-06-19T12:05:09Z</time>
      </trkpt>
      <trkpt lat="42.66281" lon="0.99689">
        <ele>2170</ele>
        <time>2021-06-19T12:05:18Z</time>
      </trkpt>
      <trkpt lat="42.66289" lon="0.9968">
        <ele>2174</ele>
        <time>2021-06-19T12:05:20Z</time>
      </trkpt>
      <trkpt lat="42.66283" lon="0.9967">
        <ele>2172</ele>
        <time>2021-06-19T12:05:23Z</time>
      </trkpt>
      <trkpt lat="42.6629" lon="0.99653">
        <ele>2176</ele>
        <time>2021-06-19T12:05:26Z</time>
      </trkpt>
      <trkpt lat="42.66287" lon="0.99643">
        <ele>2175</ele>
        <time>2021-06-19T12:05:28Z</time>
      </trkpt>
      <trkpt lat="42.66287" lon="0.99636">
        <ele>2176</ele>
        <time>2021-06-19T12:05:29Z</time>
      </trkpt>
      <trkpt lat="42.6629" lon="0.99633">
        <ele>2177</ele>
        <time>2021-06-19T12:05:30Z</time>
      </trkpt>
      <trkpt lat="42.66323" lon="0.99666">
        <ele>2189</ele>
        <time>2021-06-19T12:05:40Z</time>
      </trkpt>
      <trkpt lat="42.66335" lon="0.99695">
        <ele>2195</ele>
        <time>2021-06-19T12:05:45Z</time>
      </trkpt>
      <trkpt lat="42.6634" lon="0.997">
        <ele>2197</ele>
        <time>2021-06-19T12:05:47Z</time>
      </trkpt>
      <trkpt lat="42.66339" lon="0.99725">
        <ele>2197</ele>
        <time>2021-06-19T12:05:51Z</time>
      </trkpt>
      <trkpt lat="42.66344" lon="0.99761">
        <ele>2200</ele>
        <time>2021-06-19T12:05:57Z</time>
      </trkpt>
      <trkpt lat="42.66356" lon="0.998">
        <ele>2207</ele>
        <time>2021-06-19T12:06:05Z</time>
      </trkpt>
      <trkpt lat="42.66362" lon="0.998">
        <ele>2209</ele>
        <time>2021-06-19T12:06:06Z</time>
      </trkpt>
      <trkpt lat="42.66383" lon="0.99761">
        <ele>2217</ele>
        <time>2021-06-19T12:06:14Z</time>
      </trkpt>
      <trkpt lat="42.66416" lon="0.99755">
        <ele>2232</ele>
        <time>2021-06-19T12:06:22Z</time>
      </trkpt>
      <trkpt lat="42.66436" lon="0.9974">
        <ele>2242</ele>
        <time>2021-06-19T12:06:27Z</time>
      </trkpt>
      <trkpt lat="42.66452" lon="0.99744">
        <ele>2248</ele>
        <time>2021-06-19T12:06:31Z</time>
      </trkpt>
      <trkpt lat="42.66466" lon="0.99753">
        <ele>2252</ele>
        <time>2021-06-19T12:06:35Z</time>
      </trkpt>
      <trkpt lat="42.66512" lon="0.99796">
        <ele>2250</ele>
        <time>2021-06-19T12:06:48Z</time>
      </trkpt>
      <trkpt lat="42.66526" lon="0.99802">
        <ele>2252</ele>
        <time>2021-06-19T12:06:51Z</time>
      </trkpt>
      <trkpt lat="42.66536" lon="0.998">
        <ele>2256</ele>
        <time>2021-06-19T12:06:54Z</time>
      </trkpt>
      <trkpt lat="42.6654" lon="0.99805">
        <ele>2254</ele>
        <time>2021-06-19T12:06:55Z</time>
      </trkpt>
      <trkpt lat="42.66563" lon="0.99804">
        <ele>2262</ele>
        <time>2021-06-19T12:07:00Z</time>
      </trkpt>
      <trkpt lat="42.66585" lon="0.99814">
        <ele>2263</ele>
        <time>2021-06-19T12:07:06Z</time>
      </trkpt>
      <trkpt lat="42.66625" lon="0.99859">
        <ele>2259</ele>
        <time>2021-06-19T12:07:18Z</time>
      </trkpt>
      <trkpt lat="42.66648" lon="0.999">
        <ele>2257</ele>
        <time>2021-06-19T12:07:27Z</time>
      </trkpt>
      <trkpt lat="42.66659" lon="0.99912">
        <ele>2258</ele>
        <time>2021-06-19T12:07:30Z</time>
      </trkpt>
      <trkpt lat="42.66672" lon="0.9992">
        <ele>2261</ele>
        <time>2021-06-19T12:07:33Z</time>
      </trkpt>
      <trkpt lat="42.66676" lon="0.99938">
        <ele>2262</ele>
        <time>2021-06-19T12:07:37Z</time>
      </trkpt>
      <trkpt lat="42.66702" lon="0.99971">
        <ele>2268</ele>
        <time>2021-06-19T12:07:45Z</time>
      </trkpt>
      <trkpt lat="42.66705" lon="1.00005">
        <ele>2272</ele>
        <time>2021-06-19T12:07:51Z</time>
      </trkpt>
      <trkpt lat="42.66712" lon="1.00012">
        <ele>2274</ele>
        <time>2021-06-19T12:07:53Z</time>
      </trkpt>
      <trkpt lat="42.66726" lon="1.0002">
        <ele>2277</ele>
        <time>2021-06-19T12:07:56Z</time>
      </trkpt>
      <trkpt lat="42.66731" lon="1.00027">
        <ele>2279</ele>
        <time>2021-06-19T12:07:58Z</time>
      </trkpt>
      <trkpt lat="42.66735" lon="1.00045">
        <ele>2282</ele>
        <time>2021-06-19T12:08:01Z</time>
      </trkpt>
      <trkpt lat="42.66733" lon="1.00058">
        <ele>2283</ele>
        <time>2021-06-19T12:08:03Z</time>
      </trkpt>
      <trkpt lat="42.66735" lon="1.00084">
        <ele>2287</ele>
        <time>2021-06-19T12:08:08Z</time>
      </trkpt>
      <trkpt lat="42.66741" lon="1.00116">
        <ele>2294</ele>
        <time>2021-06-19T12:08:14Z</time>
      </trkpt>
      <trkpt lat="42.66748" lon="1.00141">
        <ele>2300</ele>
        <time>2021-06-19T12:08:18Z</time>
      </trkpt>
      <trkpt lat="42.66765" lon="1.0017">
        <ele>2310</ele>
        <time>2021-06-19T12:08:25Z</time>
      </trkpt>
      <trkpt lat="42.66771" lon="1.00214">
        <ele>2319</ele>
        <time>2021-06-19T12:08:32Z</time>
      </trkpt>
      <trkpt lat="42.66777" lon="1.00224">
        <ele>2321</ele>
        <time>2021-06-19T12:08:34Z</time>
      </trkpt>
      <trkpt lat="42.66784" lon="1.00252">
        <ele>2327</ele>
        <time>2021-06-19T12:08:40Z</time>
      </trkpt>
      <trkpt lat="42.66786" lon="1.00277">
        <ele>2330</ele>
        <time>2021-06-19T12:08:44Z</time>
      </trkpt>
      <trkpt lat="42.66802" lon="1.0031">
        <ele>2334</ele>
        <time>2021-06-19T12:08:51Z</time>
      </trkpt>
      <trkpt lat="42.66815" lon="1.00321">
        <ele>2335</ele>
        <time>2021-06-19T12:08:54Z</time>
      </trkpt>
      <trkpt lat="42.66818" lon="1.00334">
        <ele>2336</ele>
        <time>2021-06-19T12:08:57Z</time>
      </trkpt>
      <trkpt lat="42.66824" lon="1.00345">
        <ele>2337</ele>
        <time>2021-06-19T12:08:59Z</time>
      </trkpt>
      <trkpt lat="42.66845" lon="1.00366">
        <ele>2335</ele>
        <time>2021-06-19T12:09:05Z</time>
      </trkpt>
      <trkpt lat="42.66858" lon="1.00367">
        <ele>2333</ele>
        <time>2021-06-19T12:09:08Z</time>
      </trkpt>
      <trkpt lat="42.6688" lon="1.00351">
        <ele>2332</ele>
        <time>2021-06-19T12:09:14Z</time>
      </trkpt>
      <trkpt lat="42.66893" lon="1.00348">
        <ele>2331</ele>
        <time>2021-06-19T12:09:17Z</time>
      </trkpt>
      <trkpt lat="42.66898" lon="1.00343">
        <ele>2332</ele>
        <time>2021-06-19T12:09:18Z</time>
      </trkpt>
      <trkpt lat="42.66902" lon="1.00344">
        <ele>2331</ele>
        <time>2021-06-19T12:09:19Z</time>
      </trkpt>
      <trkpt lat="42.66897" lon="1.00368">
        <ele>2327</ele>
        <time>2021-06-19T12:09:24Z</time>
      </trkpt>
      <trkpt lat="42.66897" lon="1.00389">
        <ele>2322</ele>
        <time>2021-06-19T12:09:27Z</time>
      </trkpt>
      <trkpt lat="42.66884" lon="1.004">
        <ele>2323</ele>
        <time>2021-06-19T12:09:31Z</time>
      </trkpt>
      <trkpt lat="42.66878" lon="1.00415">
        <ele>2322</ele>
        <time>2021-06-19T12:09:34Z</time>
      </trkpt>
      <trkpt lat="42.66879" lon="1.00442">
        <ele>2317</ele>
        <time>2021-06-19T12:09:38Z</time>
      </trkpt>
      <trkpt lat="42.66873" lon="1.00469">
        <ele>2315</ele>
        <time>2021-06-19T12:09:43Z</time>
      </trkpt>
      <trkpt lat="42.66872" lon="1.00498">
        <ele>2311</ele>
        <time>2021-06-19T12:09:48Z</time>
      </trkpt>
      <trkpt lat="42.66867" lon="1.00528">
        <ele>2308</ele>
        <time>2021-06-19T12:09:54Z</time>
      </trkpt>
      <trkpt lat="42.66895" lon="1.0052">
        <ele>2296</ele>
        <time>2021-06-19T12:10:00Z</time>
      </trkpt>
      <trkpt lat="42.66906" lon="1.00514">
        <ele>2292</ele>
        <time>2021-06-19T12:10:03Z</time>
      </trkpt>
      <trkpt lat="42.66918" lon="1.00505">
        <ele>2288</ele>
        <time>2021-06-19T12:10:06Z</time>
      </trkpt>
      <trkpt lat="42.66926" lon="1.00493">
        <ele>2289</ele>
        <time>2021-06-19T12:10:09Z</time>
      </trkpt>
      <trkpt lat="42.66932" lon="1.00502">
        <ele>2286</ele>
        <time>2021-06-19T12:10:11Z</time>
      </trkpt>
      <trkpt lat="42.66951" lon="1.0051">
        <ele>2282</ele>
        <time>2021-06-19T12:10:16Z</time>
      </trkpt>
      <trkpt lat="42.66953" lon="1.00526">
        <ele>2278</ele>
        <time>2021-06-19T12:10:18Z</time>
      </trkpt>
      <trkpt lat="42.66941" lon="1.00549">
        <ele>2276</ele>
        <time>2021-06-19T12:10:23Z</time>
      </trkpt>
      <trkpt lat="42.66946" lon="1.00559">
        <ele>2274</ele>
        <time>2021-06-19T12:10:25Z</time>
      </trkpt>
      <trkpt lat="42.66951" lon="1.00579">
        <ele>2270</ele>
        <time>2021-06-19T12:10:29Z</time>
      </trkpt>
      <trkpt lat="42.66966" lon="1.00596">
        <ele>2265</ele>
        <time>2021-06-19T12:10:34Z</time>
      </trkpt>
      <trkpt lat="42.66965" lon="1.00613">
        <ele>2262</ele>
        <time>2021-06-19T12:10:36Z</time>
      </trkpt>
      <trkpt lat="42.66957" lon="1.00641">
        <ele>2258</ele>
        <time>2021-06-19T12:10:42Z</time>
      </trkpt>
      <trkpt lat="42.66958" lon="1.00656">
        <ele>2255</ele>
        <time>2021-06-19T12:10:44Z</time>
      </trkpt>
      <trkpt lat="42.66964" lon="1.00666">
        <ele>2252</ele>
        <time>2021-06-19T12:10:46Z</time>
      </trkpt>
      <trkpt lat="42.66985" lon="1.00679">
        <ele>2245</ele>
        <time>2021-06-19T12:10:52Z</time>
      </trkpt>
      <trkpt lat="42.67007" lon="1.00707">
        <ele>2238</ele>
        <time>2021-06-19T12:10:59Z</time>
      </trkpt>
      <trkpt lat="42.67024" lon="1.00721">
        <ele>2234</ele>
        <time>2021-06-19T12:11:04Z</time>
      </trkpt>
      <trkpt lat="42.67037" lon="1.00728">
        <ele>2232</ele>
        <time>2021-06-19T12:11:07Z</time>
      </trkpt>
      <trkpt lat="42.67047" lon="1.00741">
        <ele>2230</ele>
        <time>2021-06-19T12:11:10Z</time>
      </trkpt>
      <trkpt lat="42.6707" lon="1.00752">
        <ele>2227</ele>
        <time>2021-06-19T12:11:16Z</time>
      </trkpt>
      <trkpt lat="42.67073" lon="1.00755">
        <ele>2227</ele>
        <time>2021-06-19T12:11:17Z</time>
      </trkpt>
      <trkpt lat="42.67081" lon="1.00782">
        <ele>2227</ele>
        <time>2021-06-19T12:11:22Z</time>
      </trkpt>
      <trkpt lat="42.67094" lon="1.00793">
        <ele>2225</ele>
        <time>2021-06-19T12:11:25Z</time>
      </trkpt>
      <trkpt lat="42.67108" lon="1.00793">
        <ele>2222</ele>
        <time>2021-06-19T12:11:28Z</time>
      </trkpt>
      <trkpt lat="42.67127" lon="1.00811">
        <ele>2219</ele>
        <time>2021-06-19T12:11:34Z</time>
      </trkpt>
      <trkpt lat="42.67152" lon="1.00818">
        <ele>2214</ele>
        <time>2021-06-19T12:11:40Z</time>
      </trkpt>
      <trkpt lat="42.67155" lon="1.00824">
        <ele>2213</ele>
        <time>2021-06-19T12:11:41Z</time>
      </trkpt>
      <trkpt lat="42.6716" lon="1.00822">
        <ele>2212</ele>
        <time>2021-06-19T12:11:42Z</time>
      </trkpt>
      <trkpt lat="42.67201" lon="1.00865">
        <ele>2215</ele>
        <time>2021-06-19T12:11:54Z</time>
      </trkpt>
      <trkpt lat="42.6721" lon="1.00864">
        <ele>2215</ele>
        <time>2021-06-19T12:11:56Z</time>
      </trkpt>
      <trkpt lat="42.67226" lon="1.00844">
        <ele>2212</ele>
        <time>2021-06-19T12:12:02Z</time>
      </trkpt>
      <trkpt lat="42.67257" lon="1.00817">
        <ele>2210</ele>
        <time>2021-06-19T12:12:10Z</time>
      </trkpt>
      <trkpt lat="42.67266" lon="1.00798">
        <ele>2209</ele>
        <time>2021-06-19T12:12:14Z</time>
      </trkpt>
      <trkpt lat="42.67271" lon="1.008">
        <ele>2210</ele>
        <time>2021-06-19T12:12:15Z</time>
      </trkpt>
      <trkpt lat="42.67279" lon="1.00811">
        <ele>2210</ele>
        <time>2021-06-19T12:12:18Z</time>
      </trkpt>
      <trkpt lat="42.67286" lon="1.0083">
        <ele>2211</ele>
        <time>2021-06-19T12:12:22Z</time>
      </trkpt>
      <trkpt lat="42.67296" lon="1.00841">
        <ele>2212</ele>
        <time>2021-06-19T12:12:25Z</time>
      </trkpt>
      <trkpt lat="42.67306" lon="1.00843">
        <ele>2212</ele>
        <time>2021-06-19T12:12:27Z</time>
      </trkpt>
      <trkpt lat="42.67308" lon="1.00841">
        <ele>2212</ele>
        <time>2021-06-19T12:12:27Z</time>
      </trkpt>
      <trkpt lat="42.67319" lon="1.00846">
        <ele>2213</ele>
        <time>2021-06-19T12:12:30Z</time>
      </trkpt>
      <trkpt lat="42.67325" lon="1.00844">
        <ele>2213</ele>
        <time>2021-06-19T12:12:32Z</time>
      </trkpt>
      <trkpt lat="42.6733" lon="1.00856">
        <ele>2213</ele>
        <time>2021-06-19T12:12:34Z</time>
      </trkpt>
      <trkpt lat="42.67333" lon="1.00857">
        <ele>2213</ele>
        <time>2021-06-19T12:12:35Z</time>
      </trkpt>
      <trkpt lat="42.67339" lon="1.00894">
        <ele>2216</ele>
        <time>2021-06-19T12:12:41Z</time>
      </trkpt>
      <trkpt lat="42.67343" lon="1.009">
        <ele>2216</ele>
        <time>2021-06-19T12:12:43Z</time>
      </trkpt>
      <trkpt lat="42.67356" lon="1.00913">
        <ele>2219</ele>
        <time>2021-06-19T12:12:46Z</time>
      </trkpt>
      <trkpt lat="42.67366" lon="1.00919">
        <ele>2220</ele>
        <time>2021-06-19T12:12:49Z</time>
      </trkpt>
      <trkpt lat="42.67371" lon="1.00918">
        <ele>2221</ele>
        <time>2021-06-19T12:12:50Z</time>
      </trkpt>
      <trkpt lat="42.67378" lon="1.00927">
        <ele>2222</ele>
        <time>2021-06-19T12:12:52Z</time>
      </trkpt>
      <trkpt lat="42.67388" lon="1.00927">
        <ele>2224</ele>
        <time>2021-06-19T12:12:55Z</time>
      </trkpt>
      <trkpt lat="42.67395" lon="1.00935">
        <ele>2225</ele>
        <time>2021-06-19T12:12:57Z</time>
      </trkpt>
      <trkpt lat="42.67403" lon="1.00977">
        <ele>2228</ele>
        <time>2021-06-19T12:13:04Z</time>
      </trkpt>
      <trkpt lat="42.67422" lon="1.01024">
        <ele>2234</ele>
        <time>2021-06-19T12:13:13Z</time>
      </trkpt>
      <trkpt lat="42.67448" lon="1.01068">
        <ele>2247</ele>
        <time>2021-06-19T12:13:23Z</time>
      </trkpt>
      <trkpt lat="42.67476" lon="1.01087">
        <ele>2260</ele>
        <time>2021-06-19T12:13:30Z</time>
      </trkpt>
      <trkpt lat="42.67482" lon="1.01088">
        <ele>2263</ele>
        <time>2021-06-19T12:13:32Z</time>
      </trkpt>
      <trkpt lat="42.67485" lon="1.01086">
        <ele>2264</ele>
        <time>2021-06-19T12:13:33Z</time>
      </trkpt>
      <trkpt lat="42.67494" lon="1.0109">
        <ele>2269</ele>
        <time>2021-06-19T12:13:35Z</time>
      </trkpt>
      <trkpt lat="42.67511" lon="1.01106">
        <ele>2280</ele>
        <time>2021-06-19T12:13:40Z</time>
      </trkpt>
      <trkpt lat="42.67519" lon="1.01127">
        <ele>2287</ele>
        <time>2021-06-19T12:13:44Z</time>
      </trkpt>
      <trkpt lat="42.67536" lon="1.01128">
        <ele>2298</ele>
        <time>2021-06-19T12:13:48Z</time>
      </trkpt>
      <trkpt lat="42.67545" lon="1.01123">
        <ele>2303</ele>
        <time>2021-06-19T12:13:50Z</time>
      </trkpt>
      <trkpt lat="42.6755" lon="1.01116">
        <ele>2305</ele>
        <time>2021-06-19T12:13:52Z</time>
      </trkpt>
      <trkpt lat="42.67564" lon="1.01105">
        <ele>2313</ele>
        <time>2021-06-19T12:13:55Z</time>
      </trkpt>
      <trkpt lat="42.67567" lon="1.01094">
        <ele>2314</ele>
        <time>2021-06-19T12:13:57Z</time>
      </trkpt>
      <trkpt lat="42.67576" lon="1.0109">
        <ele>2319</ele>
        <time>2021-06-19T12:14:00Z</time>
      </trkpt>
      <trkpt lat="42.6758" lon="1.01102">
        <ele>2323</ele>
        <time>2021-06-19T12:14:02Z</time>
      </trkpt>
      <trkpt lat="42.67592" lon="1.01116">
        <ele>2325</ele>
        <time>2021-06-19T12:14:06Z</time>
      </trkpt>
      <trkpt lat="42.67608" lon="1.0109">
        <ele>2321</ele>
        <time>2021-06-19T12:14:11Z</time>
      </trkpt>
      <trkpt lat="42.67649" lon="1.01069">
        <ele>2319</ele>
        <time>2021-06-19T12:14:22Z</time>
      </trkpt>
      <trkpt lat="42.67731" lon="1.00951">
        <ele>2318</ele>
        <time>2021-06-19T12:14:50Z</time>
      </trkpt>
      <trkpt lat="42.67779" lon="1.00973">
        <ele>2297</ele>
        <time>2021-06-19T12:15:01Z</time>
      </trkpt>
      <trkpt lat="42.67766" lon="1.01006">
        <ele>2288</ele>
        <time>2021-06-19T12:15:08Z</time>
      </trkpt>
      <trkpt lat="42.67779" lon="1.01039">
        <ele>2280</ele>
        <time>2021-06-19T12:15:14Z</time>
      </trkpt>
      <trkpt lat="42.67817" lon="1.0104">
        <ele>2273</ele>
        <time>2021-06-19T12:15:23Z</time>
      </trkpt>
      <trkpt lat="42.67833" lon="1.01057">
        <ele>2266</ele>
        <time>2021-06-19T12:15:28Z</time>
      </trkpt>
      <trkpt lat="42.6789" lon="1.01101">
        <ele>2261</ele>
        <time>2021-06-19T12:15:43Z</time>
      </trkpt>
      <trkpt lat="42.67906" lon="1.01146">
        <ele>2258</ele>
        <time>2021-06-19T12:15:52Z</time>
      </trkpt>
      <trkpt lat="42.67917" lon="1.01188">
        <ele>2256</ele>
        <time>2021-06-19T12:15:59Z</time>
      </trkpt>
      <trkpt lat="42.67916" lon="1.01263">
        <ele>2252</ele>
        <time>2021-06-19T12:16:12Z</time>
      </trkpt>
      <trkpt lat="42.67921" lon="1.01297">
        <ele>2251</ele>
        <time>2021-06-19T12:16:18Z</time>
      </trkpt>
      <trkpt lat="42.67954" lon="1.0133">
        <ele>2237</ele>
        <time>2021-06-19T12:16:28Z</time>
      </trkpt>
      <trkpt lat="42.67982" lon="1.01332">
        <ele>2225</ele>
        <time>2021-06-19T12:16:34Z</time>
      </trkpt>
      <trkpt lat="42.68011" lon="1.01355">
        <ele>2215</ele>
        <time>2021-06-19T12:16:42Z</time>
      </trkpt>
      <trkpt lat="42.68029" lon="1.01348">
        <ele>2207</ele>
        <time>2021-06-19T12:16:47Z</time>
      </trkpt>
      <trkpt lat="42.68044" lon="1.01326">
        <ele>2200</ele>
        <time>2021-06-19T12:16:52Z</time>
      </trkpt>
      <trkpt lat="42.68049" lon="1.01306">
        <ele>2200</ele>
        <time>2021-06-19T12:16:55Z</time>
      </trkpt>
      <trkpt lat="42.68057" lon="1.01298">
        <ele>2197</ele>
        <time>2021-06-19T12:16:58Z</time>
      </trkpt>
      <trkpt lat="42.68084" lon="1.01287">
        <ele>2189</ele>
        <time>2021-06-19T12:17:04Z</time>
      </trkpt>
      <trkpt lat="42.68094" lon="1.01308">
        <ele>2186</ele>
        <time>2021-06-19T12:17:09Z</time>
      </trkpt>
      <trkpt lat="42.68093" lon="1.01341">
        <ele>2184</ele>
        <time>2021-06-19T12:17:14Z</time>
      </trkpt>
      <trkpt lat="42.68107" lon="1.01358">
        <ele>2183</ele>
        <time>2021-06-19T12:17:19Z</time>
      </trkpt>
      <trkpt lat="42.68122" lon="1.01366">
        <ele>2181</ele>
        <time>2021-06-19T12:17:22Z</time>
      </trkpt>
      <trkpt lat="42.68125" lon="1.01384">
        <ele>2180</ele>
        <time>2021-06-19T12:17:26Z</time>
      </trkpt>
      <trkpt lat="42.68125" lon="1.01423">
        <ele>2181</ele>
        <time>2021-06-19T12:17:32Z</time>
      </trkpt>
      <trkpt lat="42.6814" lon="1.01455">
        <ele>2180</ele>
        <time>2021-06-19T12:17:39Z</time>
      </trkpt>
      <trkpt lat="42.6816" lon="1.01546">
        <ele>2180</ele>
        <time>2021-06-19T12:17:55Z</time>
      </trkpt>
      <trkpt lat="42.68179" lon="1.01583">
        <ele>2179</ele>
        <time>2021-06-19T12:18:03Z</time>
      </trkpt>
      <trkpt lat="42.68196" lon="1.01589">
        <ele>2177</ele>
        <time>2021-06-19T12:18:07Z</time>
      </trkpt>
      <trkpt lat="42.6822" lon="1.01623">
        <ele>2177</ele>
        <time>2021-06-19T12:18:15Z</time>
      </trkpt>
      <trkpt lat="42.68228" lon="1.01682">
        <ele>2178</ele>
        <time>2021-06-19T12:18:25Z</time>
      </trkpt>
      <trkpt lat="42.68238" lon="1.01701">
        <ele>2177</ele>
        <time>2021-06-19T12:18:29Z</time>
      </trkpt>
      <trkpt lat="42.68244" lon="1.01736">
        <ele>2177</ele>
        <time>2021-06-19T12:18:35Z</time>
      </trkpt>
      <trkpt lat="42.68244" lon="1.01779">
        <ele>2177</ele>
        <time>2021-06-19T12:18:43Z</time>
      </trkpt>
      <trkpt lat="42.68252" lon="1.01801">
        <ele>2176</ele>
        <time>2021-06-19T12:18:47Z</time>
      </trkpt>
      <trkpt lat="42.68263" lon="1.01818">
        <ele>2177</ele>
        <time>2021-06-19T12:18:51Z</time>
      </trkpt>
      <trkpt lat="42.68283" lon="1.01832">
        <ele>2178</ele>
        <time>2021-06-19T12:18:56Z</time>
      </trkpt>
      <trkpt lat="42.6829" lon="1.0185">
        <ele>2179</ele>
        <time>2021-06-19T12:19:00Z</time>
      </trkpt>
      <trkpt lat="42.68281" lon="1.01891">
        <ele>2178</ele>
        <time>2021-06-19T12:19:07Z</time>
      </trkpt>
      <trkpt lat="42.6829" lon="1.01912">
        <ele>2177</ele>
        <time>2021-06-19T12:19:11Z</time>
      </trkpt>
      <trkpt lat="42.6831" lon="1.01921">
        <ele>2176</ele>
        <time>2021-06-19T12:19:16Z</time>
      </trkpt>
      <trkpt lat="42.68353" lon="1.01919">
        <ele>2171</ele>
        <time>2021-06-19T12:19:26Z</time>
      </trkpt>
      <trkpt lat="42.68393" lon="1.01899">
        <ele>2168</ele>
        <time>2021-06-19T12:19:36Z</time>
      </trkpt>
      <trkpt lat="42.68415" lon="1.01892">
        <ele>2168</ele>
        <time>2021-06-19T12:19:41Z</time>
      </trkpt>
      <trkpt lat="42.68435" lon="1.01897">
        <ele>2162</ele>
        <time>2021-06-19T12:19:46Z</time>
      </trkpt>
      <trkpt lat="42.68467" lon="1.01921">
        <ele>2146</ele>
        <time>2021-06-19T12:19:55Z</time>
      </trkpt>
      <trkpt lat="42.68468" lon="1.01973">
        <ele>2127</ele>
        <time>2021-06-19T12:20:04Z</time>
      </trkpt>
      <trkpt lat="42.68474" lon="1.02">
        <ele>2116</ele>
        <time>2021-06-19T12:20:08Z</time>
      </trkpt>
      <trkpt lat="42.68478" lon="1.02002">
        <ele>2115</ele>
        <time>2021-06-19T12:20:09Z</time>
      </trkpt>
      <trkpt lat="42.68493" lon="1.02057">
        <ele>2103</ele>
        <time>2021-06-19T12:20:20Z</time>
      </trkpt>
      <trkpt lat="42.68481" lon="1.02154">
        <ele>2093</ele>
        <time>2021-06-19T12:20:36Z</time>
      </trkpt>
      <trkpt lat="42.68452" lon="1.02161">
        <ele>2090</ele>
        <time>2021-06-19T12:20:43Z</time>
      </trkpt>
      <trkpt lat="42.68441" lon="1.02195">
        <ele>2084</ele>
        <time>2021-06-19T12:20:50Z</time>
      </trkpt>
      <trkpt lat="42.68436" lon="1.02232">
        <ele>2078</ele>
        <time>2021-06-19T12:20:56Z</time>
      </trkpt>
      <trkpt lat="42.68453" lon="1.02273">
        <ele>2072</ele>
        <time>2021-06-19T12:21:04Z</time>
      </trkpt>
      <trkpt lat="42.68466" lon="1.02282">
        <ele>2070</ele>
        <time>2021-06-19T12:21:08Z</time>
      </trkpt>
      <trkpt lat="42.68469" lon="1.02314">
        <ele>2062</ele>
        <time>2021-06-19T12:21:13Z</time>
      </trkpt>
      <trkpt lat="42.6844" lon="1.02388">
        <ele>2055</ele>
        <time>2021-06-19T12:21:28Z</time>
      </trkpt>
      <trkpt lat="42.6845" lon="1.02438">
        <ele>2047</ele>
        <time>2021-06-19T12:21:36Z</time>
      </trkpt>
      <trkpt lat="42.68441" lon="1.02471">
        <ele>2044</ele>
        <time>2021-06-19T12:21:43Z</time>
      </trkpt>
      <trkpt lat="42.6847" lon="1.02568">
        <ele>2031</ele>
        <time>2021-06-19T12:22:00Z</time>
      </trkpt>
      <trkpt lat="42.68462" lon="1.0259">
        <ele>2028</ele>
        <time>2021-06-19T12:22:05Z</time>
      </trkpt>
      <trkpt lat="42.6844" lon="1.02624">
        <ele>2020</ele>
        <time>2021-06-19T12:22:12Z</time>
      </trkpt>
      <trkpt lat="42.68411" lon="1.02657">
        <ele>2011</ele>
        <time>2021-06-19T12:22:21Z</time>
      </trkpt>
      <trkpt lat="42.68398" lon="1.02648">
        <ele>2013</ele>
        <time>2021-06-19T12:22:25Z</time>
      </trkpt>
      <trkpt lat="42.68383" lon="1.02654">
        <ele>2012</ele>
        <time>2021-06-19T12:22:28Z</time>
      </trkpt>
      <trkpt lat="42.68355" lon="1.02682">
        <ele>2008</ele>
        <time>2021-06-19T12:22:36Z</time>
      </trkpt>
      <trkpt lat="42.68348" lon="1.02698">
        <ele>2006</ele>
        <time>2021-06-19T12:22:40Z</time>
      </trkpt>
      <trkpt lat="42.68334" lon="1.02709">
        <ele>2004</ele>
        <time>2021-06-19T12:22:43Z</time>
      </trkpt>
      <trkpt lat="42.68327" lon="1.02696">
        <ele>2008</ele>
        <time>2021-06-19T12:22:46Z</time>
      </trkpt>
      <trkpt lat="42.68313" lon="1.02689">
        <ele>2013</ele>
        <time>2021-06-19T12:22:50Z</time>
      </trkpt>
      <trkpt lat="42.68304" lon="1.02704">
        <ele>2015</ele>
        <time>2021-06-19T12:22:53Z</time>
      </trkpt>
      <trkpt lat="42.68296" lon="1.0274">
        <ele>2016</ele>
        <time>2021-06-19T12:22:59Z</time>
      </trkpt>
      <trkpt lat="42.68296" lon="1.0276">
        <ele>2016</ele>
        <time>2021-06-19T12:23:03Z</time>
      </trkpt>
      <trkpt lat="42.68306" lon="1.02853">
        <ele>2016</ele>
        <time>2021-06-19T12:23:19Z</time>
      </trkpt>
      <trkpt lat="42.68304" lon="1.02957">
        <ele>2022</ele>
        <time>2021-06-19T12:23:37Z</time>
      </trkpt>
      <trkpt lat="42.68309" lon="1.03004">
        <ele>2021</ele>
        <time>2021-06-19T12:23:45Z</time>
      </trkpt>
      <trkpt lat="42.68312" lon="1.03174">
        <ele>2012</ele>
        <time>2021-06-19T12:24:14Z</time>
      </trkpt>
      <trkpt lat="42.68285" lon="1.03217">
        <ele>2017</ele>
        <time>2021-06-19T12:24:24Z</time>
      </trkpt>
      <trkpt lat="42.68274" lon="1.03227">
        <ele>2019</ele>
        <time>2021-06-19T12:24:27Z</time>
      </trkpt>
      <trkpt lat="42.68255" lon="1.03267">
        <ele>2017</ele>
        <time>2021-06-19T12:24:35Z</time>
      </trkpt>
      <trkpt lat="42.68241" lon="1.03288">
        <ele>2017</ele>
        <time>2021-06-19T12:24:40Z</time>
      </trkpt>
      <trkpt lat="42.68235" lon="1.03293">
        <ele>2017</ele>
        <time>2021-06-19T12:24:42Z</time>
      </trkpt>
      <trkpt lat="42.68216" lon="1.03323">
        <ele>2014</ele>
        <time>2021-06-19T12:24:49Z</time>
      </trkpt>
      <trkpt lat="42.68184" lon="1.03362">
        <ele>2010</ele>
        <time>2021-06-19T12:24:59Z</time>
      </trkpt>
      <trkpt lat="42.68168" lon="1.03394">
        <ele>2005</ele>
        <time>2021-06-19T12:25:05Z</time>
      </trkpt>
      <trkpt lat="42.68161" lon="1.03424">
        <ele>2001</ele>
        <time>2021-06-19T12:25:11Z</time>
      </trkpt>
      <trkpt lat="42.68134" lon="1.03485">
        <ele>2000</ele>
        <time>2021-06-19T12:25:23Z</time>
      </trkpt>
      <trkpt lat="42.68126" lon="1.03495">
        <ele>1999</ele>
        <time>2021-06-19T12:25:25Z</time>
      </trkpt>
      <trkpt lat="42.68094" lon="1.03512">
        <ele>1993</ele>
        <time>2021-06-19T12:25:33Z</time>
      </trkpt>
      <trkpt lat="42.68087" lon="1.03513">
        <ele>1992</ele>
        <time>2021-06-19T12:25:35Z</time>
      </trkpt>
      <trkpt lat="42.68069" lon="1.03535">
        <ele>1991</ele>
        <time>2021-06-19T12:25:41Z</time>
      </trkpt>
      <trkpt lat="42.68061" lon="1.03538">
        <ele>1988</ele>
        <time>2021-06-19T12:25:43Z</time>
      </trkpt>
      <trkpt lat="42.68014" lon="1.03593">
        <ele>1978</ele>
        <time>2021-06-19T12:25:57Z</time>
      </trkpt>
      <trkpt lat="42.68" lon="1.03597">
        <ele>1972</ele>
        <time>2021-06-19T12:26:00Z</time>
      </trkpt>
      <trkpt lat="42.6798" lon="1.03588">
        <ele>1963</ele>
        <time>2021-06-19T12:26:05Z</time>
      </trkpt>
      <trkpt lat="42.67976" lon="1.03581">
        <ele>1960</ele>
        <time>2021-06-19T12:26:07Z</time>
      </trkpt>
      <trkpt lat="42.67976" lon="1.03563">
        <ele>1959</ele>
        <time>2021-06-19T12:26:10Z</time>
      </trkpt>
      <trkpt lat="42.67971" lon="1.03547">
        <ele>1956</ele>
        <time>2021-06-19T12:26:13Z</time>
      </trkpt>
      <trkpt lat="42.67966" lon="1.03541">
        <ele>1955</ele>
        <time>2021-06-19T12:26:15Z</time>
      </trkpt>
      <trkpt lat="42.67953" lon="1.03539">
        <ele>1951</ele>
        <time>2021-06-19T12:26:18Z</time>
      </trkpt>
      <trkpt lat="42.67946" lon="1.0354">
        <ele>1949</ele>
        <time>2021-06-19T12:26:19Z</time>
      </trkpt>
      <trkpt lat="42.67931" lon="1.03562">
        <ele>1945</ele>
        <time>2021-06-19T12:26:24Z</time>
      </trkpt>
      <trkpt lat="42.67908" lon="1.03587">
        <ele>1939</ele>
        <time>2021-06-19T12:26:31Z</time>
      </trkpt>
      <trkpt lat="42.67884" lon="1.03606">
        <ele>1935</ele>
        <time>2021-06-19T12:26:38Z</time>
      </trkpt>
      <trkpt lat="42.67856" lon="1.03698">
        <ele>1917</ele>
        <time>2021-06-19T12:26:55Z</time>
      </trkpt>
      <trkpt lat="42.67858" lon="1.0373">
        <ele>1913</ele>
        <time>2021-06-19T12:27:00Z</time>
      </trkpt>
      <trkpt lat="42.67867" lon="1.03756">
        <ele>1913</ele>
        <time>2021-06-19T12:27:05Z</time>
      </trkpt>
      <trkpt lat="42.67869" lon="1.03775">
        <ele>1913</ele>
        <time>2021-06-19T12:27:09Z</time>
      </trkpt>
      <trkpt lat="42.67863" lon="1.03823">
        <ele>1908</ele>
        <time>2021-06-19T12:27:17Z</time>
      </trkpt>
      <trkpt lat="42.67853" lon="1.0385">
        <ele>1902</ele>
        <time>2021-06-19T12:27:22Z</time>
      </trkpt>
      <trkpt lat="42.67846" lon="1.03889">
        <ele>1897</ele>
        <time>2021-06-19T12:27:29Z</time>
      </trkpt>
      <trkpt lat="42.67849" lon="1.03946">
        <ele>1893</ele>
        <time>2021-06-19T12:27:39Z</time>
      </trkpt>
      <trkpt lat="42.67847" lon="1.03976">
        <ele>1888</ele>
        <time>2021-06-19T12:27:44Z</time>
      </trkpt>
      <trkpt lat="42.67842" lon="1.04004">
        <ele>1883</ele>
        <time>2021-06-19T12:27:49Z</time>
      </trkpt>
      <trkpt lat="42.67844" lon="1.04014">
        <ele>1882</ele>
        <time>2021-06-19T12:27:51Z</time>
      </trkpt>
      <trkpt lat="42.67862" lon="1.04049">
        <ele>1880</ele>
        <time>2021-06-19T12:27:58Z</time>
      </trkpt>
      <trkpt lat="42.67884" lon="1.04109">
        <ele>1873</ele>
        <time>2021-06-19T12:28:10Z</time>
      </trkpt>
      <trkpt lat="42.67888" lon="1.04128">
        <ele>1870</ele>
        <time>2021-06-19T12:28:13Z</time>
      </trkpt>
      <trkpt lat="42.67889" lon="1.04169">
        <ele>1862</ele>
        <time>2021-06-19T12:28:20Z</time>
      </trkpt>
      <trkpt lat="42.67876" lon="1.04242">
        <ele>1847</ele>
        <time>2021-06-19T12:28:33Z</time>
      </trkpt>
      <trkpt lat="42.67854" lon="1.04265">
        <ele>1836</ele>
        <time>2021-06-19T12:28:39Z</time>
      </trkpt>
      <trkpt lat="42.67843" lon="1.04289">
        <ele>1828</ele>
        <time>2021-06-19T12:28:44Z</time>
      </trkpt>
      <trkpt lat="42.67841" lon="1.043">
        <ele>1825</ele>
        <time>2021-06-19T12:28:46Z</time>
      </trkpt>
      <trkpt lat="42.67845" lon="1.04318">
        <ele>1824</ele>
        <time>2021-06-19T12:28:49Z</time>
      </trkpt>
      <trkpt lat="42.67843" lon="1.04337">
        <ele>1821</ele>
        <time>2021-06-19T12:28:53Z</time>
      </trkpt>
      <trkpt lat="42.67835" lon="1.04365">
        <ele>1817</ele>
        <time>2021-06-19T12:28:58Z</time>
      </trkpt>
      <trkpt lat="42.67827" lon="1.04381">
        <ele>1814</ele>
        <time>2021-06-19T12:29:01Z</time>
      </trkpt>
      <trkpt lat="42.6781" lon="1.044">
        <ele>1807</ele>
        <time>2021-06-19T12:29:06Z</time>
      </trkpt>
      <trkpt lat="42.67803" lon="1.04396">
        <ele>1804</ele>
        <time>2021-06-19T12:29:08Z</time>
      </trkpt>
      <trkpt lat="42.678" lon="1.04389">
        <ele>1803</ele>
        <time>2021-06-19T12:29:09Z</time>
      </trkpt>
      <trkpt lat="42.67793" lon="1.04391">
        <ele>1800</ele>
        <time>2021-06-19T12:29:11Z</time>
      </trkpt>
      <trkpt lat="42.67788" lon="1.04398">
        <ele>1798</ele>
        <time>2021-06-19T12:29:13Z</time>
      </trkpt>
      <trkpt lat="42.6777" lon="1.04469">
        <ele>1787</ele>
        <time>2021-06-19T12:29:26Z</time>
      </trkpt>
      <trkpt lat="42.67754" lon="1.04513">
        <ele>1777</ele>
        <time>2021-06-19T12:29:34Z</time>
      </trkpt>
      <trkpt lat="42.67745" lon="1.0453">
        <ele>1774</ele>
        <time>2021-06-19T12:29:38Z</time>
      </trkpt>
      <trkpt lat="42.67735" lon="1.04544">
        <ele>1772</ele>
        <time>2021-06-19T12:29:41Z</time>
      </trkpt>
      <trkpt lat="42.67722" lon="1.04556">
        <ele>1768</ele>
        <time>2021-06-19T12:29:45Z</time>
      </trkpt>
      <trkpt lat="42.67706" lon="1.04566">
        <ele>1761</ele>
        <time>2021-06-19T12:29:49Z</time>
      </trkpt>
      <trkpt lat="42.67686" lon="1.04602">
        <ele>1751</ele>
        <time>2021-06-19T12:29:57Z</time>
      </trkpt>
      <trkpt lat="42.67629" lon="1.04687">
        <ele>1736</ele>
        <time>2021-06-19T12:30:16Z</time>
      </trkpt>
      <trkpt lat="42.67599" lon="1.04736">
        <ele>1725</ele>
        <time>2021-06-19T12:30:27Z</time>
      </trkpt>
      <trkpt lat="42.67559" lon="1.04761">
        <ele>1711</ele>
        <time>2021-06-19T12:30:38Z</time>
      </trkpt>
      <trkpt lat="42.67552" lon="1.04762">
        <ele>1709</ele>
        <time>2021-06-19T12:30:39Z</time>
      </trkpt>
      <trkpt lat="42.67546" lon="1.04768">
        <ele>1708</ele>
        <time>2021-06-19T12:30:41Z</time>
      </trkpt>
      <trkpt lat="42.67532" lon="1.04793">
        <ele>1705</ele>
        <time>2021-06-19T12:30:46Z</time>
      </trkpt>
      <trkpt lat="42.67516" lon="1.04838">
        <ele>1700</ele>
        <time>2021-06-19T12:30:55Z</time>
      </trkpt>
      <trkpt lat="42.67486" lon="1.0489">
        <ele>1694</ele>
        <time>2021-06-19T12:31:06Z</time>
      </trkpt>
      <trkpt lat="42.67478" lon="1.04931">
        <ele>1692</ele>
        <time>2021-06-19T12:31:14Z</time>
      </trkpt>
      <trkpt lat="42.6748" lon="1.04982">
        <ele>1689</ele>
        <time>2021-06-19T12:31:22Z</time>
      </trkpt>
      <trkpt lat="42.67477" lon="1.05012">
        <ele>1685</ele>
        <time>2021-06-19T12:31:28Z</time>
      </trkpt>
      <trkpt lat="42.67477" lon="1.05093">
        <ele>1677</ele>
        <time>2021-06-19T12:31:41Z</time>
      </trkpt>
      <trkpt lat="42.67471" lon="1.0513">
        <ele>1672</ele>
        <time>2021-06-19T12:31:48Z</time>
      </trkpt>
      <trkpt lat="42.67478" lon="1.05189">
        <ele>1669</ele>
        <time>2021-06-19T12:31:58Z</time>
      </trkpt>
      <trkpt lat="42.67477" lon="1.05227">
        <ele>1665</ele>
        <time>2021-06-19T12:32:05Z</time>
      </trkpt>
      <trkpt lat="42.67473" lon="1.05246">
        <ele>1663</ele>
        <time>2021-06-19T12:32:08Z</time>
      </trkpt>
      <trkpt lat="42.67459" lon="1.05285">
        <ele>1656</ele>
        <time>2021-06-19T12:32:16Z</time>
      </trkpt>
      <trkpt lat="42.67441" lon="1.05319">
        <ele>1648</ele>
        <time>2021-06-19T12:32:23Z</time>
      </trkpt>
      <trkpt lat="42.67415" lon="1.05357">
        <ele>1637</ele>
        <time>2021-06-19T12:32:32Z</time>
      </trkpt>
      <trkpt lat="42.674" lon="1.05423">
        <ele>1632</ele>
        <time>2021-06-19T12:32:44Z</time>
      </trkpt>
      <trkpt lat="42.67386" lon="1.05464">
        <ele>1627</ele>
        <time>2021-06-19T12:32:51Z</time>
      </trkpt>
      <trkpt lat="42.67359" lon="1.05528">
        <ele>1617</ele>
        <time>2021-06-19T12:33:04Z</time>
      </trkpt>
      <trkpt lat="42.67302" lon="1.05624">
        <ele>1603</ele>
        <time>2021-06-19T12:33:25Z</time>
      </trkpt>
      <trkpt lat="42.67291" lon="1.05638">
        <ele>1601</ele>
        <time>2021-06-19T12:33:29Z</time>
      </trkpt>
      <trkpt lat="42.67229" lon="1.05698">
        <ele>1591</ele>
        <time>2021-06-19T12:33:46Z</time>
      </trkpt>
      <trkpt lat="42.67209" lon="1.05714">
        <ele>1589</ele>
        <time>2021-06-19T12:33:52Z</time>
      </trkpt>
      <trkpt lat="42.67196" lon="1.05721">
        <ele>1587</ele>
        <time>2021-06-19T12:33:55Z</time>
      </trkpt>
      <trkpt lat="42.67152" lon="1.05732">
        <ele>1576</ele>
        <time>2021-06-19T12:34:06Z</time>
      </trkpt>
      <trkpt lat="42.67053" lon="1.05818">
        <ele>1564</ele>
        <time>2021-06-19T12:34:33Z</time>
      </trkpt>
      <trkpt lat="42.66987" lon="1.05863">
        <ele>1557</ele>
        <time>2021-06-19T12:34:50Z</time>
      </trkpt>
      <trkpt lat="42.66949" lon="1.05885">
        <ele>1551</ele>
        <time>2021-06-19T12:35:00Z</time>
      </trkpt>
      <trkpt lat="42.66936" lon="1.05891">
        <ele>1549</ele>
        <time>2021-06-19T12:35:03Z</time>
      </trkpt>
      <trkpt lat="42.66879" lon="1.05899">
        <ele>1534</ele>
        <time>2021-06-19T12:35:17Z</time>
      </trkpt>
      <trkpt lat="42.66847" lon="1.05921">
        <ele>1527</ele>
        <time>2021-06-19T12:35:25Z</time>
      </trkpt>
      <trkpt lat="42.66825" lon="1.05933">
        <ele>1523</ele>
        <time>2021-06-19T12:35:30Z</time>
      </trkpt>
      <trkpt lat="42.66812" lon="1.05936">
        <ele>1519</ele>
        <time>2021-06-19T12:35:34Z</time>
      </trkpt>
      <trkpt lat="42.66783" lon="1.0596">
        <ele>1513</ele>
        <time>2021-06-19T12:35:41Z</time>
      </trkpt>
      <trkpt lat="42.66763" lon="1.06011">
        <ele>1514</ele>
        <time>2021-06-19T12:35:51Z</time>
      </trkpt>
      <trkpt lat="42.66728" lon="1.06043">
        <ele>1507</ele>
        <time>2021-06-19T12:36:01Z</time>
      </trkpt>
      <trkpt lat="42.66716" lon="1.0605">
        <ele>1503</ele>
        <time>2021-06-19T12:36:04Z</time>
      </trkpt>
      <trkpt lat="42.6667" lon="1.06056">
        <ele>1483</ele>
        <time>2021-06-19T12:36:15Z</time>
      </trkpt>
      <trkpt lat="42.66648" lon="1.0607">
        <ele>1477</ele>
        <time>2021-06-19T12:36:21Z</time>
      </trkpt>
      <trkpt lat="42.66632" lon="1.06087">
        <ele>1473</ele>
        <time>2021-06-19T12:36:25Z</time>
      </trkpt>
      <trkpt lat="42.66612" lon="1.06102">
        <ele>1468</ele>
        <time>2021-06-19T12:36:31Z</time>
      </trkpt>
      <trkpt lat="42.66572" lon="1.06123">
        <ele>1458</ele>
        <time>2021-06-19T12:36:41Z</time>
      </trkpt>
      <trkpt lat="42.66561" lon="1.06136">
        <ele>1457</ele>
        <time>2021-06-19T12:36:44Z</time>
      </trkpt>
      <trkpt lat="42.66548" lon="1.06161">
        <ele>1455</ele>
        <time>2021-06-19T12:36:49Z</time>
      </trkpt>
      <trkpt lat="42.66541" lon="1.06189">
        <ele>1453</ele>
        <time>2021-06-19T12:36:55Z</time>
      </trkpt>
      <trkpt lat="42.66537" lon="1.06196">
        <ele>1451</ele>
        <time>2021-06-19T12:36:56Z</time>
      </trkpt>
      <trkpt lat="42.66529" lon="1.06197">
        <ele>1448</ele>
        <time>2021-06-19T12:36:58Z</time>
      </trkpt>
      <trkpt lat="42.66524" lon="1.06204">
        <ele>1446</ele>
        <time>2021-06-19T12:37:00Z</time>
      </trkpt>
      <trkpt lat="42.66509" lon="1.06236">
        <ele>1439</ele>
        <time>2021-06-19T12:37:06Z</time>
      </trkpt>
      <trkpt lat="42.66503" lon="1.06272">
        <ele>1434</ele>
        <time>2021-06-19T12:37:12Z</time>
      </trkpt>
      <trkpt lat="42.66493" lon="1.06296">
        <ele>1429</ele>
        <time>2021-06-19T12:37:17Z</time>
      </trkpt>
      <trkpt lat="42.66489" lon="1.06354">
        <ele>1421</ele>
        <time>2021-06-19T12:37:27Z</time>
      </trkpt>
      <trkpt lat="42.66475" lon="1.06409">
        <ele>1408</ele>
        <time>2021-06-19T12:37:37Z</time>
      </trkpt>
      <trkpt lat="42.66478" lon="1.06511">
        <ele>1394</ele>
        <time>2021-06-19T12:37:55Z</time>
      </trkpt>
      <trkpt lat="42.66472" lon="1.06517">
        <ele>1391</ele>
        <time>2021-06-19T12:37:56Z</time>
      </trkpt>
      <trkpt lat="42.66465" lon="1.06518">
        <ele>1389</ele>
        <time>2021-06-19T12:37:58Z</time>
      </trkpt>
      <trkpt lat="42.66457" lon="1.06546">
        <ele>1382</ele>
        <time>2021-06-19T12:38:03Z</time>
      </trkpt>
      <trkpt lat="42.66452" lon="1.0658">
        <ele>1376</ele>
        <time>2021-06-19T12:38:09Z</time>
      </trkpt>
      <trkpt lat="42.66464" lon="1.06706">
        <ele>1365</ele>
        <time>2021-06-19T12:38:31Z</time>
      </trkpt>
      <trkpt lat="42.66467" lon="1.06828">
        <ele>1355</ele>
        <time>2021-06-19T12:38:52Z</time>
      </trkpt>
      <trkpt lat="42.66463" lon="1.06836">
        <ele>1353</ele>
        <time>2021-06-19T12:38:54Z</time>
      </trkpt>
      <trkpt lat="42.66436" lon="1.06851">
        <ele>1341</ele>
        <time>2021-06-19T12:39:01Z</time>
      </trkpt>
      <trkpt lat="42.66423" lon="1.06863">
        <ele>1335</ele>
        <time>2021-06-19T12:39:04Z</time>
      </trkpt>
      <trkpt lat="42.66411" lon="1.06826">
        <ele>1335</ele>
        <time>2021-06-19T12:39:11Z</time>
      </trkpt>
      <trkpt lat="42.66403" lon="1.06791">
        <ele>1339</ele>
        <time>2021-06-19T12:39:17Z</time>
      </trkpt>
      <trkpt lat="42.66384" lon="1.06756">
        <ele>1344</ele>
        <time>2021-06-19T12:39:25Z</time>
      </trkpt>
      <trkpt lat="42.6638" lon="1.06737">
        <ele>1347</ele>
        <time>2021-06-19T12:39:28Z</time>
      </trkpt>
      <trkpt lat="42.66366" lon="1.06737">
        <ele>1348</ele>
        <time>2021-06-19T12:39:32Z</time>
      </trkpt>
      <trkpt lat="42.66356" lon="1.06751">
        <ele>1347</ele>
        <time>2021-06-19T12:39:35Z</time>
      </trkpt>
      <trkpt lat="42.66348" lon="1.06779">
        <ele>1344</ele>
        <time>2021-06-19T12:39:40Z</time>
      </trkpt>
      <trkpt lat="42.66323" lon="1.06825">
        <ele>1340</ele>
        <time>2021-06-19T12:39:50Z</time>
      </trkpt>
      <trkpt lat="42.66317" lon="1.06851">
        <ele>1338</ele>
        <time>2021-06-19T12:39:55Z</time>
      </trkpt>
      <trkpt lat="42.66319" lon="1.06867">
        <ele>1335</ele>
        <time>2021-06-19T12:39:57Z</time>
      </trkpt>
      <trkpt lat="42.66314" lon="1.06875">
        <ele>1335</ele>
        <time>2021-06-19T12:39:59Z</time>
      </trkpt>
      <trkpt lat="42.66295" lon="1.06885">
        <ele>1337</ele>
        <time>2021-06-19T12:40:04Z</time>
      </trkpt>
      <trkpt lat="42.66277" lon="1.06879">
        <ele>1342</ele>
        <time>2021-06-19T12:40:08Z</time>
      </trkpt>
      <trkpt lat="42.6627" lon="1.06883">
        <ele>1342</ele>
        <time>2021-06-19T12:40:10Z</time>
      </trkpt>
      <trkpt lat="42.66262" lon="1.06907">
        <ele>1338</ele>
        <time>2021-06-19T12:40:15Z</time>
      </trkpt>
      <trkpt lat="42.66251" lon="1.06927">
        <ele>1336</ele>
        <time>2021-06-19T12:40:19Z</time>
      </trkpt>
      <trkpt lat="42.66245" lon="1.06949">
        <ele>1334</ele>
        <time>2021-06-19T12:40:23Z</time>
      </trkpt>
      <trkpt lat="42.66227" lon="1.06968">
        <ele>1337</ele>
        <time>2021-06-19T12:40:28Z</time>
      </trkpt>
      <trkpt lat="42.6622" lon="1.06989">
        <ele>1337</ele>
        <time>2021-06-19T12:40:32Z</time>
      </trkpt>
      <trkpt lat="42.6621" lon="1.07049">
        <ele>1334</ele>
        <time>2021-06-19T12:40:43Z</time>
      </trkpt>
      <trkpt lat="42.66204" lon="1.07127">
        <ele>1326</ele>
        <time>2021-06-19T12:40:56Z</time>
      </trkpt>
      <trkpt lat="42.6619" lon="1.07193">
        <ele>1323</ele>
        <time>2021-06-19T12:41:08Z</time>
      </trkpt>
      <trkpt lat="42.66186" lon="1.07277">
        <ele>1313</ele>
        <time>2021-06-19T12:41:22Z</time>
      </trkpt>
      <trkpt lat="42.66175" lon="1.07323">
        <ele>1312</ele>
        <time>2021-06-19T12:41:31Z</time>
      </trkpt>
      <trkpt lat="42.66173" lon="1.07355">
        <ele>1309</ele>
        <time>2021-06-19T12:41:36Z</time>
      </trkpt>
      <trkpt lat="42.66165" lon="1.07388">
        <ele>1308</ele>
        <time>2021-06-19T12:41:42Z</time>
      </trkpt>
      <trkpt lat="42.66151" lon="1.07411">
        <ele>1310</ele>
        <time>2021-06-19T12:41:47Z</time>
      </trkpt>
      <trkpt lat="42.66159" lon="1.0746">
        <ele>1299</ele>
        <time>2021-06-19T12:41:56Z</time>
      </trkpt>
      <trkpt lat="42.66155" lon="1.07483">
        <ele>1296</ele>
        <time>2021-06-19T12:42:00Z</time>
      </trkpt>
      <trkpt lat="42.66149" lon="1.07496">
        <ele>1294</ele>
        <time>2021-06-19T12:42:03Z</time>
      </trkpt>
      <trkpt lat="42.66141" lon="1.075">
        <ele>1294</ele>
        <time>2021-06-19T12:42:05Z</time>
      </trkpt>
      <trkpt lat="42.66134" lon="1.07526">
        <ele>1287</ele>
        <time>2021-06-19T12:42:09Z</time>
      </trkpt>
      <trkpt lat="42.66138" lon="1.07548">
        <ele>1280</ele>
        <time>2021-06-19T12:42:13Z</time>
      </trkpt>
      <trkpt lat="42.66137" lon="1.07561">
        <ele>1277</ele>
        <time>2021-06-19T12:42:16Z</time>
      </trkpt>
      <trkpt lat="42.66139" lon="1.07571">
        <ele>1274</ele>
        <time>2021-06-19T12:42:17Z</time>
      </trkpt>
      <trkpt lat="42.66135" lon="1.07593">
        <ele>1266</ele>
        <time>2021-06-19T12:42:21Z</time>
      </trkpt>
      <trkpt lat="42.66131" lon="1.07602">
        <ele>1262</ele>
        <time>2021-06-19T12:42:23Z</time>
      </trkpt>
      <trkpt lat="42.66134" lon="1.07616">
        <ele>1257</ele>
        <time>2021-06-19T12:42:26Z</time>
      </trkpt>
      <trkpt lat="42.66121" lon="1.07653">
        <ele>1239</ele>
        <time>2021-06-19T12:42:33Z</time>
      </trkpt>
      <trkpt lat="42.66121" lon="1.07668">
        <ele>1233</ele>
        <time>2021-06-19T12:42:35Z</time>
      </trkpt>
      <trkpt lat="42.66126" lon="1.07674">
        <ele>1232</ele>
        <time>2021-06-19T12:42:37Z</time>
      </trkpt>
      <trkpt lat="42.66133" lon="1.07673">
        <ele>1234</ele>
        <time>2021-06-19T12:42:38Z</time>
      </trkpt>
      <trkpt lat="42.66138" lon="1.07678">
        <ele>1234</ele>
        <time>2021-06-19T12:42:40Z</time>
      </trkpt>
      <trkpt lat="42.66146" lon="1.07677">
        <ele>1236</ele>
        <time>2021-06-19T12:42:42Z</time>
      </trkpt>
      <trkpt lat="42.66153" lon="1.07689">
        <ele>1233</ele>
        <time>2021-06-19T12:42:44Z</time>
      </trkpt>
      <trkpt lat="42.66145" lon="1.07697">
        <ele>1227</ele>
        <time>2021-06-19T12:42:47Z</time>
      </trkpt>
      <trkpt lat="42.66143" lon="1.07707">
        <ele>1222</ele>
        <time>2021-06-19T12:42:48Z</time>
      </trkpt>
      <trkpt lat="42.66136" lon="1.07715">
        <ele>1217</ele>
        <time>2021-06-19T12:42:51Z</time>
      </trkpt>
      <trkpt lat="42.66132" lon="1.0773">
        <ele>1209</ele>
        <time>2021-06-19T12:42:53Z</time>
      </trkpt>
      <trkpt lat="42.66136" lon="1.07733">
        <ele>1209</ele>
        <time>2021-06-19T12:42:54Z</time>
      </trkpt>
      <trkpt lat="42.66139" lon="1.07728">
        <ele>1212</ele>
        <time>2021-06-19T12:42:55Z</time>
      </trkpt>
      <trkpt lat="42.66145" lon="1.07731">
        <ele>1212</ele>
        <time>2021-06-19T12:42:57Z</time>
      </trkpt>
      <trkpt lat="42.6615" lon="1.0773">
        <ele>1214</ele>
        <time>2021-06-19T12:42:58Z</time>
      </trkpt>
      <trkpt lat="42.66151" lon="1.07735">
        <ele>1212</ele>
        <time>2021-06-19T12:42:59Z</time>
      </trkpt>
      <trkpt lat="42.66129" lon="1.0777">
        <ele>1192</ele>
        <time>2021-06-19T12:43:07Z</time>
      </trkpt>
      <trkpt lat="42.6612" lon="1.078">
        <ele>1179</ele>
        <time>2021-06-19T12:43:12Z</time>
      </trkpt>
      <trkpt lat="42.66109" lon="1.07815">
        <ele>1171</ele>
        <time>2021-06-19T12:43:16Z</time>
      </trkpt>
      <trkpt lat="42.66103" lon="1.07818">
        <ele>1168</ele>
        <time>2021-06-19T12:43:18Z</time>
      </trkpt>
      <trkpt lat="42.66096" lon="1.07794">
        <ele>1175</ele>
        <time>2021-06-19T12:43:22Z</time>
      </trkpt>
      <trkpt lat="42.66082" lon="1.07778">
        <ele>1176</ele>
        <time>2021-06-19T12:43:26Z</time>
      </trkpt>
      <trkpt lat="42.6607" lon="1.07774">
        <ele>1175</ele>
        <time>2021-06-19T12:43:29Z</time>
      </trkpt>
      <trkpt lat="42.66065" lon="1.07778">
        <ele>1173</ele>
        <time>2021-06-19T12:43:31Z</time>
      </trkpt>
      <trkpt lat="42.66058" lon="1.07774">
        <ele>1172</ele>
        <time>2021-06-19T12:43:32Z</time>
      </trkpt>
      <trkpt lat="42.66051" lon="1.07808">
        <ele>1160</ele>
        <time>2021-06-19T12:43:38Z</time>
      </trkpt>
      <trkpt lat="42.6605" lon="1.07826">
        <ele>1154</ele>
        <time>2021-06-19T12:43:41Z</time>
      </trkpt>
      <trkpt lat="42.66044" lon="1.0783">
        <ele>1152</ele>
        <time>2021-06-19T12:43:43Z</time>
      </trkpt>
      <trkpt lat="42.66022" lon="1.0783">
        <ele>1148</ele>
        <time>2021-06-19T12:43:48Z</time>
      </trkpt>
      <trkpt lat="42.66007" lon="1.07863">
        <ele>1137</ele>
        <time>2021-06-19T12:43:55Z</time>
      </trkpt>
      <trkpt lat="42.65998" lon="1.07898">
        <ele>1128</ele>
        <time>2021-06-19T12:44:01Z</time>
      </trkpt>
      <trkpt lat="42.65981" lon="1.07935">
        <ele>1124</ele>
        <time>2021-06-19T12:44:09Z</time>
      </trkpt>
      <trkpt lat="42.65968" lon="1.07982">
        <ele>1119</ele>
        <time>2021-06-19T12:44:17Z</time>
      </trkpt>
      <trkpt lat="42.65968" lon="1.08023">
        <ele>1113</ele>
        <time>2021-06-19T12:44:24Z</time>
      </trkpt>
      <trkpt lat="42.65974" lon="1.08056">
        <ele>1109</ele>
        <time>2021-06-19T12:44:30Z</time>
      </trkpt>
      <trkpt lat="42.65979" lon="1.08068">
        <ele>1108</ele>
        <time>2021-06-19T12:44:33Z</time>
      </trkpt>
      <trkpt lat="42.65982" lon="1.08095">
        <ele>1106</ele>
        <time>2021-06-19T12:44:37Z</time>
      </trkpt>
      <trkpt lat="42.65985" lon="1.08097">
        <ele>1106</ele>
        <time>2021-06-19T12:44:38Z</time>
      </trkpt>
      <trkpt lat="42.65991" lon="1.08124">
        <ele>1106</ele>
        <time>2021-06-19T12:44:43Z</time>
      </trkpt>
      <trkpt lat="42.65989" lon="1.08162">
        <ele>1106</ele>
        <time>2021-06-19T12:44:49Z</time>
      </trkpt>
      <trkpt lat="42.66043" lon="1.08169">
        <ele>1114</ele>
        <time>2021-06-19T12:45:02Z</time>
      </trkpt>
      <trkpt lat="42.66014" lon="1.08232">
        <ele>1114</ele>
        <time>2021-06-19T12:45:15Z</time>
      </trkpt>
      <trkpt lat="42.66014" lon="1.08246">
        <ele>1115</ele>
        <time>2021-06-19T12:45:17Z</time>
      </trkpt>
      <trkpt lat="42.65995" lon="1.08291">
        <ele>1114</ele>
        <time>2021-06-19T12:45:26Z</time>
      </trkpt>
      <trkpt lat="42.65988" lon="1.08303">
        <ele>1114</ele>
        <time>2021-06-19T12:45:29Z</time>
      </trkpt>
      <trkpt lat="42.65957" lon="1.08341">
        <ele>1110</ele>
        <time>2021-06-19T12:45:39Z</time>
      </trkpt>
      <trkpt lat="42.65947" lon="1.08365">
        <ele>1109</ele>
        <time>2021-06-19T12:45:43Z</time>
      </trkpt>
      <trkpt lat="42.65941" lon="1.08402">
        <ele>1109</ele>
        <time>2021-06-19T12:45:50Z</time>
      </trkpt>
      <trkpt lat="42.65935" lon="1.08501">
        <ele>1110</ele>
        <time>2021-06-19T12:46:07Z</time>
      </trkpt>
      <trkpt lat="42.65918" lon="1.08555">
        <ele>1107</ele>
        <time>2021-06-19T12:46:17Z</time>
      </trkpt>
      <trkpt lat="42.65899" lon="1.08605">
        <ele>1111</ele>
        <time>2021-06-19T12:46:27Z</time>
      </trkpt>
      <trkpt lat="42.65838" lon="1.08684">
        <ele>1113</ele>
        <time>2021-06-19T12:46:46Z</time>
      </trkpt>
      <trkpt lat="42.65813" lon="1.08704">
        <ele>1115</ele>
        <time>2021-06-19T12:46:53Z</time>
      </trkpt>
      <trkpt lat="42.65805" lon="1.08701">
        <ele>1113</ele>
        <time>2021-06-19T12:46:55Z</time>
      </trkpt>
      <trkpt lat="42.65795" lon="1.08704">
        <ele>1113</ele>
        <time>2021-06-19T12:46:57Z</time>
      </trkpt>
      <trkpt lat="42.65783" lon="1.08714">
        <ele>1114</ele>
        <time>2021-06-19T12:47:01Z</time>
      </trkpt>
      <trkpt lat="42.65779" lon="1.08721">
        <ele>1115</ele>
        <time>2021-06-19T12:47:02Z</time>
      </trkpt>
      <trkpt lat="42.65769" lon="1.08725">
        <ele>1115</ele>
        <time>2021-06-19T12:47:05Z</time>
      </trkpt>
      <trkpt lat="42.6571" lon="1.08735">
        <ele>1111</ele>
        <time>2021-06-19T12:47:19Z</time>
      </trkpt>
      <trkpt lat="42.65684" lon="1.08743">
        <ele>1110</ele>
        <time>2021-06-19T12:47:25Z</time>
      </trkpt>
      <trkpt lat="42.65669" lon="1.08756">
        <ele>1111</ele>
        <time>2021-06-19T12:47:29Z</time>
      </trkpt>
      <trkpt lat="42.65607" lon="1.08848">
        <ele>1122</ele>
        <time>2021-06-19T12:47:50Z</time>
      </trkpt>
      <trkpt lat="42.65587" lon="1.08868">
        <ele>1120</ele>
        <time>2021-06-19T12:47:56Z</time>
      </trkpt>
      <trkpt lat="42.6551" lon="1.08916">
        <ele>1109</ele>
        <time>2021-06-19T12:48:16Z</time>
      </trkpt>
      <trkpt lat="42.65495" lon="1.0892">
        <ele>1106</ele>
        <time>2021-06-19T12:48:19Z</time>
      </trkpt>
      <trkpt lat="42.6543" lon="1.08926">
        <ele>1098</ele>
        <time>2021-06-19T12:48:35Z</time>
      </trkpt>
      <trkpt lat="42.65416" lon="1.0893">
        <ele>1097</ele>
        <time>2021-06-19T12:48:38Z</time>
      </trkpt>
      <trkpt lat="42.65405" lon="1.0894">
        <ele>1096</ele>
        <time>2021-06-19T12:48:41Z</time>
      </trkpt>
      <trkpt lat="42.65374" lon="1.08984">
        <ele>1096</ele>
        <time>2021-06-19T12:48:52Z</time>
      </trkpt>
      <trkpt lat="42.65362" lon="1.09024">
        <ele>1097</ele>
        <time>2021-06-19T12:48:59Z</time>
      </trkpt>
      <trkpt lat="42.65362" lon="1.09168">
        <ele>1109</ele>
        <time>2021-06-19T12:49:24Z</time>
      </trkpt>
      <trkpt lat="42.65358" lon="1.09226">
        <ele>1112</ele>
        <time>2021-06-19T12:49:34Z</time>
      </trkpt>
      <trkpt lat="42.65353" lon="1.09262">
        <ele>1113</ele>
        <time>2021-06-19T12:49:40Z</time>
      </trkpt>
      <trkpt lat="42.65297" lon="1.09401">
        <ele>1104</ele>
        <time>2021-06-19T12:50:07Z</time>
      </trkpt>
      <trkpt lat="42.65293" lon="1.09422">
        <ele>1104</ele>
        <time>2021-06-19T12:50:11Z</time>
      </trkpt>
      <trkpt lat="42.65289" lon="1.09487">
        <ele>1104</ele>
        <time>2021-06-19T12:50:22Z</time>
      </trkpt>
      <trkpt lat="42.65283" lon="1.09536">
        <ele>1105</ele>
        <time>2021-06-19T12:50:31Z</time>
      </trkpt>
      <trkpt lat="42.6528" lon="1.09549">
        <ele>1105</ele>
        <time>2021-06-19T12:50:33Z</time>
      </trkpt>
      <trkpt lat="42.65261" lon="1.09595">
        <ele>1101</ele>
        <time>2021-06-19T12:50:42Z</time>
      </trkpt>
      <trkpt lat="42.6524" lon="1.09656">
        <ele>1100</ele>
        <time>2021-06-19T12:50:54Z</time>
      </trkpt>
      <trkpt lat="42.65227" lon="1.09688">
        <ele>1101</ele>
        <time>2021-06-19T12:51:00Z</time>
      </trkpt>
      <trkpt lat="42.65202" lon="1.09725">
        <ele>1097</ele>
        <time>2021-06-19T12:51:09Z</time>
      </trkpt>
      <trkpt lat="42.65147" lon="1.0985">
        <ele>1097</ele>
        <time>2021-06-19T12:51:34Z</time>
      </trkpt>
      <trkpt lat="42.65137" lon="1.09867">
        <ele>1098</ele>
        <time>2021-06-19T12:51:37Z</time>
      </trkpt>
      <trkpt lat="42.65121" lon="1.09879">
        <ele>1097</ele>
        <time>2021-06-19T12:51:42Z</time>
      </trkpt>
      <trkpt lat="42.65116" lon="1.09879">
        <ele>1096</ele>
        <time>2021-06-19T12:51:43Z</time>
      </trkpt>
      <trkpt lat="42.65116" lon="1.09887">
        <ele>1097</ele>
        <time>2021-06-19T12:51:44Z</time>
      </trkpt>
      <trkpt lat="42.65069" lon="1.09917">
        <ele>1091</ele>
        <time>2021-06-19T12:51:56Z</time>
      </trkpt>
      <trkpt lat="42.65065" lon="1.09917">
        <ele>1091</ele>
        <time>2021-06-19T12:51:57Z</time>
      </trkpt>
      <trkpt lat="42.65049" lon="1.09935">
        <ele>1091</ele>
        <time>2021-06-19T12:52:02Z</time>
      </trkpt>
      <trkpt lat="42.65035" lon="1.09959">
        <ele>1093</ele>
        <time>2021-06-19T12:52:07Z</time>
      </trkpt>
      <trkpt lat="42.65045" lon="1.09975">
        <ele>1096</ele>
        <time>2021-06-19T12:52:11Z</time>
      </trkpt>
      <trkpt lat="42.65039" lon="1.09989">
        <ele>1096</ele>
        <time>2021-06-19T12:52:14Z</time>
      </trkpt>
      <trkpt lat="42.65016" lon="1.10012">
        <ele>1096</ele>
        <time>2021-06-19T12:52:20Z</time>
      </trkpt>
      <trkpt lat="42.65026" lon="1.10058">
        <ele>1102</ele>
        <time>2021-06-19T12:52:29Z</time>
      </trkpt>
      <trkpt lat="42.65025" lon="1.10068">
        <ele>1103</ele>
        <time>2021-06-19T12:52:30Z</time>
      </trkpt>
      <trkpt lat="42.65019" lon="1.10074">
        <ele>1103</ele>
        <time>2021-06-19T12:52:32Z</time>
      </trkpt>
      <trkpt lat="42.65028" lon="1.10086">
        <ele>1105</ele>
        <time>2021-06-19T12:52:35Z</time>
      </trkpt>
      <trkpt lat="42.65029" lon="1.101">
        <ele>1108</ele>
        <time>2021-06-19T12:52:37Z</time>
      </trkpt>
      <trkpt lat="42.65023" lon="1.1011">
        <ele>1109</ele>
        <time>2021-06-19T12:52:40Z</time>
      </trkpt>
      <trkpt lat="42.65007" lon="1.10111">
        <ele>1107</ele>
        <time>2021-06-19T12:52:43Z</time>
      </trkpt>
      <trkpt lat="42.64995" lon="1.10101">
        <ele>1105</ele>
        <time>2021-06-19T12:52:47Z</time>
      </trkpt>
      <trkpt lat="42.64986" lon="1.10097">
        <ele>1104</ele>
        <time>2021-06-19T12:52:49Z</time>
      </trkpt>
      <trkpt lat="42.64977" lon="1.10098">
        <ele>1104</ele>
        <time>2021-06-19T12:52:51Z</time>
      </trkpt>
      <trkpt lat="42.64969" lon="1.10102">
        <ele>1104</ele>
        <time>2021-06-19T12:52:53Z</time>
      </trkpt>
      <trkpt lat="42.64969" lon="1.10114">
        <ele>1106</ele>
        <time>2021-06-19T12:52:55Z</time>
      </trkpt>
      <trkpt lat="42.6498" lon="1.1012">
        <ele>1108</ele>
        <time>2021-06-19T12:52:58Z</time>
      </trkpt>
      <trkpt lat="42.64968" lon="1.10132">
        <ele>1110</ele>
        <time>2021-06-19T12:53:01Z</time>
      </trkpt>
      <trkpt lat="42.6495" lon="1.10139">
        <ele>1111</ele>
        <time>2021-06-19T12:53:06Z</time>
      </trkpt>
      <trkpt lat="42.64943" lon="1.10146">
        <ele>1112</ele>
        <time>2021-06-19T12:53:08Z</time>
      </trkpt>
      <trkpt lat="42.64926" lon="1.10175">
        <ele>1118</ele>
        <time>2021-06-19T12:53:14Z</time>
      </trkpt>
      <trkpt lat="42.64914" lon="1.1019">
        <ele>1119</ele>
        <time>2021-06-19T12:53:18Z</time>
      </trkpt>
      <trkpt lat="42.64898" lon="1.10224">
        <ele>1116</ele>
        <time>2021-06-19T12:53:25Z</time>
      </trkpt>
      <trkpt lat="42.6486" lon="1.10293">
        <ele>1116</ele>
        <time>2021-06-19T12:53:40Z</time>
      </trkpt>
      <trkpt lat="42.64835" lon="1.10353">
        <ele>1131</ele>
        <time>2021-06-19T12:53:51Z</time>
      </trkpt>
      <trkpt lat="42.64814" lon="1.10383">
        <ele>1133</ele>
        <time>2021-06-19T12:53:59Z</time>
      </trkpt>
      <trkpt lat="42.64797" lon="1.10424">
        <ele>1143</ele>
        <time>2021-06-19T12:54:07Z</time>
      </trkpt>
      <trkpt lat="42.64782" lon="1.1045">
        <ele>1148</ele>
        <time>2021-06-19T12:54:12Z</time>
      </trkpt>
      <trkpt lat="42.64775" lon="1.10457">
        <ele>1148</ele>
        <time>2021-06-19T12:54:14Z</time>
      </trkpt>
      <trkpt lat="42.6474" lon="1.10471">
        <ele>1137</ele>
        <time>2021-06-19T12:54:23Z</time>
      </trkpt>
      <trkpt lat="42.64717" lon="1.1049">
        <ele>1132</ele>
        <time>2021-06-19T12:54:29Z</time>
      </trkpt>
      <trkpt lat="42.64658" lon="1.10594">
        <ele>1125</ele>
        <time>2021-06-19T12:54:52Z</time>
      </trkpt>
      <trkpt lat="42.64654" lon="1.10616">
        <ele>1126</ele>
        <time>2021-06-19T12:54:56Z</time>
      </trkpt>
      <trkpt lat="42.64656" lon="1.1065">
        <ele>1135</ele>
        <time>2021-06-19T12:55:02Z</time>
      </trkpt>
      <trkpt lat="42.64654" lon="1.10668">
        <ele>1137</ele>
        <time>2021-06-19T12:55:05Z</time>
      </trkpt>
      <trkpt lat="42.64649" lon="1.10684">
        <ele>1136</ele>
        <time>2021-06-19T12:55:08Z</time>
      </trkpt>
      <trkpt lat="42.64613" lon="1.10759">
        <ele>1123</ele>
        <time>2021-06-19T12:55:23Z</time>
      </trkpt>
      <trkpt lat="42.64609" lon="1.10777">
        <ele>1125</ele>
        <time>2021-06-19T12:55:26Z</time>
      </trkpt>
      <trkpt lat="42.64585" lon="1.10844">
        <ele>1122</ele>
        <time>2021-06-19T12:55:39Z</time>
      </trkpt>
      <trkpt lat="42.64582" lon="1.10889">
        <ele>1130</ele>
        <time>2021-06-19T12:55:47Z</time>
      </trkpt>
      <trkpt lat="42.64567" lon="1.10938">
        <ele>1126</ele>
        <time>2021-06-19T12:55:56Z</time>
      </trkpt>
      <trkpt lat="42.64561" lon="1.10993">
        <ele>1128</ele>
        <time>2021-06-19T12:56:05Z</time>
      </trkpt>
      <trkpt lat="42.64548" lon="1.11067">
        <ele>1129</ele>
        <time>2021-06-19T12:56:19Z</time>
      </trkpt>
      <trkpt lat="42.64532" lon="1.1112">
        <ele>1126</ele>
        <time>2021-06-19T12:56:28Z</time>
      </trkpt>
      <trkpt lat="42.64527" lon="1.11171">
        <ele>1133</ele>
        <time>2021-06-19T12:56:37Z</time>
      </trkpt>
      <trkpt lat="42.6452" lon="1.11193">
        <ele>1135</ele>
        <time>2021-06-19T12:56:41Z</time>
      </trkpt>
      <trkpt lat="42.64516" lon="1.11199">
        <ele>1134</ele>
        <time>2021-06-19T12:56:43Z</time>
      </trkpt>
      <trkpt lat="42.64502" lon="1.11207">
        <ele>1126</ele>
        <time>2021-06-19T12:56:46Z</time>
      </trkpt>
      <trkpt lat="42.64487" lon="1.11221">
        <ele>1122</ele>
        <time>2021-06-19T12:56:51Z</time>
      </trkpt>
      <trkpt lat="42.64452" lon="1.11277">
        <ele>1119</ele>
        <time>2021-06-19T12:57:03Z</time>
      </trkpt>
      <trkpt lat="42.64424" lon="1.11309">
        <ele>1113</ele>
        <time>2021-06-19T12:57:12Z</time>
      </trkpt>
      <trkpt lat="42.64418" lon="1.11323">
        <ele>1114</ele>
        <time>2021-06-19T12:57:14Z</time>
      </trkpt>
      <trkpt lat="42.64411" lon="1.11329">
        <ele>1114</ele>
        <time>2021-06-19T12:57:16Z</time>
      </trkpt>
      <trkpt lat="42.64383" lon="1.11344">
        <ele>1110</ele>
        <time>2021-06-19T12:57:23Z</time>
      </trkpt>
      <trkpt lat="42.64364" lon="1.11349">
        <ele>1105</ele>
        <time>2021-06-19T12:57:28Z</time>
      </trkpt>
      <trkpt lat="42.64358" lon="1.11354">
        <ele>1104</ele>
        <time>2021-06-19T12:57:30Z</time>
      </trkpt>
      <trkpt lat="42.64344" lon="1.11377">
        <ele>1106</ele>
        <time>2021-06-19T12:57:35Z</time>
      </trkpt>
      <trkpt lat="42.64332" lon="1.11386">
        <ele>1105</ele>
        <time>2021-06-19T12:57:38Z</time>
      </trkpt>
      <trkpt lat="42.64287" lon="1.11411">
        <ele>1100</ele>
        <time>2021-06-19T12:57:49Z</time>
      </trkpt>
      <trkpt lat="42.64257" lon="1.11413">
        <ele>1093</ele>
        <time>2021-06-19T12:57:56Z</time>
      </trkpt>
      <trkpt lat="42.6423" lon="1.1143">
        <ele>1095</ele>
        <time>2021-06-19T12:58:03Z</time>
      </trkpt>
      <trkpt lat="42.64198" lon="1.11437">
        <ele>1096</ele>
        <time>2021-06-19T12:58:11Z</time>
      </trkpt>
      <trkpt lat="42.64182" lon="1.11456">
        <ele>1101</ele>
        <time>2021-06-19T12:58:16Z</time>
      </trkpt>
      <trkpt lat="42.6417" lon="1.11463">
        <ele>1103</ele>
        <time>2021-06-19T12:58:19Z</time>
      </trkpt>
      <trkpt lat="42.64137" lon="1.11473">
        <ele>1099</ele>
        <time>2021-06-19T12:58:27Z</time>
      </trkpt>
      <trkpt lat="42.64125" lon="1.11484">
        <ele>1099</ele>
        <time>2021-06-19T12:58:30Z</time>
      </trkpt>
      <trkpt lat="42.64118" lon="1.11487">
        <ele>1098</ele>
        <time>2021-06-19T12:58:32Z</time>
      </trkpt>
      <trkpt lat="42.64086" lon="1.11494">
        <ele>1091</ele>
        <time>2021-06-19T12:58:39Z</time>
      </trkpt>
      <trkpt lat="42.64071" lon="1.11501">
        <ele>1091</ele>
        <time>2021-06-19T12:58:43Z</time>
      </trkpt>
      <trkpt lat="42.63977" lon="1.11574">
        <ele>1093</ele>
        <time>2021-06-19T12:59:08Z</time>
      </trkpt>
      <trkpt lat="42.63962" lon="1.1159">
        <ele>1093</ele>
        <time>2021-06-19T12:59:13Z</time>
      </trkpt>
      <trkpt lat="42.63939" lon="1.11605">
        <ele>1091</ele>
        <time>2021-06-19T12:59:19Z</time>
      </trkpt>
      <trkpt lat="42.6392" lon="1.11628">
        <ele>1092</ele>
        <time>2021-06-19T12:59:25Z</time>
      </trkpt>
      <trkpt lat="42.63902" lon="1.11641">
        <ele>1088</ele>
        <time>2021-06-19T12:59:29Z</time>
      </trkpt>
      <trkpt lat="42.63897" lon="1.11646">
        <ele>1087</ele>
        <time>2021-06-19T12:59:31Z</time>
      </trkpt>
      <trkpt lat="42.63884" lon="1.11678">
        <ele>1092</ele>
        <time>2021-06-19T12:59:37Z</time>
      </trkpt>
      <trkpt lat="42.63867" lon="1.11702">
        <ele>1095</ele>
        <time>2021-06-19T12:59:43Z</time>
      </trkpt>
      <trkpt lat="42.63858" lon="1.11707">
        <ele>1094</ele>
        <time>2021-06-19T12:59:45Z</time>
      </trkpt>
      <trkpt lat="42.63843" lon="1.11708">
        <ele>1088</ele>
        <time>2021-06-19T12:59:49Z</time>
      </trkpt>
      <trkpt lat="42.63822" lon="1.11716">
        <ele>1082</ele>
        <time>2021-06-19T12:59:54Z</time>
      </trkpt>
      <trkpt lat="42.63783" lon="1.11751">
        <ele>1082</ele>
        <time>2021-06-19T13:00:05Z</time>
      </trkpt>
      <trkpt lat="42.63742" lon="1.11835">
        <ele>1091</ele>
        <time>2021-06-19T13:00:22Z</time>
      </trkpt>
      <trkpt lat="42.63731" lon="1.11881">
        <ele>1095</ele>
        <time>2021-06-19T13:00:30Z</time>
      </trkpt>
      <trkpt lat="42.63714" lon="1.11897">
        <ele>1089</ele>
        <time>2021-06-19T13:00:35Z</time>
      </trkpt>
      <trkpt lat="42.63692" lon="1.11904">
        <ele>1077</ele>
        <time>2021-06-19T13:00:40Z</time>
      </trkpt>
      <trkpt lat="42.63661" lon="1.11953">
        <ele>1067</ele>
        <time>2021-06-19T13:00:52Z</time>
      </trkpt>
      <trkpt lat="42.63653" lon="1.11952">
        <ele>1062</ele>
        <time>2021-06-19T13:00:53Z</time>
      </trkpt>
      <trkpt lat="42.63609" lon="1.12032">
        <ele>1046</ele>
        <time>2021-06-19T13:01:11Z</time>
      </trkpt>
      <trkpt lat="42.63614" lon="1.12045">
        <ele>1051</ele>
        <time>2021-06-19T13:01:13Z</time>
      </trkpt>
      <trkpt lat="42.63578" lon="1.12189">
        <ele>1051</ele>
        <time>2021-06-19T13:01:39Z</time>
      </trkpt>
      <trkpt lat="42.63485" lon="1.12246">
        <ele>1032</ele>
        <time>2021-06-19T13:02:03Z</time>
      </trkpt>
      <trkpt lat="42.63465" lon="1.12266">
        <ele>1037</ele>
        <time>2021-06-19T13:02:09Z</time>
      </trkpt>
      <trkpt lat="42.63438" lon="1.12263">
        <ele>1030</ele>
        <time>2021-06-19T13:02:15Z</time>
      </trkpt>
      <trkpt lat="42.6342" lon="1.12273">
        <ele>1029</ele>
        <time>2021-06-19T13:02:20Z</time>
      </trkpt>
      <trkpt lat="42.63438" lon="1.12245">
        <ele>1023</ele>
        <time>2021-06-19T13:02:26Z</time>
      </trkpt>
      <trkpt lat="42.63422" lon="1.12256">
        <ele>1023</ele>
        <time>2021-06-19T13:02:30Z</time>
      </trkpt>
      <trkpt lat="42.63385" lon="1.12274">
        <ele>1027</ele>
        <time>2021-06-19T13:02:39Z</time>
      </trkpt>
      <trkpt lat="42.63364" lon="1.12273">
        <ele>1026</ele>
        <time>2021-06-19T13:02:44Z</time>
      </trkpt>
      <trkpt lat="42.63334" lon="1.12258">
        <ele>1021</ele>
        <time>2021-06-19T13:02:52Z</time>
      </trkpt>
      <trkpt lat="42.63318" lon="1.12257">
        <ele>1019</ele>
        <time>2021-06-19T13:02:56Z</time>
      </trkpt>
      <trkpt lat="42.63302" lon="1.12262">
        <ele>1018</ele>
        <time>2021-06-19T13:02:59Z</time>
      </trkpt>
      <trkpt lat="42.63273" lon="1.1228">
        <ele>1017</ele>
        <time>2021-06-19T13:03:07Z</time>
      </trkpt>
      <trkpt lat="42.63262" lon="1.12298">
        <ele>1016</ele>
        <time>2021-06-19T13:03:11Z</time>
      </trkpt>
      <trkpt lat="42.6326" lon="1.12319">
        <ele>1018</ele>
        <time>2021-06-19T13:03:15Z</time>
      </trkpt>
      <trkpt lat="42.63252" lon="1.12329">
        <ele>1017</ele>
        <time>2021-06-19T13:03:17Z</time>
      </trkpt>
      <trkpt lat="42.63247" lon="1.12331">
        <ele>1016</ele>
        <time>2021-06-19T13:03:18Z</time>
      </trkpt>
      <trkpt lat="42.63241" lon="1.12329">
        <ele>1013</ele>
        <time>2021-06-19T13:03:20Z</time>
      </trkpt>
      <trkpt lat="42.63211" lon="1.1231">
        <ele>1001</ele>
        <time>2021-06-19T13:03:27Z</time>
      </trkpt>
      <trkpt lat="42.63205" lon="1.1231">
        <ele>999</ele>
        <time>2021-06-19T13:03:29Z</time>
      </trkpt>
      <trkpt lat="42.63203" lon="1.12325">
        <ele>999</ele>
        <time>2021-06-19T13:03:31Z</time>
      </trkpt>
      <trkpt lat="42.63192" lon="1.12343">
        <ele>998</ele>
        <time>2021-06-19T13:03:35Z</time>
      </trkpt>
      <trkpt lat="42.63184" lon="1.1235">
        <ele>997</ele>
        <time>2021-06-19T13:03:38Z</time>
      </trkpt>
      <trkpt lat="42.63157" lon="1.12348">
        <ele>988</ele>
        <time>2021-06-19T13:03:44Z</time>
      </trkpt>
      <trkpt lat="42.63152" lon="1.1235">
        <ele>988</ele>
        <time>2021-06-19T13:03:45Z</time>
      </trkpt>
      <trkpt lat="42.6314" lon="1.12382">
        <ele>993</ele>
        <time>2021-06-19T13:03:51Z</time>
      </trkpt>
      <trkpt lat="42.63136" lon="1.12387">
        <ele>993</ele>
        <time>2021-06-19T13:03:53Z</time>
      </trkpt>
      <trkpt lat="42.63117" lon="1.12397">
        <ele>989</ele>
        <time>2021-06-19T13:03:57Z</time>
      </trkpt>
      <trkpt lat="42.63081" lon="1.1244">
        <ele>991</ele>
        <time>2021-06-19T13:04:09Z</time>
      </trkpt>
      <trkpt lat="42.63043" lon="1.12458">
        <ele>994</ele>
        <time>2021-06-19T13:04:18Z</time>
      </trkpt>
      <trkpt lat="42.63015" lon="1.12463">
        <ele>992</ele>
        <time>2021-06-19T13:04:25Z</time>
      </trkpt>
      <trkpt lat="42.62979" lon="1.12445">
        <ele>983</ele>
        <time>2021-06-19T13:04:34Z</time>
      </trkpt>
      <trkpt lat="42.62969" lon="1.12452">
        <ele>986</ele>
        <time>2021-06-19T13:04:36Z</time>
      </trkpt>
      <trkpt lat="42.62964" lon="1.12452">
        <ele>986</ele>
        <time>2021-06-19T13:04:37Z</time>
      </trkpt>
      <trkpt lat="42.62947" lon="1.12445">
        <ele>984</ele>
        <time>2021-06-19T13:04:42Z</time>
      </trkpt>
      <trkpt lat="42.62954" lon="1.12456">
        <ele>988</ele>
        <time>2021-06-19T13:04:44Z</time>
      </trkpt>
      <trkpt lat="42.62955" lon="1.12463">
        <ele>990</ele>
        <time>2021-06-19T13:04:45Z</time>
      </trkpt>
      <trkpt lat="42.62944" lon="1.12455">
        <ele>988</ele>
        <time>2021-06-19T13:04:48Z</time>
      </trkpt>
      <trkpt lat="42.62938" lon="1.12454">
        <ele>987</ele>
        <time>2021-06-19T13:04:50Z</time>
      </trkpt>
      <trkpt lat="42.62933" lon="1.12459">
        <ele>989</ele>
        <time>2021-06-19T13:04:51Z</time>
      </trkpt>
      <trkpt lat="42.62925" lon="1.12479">
        <ele>996</ele>
        <time>2021-06-19T13:04:55Z</time>
      </trkpt>
      <trkpt lat="42.62903" lon="1.12486">
        <ele>996</ele>
        <time>2021-06-19T13:05:00Z</time>
      </trkpt>
      <trkpt lat="42.62889" lon="1.12496">
        <ele>996</ele>
        <time>2021-06-19T13:05:04Z</time>
      </trkpt>
      <trkpt lat="42.62864" lon="1.12527">
        <ele>1002</ele>
        <time>2021-06-19T13:05:12Z</time>
      </trkpt>
      <trkpt lat="42.62829" lon="1.1263">
        <ele>1027</ele>
        <time>2021-06-19T13:05:31Z</time>
      </trkpt>
      <trkpt lat="42.62825" lon="1.12665">
        <ele>1036</ele>
        <time>2021-06-19T13:05:37Z</time>
      </trkpt>
      <trkpt lat="42.62816" lon="1.12676">
        <ele>1036</ele>
        <time>2021-06-19T13:05:40Z</time>
      </trkpt>
      <trkpt lat="42.62792" lon="1.12717">
        <ele>1041</ele>
        <time>2021-06-19T13:05:49Z</time>
      </trkpt>
      <trkpt lat="42.62779" lon="1.12733">
        <ele>1041</ele>
        <time>2021-06-19T13:05:53Z</time>
      </trkpt>
      <trkpt lat="42.62771" lon="1.1275">
        <ele>1044</ele>
        <time>2021-06-19T13:05:57Z</time>
      </trkpt>
      <trkpt lat="42.62768" lon="1.12763">
        <ele>1047</ele>
        <time>2021-06-19T13:05:59Z</time>
      </trkpt>
      <trkpt lat="42.62732" lon="1.12803">
        <ele>1041</ele>
        <time>2021-06-19T13:06:10Z</time>
      </trkpt>
      <trkpt lat="42.62723" lon="1.12819">
        <ele>1042</ele>
        <time>2021-06-19T13:06:13Z</time>
      </trkpt>
      <trkpt lat="42.62711" lon="1.12873">
        <ele>1053</ele>
        <time>2021-06-19T13:06:23Z</time>
      </trkpt>
      <trkpt lat="42.62701" lon="1.12901">
        <ele>1057</ele>
        <time>2021-06-19T13:06:28Z</time>
      </trkpt>
      <trkpt lat="42.62688" lon="1.12918">
        <ele>1056</ele>
        <time>2021-06-19T13:06:33Z</time>
      </trkpt>
      <trkpt lat="42.62672" lon="1.12949">
        <ele>1061</ele>
        <time>2021-06-19T13:06:39Z</time>
      </trkpt>
      <trkpt lat="42.6266" lon="1.12966">
        <ele>1063</ele>
        <time>2021-06-19T13:06:43Z</time>
      </trkpt>
      <trkpt lat="42.62652" lon="1.12967">
        <ele>1060</ele>
        <time>2021-06-19T13:06:45Z</time>
      </trkpt>
      <trkpt lat="42.62647" lon="1.12964">
        <ele>1057</ele>
        <time>2021-06-19T13:06:46Z</time>
      </trkpt>
      <trkpt lat="42.62648" lon="1.12955">
        <ele>1054</ele>
        <time>2021-06-19T13:06:48Z</time>
      </trkpt>
      <trkpt lat="42.6266" lon="1.12929">
        <ele>1048</ele>
        <time>2021-06-19T13:06:53Z</time>
      </trkpt>
      <trkpt lat="42.62674" lon="1.12906">
        <ele>1046</ele>
        <time>2021-06-19T13:06:58Z</time>
      </trkpt>
      <trkpt lat="42.6268" lon="1.12885">
        <ele>1043</ele>
        <time>2021-06-19T13:07:02Z</time>
      </trkpt>
      <trkpt lat="42.62685" lon="1.12878">
        <ele>1043</ele>
        <time>2021-06-19T13:07:04Z</time>
      </trkpt>
      <trkpt lat="42.62694" lon="1.12823">
        <ele>1030</ele>
        <time>2021-06-19T13:07:14Z</time>
      </trkpt>
      <trkpt lat="42.6269" lon="1.12816">
        <ele>1026</ele>
        <time>2021-06-19T13:07:15Z</time>
      </trkpt>
      <trkpt lat="42.62683" lon="1.12818">
        <ele>1023</ele>
        <time>2021-06-19T13:07:17Z</time>
      </trkpt>
      <trkpt lat="42.62677" lon="1.12825">
        <ele>1023</ele>
        <time>2021-06-19T13:07:19Z</time>
      </trkpt>
      <trkpt lat="42.62676" lon="1.12842">
        <ele>1028</ele>
        <time>2021-06-19T13:07:22Z</time>
      </trkpt>
      <trkpt lat="42.62669" lon="1.12859">
        <ele>1030</ele>
        <time>2021-06-19T13:07:25Z</time>
      </trkpt>
      <trkpt lat="42.62626" lon="1.1289">
        <ele>1022</ele>
        <time>2021-06-19T13:07:36Z</time>
      </trkpt>
      <trkpt lat="42.62608" lon="1.12911">
        <ele>1020</ele>
        <time>2021-06-19T13:07:42Z</time>
      </trkpt>
      <trkpt lat="42.62581" lon="1.12931">
        <ele>1017</ele>
        <time>2021-06-19T13:07:49Z</time>
      </trkpt>
      <trkpt lat="42.62564" lon="1.12954">
        <ele>1020</ele>
        <time>2021-06-19T13:07:55Z</time>
      </trkpt>
      <trkpt lat="42.62556" lon="1.12957">
        <ele>1018</ele>
        <time>2021-06-19T13:07:57Z</time>
      </trkpt>
      <trkpt lat="42.62551" lon="1.1295">
        <ele>1014</ele>
        <time>2021-06-19T13:07:58Z</time>
      </trkpt>
      <trkpt lat="42.62492" lon="1.13025">
        <ele>1019</ele>
        <time>2021-06-19T13:08:17Z</time>
      </trkpt>
      <trkpt lat="42.62434" lon="1.13069">
        <ele>1019</ele>
        <time>2021-06-19T13:08:33Z</time>
      </trkpt>
      <trkpt lat="42.62411" lon="1.13097">
        <ele>1022</ele>
        <time>2021-06-19T13:08:40Z</time>
      </trkpt>
      <trkpt lat="42.62378" lon="1.13123">
        <ele>1024</ele>
        <time>2021-06-19T13:08:49Z</time>
      </trkpt>
      <trkpt lat="42.6235" lon="1.13154">
        <ele>1027</ele>
        <time>2021-06-19T13:08:57Z</time>
      </trkpt>
      <trkpt lat="42.62292" lon="1.13204">
        <ele>1029</ele>
        <time>2021-06-19T13:09:13Z</time>
      </trkpt>
      <trkpt lat="42.62262" lon="1.13239">
        <ele>1032</ele>
        <time>2021-06-19T13:09:22Z</time>
      </trkpt>
      <trkpt lat="42.62251" lon="1.13259">
        <ele>1036</ele>
        <time>2021-06-19T13:09:27Z</time>
      </trkpt>
      <trkpt lat="42.62246" lon="1.13274">
        <ele>1040</ele>
        <time>2021-06-19T13:09:30Z</time>
      </trkpt>
      <trkpt lat="42.62231" lon="1.13289">
        <ele>1040</ele>
        <time>2021-06-19T13:09:34Z</time>
      </trkpt>
      <trkpt lat="42.62201" lon="1.13307">
        <ele>1036</ele>
        <time>2021-06-19T13:09:42Z</time>
      </trkpt>
      <trkpt lat="42.62172" lon="1.13345">
        <ele>1041</ele>
        <time>2021-06-19T13:09:51Z</time>
      </trkpt>
      <trkpt lat="42.62136" lon="1.13398">
        <ele>1042</ele>
        <time>2021-06-19T13:10:03Z</time>
      </trkpt>
      <trkpt lat="42.62031" lon="1.1361">
        <ele>1059</ele>
        <time>2021-06-19T13:10:47Z</time>
      </trkpt>
      <trkpt lat="42.61992" lon="1.13712">
        <ele>1066</ele>
        <time>2021-06-19T13:11:07Z</time>
      </trkpt>
      <trkpt lat="42.61963" lon="1.13798">
        <ele>1070</ele>
        <time>2021-06-19T13:11:23Z</time>
      </trkpt>
      <trkpt lat="42.61933" lon="1.13953">
        <ele>1078</ele>
        <time>2021-06-19T13:11:51Z</time>
      </trkpt>
      <trkpt lat="42.61931" lon="1.14">
        <ele>1083</ele>
        <time>2021-06-19T13:11:59Z</time>
      </trkpt>
      <trkpt lat="42.61912" lon="1.14066">
        <ele>1080</ele>
        <time>2021-06-19T13:12:11Z</time>
      </trkpt>
      <trkpt lat="42.61914" lon="1.14091">
        <ele>1083</ele>
        <time>2021-06-19T13:12:15Z</time>
      </trkpt>
      <trkpt lat="42.61958" lon="1.14165">
        <ele>1094</ele>
        <time>2021-06-19T13:12:32Z</time>
      </trkpt>
      <trkpt lat="42.62001" lon="1.14208">
        <ele>1099</ele>
        <time>2021-06-19T13:12:44Z</time>
      </trkpt>
      <trkpt lat="42.62051" lon="1.14279">
        <ele>1101</ele>
        <time>2021-06-19T13:13:01Z</time>
      </trkpt>
      <trkpt lat="42.62093" lon="1.14332">
        <ele>1102</ele>
        <time>2021-06-19T13:13:15Z</time>
      </trkpt>
      <trkpt lat="42.62134" lon="1.14367">
        <ele>1107</ele>
        <time>2021-06-19T13:13:26Z</time>
      </trkpt>
      <trkpt lat="42.62188" lon="1.14404">
        <ele>1116</ele>
        <time>2021-06-19T13:13:40Z</time>
      </trkpt>
      <trkpt lat="42.62232" lon="1.1443">
        <ele>1122</ele>
        <time>2021-06-19T13:13:51Z</time>
      </trkpt>
      <trkpt lat="42.62292" lon="1.14457">
        <ele>1127</ele>
        <time>2021-06-19T13:14:06Z</time>
      </trkpt>
      <trkpt lat="42.62355" lon="1.14469">
        <ele>1134</ele>
        <time>2021-06-19T13:14:21Z</time>
      </trkpt>
      <trkpt lat="42.62391" lon="1.14494">
        <ele>1134</ele>
        <time>2021-06-19T13:14:30Z</time>
      </trkpt>
      <trkpt lat="42.62413" lon="1.14514">
        <ele>1133</ele>
        <time>2021-06-19T13:14:36Z</time>
      </trkpt>
      <trkpt lat="42.62508" lon="1.14565">
        <ele>1145</ele>
        <time>2021-06-19T13:15:00Z</time>
      </trkpt>
      <trkpt lat="42.62581" lon="1.14619">
        <ele>1147</ele>
        <time>2021-06-19T13:15:20Z</time>
      </trkpt>
      <trkpt lat="42.62608" lon="1.14622">
        <ele>1149</ele>
        <time>2021-06-19T13:15:26Z</time>
      </trkpt>
      <trkpt lat="42.62638" lon="1.14622">
        <ele>1152</ele>
        <time>2021-06-19T13:15:33Z</time>
      </trkpt>
      <trkpt lat="42.6266" lon="1.14619">
        <ele>1155</ele>
        <time>2021-06-19T13:15:38Z</time>
      </trkpt>
      <trkpt lat="42.62702" lon="1.14622">
        <ele>1160</ele>
        <time>2021-06-19T13:15:48Z</time>
      </trkpt>
      <trkpt lat="42.62731" lon="1.14634">
        <ele>1161</ele>
        <time>2021-06-19T13:15:55Z</time>
      </trkpt>
      <trkpt lat="42.62746" lon="1.14645">
        <ele>1160</ele>
        <time>2021-06-19T13:15:59Z</time>
      </trkpt>
      <trkpt lat="42.62765" lon="1.14667">
        <ele>1157</ele>
        <time>2021-06-19T13:16:05Z</time>
      </trkpt>
      <trkpt lat="42.62783" lon="1.14698">
        <ele>1160</ele>
        <time>2021-06-19T13:16:12Z</time>
      </trkpt>
      <trkpt lat="42.62799" lon="1.1472">
        <ele>1161</ele>
        <time>2021-06-19T13:16:17Z</time>
      </trkpt>
      <trkpt lat="42.62822" lon="1.14724">
        <ele>1162</ele>
        <time>2021-06-19T13:16:22Z</time>
      </trkpt>
      <trkpt lat="42.62835" lon="1.1472">
        <ele>1164</ele>
        <time>2021-06-19T13:16:25Z</time>
      </trkpt>
      <trkpt lat="42.62879" lon="1.14685">
        <ele>1174</ele>
        <time>2021-06-19T13:16:37Z</time>
      </trkpt>
      <trkpt lat="42.62904" lon="1.14673">
        <ele>1178</ele>
        <time>2021-06-19T13:16:44Z</time>
      </trkpt>
      <trkpt lat="42.62976" lon="1.14663">
        <ele>1193</ele>
        <time>2021-06-19T13:17:00Z</time>
      </trkpt>
      <trkpt lat="42.63001" lon="1.14667">
        <ele>1196</ele>
        <time>2021-06-19T13:17:06Z</time>
      </trkpt>
      <trkpt lat="42.63029" lon="1.1469">
        <ele>1197</ele>
        <time>2021-06-19T13:17:14Z</time>
      </trkpt>
      <trkpt lat="42.6304" lon="1.14705">
        <ele>1195</ele>
        <time>2021-06-19T13:17:18Z</time>
      </trkpt>
      <trkpt lat="42.63052" lon="1.14716">
        <ele>1194</ele>
        <time>2021-06-19T13:17:21Z</time>
      </trkpt>
      <trkpt lat="42.63111" lon="1.14753">
        <ele>1192</ele>
        <time>2021-06-19T13:17:36Z</time>
      </trkpt>
      <trkpt lat="42.63148" lon="1.14794">
        <ele>1197</ele>
        <time>2021-06-19T13:17:47Z</time>
      </trkpt>
      <trkpt lat="42.63165" lon="1.14807">
        <ele>1197</ele>
        <time>2021-06-19T13:17:52Z</time>
      </trkpt>
      <trkpt lat="42.63196" lon="1.14815">
        <ele>1199</ele>
        <time>2021-06-19T13:17:59Z</time>
      </trkpt>
      <trkpt lat="42.63235" lon="1.1484">
        <ele>1197</ele>
        <time>2021-06-19T13:18:09Z</time>
      </trkpt>
      <trkpt lat="42.6327" lon="1.14857">
        <ele>1200</ele>
        <time>2021-06-19T13:18:18Z</time>
      </trkpt>
      <trkpt lat="42.63276" lon="1.14864">
        <ele>1201</ele>
        <time>2021-06-19T13:18:20Z</time>
      </trkpt>
      <trkpt lat="42.63291" lon="1.14898">
        <ele>1203</ele>
        <time>2021-06-19T13:18:27Z</time>
      </trkpt>
      <trkpt lat="42.63313" lon="1.14907">
        <ele>1204</ele>
        <time>2021-06-19T13:18:32Z</time>
      </trkpt>
      <trkpt lat="42.63331" lon="1.14919">
        <ele>1206</ele>
        <time>2021-06-19T13:18:37Z</time>
      </trkpt>
      <trkpt lat="42.63346" lon="1.14916">
        <ele>1208</ele>
        <time>2021-06-19T13:18:40Z</time>
      </trkpt>
      <trkpt lat="42.63357" lon="1.14927">
        <ele>1212</ele>
        <time>2021-06-19T13:18:43Z</time>
      </trkpt>
      <trkpt lat="42.63359" lon="1.14928">
        <ele>1212</ele>
        <time>2021-06-19T13:18:44Z</time>
      </trkpt>
      <trkpt lat="42.63363" lon="1.14925">
        <ele>1212</ele>
        <time>2021-06-19T13:18:45Z</time>
      </trkpt>
      <trkpt lat="42.6337" lon="1.14934">
        <ele>1215</ele>
        <time>2021-06-19T13:18:47Z</time>
      </trkpt>
      <trkpt lat="42.63376" lon="1.14931">
        <ele>1215</ele>
        <time>2021-06-19T13:18:49Z</time>
      </trkpt>
      <trkpt lat="42.63383" lon="1.14912">
        <ele>1216</ele>
        <time>2021-06-19T13:18:52Z</time>
      </trkpt>
      <trkpt lat="42.63389" lon="1.14936">
        <ele>1218</ele>
        <time>2021-06-19T13:18:57Z</time>
      </trkpt>
      <trkpt lat="42.63399" lon="1.14939">
        <ele>1219</ele>
        <time>2021-06-19T13:18:59Z</time>
      </trkpt>
      <trkpt lat="42.63407" lon="1.14938">
        <ele>1220</ele>
        <time>2021-06-19T13:19:01Z</time>
      </trkpt>
      <trkpt lat="42.63417" lon="1.14932">
        <ele>1222</ele>
        <time>2021-06-19T13:19:04Z</time>
      </trkpt>
      <trkpt lat="42.63413" lon="1.14928">
        <ele>1221</ele>
        <time>2021-06-19T13:19:05Z</time>
      </trkpt>
      <trkpt lat="42.63413" lon="1.14924">
        <ele>1221</ele>
        <time>2021-06-19T13:19:05Z</time>
      </trkpt>
      <trkpt lat="42.63413" lon="1.14928">
        <ele>1221</ele>
        <time>2021-06-19T13:19:06Z</time>
      </trkpt>
      <trkpt lat="42.63417" lon="1.14932">
        <ele>1222</ele>
        <time>2021-06-19T13:19:07Z</time>
      </trkpt>
      <trkpt lat="42.63407" lon="1.14938">
        <ele>1220</ele>
        <time>2021-06-19T13:19:10Z</time>
      </trkpt>
      <trkpt lat="42.63399" lon="1.14939">
        <ele>1219</ele>
        <time>2021-06-19T13:19:12Z</time>
      </trkpt>
      <trkpt lat="42.63389" lon="1.14936">
        <ele>1218</ele>
        <time>2021-06-19T13:19:14Z</time>
      </trkpt>
      <trkpt lat="42.63383" lon="1.14912">
        <ele>1216</ele>
        <time>2021-06-19T13:19:18Z</time>
      </trkpt>
      <trkpt lat="42.63376" lon="1.14931">
        <ele>1215</ele>
        <time>2021-06-19T13:19:22Z</time>
      </trkpt>
      <trkpt lat="42.6337" lon="1.14934">
        <ele>1215</ele>
        <time>2021-06-19T13:19:24Z</time>
      </trkpt>
      <trkpt lat="42.63363" lon="1.14925">
        <ele>1212</ele>
        <time>2021-06-19T13:19:26Z</time>
      </trkpt>
      <trkpt lat="42.63359" lon="1.14928">
        <ele>1212</ele>
        <time>2021-06-19T13:19:27Z</time>
      </trkpt>
      <trkpt lat="42.63357" lon="1.14927">
        <ele>1212</ele>
        <time>2021-06-19T13:19:27Z</time>
      </trkpt>
      <trkpt lat="42.63346" lon="1.14916">
        <ele>1208</ele>
        <time>2021-06-19T13:19:31Z</time>
      </trkpt>
      <trkpt lat="42.63331" lon="1.14919">
        <ele>1206</ele>
        <time>2021-06-19T13:19:34Z</time>
      </trkpt>
      <trkpt lat="42.63341" lon="1.14927">
        <ele>1209</ele>
        <time>2021-06-19T13:19:37Z</time>
      </trkpt>
      <trkpt lat="42.63333" lon="1.14944">
        <ele>1212</ele>
        <time>2021-06-19T13:19:40Z</time>
      </trkpt>
      <trkpt lat="42.6333" lon="1.14946">
        <ele>1212</ele>
        <time>2021-06-19T13:19:41Z</time>
      </trkpt>
      <trkpt lat="42.63327" lon="1.14942">
        <ele>1211</ele>
        <time>2021-06-19T13:19:42Z</time>
      </trkpt>
      <trkpt lat="42.63305" lon="1.14935">
        <ele>1209</ele>
        <time>2021-06-19T13:19:47Z</time>
      </trkpt>
      <trkpt lat="42.63277" lon="1.14944">
        <ele>1212</ele>
        <time>2021-06-19T13:19:54Z</time>
      </trkpt>
      <trkpt lat="42.63255" lon="1.14958">
        <ele>1217</ele>
        <time>2021-06-19T13:20:00Z</time>
      </trkpt>
      <trkpt lat="42.6325" lon="1.14959">
        <ele>1218</ele>
        <time>2021-06-19T13:20:01Z</time>
      </trkpt>
      <trkpt lat="42.63228" lon="1.14955">
        <ele>1220</ele>
        <time>2021-06-19T13:20:06Z</time>
      </trkpt>
      <trkpt lat="42.63216" lon="1.14948">
        <ele>1219</ele>
        <time>2021-06-19T13:20:09Z</time>
      </trkpt>
      <trkpt lat="42.63192" lon="1.14924">
        <ele>1215</ele>
        <time>2021-06-19T13:20:16Z</time>
      </trkpt>
      <trkpt lat="42.63162" lon="1.14904">
        <ele>1214</ele>
        <time>2021-06-19T13:20:24Z</time>
      </trkpt>
      <trkpt lat="42.63145" lon="1.14888">
        <ele>1210</ele>
        <time>2021-06-19T13:20:29Z</time>
      </trkpt>
      <trkpt lat="42.63135" lon="1.14883">
        <ele>1209</ele>
        <time>2021-06-19T13:20:31Z</time>
      </trkpt>
      <trkpt lat="42.63126" lon="1.14885">
        <ele>1210</ele>
        <time>2021-06-19T13:20:33Z</time>
      </trkpt>
      <trkpt lat="42.63106" lon="1.149">
        <ele>1216</ele>
        <time>2021-06-19T13:20:39Z</time>
      </trkpt>
      <trkpt lat="42.63098" lon="1.14903">
        <ele>1217</ele>
        <time>2021-06-19T13:20:41Z</time>
      </trkpt>
      <trkpt lat="42.63043" lon="1.14902">
        <ele>1219</ele>
        <time>2021-06-19T13:20:53Z</time>
      </trkpt>
      <trkpt lat="42.63013" lon="1.14892">
        <ele>1217</ele>
        <time>2021-06-19T13:21:01Z</time>
      </trkpt>
      <trkpt lat="42.63005" lon="1.14886">
        <ele>1216</ele>
        <time>2021-06-19T13:21:03Z</time>
      </trkpt>
      <trkpt lat="42.62991" lon="1.14884">
        <ele>1214</ele>
        <time>2021-06-19T13:21:06Z</time>
      </trkpt>
      <trkpt lat="42.6298" lon="1.14888">
        <ele>1214</ele>
        <time>2021-06-19T13:21:09Z</time>
      </trkpt>
      <trkpt lat="42.62966" lon="1.14901">
        <ele>1217</ele>
        <time>2021-06-19T13:21:13Z</time>
      </trkpt>
      <trkpt lat="42.62946" lon="1.14938">
        <ele>1226</ele>
        <time>2021-06-19T13:21:21Z</time>
      </trkpt>
      <trkpt lat="42.62935" lon="1.14947">
        <ele>1228</ele>
        <time>2021-06-19T13:21:24Z</time>
      </trkpt>
      <trkpt lat="42.62889" lon="1.14964">
        <ele>1230</ele>
        <time>2021-06-19T13:21:35Z</time>
      </trkpt>
      <trkpt lat="42.62805" lon="1.14982">
        <ele>1236</ele>
        <time>2021-06-19T13:21:55Z</time>
      </trkpt>
      <trkpt lat="42.62742" lon="1.14991">
        <ele>1243</ele>
        <time>2021-06-19T13:22:09Z</time>
      </trkpt>
      <trkpt lat="42.62733" lon="1.14989">
        <ele>1245</ele>
        <time>2021-06-19T13:22:12Z</time>
      </trkpt>
      <trkpt lat="42.62716" lon="1.14978">
        <ele>1244</ele>
        <time>2021-06-19T13:22:16Z</time>
      </trkpt>
      <trkpt lat="42.62699" lon="1.14962">
        <ele>1241</ele>
        <time>2021-06-19T13:22:21Z</time>
      </trkpt>
      <trkpt lat="42.62684" lon="1.14943">
        <ele>1237</ele>
        <time>2021-06-19T13:22:26Z</time>
      </trkpt>
      <trkpt lat="42.6267" lon="1.14937">
        <ele>1237</ele>
        <time>2021-06-19T13:22:29Z</time>
      </trkpt>
      <trkpt lat="42.62618" lon="1.1494">
        <ele>1240</ele>
        <time>2021-06-19T13:22:41Z</time>
      </trkpt>
      <trkpt lat="42.62565" lon="1.14959">
        <ele>1249</ele>
        <time>2021-06-19T13:22:54Z</time>
      </trkpt>
      <trkpt lat="42.62524" lon="1.14961">
        <ele>1247</ele>
        <time>2021-06-19T13:23:04Z</time>
      </trkpt>
      <trkpt lat="42.62475" lon="1.14986">
        <ele>1258</ele>
        <time>2021-06-19T13:23:16Z</time>
      </trkpt>
      <trkpt lat="42.62418" lon="1.14992">
        <ele>1258</ele>
        <time>2021-06-19T13:23:29Z</time>
      </trkpt>
      <trkpt lat="42.62388" lon="1.14991">
        <ele>1262</ele>
        <time>2021-06-19T13:23:36Z</time>
      </trkpt>
      <trkpt lat="42.62366" lon="1.14985">
        <ele>1262</ele>
        <time>2021-06-19T13:23:41Z</time>
      </trkpt>
      <trkpt lat="42.62339" lon="1.14985">
        <ele>1265</ele>
        <time>2021-06-19T13:23:48Z</time>
      </trkpt>
      <trkpt lat="42.62296" lon="1.1498">
        <ele>1272</ele>
        <time>2021-06-19T13:23:58Z</time>
      </trkpt>
      <trkpt lat="42.62228" lon="1.14949">
        <ele>1274</ele>
        <time>2021-06-19T13:24:14Z</time>
      </trkpt>
      <trkpt lat="42.62206" lon="1.14932">
        <ele>1271</ele>
        <time>2021-06-19T13:24:20Z</time>
      </trkpt>
      <trkpt lat="42.62171" lon="1.14917">
        <ele>1271</ele>
        <time>2021-06-19T13:24:29Z</time>
      </trkpt>
      <trkpt lat="42.62144" lon="1.14913">
        <ele>1272</ele>
        <time>2021-06-19T13:24:35Z</time>
      </trkpt>
      <trkpt lat="42.62126" lon="1.14917">
        <ele>1278</ele>
        <time>2021-06-19T13:24:40Z</time>
      </trkpt>
      <trkpt lat="42.62106" lon="1.14925">
        <ele>1287</ele>
        <time>2021-06-19T13:24:44Z</time>
      </trkpt>
      <trkpt lat="42.62083" lon="1.14923">
        <ele>1289</ele>
        <time>2021-06-19T13:24:50Z</time>
      </trkpt>
      <trkpt lat="42.62031" lon="1.14914">
        <ele>1284</ele>
        <time>2021-06-19T13:25:02Z</time>
      </trkpt>
      <trkpt lat="42.61959" lon="1.14897">
        <ele>1265</ele>
        <time>2021-06-19T13:25:19Z</time>
      </trkpt>
      <trkpt lat="42.61949" lon="1.14903">
        <ele>1265</ele>
        <time>2021-06-19T13:25:22Z</time>
      </trkpt>
      <trkpt lat="42.61946" lon="1.14932">
        <ele>1273</ele>
        <time>2021-06-19T13:25:27Z</time>
      </trkpt>
      <trkpt lat="42.61949" lon="1.15005">
        <ele>1287</ele>
        <time>2021-06-19T13:25:39Z</time>
      </trkpt>
      <trkpt lat="42.61945" lon="1.15029">
        <ele>1290</ele>
        <time>2021-06-19T13:25:43Z</time>
      </trkpt>
      <trkpt lat="42.61933" lon="1.15064">
        <ele>1289</ele>
        <time>2021-06-19T13:25:50Z</time>
      </trkpt>
      <trkpt lat="42.61872" lon="1.15157">
        <ele>1284</ele>
        <time>2021-06-19T13:26:12Z</time>
      </trkpt>
      <trkpt lat="42.61841" lon="1.15185">
        <ele>1281</ele>
        <time>2021-06-19T13:26:20Z</time>
      </trkpt>
      <trkpt lat="42.61804" lon="1.15207">
        <ele>1277</ele>
        <time>2021-06-19T13:26:30Z</time>
      </trkpt>
      <trkpt lat="42.61783" lon="1.15237">
        <ele>1279</ele>
        <time>2021-06-19T13:26:37Z</time>
      </trkpt>
      <trkpt lat="42.61782" lon="1.15277">
        <ele>1286</ele>
        <time>2021-06-19T13:26:44Z</time>
      </trkpt>
      <trkpt lat="42.61785" lon="1.15298">
        <ele>1289</ele>
        <time>2021-06-19T13:26:47Z</time>
      </trkpt>
      <trkpt lat="42.61793" lon="1.15323">
        <ele>1295</ele>
        <time>2021-06-19T13:26:52Z</time>
      </trkpt>
      <trkpt lat="42.61794" lon="1.15339">
        <ele>1297</ele>
        <time>2021-06-19T13:26:55Z</time>
      </trkpt>
      <trkpt lat="42.61786" lon="1.15356">
        <ele>1298</ele>
        <time>2021-06-19T13:26:58Z</time>
      </trkpt>
      <trkpt lat="42.61775" lon="1.15362">
        <ele>1298</ele>
        <time>2021-06-19T13:27:01Z</time>
      </trkpt>
      <trkpt lat="42.61761" lon="1.15358">
        <ele>1294</ele>
        <time>2021-06-19T13:27:04Z</time>
      </trkpt>
      <trkpt lat="42.61728" lon="1.15341">
        <ele>1291</ele>
        <time>2021-06-19T13:27:13Z</time>
      </trkpt>
      <trkpt lat="42.61702" lon="1.15324">
        <ele>1292</ele>
        <time>2021-06-19T13:27:19Z</time>
      </trkpt>
      <trkpt lat="42.61679" lon="1.15317">
        <ele>1295</ele>
        <time>2021-06-19T13:27:25Z</time>
      </trkpt>
      <trkpt lat="42.61674" lon="1.15325">
        <ele>1297</ele>
        <time>2021-06-19T13:27:27Z</time>
      </trkpt>
      <trkpt lat="42.61674" lon="1.15332">
        <ele>1298</ele>
        <time>2021-06-19T13:27:28Z</time>
      </trkpt>
      <trkpt lat="42.61678" lon="1.1534">
        <ele>1299</ele>
        <time>2021-06-19T13:27:30Z</time>
      </trkpt>
      <trkpt lat="42.61687" lon="1.15342">
        <ele>1298</ele>
        <time>2021-06-19T13:27:32Z</time>
      </trkpt>
      <trkpt lat="42.61707" lon="1.15358">
        <ele>1300</ele>
        <time>2021-06-19T13:27:37Z</time>
      </trkpt>
      <trkpt lat="42.61754" lon="1.15381">
        <ele>1300</ele>
        <time>2021-06-19T13:27:49Z</time>
      </trkpt>
      <trkpt lat="42.61758" lon="1.15394">
        <ele>1304</ele>
        <time>2021-06-19T13:27:51Z</time>
      </trkpt>
      <trkpt lat="42.61753" lon="1.15399">
        <ele>1305</ele>
        <time>2021-06-19T13:27:53Z</time>
      </trkpt>
      <trkpt lat="42.61728" lon="1.15387">
        <ele>1305</ele>
        <time>2021-06-19T13:27:59Z</time>
      </trkpt>
      <trkpt lat="42.61706" lon="1.15382">
        <ele>1307</ele>
        <time>2021-06-19T13:28:04Z</time>
      </trkpt>
      <trkpt lat="42.61673" lon="1.15385">
        <ele>1313</ele>
        <time>2021-06-19T13:28:12Z</time>
      </trkpt>
      <trkpt lat="42.61624" lon="1.15376">
        <ele>1321</ele>
        <time>2021-06-19T13:28:23Z</time>
      </trkpt>
      <trkpt lat="42.61603" lon="1.15353">
        <ele>1321</ele>
        <time>2021-06-19T13:28:30Z</time>
      </trkpt>
      <trkpt lat="42.61587" lon="1.15319">
        <ele>1319</ele>
        <time>2021-06-19T13:28:36Z</time>
      </trkpt>
      <trkpt lat="42.61546" lon="1.1525">
        <ele>1326</ele>
        <time>2021-06-19T13:28:52Z</time>
      </trkpt>
      <trkpt lat="42.61504" lon="1.1519">
        <ele>1332</ele>
        <time>2021-06-19T13:29:06Z</time>
      </trkpt>
      <trkpt lat="42.6147" lon="1.15133">
        <ele>1335</ele>
        <time>2021-06-19T13:29:19Z</time>
      </trkpt>
      <trkpt lat="42.61419" lon="1.15029">
        <ele>1338</ele>
        <time>2021-06-19T13:29:40Z</time>
      </trkpt>
      <trkpt lat="42.61384" lon="1.14978">
        <ele>1340</ele>
        <time>2021-06-19T13:29:52Z</time>
      </trkpt>
      <trkpt lat="42.61373" lon="1.14967">
        <ele>1340</ele>
        <time>2021-06-19T13:29:55Z</time>
      </trkpt>
      <trkpt lat="42.61331" lon="1.14942">
        <ele>1346</ele>
        <time>2021-06-19T13:30:06Z</time>
      </trkpt>
      <trkpt lat="42.61281" lon="1.14899">
        <ele>1343</ele>
        <time>2021-06-19T13:30:20Z</time>
      </trkpt>
      <trkpt lat="42.61249" lon="1.14895">
        <ele>1350</ele>
        <time>2021-06-19T13:30:27Z</time>
      </trkpt>
      <trkpt lat="42.612" lon="1.1487">
        <ele>1356</ele>
        <time>2021-06-19T13:30:39Z</time>
      </trkpt>
      <trkpt lat="42.612" lon="1.14883">
        <ele>1362</ele>
        <time>2021-06-19T13:30:42Z</time>
      </trkpt>
      <trkpt lat="42.61235" lon="1.14909">
        <ele>1360</ele>
        <time>2021-06-19T13:30:51Z</time>
      </trkpt>
      <trkpt lat="42.61276" lon="1.14948">
        <ele>1361</ele>
        <time>2021-06-19T13:31:03Z</time>
      </trkpt>
      <trkpt lat="42.61307" lon="1.14984">
        <ele>1366</ele>
        <time>2021-06-19T13:31:12Z</time>
      </trkpt>
      <trkpt lat="42.61339" lon="1.1507">
        <ele>1376</ele>
        <time>2021-06-19T13:31:29Z</time>
      </trkpt>
      <trkpt lat="42.61368" lon="1.15266">
        <ele>1390</ele>
        <time>2021-06-19T13:32:03Z</time>
      </trkpt>
      <trkpt lat="42.61361" lon="1.15323">
        <ele>1396</ele>
        <time>2021-06-19T13:32:13Z</time>
      </trkpt>
      <trkpt lat="42.61359" lon="1.15364">
        <ele>1400</ele>
        <time>2021-06-19T13:32:20Z</time>
      </trkpt>
      <trkpt lat="42.6135" lon="1.15408">
        <ele>1407</ele>
        <time>2021-06-19T13:32:28Z</time>
      </trkpt>
      <trkpt lat="42.61348" lon="1.15486">
        <ele>1415</ele>
        <time>2021-06-19T13:32:41Z</time>
      </trkpt>
      <trkpt lat="42.61371" lon="1.15646">
        <ele>1428</ele>
        <time>2021-06-19T13:33:09Z</time>
      </trkpt>
      <trkpt lat="42.61443" lon="1.15844">
        <ele>1452</ele>
        <time>2021-06-19T13:33:47Z</time>
      </trkpt>
      <trkpt lat="42.6147" lon="1.15881">
        <ele>1454</ele>
        <time>2021-06-19T13:33:56Z</time>
      </trkpt>
      <trkpt lat="42.61526" lon="1.15861">
        <ele>1450</ele>
        <time>2021-06-19T13:34:10Z</time>
      </trkpt>
      <trkpt lat="42.61529" lon="1.15878">
        <ele>1456</ele>
        <time>2021-06-19T13:34:13Z</time>
      </trkpt>
      <trkpt lat="42.61498" lon="1.15905">
        <ele>1455</ele>
        <time>2021-06-19T13:34:21Z</time>
      </trkpt>
      <trkpt lat="42.6146" lon="1.15931">
        <ele>1469</ele>
        <time>2021-06-19T13:34:31Z</time>
      </trkpt>
      <trkpt lat="42.61425" lon="1.15917">
        <ele>1471</ele>
        <time>2021-06-19T13:34:40Z</time>
      </trkpt>
      <trkpt lat="42.6133" lon="1.15802">
        <ele>1479</ele>
        <time>2021-06-19T13:35:10Z</time>
      </trkpt>
      <trkpt lat="42.6125" lon="1.15744">
        <ele>1492</ele>
        <time>2021-06-19T13:35:31Z</time>
      </trkpt>
      <trkpt lat="42.61193" lon="1.15632">
        <ele>1501</ele>
        <time>2021-06-19T13:35:54Z</time>
      </trkpt>
      <trkpt lat="42.61176" lon="1.15649">
        <ele>1511</ele>
        <time>2021-06-19T13:35:59Z</time>
      </trkpt>
      <trkpt lat="42.61221" lon="1.15786">
        <ele>1515</ele>
        <time>2021-06-19T13:36:25Z</time>
      </trkpt>
      <trkpt lat="42.61304" lon="1.15928">
        <ele>1522</ele>
        <time>2021-06-19T13:36:56Z</time>
      </trkpt>
      <trkpt lat="42.61356" lon="1.16108">
        <ele>1542</ele>
        <time>2021-06-19T13:37:29Z</time>
      </trkpt>
      <trkpt lat="42.61395" lon="1.16176">
        <ele>1547</ele>
        <time>2021-06-19T13:37:44Z</time>
      </trkpt>
      <trkpt lat="42.61448" lon="1.16175">
        <ele>1544</ele>
        <time>2021-06-19T13:37:57Z</time>
      </trkpt>
      <trkpt lat="42.61527" lon="1.16133">
        <ele>1545</ele>
        <time>2021-06-19T13:38:16Z</time>
      </trkpt>
      <trkpt lat="42.61622" lon="1.1603">
        <ele>1539</ele>
        <time>2021-06-19T13:38:45Z</time>
      </trkpt>
      <trkpt lat="42.61646" lon="1.16025">
        <ele>1544</ele>
        <time>2021-06-19T13:38:50Z</time>
      </trkpt>
      <trkpt lat="42.6167" lon="1.16039">
        <ele>1552</ele>
        <time>2021-06-19T13:38:56Z</time>
      </trkpt>
      <trkpt lat="42.61688" lon="1.16078">
        <ele>1556</ele>
        <time>2021-06-19T13:39:04Z</time>
      </trkpt>
      <trkpt lat="42.61716" lon="1.16221">
        <ele>1582</ele>
        <time>2021-06-19T13:39:30Z</time>
      </trkpt>
      <trkpt lat="42.61756" lon="1.16377">
        <ele>1578</ele>
        <time>2021-06-19T13:39:58Z</time>
      </trkpt>
      <trkpt lat="42.61756" lon="1.16403">
        <ele>1579</ele>
        <time>2021-06-19T13:40:03Z</time>
      </trkpt>
      <trkpt lat="42.61717" lon="1.16453">
        <ele>1601</ele>
        <time>2021-06-19T13:40:15Z</time>
      </trkpt>
      <trkpt lat="42.61645" lon="1.16583">
        <ele>1612</ele>
        <time>2021-06-19T13:40:43Z</time>
      </trkpt>
      <trkpt lat="42.61578" lon="1.16672">
        <ele>1630</ele>
        <time>2021-06-19T13:41:05Z</time>
      </trkpt>
      <trkpt lat="42.61565" lon="1.16703">
        <ele>1633</ele>
        <time>2021-06-19T13:41:11Z</time>
      </trkpt>
      <trkpt lat="42.6153" lon="1.16851">
        <ele>1639</ele>
        <time>2021-06-19T13:41:38Z</time>
      </trkpt>
      <trkpt lat="42.61498" lon="1.16957">
        <ele>1648</ele>
        <time>2021-06-19T13:41:58Z</time>
      </trkpt>
      <trkpt lat="42.615" lon="1.17001">
        <ele>1644</ele>
        <time>2021-06-19T13:42:05Z</time>
      </trkpt>
      <trkpt lat="42.6148" lon="1.17091">
        <ele>1661</ele>
        <time>2021-06-19T13:42:21Z</time>
      </trkpt>
      <trkpt lat="42.61492" lon="1.17316">
        <ele>1668</ele>
        <time>2021-06-19T13:43:00Z</time>
      </trkpt>
      <trkpt lat="42.61482" lon="1.17348">
        <ele>1672</ele>
        <time>2021-06-19T13:43:06Z</time>
      </trkpt>
      <trkpt lat="42.61456" lon="1.17368">
        <ele>1683</ele>
        <time>2021-06-19T13:43:13Z</time>
      </trkpt>
      <trkpt lat="42.61439" lon="1.17427">
        <ele>1688</ele>
        <time>2021-06-19T13:43:24Z</time>
      </trkpt>
      <trkpt lat="42.61429" lon="1.17559">
        <ele>1698</ele>
        <time>2021-06-19T13:43:47Z</time>
      </trkpt>
      <trkpt lat="42.61433" lon="1.17614">
        <ele>1700</ele>
        <time>2021-06-19T13:43:56Z</time>
      </trkpt>
      <trkpt lat="42.61422" lon="1.17632">
        <ele>1703</ele>
        <time>2021-06-19T13:44:00Z</time>
      </trkpt>
      <trkpt lat="42.6139" lon="1.17571">
        <ele>1714</ele>
        <time>2021-06-19T13:44:13Z</time>
      </trkpt>
      <trkpt lat="42.61382" lon="1.17591">
        <ele>1717</ele>
        <time>2021-06-19T13:44:17Z</time>
      </trkpt>
      <trkpt lat="42.6141" lon="1.17698">
        <ele>1716</ele>
        <time>2021-06-19T13:44:37Z</time>
      </trkpt>
      <trkpt lat="42.61429" lon="1.17797">
        <ele>1729</ele>
        <time>2021-06-19T13:44:54Z</time>
      </trkpt>
      <trkpt lat="42.61446" lon="1.18039">
        <ele>1762</ele>
        <time>2021-06-19T13:45:36Z</time>
      </trkpt>
      <trkpt lat="42.61462" lon="1.18058">
        <ele>1759</ele>
        <time>2021-06-19T13:45:41Z</time>
      </trkpt>
      <trkpt lat="42.61486" lon="1.18026">
        <ele>1751</ele>
        <time>2021-06-19T13:45:49Z</time>
      </trkpt>
      <trkpt lat="42.61502" lon="1.18031">
        <ele>1749</ele>
        <time>2021-06-19T13:45:53Z</time>
      </trkpt>
      <trkpt lat="42.61492" lon="1.18117">
        <ele>1759</ele>
        <time>2021-06-19T13:46:08Z</time>
      </trkpt>
      <trkpt lat="42.61456" lon="1.18152">
        <ele>1772</ele>
        <time>2021-06-19T13:46:18Z</time>
      </trkpt>
      <trkpt lat="42.61438" lon="1.18154">
        <ele>1776</ele>
        <time>2021-06-19T13:46:22Z</time>
      </trkpt>
      <trkpt lat="42.6143" lon="1.18143">
        <ele>1776</ele>
        <time>2021-06-19T13:46:25Z</time>
      </trkpt>
      <trkpt lat="42.61429" lon="1.18105">
        <ele>1773</ele>
        <time>2021-06-19T13:46:31Z</time>
      </trkpt>
      <trkpt lat="42.61386" lon="1.1802">
        <ele>1785</ele>
        <time>2021-06-19T13:46:49Z</time>
      </trkpt>
      <trkpt lat="42.61321" lon="1.17854">
        <ele>1793</ele>
        <time>2021-06-19T13:47:21Z</time>
      </trkpt>
      <trkpt lat="42.61245" lon="1.17775">
        <ele>1804</ele>
        <time>2021-06-19T13:47:44Z</time>
      </trkpt>
      <trkpt lat="42.61141" lon="1.17723">
        <ele>1839</ele>
        <time>2021-06-19T13:48:10Z</time>
      </trkpt>
      <trkpt lat="42.61145" lon="1.17682">
        <ele>1836</ele>
        <time>2021-06-19T13:48:17Z</time>
      </trkpt>
      <trkpt lat="42.6118" lon="1.1761">
        <ele>1828</ele>
        <time>2021-06-19T13:48:32Z</time>
      </trkpt>
      <trkpt lat="42.61194" lon="1.17573">
        <ele>1826</ele>
        <time>2021-06-19T13:48:39Z</time>
      </trkpt>
      <trkpt lat="42.6116" lon="1.17489">
        <ele>1845</ele>
        <time>2021-06-19T13:48:55Z</time>
      </trkpt>
      <trkpt lat="42.61103" lon="1.17361">
        <ele>1864</ele>
        <time>2021-06-19T13:49:21Z</time>
      </trkpt>
      <trkpt lat="42.6109" lon="1.17">
        <ele>1881</ele>
        <time>2021-06-19T13:50:23Z</time>
      </trkpt>
      <trkpt lat="42.61071" lon="1.16911">
        <ele>1885</ele>
        <time>2021-06-19T13:50:39Z</time>
      </trkpt>
      <trkpt lat="42.61012" lon="1.16826">
        <ele>1895</ele>
        <time>2021-06-19T13:50:59Z</time>
      </trkpt>
      <trkpt lat="42.60928" lon="1.16798">
        <ele>1909</ele>
        <time>2021-06-19T13:51:19Z</time>
      </trkpt>
      <trkpt lat="42.60826" lon="1.16799">
        <ele>1909</ele>
        <time>2021-06-19T13:51:43Z</time>
      </trkpt>
      <trkpt lat="42.60683" lon="1.16931">
        <ele>1929</ele>
        <time>2021-06-19T13:52:23Z</time>
      </trkpt>
      <trkpt lat="42.6059" lon="1.17051">
        <ele>1964</ele>
        <time>2021-06-19T13:52:53Z</time>
      </trkpt>
      <trkpt lat="42.60598" lon="1.17063">
        <ele>1968</ele>
        <time>2021-06-19T13:52:56Z</time>
      </trkpt>
      <trkpt lat="42.60676" lon="1.17013">
        <ele>1954</ele>
        <time>2021-06-19T13:53:16Z</time>
      </trkpt>
      <trkpt lat="42.60725" lon="1.17014">
        <ele>1958</ele>
        <time>2021-06-19T13:53:28Z</time>
      </trkpt>
      <trkpt lat="42.60752" lon="1.17027">
        <ele>1963</ele>
        <time>2021-06-19T13:53:34Z</time>
      </trkpt>
      <trkpt lat="42.60795" lon="1.17076">
        <ele>1973</ele>
        <time>2021-06-19T13:53:47Z</time>
      </trkpt>
      <trkpt lat="42.60854" lon="1.17124">
        <ele>1979</ele>
        <time>2021-06-19T13:54:04Z</time>
      </trkpt>
      <trkpt lat="42.60882" lon="1.17167">
        <ele>1981</ele>
        <time>2021-06-19T13:54:13Z</time>
      </trkpt>
      <trkpt lat="42.60888" lon="1.17207">
        <ele>1985</ele>
        <time>2021-06-19T13:54:20Z</time>
      </trkpt>
      <trkpt lat="42.60884" lon="1.17407">
        <ele>2009</ele>
        <time>2021-06-19T13:54:55Z</time>
      </trkpt>
      <trkpt lat="42.60892" lon="1.17519">
        <ele>2014</ele>
        <time>2021-06-19T13:55:14Z</time>
      </trkpt>
      <trkpt lat="42.60873" lon="1.1759">
        <ele>2020</ele>
        <time>2021-06-19T13:55:27Z</time>
      </trkpt>
      <trkpt lat="42.6082" lon="1.17668">
        <ele>2039</ele>
        <time>2021-06-19T13:55:45Z</time>
      </trkpt>
      <trkpt lat="42.60792" lon="1.17741">
        <ele>2048</ele>
        <time>2021-06-19T13:56:00Z</time>
      </trkpt>
      <trkpt lat="42.60785" lon="1.1784">
        <ele>2056</ele>
        <time>2021-06-19T13:56:17Z</time>
      </trkpt>
      <trkpt lat="42.60805" lon="1.17921">
        <ele>2058</ele>
        <time>2021-06-19T13:56:31Z</time>
      </trkpt>
      <trkpt lat="42.6085" lon="1.18023">
        <ele>2061</ele>
        <time>2021-06-19T13:56:52Z</time>
      </trkpt>
      <trkpt lat="42.60857" lon="1.18082">
        <ele>2067</ele>
        <time>2021-06-19T13:57:02Z</time>
      </trkpt>
      <trkpt lat="42.60849" lon="1.18126">
        <ele>2069</ele>
        <time>2021-06-19T13:57:10Z</time>
      </trkpt>
      <trkpt lat="42.60815" lon="1.18167">
        <ele>2085</ele>
        <time>2021-06-19T13:57:20Z</time>
      </trkpt>
      <trkpt lat="42.60806" lon="1.18205">
        <ele>2088</ele>
        <time>2021-06-19T13:57:27Z</time>
      </trkpt>
      <trkpt lat="42.60802" lon="1.18378">
        <ele>2095</ele>
        <time>2021-06-19T13:57:57Z</time>
      </trkpt>
      <trkpt lat="42.60816" lon="1.18454">
        <ele>2099</ele>
        <time>2021-06-19T13:58:11Z</time>
      </trkpt>
      <trkpt lat="42.60827" lon="1.18475">
        <ele>2098</ele>
        <time>2021-06-19T13:58:15Z</time>
      </trkpt>
      <trkpt lat="42.6091" lon="1.18743">
        <ele>2124</ele>
        <time>2021-06-19T13:59:05Z</time>
      </trkpt>
      <trkpt lat="42.60944" lon="1.18822">
        <ele>2129</ele>
        <time>2021-06-19T13:59:21Z</time>
      </trkpt>
      <trkpt lat="42.60977" lon="1.18853">
        <ele>2129</ele>
        <time>2021-06-19T13:59:30Z</time>
      </trkpt>
      <trkpt lat="42.60995" lon="1.18875">
        <ele>2132</ele>
        <time>2021-06-19T13:59:36Z</time>
      </trkpt>
      <trkpt lat="42.60996" lon="1.1889">
        <ele>2136</ele>
        <time>2021-06-19T13:59:38Z</time>
      </trkpt>
      <trkpt lat="42.60986" lon="1.18895">
        <ele>2137</ele>
        <time>2021-06-19T13:59:41Z</time>
      </trkpt>
      <trkpt lat="42.60955" lon="1.18888">
        <ele>2138</ele>
        <time>2021-06-19T13:59:48Z</time>
      </trkpt>
      <trkpt lat="42.60935" lon="1.18897">
        <ele>2141</ele>
        <time>2021-06-19T13:59:53Z</time>
      </trkpt>
      <trkpt lat="42.60913" lon="1.18903">
        <ele>2142</ele>
        <time>2021-06-19T13:59:58Z</time>
      </trkpt>
      <trkpt lat="42.6089" lon="1.18899">
        <ele>2140</ele>
        <time>2021-06-19T14:00:04Z</time>
      </trkpt>
      <trkpt lat="42.60866" lon="1.1888">
        <ele>2139</ele>
        <time>2021-06-19T14:00:10Z</time>
      </trkpt>
      <trkpt lat="42.60852" lon="1.18873">
        <ele>2139</ele>
        <time>2021-06-19T14:00:14Z</time>
      </trkpt>
      <trkpt lat="42.60836" lon="1.18874">
        <ele>2139</ele>
        <time>2021-06-19T14:00:17Z</time>
      </trkpt>
      <trkpt lat="42.60825" lon="1.18869">
        <ele>2137</ele>
        <time>2021-06-19T14:00:20Z</time>
      </trkpt>
      <trkpt lat="42.60811" lon="1.18855">
        <ele>2136</ele>
        <time>2021-06-19T14:00:24Z</time>
      </trkpt>
      <trkpt lat="42.60765" lon="1.18778">
        <ele>2138</ele>
        <time>2021-06-19T14:00:41Z</time>
      </trkpt>
      <trkpt lat="42.60752" lon="1.18746">
        <ele>2140</ele>
        <time>2021-06-19T14:00:47Z</time>
      </trkpt>
      <trkpt lat="42.60746" lon="1.18709">
        <ele>2142</ele>
        <time>2021-06-19T14:00:54Z</time>
      </trkpt>
      <trkpt lat="42.60731" lon="1.18677">
        <ele>2142</ele>
        <time>2021-06-19T14:01:00Z</time>
      </trkpt>
      <trkpt lat="42.60708" lon="1.18665">
        <ele>2142</ele>
        <time>2021-06-19T14:01:06Z</time>
      </trkpt>
      <trkpt lat="42.60671" lon="1.18663">
        <ele>2140</ele>
        <time>2021-06-19T14:01:15Z</time>
      </trkpt>
      <trkpt lat="42.60659" lon="1.18649">
        <ele>2139</ele>
        <time>2021-06-19T14:01:19Z</time>
      </trkpt>
      <trkpt lat="42.60639" lon="1.18592">
        <ele>2142</ele>
        <time>2021-06-19T14:01:29Z</time>
      </trkpt>
      <trkpt lat="42.60636" lon="1.18531">
        <ele>2145</ele>
        <time>2021-06-19T14:01:40Z</time>
      </trkpt>
      <trkpt lat="42.60612" lon="1.18431">
        <ele>2148</ele>
        <time>2021-06-19T14:01:58Z</time>
      </trkpt>
      <trkpt lat="42.60599" lon="1.18358">
        <ele>2154</ele>
        <time>2021-06-19T14:02:11Z</time>
      </trkpt>
      <trkpt lat="42.60599" lon="1.18345">
        <ele>2155</ele>
        <time>2021-06-19T14:02:13Z</time>
      </trkpt>
      <trkpt lat="42.60611" lon="1.18262">
        <ele>2161</ele>
        <time>2021-06-19T14:02:28Z</time>
      </trkpt>
      <trkpt lat="42.60618" lon="1.18241">
        <ele>2161</ele>
        <time>2021-06-19T14:02:32Z</time>
      </trkpt>
      <trkpt lat="42.60623" lon="1.18213">
        <ele>2162</ele>
        <time>2021-06-19T14:02:37Z</time>
      </trkpt>
      <trkpt lat="42.6061" lon="1.18124">
        <ele>2169</ele>
        <time>2021-06-19T14:02:52Z</time>
      </trkpt>
      <trkpt lat="42.606" lon="1.181">
        <ele>2172</ele>
        <time>2021-06-19T14:02:57Z</time>
      </trkpt>
      <trkpt lat="42.60585" lon="1.1808">
        <ele>2176</ele>
        <time>2021-06-19T14:03:02Z</time>
      </trkpt>
      <trkpt lat="42.60547" lon="1.18066">
        <ele>2176</ele>
        <time>2021-06-19T14:03:11Z</time>
      </trkpt>
      <trkpt lat="42.60481" lon="1.1802">
        <ele>2183</ele>
        <time>2021-06-19T14:03:28Z</time>
      </trkpt>
      <trkpt lat="42.6047" lon="1.18009">
        <ele>2185</ele>
        <time>2021-06-19T14:03:32Z</time>
      </trkpt>
      <trkpt lat="42.60457" lon="1.17955">
        <ele>2190</ele>
        <time>2021-06-19T14:03:41Z</time>
      </trkpt>
      <trkpt lat="42.60441" lon="1.17916">
        <ele>2194</ele>
        <time>2021-06-19T14:03:49Z</time>
      </trkpt>
      <trkpt lat="42.60416" lon="1.17888">
        <ele>2196</ele>
        <time>2021-06-19T14:03:57Z</time>
      </trkpt>
      <trkpt lat="42.60375" lon="1.17874">
        <ele>2199</ele>
        <time>2021-06-19T14:04:06Z</time>
      </trkpt>
      <trkpt lat="42.60351" lon="1.17869">
        <ele>2202</ele>
        <time>2021-06-19T14:04:12Z</time>
      </trkpt>
      <trkpt lat="42.60323" lon="1.17881">
        <ele>2206</ele>
        <time>2021-06-19T14:04:19Z</time>
      </trkpt>
      <trkpt lat="42.60308" lon="1.1788">
        <ele>2206</ele>
        <time>2021-06-19T14:04:22Z</time>
      </trkpt>
      <trkpt lat="42.60289" lon="1.17873">
        <ele>2207</ele>
        <time>2021-06-19T14:04:27Z</time>
      </trkpt>
      <trkpt lat="42.60266" lon="1.17879">
        <ele>2208</ele>
        <time>2021-06-19T14:04:33Z</time>
      </trkpt>
      <trkpt lat="42.60212" lon="1.17907">
        <ele>2214</ele>
        <time>2021-06-19T14:04:46Z</time>
      </trkpt>
      <trkpt lat="42.60195" lon="1.17912">
        <ele>2216</ele>
        <time>2021-06-19T14:04:50Z</time>
      </trkpt>
      <trkpt lat="42.60176" lon="1.17914">
        <ele>2218</ele>
        <time>2021-06-19T14:04:55Z</time>
      </trkpt>
      <trkpt lat="42.60159" lon="1.17923">
        <ele>2220</ele>
        <time>2021-06-19T14:04:59Z</time>
      </trkpt>
      <trkpt lat="42.60144" lon="1.17926">
        <ele>2223</ele>
        <time>2021-06-19T14:05:02Z</time>
      </trkpt>
      <trkpt lat="42.60122" lon="1.17936">
        <ele>2227</ele>
        <time>2021-06-19T14:05:08Z</time>
      </trkpt>
      <trkpt lat="42.60094" lon="1.17952">
        <ele>2232</ele>
        <time>2021-06-19T14:05:15Z</time>
      </trkpt>
      <trkpt lat="42.60059" lon="1.17995">
        <ele>2239</ele>
        <time>2021-06-19T14:05:26Z</time>
      </trkpt>
      <trkpt lat="42.60052" lon="1.17999">
        <ele>2241</ele>
        <time>2021-06-19T14:05:28Z</time>
      </trkpt>
      <trkpt lat="42.60046" lon="1.17994">
        <ele>2243</ele>
        <time>2021-06-19T14:05:29Z</time>
      </trkpt>
      <trkpt lat="42.60043" lon="1.17985">
        <ele>2245</ele>
        <time>2021-06-19T14:05:31Z</time>
      </trkpt>
      <trkpt lat="42.60049" lon="1.17967">
        <ele>2245</ele>
        <time>2021-06-19T14:05:34Z</time>
      </trkpt>
      <trkpt lat="42.60051" lon="1.17942">
        <ele>2247</ele>
        <time>2021-06-19T14:05:39Z</time>
      </trkpt>
      <trkpt lat="42.60045" lon="1.17907">
        <ele>2250</ele>
        <time>2021-06-19T14:05:45Z</time>
      </trkpt>
      <trkpt lat="42.60019" lon="1.17845">
        <ele>2255</ele>
        <time>2021-06-19T14:05:57Z</time>
      </trkpt>
      <trkpt lat="42.60005" lon="1.17835">
        <ele>2259</ele>
        <time>2021-06-19T14:06:01Z</time>
      </trkpt>
      <trkpt lat="42.59983" lon="1.17797">
        <ele>2257</ele>
        <time>2021-06-19T14:06:09Z</time>
      </trkpt>
      <trkpt lat="42.59958" lon="1.17787">
        <ele>2258</ele>
        <time>2021-06-19T14:06:15Z</time>
      </trkpt>
      <trkpt lat="42.59929" lon="1.17779">
        <ele>2261</ele>
        <time>2021-06-19T14:06:22Z</time>
      </trkpt>
      <trkpt lat="42.59906" lon="1.17779">
        <ele>2262</ele>
        <time>2021-06-19T14:06:28Z</time>
      </trkpt>
      <trkpt lat="42.59884" lon="1.17783">
        <ele>2260</ele>
        <time>2021-06-19T14:06:33Z</time>
      </trkpt>
      <trkpt lat="42.59866" lon="1.17797">
        <ele>2262</ele>
        <time>2021-06-19T14:06:38Z</time>
      </trkpt>
      <trkpt lat="42.5984" lon="1.17829">
        <ele>2270</ele>
        <time>2021-06-19T14:06:46Z</time>
      </trkpt>
      <trkpt lat="42.59799" lon="1.17888">
        <ele>2271</ele>
        <time>2021-06-19T14:07:00Z</time>
      </trkpt>
      <trkpt lat="42.59796" lon="1.17898">
        <ele>2272</ele>
        <time>2021-06-19T14:07:02Z</time>
      </trkpt>
      <trkpt lat="42.59797" lon="1.17907">
        <ele>2274</ele>
        <time>2021-06-19T14:07:03Z</time>
      </trkpt>
      <trkpt lat="42.59789" lon="1.17915">
        <ele>2274</ele>
        <time>2021-06-19T14:07:05Z</time>
      </trkpt>
      <trkpt lat="42.59663" lon="1.17942">
        <ele>2232</ele>
        <time>2021-06-19T14:07:35Z</time>
      </trkpt>
      <trkpt lat="42.59627" lon="1.17967">
        <ele>2225</ele>
        <time>2021-06-19T14:07:45Z</time>
      </trkpt>
      <trkpt lat="42.59606" lon="1.1799">
        <ele>2224</ele>
        <time>2021-06-19T14:07:51Z</time>
      </trkpt>
      <trkpt lat="42.59593" lon="1.18036">
        <ele>2222</ele>
        <time>2021-06-19T14:07:59Z</time>
      </trkpt>
      <trkpt lat="42.59565" lon="1.1807">
        <ele>2218</ele>
        <time>2021-06-19T14:08:08Z</time>
      </trkpt>
      <trkpt lat="42.5956" lon="1.18086">
        <ele>2216</ele>
        <time>2021-06-19T14:08:11Z</time>
      </trkpt>
      <trkpt lat="42.59567" lon="1.18093">
        <ele>2217</ele>
        <time>2021-06-19T14:08:13Z</time>
      </trkpt>
      <trkpt lat="42.59583" lon="1.1812">
        <ele>2215</ele>
        <time>2021-06-19T14:08:19Z</time>
      </trkpt>
      <trkpt lat="42.59597" lon="1.18122">
        <ele>2210</ele>
        <time>2021-06-19T14:08:23Z</time>
      </trkpt>
      <trkpt lat="42.59609" lon="1.18114">
        <ele>2207</ele>
        <time>2021-06-19T14:08:26Z</time>
      </trkpt>
      <trkpt lat="42.59634" lon="1.18105">
        <ele>2200</ele>
        <time>2021-06-19T14:08:32Z</time>
      </trkpt>
      <trkpt lat="42.59643" lon="1.18091">
        <ele>2200</ele>
        <time>2021-06-19T14:08:35Z</time>
      </trkpt>
      <trkpt lat="42.59656" lon="1.18081">
        <ele>2197</ele>
        <time>2021-06-19T14:08:38Z</time>
      </trkpt>
      <trkpt lat="42.59667" lon="1.1808">
        <ele>2194</ele>
        <time>2021-06-19T14:08:41Z</time>
      </trkpt>
      <trkpt lat="42.59675" lon="1.18092">
        <ele>2193</ele>
        <time>2021-06-19T14:08:44Z</time>
      </trkpt>
      <trkpt lat="42.59686" lon="1.18139">
        <ele>2186</ele>
        <time>2021-06-19T14:08:52Z</time>
      </trkpt>
      <trkpt lat="42.59687" lon="1.18162">
        <ele>2181</ele>
        <time>2021-06-19T14:08:56Z</time>
      </trkpt>
      <trkpt lat="42.59687" lon="1.18191">
        <ele>2175</ele>
        <time>2021-06-19T14:09:01Z</time>
      </trkpt>
      <trkpt lat="42.59681" lon="1.18204">
        <ele>2171</ele>
        <time>2021-06-19T14:09:04Z</time>
      </trkpt>
      <trkpt lat="42.59675" lon="1.18228">
        <ele>2166</ele>
        <time>2021-06-19T14:09:08Z</time>
      </trkpt>
      <trkpt lat="42.5968" lon="1.18286">
        <ele>2154</ele>
        <time>2021-06-19T14:09:18Z</time>
      </trkpt>
      <trkpt lat="42.59699" lon="1.18327">
        <ele>2144</ele>
        <time>2021-06-19T14:09:26Z</time>
      </trkpt>
      <trkpt lat="42.59739" lon="1.18372">
        <ele>2128</ele>
        <time>2021-06-19T14:09:39Z</time>
      </trkpt>
      <trkpt lat="42.59754" lon="1.18394">
        <ele>2121</ele>
        <time>2021-06-19T14:09:44Z</time>
      </trkpt>
      <trkpt lat="42.5977" lon="1.18403">
        <ele>2119</ele>
        <time>2021-06-19T14:09:48Z</time>
      </trkpt>
      <trkpt lat="42.59819" lon="1.18521">
        <ele>2064</ele>
        <time>2021-06-19T14:10:11Z</time>
      </trkpt>
      <trkpt lat="42.59839" lon="1.1855">
        <ele>2049</ele>
        <time>2021-06-19T14:10:18Z</time>
      </trkpt>
      <trkpt lat="42.59845" lon="1.1861">
        <ele>2030</ele>
        <time>2021-06-19T14:10:28Z</time>
      </trkpt>
      <trkpt lat="42.59844" lon="1.18671">
        <ele>2014</ele>
        <time>2021-06-19T14:10:39Z</time>
      </trkpt>
      <trkpt lat="42.59851" lon="1.18676">
        <ele>2013</ele>
        <time>2021-06-19T14:10:41Z</time>
      </trkpt>
      <trkpt lat="42.59851" lon="1.1869">
        <ele>2010</ele>
        <time>2021-06-19T14:10:43Z</time>
      </trkpt>
      <trkpt lat="42.59861" lon="1.18743">
        <ele>1997</ele>
        <time>2021-06-19T14:10:53Z</time>
      </trkpt>
      <trkpt lat="42.59852" lon="1.18794">
        <ele>1985</ele>
        <time>2021-06-19T14:11:02Z</time>
      </trkpt>
      <trkpt lat="42.59852" lon="1.18815">
        <ele>1981</ele>
        <time>2021-06-19T14:11:05Z</time>
      </trkpt>
      <trkpt lat="42.5986" lon="1.18833">
        <ele>1977</ele>
        <time>2021-06-19T14:11:09Z</time>
      </trkpt>
      <trkpt lat="42.59862" lon="1.18865">
        <ele>1969</ele>
        <time>2021-06-19T14:11:14Z</time>
      </trkpt>
      <trkpt lat="42.59877" lon="1.18899">
        <ele>1960</ele>
        <time>2021-06-19T14:11:21Z</time>
      </trkpt>
      <trkpt lat="42.59882" lon="1.18925">
        <ele>1952</ele>
        <time>2021-06-19T14:11:26Z</time>
      </trkpt>
      <trkpt lat="42.59817" lon="1.1897">
        <ele>1938</ele>
        <time>2021-06-19T14:11:43Z</time>
      </trkpt>
      <trkpt lat="42.59812" lon="1.18977">
        <ele>1937</ele>
        <time>2021-06-19T14:11:44Z</time>
      </trkpt>
      <trkpt lat="42.59812" lon="1.18988">
        <ele>1933</ele>
        <time>2021-06-19T14:11:46Z</time>
      </trkpt>
      <trkpt lat="42.59793" lon="1.19001">
        <ele>1933</ele>
        <time>2021-06-19T14:11:51Z</time>
      </trkpt>
      <trkpt lat="42.59807" lon="1.19006">
        <ele>1928</ele>
        <time>2021-06-19T14:11:55Z</time>
      </trkpt>
      <trkpt lat="42.59812" lon="1.1902">
        <ele>1923</ele>
        <time>2021-06-19T14:11:57Z</time>
      </trkpt>
      <trkpt lat="42.59803" lon="1.19026">
        <ele>1923</ele>
        <time>2021-06-19T14:12:00Z</time>
      </trkpt>
      <trkpt lat="42.59815" lon="1.19052">
        <ele>1912</ele>
        <time>2021-06-19T14:12:05Z</time>
      </trkpt>
      <trkpt lat="42.59809" lon="1.19058">
        <ele>1912</ele>
        <time>2021-06-19T14:12:07Z</time>
      </trkpt>
      <trkpt lat="42.59802" lon="1.19077">
        <ele>1908</ele>
        <time>2021-06-19T14:12:10Z</time>
      </trkpt>
      <trkpt lat="42.59804" lon="1.19093">
        <ele>1902</ele>
        <time>2021-06-19T14:12:13Z</time>
      </trkpt>
      <trkpt lat="42.59832" lon="1.19149">
        <ele>1877</ele>
        <time>2021-06-19T14:12:25Z</time>
      </trkpt>
      <trkpt lat="42.5985" lon="1.1915">
        <ele>1874</ele>
        <time>2021-06-19T14:12:29Z</time>
      </trkpt>
      <trkpt lat="42.59856" lon="1.19157">
        <ele>1871</ele>
        <time>2021-06-19T14:12:31Z</time>
      </trkpt>
      <trkpt lat="42.5985" lon="1.19182">
        <ele>1865</ele>
        <time>2021-06-19T14:12:35Z</time>
      </trkpt>
      <trkpt lat="42.59838" lon="1.19213">
        <ele>1860</ele>
        <time>2021-06-19T14:12:41Z</time>
      </trkpt>
      <trkpt lat="42.59849" lon="1.19238">
        <ele>1853</ele>
        <time>2021-06-19T14:12:46Z</time>
      </trkpt>
      <trkpt lat="42.5986" lon="1.19245">
        <ele>1849</ele>
        <time>2021-06-19T14:12:49Z</time>
      </trkpt>
      <trkpt lat="42.59863" lon="1.19261">
        <ele>1846</ele>
        <time>2021-06-19T14:12:52Z</time>
      </trkpt>
      <trkpt lat="42.59857" lon="1.19281">
        <ele>1843</ele>
        <time>2021-06-19T14:12:56Z</time>
      </trkpt>
      <trkpt lat="42.59861" lon="1.19286">
        <ele>1841</ele>
        <time>2021-06-19T14:12:57Z</time>
      </trkpt>
      <trkpt lat="42.59859" lon="1.19311">
        <ele>1837</ele>
        <time>2021-06-19T14:13:01Z</time>
      </trkpt>
      <trkpt lat="42.59852" lon="1.19332">
        <ele>1834</ele>
        <time>2021-06-19T14:13:05Z</time>
      </trkpt>
      <trkpt lat="42.59828" lon="1.19378">
        <ele>1826</ele>
        <time>2021-06-19T14:13:15Z</time>
      </trkpt>
      <trkpt lat="42.59814" lon="1.19387">
        <ele>1826</ele>
        <time>2021-06-19T14:13:19Z</time>
      </trkpt>
      <trkpt lat="42.59784" lon="1.19399">
        <ele>1827</ele>
        <time>2021-06-19T14:13:26Z</time>
      </trkpt>
      <trkpt lat="42.59769" lon="1.19432">
        <ele>1819</ele>
        <time>2021-06-19T14:13:33Z</time>
      </trkpt>
      <trkpt lat="42.59751" lon="1.19458">
        <ele>1814</ele>
        <time>2021-06-19T14:13:39Z</time>
      </trkpt>
      <trkpt lat="42.59751" lon="1.1947">
        <ele>1811</ele>
        <time>2021-06-19T14:13:41Z</time>
      </trkpt>
      <trkpt lat="42.597" lon="1.19515">
        <ele>1807</ele>
        <time>2021-06-19T14:13:55Z</time>
      </trkpt>
      <trkpt lat="42.59699" lon="1.19544">
        <ele>1798</ele>
        <time>2021-06-19T14:14:00Z</time>
      </trkpt>
      <trkpt lat="42.59687" lon="1.19563">
        <ele>1795</ele>
        <time>2021-06-19T14:14:04Z</time>
      </trkpt>
      <trkpt lat="42.59684" lon="1.19575">
        <ele>1791</ele>
        <time>2021-06-19T14:14:06Z</time>
      </trkpt>
      <trkpt lat="42.59686" lon="1.19589">
        <ele>1787</ele>
        <time>2021-06-19T14:14:09Z</time>
      </trkpt>
      <trkpt lat="42.5969" lon="1.19596">
        <ele>1784</ele>
        <time>2021-06-19T14:14:10Z</time>
      </trkpt>
      <trkpt lat="42.5969" lon="1.19604">
        <ele>1781</ele>
        <time>2021-06-19T14:14:12Z</time>
      </trkpt>
      <trkpt lat="42.59695" lon="1.19603">
        <ele>1781</ele>
        <time>2021-06-19T14:14:13Z</time>
      </trkpt>
      <trkpt lat="42.59709" lon="1.19614">
        <ele>1775</ele>
        <time>2021-06-19T14:14:17Z</time>
      </trkpt>
      <trkpt lat="42.59701" lon="1.19626">
        <ele>1772</ele>
        <time>2021-06-19T14:14:20Z</time>
      </trkpt>
      <trkpt lat="42.59673" lon="1.19646">
        <ele>1768</ele>
        <time>2021-06-19T14:14:27Z</time>
      </trkpt>
      <trkpt lat="42.59663" lon="1.19664">
        <ele>1763</ele>
        <time>2021-06-19T14:14:31Z</time>
      </trkpt>
      <trkpt lat="42.59616" lon="1.19718">
        <ele>1749</ele>
        <time>2021-06-19T14:14:45Z</time>
      </trkpt>
      <trkpt lat="42.59603" lon="1.19723">
        <ele>1749</ele>
        <time>2021-06-19T14:14:48Z</time>
      </trkpt>
      <trkpt lat="42.59594" lon="1.19746">
        <ele>1741</ele>
        <time>2021-06-19T14:14:53Z</time>
      </trkpt>
      <trkpt lat="42.59587" lon="1.1979">
        <ele>1725</ele>
        <time>2021-06-19T14:15:01Z</time>
      </trkpt>
      <trkpt lat="42.59591" lon="1.19799">
        <ele>1720</ele>
        <time>2021-06-19T14:15:02Z</time>
      </trkpt>
      <trkpt lat="42.59596" lon="1.19802">
        <ele>1718</ele>
        <time>2021-06-19T14:15:04Z</time>
      </trkpt>
      <trkpt lat="42.596" lon="1.19797">
        <ele>1719</ele>
        <time>2021-06-19T14:15:05Z</time>
      </trkpt>
      <trkpt lat="42.59616" lon="1.19798">
        <ele>1715</ele>
        <time>2021-06-19T14:15:09Z</time>
      </trkpt>
      <trkpt lat="42.5962" lon="1.19805">
        <ele>1711</ele>
        <time>2021-06-19T14:15:10Z</time>
      </trkpt>
      <trkpt lat="42.59626" lon="1.19808">
        <ele>1708</ele>
        <time>2021-06-19T14:15:12Z</time>
      </trkpt>
      <trkpt lat="42.5964" lon="1.19801">
        <ele>1708</ele>
        <time>2021-06-19T14:15:15Z</time>
      </trkpt>
      <trkpt lat="42.59649" lon="1.198">
        <ele>1706</ele>
        <time>2021-06-19T14:15:17Z</time>
      </trkpt>
      <trkpt lat="42.59642" lon="1.19842">
        <ele>1692</ele>
        <time>2021-06-19T14:15:25Z</time>
      </trkpt>
      <trkpt lat="42.59643" lon="1.19849">
        <ele>1689</ele>
        <time>2021-06-19T14:15:26Z</time>
      </trkpt>
      <trkpt lat="42.59639" lon="1.19854">
        <ele>1688</ele>
        <time>2021-06-19T14:15:27Z</time>
      </trkpt>
      <trkpt lat="42.59638" lon="1.19889">
        <ele>1675</ele>
        <time>2021-06-19T14:15:33Z</time>
      </trkpt>
      <trkpt lat="42.59651" lon="1.19901">
        <ele>1670</ele>
        <time>2021-06-19T14:15:37Z</time>
      </trkpt>
      <trkpt lat="42.59655" lon="1.19928">
        <ele>1661</ele>
        <time>2021-06-19T14:15:42Z</time>
      </trkpt>
      <trkpt lat="42.59649" lon="1.19936">
        <ele>1659</ele>
        <time>2021-06-19T14:15:44Z</time>
      </trkpt>
      <trkpt lat="42.59646" lon="1.19951">
        <ele>1654</ele>
        <time>2021-06-19T14:15:46Z</time>
      </trkpt>
      <trkpt lat="42.59656" lon="1.20016">
        <ele>1633</ele>
        <time>2021-06-19T14:15:58Z</time>
      </trkpt>
      <trkpt lat="42.59687" lon="1.20044">
        <ele>1620</ele>
        <time>2021-06-19T14:16:06Z</time>
      </trkpt>
      <trkpt lat="42.59694" lon="1.20058">
        <ele>1613</ele>
        <time>2021-06-19T14:16:09Z</time>
      </trkpt>
      <trkpt lat="42.59705" lon="1.20064">
        <ele>1610</ele>
        <time>2021-06-19T14:16:12Z</time>
      </trkpt>
      <trkpt lat="42.59706" lon="1.20081">
        <ele>1604</ele>
        <time>2021-06-19T14:16:15Z</time>
      </trkpt>
      <trkpt lat="42.59713" lon="1.20085">
        <ele>1602</ele>
        <time>2021-06-19T14:16:17Z</time>
      </trkpt>
      <trkpt lat="42.59712" lon="1.20107">
        <ele>1594</ele>
        <time>2021-06-19T14:16:21Z</time>
      </trkpt>
      <trkpt lat="42.59725" lon="1.20137">
        <ele>1583</ele>
        <time>2021-06-19T14:16:26Z</time>
      </trkpt>
      <trkpt lat="42.59731" lon="1.20184">
        <ele>1567</ele>
        <time>2021-06-19T14:16:35Z</time>
      </trkpt>
      <trkpt lat="42.59722" lon="1.20191">
        <ele>1564</ele>
        <time>2021-06-19T14:16:37Z</time>
      </trkpt>
      <trkpt lat="42.59721" lon="1.20199">
        <ele>1561</ele>
        <time>2021-06-19T14:16:39Z</time>
      </trkpt>
      <trkpt lat="42.59731" lon="1.20206">
        <ele>1560</ele>
        <time>2021-06-19T14:16:41Z</time>
      </trkpt>
      <trkpt lat="42.59724" lon="1.20221">
        <ele>1554</ele>
        <time>2021-06-19T14:16:44Z</time>
      </trkpt>
      <trkpt lat="42.59731" lon="1.20237">
        <ele>1550</ele>
        <time>2021-06-19T14:16:47Z</time>
      </trkpt>
      <trkpt lat="42.59729" lon="1.20247">
        <ele>1546</ele>
        <time>2021-06-19T14:16:49Z</time>
      </trkpt>
      <trkpt lat="42.59733" lon="1.20256">
        <ele>1544</ele>
        <time>2021-06-19T14:16:51Z</time>
      </trkpt>
      <trkpt lat="42.59731" lon="1.20265">
        <ele>1540</ele>
        <time>2021-06-19T14:16:53Z</time>
      </trkpt>
      <trkpt lat="42.59726" lon="1.20271">
        <ele>1537</ele>
        <time>2021-06-19T14:16:54Z</time>
      </trkpt>
      <trkpt lat="42.59725" lon="1.20284">
        <ele>1532</ele>
        <time>2021-06-19T14:16:56Z</time>
      </trkpt>
      <trkpt lat="42.59727" lon="1.20291">
        <ele>1530</ele>
        <time>2021-06-19T14:16:58Z</time>
      </trkpt>
      <trkpt lat="42.59724" lon="1.20299">
        <ele>1527</ele>
        <time>2021-06-19T14:16:59Z</time>
      </trkpt>
      <trkpt lat="42.59725" lon="1.20308">
        <ele>1524</ele>
        <time>2021-06-19T14:17:01Z</time>
      </trkpt>
      <trkpt lat="42.59721" lon="1.20311">
        <ele>1522</ele>
        <time>2021-06-19T14:17:02Z</time>
      </trkpt>
      <trkpt lat="42.5973" lon="1.20339">
        <ele>1515</ele>
        <time>2021-06-19T14:17:07Z</time>
      </trkpt>
      <trkpt lat="42.59726" lon="1.20352">
        <ele>1510</ele>
        <time>2021-06-19T14:17:10Z</time>
      </trkpt>
      <trkpt lat="42.59733" lon="1.20366">
        <ele>1507</ele>
        <time>2021-06-19T14:17:12Z</time>
      </trkpt>
      <trkpt lat="42.59732" lon="1.20375">
        <ele>1504</ele>
        <time>2021-06-19T14:17:14Z</time>
      </trkpt>
      <trkpt lat="42.59741" lon="1.20368">
        <ele>1509</ele>
        <time>2021-06-19T14:17:16Z</time>
      </trkpt>
      <trkpt lat="42.59767" lon="1.20326">
        <ele>1520</ele>
        <time>2021-06-19T14:17:26Z</time>
      </trkpt>
      <trkpt lat="42.59794" lon="1.20273">
        <ele>1529</ele>
        <time>2021-06-19T14:17:37Z</time>
      </trkpt>
      <trkpt lat="42.59843" lon="1.20193">
        <ele>1539</ele>
        <time>2021-06-19T14:17:55Z</time>
      </trkpt>
      <trkpt lat="42.59869" lon="1.20157">
        <ele>1545</ele>
        <time>2021-06-19T14:18:04Z</time>
      </trkpt>
      <trkpt lat="42.59908" lon="1.20136">
        <ele>1547</ele>
        <time>2021-06-19T14:18:13Z</time>
      </trkpt>
      <trkpt lat="42.59982" lon="1.20133">
        <ele>1548</ele>
        <time>2021-06-19T14:18:31Z</time>
      </trkpt>
      <trkpt lat="42.60002" lon="1.2013">
        <ele>1549</ele>
        <time>2021-06-19T14:18:35Z</time>
      </trkpt>
      <trkpt lat="42.60028" lon="1.2016">
        <ele>1551</ele>
        <time>2021-06-19T14:18:43Z</time>
      </trkpt>
      <trkpt lat="42.60032" lon="1.20177">
        <ele>1553</ele>
        <time>2021-06-19T14:18:46Z</time>
      </trkpt>
      <trkpt lat="42.60031" lon="1.20184">
        <ele>1553</ele>
        <time>2021-06-19T14:18:48Z</time>
      </trkpt>
      <trkpt lat="42.60015" lon="1.202">
        <ele>1547</ele>
        <time>2021-06-19T14:18:52Z</time>
      </trkpt>
      <trkpt lat="42.59999" lon="1.20251">
        <ele>1540</ele>
        <time>2021-06-19T14:19:02Z</time>
      </trkpt>
      <trkpt lat="42.59997" lon="1.20265">
        <ele>1540</ele>
        <time>2021-06-19T14:19:04Z</time>
      </trkpt>
      <trkpt lat="42.59983" lon="1.20305">
        <ele>1538</ele>
        <time>2021-06-19T14:19:12Z</time>
      </trkpt>
      <trkpt lat="42.59979" lon="1.20325">
        <ele>1537</ele>
        <time>2021-06-19T14:19:15Z</time>
      </trkpt>
      <trkpt lat="42.5998" lon="1.20427">
        <ele>1536</ele>
        <time>2021-06-19T14:19:33Z</time>
      </trkpt>
      <trkpt lat="42.59991" lon="1.20533">
        <ele>1529</ele>
        <time>2021-06-19T14:19:51Z</time>
      </trkpt>
      <trkpt lat="42.59983" lon="1.20601">
        <ele>1516</ele>
        <time>2021-06-19T14:20:03Z</time>
      </trkpt>
      <trkpt lat="42.59958" lon="1.20676">
        <ele>1504</ele>
        <time>2021-06-19T14:20:17Z</time>
      </trkpt>
      <trkpt lat="42.5995" lon="1.20683">
        <ele>1503</ele>
        <time>2021-06-19T14:20:20Z</time>
      </trkpt>
      <trkpt lat="42.59939" lon="1.20687">
        <ele>1503</ele>
        <time>2021-06-19T14:20:22Z</time>
      </trkpt>
      <trkpt lat="42.59931" lon="1.20693">
        <ele>1503</ele>
        <time>2021-06-19T14:20:24Z</time>
      </trkpt>
      <trkpt lat="42.59899" lon="1.20725">
        <ele>1502</ele>
        <time>2021-06-19T14:20:34Z</time>
      </trkpt>
      <trkpt lat="42.5987" lon="1.20729">
        <ele>1495</ele>
        <time>2021-06-19T14:20:40Z</time>
      </trkpt>
      <trkpt lat="42.59886" lon="1.207">
        <ele>1492</ele>
        <time>2021-06-19T14:20:47Z</time>
      </trkpt>
      <trkpt lat="42.59893" lon="1.20673">
        <ele>1488</ele>
        <time>2021-06-19T14:20:52Z</time>
      </trkpt>
      <trkpt lat="42.59893" lon="1.20632">
        <ele>1482</ele>
        <time>2021-06-19T14:20:59Z</time>
      </trkpt>
      <trkpt lat="42.59899" lon="1.20589">
        <ele>1480</ele>
        <time>2021-06-19T14:21:06Z</time>
      </trkpt>
      <trkpt lat="42.59895" lon="1.20542">
        <ele>1481</ele>
        <time>2021-06-19T14:21:14Z</time>
      </trkpt>
      <trkpt lat="42.59888" lon="1.20516">
        <ele>1480</ele>
        <time>2021-06-19T14:21:19Z</time>
      </trkpt>
      <trkpt lat="42.59886" lon="1.20495">
        <ele>1481</ele>
        <time>2021-06-19T14:21:23Z</time>
      </trkpt>
      <trkpt lat="42.59874" lon="1.20543">
        <ele>1471</ele>
        <time>2021-06-19T14:21:31Z</time>
      </trkpt>
      <trkpt lat="42.5987" lon="1.20547">
        <ele>1469</ele>
        <time>2021-06-19T14:21:33Z</time>
      </trkpt>
      <trkpt lat="42.59866" lon="1.20545">
        <ele>1468</ele>
        <time>2021-06-19T14:21:34Z</time>
      </trkpt>
      <trkpt lat="42.59858" lon="1.20527">
        <ele>1467</ele>
        <time>2021-06-19T14:21:37Z</time>
      </trkpt>
      <trkpt lat="42.59848" lon="1.20512">
        <ele>1465</ele>
        <time>2021-06-19T14:21:41Z</time>
      </trkpt>
      <trkpt lat="42.59843" lon="1.20508">
        <ele>1463</ele>
        <time>2021-06-19T14:21:42Z</time>
      </trkpt>
      <trkpt lat="42.59838" lon="1.20509">
        <ele>1461</ele>
        <time>2021-06-19T14:21:43Z</time>
      </trkpt>
      <trkpt lat="42.59827" lon="1.20537">
        <ele>1455</ele>
        <time>2021-06-19T14:21:49Z</time>
      </trkpt>
      <trkpt lat="42.59813" lon="1.20584">
        <ele>1444</ele>
        <time>2021-06-19T14:21:57Z</time>
      </trkpt>
      <trkpt lat="42.59803" lon="1.20605">
        <ele>1444</ele>
        <time>2021-06-19T14:22:02Z</time>
      </trkpt>
      <trkpt lat="42.59783" lon="1.20625">
        <ele>1440</ele>
        <time>2021-06-19T14:22:07Z</time>
      </trkpt>
      <trkpt lat="42.59774" lon="1.20629">
        <ele>1438</ele>
        <time>2021-06-19T14:22:10Z</time>
      </trkpt>
      <trkpt lat="42.59751" lon="1.20633">
        <ele>1432</ele>
        <time>2021-06-19T14:22:15Z</time>
      </trkpt>
      <trkpt lat="42.59743" lon="1.20651">
        <ele>1429</ele>
        <time>2021-06-19T14:22:19Z</time>
      </trkpt>
      <trkpt lat="42.59729" lon="1.20652">
        <ele>1426</ele>
        <time>2021-06-19T14:22:22Z</time>
      </trkpt>
      <trkpt lat="42.59715" lon="1.20646">
        <ele>1424</ele>
        <time>2021-06-19T14:22:25Z</time>
      </trkpt>
      <trkpt lat="42.59694" lon="1.2063">
        <ele>1419</ele>
        <time>2021-06-19T14:22:31Z</time>
      </trkpt>
      <trkpt lat="42.59678" lon="1.20625">
        <ele>1415</ele>
        <time>2021-06-19T14:22:35Z</time>
      </trkpt>
      <trkpt lat="42.59663" lon="1.20626">
        <ele>1412</ele>
        <time>2021-06-19T14:22:38Z</time>
      </trkpt>
      <trkpt lat="42.59648" lon="1.20622">
        <ele>1407</ele>
        <time>2021-06-19T14:22:42Z</time>
      </trkpt>
      <trkpt lat="42.59642" lon="1.20624">
        <ele>1406</ele>
        <time>2021-06-19T14:22:43Z</time>
      </trkpt>
      <trkpt lat="42.59624" lon="1.20621">
        <ele>1401</ele>
        <time>2021-06-19T14:22:48Z</time>
      </trkpt>
      <trkpt lat="42.59611" lon="1.20613">
        <ele>1398</ele>
        <time>2021-06-19T14:22:51Z</time>
      </trkpt>
      <trkpt lat="42.59599" lon="1.20615">
        <ele>1395</ele>
        <time>2021-06-19T14:22:54Z</time>
      </trkpt>
      <trkpt lat="42.59564" lon="1.20694">
        <ele>1381</ele>
        <time>2021-06-19T14:23:10Z</time>
      </trkpt>
      <trkpt lat="42.59555" lon="1.20701">
        <ele>1379</ele>
        <time>2021-06-19T14:23:12Z</time>
      </trkpt>
      <trkpt lat="42.59548" lon="1.20701">
        <ele>1377</ele>
        <time>2021-06-19T14:23:14Z</time>
      </trkpt>
      <trkpt lat="42.59518" lon="1.20679">
        <ele>1373</ele>
        <time>2021-06-19T14:23:22Z</time>
      </trkpt>
      <trkpt lat="42.59479" lon="1.20633">
        <ele>1392</ele>
        <time>2021-06-19T14:23:34Z</time>
      </trkpt>
      <trkpt lat="42.59466" lon="1.20619">
        <ele>1401</ele>
        <time>2021-06-19T14:23:38Z</time>
      </trkpt>
      <trkpt lat="42.59457" lon="1.20613">
        <ele>1406</ele>
        <time>2021-06-19T14:23:40Z</time>
      </trkpt>
      <trkpt lat="42.594" lon="1.20636">
        <ele>1409</ele>
        <time>2021-06-19T14:23:54Z</time>
      </trkpt>
      <trkpt lat="42.59373" lon="1.20667">
        <ele>1406</ele>
        <time>2021-06-19T14:24:02Z</time>
      </trkpt>
      <trkpt lat="42.59298" lon="1.20744">
        <ele>1421</ele>
        <time>2021-06-19T14:24:24Z</time>
      </trkpt>
      <trkpt lat="42.59284" lon="1.20826">
        <ele>1412</ele>
        <time>2021-06-19T14:24:38Z</time>
      </trkpt>
      <trkpt lat="42.59279" lon="1.20866">
        <ele>1407</ele>
        <time>2021-06-19T14:24:45Z</time>
      </trkpt>
      <trkpt lat="42.59279" lon="1.20916">
        <ele>1396</ele>
        <time>2021-06-19T14:24:54Z</time>
      </trkpt>
      <trkpt lat="42.59272" lon="1.20941">
        <ele>1391</ele>
        <time>2021-06-19T14:24:59Z</time>
      </trkpt>
      <trkpt lat="42.59271" lon="1.20958">
        <ele>1385</ele>
        <time>2021-06-19T14:25:02Z</time>
      </trkpt>
      <trkpt lat="42.59256" lon="1.20991">
        <ele>1380</ele>
        <time>2021-06-19T14:25:08Z</time>
      </trkpt>
      <trkpt lat="42.59243" lon="1.20993">
        <ele>1385</ele>
        <time>2021-06-19T14:25:11Z</time>
      </trkpt>
      <trkpt lat="42.59216" lon="1.21012">
        <ele>1389</ele>
        <time>2021-06-19T14:25:18Z</time>
      </trkpt>
      <trkpt lat="42.59203" lon="1.21038">
        <ele>1385</ele>
        <time>2021-06-19T14:25:24Z</time>
      </trkpt>
      <trkpt lat="42.59189" lon="1.21058">
        <ele>1384</ele>
        <time>2021-06-19T14:25:29Z</time>
      </trkpt>
      <trkpt lat="42.5918" lon="1.2108">
        <ele>1380</ele>
        <time>2021-06-19T14:25:33Z</time>
      </trkpt>
      <trkpt lat="42.59174" lon="1.21104">
        <ele>1370</ele>
        <time>2021-06-19T14:25:37Z</time>
      </trkpt>
      <trkpt lat="42.59164" lon="1.21121">
        <ele>1364</ele>
        <time>2021-06-19T14:25:41Z</time>
      </trkpt>
      <trkpt lat="42.59151" lon="1.21127">
        <ele>1359</ele>
        <time>2021-06-19T14:25:44Z</time>
      </trkpt>
      <trkpt lat="42.59126" lon="1.21113">
        <ele>1363</ele>
        <time>2021-06-19T14:25:50Z</time>
      </trkpt>
      <trkpt lat="42.59117" lon="1.21116">
        <ele>1360</ele>
        <time>2021-06-19T14:25:53Z</time>
      </trkpt>
      <trkpt lat="42.59104" lon="1.21116">
        <ele>1359</ele>
        <time>2021-06-19T14:25:56Z</time>
      </trkpt>
      <trkpt lat="42.59097" lon="1.21123">
        <ele>1354</ele>
        <time>2021-06-19T14:25:58Z</time>
      </trkpt>
      <trkpt lat="42.5908" lon="1.21122">
        <ele>1351</ele>
        <time>2021-06-19T14:26:02Z</time>
      </trkpt>
      <trkpt lat="42.5907" lon="1.21114">
        <ele>1352</ele>
        <time>2021-06-19T14:26:04Z</time>
      </trkpt>
      <trkpt lat="42.59044" lon="1.21112">
        <ele>1343</ele>
        <time>2021-06-19T14:26:10Z</time>
      </trkpt>
      <trkpt lat="42.59023" lon="1.21084">
        <ele>1351</ele>
        <time>2021-06-19T14:26:17Z</time>
      </trkpt>
      <trkpt lat="42.59008" lon="1.21075">
        <ele>1348</ele>
        <time>2021-06-19T14:26:21Z</time>
      </trkpt>
      <trkpt lat="42.58996" lon="1.21072">
        <ele>1344</ele>
        <time>2021-06-19T14:26:24Z</time>
      </trkpt>
      <trkpt lat="42.58986" lon="1.21064">
        <ele>1342</ele>
        <time>2021-06-19T14:26:27Z</time>
      </trkpt>
      <trkpt lat="42.58967" lon="1.2106">
        <ele>1335</ele>
        <time>2021-06-19T14:26:31Z</time>
      </trkpt>
      <trkpt lat="42.58956" lon="1.21068">
        <ele>1328</ele>
        <time>2021-06-19T14:26:34Z</time>
      </trkpt>
      <trkpt lat="42.58942" lon="1.21071">
        <ele>1321</ele>
        <time>2021-06-19T14:26:37Z</time>
      </trkpt>
      <trkpt lat="42.58941" lon="1.21061">
        <ele>1323</ele>
        <time>2021-06-19T14:26:39Z</time>
      </trkpt>
      <trkpt lat="42.58937" lon="1.2106">
        <ele>1322</ele>
        <time>2021-06-19T14:26:40Z</time>
      </trkpt>
      <trkpt lat="42.58936" lon="1.21064">
        <ele>1320</ele>
        <time>2021-06-19T14:26:41Z</time>
      </trkpt>
      <trkpt lat="42.58927" lon="1.2106">
        <ele>1317</ele>
        <time>2021-06-19T14:26:43Z</time>
      </trkpt>
      <trkpt lat="42.58915" lon="1.21067">
        <ele>1311</ele>
        <time>2021-06-19T14:26:46Z</time>
      </trkpt>
      <trkpt lat="42.58892" lon="1.21091">
        <ele>1298</ele>
        <time>2021-06-19T14:26:53Z</time>
      </trkpt>
      <trkpt lat="42.58869" lon="1.21104">
        <ele>1288</ele>
        <time>2021-06-19T14:26:59Z</time>
      </trkpt>
      <trkpt lat="42.58866" lon="1.21102">
        <ele>1288</ele>
        <time>2021-06-19T14:26:59Z</time>
      </trkpt>
      <trkpt lat="42.58867" lon="1.21042">
        <ele>1296</ele>
        <time>2021-06-19T14:27:10Z</time>
      </trkpt>
      <trkpt lat="42.58861" lon="1.21036">
        <ele>1294</ele>
        <time>2021-06-19T14:27:12Z</time>
      </trkpt>
      <trkpt lat="42.58858" lon="1.21019">
        <ele>1293</ele>
        <time>2021-06-19T14:27:15Z</time>
      </trkpt>
      <trkpt lat="42.58846" lon="1.21047">
        <ele>1287</ele>
        <time>2021-06-19T14:27:20Z</time>
      </trkpt>
      <trkpt lat="42.58839" lon="1.21021">
        <ele>1285</ele>
        <time>2021-06-19T14:27:25Z</time>
      </trkpt>
      <trkpt lat="42.58842" lon="1.20973">
        <ele>1288</ele>
        <time>2021-06-19T14:27:33Z</time>
      </trkpt>
      <trkpt lat="42.58832" lon="1.20959">
        <ele>1284</ele>
        <time>2021-06-19T14:27:37Z</time>
      </trkpt>
      <trkpt lat="42.58815" lon="1.20987">
        <ele>1276</ele>
        <time>2021-06-19T14:27:43Z</time>
      </trkpt>
      <trkpt lat="42.58814" lon="1.20993">
        <ele>1275</ele>
        <time>2021-06-19T14:27:44Z</time>
      </trkpt>
      <trkpt lat="42.58801" lon="1.21017">
        <ele>1270</ele>
        <time>2021-06-19T14:27:49Z</time>
      </trkpt>
      <trkpt lat="42.58797" lon="1.21059">
        <ele>1268</ele>
        <time>2021-06-19T14:27:56Z</time>
      </trkpt>
      <trkpt lat="42.58787" lon="1.21088">
        <ele>1263</ele>
        <time>2021-06-19T14:28:02Z</time>
      </trkpt>
      <trkpt lat="42.5876" lon="1.21034">
        <ele>1254</ele>
        <time>2021-06-19T14:28:13Z</time>
      </trkpt>
      <trkpt lat="42.58762" lon="1.21061">
        <ele>1254</ele>
        <time>2021-06-19T14:28:18Z</time>
      </trkpt>
      <trkpt lat="42.58771" lon="1.21063">
        <ele>1257</ele>
        <time>2021-06-19T14:28:20Z</time>
      </trkpt>
      <trkpt lat="42.58772" lon="1.21077">
        <ele>1257</ele>
        <time>2021-06-19T14:28:22Z</time>
      </trkpt>
      <trkpt lat="42.58778" lon="1.21077">
        <ele>1260</ele>
        <time>2021-06-19T14:28:24Z</time>
      </trkpt>
      <trkpt lat="42.58775" lon="1.21089">
        <ele>1258</ele>
        <time>2021-06-19T14:28:26Z</time>
      </trkpt>
      <trkpt lat="42.58783" lon="1.21099">
        <ele>1260</ele>
        <time>2021-06-19T14:28:28Z</time>
      </trkpt>
      <trkpt lat="42.58779" lon="1.21109">
        <ele>1258</ele>
        <time>2021-06-19T14:28:30Z</time>
      </trkpt>
      <trkpt lat="42.58776" lon="1.21152">
        <ele>1253</ele>
        <time>2021-06-19T14:28:38Z</time>
      </trkpt>
      <trkpt lat="42.58783" lon="1.21159">
        <ele>1255</ele>
        <time>2021-06-19T14:28:40Z</time>
      </trkpt>
      <trkpt lat="42.58787" lon="1.2116">
        <ele>1256</ele>
        <time>2021-06-19T14:28:41Z</time>
      </trkpt>
      <trkpt lat="42.58796" lon="1.21176">
        <ele>1254</ele>
        <time>2021-06-19T14:28:44Z</time>
      </trkpt>
      <trkpt lat="42.58812" lon="1.21189">
        <ele>1254</ele>
        <time>2021-06-19T14:28:48Z</time>
      </trkpt>
      <trkpt lat="42.58833" lon="1.21191">
        <ele>1258</ele>
        <time>2021-06-19T14:28:53Z</time>
      </trkpt>
      <trkpt lat="42.58872" lon="1.21178">
        <ele>1267</ele>
        <time>2021-06-19T14:29:03Z</time>
      </trkpt>
      <trkpt lat="42.58906" lon="1.21179">
        <ele>1269</ele>
        <time>2021-06-19T14:29:11Z</time>
      </trkpt>
      <trkpt lat="42.58939" lon="1.21174">
        <ele>1277</ele>
        <time>2021-06-19T14:29:18Z</time>
      </trkpt>
      <trkpt lat="42.58999" lon="1.21224">
        <ele>1261</ele>
        <time>2021-06-19T14:29:35Z</time>
      </trkpt>
      <trkpt lat="42.59024" lon="1.21263">
        <ele>1247</ele>
        <time>2021-06-19T14:29:44Z</time>
      </trkpt>
      <trkpt lat="42.59071" lon="1.2129">
        <ele>1247</ele>
        <time>2021-06-19T14:29:56Z</time>
      </trkpt>
      <trkpt lat="42.5913" lon="1.21349">
        <ele>1240</ele>
        <time>2021-06-19T14:30:13Z</time>
      </trkpt>
      <trkpt lat="42.59145" lon="1.21386">
        <ele>1243</ele>
        <time>2021-06-19T14:30:20Z</time>
      </trkpt>
      <trkpt lat="42.59157" lon="1.21383">
        <ele>1245</ele>
        <time>2021-06-19T14:30:23Z</time>
      </trkpt>
      <trkpt lat="42.59178" lon="1.21386">
        <ele>1249</ele>
        <time>2021-06-19T14:30:28Z</time>
      </trkpt>
      <trkpt lat="42.59204" lon="1.2138">
        <ele>1253</ele>
        <time>2021-06-19T14:30:34Z</time>
      </trkpt>
      <trkpt lat="42.5922" lon="1.2138">
        <ele>1255</ele>
        <time>2021-06-19T14:30:38Z</time>
      </trkpt>
      <trkpt lat="42.59232" lon="1.21373">
        <ele>1256</ele>
        <time>2021-06-19T14:30:41Z</time>
      </trkpt>
      <trkpt lat="42.59243" lon="1.21339">
        <ele>1250</ele>
        <time>2021-06-19T14:30:47Z</time>
      </trkpt>
      <trkpt lat="42.59264" lon="1.21299">
        <ele>1261</ele>
        <time>2021-06-19T14:30:56Z</time>
      </trkpt>
      <trkpt lat="42.5927" lon="1.21296">
        <ele>1263</ele>
        <time>2021-06-19T14:30:57Z</time>
      </trkpt>
      <trkpt lat="42.5934" lon="1.21227">
        <ele>1267</ele>
        <time>2021-06-19T14:31:17Z</time>
      </trkpt>
      <trkpt lat="42.59362" lon="1.21182">
        <ele>1273</ele>
        <time>2021-06-19T14:31:27Z</time>
      </trkpt>
      <trkpt lat="42.59403" lon="1.21143">
        <ele>1276</ele>
        <time>2021-06-19T14:31:38Z</time>
      </trkpt>
      <trkpt lat="42.59463" lon="1.2112">
        <ele>1283</ele>
        <time>2021-06-19T14:31:53Z</time>
      </trkpt>
      <trkpt lat="42.59487" lon="1.21125">
        <ele>1286</ele>
        <time>2021-06-19T14:31:59Z</time>
      </trkpt>
      <trkpt lat="42.59511" lon="1.21148">
        <ele>1287</ele>
        <time>2021-06-19T14:32:05Z</time>
      </trkpt>
      <trkpt lat="42.59546" lon="1.21213">
        <ele>1301</ele>
        <time>2021-06-19T14:32:19Z</time>
      </trkpt>
      <trkpt lat="42.59565" lon="1.21223">
        <ele>1301</ele>
        <time>2021-06-19T14:32:24Z</time>
      </trkpt>
      <trkpt lat="42.59601" lon="1.21233">
        <ele>1300</ele>
        <time>2021-06-19T14:32:33Z</time>
      </trkpt>
      <trkpt lat="42.59628" lon="1.21244">
        <ele>1302</ele>
        <time>2021-06-19T14:32:39Z</time>
      </trkpt>
      <trkpt lat="42.59653" lon="1.21237">
        <ele>1302</ele>
        <time>2021-06-19T14:32:45Z</time>
      </trkpt>
      <trkpt lat="42.59695" lon="1.2125">
        <ele>1304</ele>
        <time>2021-06-19T14:32:55Z</time>
      </trkpt>
      <trkpt lat="42.59705" lon="1.21244">
        <ele>1305</ele>
        <time>2021-06-19T14:32:58Z</time>
      </trkpt>
      <trkpt lat="42.59719" lon="1.21246">
        <ele>1306</ele>
        <time>2021-06-19T14:33:01Z</time>
      </trkpt>
      <trkpt lat="42.59723" lon="1.21224">
        <ele>1311</ele>
        <time>2021-06-19T14:33:05Z</time>
      </trkpt>
      <trkpt lat="42.59743" lon="1.21237">
        <ele>1310</ele>
        <time>2021-06-19T14:33:10Z</time>
      </trkpt>
      <trkpt lat="42.59759" lon="1.2124">
        <ele>1312</ele>
        <time>2021-06-19T14:33:14Z</time>
      </trkpt>
      <trkpt lat="42.59782" lon="1.21253">
        <ele>1315</ele>
        <time>2021-06-19T14:33:20Z</time>
      </trkpt>
      <trkpt lat="42.59796" lon="1.21256">
        <ele>1318</ele>
        <time>2021-06-19T14:33:23Z</time>
      </trkpt>
      <trkpt lat="42.59817" lon="1.2127">
        <ele>1322</ele>
        <time>2021-06-19T14:33:28Z</time>
      </trkpt>
      <trkpt lat="42.5984" lon="1.21327">
        <ele>1321</ele>
        <time>2021-06-19T14:33:40Z</time>
      </trkpt>
      <trkpt lat="42.59879" lon="1.2133">
        <ele>1324</ele>
        <time>2021-06-19T14:33:49Z</time>
      </trkpt>
      <trkpt lat="42.59893" lon="1.21317">
        <ele>1328</ele>
        <time>2021-06-19T14:33:53Z</time>
      </trkpt>
      <trkpt lat="42.59925" lon="1.21306">
        <ele>1334</ele>
        <time>2021-06-19T14:34:00Z</time>
      </trkpt>
      <trkpt lat="42.59947" lon="1.21311">
        <ele>1334</ele>
        <time>2021-06-19T14:34:06Z</time>
      </trkpt>
      <trkpt lat="42.59973" lon="1.21302">
        <ele>1336</ele>
        <time>2021-06-19T14:34:12Z</time>
      </trkpt>
      <trkpt lat="42.60002" lon="1.21287">
        <ele>1337</ele>
        <time>2021-06-19T14:34:19Z</time>
      </trkpt>
      <trkpt lat="42.60027" lon="1.21214">
        <ele>1345</ele>
        <time>2021-06-19T14:34:33Z</time>
      </trkpt>
      <trkpt lat="42.60048" lon="1.21174">
        <ele>1346</ele>
        <time>2021-06-19T14:34:41Z</time>
      </trkpt>
      <trkpt lat="42.601" lon="1.21104">
        <ele>1350</ele>
        <time>2021-06-19T14:34:58Z</time>
      </trkpt>
      <trkpt lat="42.60125" lon="1.21053">
        <ele>1358</ele>
        <time>2021-06-19T14:35:09Z</time>
      </trkpt>
      <trkpt lat="42.60151" lon="1.20961">
        <ele>1358</ele>
        <time>2021-06-19T14:35:26Z</time>
      </trkpt>
      <trkpt lat="42.60162" lon="1.20932">
        <ele>1356</ele>
        <time>2021-06-19T14:35:32Z</time>
      </trkpt>
      <trkpt lat="42.60182" lon="1.20914">
        <ele>1357</ele>
        <time>2021-06-19T14:35:37Z</time>
      </trkpt>
      <trkpt lat="42.60196" lon="1.20917">
        <ele>1357</ele>
        <time>2021-06-19T14:35:40Z</time>
      </trkpt>
      <trkpt lat="42.60206" lon="1.20925">
        <ele>1359</ele>
        <time>2021-06-19T14:35:43Z</time>
      </trkpt>
      <trkpt lat="42.6023" lon="1.20935">
        <ele>1363</ele>
        <time>2021-06-19T14:35:49Z</time>
      </trkpt>
      <trkpt lat="42.60249" lon="1.20933">
        <ele>1366</ele>
        <time>2021-06-19T14:35:54Z</time>
      </trkpt>
      <trkpt lat="42.60268" lon="1.20926">
        <ele>1366</ele>
        <time>2021-06-19T14:35:58Z</time>
      </trkpt>
      <trkpt lat="42.60315" lon="1.20939">
        <ele>1374</ele>
        <time>2021-06-19T14:36:09Z</time>
      </trkpt>
      <trkpt lat="42.60344" lon="1.20944">
        <ele>1379</ele>
        <time>2021-06-19T14:36:16Z</time>
      </trkpt>
      <trkpt lat="42.60425" lon="1.20982">
        <ele>1389</ele>
        <time>2021-06-19T14:36:36Z</time>
      </trkpt>
      <trkpt lat="42.60471" lon="1.21027">
        <ele>1394</ele>
        <time>2021-06-19T14:36:49Z</time>
      </trkpt>
      <trkpt lat="42.60486" lon="1.21048">
        <ele>1396</ele>
        <time>2021-06-19T14:36:54Z</time>
      </trkpt>
      <trkpt lat="42.60527" lon="1.21077">
        <ele>1395</ele>
        <time>2021-06-19T14:37:05Z</time>
      </trkpt>
      <trkpt lat="42.60613" lon="1.21067">
        <ele>1399</ele>
        <time>2021-06-19T14:37:25Z</time>
      </trkpt>
      <trkpt lat="42.60624" lon="1.21079">
        <ele>1397</ele>
        <time>2021-06-19T14:37:29Z</time>
      </trkpt>
      <trkpt lat="42.60648" lon="1.21119">
        <ele>1404</ele>
        <time>2021-06-19T14:37:38Z</time>
      </trkpt>
      <trkpt lat="42.60674" lon="1.21145">
        <ele>1408</ele>
        <time>2021-06-19T14:37:45Z</time>
      </trkpt>
      <trkpt lat="42.60724" lon="1.21185">
        <ele>1417</ele>
        <time>2021-06-19T14:37:59Z</time>
      </trkpt>
      <trkpt lat="42.60785" lon="1.21178">
        <ele>1416</ele>
        <time>2021-06-19T14:38:13Z</time>
      </trkpt>
      <trkpt lat="42.60852" lon="1.21176">
        <ele>1420</ele>
        <time>2021-06-19T14:38:29Z</time>
      </trkpt>
      <trkpt lat="42.6084" lon="1.21158">
        <ele>1419</ele>
        <time>2021-06-19T14:38:33Z</time>
      </trkpt>
      <trkpt lat="42.60881" lon="1.21159">
        <ele>1417</ele>
        <time>2021-06-19T14:38:42Z</time>
      </trkpt>
      <trkpt lat="42.60906" lon="1.21145">
        <ele>1421</ele>
        <time>2021-06-19T14:38:49Z</time>
      </trkpt>
      <trkpt lat="42.60943" lon="1.21138">
        <ele>1424</ele>
        <time>2021-06-19T14:38:57Z</time>
      </trkpt>
      <trkpt lat="42.60986" lon="1.21105">
        <ele>1429</ele>
        <time>2021-06-19T14:39:09Z</time>
      </trkpt>
      <trkpt lat="42.61004" lon="1.21076">
        <ele>1432</ele>
        <time>2021-06-19T14:39:15Z</time>
      </trkpt>
      <trkpt lat="42.6102" lon="1.21072">
        <ele>1433</ele>
        <time>2021-06-19T14:39:19Z</time>
      </trkpt>
      <trkpt lat="42.61032" lon="1.21057">
        <ele>1438</ele>
        <time>2021-06-19T14:39:23Z</time>
      </trkpt>
      <trkpt lat="42.61098" lon="1.21053">
        <ele>1434</ele>
        <time>2021-06-19T14:39:38Z</time>
      </trkpt>
      <trkpt lat="42.61108" lon="1.21042">
        <ele>1437</ele>
        <time>2021-06-19T14:39:41Z</time>
      </trkpt>
      <trkpt lat="42.61123" lon="1.21033">
        <ele>1439</ele>
        <time>2021-06-19T14:39:45Z</time>
      </trkpt>
      <trkpt lat="42.61135" lon="1.21036">
        <ele>1441</ele>
        <time>2021-06-19T14:39:48Z</time>
      </trkpt>
      <trkpt lat="42.61154" lon="1.21049">
        <ele>1445</ele>
        <time>2021-06-19T14:39:53Z</time>
      </trkpt>
      <trkpt lat="42.61187" lon="1.21053">
        <ele>1450</ele>
        <time>2021-06-19T14:40:01Z</time>
      </trkpt>
      <trkpt lat="42.61217" lon="1.2106">
        <ele>1456</ele>
        <time>2021-06-19T14:40:08Z</time>
      </trkpt>
      <trkpt lat="42.61242" lon="1.21082">
        <ele>1462</ele>
        <time>2021-06-19T14:40:15Z</time>
      </trkpt>
      <trkpt lat="42.61272" lon="1.21096">
        <ele>1469</ele>
        <time>2021-06-19T14:40:22Z</time>
      </trkpt>
      <trkpt lat="42.61286" lon="1.21085">
        <ele>1465</ele>
        <time>2021-06-19T14:40:26Z</time>
      </trkpt>
      <trkpt lat="42.61295" lon="1.21081">
        <ele>1464</ele>
        <time>2021-06-19T14:40:28Z</time>
      </trkpt>
      <trkpt lat="42.61356" lon="1.21081">
        <ele>1468</ele>
        <time>2021-06-19T14:40:43Z</time>
      </trkpt>
      <trkpt lat="42.61407" lon="1.21063">
        <ele>1475</ele>
        <time>2021-06-19T14:40:55Z</time>
      </trkpt>
      <trkpt lat="42.61418" lon="1.21062">
        <ele>1477</ele>
        <time>2021-06-19T14:40:57Z</time>
      </trkpt>
      <trkpt lat="42.61429" lon="1.21055">
        <ele>1478</ele>
        <time>2021-06-19T14:41:00Z</time>
      </trkpt>
      <trkpt lat="42.61459" lon="1.21048">
        <ele>1481</ele>
        <time>2021-06-19T14:41:07Z</time>
      </trkpt>
      <trkpt lat="42.61521" lon="1.21043">
        <ele>1489</ele>
        <time>2021-06-19T14:41:22Z</time>
      </trkpt>
      <trkpt lat="42.61572" lon="1.21057">
        <ele>1495</ele>
        <time>2021-06-19T14:41:34Z</time>
      </trkpt>
      <trkpt lat="42.61599" lon="1.2107">
        <ele>1499</ele>
        <time>2021-06-19T14:41:41Z</time>
      </trkpt>
      <trkpt lat="42.61668" lon="1.21078">
        <ele>1507</ele>
        <time>2021-06-19T14:41:57Z</time>
      </trkpt>
      <trkpt lat="42.6175" lon="1.21097">
        <ele>1518</ele>
        <time>2021-06-19T14:42:16Z</time>
      </trkpt>
      <trkpt lat="42.61782" lon="1.21102">
        <ele>1524</ele>
        <time>2021-06-19T14:42:24Z</time>
      </trkpt>
      <trkpt lat="42.61814" lon="1.21102">
        <ele>1527</ele>
        <time>2021-06-19T14:42:31Z</time>
      </trkpt>
      <trkpt lat="42.6182" lon="1.21105">
        <ele>1529</ele>
        <time>2021-06-19T14:42:33Z</time>
      </trkpt>
      <trkpt lat="42.61845" lon="1.21105">
        <ele>1532</ele>
        <time>2021-06-19T14:42:39Z</time>
      </trkpt>
      <trkpt lat="42.61876" lon="1.2112">
        <ele>1540</ele>
        <time>2021-06-19T14:42:46Z</time>
      </trkpt>
      <trkpt lat="42.61876" lon="1.21122">
        <ele>1540</ele>
        <time>2021-06-19T14:42:47Z</time>
      </trkpt>
      <trkpt lat="42.61862" lon="1.21123">
        <ele>1539</ele>
        <time>2021-06-19T14:42:50Z</time>
      </trkpt>
      <trkpt lat="42.61807" lon="1.21149">
        <ele>1543</ele>
        <time>2021-06-19T14:43:04Z</time>
      </trkpt>
      <trkpt lat="42.61757" lon="1.21192">
        <ele>1562</ele>
        <time>2021-06-19T14:43:17Z</time>
      </trkpt>
      <trkpt lat="42.61741" lon="1.21203">
        <ele>1567</ele>
        <time>2021-06-19T14:43:22Z</time>
      </trkpt>
      <trkpt lat="42.61674" lon="1.21239">
        <ele>1577</ele>
        <time>2021-06-19T14:43:38Z</time>
      </trkpt>
      <trkpt lat="42.61656" lon="1.21251">
        <ele>1583</ele>
        <time>2021-06-19T14:43:43Z</time>
      </trkpt>
      <trkpt lat="42.61629" lon="1.21247">
        <ele>1581</ele>
        <time>2021-06-19T14:43:49Z</time>
      </trkpt>
      <trkpt lat="42.61617" lon="1.21251">
        <ele>1583</ele>
        <time>2021-06-19T14:43:52Z</time>
      </trkpt>
      <trkpt lat="42.61602" lon="1.21251">
        <ele>1583</ele>
        <time>2021-06-19T14:43:56Z</time>
      </trkpt>
      <trkpt lat="42.61556" lon="1.21273">
        <ele>1588</ele>
        <time>2021-06-19T14:44:07Z</time>
      </trkpt>
      <trkpt lat="42.61542" lon="1.21294">
        <ele>1594</ele>
        <time>2021-06-19T14:44:12Z</time>
      </trkpt>
      <trkpt lat="42.6153" lon="1.21318">
        <ele>1600</ele>
        <time>2021-06-19T14:44:17Z</time>
      </trkpt>
      <trkpt lat="42.6153" lon="1.21339">
        <ele>1607</ele>
        <time>2021-06-19T14:44:21Z</time>
      </trkpt>
      <trkpt lat="42.61548" lon="1.21333">
        <ele>1611</ele>
        <time>2021-06-19T14:44:25Z</time>
      </trkpt>
      <trkpt lat="42.61556" lon="1.21336">
        <ele>1615</ele>
        <time>2021-06-19T14:44:27Z</time>
      </trkpt>
      <trkpt lat="42.61548" lon="1.21351">
        <ele>1616</ele>
        <time>2021-06-19T14:44:30Z</time>
      </trkpt>
      <trkpt lat="42.61557" lon="1.21352">
        <ele>1619</ele>
        <time>2021-06-19T14:44:32Z</time>
      </trkpt>
      <trkpt lat="42.61565" lon="1.2135">
        <ele>1622</ele>
        <time>2021-06-19T14:44:34Z</time>
      </trkpt>
      <trkpt lat="42.61575" lon="1.21352">
        <ele>1626</ele>
        <time>2021-06-19T14:44:36Z</time>
      </trkpt>
      <trkpt lat="42.61572" lon="1.21371">
        <ele>1630</ele>
        <time>2021-06-19T14:44:40Z</time>
      </trkpt>
      <trkpt lat="42.61576" lon="1.21374">
        <ele>1633</ele>
        <time>2021-06-19T14:44:41Z</time>
      </trkpt>
      <trkpt lat="42.61591" lon="1.21376">
        <ele>1638</ele>
        <time>2021-06-19T14:44:44Z</time>
      </trkpt>
      <trkpt lat="42.61612" lon="1.21392">
        <ele>1647</ele>
        <time>2021-06-19T14:44:50Z</time>
      </trkpt>
      <trkpt lat="42.61603" lon="1.21407">
        <ele>1651</ele>
        <time>2021-06-19T14:44:53Z</time>
      </trkpt>
      <trkpt lat="42.61601" lon="1.21422">
        <ele>1655</ele>
        <time>2021-06-19T14:44:56Z</time>
      </trkpt>
      <trkpt lat="42.61606" lon="1.21439">
        <ele>1661</ele>
        <time>2021-06-19T14:44:59Z</time>
      </trkpt>
      <trkpt lat="42.6161" lon="1.2147">
        <ele>1671</ele>
        <time>2021-06-19T14:45:05Z</time>
      </trkpt>
      <trkpt lat="42.61615" lon="1.21478">
        <ele>1675</ele>
        <time>2021-06-19T14:45:06Z</time>
      </trkpt>
      <trkpt lat="42.6161" lon="1.21527">
        <ele>1686</ele>
        <time>2021-06-19T14:45:15Z</time>
      </trkpt>
      <trkpt lat="42.61611" lon="1.21608">
        <ele>1710</ele>
        <time>2021-06-19T14:45:29Z</time>
      </trkpt>
      <trkpt lat="42.61606" lon="1.21638">
        <ele>1718</ele>
        <time>2021-06-19T14:45:34Z</time>
      </trkpt>
      <trkpt lat="42.61592" lon="1.21664">
        <ele>1720</ele>
        <time>2021-06-19T14:45:40Z</time>
      </trkpt>
      <trkpt lat="42.61576" lon="1.21703">
        <ele>1729</ele>
        <time>2021-06-19T14:45:47Z</time>
      </trkpt>
      <trkpt lat="42.61603" lon="1.21701">
        <ele>1740</ele>
        <time>2021-06-19T14:45:54Z</time>
      </trkpt>
      <trkpt lat="42.61651" lon="1.21702">
        <ele>1761</ele>
        <time>2021-06-19T14:46:05Z</time>
      </trkpt>
      <trkpt lat="42.61668" lon="1.21698">
        <ele>1767</ele>
        <time>2021-06-19T14:46:09Z</time>
      </trkpt>
      <trkpt lat="42.61689" lon="1.21687">
        <ele>1769</ele>
        <time>2021-06-19T14:46:14Z</time>
      </trkpt>
      <trkpt lat="42.61687" lon="1.21695">
        <ele>1771</ele>
        <time>2021-06-19T14:46:15Z</time>
      </trkpt>
      <trkpt lat="42.61667" lon="1.21731">
        <ele>1778</ele>
        <time>2021-06-19T14:46:23Z</time>
      </trkpt>
      <trkpt lat="42.6165" lon="1.21747">
        <ele>1777</ele>
        <time>2021-06-19T14:46:28Z</time>
      </trkpt>
      <trkpt lat="42.61601" lon="1.21808">
        <ele>1784</ele>
        <time>2021-06-19T14:46:44Z</time>
      </trkpt>
      <trkpt lat="42.61543" lon="1.21903">
        <ele>1806</ele>
        <time>2021-06-19T14:47:05Z</time>
      </trkpt>
      <trkpt lat="42.61522" lon="1.2193">
        <ele>1810</ele>
        <time>2021-06-19T14:47:12Z</time>
      </trkpt>
      <trkpt lat="42.61502" lon="1.21946">
        <ele>1810</ele>
        <time>2021-06-19T14:47:17Z</time>
      </trkpt>
      <trkpt lat="42.61463" lon="1.21969">
        <ele>1817</ele>
        <time>2021-06-19T14:47:27Z</time>
      </trkpt>
      <trkpt lat="42.6147" lon="1.21981">
        <ele>1821</ele>
        <time>2021-06-19T14:47:30Z</time>
      </trkpt>
      <trkpt lat="42.61464" lon="1.21988">
        <ele>1824</ele>
        <time>2021-06-19T14:47:31Z</time>
      </trkpt>
      <trkpt lat="42.61474" lon="1.21996">
        <ele>1827</ele>
        <time>2021-06-19T14:47:34Z</time>
      </trkpt>
      <trkpt lat="42.6147" lon="1.22007">
        <ele>1829</ele>
        <time>2021-06-19T14:47:36Z</time>
      </trkpt>
      <trkpt lat="42.61462" lon="1.22011">
        <ele>1828</ele>
        <time>2021-06-19T14:47:38Z</time>
      </trkpt>
      <trkpt lat="42.61453" lon="1.22024">
        <ele>1828</ele>
        <time>2021-06-19T14:47:41Z</time>
      </trkpt>
      <trkpt lat="42.61455" lon="1.22036">
        <ele>1829</ele>
        <time>2021-06-19T14:47:43Z</time>
      </trkpt>
      <trkpt lat="42.61472" lon="1.22056">
        <ele>1830</ele>
        <time>2021-06-19T14:47:49Z</time>
      </trkpt>
      <trkpt lat="42.61455" lon="1.22077">
        <ele>1830</ele>
        <time>2021-06-19T14:47:54Z</time>
      </trkpt>
      <trkpt lat="42.61442" lon="1.22119">
        <ele>1820</ele>
        <time>2021-06-19T14:48:02Z</time>
      </trkpt>
      <trkpt lat="42.61441" lon="1.22148">
        <ele>1812</ele>
        <time>2021-06-19T14:48:07Z</time>
      </trkpt>
      <trkpt lat="42.61433" lon="1.22177">
        <ele>1804</ele>
        <time>2021-06-19T14:48:12Z</time>
      </trkpt>
      <trkpt lat="42.61397" lon="1.22216">
        <ele>1789</ele>
        <time>2021-06-19T14:48:23Z</time>
      </trkpt>
      <trkpt lat="42.61394" lon="1.22244">
        <ele>1781</ele>
        <time>2021-06-19T14:48:28Z</time>
      </trkpt>
      <trkpt lat="42.61387" lon="1.2226">
        <ele>1776</ele>
        <time>2021-06-19T14:48:31Z</time>
      </trkpt>
      <trkpt lat="42.61371" lon="1.22285">
        <ele>1768</ele>
        <time>2021-06-19T14:48:37Z</time>
      </trkpt>
      <trkpt lat="42.61367" lon="1.22302">
        <ele>1762</ele>
        <time>2021-06-19T14:48:40Z</time>
      </trkpt>
      <trkpt lat="42.61368" lon="1.22311">
        <ele>1760</ele>
        <time>2021-06-19T14:48:41Z</time>
      </trkpt>
      <trkpt lat="42.61361" lon="1.2234">
        <ele>1751</ele>
        <time>2021-06-19T14:48:47Z</time>
      </trkpt>
      <trkpt lat="42.61363" lon="1.22345">
        <ele>1750</ele>
        <time>2021-06-19T14:48:47Z</time>
      </trkpt>
      <trkpt lat="42.6135" lon="1.22372">
        <ele>1742</ele>
        <time>2021-06-19T14:48:53Z</time>
      </trkpt>
      <trkpt lat="42.61335" lon="1.22376">
        <ele>1738</ele>
        <time>2021-06-19T14:48:57Z</time>
      </trkpt>
      <trkpt lat="42.61324" lon="1.22383">
        <ele>1735</ele>
        <time>2021-06-19T14:48:59Z</time>
      </trkpt>
      <trkpt lat="42.61307" lon="1.22386">
        <ele>1733</ele>
        <time>2021-06-19T14:49:03Z</time>
      </trkpt>
      <trkpt lat="42.61319" lon="1.22404">
        <ele>1729</ele>
        <time>2021-06-19T14:49:08Z</time>
      </trkpt>
      <trkpt lat="42.61262" lon="1.22432">
        <ele>1717</ele>
        <time>2021-06-19T14:49:22Z</time>
      </trkpt>
      <trkpt lat="42.61212" lon="1.22451">
        <ele>1708</ele>
        <time>2021-06-19T14:49:34Z</time>
      </trkpt>
      <trkpt lat="42.61112" lon="1.22509">
        <ele>1683</ele>
        <time>2021-06-19T14:49:59Z</time>
      </trkpt>
      <trkpt lat="42.61006" lon="1.22593">
        <ele>1647</ele>
        <time>2021-06-19T14:50:28Z</time>
      </trkpt>
      <trkpt lat="42.61008" lon="1.22622">
        <ele>1643</ele>
        <time>2021-06-19T14:50:33Z</time>
      </trkpt>
      <trkpt lat="42.61004" lon="1.22634">
        <ele>1640</ele>
        <time>2021-06-19T14:50:35Z</time>
      </trkpt>
      <trkpt lat="42.60993" lon="1.22634">
        <ele>1636</ele>
        <time>2021-06-19T14:50:38Z</time>
      </trkpt>
      <trkpt lat="42.6098" lon="1.22617">
        <ele>1634</ele>
        <time>2021-06-19T14:50:42Z</time>
      </trkpt>
      <trkpt lat="42.60973" lon="1.22623">
        <ele>1630</ele>
        <time>2021-06-19T14:50:44Z</time>
      </trkpt>
      <trkpt lat="42.6097" lon="1.22653">
        <ele>1624</ele>
        <time>2021-06-19T14:50:49Z</time>
      </trkpt>
      <trkpt lat="42.60973" lon="1.22669">
        <ele>1622</ele>
        <time>2021-06-19T14:50:52Z</time>
      </trkpt>
      <trkpt lat="42.60985" lon="1.22684">
        <ele>1622</ele>
        <time>2021-06-19T14:50:56Z</time>
      </trkpt>
      <trkpt lat="42.61115" lon="1.22752">
        <ele>1613</ele>
        <time>2021-06-19T14:51:28Z</time>
      </trkpt>
      <trkpt lat="42.61116" lon="1.22759">
        <ele>1610</ele>
        <time>2021-06-19T14:51:30Z</time>
      </trkpt>
      <trkpt lat="42.61103" lon="1.22765">
        <ele>1606</ele>
        <time>2021-06-19T14:51:33Z</time>
      </trkpt>
      <trkpt lat="42.6108" lon="1.22769">
        <ele>1602</ele>
        <time>2021-06-19T14:51:38Z</time>
      </trkpt>
      <trkpt lat="42.61061" lon="1.22766">
        <ele>1602</ele>
        <time>2021-06-19T14:51:43Z</time>
      </trkpt>
      <trkpt lat="42.61034" lon="1.2277">
        <ele>1598</ele>
        <time>2021-06-19T14:51:49Z</time>
      </trkpt>
      <trkpt lat="42.61025" lon="1.22776">
        <ele>1594</ele>
        <time>2021-06-19T14:51:51Z</time>
      </trkpt>
      <trkpt lat="42.61079" lon="1.22799">
        <ele>1590</ele>
        <time>2021-06-19T14:52:05Z</time>
      </trkpt>
      <trkpt lat="42.61092" lon="1.228">
        <ele>1591</ele>
        <time>2021-06-19T14:52:08Z</time>
      </trkpt>
      <trkpt lat="42.61128" lon="1.22823">
        <ele>1586</ele>
        <time>2021-06-19T14:52:17Z</time>
      </trkpt>
      <trkpt lat="42.61133" lon="1.2283">
        <ele>1584</ele>
        <time>2021-06-19T14:52:19Z</time>
      </trkpt>
      <trkpt lat="42.61076" lon="1.22841">
        <ele>1573</ele>
        <time>2021-06-19T14:52:32Z</time>
      </trkpt>
      <trkpt lat="42.61053" lon="1.22841">
        <ele>1571</ele>
        <time>2021-06-19T14:52:37Z</time>
      </trkpt>
      <trkpt lat="42.61029" lon="1.22836">
        <ele>1570</ele>
        <time>2021-06-19T14:52:43Z</time>
      </trkpt>
      <trkpt lat="42.61028" lon="1.22843">
        <ele>1567</ele>
        <time>2021-06-19T14:52:44Z</time>
      </trkpt>
      <trkpt lat="42.61072" lon="1.22873">
        <ele>1560</ele>
        <time>2021-06-19T14:52:56Z</time>
      </trkpt>
      <trkpt lat="42.61093" lon="1.22896">
        <ele>1553</ele>
        <time>2021-06-19T14:53:02Z</time>
      </trkpt>
      <trkpt lat="42.61118" lon="1.22913">
        <ele>1549</ele>
        <time>2021-06-19T14:53:09Z</time>
      </trkpt>
      <trkpt lat="42.61162" lon="1.22934">
        <ele>1545</ele>
        <time>2021-06-19T14:53:19Z</time>
      </trkpt>
      <trkpt lat="42.61177" lon="1.22931">
        <ele>1549</ele>
        <time>2021-06-19T14:53:23Z</time>
      </trkpt>
      <trkpt lat="42.61184" lon="1.22936">
        <ele>1548</ele>
        <time>2021-06-19T14:53:25Z</time>
      </trkpt>
      <trkpt lat="42.6119" lon="1.22962">
        <ele>1540</ele>
        <time>2021-06-19T14:53:30Z</time>
      </trkpt>
      <trkpt lat="42.61202" lon="1.22985">
        <ele>1534</ele>
        <time>2021-06-19T14:53:34Z</time>
      </trkpt>
      <trkpt lat="42.61301" lon="1.23075">
        <ele>1523</ele>
        <time>2021-06-19T14:54:02Z</time>
      </trkpt>
      <trkpt lat="42.61331" lon="1.23099">
        <ele>1520</ele>
        <time>2021-06-19T14:54:10Z</time>
      </trkpt>
      <trkpt lat="42.61344" lon="1.23102">
        <ele>1523</ele>
        <time>2021-06-19T14:54:13Z</time>
      </trkpt>
      <trkpt lat="42.61348" lon="1.23119">
        <ele>1518</ele>
        <time>2021-06-19T14:54:16Z</time>
      </trkpt>
      <trkpt lat="42.61362" lon="1.23147">
        <ele>1513</ele>
        <time>2021-06-19T14:54:22Z</time>
      </trkpt>
      <trkpt lat="42.61377" lon="1.23185">
        <ele>1505</ele>
        <time>2021-06-19T14:54:30Z</time>
      </trkpt>
      <trkpt lat="42.614" lon="1.23214">
        <ele>1502</ele>
        <time>2021-06-19T14:54:37Z</time>
      </trkpt>
      <trkpt lat="42.6143" lon="1.23238">
        <ele>1498</ele>
        <time>2021-06-19T14:54:45Z</time>
      </trkpt>
      <trkpt lat="42.61454" lon="1.23243">
        <ele>1494</ele>
        <time>2021-06-19T14:54:51Z</time>
      </trkpt>
      <trkpt lat="42.61502" lon="1.23237">
        <ele>1493</ele>
        <time>2021-06-19T14:55:02Z</time>
      </trkpt>
      <trkpt lat="42.61533" lon="1.23211">
        <ele>1504</ele>
        <time>2021-06-19T14:55:11Z</time>
      </trkpt>
      <trkpt lat="42.61549" lon="1.23211">
        <ele>1502</ele>
        <time>2021-06-19T14:55:14Z</time>
      </trkpt>
      <trkpt lat="42.61601" lon="1.23192">
        <ele>1512</ele>
        <time>2021-06-19T14:55:27Z</time>
      </trkpt>
      <trkpt lat="42.61608" lon="1.23194">
        <ele>1511</ele>
        <time>2021-06-19T14:55:29Z</time>
      </trkpt>
      <trkpt lat="42.61633" lon="1.23222">
        <ele>1499</ele>
        <time>2021-06-19T14:55:36Z</time>
      </trkpt>
      <trkpt lat="42.61647" lon="1.23227">
        <ele>1498</ele>
        <time>2021-06-19T14:55:40Z</time>
      </trkpt>
      <trkpt lat="42.61671" lon="1.2322">
        <ele>1505</ele>
        <time>2021-06-19T14:55:45Z</time>
      </trkpt>
      <trkpt lat="42.61696" lon="1.23231">
        <ele>1502</ele>
        <time>2021-06-19T14:55:51Z</time>
      </trkpt>
      <trkpt lat="42.61791" lon="1.23254">
        <ele>1500</ele>
        <time>2021-06-19T14:56:14Z</time>
      </trkpt>
      <trkpt lat="42.61812" lon="1.23269">
        <ele>1495</ele>
        <time>2021-06-19T14:56:19Z</time>
      </trkpt>
      <trkpt lat="42.61856" lon="1.23282">
        <ele>1491</ele>
        <time>2021-06-19T14:56:30Z</time>
      </trkpt>
      <trkpt lat="42.61925" lon="1.23317">
        <ele>1477</ele>
        <time>2021-06-19T14:56:47Z</time>
      </trkpt>
      <trkpt lat="42.61985" lon="1.23334">
        <ele>1467</ele>
        <time>2021-06-19T14:57:01Z</time>
      </trkpt>
      <trkpt lat="42.62006" lon="1.23345">
        <ele>1461</ele>
        <time>2021-06-19T14:57:07Z</time>
      </trkpt>
      <trkpt lat="42.62024" lon="1.23346">
        <ele>1458</ele>
        <time>2021-06-19T14:57:11Z</time>
      </trkpt>
      <trkpt lat="42.62057" lon="1.23334">
        <ele>1456</ele>
        <time>2021-06-19T14:57:19Z</time>
      </trkpt>
      <trkpt lat="42.62081" lon="1.23333">
        <ele>1453</ele>
        <time>2021-06-19T14:57:25Z</time>
      </trkpt>
      <trkpt lat="42.62075" lon="1.23345">
        <ele>1449</ele>
        <time>2021-06-19T14:57:27Z</time>
      </trkpt>
      <trkpt lat="42.6205" lon="1.23372">
        <ele>1443</ele>
        <time>2021-06-19T14:57:34Z</time>
      </trkpt>
      <trkpt lat="42.62032" lon="1.234">
        <ele>1435</ele>
        <time>2021-06-19T14:57:41Z</time>
      </trkpt>
      <trkpt lat="42.62004" lon="1.23471">
        <ele>1418</ele>
        <time>2021-06-19T14:57:55Z</time>
      </trkpt>
      <trkpt lat="42.6201" lon="1.23471">
        <ele>1417</ele>
        <time>2021-06-19T14:57:56Z</time>
      </trkpt>
      <trkpt lat="42.62026" lon="1.23449">
        <ele>1421</ele>
        <time>2021-06-19T14:58:01Z</time>
      </trkpt>
      <trkpt lat="42.62066" lon="1.23409">
        <ele>1427</ele>
        <time>2021-06-19T14:58:13Z</time>
      </trkpt>
      <trkpt lat="42.62074" lon="1.23406">
        <ele>1426</ele>
        <time>2021-06-19T14:58:15Z</time>
      </trkpt>
      <trkpt lat="42.62058" lon="1.23432">
        <ele>1421</ele>
        <time>2021-06-19T14:58:21Z</time>
      </trkpt>
      <trkpt lat="42.62033" lon="1.23492">
        <ele>1408</ele>
        <time>2021-06-19T14:58:33Z</time>
      </trkpt>
      <trkpt lat="42.62009" lon="1.2354">
        <ele>1399</ele>
        <time>2021-06-19T14:58:43Z</time>
      </trkpt>
      <trkpt lat="42.62" lon="1.23573">
        <ele>1392</ele>
        <time>2021-06-19T14:58:49Z</time>
      </trkpt>
      <trkpt lat="42.61988" lon="1.236">
        <ele>1382</ele>
        <time>2021-06-19T14:58:54Z</time>
      </trkpt>
      <trkpt lat="42.61995" lon="1.23598">
        <ele>1383</ele>
        <time>2021-06-19T14:58:56Z</time>
      </trkpt>
      <trkpt lat="42.62013" lon="1.23572">
        <ele>1390</ele>
        <time>2021-06-19T14:59:02Z</time>
      </trkpt>
      <trkpt lat="42.62029" lon="1.23557">
        <ele>1392</ele>
        <time>2021-06-19T14:59:06Z</time>
      </trkpt>
      <trkpt lat="42.62059" lon="1.23548">
        <ele>1391</ele>
        <time>2021-06-19T14:59:14Z</time>
      </trkpt>
      <trkpt lat="42.62077" lon="1.23546">
        <ele>1389</ele>
        <time>2021-06-19T14:59:18Z</time>
      </trkpt>
      <trkpt lat="42.62081" lon="1.23552">
        <ele>1387</ele>
        <time>2021-06-19T14:59:19Z</time>
      </trkpt>
      <trkpt lat="42.62083" lon="1.23565">
        <ele>1383</ele>
        <time>2021-06-19T14:59:22Z</time>
      </trkpt>
      <trkpt lat="42.62071" lon="1.23572">
        <ele>1383</ele>
        <time>2021-06-19T14:59:25Z</time>
      </trkpt>
      <trkpt lat="42.62047" lon="1.2357">
        <ele>1387</ele>
        <time>2021-06-19T14:59:30Z</time>
      </trkpt>
      <trkpt lat="42.6203" lon="1.23586">
        <ele>1385</ele>
        <time>2021-06-19T14:59:35Z</time>
      </trkpt>
      <trkpt lat="42.61994" lon="1.23637">
        <ele>1370</ele>
        <time>2021-06-19T14:59:47Z</time>
      </trkpt>
      <trkpt lat="42.61972" lon="1.23652">
        <ele>1363</ele>
        <time>2021-06-19T14:59:53Z</time>
      </trkpt>
      <trkpt lat="42.61923" lon="1.23595">
        <ele>1376</ele>
        <time>2021-06-19T15:00:08Z</time>
      </trkpt>
      <trkpt lat="42.61898" lon="1.23572">
        <ele>1378</ele>
        <time>2021-06-19T15:00:15Z</time>
      </trkpt>
      <trkpt lat="42.61855" lon="1.23553">
        <ele>1376</ele>
        <time>2021-06-19T15:00:26Z</time>
      </trkpt>
      <trkpt lat="42.61816" lon="1.2354">
        <ele>1374</ele>
        <time>2021-06-19T15:00:35Z</time>
      </trkpt>
      <trkpt lat="42.61767" lon="1.23527">
        <ele>1371</ele>
        <time>2021-06-19T15:00:47Z</time>
      </trkpt>
      <trkpt lat="42.61762" lon="1.23532">
        <ele>1368</ele>
        <time>2021-06-19T15:00:48Z</time>
      </trkpt>
      <trkpt lat="42.61762" lon="1.23538">
        <ele>1366</ele>
        <time>2021-06-19T15:00:49Z</time>
      </trkpt>
      <trkpt lat="42.61823" lon="1.23577">
        <ele>1360</ele>
        <time>2021-06-19T15:01:05Z</time>
      </trkpt>
      <trkpt lat="42.61842" lon="1.23599">
        <ele>1356</ele>
        <time>2021-06-19T15:01:11Z</time>
      </trkpt>
      <trkpt lat="42.61857" lon="1.23632">
        <ele>1349</ele>
        <time>2021-06-19T15:01:17Z</time>
      </trkpt>
      <trkpt lat="42.61882" lon="1.23675">
        <ele>1341</ele>
        <time>2021-06-19T15:01:27Z</time>
      </trkpt>
      <trkpt lat="42.61909" lon="1.23711">
        <ele>1336</ele>
        <time>2021-06-19T15:01:36Z</time>
      </trkpt>
      <trkpt lat="42.61945" lon="1.23753">
        <ele>1326</ele>
        <time>2021-06-19T15:01:47Z</time>
      </trkpt>
      <trkpt lat="42.61963" lon="1.23781">
        <ele>1320</ele>
        <time>2021-06-19T15:01:53Z</time>
      </trkpt>
      <trkpt lat="42.61973" lon="1.23784">
        <ele>1320</ele>
        <time>2021-06-19T15:01:55Z</time>
      </trkpt>
      <trkpt lat="42.61986" lon="1.23761">
        <ele>1326</ele>
        <time>2021-06-19T15:02:00Z</time>
      </trkpt>
      <trkpt lat="42.62014" lon="1.23743">
        <ele>1331</ele>
        <time>2021-06-19T15:02:08Z</time>
      </trkpt>
      <trkpt lat="42.62028" lon="1.2374">
        <ele>1331</ele>
        <time>2021-06-19T15:02:11Z</time>
      </trkpt>
      <trkpt lat="42.62031" lon="1.23743">
        <ele>1330</ele>
        <time>2021-06-19T15:02:12Z</time>
      </trkpt>
      <trkpt lat="42.62032" lon="1.23754">
        <ele>1327</ele>
        <time>2021-06-19T15:02:14Z</time>
      </trkpt>
      <trkpt lat="42.62003" lon="1.23786">
        <ele>1322</ele>
        <time>2021-06-19T15:02:22Z</time>
      </trkpt>
      <trkpt lat="42.61998" lon="1.238">
        <ele>1320</ele>
        <time>2021-06-19T15:02:25Z</time>
      </trkpt>
      <trkpt lat="42.62" lon="1.23841">
        <ele>1312</ele>
        <time>2021-06-19T15:02:32Z</time>
      </trkpt>
      <trkpt lat="42.62005" lon="1.23873">
        <ele>1301</ele>
        <time>2021-06-19T15:02:38Z</time>
      </trkpt>
      <trkpt lat="42.62001" lon="1.2388">
        <ele>1300</ele>
        <time>2021-06-19T15:02:39Z</time>
      </trkpt>
      <trkpt lat="42.61996" lon="1.23883">
        <ele>1298</ele>
        <time>2021-06-19T15:02:41Z</time>
      </trkpt>
      <trkpt lat="42.62001" lon="1.23894">
        <ele>1296</ele>
        <time>2021-06-19T15:02:43Z</time>
      </trkpt>
      <trkpt lat="42.62001" lon="1.23906">
        <ele>1292</ele>
        <time>2021-06-19T15:02:45Z</time>
      </trkpt>
      <trkpt lat="42.61996" lon="1.23925">
        <ele>1285</ele>
        <time>2021-06-19T15:02:48Z</time>
      </trkpt>
      <trkpt lat="42.61995" lon="1.23944">
        <ele>1278</ele>
        <time>2021-06-19T15:02:52Z</time>
      </trkpt>
      <trkpt lat="42.62018" lon="1.23998">
        <ele>1259</ele>
        <time>2021-06-19T15:03:02Z</time>
      </trkpt>
      <trkpt lat="42.62025" lon="1.24053">
        <ele>1241</ele>
        <time>2021-06-19T15:03:12Z</time>
      </trkpt>
      <trkpt lat="42.62022" lon="1.24086">
        <ele>1231</ele>
        <time>2021-06-19T15:03:18Z</time>
      </trkpt>
      <trkpt lat="42.62028" lon="1.24114">
        <ele>1221</ele>
        <time>2021-06-19T15:03:23Z</time>
      </trkpt>
      <trkpt lat="42.62031" lon="1.24121">
        <ele>1218</ele>
        <time>2021-06-19T15:03:24Z</time>
      </trkpt>
      <trkpt lat="42.62041" lon="1.2413">
        <ele>1215</ele>
        <time>2021-06-19T15:03:27Z</time>
      </trkpt>
      <trkpt lat="42.62041" lon="1.24141">
        <ele>1211</ele>
        <time>2021-06-19T15:03:29Z</time>
      </trkpt>
      <trkpt lat="42.62044" lon="1.24147">
        <ele>1210</ele>
        <time>2021-06-19T15:03:30Z</time>
      </trkpt>
      <trkpt lat="42.62059" lon="1.24141">
        <ele>1212</ele>
        <time>2021-06-19T15:03:34Z</time>
      </trkpt>
      <trkpt lat="42.62065" lon="1.24144">
        <ele>1212</ele>
        <time>2021-06-19T15:03:35Z</time>
      </trkpt>
      <trkpt lat="42.62072" lon="1.24162">
        <ele>1207</ele>
        <time>2021-06-19T15:03:39Z</time>
      </trkpt>
      <trkpt lat="42.62071" lon="1.24174">
        <ele>1204</ele>
        <time>2021-06-19T15:03:41Z</time>
      </trkpt>
      <trkpt lat="42.62058" lon="1.24196">
        <ele>1197</ele>
        <time>2021-06-19T15:03:46Z</time>
      </trkpt>
      <trkpt lat="42.62052" lon="1.24224">
        <ele>1189</ele>
        <time>2021-06-19T15:03:51Z</time>
      </trkpt>
      <trkpt lat="42.62054" lon="1.2427">
        <ele>1176</ele>
        <time>2021-06-19T15:03:59Z</time>
      </trkpt>
      <trkpt lat="42.62056" lon="1.24272">
        <ele>1176</ele>
        <time>2021-06-19T15:03:59Z</time>
      </trkpt>
      <trkpt lat="42.62076" lon="1.24264">
        <ele>1184</ele>
        <time>2021-06-19T15:04:04Z</time>
      </trkpt>
      <trkpt lat="42.62084" lon="1.24265">
        <ele>1185</ele>
        <time>2021-06-19T15:04:06Z</time>
      </trkpt>
      <trkpt lat="42.62087" lon="1.24272">
        <ele>1183</ele>
        <time>2021-06-19T15:04:07Z</time>
      </trkpt>
      <trkpt lat="42.62087" lon="1.2428">
        <ele>1180</ele>
        <time>2021-06-19T15:04:09Z</time>
      </trkpt>
      <trkpt lat="42.62081" lon="1.24298">
        <ele>1174</ele>
        <time>2021-06-19T15:04:12Z</time>
      </trkpt>
      <trkpt lat="42.62081" lon="1.24306">
        <ele>1172</ele>
        <time>2021-06-19T15:04:13Z</time>
      </trkpt>
      <trkpt lat="42.62093" lon="1.24311">
        <ele>1170</ele>
        <time>2021-06-19T15:04:16Z</time>
      </trkpt>
      <trkpt lat="42.62095" lon="1.24328">
        <ele>1165</ele>
        <time>2021-06-19T15:04:19Z</time>
      </trkpt>
      <trkpt lat="42.62101" lon="1.24338">
        <ele>1161</ele>
        <time>2021-06-19T15:04:21Z</time>
      </trkpt>
      <trkpt lat="42.62106" lon="1.2434">
        <ele>1160</ele>
        <time>2021-06-19T15:04:23Z</time>
      </trkpt>
      <trkpt lat="42.62121" lon="1.24339">
        <ele>1160</ele>
        <time>2021-06-19T15:04:26Z</time>
      </trkpt>
      <trkpt lat="42.62123" lon="1.24345">
        <ele>1158</ele>
        <time>2021-06-19T15:04:27Z</time>
      </trkpt>
      <trkpt lat="42.62117" lon="1.24363">
        <ele>1153</ele>
        <time>2021-06-19T15:04:31Z</time>
      </trkpt>
      <trkpt lat="42.62094" lon="1.24399">
        <ele>1141</ele>
        <time>2021-06-19T15:04:39Z</time>
      </trkpt>
      <trkpt lat="42.62068" lon="1.24424">
        <ele>1129</ele>
        <time>2021-06-19T15:04:46Z</time>
      </trkpt>
      <trkpt lat="42.62061" lon="1.24428">
        <ele>1127</ele>
        <time>2021-06-19T15:04:48Z</time>
      </trkpt>
      <trkpt lat="42.62046" lon="1.2443">
        <ele>1122</ele>
        <time>2021-06-19T15:04:52Z</time>
      </trkpt>
      <trkpt lat="42.62037" lon="1.24437">
        <ele>1118</ele>
        <time>2021-06-19T15:04:54Z</time>
      </trkpt>
      <trkpt lat="42.6203" lon="1.24477">
        <ele>1110</ele>
        <time>2021-06-19T15:05:01Z</time>
      </trkpt>
      <trkpt lat="42.62023" lon="1.24485">
        <ele>1107</ele>
        <time>2021-06-19T15:05:03Z</time>
      </trkpt>
      <trkpt lat="42.62014" lon="1.24489">
        <ele>1104</ele>
        <time>2021-06-19T15:05:05Z</time>
      </trkpt>
      <trkpt lat="42.61988" lon="1.24492">
        <ele>1097</ele>
        <time>2021-06-19T15:05:12Z</time>
      </trkpt>
      <trkpt lat="42.61972" lon="1.24499">
        <ele>1093</ele>
        <time>2021-06-19T15:05:16Z</time>
      </trkpt>
      <trkpt lat="42.61946" lon="1.24505">
        <ele>1086</ele>
        <time>2021-06-19T15:05:22Z</time>
      </trkpt>
      <trkpt lat="42.61934" lon="1.24506">
        <ele>1083</ele>
        <time>2021-06-19T15:05:24Z</time>
      </trkpt>
      <trkpt lat="42.61916" lon="1.24499">
        <ele>1080</ele>
        <time>2021-06-19T15:05:29Z</time>
      </trkpt>
      <trkpt lat="42.61898" lon="1.24511">
        <ele>1075</ele>
        <time>2021-06-19T15:05:34Z</time>
      </trkpt>
      <trkpt lat="42.61894" lon="1.24547">
        <ele>1073</ele>
        <time>2021-06-19T15:05:40Z</time>
      </trkpt>
      <trkpt lat="42.61889" lon="1.24557">
        <ele>1071</ele>
        <time>2021-06-19T15:05:42Z</time>
      </trkpt>
      <trkpt lat="42.61883" lon="1.24559">
        <ele>1070</ele>
        <time>2021-06-19T15:05:43Z</time>
      </trkpt>
      <trkpt lat="42.61871" lon="1.24578">
        <ele>1066</ele>
        <time>2021-06-19T15:05:48Z</time>
      </trkpt>
      <trkpt lat="42.61865" lon="1.24609">
        <ele>1063</ele>
        <time>2021-06-19T15:05:53Z</time>
      </trkpt>
      <trkpt lat="42.61865" lon="1.2464">
        <ele>1061</ele>
        <time>2021-06-19T15:05:58Z</time>
      </trkpt>
      <trkpt lat="42.61858" lon="1.24666">
        <ele>1058</ele>
        <time>2021-06-19T15:06:03Z</time>
      </trkpt>
      <trkpt lat="42.61829" lon="1.24693">
        <ele>1052</ele>
        <time>2021-06-19T15:06:11Z</time>
      </trkpt>
      <trkpt lat="42.61846" lon="1.24806">
        <ele>1042</ele>
        <time>2021-06-19T15:06:31Z</time>
      </trkpt>
      <trkpt lat="42.61851" lon="1.24819">
        <ele>1040</ele>
        <time>2021-06-19T15:06:34Z</time>
      </trkpt>
      <trkpt lat="42.61795" lon="1.24787">
        <ele>1039</ele>
        <time>2021-06-19T15:06:48Z</time>
      </trkpt>
      <trkpt lat="42.61788" lon="1.24792">
        <ele>1037</ele>
        <time>2021-06-19T15:06:50Z</time>
      </trkpt>
      <trkpt lat="42.61795" lon="1.24787">
        <ele>1039</ele>
        <time>2021-06-19T15:06:52Z</time>
      </trkpt>
      <trkpt lat="42.61851" lon="1.24819">
        <ele>1040</ele>
        <time>2021-06-19T15:07:06Z</time>
      </trkpt>
      <trkpt lat="42.61861" lon="1.24834">
        <ele>1040</ele>
        <time>2021-06-19T15:07:09Z</time>
      </trkpt>
      <trkpt lat="42.61875" lon="1.24842">
        <ele>1040</ele>
        <time>2021-06-19T15:07:13Z</time>
      </trkpt>
      <trkpt lat="42.61889" lon="1.24859">
        <ele>1038</ele>
        <time>2021-06-19T15:07:17Z</time>
      </trkpt>
      <trkpt lat="42.6193" lon="1.24855">
        <ele>1041</ele>
        <time>2021-06-19T15:07:27Z</time>
      </trkpt>
      <trkpt lat="42.62011" lon="1.24837">
        <ele>1043</ele>
        <time>2021-06-19T15:07:46Z</time>
      </trkpt>
      <trkpt lat="42.62026" lon="1.24842">
        <ele>1041</ele>
        <time>2021-06-19T15:07:50Z</time>
      </trkpt>
      <trkpt lat="42.62057" lon="1.24845">
        <ele>1038</ele>
        <time>2021-06-19T15:07:57Z</time>
      </trkpt>
      <trkpt lat="42.62069" lon="1.24901">
        <ele>1032</ele>
        <time>2021-06-19T15:08:07Z</time>
      </trkpt>
      <trkpt lat="42.62009" lon="1.24928">
        <ele>1030</ele>
        <time>2021-06-19T15:08:22Z</time>
      </trkpt>
      <trkpt lat="42.61958" lon="1.24967">
        <ele>1033</ele>
        <time>2021-06-19T15:08:35Z</time>
      </trkpt>
      <trkpt lat="42.61931" lon="1.24998">
        <ele>1032</ele>
        <time>2021-06-19T15:08:44Z</time>
      </trkpt>
      <trkpt lat="42.61923" lon="1.25022">
        <ele>1035</ele>
        <time>2021-06-19T15:08:48Z</time>
      </trkpt>
      <trkpt lat="42.61905" lon="1.25057">
        <ele>1037</ele>
        <time>2021-06-19T15:08:55Z</time>
      </trkpt>
      <trkpt lat="42.61892" lon="1.25152">
        <ele>1049</ele>
        <time>2021-06-19T15:09:12Z</time>
      </trkpt>
      <trkpt lat="42.61885" lon="1.25171">
        <ele>1052</ele>
        <time>2021-06-19T15:09:16Z</time>
      </trkpt>
      <trkpt lat="42.61876" lon="1.25188">
        <ele>1055</ele>
        <time>2021-06-19T15:09:19Z</time>
      </trkpt>
      <trkpt lat="42.61863" lon="1.25205">
        <ele>1057</ele>
        <time>2021-06-19T15:09:23Z</time>
      </trkpt>
      <trkpt lat="42.61831" lon="1.25239">
        <ele>1057</ele>
        <time>2021-06-19T15:09:33Z</time>
      </trkpt>
      <trkpt lat="42.61815" lon="1.25262">
        <ele>1063</ele>
        <time>2021-06-19T15:09:38Z</time>
      </trkpt>
      <trkpt lat="42.61795" lon="1.25282">
        <ele>1066</ele>
        <time>2021-06-19T15:09:44Z</time>
      </trkpt>
      <trkpt lat="42.61714" lon="1.25323">
        <ele>1068</ele>
        <time>2021-06-19T15:10:04Z</time>
      </trkpt>
      <trkpt lat="42.61696" lon="1.25341">
        <ele>1070</ele>
        <time>2021-06-19T15:10:10Z</time>
      </trkpt>
      <trkpt lat="42.61686" lon="1.25368">
        <ele>1075</ele>
        <time>2021-06-19T15:10:15Z</time>
      </trkpt>
      <trkpt lat="42.61674" lon="1.2539">
        <ele>1078</ele>
        <time>2021-06-19T15:10:20Z</time>
      </trkpt>
      <trkpt lat="42.61623" lon="1.25412">
        <ele>1080</ele>
        <time>2021-06-19T15:10:32Z</time>
      </trkpt>
      <trkpt lat="42.61609" lon="1.25423">
        <ele>1081</ele>
        <time>2021-06-19T15:10:36Z</time>
      </trkpt>
      <trkpt lat="42.61569" lon="1.25481">
        <ele>1089</ele>
        <time>2021-06-19T15:10:49Z</time>
      </trkpt>
      <trkpt lat="42.61569" lon="1.25494">
        <ele>1091</ele>
        <time>2021-06-19T15:10:52Z</time>
      </trkpt>
      <trkpt lat="42.61575" lon="1.25502">
        <ele>1093</ele>
        <time>2021-06-19T15:10:54Z</time>
      </trkpt>
      <trkpt lat="42.6161" lon="1.25502">
        <ele>1094</ele>
        <time>2021-06-19T15:11:02Z</time>
      </trkpt>
      <trkpt lat="42.61623" lon="1.25505">
        <ele>1095</ele>
        <time>2021-06-19T15:11:05Z</time>
      </trkpt>
      <trkpt lat="42.61639" lon="1.25519">
        <ele>1097</ele>
        <time>2021-06-19T15:11:09Z</time>
      </trkpt>
      <trkpt lat="42.61668" lon="1.25532">
        <ele>1101</ele>
        <time>2021-06-19T15:11:16Z</time>
      </trkpt>
      <trkpt lat="42.61711" lon="1.25536">
        <ele>1110</ele>
        <time>2021-06-19T15:11:27Z</time>
      </trkpt>
      <trkpt lat="42.61719" lon="1.25545">
        <ele>1113</ele>
        <time>2021-06-19T15:11:29Z</time>
      </trkpt>
      <trkpt lat="42.61718" lon="1.25558">
        <ele>1116</ele>
        <time>2021-06-19T15:11:31Z</time>
      </trkpt>
      <trkpt lat="42.61626" lon="1.2566">
        <ele>1123</ele>
        <time>2021-06-19T15:11:59Z</time>
      </trkpt>
      <trkpt lat="42.61527" lon="1.25781">
        <ele>1141</ele>
        <time>2021-06-19T15:12:30Z</time>
      </trkpt>
      <trkpt lat="42.61504" lon="1.25804">
        <ele>1142</ele>
        <time>2021-06-19T15:12:37Z</time>
      </trkpt>
      <trkpt lat="42.61491" lon="1.2583">
        <ele>1146</ele>
        <time>2021-06-19T15:12:42Z</time>
      </trkpt>
      <trkpt lat="42.61472" lon="1.25849">
        <ele>1149</ele>
        <time>2021-06-19T15:12:48Z</time>
      </trkpt>
      <trkpt lat="42.61474" lon="1.25857">
        <ele>1151</ele>
        <time>2021-06-19T15:12:49Z</time>
      </trkpt>
      <trkpt lat="42.61481" lon="1.25862">
        <ele>1153</ele>
        <time>2021-06-19T15:12:51Z</time>
      </trkpt>
      <trkpt lat="42.61492" lon="1.25858">
        <ele>1154</ele>
        <time>2021-06-19T15:12:54Z</time>
      </trkpt>
      <trkpt lat="42.61508" lon="1.25846">
        <ele>1154</ele>
        <time>2021-06-19T15:12:58Z</time>
      </trkpt>
      <trkpt lat="42.61516" lon="1.25844">
        <ele>1156</ele>
        <time>2021-06-19T15:13:00Z</time>
      </trkpt>
      <trkpt lat="42.6152" lon="1.25852">
        <ele>1160</ele>
        <time>2021-06-19T15:13:01Z</time>
      </trkpt>
      <trkpt lat="42.61516" lon="1.25864">
        <ele>1163</ele>
        <time>2021-06-19T15:13:04Z</time>
      </trkpt>
      <trkpt lat="42.61506" lon="1.25879">
        <ele>1164</ele>
        <time>2021-06-19T15:13:07Z</time>
      </trkpt>
      <trkpt lat="42.61492" lon="1.25887">
        <ele>1163</ele>
        <time>2021-06-19T15:13:11Z</time>
      </trkpt>
      <trkpt lat="42.61478" lon="1.25899">
        <ele>1163</ele>
        <time>2021-06-19T15:13:15Z</time>
      </trkpt>
      <trkpt lat="42.61456" lon="1.25934">
        <ele>1168</ele>
        <time>2021-06-19T15:13:22Z</time>
      </trkpt>
      <trkpt lat="42.61425" lon="1.25992">
        <ele>1178</ele>
        <time>2021-06-19T15:13:35Z</time>
      </trkpt>
      <trkpt lat="42.61409" lon="1.26003">
        <ele>1179</ele>
        <time>2021-06-19T15:13:39Z</time>
      </trkpt>
      <trkpt lat="42.6139" lon="1.26021">
        <ele>1184</ele>
        <time>2021-06-19T15:13:44Z</time>
      </trkpt>
      <trkpt lat="42.61333" lon="1.26027">
        <ele>1183</ele>
        <time>2021-06-19T15:13:58Z</time>
      </trkpt>
      <trkpt lat="42.61305" lon="1.26049">
        <ele>1191</ele>
        <time>2021-06-19T15:14:05Z</time>
      </trkpt>
      <trkpt lat="42.61275" lon="1.26062">
        <ele>1194</ele>
        <time>2021-06-19T15:14:13Z</time>
      </trkpt>
      <trkpt lat="42.61273" lon="1.2607">
        <ele>1195</ele>
        <time>2021-06-19T15:14:14Z</time>
      </trkpt>
      <trkpt lat="42.61276" lon="1.26078">
        <ele>1197</ele>
        <time>2021-06-19T15:14:16Z</time>
      </trkpt>
      <trkpt lat="42.61284" lon="1.26079">
        <ele>1198</ele>
        <time>2021-06-19T15:14:18Z</time>
      </trkpt>
      <trkpt lat="42.61312" lon="1.26061">
        <ele>1195</ele>
        <time>2021-06-19T15:14:25Z</time>
      </trkpt>
      <trkpt lat="42.6133" lon="1.26055">
        <ele>1193</ele>
        <time>2021-06-19T15:14:29Z</time>
      </trkpt>
      <trkpt lat="42.61352" lon="1.26055">
        <ele>1194</ele>
        <time>2021-06-19T15:14:34Z</time>
      </trkpt>
      <trkpt lat="42.61397" lon="1.26069">
        <ele>1204</ele>
        <time>2021-06-19T15:14:45Z</time>
      </trkpt>
      <trkpt lat="42.61416" lon="1.26062">
        <ele>1202</ele>
        <time>2021-06-19T15:14:50Z</time>
      </trkpt>
      <trkpt lat="42.61445" lon="1.26046">
        <ele>1205</ele>
        <time>2021-06-19T15:14:57Z</time>
      </trkpt>
      <trkpt lat="42.61482" lon="1.2603">
        <ele>1211</ele>
        <time>2021-06-19T15:15:06Z</time>
      </trkpt>
      <trkpt lat="42.61491" lon="1.2603">
        <ele>1214</ele>
        <time>2021-06-19T15:15:08Z</time>
      </trkpt>
      <trkpt lat="42.61493" lon="1.26041">
        <ele>1219</ele>
        <time>2021-06-19T15:15:10Z</time>
      </trkpt>
      <trkpt lat="42.61488" lon="1.2605">
        <ele>1220</ele>
        <time>2021-06-19T15:15:12Z</time>
      </trkpt>
      <trkpt lat="42.61465" lon="1.26072">
        <ele>1220</ele>
        <time>2021-06-19T15:15:19Z</time>
      </trkpt>
      <trkpt lat="42.61424" lon="1.26105">
        <ele>1220</ele>
        <time>2021-06-19T15:15:30Z</time>
      </trkpt>
      <trkpt lat="42.61394" lon="1.26121">
        <ele>1221</ele>
        <time>2021-06-19T15:15:37Z</time>
      </trkpt>
      <trkpt lat="42.61356" lon="1.26134">
        <ele>1221</ele>
        <time>2021-06-19T15:15:46Z</time>
      </trkpt>
      <trkpt lat="42.61342" lon="1.26152">
        <ele>1225</ele>
        <time>2021-06-19T15:15:51Z</time>
      </trkpt>
      <trkpt lat="42.61282" lon="1.26319">
        <ele>1251</ele>
        <time>2021-06-19T15:16:23Z</time>
      </trkpt>
      <trkpt lat="42.61282" lon="1.26338">
        <ele>1254</ele>
        <time>2021-06-19T15:16:26Z</time>
      </trkpt>
      <trkpt lat="42.61287" lon="1.26361">
        <ele>1260</ele>
        <time>2021-06-19T15:16:30Z</time>
      </trkpt>
      <trkpt lat="42.61304" lon="1.26399">
        <ele>1270</ele>
        <time>2021-06-19T15:16:38Z</time>
      </trkpt>
      <trkpt lat="42.61308" lon="1.26394">
        <ele>1270</ele>
        <time>2021-06-19T15:16:39Z</time>
      </trkpt>
      <trkpt lat="42.61308" lon="1.26386">
        <ele>1269</ele>
        <time>2021-06-19T15:16:40Z</time>
      </trkpt>
      <trkpt lat="42.61299" lon="1.26351">
        <ele>1261</ele>
        <time>2021-06-19T15:16:47Z</time>
      </trkpt>
      <trkpt lat="42.61301" lon="1.26329">
        <ele>1258</ele>
        <time>2021-06-19T15:16:51Z</time>
      </trkpt>
      <trkpt lat="42.61312" lon="1.263">
        <ele>1256</ele>
        <time>2021-06-19T15:16:56Z</time>
      </trkpt>
      <trkpt lat="42.61322" lon="1.26287">
        <ele>1256</ele>
        <time>2021-06-19T15:16:59Z</time>
      </trkpt>
      <trkpt lat="42.61349" lon="1.26276">
        <ele>1260</ele>
        <time>2021-06-19T15:17:06Z</time>
      </trkpt>
      <trkpt lat="42.61397" lon="1.26276">
        <ele>1270</ele>
        <time>2021-06-19T15:17:17Z</time>
      </trkpt>
      <trkpt lat="42.614" lon="1.26284">
        <ele>1272</ele>
        <time>2021-06-19T15:17:19Z</time>
      </trkpt>
      <trkpt lat="42.61394" lon="1.26293">
        <ele>1273</ele>
        <time>2021-06-19T15:17:21Z</time>
      </trkpt>
      <trkpt lat="42.61375" lon="1.26307">
        <ele>1273</ele>
        <time>2021-06-19T15:17:26Z</time>
      </trkpt>
      <trkpt lat="42.61363" lon="1.26325">
        <ele>1274</ele>
        <time>2021-06-19T15:17:30Z</time>
      </trkpt>
      <trkpt lat="42.61348" lon="1.26369">
        <ele>1277</ele>
        <time>2021-06-19T15:17:38Z</time>
      </trkpt>
      <trkpt lat="42.61353" lon="1.26376">
        <ele>1279</ele>
        <time>2021-06-19T15:17:40Z</time>
      </trkpt>
      <trkpt lat="42.61366" lon="1.26353">
        <ele>1279</ele>
        <time>2021-06-19T15:17:45Z</time>
      </trkpt>
      <trkpt lat="42.61377" lon="1.26341">
        <ele>1281</ele>
        <time>2021-06-19T15:17:48Z</time>
      </trkpt>
      <trkpt lat="42.61426" lon="1.26313">
        <ele>1287</ele>
        <time>2021-06-19T15:18:01Z</time>
      </trkpt>
      <trkpt lat="42.61441" lon="1.26309">
        <ele>1290</ele>
        <time>2021-06-19T15:18:04Z</time>
      </trkpt>
      <trkpt lat="42.61445" lon="1.26316">
        <ele>1294</ele>
        <time>2021-06-19T15:18:06Z</time>
      </trkpt>
      <trkpt lat="42.61443" lon="1.26327">
        <ele>1296</ele>
        <time>2021-06-19T15:18:08Z</time>
      </trkpt>
      <trkpt lat="42.61407" lon="1.26382">
        <ele>1294</ele>
        <time>2021-06-19T15:18:21Z</time>
      </trkpt>
      <trkpt lat="42.61398" lon="1.26402">
        <ele>1294</ele>
        <time>2021-06-19T15:18:25Z</time>
      </trkpt>
      <trkpt lat="42.61394" lon="1.26426">
        <ele>1297</ele>
        <time>2021-06-19T15:18:29Z</time>
      </trkpt>
      <trkpt lat="42.61398" lon="1.26447">
        <ele>1301</ele>
        <time>2021-06-19T15:18:33Z</time>
      </trkpt>
      <trkpt lat="42.61423" lon="1.26479">
        <ele>1313</ele>
        <time>2021-06-19T15:18:41Z</time>
      </trkpt>
      <trkpt lat="42.61432" lon="1.26501">
        <ele>1319</ele>
        <time>2021-06-19T15:18:45Z</time>
      </trkpt>
      <trkpt lat="42.61441" lon="1.26547">
        <ele>1330</ele>
        <time>2021-06-19T15:18:53Z</time>
      </trkpt>
      <trkpt lat="42.61438" lon="1.26564">
        <ele>1331</ele>
        <time>2021-06-19T15:18:56Z</time>
      </trkpt>
      <trkpt lat="42.61426" lon="1.26564">
        <ele>1328</ele>
        <time>2021-06-19T15:18:59Z</time>
      </trkpt>
      <trkpt lat="42.61402" lon="1.26541">
        <ele>1319</ele>
        <time>2021-06-19T15:19:06Z</time>
      </trkpt>
      <trkpt lat="42.61349" lon="1.26599">
        <ele>1327</ele>
        <time>2021-06-19T15:19:22Z</time>
      </trkpt>
      <trkpt lat="42.61322" lon="1.26637">
        <ele>1331</ele>
        <time>2021-06-19T15:19:31Z</time>
      </trkpt>
      <trkpt lat="42.61318" lon="1.26649">
        <ele>1332</ele>
        <time>2021-06-19T15:19:33Z</time>
      </trkpt>
      <trkpt lat="42.61293" lon="1.26694">
        <ele>1333</ele>
        <time>2021-06-19T15:19:43Z</time>
      </trkpt>
      <trkpt lat="42.61269" lon="1.2677">
        <ele>1340</ele>
        <time>2021-06-19T15:19:57Z</time>
      </trkpt>
      <trkpt lat="42.61271" lon="1.26782">
        <ele>1343</ele>
        <time>2021-06-19T15:19:59Z</time>
      </trkpt>
      <trkpt lat="42.61279" lon="1.26784">
        <ele>1347</ele>
        <time>2021-06-19T15:20:01Z</time>
      </trkpt>
      <trkpt lat="42.61309" lon="1.26758">
        <ele>1350</ele>
        <time>2021-06-19T15:20:09Z</time>
      </trkpt>
      <trkpt lat="42.61332" lon="1.26744">
        <ele>1354</ele>
        <time>2021-06-19T15:20:15Z</time>
      </trkpt>
      <trkpt lat="42.61372" lon="1.26729">
        <ele>1361</ele>
        <time>2021-06-19T15:20:25Z</time>
      </trkpt>
      <trkpt lat="42.61389" lon="1.26708">
        <ele>1359</ele>
        <time>2021-06-19T15:20:30Z</time>
      </trkpt>
      <trkpt lat="42.61396" lon="1.2671">
        <ele>1361</ele>
        <time>2021-06-19T15:20:32Z</time>
      </trkpt>
      <trkpt lat="42.61398" lon="1.26716">
        <ele>1363</ele>
        <time>2021-06-19T15:20:33Z</time>
      </trkpt>
      <trkpt lat="42.61394" lon="1.26727">
        <ele>1365</ele>
        <time>2021-06-19T15:20:35Z</time>
      </trkpt>
      <trkpt lat="42.61372" lon="1.26755">
        <ele>1367</ele>
        <time>2021-06-19T15:20:42Z</time>
      </trkpt>
      <trkpt lat="42.61349" lon="1.26806">
        <ele>1376</ele>
        <time>2021-06-19T15:20:52Z</time>
      </trkpt>
      <trkpt lat="42.6131" lon="1.26879">
        <ele>1386</ele>
        <time>2021-06-19T15:21:08Z</time>
      </trkpt>
      <trkpt lat="42.61301" lon="1.26892">
        <ele>1387</ele>
        <time>2021-06-19T15:21:11Z</time>
      </trkpt>
      <trkpt lat="42.61276" lon="1.26912">
        <ele>1386</ele>
        <time>2021-06-19T15:21:18Z</time>
      </trkpt>
      <trkpt lat="42.6127" lon="1.26925">
        <ele>1388</ele>
        <time>2021-06-19T15:21:20Z</time>
      </trkpt>
      <trkpt lat="42.61277" lon="1.26931">
        <ele>1392</ele>
        <time>2021-06-19T15:21:22Z</time>
      </trkpt>
      <trkpt lat="42.61328" lon="1.26913">
        <ele>1403</ele>
        <time>2021-06-19T15:21:35Z</time>
      </trkpt>
      <trkpt lat="42.61366" lon="1.26895">
        <ele>1408</ele>
        <time>2021-06-19T15:21:44Z</time>
      </trkpt>
      <trkpt lat="42.61403" lon="1.26872">
        <ele>1412</ele>
        <time>2021-06-19T15:21:53Z</time>
      </trkpt>
      <trkpt lat="42.6141" lon="1.26871">
        <ele>1414</ele>
        <time>2021-06-19T15:21:55Z</time>
      </trkpt>
      <trkpt lat="42.61411" lon="1.2688">
        <ele>1417</ele>
        <time>2021-06-19T15:21:57Z</time>
      </trkpt>
      <trkpt lat="42.61381" lon="1.26927">
        <ele>1423</ele>
        <time>2021-06-19T15:22:07Z</time>
      </trkpt>
      <trkpt lat="42.61351" lon="1.26985">
        <ele>1431</ele>
        <time>2021-06-19T15:22:20Z</time>
      </trkpt>
      <trkpt lat="42.61324" lon="1.27025">
        <ele>1435</ele>
        <time>2021-06-19T15:22:29Z</time>
      </trkpt>
      <trkpt lat="42.61276" lon="1.27071">
        <ele>1428</ele>
        <time>2021-06-19T15:22:43Z</time>
      </trkpt>
      <trkpt lat="42.61281" lon="1.2708">
        <ele>1432</ele>
        <time>2021-06-19T15:22:45Z</time>
      </trkpt>
      <trkpt lat="42.61302" lon="1.27076">
        <ele>1439</ele>
        <time>2021-06-19T15:22:49Z</time>
      </trkpt>
      <trkpt lat="42.61351" lon="1.27066">
        <ele>1454</ele>
        <time>2021-06-19T15:23:01Z</time>
      </trkpt>
      <trkpt lat="42.61383" lon="1.27048">
        <ele>1459</ele>
        <time>2021-06-19T15:23:09Z</time>
      </trkpt>
      <trkpt lat="42.6139" lon="1.27048">
        <ele>1461</ele>
        <time>2021-06-19T15:23:11Z</time>
      </trkpt>
      <trkpt lat="42.6139" lon="1.27059">
        <ele>1465</ele>
        <time>2021-06-19T15:23:13Z</time>
      </trkpt>
      <trkpt lat="42.6137" lon="1.27091">
        <ele>1467</ele>
        <time>2021-06-19T15:23:20Z</time>
      </trkpt>
      <trkpt lat="42.61337" lon="1.27135">
        <ele>1465</ele>
        <time>2021-06-19T15:23:31Z</time>
      </trkpt>
      <trkpt lat="42.61317" lon="1.27166">
        <ele>1463</ele>
        <time>2021-06-19T15:23:38Z</time>
      </trkpt>
      <trkpt lat="42.61322" lon="1.2721">
        <ele>1466</ele>
        <time>2021-06-19T15:23:45Z</time>
      </trkpt>
      <trkpt lat="42.61337" lon="1.27251">
        <ele>1474</ele>
        <time>2021-06-19T15:23:53Z</time>
      </trkpt>
      <trkpt lat="42.61351" lon="1.27306">
        <ele>1483</ele>
        <time>2021-06-19T15:24:03Z</time>
      </trkpt>
      <trkpt lat="42.61355" lon="1.27307">
        <ele>1486</ele>
        <time>2021-06-19T15:24:04Z</time>
      </trkpt>
      <trkpt lat="42.61356" lon="1.27356">
        <ele>1489</ele>
        <time>2021-06-19T15:24:13Z</time>
      </trkpt>
      <trkpt lat="42.6135" lon="1.27404">
        <ele>1489</ele>
        <time>2021-06-19T15:24:21Z</time>
      </trkpt>
      <trkpt lat="42.61355" lon="1.27434">
        <ele>1493</ele>
        <time>2021-06-19T15:24:26Z</time>
      </trkpt>
      <trkpt lat="42.61369" lon="1.27468">
        <ele>1502</ele>
        <time>2021-06-19T15:24:33Z</time>
      </trkpt>
      <trkpt lat="42.6138" lon="1.27504">
        <ele>1509</ele>
        <time>2021-06-19T15:24:40Z</time>
      </trkpt>
      <trkpt lat="42.6138" lon="1.27607">
        <ele>1516</ele>
        <time>2021-06-19T15:24:57Z</time>
      </trkpt>
      <trkpt lat="42.61368" lon="1.27675">
        <ele>1517</ele>
        <time>2021-06-19T15:25:09Z</time>
      </trkpt>
      <trkpt lat="42.61347" lon="1.27723">
        <ele>1516</ele>
        <time>2021-06-19T15:25:19Z</time>
      </trkpt>
      <trkpt lat="42.61343" lon="1.27789">
        <ele>1522</ele>
        <time>2021-06-19T15:25:30Z</time>
      </trkpt>
      <trkpt lat="42.61357" lon="1.27822">
        <ele>1529</ele>
        <time>2021-06-19T15:25:37Z</time>
      </trkpt>
      <trkpt lat="42.61375" lon="1.27841">
        <ele>1538</ele>
        <time>2021-06-19T15:25:42Z</time>
      </trkpt>
      <trkpt lat="42.61388" lon="1.27907">
        <ele>1547</ele>
        <time>2021-06-19T15:25:54Z</time>
      </trkpt>
      <trkpt lat="42.61371" lon="1.27919">
        <ele>1543</ele>
        <time>2021-06-19T15:25:58Z</time>
      </trkpt>
      <trkpt lat="42.61327" lon="1.27995">
        <ele>1552</ele>
        <time>2021-06-19T15:26:15Z</time>
      </trkpt>
      <trkpt lat="42.6131" lon="1.2798">
        <ele>1550</ele>
        <time>2021-06-19T15:26:20Z</time>
      </trkpt>
      <trkpt lat="42.61296" lon="1.27945">
        <ele>1542</ele>
        <time>2021-06-19T15:26:27Z</time>
      </trkpt>
      <trkpt lat="42.61276" lon="1.27933">
        <ele>1540</ele>
        <time>2021-06-19T15:26:32Z</time>
      </trkpt>
      <trkpt lat="42.61252" lon="1.27947">
        <ele>1546</ele>
        <time>2021-06-19T15:26:38Z</time>
      </trkpt>
      <trkpt lat="42.61186" lon="1.27931">
        <ele>1554</ele>
        <time>2021-06-19T15:26:54Z</time>
      </trkpt>
      <trkpt lat="42.61152" lon="1.27899">
        <ele>1558</ele>
        <time>2021-06-19T15:27:03Z</time>
      </trkpt>
      <trkpt lat="42.61121" lon="1.27846">
        <ele>1566</ele>
        <time>2021-06-19T15:27:15Z</time>
      </trkpt>
      <trkpt lat="42.61117" lon="1.27798">
        <ele>1566</ele>
        <time>2021-06-19T15:27:23Z</time>
      </trkpt>
      <trkpt lat="42.61108" lon="1.27736">
        <ele>1565</ele>
        <time>2021-06-19T15:27:34Z</time>
      </trkpt>
      <trkpt lat="42.61086" lon="1.27702">
        <ele>1570</ele>
        <time>2021-06-19T15:27:42Z</time>
      </trkpt>
      <trkpt lat="42.61065" lon="1.27688">
        <ele>1575</ele>
        <time>2021-06-19T15:27:47Z</time>
      </trkpt>
      <trkpt lat="42.60926" lon="1.27569">
        <ele>1591</ele>
        <time>2021-06-19T15:28:26Z</time>
      </trkpt>
      <trkpt lat="42.6087" lon="1.27526">
        <ele>1592</ele>
        <time>2021-06-19T15:28:41Z</time>
      </trkpt>
      <trkpt lat="42.60841" lon="1.27531">
        <ele>1605</ele>
        <time>2021-06-19T15:28:47Z</time>
      </trkpt>
      <trkpt lat="42.60792" lon="1.27508">
        <ele>1603</ele>
        <time>2021-06-19T15:29:00Z</time>
      </trkpt>
      <trkpt lat="42.6076" lon="1.27505">
        <ele>1608</ele>
        <time>2021-06-19T15:29:07Z</time>
      </trkpt>
      <trkpt lat="42.6072" lon="1.27519">
        <ele>1622</ele>
        <time>2021-06-19T15:29:17Z</time>
      </trkpt>
      <trkpt lat="42.60626" lon="1.2746">
        <ele>1634</ele>
        <time>2021-06-19T15:29:41Z</time>
      </trkpt>
      <trkpt lat="42.60603" lon="1.27406">
        <ele>1636</ele>
        <time>2021-06-19T15:29:52Z</time>
      </trkpt>
      <trkpt lat="42.60597" lon="1.2729">
        <ele>1638</ele>
        <time>2021-06-19T15:30:12Z</time>
      </trkpt>
      <trkpt lat="42.60584" lon="1.27206">
        <ele>1643</ele>
        <time>2021-06-19T15:30:26Z</time>
      </trkpt>
      <trkpt lat="42.60558" lon="1.27113">
        <ele>1651</ele>
        <time>2021-06-19T15:30:43Z</time>
      </trkpt>
      <trkpt lat="42.60532" lon="1.2699">
        <ele>1657</ele>
        <time>2021-06-19T15:31:05Z</time>
      </trkpt>
      <trkpt lat="42.60496" lon="1.26937">
        <ele>1674</ele>
        <time>2021-06-19T15:31:18Z</time>
      </trkpt>
      <trkpt lat="42.60487" lon="1.26912">
        <ele>1676</ele>
        <time>2021-06-19T15:31:23Z</time>
      </trkpt>
      <trkpt lat="42.60489" lon="1.26851">
        <ele>1676</ele>
        <time>2021-06-19T15:31:33Z</time>
      </trkpt>
      <trkpt lat="42.60469" lon="1.26587">
        <ele>1688</ele>
        <time>2021-06-19T15:32:19Z</time>
      </trkpt>
      <trkpt lat="42.60465" lon="1.26374">
        <ele>1698</ele>
        <time>2021-06-19T15:32:55Z</time>
      </trkpt>
      <trkpt lat="42.60454" lon="1.26376">
        <ele>1700</ele>
        <time>2021-06-19T15:32:58Z</time>
      </trkpt>
      <trkpt lat="42.60449" lon="1.26428">
        <ele>1700</ele>
        <time>2021-06-19T15:33:07Z</time>
      </trkpt>
      <trkpt lat="42.60435" lon="1.26484">
        <ele>1704</ele>
        <time>2021-06-19T15:33:17Z</time>
      </trkpt>
      <trkpt lat="42.60413" lon="1.26548">
        <ele>1708</ele>
        <time>2021-06-19T15:33:29Z</time>
      </trkpt>
      <trkpt lat="42.60392" lon="1.26644">
        <ele>1706</ele>
        <time>2021-06-19T15:33:46Z</time>
      </trkpt>
      <trkpt lat="42.60381" lon="1.26717">
        <ele>1710</ele>
        <time>2021-06-19T15:33:59Z</time>
      </trkpt>
      <trkpt lat="42.60362" lon="1.26791">
        <ele>1720</ele>
        <time>2021-06-19T15:34:13Z</time>
      </trkpt>
      <trkpt lat="42.60347" lon="1.26889">
        <ele>1737</ele>
        <time>2021-06-19T15:34:30Z</time>
      </trkpt>
      <trkpt lat="42.60323" lon="1.27198">
        <ele>1761</ele>
        <time>2021-06-19T15:35:23Z</time>
      </trkpt>
      <trkpt lat="42.6032" lon="1.2727">
        <ele>1764</ele>
        <time>2021-06-19T15:35:36Z</time>
      </trkpt>
      <trkpt lat="42.60298" lon="1.27435">
        <ele>1777</ele>
        <time>2021-06-19T15:36:05Z</time>
      </trkpt>
      <trkpt lat="42.60329" lon="1.27592">
        <ele>1786</ele>
        <time>2021-06-19T15:36:33Z</time>
      </trkpt>
      <trkpt lat="42.60335" lon="1.27609">
        <ele>1787</ele>
        <time>2021-06-19T15:36:36Z</time>
      </trkpt>
      <trkpt lat="42.6036" lon="1.27663">
        <ele>1789</ele>
        <time>2021-06-19T15:36:47Z</time>
      </trkpt>
      <trkpt lat="42.60386" lon="1.27694">
        <ele>1787</ele>
        <time>2021-06-19T15:36:55Z</time>
      </trkpt>
      <trkpt lat="42.60403" lon="1.27724">
        <ele>1789</ele>
        <time>2021-06-19T15:37:01Z</time>
      </trkpt>
      <trkpt lat="42.60433" lon="1.27798">
        <ele>1801</ele>
        <time>2021-06-19T15:37:16Z</time>
      </trkpt>
      <trkpt lat="42.60464" lon="1.27841">
        <ele>1807</ele>
        <time>2021-06-19T15:37:26Z</time>
      </trkpt>
      <trkpt lat="42.60552" lon="1.27895">
        <ele>1806</ele>
        <time>2021-06-19T15:37:49Z</time>
      </trkpt>
      <trkpt lat="42.60581" lon="1.27905">
        <ele>1802</ele>
        <time>2021-06-19T15:37:56Z</time>
      </trkpt>
      <trkpt lat="42.60597" lon="1.27918">
        <ele>1799</ele>
        <time>2021-06-19T15:38:00Z</time>
      </trkpt>
      <trkpt lat="42.60598" lon="1.27927">
        <ele>1799</ele>
        <time>2021-06-19T15:38:02Z</time>
      </trkpt>
      <trkpt lat="42.60582" lon="1.27969">
        <ele>1809</ele>
        <time>2021-06-19T15:38:10Z</time>
      </trkpt>
      <trkpt lat="42.60554" lon="1.28067">
        <ele>1827</ele>
        <time>2021-06-19T15:38:28Z</time>
      </trkpt>
      <trkpt lat="42.60546" lon="1.28114">
        <ele>1834</ele>
        <time>2021-06-19T15:38:36Z</time>
      </trkpt>
      <trkpt lat="42.60545" lon="1.28186">
        <ele>1840</ele>
        <time>2021-06-19T15:38:49Z</time>
      </trkpt>
      <trkpt lat="42.60562" lon="1.28226">
        <ele>1843</ele>
        <time>2021-06-19T15:38:56Z</time>
      </trkpt>
      <trkpt lat="42.60585" lon="1.28233">
        <ele>1837</ele>
        <time>2021-06-19T15:39:02Z</time>
      </trkpt>
      <trkpt lat="42.60683" lon="1.2829">
        <ele>1847</ele>
        <time>2021-06-19T15:39:27Z</time>
      </trkpt>
      <trkpt lat="42.60747" lon="1.2831">
        <ele>1851</ele>
        <time>2021-06-19T15:39:42Z</time>
      </trkpt>
      <trkpt lat="42.60797" lon="1.28354">
        <ele>1851</ele>
        <time>2021-06-19T15:39:56Z</time>
      </trkpt>
      <trkpt lat="42.60799" lon="1.28364">
        <ele>1853</ele>
        <time>2021-06-19T15:39:58Z</time>
      </trkpt>
      <trkpt lat="42.60794" lon="1.28363">
        <ele>1855</ele>
        <time>2021-06-19T15:39:59Z</time>
      </trkpt>
      <trkpt lat="42.60771" lon="1.28344">
        <ele>1858</ele>
        <time>2021-06-19T15:40:05Z</time>
      </trkpt>
      <trkpt lat="42.60733" lon="1.28339">
        <ele>1865</ele>
        <time>2021-06-19T15:40:14Z</time>
      </trkpt>
      <trkpt lat="42.60687" lon="1.28345">
        <ele>1871</ele>
        <time>2021-06-19T15:40:25Z</time>
      </trkpt>
      <trkpt lat="42.60658" lon="1.28337">
        <ele>1870</ele>
        <time>2021-06-19T15:40:32Z</time>
      </trkpt>
      <trkpt lat="42.60629" lon="1.28322">
        <ele>1869</ele>
        <time>2021-06-19T15:40:39Z</time>
      </trkpt>
      <trkpt lat="42.60596" lon="1.28315">
        <ele>1872</ele>
        <time>2021-06-19T15:40:47Z</time>
      </trkpt>
      <trkpt lat="42.60546" lon="1.28324">
        <ele>1887</ele>
        <time>2021-06-19T15:40:59Z</time>
      </trkpt>
      <trkpt lat="42.60531" lon="1.28339">
        <ele>1896</ele>
        <time>2021-06-19T15:41:03Z</time>
      </trkpt>
      <trkpt lat="42.60518" lon="1.28335">
        <ele>1897</ele>
        <time>2021-06-19T15:41:06Z</time>
      </trkpt>
      <trkpt lat="42.60499" lon="1.2832">
        <ele>1896</ele>
        <time>2021-06-19T15:41:11Z</time>
      </trkpt>
      <trkpt lat="42.60474" lon="1.28291">
        <ele>1898</ele>
        <time>2021-06-19T15:41:19Z</time>
      </trkpt>
      <trkpt lat="42.60459" lon="1.28268">
        <ele>1899</ele>
        <time>2021-06-19T15:41:24Z</time>
      </trkpt>
      <trkpt lat="42.60441" lon="1.28215">
        <ele>1901</ele>
        <time>2021-06-19T15:41:34Z</time>
      </trkpt>
      <trkpt lat="42.60414" lon="1.28065">
        <ele>1909</ele>
        <time>2021-06-19T15:42:01Z</time>
      </trkpt>
      <trkpt lat="42.604" lon="1.28047">
        <ele>1907</ele>
        <time>2021-06-19T15:42:05Z</time>
      </trkpt>
      <trkpt lat="42.60364" lon="1.2802">
        <ele>1908</ele>
        <time>2021-06-19T15:42:15Z</time>
      </trkpt>
      <trkpt lat="42.6035" lon="1.28">
        <ele>1908</ele>
        <time>2021-06-19T15:42:20Z</time>
      </trkpt>
      <trkpt lat="42.60343" lon="1.27997">
        <ele>1909</ele>
        <time>2021-06-19T15:42:22Z</time>
      </trkpt>
      <trkpt lat="42.60337" lon="1.2801">
        <ele>1912</ele>
        <time>2021-06-19T15:42:24Z</time>
      </trkpt>
      <trkpt lat="42.60335" lon="1.28033">
        <ele>1914</ele>
        <time>2021-06-19T15:42:28Z</time>
      </trkpt>
      <trkpt lat="42.60336" lon="1.28108">
        <ele>1921</ele>
        <time>2021-06-19T15:42:41Z</time>
      </trkpt>
      <trkpt lat="42.60328" lon="1.28143">
        <ele>1924</ele>
        <time>2021-06-19T15:42:47Z</time>
      </trkpt>
      <trkpt lat="42.6034" lon="1.28164">
        <ele>1926</ele>
        <time>2021-06-19T15:42:52Z</time>
      </trkpt>
      <trkpt lat="42.60332" lon="1.28204">
        <ele>1933</ele>
        <time>2021-06-19T15:42:59Z</time>
      </trkpt>
      <trkpt lat="42.60321" lon="1.28232">
        <ele>1935</ele>
        <time>2021-06-19T15:43:04Z</time>
      </trkpt>
      <trkpt lat="42.6031" lon="1.28249">
        <ele>1935</ele>
        <time>2021-06-19T15:43:08Z</time>
      </trkpt>
      <trkpt lat="42.6031" lon="1.28268">
        <ele>1938</ele>
        <time>2021-06-19T15:43:12Z</time>
      </trkpt>
      <trkpt lat="42.60301" lon="1.28292">
        <ele>1939</ele>
        <time>2021-06-19T15:43:16Z</time>
      </trkpt>
      <trkpt lat="42.60301" lon="1.28349">
        <ele>1950</ele>
        <time>2021-06-19T15:43:26Z</time>
      </trkpt>
      <trkpt lat="42.60299" lon="1.28373">
        <ele>1955</ele>
        <time>2021-06-19T15:43:30Z</time>
      </trkpt>
      <trkpt lat="42.60295" lon="1.28388">
        <ele>1957</ele>
        <time>2021-06-19T15:43:33Z</time>
      </trkpt>
      <trkpt lat="42.603" lon="1.28409">
        <ele>1963</ele>
        <time>2021-06-19T15:43:37Z</time>
      </trkpt>
      <trkpt lat="42.60298" lon="1.28417">
        <ele>1965</ele>
        <time>2021-06-19T15:43:38Z</time>
      </trkpt>
      <trkpt lat="42.60303" lon="1.28461">
        <ele>1976</ele>
        <time>2021-06-19T15:43:46Z</time>
      </trkpt>
      <trkpt lat="42.60295" lon="1.28479">
        <ele>1978</ele>
        <time>2021-06-19T15:43:49Z</time>
      </trkpt>
      <trkpt lat="42.60279" lon="1.28495">
        <ele>1976</ele>
        <time>2021-06-19T15:43:54Z</time>
      </trkpt>
      <trkpt lat="42.60249" lon="1.28573">
        <ele>1990</ele>
        <time>2021-06-19T15:44:09Z</time>
      </trkpt>
      <trkpt lat="42.60223" lon="1.2863">
        <ele>2000</ele>
        <time>2021-06-19T15:44:21Z</time>
      </trkpt>
      <trkpt lat="42.60215" lon="1.28654">
        <ele>2005</ele>
        <time>2021-06-19T15:44:25Z</time>
      </trkpt>
      <trkpt lat="42.60197" lon="1.2867">
        <ele>2005</ele>
        <time>2021-06-19T15:44:30Z</time>
      </trkpt>
      <trkpt lat="42.60177" lon="1.28703">
        <ele>2011</ele>
        <time>2021-06-19T15:44:38Z</time>
      </trkpt>
      <trkpt lat="42.60183" lon="1.28725">
        <ele>2022</ele>
        <time>2021-06-19T15:44:42Z</time>
      </trkpt>
      <trkpt lat="42.60157" lon="1.2874">
        <ele>2022</ele>
        <time>2021-06-19T15:44:48Z</time>
      </trkpt>
      <trkpt lat="42.60151" lon="1.28753">
        <ele>2026</ele>
        <time>2021-06-19T15:44:51Z</time>
      </trkpt>
      <trkpt lat="42.60157" lon="1.28754">
        <ele>2028</ele>
        <time>2021-06-19T15:44:52Z</time>
      </trkpt>
      <trkpt lat="42.60162" lon="1.2876">
        <ele>2030</ele>
        <time>2021-06-19T15:44:54Z</time>
      </trkpt>
      <trkpt lat="42.60154" lon="1.28787">
        <ele>2038</ele>
        <time>2021-06-19T15:44:59Z</time>
      </trkpt>
      <trkpt lat="42.60143" lon="1.28806">
        <ele>2042</ele>
        <time>2021-06-19T15:45:03Z</time>
      </trkpt>
      <trkpt lat="42.60143" lon="1.28817">
        <ele>2046</ele>
        <time>2021-06-19T15:45:05Z</time>
      </trkpt>
      <trkpt lat="42.6015" lon="1.28827">
        <ele>2050</ele>
        <time>2021-06-19T15:45:07Z</time>
      </trkpt>
      <trkpt lat="42.60161" lon="1.28858">
        <ele>2064</ele>
        <time>2021-06-19T15:45:13Z</time>
      </trkpt>
      <trkpt lat="42.60153" lon="1.28867">
        <ele>2067</ele>
        <time>2021-06-19T15:45:16Z</time>
      </trkpt>
      <trkpt lat="42.6014" lon="1.28871">
        <ele>2067</ele>
        <time>2021-06-19T15:45:19Z</time>
      </trkpt>
      <trkpt lat="42.60134" lon="1.28879">
        <ele>2070</ele>
        <time>2021-06-19T15:45:21Z</time>
      </trkpt>
      <trkpt lat="42.60154" lon="1.28895">
        <ele>2079</ele>
        <time>2021-06-19T15:45:26Z</time>
      </trkpt>
      <trkpt lat="42.60175" lon="1.28901">
        <ele>2085</ele>
        <time>2021-06-19T15:45:31Z</time>
      </trkpt>
      <trkpt lat="42.60174" lon="1.28909">
        <ele>2089</ele>
        <time>2021-06-19T15:45:33Z</time>
      </trkpt>
      <trkpt lat="42.60186" lon="1.28923">
        <ele>2097</ele>
        <time>2021-06-19T15:45:36Z</time>
      </trkpt>
      <trkpt lat="42.60182" lon="1.28927">
        <ele>2098</ele>
        <time>2021-06-19T15:45:37Z</time>
      </trkpt>
      <trkpt lat="42.60172" lon="1.28927">
        <ele>2096</ele>
        <time>2021-06-19T15:45:40Z</time>
      </trkpt>
      <trkpt lat="42.60081" lon="1.29029">
        <ele>2128</ele>
        <time>2021-06-19T15:46:07Z</time>
      </trkpt>
      <trkpt lat="42.60062" lon="1.29088">
        <ele>2153</ele>
        <time>2021-06-19T15:46:18Z</time>
      </trkpt>
      <trkpt lat="42.60056" lon="1.29093">
        <ele>2155</ele>
        <time>2021-06-19T15:46:20Z</time>
      </trkpt>
      <trkpt lat="42.60056" lon="1.291">
        <ele>2157</ele>
        <time>2021-06-19T15:46:21Z</time>
      </trkpt>
      <trkpt lat="42.60044" lon="1.29111">
        <ele>2160</ele>
        <time>2021-06-19T15:46:25Z</time>
      </trkpt>
      <trkpt lat="42.60034" lon="1.29137">
        <ele>2168</ele>
        <time>2021-06-19T15:46:30Z</time>
      </trkpt>
      <trkpt lat="42.6003" lon="1.29136">
        <ele>2167</ele>
        <time>2021-06-19T15:46:31Z</time>
      </trkpt>
      <trkpt lat="42.60019" lon="1.2915">
        <ele>2171</ele>
        <time>2021-06-19T15:46:34Z</time>
      </trkpt>
      <trkpt lat="42.60011" lon="1.29172">
        <ele>2177</ele>
        <time>2021-06-19T15:46:38Z</time>
      </trkpt>
      <trkpt lat="42.59982" lon="1.29227">
        <ele>2194</ele>
        <time>2021-06-19T15:46:50Z</time>
      </trkpt>
      <trkpt lat="42.5995" lon="1.29269">
        <ele>2206</ele>
        <time>2021-06-19T15:47:00Z</time>
      </trkpt>
      <trkpt lat="42.59918" lon="1.29284">
        <ele>2211</ele>
        <time>2021-06-19T15:47:08Z</time>
      </trkpt>
      <trkpt lat="42.59855" lon="1.29323">
        <ele>2222</ele>
        <time>2021-06-19T15:47:24Z</time>
      </trkpt>
      <trkpt lat="42.59777" lon="1.29358">
        <ele>2231</ele>
        <time>2021-06-19T15:47:44Z</time>
      </trkpt>
      <trkpt lat="42.59752" lon="1.29378">
        <ele>2235</ele>
        <time>2021-06-19T15:47:50Z</time>
      </trkpt>
      <trkpt lat="42.59733" lon="1.29406">
        <ele>2240</ele>
        <time>2021-06-19T15:47:57Z</time>
      </trkpt>
      <trkpt lat="42.59728" lon="1.29423">
        <ele>2242</ele>
        <time>2021-06-19T15:48:00Z</time>
      </trkpt>
      <trkpt lat="42.59725" lon="1.29463">
        <ele>2243</ele>
        <time>2021-06-19T15:48:07Z</time>
      </trkpt>
      <trkpt lat="42.59713" lon="1.29492">
        <ele>2246</ele>
        <time>2021-06-19T15:48:13Z</time>
      </trkpt>
      <trkpt lat="42.597" lon="1.29533">
        <ele>2242</ele>
        <time>2021-06-19T15:48:20Z</time>
      </trkpt>
      <trkpt lat="42.59691" lon="1.29555">
        <ele>2241</ele>
        <time>2021-06-19T15:48:25Z</time>
      </trkpt>
      <trkpt lat="42.59668" lon="1.29593">
        <ele>2239</ele>
        <time>2021-06-19T15:48:33Z</time>
      </trkpt>
      <trkpt lat="42.59644" lon="1.29626">
        <ele>2233</ele>
        <time>2021-06-19T15:48:41Z</time>
      </trkpt>
      <trkpt lat="42.59631" lon="1.29631">
        <ele>2234</ele>
        <time>2021-06-19T15:48:44Z</time>
      </trkpt>
      <trkpt lat="42.59596" lon="1.29674">
        <ele>2231</ele>
        <time>2021-06-19T15:48:55Z</time>
      </trkpt>
      <trkpt lat="42.59588" lon="1.29695">
        <ele>2226</ele>
        <time>2021-06-19T15:48:59Z</time>
      </trkpt>
      <trkpt lat="42.59569" lon="1.29712">
        <ele>2225</ele>
        <time>2021-06-19T15:49:05Z</time>
      </trkpt>
      <trkpt lat="42.59558" lon="1.29717">
        <ele>2225</ele>
        <time>2021-06-19T15:49:07Z</time>
      </trkpt>
      <trkpt lat="42.59521" lon="1.29769">
        <ele>2214</ele>
        <time>2021-06-19T15:49:20Z</time>
      </trkpt>
      <trkpt lat="42.5949" lon="1.29797">
        <ele>2209</ele>
        <time>2021-06-19T15:49:29Z</time>
      </trkpt>
      <trkpt lat="42.59438" lon="1.29859">
        <ele>2198</ele>
        <time>2021-06-19T15:49:45Z</time>
      </trkpt>
      <trkpt lat="42.59421" lon="1.29872">
        <ele>2197</ele>
        <time>2021-06-19T15:49:49Z</time>
      </trkpt>
      <trkpt lat="42.59347" lon="1.2997">
        <ele>2172</ele>
        <time>2021-06-19T15:50:13Z</time>
      </trkpt>
      <trkpt lat="42.5929" lon="1.30028">
        <ele>2141</ele>
        <time>2021-06-19T15:50:30Z</time>
      </trkpt>
      <trkpt lat="42.59269" lon="1.30014">
        <ele>2141</ele>
        <time>2021-06-19T15:50:35Z</time>
      </trkpt>
      <trkpt lat="42.59213" lon="1.29958">
        <ele>2144</ele>
        <time>2021-06-19T15:50:52Z</time>
      </trkpt>
      <trkpt lat="42.5917" lon="1.29928">
        <ele>2140</ele>
        <time>2021-06-19T15:51:03Z</time>
      </trkpt>
      <trkpt lat="42.59076" lon="1.29938">
        <ele>2126</ele>
        <time>2021-06-19T15:51:25Z</time>
      </trkpt>
      <trkpt lat="42.59127" lon="1.29984">
        <ele>2111</ele>
        <time>2021-06-19T15:51:39Z</time>
      </trkpt>
      <trkpt lat="42.59156" lon="1.30036">
        <ele>2095</ele>
        <time>2021-06-19T15:51:51Z</time>
      </trkpt>
      <trkpt lat="42.5917" lon="1.30051">
        <ele>2092</ele>
        <time>2021-06-19T15:51:55Z</time>
      </trkpt>
      <trkpt lat="42.59201" lon="1.30103">
        <ele>2086</ele>
        <time>2021-06-19T15:52:06Z</time>
      </trkpt>
      <trkpt lat="42.59218" lon="1.30121">
        <ele>2087</ele>
        <time>2021-06-19T15:52:11Z</time>
      </trkpt>
      <trkpt lat="42.59218" lon="1.30145">
        <ele>2081</ele>
        <time>2021-06-19T15:52:15Z</time>
      </trkpt>
      <trkpt lat="42.59209" lon="1.30156">
        <ele>2074</ele>
        <time>2021-06-19T15:52:18Z</time>
      </trkpt>
      <trkpt lat="42.59177" lon="1.30137">
        <ele>2066</ele>
        <time>2021-06-19T15:52:26Z</time>
      </trkpt>
      <trkpt lat="42.59169" lon="1.30203">
        <ele>2042</ele>
        <time>2021-06-19T15:52:38Z</time>
      </trkpt>
      <trkpt lat="42.5917" lon="1.30254">
        <ele>2028</ele>
        <time>2021-06-19T15:52:47Z</time>
      </trkpt>
      <trkpt lat="42.59168" lon="1.30282">
        <ele>2018</ele>
        <time>2021-06-19T15:52:51Z</time>
      </trkpt>
      <trkpt lat="42.59183" lon="1.30325">
        <ele>2013</ele>
        <time>2021-06-19T15:53:00Z</time>
      </trkpt>
      <trkpt lat="42.59184" lon="1.30344">
        <ele>2007</ele>
        <time>2021-06-19T15:53:03Z</time>
      </trkpt>
      <trkpt lat="42.59197" lon="1.30371">
        <ele>2004</ele>
        <time>2021-06-19T15:53:08Z</time>
      </trkpt>
      <trkpt lat="42.59219" lon="1.30431">
        <ele>1990</ele>
        <time>2021-06-19T15:53:20Z</time>
      </trkpt>
      <trkpt lat="42.59251" lon="1.30457">
        <ele>1989</ele>
        <time>2021-06-19T15:53:29Z</time>
      </trkpt>
      <trkpt lat="42.59229" lon="1.3047">
        <ele>1977</ele>
        <time>2021-06-19T15:53:34Z</time>
      </trkpt>
      <trkpt lat="42.59184" lon="1.30482">
        <ele>1958</ele>
        <time>2021-06-19T15:53:45Z</time>
      </trkpt>
      <trkpt lat="42.59192" lon="1.30511">
        <ele>1948</ele>
        <time>2021-06-19T15:53:50Z</time>
      </trkpt>
      <trkpt lat="42.59162" lon="1.30514">
        <ele>1938</ele>
        <time>2021-06-19T15:53:57Z</time>
      </trkpt>
      <trkpt lat="42.59139" lon="1.30507">
        <ele>1932</ele>
        <time>2021-06-19T15:54:03Z</time>
      </trkpt>
      <trkpt lat="42.59151" lon="1.30534">
        <ele>1926</ele>
        <time>2021-06-19T15:54:08Z</time>
      </trkpt>
      <trkpt lat="42.59132" lon="1.30537">
        <ele>1918</ele>
        <time>2021-06-19T15:54:13Z</time>
      </trkpt>
      <trkpt lat="42.59117" lon="1.30549">
        <ele>1909</ele>
        <time>2021-06-19T15:54:17Z</time>
      </trkpt>
      <trkpt lat="42.59127" lon="1.30572">
        <ele>1904</ele>
        <time>2021-06-19T15:54:21Z</time>
      </trkpt>
      <trkpt lat="42.59186" lon="1.30598">
        <ele>1908</ele>
        <time>2021-06-19T15:54:36Z</time>
      </trkpt>
      <trkpt lat="42.59183" lon="1.30619">
        <ele>1897</ele>
        <time>2021-06-19T15:54:40Z</time>
      </trkpt>
      <trkpt lat="42.59136" lon="1.30666">
        <ele>1868</ele>
        <time>2021-06-19T15:54:53Z</time>
      </trkpt>
      <trkpt lat="42.59175" lon="1.30673">
        <ele>1870</ele>
        <time>2021-06-19T15:55:02Z</time>
      </trkpt>
      <trkpt lat="42.59205" lon="1.30712">
        <ele>1857</ele>
        <time>2021-06-19T15:55:12Z</time>
      </trkpt>
      <trkpt lat="42.59199" lon="1.30747">
        <ele>1841</ele>
        <time>2021-06-19T15:55:18Z</time>
      </trkpt>
      <trkpt lat="42.59167" lon="1.30766">
        <ele>1829</ele>
        <time>2021-06-19T15:55:26Z</time>
      </trkpt>
      <trkpt lat="42.59211" lon="1.30797">
        <ele>1819</ele>
        <time>2021-06-19T15:55:38Z</time>
      </trkpt>
      <trkpt lat="42.59166" lon="1.3081">
        <ele>1808</ele>
        <time>2021-06-19T15:55:49Z</time>
      </trkpt>
      <trkpt lat="42.59134" lon="1.30849">
        <ele>1794</ele>
        <time>2021-06-19T15:55:59Z</time>
      </trkpt>
      <trkpt lat="42.59168" lon="1.30857">
        <ele>1786</ele>
        <time>2021-06-19T15:56:07Z</time>
      </trkpt>
      <trkpt lat="42.5914" lon="1.30917">
        <ele>1762</ele>
        <time>2021-06-19T15:56:19Z</time>
      </trkpt>
      <trkpt lat="42.5916" lon="1.30921">
        <ele>1757</ele>
        <time>2021-06-19T15:56:24Z</time>
      </trkpt>
      <trkpt lat="42.59135" lon="1.30958">
        <ele>1747</ele>
        <time>2021-06-19T15:56:32Z</time>
      </trkpt>
      <trkpt lat="42.59095" lon="1.30978">
        <ele>1743</ele>
        <time>2021-06-19T15:56:42Z</time>
      </trkpt>
      <trkpt lat="42.59055" lon="1.31012">
        <ele>1731</ele>
        <time>2021-06-19T15:56:53Z</time>
      </trkpt>
      <trkpt lat="42.59051" lon="1.31026">
        <ele>1728</ele>
        <time>2021-06-19T15:56:56Z</time>
      </trkpt>
      <trkpt lat="42.59052" lon="1.31033">
        <ele>1727</ele>
        <time>2021-06-19T15:56:57Z</time>
      </trkpt>
      <trkpt lat="42.59045" lon="1.31036">
        <ele>1726</ele>
        <time>2021-06-19T15:56:59Z</time>
      </trkpt>
      <trkpt lat="42.59047" lon="1.31054">
        <ele>1722</ele>
        <time>2021-06-19T15:57:02Z</time>
      </trkpt>
      <trkpt lat="42.59052" lon="1.31055">
        <ele>1722</ele>
        <time>2021-06-19T15:57:03Z</time>
      </trkpt>
      <trkpt lat="42.59059" lon="1.31074">
        <ele>1718</ele>
        <time>2021-06-19T15:57:07Z</time>
      </trkpt>
      <trkpt lat="42.59055" lon="1.31089">
        <ele>1715</ele>
        <time>2021-06-19T15:57:10Z</time>
      </trkpt>
      <trkpt lat="42.59023" lon="1.31105">
        <ele>1714</ele>
        <time>2021-06-19T15:57:18Z</time>
      </trkpt>
      <trkpt lat="42.59007" lon="1.31089">
        <ele>1717</ele>
        <time>2021-06-19T15:57:22Z</time>
      </trkpt>
      <trkpt lat="42.58999" lon="1.31092">
        <ele>1717</ele>
        <time>2021-06-19T15:57:24Z</time>
      </trkpt>
      <trkpt lat="42.5899" lon="1.31108">
        <ele>1717</ele>
        <time>2021-06-19T15:57:28Z</time>
      </trkpt>
      <trkpt lat="42.58973" lon="1.31113">
        <ele>1718</ele>
        <time>2021-06-19T15:57:32Z</time>
      </trkpt>
      <trkpt lat="42.58982" lon="1.31145">
        <ele>1714</ele>
        <time>2021-06-19T15:57:38Z</time>
      </trkpt>
      <trkpt lat="42.5905" lon="1.31281">
        <ele>1673</ele>
        <time>2021-06-19T15:58:06Z</time>
      </trkpt>
      <trkpt lat="42.59033" lon="1.3136">
        <ele>1664</ele>
        <time>2021-06-19T15:58:20Z</time>
      </trkpt>
      <trkpt lat="42.59052" lon="1.31352">
        <ele>1658</ele>
        <time>2021-06-19T15:58:25Z</time>
      </trkpt>
      <trkpt lat="42.59036" lon="1.31412">
        <ele>1649</ele>
        <time>2021-06-19T15:58:36Z</time>
      </trkpt>
      <trkpt lat="42.59041" lon="1.31423">
        <ele>1644</ele>
        <time>2021-06-19T15:58:38Z</time>
      </trkpt>
      <trkpt lat="42.59066" lon="1.31389">
        <ele>1642</ele>
        <time>2021-06-19T15:58:46Z</time>
      </trkpt>
      <trkpt lat="42.59071" lon="1.31387">
        <ele>1640</ele>
        <time>2021-06-19T15:58:47Z</time>
      </trkpt>
      <trkpt lat="42.59072" lon="1.31399">
        <ele>1637</ele>
        <time>2021-06-19T15:58:49Z</time>
      </trkpt>
      <trkpt lat="42.59079" lon="1.31406">
        <ele>1632</ele>
        <time>2021-06-19T15:58:51Z</time>
      </trkpt>
      <trkpt lat="42.59084" lon="1.31425">
        <ele>1624</ele>
        <time>2021-06-19T15:58:55Z</time>
      </trkpt>
      <trkpt lat="42.59043" lon="1.31514">
        <ele>1612</ele>
        <time>2021-06-19T15:59:13Z</time>
      </trkpt>
      <trkpt lat="42.59085" lon="1.31514">
        <ele>1595</ele>
        <time>2021-06-19T15:59:23Z</time>
      </trkpt>
      <trkpt lat="42.59122" lon="1.31536">
        <ele>1574</ele>
        <time>2021-06-19T15:59:32Z</time>
      </trkpt>
      <trkpt lat="42.59117" lon="1.31539">
        <ele>1575</ele>
        <time>2021-06-19T15:59:33Z</time>
      </trkpt>
      <trkpt lat="42.59138" lon="1.3156">
        <ele>1561</ele>
        <time>2021-06-19T15:59:40Z</time>
      </trkpt>
      <trkpt lat="42.59121" lon="1.31576">
        <ele>1561</ele>
        <time>2021-06-19T15:59:44Z</time>
      </trkpt>
      <trkpt lat="42.59154" lon="1.31594">
        <ele>1545</ele>
        <time>2021-06-19T15:59:53Z</time>
      </trkpt>
      <trkpt lat="42.59152" lon="1.31609">
        <ele>1541</ele>
        <time>2021-06-19T15:59:55Z</time>
      </trkpt>
      <trkpt lat="42.59161" lon="1.31643">
        <ele>1525</ele>
        <time>2021-06-19T16:00:01Z</time>
      </trkpt>
      <trkpt lat="42.59162" lon="1.31667">
        <ele>1516</ele>
        <time>2021-06-19T16:00:06Z</time>
      </trkpt>
      <trkpt lat="42.5918" lon="1.3168">
        <ele>1505</ele>
        <time>2021-06-19T16:00:10Z</time>
      </trkpt>
      <trkpt lat="42.59177" lon="1.31691">
        <ele>1503</ele>
        <time>2021-06-19T16:00:12Z</time>
      </trkpt>
      <trkpt lat="42.59193" lon="1.31697">
        <ele>1496</ele>
        <time>2021-06-19T16:00:16Z</time>
      </trkpt>
      <trkpt lat="42.59185" lon="1.31716">
        <ele>1493</ele>
        <time>2021-06-19T16:00:20Z</time>
      </trkpt>
      <trkpt lat="42.59204" lon="1.31737">
        <ele>1481</ele>
        <time>2021-06-19T16:00:26Z</time>
      </trkpt>
      <trkpt lat="42.59198" lon="1.31744">
        <ele>1481</ele>
        <time>2021-06-19T16:00:28Z</time>
      </trkpt>
      <trkpt lat="42.59226" lon="1.31801">
        <ele>1454</ele>
        <time>2021-06-19T16:00:39Z</time>
      </trkpt>
      <trkpt lat="42.59251" lon="1.31812">
        <ele>1442</ele>
        <time>2021-06-19T16:00:46Z</time>
      </trkpt>
      <trkpt lat="42.59251" lon="1.31824">
        <ele>1438</ele>
        <time>2021-06-19T16:00:48Z</time>
      </trkpt>
      <trkpt lat="42.59259" lon="1.31834">
        <ele>1433</ele>
        <time>2021-06-19T16:00:50Z</time>
      </trkpt>
      <trkpt lat="42.59256" lon="1.31844">
        <ele>1430</ele>
        <time>2021-06-19T16:00:52Z</time>
      </trkpt>
      <trkpt lat="42.59269" lon="1.31847">
        <ele>1427</ele>
        <time>2021-06-19T16:00:55Z</time>
      </trkpt>
      <trkpt lat="42.59277" lon="1.31855">
        <ele>1423</ele>
        <time>2021-06-19T16:00:57Z</time>
      </trkpt>
      <trkpt lat="42.59267" lon="1.31863">
        <ele>1422</ele>
        <time>2021-06-19T16:01:00Z</time>
      </trkpt>
      <trkpt lat="42.59283" lon="1.31875">
        <ele>1416</ele>
        <time>2021-06-19T16:01:04Z</time>
      </trkpt>
      <trkpt lat="42.59279" lon="1.31888">
        <ele>1412</ele>
        <time>2021-06-19T16:01:07Z</time>
      </trkpt>
      <trkpt lat="42.59286" lon="1.31897">
        <ele>1408</ele>
        <time>2021-06-19T16:01:09Z</time>
      </trkpt>
      <trkpt lat="42.5926" lon="1.31907">
        <ele>1408</ele>
        <time>2021-06-19T16:01:15Z</time>
      </trkpt>
      <trkpt lat="42.59243" lon="1.31919">
        <ele>1408</ele>
        <time>2021-06-19T16:01:20Z</time>
      </trkpt>
      <trkpt lat="42.59235" lon="1.31933">
        <ele>1406</ele>
        <time>2021-06-19T16:01:23Z</time>
      </trkpt>
      <trkpt lat="42.59232" lon="1.3196">
        <ele>1398</ele>
        <time>2021-06-19T16:01:28Z</time>
      </trkpt>
      <trkpt lat="42.59254" lon="1.32094">
        <ele>1356</ele>
        <time>2021-06-19T16:01:51Z</time>
      </trkpt>
      <trkpt lat="42.59248" lon="1.32141">
        <ele>1345</ele>
        <time>2021-06-19T16:01:59Z</time>
      </trkpt>
      <trkpt lat="42.59258" lon="1.32151">
        <ele>1341</ele>
        <time>2021-06-19T16:02:02Z</time>
      </trkpt>
      <trkpt lat="42.59265" lon="1.32153">
        <ele>1341</ele>
        <time>2021-06-19T16:02:04Z</time>
      </trkpt>
      <trkpt lat="42.59279" lon="1.32136">
        <ele>1344</ele>
        <time>2021-06-19T16:02:08Z</time>
      </trkpt>
      <trkpt lat="42.59286" lon="1.32137">
        <ele>1343</ele>
        <time>2021-06-19T16:02:10Z</time>
      </trkpt>
      <trkpt lat="42.59294" lon="1.32151">
        <ele>1339</ele>
        <time>2021-06-19T16:02:13Z</time>
      </trkpt>
      <trkpt lat="42.59295" lon="1.3216">
        <ele>1337</ele>
        <time>2021-06-19T16:02:15Z</time>
      </trkpt>
      <trkpt lat="42.59282" lon="1.32194">
        <ele>1329</ele>
        <time>2021-06-19T16:02:21Z</time>
      </trkpt>
      <trkpt lat="42.59278" lon="1.32211">
        <ele>1325</ele>
        <time>2021-06-19T16:02:24Z</time>
      </trkpt>
      <trkpt lat="42.59279" lon="1.3222">
        <ele>1323</ele>
        <time>2021-06-19T16:02:26Z</time>
      </trkpt>
      <trkpt lat="42.59284" lon="1.32226">
        <ele>1322</ele>
        <time>2021-06-19T16:02:27Z</time>
      </trkpt>
      <trkpt lat="42.5929" lon="1.32227">
        <ele>1322</ele>
        <time>2021-06-19T16:02:29Z</time>
      </trkpt>
      <trkpt lat="42.59299" lon="1.32214">
        <ele>1325</ele>
        <time>2021-06-19T16:02:32Z</time>
      </trkpt>
      <trkpt lat="42.59305" lon="1.3221">
        <ele>1326</ele>
        <time>2021-06-19T16:02:33Z</time>
      </trkpt>
      <trkpt lat="42.59311" lon="1.32213">
        <ele>1325</ele>
        <time>2021-06-19T16:02:35Z</time>
      </trkpt>
      <trkpt lat="42.59358" lon="1.3226">
        <ele>1318</ele>
        <time>2021-06-19T16:02:49Z</time>
      </trkpt>
      <trkpt lat="42.59388" lon="1.32283">
        <ele>1313</ele>
        <time>2021-06-19T16:02:57Z</time>
      </trkpt>
      <trkpt lat="42.59402" lon="1.323">
        <ele>1310</ele>
        <time>2021-06-19T16:03:01Z</time>
      </trkpt>
      <trkpt lat="42.59437" lon="1.32316">
        <ele>1305</ele>
        <time>2021-06-19T16:03:10Z</time>
      </trkpt>
      <trkpt lat="42.59455" lon="1.32321">
        <ele>1304</ele>
        <time>2021-06-19T16:03:14Z</time>
      </trkpt>
      <trkpt lat="42.59463" lon="1.32328">
        <ele>1302</ele>
        <time>2021-06-19T16:03:16Z</time>
      </trkpt>
      <trkpt lat="42.59469" lon="1.32338">
        <ele>1300</ele>
        <time>2021-06-19T16:03:18Z</time>
      </trkpt>
      <trkpt lat="42.5947" lon="1.32351">
        <ele>1298</ele>
        <time>2021-06-19T16:03:21Z</time>
      </trkpt>
      <trkpt lat="42.59456" lon="1.32385">
        <ele>1292</ele>
        <time>2021-06-19T16:03:27Z</time>
      </trkpt>
      <trkpt lat="42.59483" lon="1.32365">
        <ele>1294</ele>
        <time>2021-06-19T16:03:34Z</time>
      </trkpt>
      <trkpt lat="42.59516" lon="1.32346">
        <ele>1296</ele>
        <time>2021-06-19T16:03:43Z</time>
      </trkpt>
      <trkpt lat="42.59578" lon="1.32293">
        <ele>1299</ele>
        <time>2021-06-19T16:04:00Z</time>
      </trkpt>
      <trkpt lat="42.59626" lon="1.32278">
        <ele>1299</ele>
        <time>2021-06-19T16:04:11Z</time>
      </trkpt>
      <trkpt lat="42.59648" lon="1.32276">
        <ele>1298</ele>
        <time>2021-06-19T16:04:17Z</time>
      </trkpt>
      <trkpt lat="42.59673" lon="1.32277">
        <ele>1298</ele>
        <time>2021-06-19T16:04:22Z</time>
      </trkpt>
      <trkpt lat="42.59718" lon="1.32299">
        <ele>1304</ele>
        <time>2021-06-19T16:04:34Z</time>
      </trkpt>
      <trkpt lat="42.59754" lon="1.32312">
        <ele>1309</ele>
        <time>2021-06-19T16:04:42Z</time>
      </trkpt>
      <trkpt lat="42.59779" lon="1.32313">
        <ele>1310</ele>
        <time>2021-06-19T16:04:48Z</time>
      </trkpt>
      <trkpt lat="42.59786" lon="1.32316">
        <ele>1310</ele>
        <time>2021-06-19T16:04:50Z</time>
      </trkpt>
      <trkpt lat="42.59813" lon="1.32316">
        <ele>1311</ele>
        <time>2021-06-19T16:04:56Z</time>
      </trkpt>
      <trkpt lat="42.59828" lon="1.32306">
        <ele>1313</ele>
        <time>2021-06-19T16:05:00Z</time>
      </trkpt>
      <trkpt lat="42.59857" lon="1.32268">
        <ele>1318</ele>
        <time>2021-06-19T16:05:09Z</time>
      </trkpt>
      <trkpt lat="42.59891" lon="1.32246">
        <ele>1318</ele>
        <time>2021-06-19T16:05:18Z</time>
      </trkpt>
      <trkpt lat="42.59954" lon="1.3224">
        <ele>1317</ele>
        <time>2021-06-19T16:05:33Z</time>
      </trkpt>
      <trkpt lat="42.59984" lon="1.32253">
        <ele>1315</ele>
        <time>2021-06-19T16:05:40Z</time>
      </trkpt>
      <trkpt lat="42.60004" lon="1.32258">
        <ele>1316</ele>
        <time>2021-06-19T16:05:45Z</time>
      </trkpt>
      <trkpt lat="42.60036" lon="1.32234">
        <ele>1321</ele>
        <time>2021-06-19T16:05:54Z</time>
      </trkpt>
      <trkpt lat="42.60059" lon="1.3223">
        <ele>1323</ele>
        <time>2021-06-19T16:05:59Z</time>
      </trkpt>
      <trkpt lat="42.601" lon="1.32212">
        <ele>1329</ele>
        <time>2021-06-19T16:06:09Z</time>
      </trkpt>
      <trkpt lat="42.60171" lon="1.32206">
        <ele>1328</ele>
        <time>2021-06-19T16:06:26Z</time>
      </trkpt>
      <trkpt lat="42.60183" lon="1.32203">
        <ele>1328</ele>
        <time>2021-06-19T16:06:29Z</time>
      </trkpt>
      <trkpt lat="42.60212" lon="1.32187">
        <ele>1328</ele>
        <time>2021-06-19T16:06:36Z</time>
      </trkpt>
      <trkpt lat="42.60231" lon="1.32187">
        <ele>1329</ele>
        <time>2021-06-19T16:06:40Z</time>
      </trkpt>
      <trkpt lat="42.60269" lon="1.32197">
        <ele>1330</ele>
        <time>2021-06-19T16:06:49Z</time>
      </trkpt>
      <trkpt lat="42.60301" lon="1.32212">
        <ele>1330</ele>
        <time>2021-06-19T16:06:57Z</time>
      </trkpt>
      <trkpt lat="42.60333" lon="1.32243">
        <ele>1329</ele>
        <time>2021-06-19T16:07:06Z</time>
      </trkpt>
      <trkpt lat="42.60353" lon="1.32273">
        <ele>1333</ele>
        <time>2021-06-19T16:07:13Z</time>
      </trkpt>
      <trkpt lat="42.60379" lon="1.323">
        <ele>1335</ele>
        <time>2021-06-19T16:07:21Z</time>
      </trkpt>
      <trkpt lat="42.60416" lon="1.32329">
        <ele>1332</ele>
        <time>2021-06-19T16:07:31Z</time>
      </trkpt>
      <trkpt lat="42.6051" lon="1.32321">
        <ele>1342</ele>
        <time>2021-06-19T16:07:53Z</time>
      </trkpt>
      <trkpt lat="42.60534" lon="1.32304">
        <ele>1348</ele>
        <time>2021-06-19T16:07:59Z</time>
      </trkpt>
      <trkpt lat="42.60542" lon="1.32271">
        <ele>1349</ele>
        <time>2021-06-19T16:08:05Z</time>
      </trkpt>
      <trkpt lat="42.60552" lon="1.32076">
        <ele>1366</ele>
        <time>2021-06-19T16:08:39Z</time>
      </trkpt>
      <trkpt lat="42.60562" lon="1.3205">
        <ele>1368</ele>
        <time>2021-06-19T16:08:44Z</time>
      </trkpt>
      <trkpt lat="42.60589" lon="1.32004">
        <ele>1365</ele>
        <time>2021-06-19T16:08:54Z</time>
      </trkpt>
      <trkpt lat="42.60654" lon="1.31939">
        <ele>1377</ele>
        <time>2021-06-19T16:09:13Z</time>
      </trkpt>
      <trkpt lat="42.60677" lon="1.31934">
        <ele>1377</ele>
        <time>2021-06-19T16:09:18Z</time>
      </trkpt>
      <trkpt lat="42.60717" lon="1.31954">
        <ele>1376</ele>
        <time>2021-06-19T16:09:28Z</time>
      </trkpt>
      <trkpt lat="42.60757" lon="1.31964">
        <ele>1376</ele>
        <time>2021-06-19T16:09:38Z</time>
      </trkpt>
      <trkpt lat="42.60784" lon="1.31962">
        <ele>1378</ele>
        <time>2021-06-19T16:09:44Z</time>
      </trkpt>
      <trkpt lat="42.60809" lon="1.31956">
        <ele>1380</ele>
        <time>2021-06-19T16:09:50Z</time>
      </trkpt>
      <trkpt lat="42.60832" lon="1.31937">
        <ele>1382</ele>
        <time>2021-06-19T16:09:56Z</time>
      </trkpt>
      <trkpt lat="42.60835" lon="1.31915">
        <ele>1384</ele>
        <time>2021-06-19T16:10:00Z</time>
      </trkpt>
      <trkpt lat="42.60852" lon="1.31893">
        <ele>1395</ele>
        <time>2021-06-19T16:10:06Z</time>
      </trkpt>
      <trkpt lat="42.60879" lon="1.31879">
        <ele>1404</ele>
        <time>2021-06-19T16:10:12Z</time>
      </trkpt>
      <trkpt lat="42.6089" lon="1.31881">
        <ele>1403</ele>
        <time>2021-06-19T16:10:15Z</time>
      </trkpt>
      <trkpt lat="42.60939" lon="1.31907">
        <ele>1398</ele>
        <time>2021-06-19T16:10:27Z</time>
      </trkpt>
      <trkpt lat="42.60974" lon="1.31918">
        <ele>1399</ele>
        <time>2021-06-19T16:10:36Z</time>
      </trkpt>
      <trkpt lat="42.60983" lon="1.31938">
        <ele>1398</ele>
        <time>2021-06-19T16:10:40Z</time>
      </trkpt>
      <trkpt lat="42.61016" lon="1.31971">
        <ele>1396</ele>
        <time>2021-06-19T16:10:49Z</time>
      </trkpt>
      <trkpt lat="42.61038" lon="1.31971">
        <ele>1399</ele>
        <time>2021-06-19T16:10:54Z</time>
      </trkpt>
      <trkpt lat="42.61056" lon="1.31968">
        <ele>1402</ele>
        <time>2021-06-19T16:10:59Z</time>
      </trkpt>
      <trkpt lat="42.61073" lon="1.31969">
        <ele>1404</ele>
        <time>2021-06-19T16:11:03Z</time>
      </trkpt>
      <trkpt lat="42.61141" lon="1.32013">
        <ele>1406</ele>
        <time>2021-06-19T16:11:20Z</time>
      </trkpt>
      <trkpt lat="42.61184" lon="1.32018">
        <ele>1413</ele>
        <time>2021-06-19T16:11:30Z</time>
      </trkpt>
      <trkpt lat="42.61214" lon="1.32018">
        <ele>1418</ele>
        <time>2021-06-19T16:11:37Z</time>
      </trkpt>
      <trkpt lat="42.61242" lon="1.32024">
        <ele>1420</ele>
        <time>2021-06-19T16:11:44Z</time>
      </trkpt>
      <trkpt lat="42.61262" lon="1.32038">
        <ele>1420</ele>
        <time>2021-06-19T16:11:49Z</time>
      </trkpt>
      <trkpt lat="42.61325" lon="1.32106">
        <ele>1411</ele>
        <time>2021-06-19T16:12:08Z</time>
      </trkpt>
      <trkpt lat="42.61331" lon="1.32117">
        <ele>1411</ele>
        <time>2021-06-19T16:12:10Z</time>
      </trkpt>
      <trkpt lat="42.61335" lon="1.32132">
        <ele>1410</ele>
        <time>2021-06-19T16:12:13Z</time>
      </trkpt>
      <trkpt lat="42.61333" lon="1.32157">
        <ele>1409</ele>
        <time>2021-06-19T16:12:17Z</time>
      </trkpt>
      <trkpt lat="42.61337" lon="1.32166">
        <ele>1409</ele>
        <time>2021-06-19T16:12:19Z</time>
      </trkpt>
      <trkpt lat="42.61344" lon="1.32173">
        <ele>1411</ele>
        <time>2021-06-19T16:12:21Z</time>
      </trkpt>
      <trkpt lat="42.61391" lon="1.32198">
        <ele>1418</ele>
        <time>2021-06-19T16:12:33Z</time>
      </trkpt>
      <trkpt lat="42.61451" lon="1.32222">
        <ele>1426</ele>
        <time>2021-06-19T16:12:48Z</time>
      </trkpt>
      <trkpt lat="42.61507" lon="1.32213">
        <ele>1426</ele>
        <time>2021-06-19T16:13:01Z</time>
      </trkpt>
      <trkpt lat="42.61544" lon="1.32213">
        <ele>1428</ele>
        <time>2021-06-19T16:13:09Z</time>
      </trkpt>
      <trkpt lat="42.6159" lon="1.32218">
        <ele>1432</ele>
        <time>2021-06-19T16:13:20Z</time>
      </trkpt>
      <trkpt lat="42.61635" lon="1.32226">
        <ele>1433</ele>
        <time>2021-06-19T16:13:31Z</time>
      </trkpt>
      <trkpt lat="42.61674" lon="1.3222">
        <ele>1434</ele>
        <time>2021-06-19T16:13:40Z</time>
      </trkpt>
      <trkpt lat="42.61703" lon="1.32219">
        <ele>1435</ele>
        <time>2021-06-19T16:13:47Z</time>
      </trkpt>
      <trkpt lat="42.61725" lon="1.32222">
        <ele>1436</ele>
        <time>2021-06-19T16:13:52Z</time>
      </trkpt>
      <trkpt lat="42.61749" lon="1.32237">
        <ele>1438</ele>
        <time>2021-06-19T16:13:58Z</time>
      </trkpt>
      <trkpt lat="42.61781" lon="1.32273">
        <ele>1442</ele>
        <time>2021-06-19T16:14:08Z</time>
      </trkpt>
      <trkpt lat="42.61822" lon="1.32287">
        <ele>1442</ele>
        <time>2021-06-19T16:14:18Z</time>
      </trkpt>
      <trkpt lat="42.6187" lon="1.32298">
        <ele>1444</ele>
        <time>2021-06-19T16:14:29Z</time>
      </trkpt>
      <trkpt lat="42.61971" lon="1.32289">
        <ele>1456</ele>
        <time>2021-06-19T16:14:53Z</time>
      </trkpt>
      <trkpt lat="42.61999" lon="1.32305">
        <ele>1456</ele>
        <time>2021-06-19T16:15:00Z</time>
      </trkpt>
      <trkpt lat="42.62019" lon="1.32341">
        <ele>1458</ele>
        <time>2021-06-19T16:15:07Z</time>
      </trkpt>
      <trkpt lat="42.62029" lon="1.32381">
        <ele>1462</ele>
        <time>2021-06-19T16:15:15Z</time>
      </trkpt>
      <trkpt lat="42.62043" lon="1.32485">
        <ele>1468</ele>
        <time>2021-06-19T16:15:33Z</time>
      </trkpt>
      <trkpt lat="42.62057" lon="1.32644">
        <ele>1475</ele>
        <time>2021-06-19T16:16:00Z</time>
      </trkpt>
      <trkpt lat="42.62056" lon="1.32705">
        <ele>1477</ele>
        <time>2021-06-19T16:16:11Z</time>
      </trkpt>
      <trkpt lat="42.62066" lon="1.3276">
        <ele>1471</ele>
        <time>2021-06-19T16:16:21Z</time>
      </trkpt>
      <trkpt lat="42.62072" lon="1.32773">
        <ele>1469</ele>
        <time>2021-06-19T16:16:23Z</time>
      </trkpt>
      <trkpt lat="42.62079" lon="1.32776">
        <ele>1466</ele>
        <time>2021-06-19T16:16:25Z</time>
      </trkpt>
      <trkpt lat="42.62095" lon="1.32773">
        <ele>1468</ele>
        <time>2021-06-19T16:16:29Z</time>
      </trkpt>
      <trkpt lat="42.62101" lon="1.32779">
        <ele>1471</ele>
        <time>2021-06-19T16:16:30Z</time>
      </trkpt>
      <trkpt lat="42.62104" lon="1.32827">
        <ele>1477</ele>
        <time>2021-06-19T16:16:39Z</time>
      </trkpt>
      <trkpt lat="42.62116" lon="1.32887">
        <ele>1487</ele>
        <time>2021-06-19T16:16:49Z</time>
      </trkpt>
      <trkpt lat="42.62121" lon="1.32941">
        <ele>1490</ele>
        <time>2021-06-19T16:16:59Z</time>
      </trkpt>
      <trkpt lat="42.6215" lon="1.33067">
        <ele>1495</ele>
        <time>2021-06-19T16:17:21Z</time>
      </trkpt>
      <trkpt lat="42.62157" lon="1.33107">
        <ele>1494</ele>
        <time>2021-06-19T16:17:29Z</time>
      </trkpt>
      <trkpt lat="42.62176" lon="1.33143">
        <ele>1498</ele>
        <time>2021-06-19T16:17:36Z</time>
      </trkpt>
      <trkpt lat="42.62193" lon="1.33182">
        <ele>1504</ele>
        <time>2021-06-19T16:17:44Z</time>
      </trkpt>
      <trkpt lat="42.62209" lon="1.33235">
        <ele>1509</ele>
        <time>2021-06-19T16:17:54Z</time>
      </trkpt>
      <trkpt lat="42.62218" lon="1.33281">
        <ele>1512</ele>
        <time>2021-06-19T16:18:02Z</time>
      </trkpt>
      <trkpt lat="42.62247" lon="1.33383">
        <ele>1505</ele>
        <time>2021-06-19T16:18:21Z</time>
      </trkpt>
      <trkpt lat="42.62257" lon="1.334">
        <ele>1507</ele>
        <time>2021-06-19T16:18:25Z</time>
      </trkpt>
      <trkpt lat="42.62276" lon="1.33419">
        <ele>1516</ele>
        <time>2021-06-19T16:18:30Z</time>
      </trkpt>
      <trkpt lat="42.62295" lon="1.3345">
        <ele>1522</ele>
        <time>2021-06-19T16:18:37Z</time>
      </trkpt>
      <trkpt lat="42.62275" lon="1.33476">
        <ele>1513</ele>
        <time>2021-06-19T16:18:43Z</time>
      </trkpt>
      <trkpt lat="42.62287" lon="1.335">
        <ele>1514</ele>
        <time>2021-06-19T16:18:48Z</time>
      </trkpt>
      <trkpt lat="42.62295" lon="1.33529">
        <ele>1515</ele>
        <time>2021-06-19T16:18:54Z</time>
      </trkpt>
      <trkpt lat="42.62298" lon="1.33597">
        <ele>1516</ele>
        <time>2021-06-19T16:19:05Z</time>
      </trkpt>
      <trkpt lat="42.62295" lon="1.33616">
        <ele>1518</ele>
        <time>2021-06-19T16:19:09Z</time>
      </trkpt>
      <trkpt lat="42.62298" lon="1.33653">
        <ele>1520</ele>
        <time>2021-06-19T16:19:15Z</time>
      </trkpt>
      <trkpt lat="42.62309" lon="1.33672">
        <ele>1518</ele>
        <time>2021-06-19T16:19:19Z</time>
      </trkpt>
      <trkpt lat="42.62317" lon="1.33679">
        <ele>1515</ele>
        <time>2021-06-19T16:19:22Z</time>
      </trkpt>
      <trkpt lat="42.62337" lon="1.33688">
        <ele>1511</ele>
        <time>2021-06-19T16:19:26Z</time>
      </trkpt>
      <trkpt lat="42.6234" lon="1.33706">
        <ele>1514</ele>
        <time>2021-06-19T16:19:30Z</time>
      </trkpt>
      <trkpt lat="42.6234" lon="1.33734">
        <ele>1517</ele>
        <time>2021-06-19T16:19:34Z</time>
      </trkpt>
      <trkpt lat="42.62335" lon="1.33769">
        <ele>1521</ele>
        <time>2021-06-19T16:19:41Z</time>
      </trkpt>
      <trkpt lat="42.62316" lon="1.33816">
        <ele>1535</ele>
        <time>2021-06-19T16:19:50Z</time>
      </trkpt>
      <trkpt lat="42.62305" lon="1.33938">
        <ele>1550</ele>
        <time>2021-06-19T16:20:11Z</time>
      </trkpt>
      <trkpt lat="42.62337" lon="1.34051">
        <ele>1554</ele>
        <time>2021-06-19T16:20:32Z</time>
      </trkpt>
      <trkpt lat="42.62377" lon="1.34111">
        <ele>1563</ele>
        <time>2021-06-19T16:20:46Z</time>
      </trkpt>
      <trkpt lat="42.62423" lon="1.34152">
        <ele>1556</ele>
        <time>2021-06-19T16:20:58Z</time>
      </trkpt>
      <trkpt lat="42.62472" lon="1.3424">
        <ele>1565</ele>
        <time>2021-06-19T16:21:17Z</time>
      </trkpt>
      <trkpt lat="42.62479" lon="1.34364">
        <ele>1592</ele>
        <time>2021-06-19T16:21:39Z</time>
      </trkpt>
      <trkpt lat="42.6246" lon="1.34425">
        <ele>1620</ele>
        <time>2021-06-19T16:21:50Z</time>
      </trkpt>
      <trkpt lat="42.62462" lon="1.34488">
        <ele>1628</ele>
        <time>2021-06-19T16:22:01Z</time>
      </trkpt>
      <trkpt lat="42.62469" lon="1.34564">
        <ele>1630</ele>
        <time>2021-06-19T16:22:14Z</time>
      </trkpt>
      <trkpt lat="42.62437" lon="1.34628">
        <ele>1642</ele>
        <time>2021-06-19T16:22:27Z</time>
      </trkpt>
      <trkpt lat="42.62385" lon="1.34683">
        <ele>1651</ele>
        <time>2021-06-19T16:22:43Z</time>
      </trkpt>
      <trkpt lat="42.62325" lon="1.34684">
        <ele>1665</ele>
        <time>2021-06-19T16:22:57Z</time>
      </trkpt>
      <trkpt lat="42.62299" lon="1.34659">
        <ele>1672</ele>
        <time>2021-06-19T16:23:04Z</time>
      </trkpt>
      <trkpt lat="42.6226" lon="1.34656">
        <ele>1677</ele>
        <time>2021-06-19T16:23:13Z</time>
      </trkpt>
      <trkpt lat="42.62256" lon="1.3467">
        <ele>1676</ele>
        <time>2021-06-19T16:23:16Z</time>
      </trkpt>
      <trkpt lat="42.62274" lon="1.34783">
        <ele>1663</ele>
        <time>2021-06-19T16:23:36Z</time>
      </trkpt>
      <trkpt lat="42.62266" lon="1.34806">
        <ele>1663</ele>
        <time>2021-06-19T16:23:40Z</time>
      </trkpt>
      <trkpt lat="42.62264" lon="1.34827">
        <ele>1662</ele>
        <time>2021-06-19T16:23:44Z</time>
      </trkpt>
      <trkpt lat="42.62279" lon="1.34843">
        <ele>1658</ele>
        <time>2021-06-19T16:23:48Z</time>
      </trkpt>
      <trkpt lat="42.6229" lon="1.34878">
        <ele>1656</ele>
        <time>2021-06-19T16:23:55Z</time>
      </trkpt>
      <trkpt lat="42.62294" lon="1.34922">
        <ele>1655</ele>
        <time>2021-06-19T16:24:03Z</time>
      </trkpt>
      <trkpt lat="42.62289" lon="1.34943">
        <ele>1657</ele>
        <time>2021-06-19T16:24:06Z</time>
      </trkpt>
      <trkpt lat="42.62298" lon="1.35056">
        <ele>1663</ele>
        <time>2021-06-19T16:24:26Z</time>
      </trkpt>
      <trkpt lat="42.62332" lon="1.35086">
        <ele>1657</ele>
        <time>2021-06-19T16:24:35Z</time>
      </trkpt>
      <trkpt lat="42.62361" lon="1.35087">
        <ele>1651</ele>
        <time>2021-06-19T16:24:42Z</time>
      </trkpt>
      <trkpt lat="42.62377" lon="1.3509">
        <ele>1648</ele>
        <time>2021-06-19T16:24:46Z</time>
      </trkpt>
      <trkpt lat="42.62405" lon="1.3511">
        <ele>1647</ele>
        <time>2021-06-19T16:24:53Z</time>
      </trkpt>
      <trkpt lat="42.62434" lon="1.35142">
        <ele>1645</ele>
        <time>2021-06-19T16:25:02Z</time>
      </trkpt>
      <trkpt lat="42.62474" lon="1.35199">
        <ele>1645</ele>
        <time>2021-06-19T16:25:15Z</time>
      </trkpt>
      <trkpt lat="42.62496" lon="1.35237">
        <ele>1648</ele>
        <time>2021-06-19T16:25:24Z</time>
      </trkpt>
      <trkpt lat="42.62568" lon="1.35246">
        <ele>1632</ele>
        <time>2021-06-19T16:25:41Z</time>
      </trkpt>
      <trkpt lat="42.62594" lon="1.35262">
        <ele>1630</ele>
        <time>2021-06-19T16:25:47Z</time>
      </trkpt>
      <trkpt lat="42.62608" lon="1.35286">
        <ele>1633</ele>
        <time>2021-06-19T16:25:53Z</time>
      </trkpt>
      <trkpt lat="42.62621" lon="1.35395">
        <ele>1649</ele>
        <time>2021-06-19T16:26:12Z</time>
      </trkpt>
      <trkpt lat="42.62628" lon="1.35409">
        <ele>1648</ele>
        <time>2021-06-19T16:26:15Z</time>
      </trkpt>
      <trkpt lat="42.62638" lon="1.35462">
        <ele>1648</ele>
        <time>2021-06-19T16:26:24Z</time>
      </trkpt>
      <trkpt lat="42.62667" lon="1.35559">
        <ele>1646</ele>
        <time>2021-06-19T16:26:42Z</time>
      </trkpt>
      <trkpt lat="42.62703" lon="1.35627">
        <ele>1654</ele>
        <time>2021-06-19T16:26:56Z</time>
      </trkpt>
      <trkpt lat="42.62735" lon="1.35716">
        <ele>1650</ele>
        <time>2021-06-19T16:27:13Z</time>
      </trkpt>
      <trkpt lat="42.62751" lon="1.35777">
        <ele>1650</ele>
        <time>2021-06-19T16:27:24Z</time>
      </trkpt>
      <trkpt lat="42.62776" lon="1.35823">
        <ele>1659</ele>
        <time>2021-06-19T16:27:34Z</time>
      </trkpt>
      <trkpt lat="42.62794" lon="1.3585">
        <ele>1661</ele>
        <time>2021-06-19T16:27:41Z</time>
      </trkpt>
      <trkpt lat="42.62809" lon="1.35916">
        <ele>1659</ele>
        <time>2021-06-19T16:27:52Z</time>
      </trkpt>
      <trkpt lat="42.62806" lon="1.3602">
        <ele>1666</ele>
        <time>2021-06-19T16:28:10Z</time>
      </trkpt>
      <trkpt lat="42.62808" lon="1.36042">
        <ele>1665</ele>
        <time>2021-06-19T16:28:14Z</time>
      </trkpt>
      <trkpt lat="42.62808" lon="1.36114">
        <ele>1663</ele>
        <time>2021-06-19T16:28:26Z</time>
      </trkpt>
      <trkpt lat="42.62806" lon="1.36141">
        <ele>1664</ele>
        <time>2021-06-19T16:28:31Z</time>
      </trkpt>
      <trkpt lat="42.62799" lon="1.36169">
        <ele>1667</ele>
        <time>2021-06-19T16:28:36Z</time>
      </trkpt>
      <trkpt lat="42.62794" lon="1.36223">
        <ele>1671</ele>
        <time>2021-06-19T16:28:46Z</time>
      </trkpt>
      <trkpt lat="42.62794" lon="1.36258">
        <ele>1671</ele>
        <time>2021-06-19T16:28:52Z</time>
      </trkpt>
      <trkpt lat="42.62788" lon="1.36294">
        <ele>1672</ele>
        <time>2021-06-19T16:28:58Z</time>
      </trkpt>
      <trkpt lat="42.62764" lon="1.36374">
        <ele>1675</ele>
        <time>2021-06-19T16:29:13Z</time>
      </trkpt>
      <trkpt lat="42.62758" lon="1.36415">
        <ele>1674</ele>
        <time>2021-06-19T16:29:20Z</time>
      </trkpt>
      <trkpt lat="42.62764" lon="1.36601">
        <ele>1686</ele>
        <time>2021-06-19T16:29:52Z</time>
      </trkpt>
      <trkpt lat="42.62772" lon="1.36726">
        <ele>1700</ele>
        <time>2021-06-19T16:30:13Z</time>
      </trkpt>
      <trkpt lat="42.62765" lon="1.36799">
        <ele>1700</ele>
        <time>2021-06-19T16:30:26Z</time>
      </trkpt>
      <trkpt lat="42.62754" lon="1.36833">
        <ele>1695</ele>
        <time>2021-06-19T16:30:33Z</time>
      </trkpt>
      <trkpt lat="42.62738" lon="1.36866">
        <ele>1704</ele>
        <time>2021-06-19T16:30:39Z</time>
      </trkpt>
      <trkpt lat="42.62732" lon="1.36874">
        <ele>1707</ele>
        <time>2021-06-19T16:30:41Z</time>
      </trkpt>
      <trkpt lat="42.62719" lon="1.36918">
        <ele>1712</ele>
        <time>2021-06-19T16:30:49Z</time>
      </trkpt>
      <trkpt lat="42.62712" lon="1.36985">
        <ele>1713</ele>
        <time>2021-06-19T16:31:01Z</time>
      </trkpt>
      <trkpt lat="42.62689" lon="1.3702">
        <ele>1716</ele>
        <time>2021-06-19T16:31:09Z</time>
      </trkpt>
      <trkpt lat="42.62686" lon="1.37095">
        <ele>1719</ele>
        <time>2021-06-19T16:31:22Z</time>
      </trkpt>
      <trkpt lat="42.6269" lon="1.37227">
        <ele>1728</ele>
        <time>2021-06-19T16:31:45Z</time>
      </trkpt>
      <trkpt lat="42.62682" lon="1.3729">
        <ele>1729</ele>
        <time>2021-06-19T16:31:56Z</time>
      </trkpt>
      <trkpt lat="42.62666" lon="1.37345">
        <ele>1729</ele>
        <time>2021-06-19T16:32:06Z</time>
      </trkpt>
      <trkpt lat="42.62651" lon="1.37424">
        <ele>1745</ele>
        <time>2021-06-19T16:32:20Z</time>
      </trkpt>
      <trkpt lat="42.6265" lon="1.37493">
        <ele>1749</ele>
        <time>2021-06-19T16:32:32Z</time>
      </trkpt>
      <trkpt lat="42.62621" lon="1.37678">
        <ele>1767</ele>
        <time>2021-06-19T16:33:04Z</time>
      </trkpt>
      <trkpt lat="42.62598" lon="1.37798">
        <ele>1766</ele>
        <time>2021-06-19T16:33:26Z</time>
      </trkpt>
      <trkpt lat="42.62576" lon="1.37887">
        <ele>1767</ele>
        <time>2021-06-19T16:33:42Z</time>
      </trkpt>
      <trkpt lat="42.62558" lon="1.37983">
        <ele>1769</ele>
        <time>2021-06-19T16:33:59Z</time>
      </trkpt>
      <trkpt lat="42.62539" lon="1.38039">
        <ele>1775</ele>
        <time>2021-06-19T16:34:09Z</time>
      </trkpt>
      <trkpt lat="42.62508" lon="1.38116">
        <ele>1778</ele>
        <time>2021-06-19T16:34:24Z</time>
      </trkpt>
      <trkpt lat="42.62479" lon="1.38172">
        <ele>1782</ele>
        <time>2021-06-19T16:34:36Z</time>
      </trkpt>
      <trkpt lat="42.62444" lon="1.38294">
        <ele>1796</ele>
        <time>2021-06-19T16:34:59Z</time>
      </trkpt>
      <trkpt lat="42.62444" lon="1.38324">
        <ele>1797</ele>
        <time>2021-06-19T16:35:04Z</time>
      </trkpt>
      <trkpt lat="42.62449" lon="1.38351">
        <ele>1798</ele>
        <time>2021-06-19T16:35:09Z</time>
      </trkpt>
      <trkpt lat="42.62445" lon="1.38356">
        <ele>1798</ele>
        <time>2021-06-19T16:35:10Z</time>
      </trkpt>
      <trkpt lat="42.62439" lon="1.38356">
        <ele>1799</ele>
        <time>2021-06-19T16:35:11Z</time>
      </trkpt>
      <trkpt lat="42.62426" lon="1.38339">
        <ele>1799</ele>
        <time>2021-06-19T16:35:15Z</time>
      </trkpt>
      <trkpt lat="42.62423" lon="1.38317">
        <ele>1800</ele>
        <time>2021-06-19T16:35:19Z</time>
      </trkpt>
      <trkpt lat="42.62426" lon="1.38295">
        <ele>1801</ele>
        <time>2021-06-19T16:35:23Z</time>
      </trkpt>
      <trkpt lat="42.6242" lon="1.38262">
        <ele>1804</ele>
        <time>2021-06-19T16:35:29Z</time>
      </trkpt>
      <trkpt lat="42.62419" lon="1.3823">
        <ele>1808</ele>
        <time>2021-06-19T16:35:35Z</time>
      </trkpt>
      <trkpt lat="42.62411" lon="1.3823">
        <ele>1812</ele>
        <time>2021-06-19T16:35:36Z</time>
      </trkpt>
      <trkpt lat="42.62398" lon="1.38274">
        <ele>1812</ele>
        <time>2021-06-19T16:35:45Z</time>
      </trkpt>
      <trkpt lat="42.62372" lon="1.38325">
        <ele>1818</ele>
        <time>2021-06-19T16:35:55Z</time>
      </trkpt>
      <trkpt lat="42.6237" lon="1.38332">
        <ele>1818</ele>
        <time>2021-06-19T16:35:56Z</time>
      </trkpt>
      <trkpt lat="42.62371" lon="1.38416">
        <ele>1817</ele>
        <time>2021-06-19T16:36:11Z</time>
      </trkpt>
      <trkpt lat="42.62367" lon="1.38424">
        <ele>1819</ele>
        <time>2021-06-19T16:36:13Z</time>
      </trkpt>
      <trkpt lat="42.62361" lon="1.38426">
        <ele>1821</ele>
        <time>2021-06-19T16:36:14Z</time>
      </trkpt>
      <trkpt lat="42.62358" lon="1.38442">
        <ele>1822</ele>
        <time>2021-06-19T16:36:17Z</time>
      </trkpt>
      <trkpt lat="42.6235" lon="1.38458">
        <ele>1825</ele>
        <time>2021-06-19T16:36:20Z</time>
      </trkpt>
      <trkpt lat="42.62353" lon="1.38475">
        <ele>1825</ele>
        <time>2021-06-19T16:36:23Z</time>
      </trkpt>
      <trkpt lat="42.62352" lon="1.38484">
        <ele>1826</ele>
        <time>2021-06-19T16:36:25Z</time>
      </trkpt>
      <trkpt lat="42.62334" lon="1.38543">
        <ele>1830</ele>
        <time>2021-06-19T16:36:36Z</time>
      </trkpt>
      <trkpt lat="42.62314" lon="1.38553">
        <ele>1836</ele>
        <time>2021-06-19T16:36:41Z</time>
      </trkpt>
      <trkpt lat="42.62298" lon="1.38554">
        <ele>1841</ele>
        <time>2021-06-19T16:36:44Z</time>
      </trkpt>
      <trkpt lat="42.62286" lon="1.38567">
        <ele>1843</ele>
        <time>2021-06-19T16:36:48Z</time>
      </trkpt>
      <trkpt lat="42.62232" lon="1.38604">
        <ele>1853</ele>
        <time>2021-06-19T16:37:02Z</time>
      </trkpt>
      <trkpt lat="42.62198" lon="1.3862">
        <ele>1859</ele>
        <time>2021-06-19T16:37:11Z</time>
      </trkpt>
      <trkpt lat="42.62153" lon="1.38632">
        <ele>1866</ele>
        <time>2021-06-19T16:37:21Z</time>
      </trkpt>
      <trkpt lat="42.62146" lon="1.38636">
        <ele>1866</ele>
        <time>2021-06-19T16:37:23Z</time>
      </trkpt>
      <trkpt lat="42.62137" lon="1.38645">
        <ele>1865</ele>
        <time>2021-06-19T16:37:26Z</time>
      </trkpt>
      <trkpt lat="42.62121" lon="1.38669">
        <ele>1862</ele>
        <time>2021-06-19T16:37:31Z</time>
      </trkpt>
      <trkpt lat="42.62112" lon="1.38688">
        <ele>1863</ele>
        <time>2021-06-19T16:37:35Z</time>
      </trkpt>
      <trkpt lat="42.62059" lon="1.38739">
        <ele>1864</ele>
        <time>2021-06-19T16:37:50Z</time>
      </trkpt>
      <trkpt lat="42.6204" lon="1.38746">
        <ele>1864</ele>
        <time>2021-06-19T16:37:55Z</time>
      </trkpt>
      <trkpt lat="42.62018" lon="1.38745">
        <ele>1865</ele>
        <time>2021-06-19T16:38:00Z</time>
      </trkpt>
      <trkpt lat="42.61993" lon="1.38734">
        <ele>1869</ele>
        <time>2021-06-19T16:38:06Z</time>
      </trkpt>
      <trkpt lat="42.61919" lon="1.38825">
        <ele>1866</ele>
        <time>2021-06-19T16:38:29Z</time>
      </trkpt>
      <trkpt lat="42.61925" lon="1.38837">
        <ele>1865</ele>
        <time>2021-06-19T16:38:32Z</time>
      </trkpt>
      <trkpt lat="42.61914" lon="1.38865">
        <ele>1866</ele>
        <time>2021-06-19T16:38:37Z</time>
      </trkpt>
      <trkpt lat="42.61917" lon="1.38876">
        <ele>1866</ele>
        <time>2021-06-19T16:38:39Z</time>
      </trkpt>
      <trkpt lat="42.61911" lon="1.38894">
        <ele>1866</ele>
        <time>2021-06-19T16:38:43Z</time>
      </trkpt>
      <trkpt lat="42.61917" lon="1.38897">
        <ele>1866</ele>
        <time>2021-06-19T16:38:44Z</time>
      </trkpt>
      <trkpt lat="42.61918" lon="1.3891">
        <ele>1866</ele>
        <time>2021-06-19T16:38:47Z</time>
      </trkpt>
      <trkpt lat="42.61893" lon="1.39034">
        <ele>1871</ele>
        <time>2021-06-19T16:39:09Z</time>
      </trkpt>
      <trkpt lat="42.61882" lon="1.39067">
        <ele>1873</ele>
        <time>2021-06-19T16:39:15Z</time>
      </trkpt>
      <trkpt lat="42.61892" lon="1.39073">
        <ele>1875</ele>
        <time>2021-06-19T16:39:17Z</time>
      </trkpt>
      <trkpt lat="42.61894" lon="1.39081">
        <ele>1877</ele>
        <time>2021-06-19T16:39:19Z</time>
      </trkpt>
      <trkpt lat="42.6188" lon="1.39097">
        <ele>1877</ele>
        <time>2021-06-19T16:39:23Z</time>
      </trkpt>
      <trkpt lat="42.61876" lon="1.39115">
        <ele>1879</ele>
        <time>2021-06-19T16:39:26Z</time>
      </trkpt>
      <trkpt lat="42.61846" lon="1.39201">
        <ele>1889</ele>
        <time>2021-06-19T16:39:43Z</time>
      </trkpt>
      <trkpt lat="42.6183" lon="1.39259">
        <ele>1896</ele>
        <time>2021-06-19T16:39:53Z</time>
      </trkpt>
      <trkpt lat="42.6183" lon="1.39309">
        <ele>1908</ele>
        <time>2021-06-19T16:40:02Z</time>
      </trkpt>
      <trkpt lat="42.61808" lon="1.39454">
        <ele>1935</ele>
        <time>2021-06-19T16:40:27Z</time>
      </trkpt>
      <trkpt lat="42.618" lon="1.39476">
        <ele>1940</ele>
        <time>2021-06-19T16:40:32Z</time>
      </trkpt>
      <trkpt lat="42.61784" lon="1.39482">
        <ele>1939</ele>
        <time>2021-06-19T16:40:35Z</time>
      </trkpt>
      <trkpt lat="42.61777" lon="1.39493">
        <ele>1942</ele>
        <time>2021-06-19T16:40:38Z</time>
      </trkpt>
      <trkpt lat="42.61774" lon="1.39519">
        <ele>1950</ele>
        <time>2021-06-19T16:40:43Z</time>
      </trkpt>
      <trkpt lat="42.61776" lon="1.39527">
        <ele>1953</ele>
        <time>2021-06-19T16:40:44Z</time>
      </trkpt>
      <trkpt lat="42.61782" lon="1.39535">
        <ele>1956</ele>
        <time>2021-06-19T16:40:46Z</time>
      </trkpt>
      <trkpt lat="42.61792" lon="1.39542">
        <ele>1960</ele>
        <time>2021-06-19T16:40:49Z</time>
      </trkpt>
      <trkpt lat="42.61781" lon="1.39573">
        <ele>1970</ele>
        <time>2021-06-19T16:40:54Z</time>
      </trkpt>
      <trkpt lat="42.61761" lon="1.39612">
        <ele>1979</ele>
        <time>2021-06-19T16:41:03Z</time>
      </trkpt>
      <trkpt lat="42.61766" lon="1.3963">
        <ele>1985</ele>
        <time>2021-06-19T16:41:06Z</time>
      </trkpt>
      <trkpt lat="42.61764" lon="1.39653">
        <ele>1992</ele>
        <time>2021-06-19T16:41:10Z</time>
      </trkpt>
      <trkpt lat="42.61755" lon="1.39676">
        <ele>1996</ele>
        <time>2021-06-19T16:41:14Z</time>
      </trkpt>
      <trkpt lat="42.61748" lon="1.39718">
        <ele>2004</ele>
        <time>2021-06-19T16:41:22Z</time>
      </trkpt>
      <trkpt lat="42.61735" lon="1.39751">
        <ele>2008</ele>
        <time>2021-06-19T16:41:28Z</time>
      </trkpt>
      <trkpt lat="42.61723" lon="1.39759">
        <ele>2008</ele>
        <time>2021-06-19T16:41:31Z</time>
      </trkpt>
      <trkpt lat="42.61703" lon="1.39785">
        <ele>2010</ele>
        <time>2021-06-19T16:41:38Z</time>
      </trkpt>
      <trkpt lat="42.61686" lon="1.39799">
        <ele>2009</ele>
        <time>2021-06-19T16:41:42Z</time>
      </trkpt>
      <trkpt lat="42.61669" lon="1.39823">
        <ele>2010</ele>
        <time>2021-06-19T16:41:48Z</time>
      </trkpt>
      <trkpt lat="42.61651" lon="1.39834">
        <ele>2010</ele>
        <time>2021-06-19T16:41:53Z</time>
      </trkpt>
      <trkpt lat="42.61631" lon="1.39832">
        <ele>2009</ele>
        <time>2021-06-19T16:41:57Z</time>
      </trkpt>
      <trkpt lat="42.61603" lon="1.39809">
        <ele>2004</ele>
        <time>2021-06-19T16:42:05Z</time>
      </trkpt>
      <trkpt lat="42.61549" lon="1.39782">
        <ele>2000</ele>
        <time>2021-06-19T16:42:19Z</time>
      </trkpt>
      <trkpt lat="42.6153" lon="1.39785">
        <ele>2003</ele>
        <time>2021-06-19T16:42:23Z</time>
      </trkpt>
      <trkpt lat="42.6151" lon="1.39782">
        <ele>2003</ele>
        <time>2021-06-19T16:42:28Z</time>
      </trkpt>
      <trkpt lat="42.61497" lon="1.39787">
        <ele>2006</ele>
        <time>2021-06-19T16:42:31Z</time>
      </trkpt>
      <trkpt lat="42.61463" lon="1.39794">
        <ele>2013</ele>
        <time>2021-06-19T16:42:39Z</time>
      </trkpt>
      <trkpt lat="42.6145" lon="1.39793">
        <ele>2014</ele>
        <time>2021-06-19T16:42:42Z</time>
      </trkpt>
      <trkpt lat="42.61435" lon="1.39796">
        <ele>2017</ele>
        <time>2021-06-19T16:42:45Z</time>
      </trkpt>
      <trkpt lat="42.61402" lon="1.39793">
        <ele>2020</ele>
        <time>2021-06-19T16:42:53Z</time>
      </trkpt>
      <trkpt lat="42.61374" lon="1.39803">
        <ele>2025</ele>
        <time>2021-06-19T16:43:00Z</time>
      </trkpt>
      <trkpt lat="42.61355" lon="1.39794">
        <ele>2026</ele>
        <time>2021-06-19T16:43:05Z</time>
      </trkpt>
      <trkpt lat="42.61342" lon="1.39794">
        <ele>2027</ele>
        <time>2021-06-19T16:43:08Z</time>
      </trkpt>
      <trkpt lat="42.61309" lon="1.39799">
        <ele>2028</ele>
        <time>2021-06-19T16:43:15Z</time>
      </trkpt>
      <trkpt lat="42.61288" lon="1.39809">
        <ele>2029</ele>
        <time>2021-06-19T16:43:21Z</time>
      </trkpt>
      <trkpt lat="42.61267" lon="1.39799">
        <ele>2028</ele>
        <time>2021-06-19T16:43:26Z</time>
      </trkpt>
      <trkpt lat="42.61265" lon="1.39754">
        <ele>2023</ele>
        <time>2021-06-19T16:43:34Z</time>
      </trkpt>
      <trkpt lat="42.61261" lon="1.39747">
        <ele>2023</ele>
        <time>2021-06-19T16:43:35Z</time>
      </trkpt>
      <trkpt lat="42.61225" lon="1.39724">
        <ele>2022</ele>
        <time>2021-06-19T16:43:44Z</time>
      </trkpt>
      <trkpt lat="42.61216" lon="1.39711">
        <ele>2022</ele>
        <time>2021-06-19T16:43:47Z</time>
      </trkpt>
      <trkpt lat="42.61213" lon="1.39666">
        <ele>2021</ele>
        <time>2021-06-19T16:43:55Z</time>
      </trkpt>
      <trkpt lat="42.61204" lon="1.39634">
        <ele>2022</ele>
        <time>2021-06-19T16:44:01Z</time>
      </trkpt>
      <trkpt lat="42.61195" lon="1.39625">
        <ele>2022</ele>
        <time>2021-06-19T16:44:04Z</time>
      </trkpt>
      <trkpt lat="42.6119" lon="1.39637">
        <ele>2022</ele>
        <time>2021-06-19T16:44:06Z</time>
      </trkpt>
      <trkpt lat="42.61179" lon="1.39647">
        <ele>2022</ele>
        <time>2021-06-19T16:44:09Z</time>
      </trkpt>
      <trkpt lat="42.61171" lon="1.39649">
        <ele>2023</ele>
        <time>2021-06-19T16:44:11Z</time>
      </trkpt>
      <trkpt lat="42.6116" lon="1.39659">
        <ele>2024</ele>
        <time>2021-06-19T16:44:14Z</time>
      </trkpt>
      <trkpt lat="42.61154" lon="1.39658">
        <ele>2026</ele>
        <time>2021-06-19T16:44:16Z</time>
      </trkpt>
      <trkpt lat="42.6115" lon="1.39664">
        <ele>2027</ele>
        <time>2021-06-19T16:44:17Z</time>
      </trkpt>
      <trkpt lat="42.61148" lon="1.39676">
        <ele>2027</ele>
        <time>2021-06-19T16:44:19Z</time>
      </trkpt>
      <trkpt lat="42.61138" lon="1.39687">
        <ele>2029</ele>
        <time>2021-06-19T16:44:22Z</time>
      </trkpt>
      <trkpt lat="42.61133" lon="1.39704">
        <ele>2029</ele>
        <time>2021-06-19T16:44:25Z</time>
      </trkpt>
      <trkpt lat="42.61133" lon="1.39747">
        <ele>2026</ele>
        <time>2021-06-19T16:44:33Z</time>
      </trkpt>
      <trkpt lat="42.61141" lon="1.39784">
        <ele>2029</ele>
        <time>2021-06-19T16:44:39Z</time>
      </trkpt>
      <trkpt lat="42.61158" lon="1.39926">
        <ele>2043</ele>
        <time>2021-06-19T16:45:04Z</time>
      </trkpt>
      <trkpt lat="42.61165" lon="1.3994">
        <ele>2045</ele>
        <time>2021-06-19T16:45:07Z</time>
      </trkpt>
      <trkpt lat="42.61162" lon="1.3998">
        <ele>2050</ele>
        <time>2021-06-19T16:45:14Z</time>
      </trkpt>
      <trkpt lat="42.61165" lon="1.39991">
        <ele>2052</ele>
        <time>2021-06-19T16:45:16Z</time>
      </trkpt>
      <trkpt lat="42.61177" lon="1.40003">
        <ele>2053</ele>
        <time>2021-06-19T16:45:19Z</time>
      </trkpt>
      <trkpt lat="42.61187" lon="1.40018">
        <ele>2056</ele>
        <time>2021-06-19T16:45:23Z</time>
      </trkpt>
      <trkpt lat="42.61199" lon="1.40017">
        <ele>2055</ele>
        <time>2021-06-19T16:45:26Z</time>
      </trkpt>
      <trkpt lat="42.61208" lon="1.40036">
        <ele>2058</ele>
        <time>2021-06-19T16:45:29Z</time>
      </trkpt>
      <trkpt lat="42.61212" lon="1.40088">
        <ele>2068</ele>
        <time>2021-06-19T16:45:38Z</time>
      </trkpt>
      <trkpt lat="42.61206" lon="1.40097">
        <ele>2071</ele>
        <time>2021-06-19T16:45:41Z</time>
      </trkpt>
      <trkpt lat="42.61214" lon="1.40138">
        <ele>2076</ele>
        <time>2021-06-19T16:45:48Z</time>
      </trkpt>
      <trkpt lat="42.61215" lon="1.40231">
        <ele>2085</ele>
        <time>2021-06-19T16:46:04Z</time>
      </trkpt>
      <trkpt lat="42.61209" lon="1.40267">
        <ele>2090</ele>
        <time>2021-06-19T16:46:10Z</time>
      </trkpt>
      <trkpt lat="42.61204" lon="1.40281">
        <ele>2091</ele>
        <time>2021-06-19T16:46:13Z</time>
      </trkpt>
      <trkpt lat="42.61202" lon="1.403">
        <ele>2092</ele>
        <time>2021-06-19T16:46:16Z</time>
      </trkpt>
      <trkpt lat="42.61191" lon="1.4031">
        <ele>2095</ele>
        <time>2021-06-19T16:46:19Z</time>
      </trkpt>
      <trkpt lat="42.61191" lon="1.40321">
        <ele>2095</ele>
        <time>2021-06-19T16:46:21Z</time>
      </trkpt>
      <trkpt lat="42.61185" lon="1.40338">
        <ele>2096</ele>
        <time>2021-06-19T16:46:24Z</time>
      </trkpt>
      <trkpt lat="42.61185" lon="1.40357">
        <ele>2098</ele>
        <time>2021-06-19T16:46:28Z</time>
      </trkpt>
      <trkpt lat="42.61156" lon="1.40409">
        <ele>2111</ele>
        <time>2021-06-19T16:46:39Z</time>
      </trkpt>
      <trkpt lat="42.61155" lon="1.40429">
        <ele>2113</ele>
        <time>2021-06-19T16:46:42Z</time>
      </trkpt>
      <trkpt lat="42.61115" lon="1.40504">
        <ele>2133</ele>
        <time>2021-06-19T16:46:58Z</time>
      </trkpt>
      <trkpt lat="42.61091" lon="1.40536">
        <ele>2139</ele>
        <time>2021-06-19T16:47:06Z</time>
      </trkpt>
      <trkpt lat="42.61082" lon="1.40563">
        <ele>2139</ele>
        <time>2021-06-19T16:47:11Z</time>
      </trkpt>
      <trkpt lat="42.61039" lon="1.40599">
        <ele>2154</ele>
        <time>2021-06-19T16:47:23Z</time>
      </trkpt>
      <trkpt lat="42.6101" lon="1.40651">
        <ele>2154</ele>
        <time>2021-06-19T16:47:34Z</time>
      </trkpt>
      <trkpt lat="42.61009" lon="1.40672">
        <ele>2151</ele>
        <time>2021-06-19T16:47:38Z</time>
      </trkpt>
      <trkpt lat="42.60988" lon="1.40712">
        <ele>2153</ele>
        <time>2021-06-19T16:47:46Z</time>
      </trkpt>
      <trkpt lat="42.60993" lon="1.40747">
        <ele>2151</ele>
        <time>2021-06-19T16:47:52Z</time>
      </trkpt>
      <trkpt lat="42.61002" lon="1.40762">
        <ele>2151</ele>
        <time>2021-06-19T16:47:56Z</time>
      </trkpt>
      <trkpt lat="42.61013" lon="1.40817">
        <ele>2154</ele>
        <time>2021-06-19T16:48:05Z</time>
      </trkpt>
      <trkpt lat="42.61023" lon="1.40852">
        <ele>2159</ele>
        <time>2021-06-19T16:48:12Z</time>
      </trkpt>
      <trkpt lat="42.61038" lon="1.40871">
        <ele>2162</ele>
        <time>2021-06-19T16:48:17Z</time>
      </trkpt>
      <trkpt lat="42.61044" lon="1.40886">
        <ele>2165</ele>
        <time>2021-06-19T16:48:20Z</time>
      </trkpt>
      <trkpt lat="42.61052" lon="1.40892">
        <ele>2166</ele>
        <time>2021-06-19T16:48:22Z</time>
      </trkpt>
      <trkpt lat="42.61068" lon="1.40895">
        <ele>2167</ele>
        <time>2021-06-19T16:48:26Z</time>
      </trkpt>
      <trkpt lat="42.61099" lon="1.40935">
        <ele>2178</ele>
        <time>2021-06-19T16:48:36Z</time>
      </trkpt>
      <trkpt lat="42.61111" lon="1.40933">
        <ele>2179</ele>
        <time>2021-06-19T16:48:38Z</time>
      </trkpt>
      <trkpt lat="42.61131" lon="1.40915">
        <ele>2177</ele>
        <time>2021-06-19T16:48:44Z</time>
      </trkpt>
      <trkpt lat="42.61139" lon="1.40913">
        <ele>2179</ele>
        <time>2021-06-19T16:48:46Z</time>
      </trkpt>
      <trkpt lat="42.61155" lon="1.4092">
        <ele>2182</ele>
        <time>2021-06-19T16:48:50Z</time>
      </trkpt>
      <trkpt lat="42.61162" lon="1.40926">
        <ele>2184</ele>
        <time>2021-06-19T16:48:52Z</time>
      </trkpt>
      <trkpt lat="42.61171" lon="1.40943">
        <ele>2188</ele>
        <time>2021-06-19T16:48:55Z</time>
      </trkpt>
      <trkpt lat="42.61187" lon="1.41037">
        <ele>2201</ele>
        <time>2021-06-19T16:49:12Z</time>
      </trkpt>
      <trkpt lat="42.61187" lon="1.41079">
        <ele>2207</ele>
        <time>2021-06-19T16:49:19Z</time>
      </trkpt>
      <trkpt lat="42.61189" lon="1.41092">
        <ele>2208</ele>
        <time>2021-06-19T16:49:21Z</time>
      </trkpt>
      <trkpt lat="42.612" lon="1.41145">
        <ele>2213</ele>
        <time>2021-06-19T16:49:31Z</time>
      </trkpt>
      <trkpt lat="42.61209" lon="1.41169">
        <ele>2213</ele>
        <time>2021-06-19T16:49:36Z</time>
      </trkpt>
      <trkpt lat="42.61213" lon="1.41187">
        <ele>2214</ele>
        <time>2021-06-19T16:49:39Z</time>
      </trkpt>
      <trkpt lat="42.61219" lon="1.41237">
        <ele>2218</ele>
        <time>2021-06-19T16:49:47Z</time>
      </trkpt>
      <trkpt lat="42.61219" lon="1.41274">
        <ele>2222</ele>
        <time>2021-06-19T16:49:54Z</time>
      </trkpt>
      <trkpt lat="42.61223" lon="1.41315">
        <ele>2226</ele>
        <time>2021-06-19T16:50:01Z</time>
      </trkpt>
      <trkpt lat="42.61219" lon="1.41335">
        <ele>2229</ele>
        <time>2021-06-19T16:50:04Z</time>
      </trkpt>
      <trkpt lat="42.61189" lon="1.41361">
        <ele>2239</ele>
        <time>2021-06-19T16:50:13Z</time>
      </trkpt>
      <trkpt lat="42.61175" lon="1.41378">
        <ele>2243</ele>
        <time>2021-06-19T16:50:17Z</time>
      </trkpt>
      <trkpt lat="42.61134" lon="1.41417">
        <ele>2257</ele>
        <time>2021-06-19T16:50:29Z</time>
      </trkpt>
      <trkpt lat="42.61118" lon="1.41439">
        <ele>2260</ele>
        <time>2021-06-19T16:50:34Z</time>
      </trkpt>
      <trkpt lat="42.61097" lon="1.41456">
        <ele>2266</ele>
        <time>2021-06-19T16:50:40Z</time>
      </trkpt>
      <trkpt lat="42.61078" lon="1.41489">
        <ele>2270</ele>
        <time>2021-06-19T16:50:47Z</time>
      </trkpt>
      <trkpt lat="42.6107" lon="1.41497">
        <ele>2272</ele>
        <time>2021-06-19T16:50:49Z</time>
      </trkpt>
      <trkpt lat="42.61051" lon="1.41504">
        <ele>2278</ele>
        <time>2021-06-19T16:50:54Z</time>
      </trkpt>
      <trkpt lat="42.61038" lon="1.41513">
        <ele>2282</ele>
        <time>2021-06-19T16:50:57Z</time>
      </trkpt>
      <trkpt lat="42.61015" lon="1.41544">
        <ele>2286</ele>
        <time>2021-06-19T16:51:05Z</time>
      </trkpt>
      <trkpt lat="42.61002" lon="1.41568">
        <ele>2287</ele>
        <time>2021-06-19T16:51:10Z</time>
      </trkpt>
      <trkpt lat="42.60976" lon="1.41589">
        <ele>2293</ele>
        <time>2021-06-19T16:51:17Z</time>
      </trkpt>
      <trkpt lat="42.60946" lon="1.41625">
        <ele>2297</ele>
        <time>2021-06-19T16:51:27Z</time>
      </trkpt>
      <trkpt lat="42.60929" lon="1.41652">
        <ele>2298</ele>
        <time>2021-06-19T16:51:33Z</time>
      </trkpt>
      <trkpt lat="42.6092" lon="1.4166">
        <ele>2301</ele>
        <time>2021-06-19T16:51:35Z</time>
      </trkpt>
      <trkpt lat="42.60902" lon="1.41667">
        <ele>2304</ele>
        <time>2021-06-19T16:51:40Z</time>
      </trkpt>
      <trkpt lat="42.60886" lon="1.41683">
        <ele>2305</ele>
        <time>2021-06-19T16:51:44Z</time>
      </trkpt>
      <trkpt lat="42.60864" lon="1.417">
        <ele>2307</ele>
        <time>2021-06-19T16:51:50Z</time>
      </trkpt>
      <trkpt lat="42.60845" lon="1.41709">
        <ele>2310</ele>
        <time>2021-06-19T16:51:55Z</time>
      </trkpt>
      <trkpt lat="42.60821" lon="1.41712">
        <ele>2312</ele>
        <time>2021-06-19T16:52:00Z</time>
      </trkpt>
      <trkpt lat="42.6079" lon="1.41701">
        <ele>2315</ele>
        <time>2021-06-19T16:52:08Z</time>
      </trkpt>
      <trkpt lat="42.60768" lon="1.41699">
        <ele>2316</ele>
        <time>2021-06-19T16:52:13Z</time>
      </trkpt>
      <trkpt lat="42.60756" lon="1.41695">
        <ele>2317</ele>
        <time>2021-06-19T16:52:16Z</time>
      </trkpt>
      <trkpt lat="42.60743" lon="1.41686">
        <ele>2319</ele>
        <time>2021-06-19T16:52:19Z</time>
      </trkpt>
      <trkpt lat="42.60731" lon="1.41682">
        <ele>2321</ele>
        <time>2021-06-19T16:52:22Z</time>
      </trkpt>
      <trkpt lat="42.6072" lon="1.41685">
        <ele>2322</ele>
        <time>2021-06-19T16:52:25Z</time>
      </trkpt>
      <trkpt lat="42.60686" lon="1.4171">
        <ele>2324</ele>
        <time>2021-06-19T16:52:34Z</time>
      </trkpt>
      <trkpt lat="42.60656" lon="1.41718">
        <ele>2328</ele>
        <time>2021-06-19T16:52:41Z</time>
      </trkpt>
      <trkpt lat="42.60649" lon="1.41722">
        <ele>2330</ele>
        <time>2021-06-19T16:52:43Z</time>
      </trkpt>
      <trkpt lat="42.60607" lon="1.4176">
        <ele>2336</ele>
        <time>2021-06-19T16:52:55Z</time>
      </trkpt>
      <trkpt lat="42.60589" lon="1.41773">
        <ele>2338</ele>
        <time>2021-06-19T16:52:59Z</time>
      </trkpt>
      <trkpt lat="42.60568" lon="1.4178">
        <ele>2341</ele>
        <time>2021-06-19T16:53:04Z</time>
      </trkpt>
      <trkpt lat="42.6053" lon="1.41782">
        <ele>2350</ele>
        <time>2021-06-19T16:53:13Z</time>
      </trkpt>
      <trkpt lat="42.60523" lon="1.41787">
        <ele>2351</ele>
        <time>2021-06-19T16:53:15Z</time>
      </trkpt>
      <trkpt lat="42.60509" lon="1.4181">
        <ele>2351</ele>
        <time>2021-06-19T16:53:20Z</time>
      </trkpt>
      <trkpt lat="42.60502" lon="1.41816">
        <ele>2352</ele>
        <time>2021-06-19T16:53:22Z</time>
      </trkpt>
      <trkpt lat="42.60477" lon="1.41821">
        <ele>2355</ele>
        <time>2021-06-19T16:53:28Z</time>
      </trkpt>
      <trkpt lat="42.60445" lon="1.41836">
        <ele>2359</ele>
        <time>2021-06-19T16:53:36Z</time>
      </trkpt>
      <trkpt lat="42.60413" lon="1.41857">
        <ele>2362</ele>
        <time>2021-06-19T16:53:44Z</time>
      </trkpt>
      <trkpt lat="42.60366" lon="1.41876">
        <ele>2366</ele>
        <time>2021-06-19T16:53:56Z</time>
      </trkpt>
      <trkpt lat="42.60345" lon="1.41895">
        <ele>2368</ele>
        <time>2021-06-19T16:54:02Z</time>
      </trkpt>
      <trkpt lat="42.60292" lon="1.41923">
        <ele>2372</ele>
        <time>2021-06-19T16:54:15Z</time>
      </trkpt>
      <trkpt lat="42.60287" lon="1.41929">
        <ele>2372</ele>
        <time>2021-06-19T16:54:16Z</time>
      </trkpt>
      <trkpt lat="42.60278" lon="1.41965">
        <ele>2373</ele>
        <time>2021-06-19T16:54:23Z</time>
      </trkpt>
      <trkpt lat="42.60251" lon="1.42">
        <ele>2376</ele>
        <time>2021-06-19T16:54:32Z</time>
      </trkpt>
      <trkpt lat="42.60229" lon="1.42048">
        <ele>2375</ele>
        <time>2021-06-19T16:54:41Z</time>
      </trkpt>
      <trkpt lat="42.60195" lon="1.42075">
        <ele>2374</ele>
        <time>2021-06-19T16:54:51Z</time>
      </trkpt>
      <trkpt lat="42.60171" lon="1.42118">
        <ele>2373</ele>
        <time>2021-06-19T16:55:00Z</time>
      </trkpt>
      <trkpt lat="42.60165" lon="1.42139">
        <ele>2372</ele>
        <time>2021-06-19T16:55:04Z</time>
      </trkpt>
      <trkpt lat="42.60161" lon="1.42188">
        <ele>2373</ele>
        <time>2021-06-19T16:55:12Z</time>
      </trkpt>
      <trkpt lat="42.6015" lon="1.42211">
        <ele>2376</ele>
        <time>2021-06-19T16:55:17Z</time>
      </trkpt>
      <trkpt lat="42.60137" lon="1.42231">
        <ele>2380</ele>
        <time>2021-06-19T16:55:22Z</time>
      </trkpt>
      <trkpt lat="42.60119" lon="1.42305">
        <ele>2392</ele>
        <time>2021-06-19T16:55:35Z</time>
      </trkpt>
      <trkpt lat="42.60119" lon="1.42339">
        <ele>2397</ele>
        <time>2021-06-19T16:55:41Z</time>
      </trkpt>
      <trkpt lat="42.60114" lon="1.42404">
        <ele>2409</ele>
        <time>2021-06-19T16:55:52Z</time>
      </trkpt>
      <trkpt lat="42.6011" lon="1.42417">
        <ele>2411</ele>
        <time>2021-06-19T16:55:54Z</time>
      </trkpt>
      <trkpt lat="42.60075" lon="1.42491">
        <ele>2423</ele>
        <time>2021-06-19T16:56:10Z</time>
      </trkpt>
      <trkpt lat="42.60065" lon="1.4253">
        <ele>2426</ele>
        <time>2021-06-19T16:56:17Z</time>
      </trkpt>
      <trkpt lat="42.60054" lon="1.42541">
        <ele>2428</ele>
        <time>2021-06-19T16:56:20Z</time>
      </trkpt>
      <trkpt lat="42.60027" lon="1.42536">
        <ele>2432</ele>
        <time>2021-06-19T16:56:26Z</time>
      </trkpt>
      <trkpt lat="42.60013" lon="1.4254">
        <ele>2434</ele>
        <time>2021-06-19T16:56:30Z</time>
      </trkpt>
      <trkpt lat="42.59999" lon="1.4256">
        <ele>2437</ele>
        <time>2021-06-19T16:56:34Z</time>
      </trkpt>
      <trkpt lat="42.59985" lon="1.42598">
        <ele>2439</ele>
        <time>2021-06-19T16:56:42Z</time>
      </trkpt>
      <trkpt lat="42.59976" lon="1.42613">
        <ele>2440</ele>
        <time>2021-06-19T16:56:45Z</time>
      </trkpt>
      <trkpt lat="42.59953" lon="1.42638">
        <ele>2440</ele>
        <time>2021-06-19T16:56:52Z</time>
      </trkpt>
      <trkpt lat="42.59938" lon="1.42645">
        <ele>2441</ele>
        <time>2021-06-19T16:56:55Z</time>
      </trkpt>
      <trkpt lat="42.59912" lon="1.42652">
        <ele>2444</ele>
        <time>2021-06-19T16:57:02Z</time>
      </trkpt>
      <trkpt lat="42.59876" lon="1.42657">
        <ele>2453</ele>
        <time>2021-06-19T16:57:10Z</time>
      </trkpt>
      <trkpt lat="42.59863" lon="1.42657">
        <ele>2457</ele>
        <time>2021-06-19T16:57:13Z</time>
      </trkpt>
      <trkpt lat="42.59824" lon="1.42646">
        <ele>2471</ele>
        <time>2021-06-19T16:57:22Z</time>
      </trkpt>
      <trkpt lat="42.59818" lon="1.42648">
        <ele>2472</ele>
        <time>2021-06-19T16:57:24Z</time>
      </trkpt>
      <trkpt lat="42.59811" lon="1.42654">
        <ele>2473</ele>
        <time>2021-06-19T16:57:26Z</time>
      </trkpt>
      <trkpt lat="42.59772" lon="1.42709">
        <ele>2477</ele>
        <time>2021-06-19T16:57:39Z</time>
      </trkpt>
      <trkpt lat="42.59744" lon="1.42739">
        <ele>2481</ele>
        <time>2021-06-19T16:57:47Z</time>
      </trkpt>
      <trkpt lat="42.59726" lon="1.42782">
        <ele>2483</ele>
        <time>2021-06-19T16:57:56Z</time>
      </trkpt>
      <trkpt lat="42.59725" lon="1.428">
        <ele>2485</ele>
        <time>2021-06-19T16:57:59Z</time>
      </trkpt>
      <trkpt lat="42.59734" lon="1.42852">
        <ele>2491</ele>
        <time>2021-06-19T16:58:08Z</time>
      </trkpt>
      <trkpt lat="42.59739" lon="1.42859">
        <ele>2492</ele>
        <time>2021-06-19T16:58:10Z</time>
      </trkpt>
      <trkpt lat="42.59752" lon="1.42869">
        <ele>2495</ele>
        <time>2021-06-19T16:58:13Z</time>
      </trkpt>
      <trkpt lat="42.59754" lon="1.42878">
        <ele>2496</ele>
        <time>2021-06-19T16:58:15Z</time>
      </trkpt>
      <trkpt lat="42.59747" lon="1.42932">
        <ele>2506</ele>
        <time>2021-06-19T16:58:24Z</time>
      </trkpt>
      <trkpt lat="42.59758" lon="1.4296">
        <ele>2507</ele>
        <time>2021-06-19T16:58:30Z</time>
      </trkpt>
      <trkpt lat="42.59762" lon="1.42978">
        <ele>2508</ele>
        <time>2021-06-19T16:58:33Z</time>
      </trkpt>
      <trkpt lat="42.59757" lon="1.4299">
        <ele>2510</ele>
        <time>2021-06-19T16:58:35Z</time>
      </trkpt>
      <trkpt lat="42.59747" lon="1.42996">
        <ele>2511</ele>
        <time>2021-06-19T16:58:38Z</time>
      </trkpt>
      <trkpt lat="42.59742" lon="1.43002">
        <ele>2510</ele>
        <time>2021-06-19T16:58:39Z</time>
      </trkpt>
      <trkpt lat="42.59737" lon="1.43034">
        <ele>2505</ele>
        <time>2021-06-19T16:58:45Z</time>
      </trkpt>
      <trkpt lat="42.59739" lon="1.43083">
        <ele>2499</ele>
        <time>2021-06-19T16:58:54Z</time>
      </trkpt>
      <trkpt lat="42.59745" lon="1.43101">
        <ele>2498</ele>
        <time>2021-06-19T16:58:57Z</time>
      </trkpt>
      <trkpt lat="42.59759" lon="1.4312">
        <ele>2496</ele>
        <time>2021-06-19T16:59:02Z</time>
      </trkpt>
      <trkpt lat="42.59774" lon="1.43153">
        <ele>2492</ele>
        <time>2021-06-19T16:59:08Z</time>
      </trkpt>
      <trkpt lat="42.59783" lon="1.43182">
        <ele>2492</ele>
        <time>2021-06-19T16:59:14Z</time>
      </trkpt>
      <trkpt lat="42.59781" lon="1.43192">
        <ele>2493</ele>
        <time>2021-06-19T16:59:15Z</time>
      </trkpt>
      <trkpt lat="42.59773" lon="1.43208">
        <ele>2494</ele>
        <time>2021-06-19T16:59:19Z</time>
      </trkpt>
      <trkpt lat="42.59732" lon="1.43262">
        <ele>2497</ele>
        <time>2021-06-19T16:59:32Z</time>
      </trkpt>
      <trkpt lat="42.59707" lon="1.43288">
        <ele>2504</ele>
        <time>2021-06-19T16:59:39Z</time>
      </trkpt>
      <trkpt lat="42.59697" lon="1.43292">
        <ele>2505</ele>
        <time>2021-06-19T16:59:42Z</time>
      </trkpt>
      <trkpt lat="42.59672" lon="1.4329">
        <ele>2504</ele>
        <time>2021-06-19T16:59:48Z</time>
      </trkpt>
      <trkpt lat="42.59644" lon="1.43269">
        <ele>2496</ele>
        <time>2021-06-19T16:59:55Z</time>
      </trkpt>
      <trkpt lat="42.59634" lon="1.43266">
        <ele>2496</ele>
        <time>2021-06-19T16:59:58Z</time>
      </trkpt>
      <trkpt lat="42.59627" lon="1.43267">
        <ele>2496</ele>
        <time>2021-06-19T16:59:59Z</time>
      </trkpt>
      <trkpt lat="42.59617" lon="1.43273">
        <ele>2499</ele>
        <time>2021-06-19T17:00:02Z</time>
      </trkpt>
      <trkpt lat="42.59612" lon="1.43279">
        <ele>2501</ele>
        <time>2021-06-19T17:00:03Z</time>
      </trkpt>
      <trkpt lat="42.59607" lon="1.43297">
        <ele>2507</ele>
        <time>2021-06-19T17:00:07Z</time>
      </trkpt>
      <trkpt lat="42.59606" lon="1.43344">
        <ele>2524</ele>
        <time>2021-06-19T17:00:15Z</time>
      </trkpt>
      <trkpt lat="42.59608" lon="1.43366">
        <ele>2533</ele>
        <time>2021-06-19T17:00:19Z</time>
      </trkpt>
      <trkpt lat="42.59619" lon="1.43415">
        <ele>2554</ele>
        <time>2021-06-19T17:00:27Z</time>
      </trkpt>
      <trkpt lat="42.59619" lon="1.43447">
        <ele>2561</ele>
        <time>2021-06-19T17:00:33Z</time>
      </trkpt>
      <trkpt lat="42.59608" lon="1.43476">
        <ele>2565</ele>
        <time>2021-06-19T17:00:38Z</time>
      </trkpt>
      <trkpt lat="42.59602" lon="1.43521">
        <ele>2570</ele>
        <time>2021-06-19T17:00:46Z</time>
      </trkpt>
      <trkpt lat="42.59583" lon="1.4358">
        <ele>2574</ele>
        <time>2021-06-19T17:00:57Z</time>
      </trkpt>
      <trkpt lat="42.59578" lon="1.43587">
        <ele>2575</ele>
        <time>2021-06-19T17:00:59Z</time>
      </trkpt>
      <trkpt lat="42.59566" lon="1.43593">
        <ele>2578</ele>
        <time>2021-06-19T17:01:02Z</time>
      </trkpt>
      <trkpt lat="42.59558" lon="1.43591">
        <ele>2579</ele>
        <time>2021-06-19T17:01:04Z</time>
      </trkpt>
      <trkpt lat="42.5954" lon="1.4357">
        <ele>2578</ele>
        <time>2021-06-19T17:01:09Z</time>
      </trkpt>
      <trkpt lat="42.59535" lon="1.43567">
        <ele>2579</ele>
        <time>2021-06-19T17:01:11Z</time>
      </trkpt>
      <trkpt lat="42.59524" lon="1.4357">
        <ele>2580</ele>
        <time>2021-06-19T17:01:13Z</time>
      </trkpt>
      <trkpt lat="42.5951" lon="1.4358">
        <ele>2584</ele>
        <time>2021-06-19T17:01:17Z</time>
      </trkpt>
      <trkpt lat="42.59476" lon="1.43667">
        <ele>2612</ele>
        <time>2021-06-19T17:01:34Z</time>
      </trkpt>
      <trkpt lat="42.59364" lon="1.43723">
        <ele>2681</ele>
        <time>2021-06-19T17:02:02Z</time>
      </trkpt>
      <trkpt lat="42.59299" lon="1.43748">
        <ele>2716</ele>
        <time>2021-06-19T17:02:18Z</time>
      </trkpt>
      <trkpt lat="42.59263" lon="1.43864">
        <ele>2772</ele>
        <time>2021-06-19T17:02:39Z</time>
      </trkpt>
      <trkpt lat="42.5926" lon="1.43868">
        <ele>2772</ele>
        <time>2021-06-19T17:02:40Z</time>
      </trkpt>
      <trkpt lat="42.593" lon="1.43909">
        <ele>2787</ele>
        <time>2021-06-19T17:02:52Z</time>
      </trkpt>
      <trkpt lat="42.59319" lon="1.43941">
        <ele>2798</ele>
        <time>2021-06-19T17:02:59Z</time>
      </trkpt>
      <trkpt lat="42.5934" lon="1.43959">
        <ele>2807</ele>
        <time>2021-06-19T17:03:05Z</time>
      </trkpt>
      <trkpt lat="42.59359" lon="1.43965">
        <ele>2812</ele>
        <time>2021-06-19T17:03:09Z</time>
      </trkpt>
      <trkpt lat="42.59371" lon="1.43966">
        <ele>2815</ele>
        <time>2021-06-19T17:03:12Z</time>
      </trkpt>
      <trkpt lat="42.59397" lon="1.43975">
        <ele>2826</ele>
        <time>2021-06-19T17:03:18Z</time>
      </trkpt>
      <trkpt lat="42.59407" lon="1.43985">
        <ele>2833</ele>
        <time>2021-06-19T17:03:21Z</time>
      </trkpt>
      <trkpt lat="42.59409" lon="1.44012">
        <ele>2840</ele>
        <time>2021-06-19T17:03:26Z</time>
      </trkpt>
      <trkpt lat="42.59427" lon="1.44023">
        <ele>2840</ele>
        <time>2021-06-19T17:03:31Z</time>
      </trkpt>
      <trkpt lat="42.5944" lon="1.44044">
        <ele>2836</ele>
        <time>2021-06-19T17:03:35Z</time>
      </trkpt>
      <trkpt lat="42.59444" lon="1.44057">
        <ele>2835</ele>
        <time>2021-06-19T17:03:38Z</time>
      </trkpt>
      <trkpt lat="42.59421" lon="1.44078">
        <ele>2839</ele>
        <time>2021-06-19T17:03:44Z</time>
      </trkpt>
      <trkpt lat="42.59412" lon="1.4409">
        <ele>2834</ele>
        <time>2021-06-19T17:03:47Z</time>
      </trkpt>
      <trkpt lat="42.59408" lon="1.4409">
        <ele>2834</ele>
        <time>2021-06-19T17:03:48Z</time>
      </trkpt>
      <trkpt lat="42.59396" lon="1.44073">
        <ele>2834</ele>
        <time>2021-06-19T17:03:52Z</time>
      </trkpt>
      <trkpt lat="42.59391" lon="1.44072">
        <ele>2832</ele>
        <time>2021-06-19T17:03:53Z</time>
      </trkpt>
      <trkpt lat="42.59359" lon="1.44114">
        <ele>2822</ele>
        <time>2021-06-19T17:04:04Z</time>
      </trkpt>
      <trkpt lat="42.59353" lon="1.44118">
        <ele>2823</ele>
        <time>2021-06-19T17:04:05Z</time>
      </trkpt>
      <trkpt lat="42.59345" lon="1.44131">
        <ele>2824</ele>
        <time>2021-06-19T17:04:08Z</time>
      </trkpt>
      <trkpt lat="42.59344" lon="1.44139">
        <ele>2825</ele>
        <time>2021-06-19T17:04:10Z</time>
      </trkpt>
      <trkpt lat="42.5935" lon="1.44149">
        <ele>2824</ele>
        <time>2021-06-19T17:04:12Z</time>
      </trkpt>
      <trkpt lat="42.59357" lon="1.44152">
        <ele>2822</ele>
        <time>2021-06-19T17:04:14Z</time>
      </trkpt>
      <trkpt lat="42.59364" lon="1.44149">
        <ele>2820</ele>
        <time>2021-06-19T17:04:15Z</time>
      </trkpt>
      <trkpt lat="42.59376" lon="1.4415">
        <ele>2816</ele>
        <time>2021-06-19T17:04:18Z</time>
      </trkpt>
      <trkpt lat="42.59402" lon="1.44158">
        <ele>2805</ele>
        <time>2021-06-19T17:04:24Z</time>
      </trkpt>
      <trkpt lat="42.59412" lon="1.44164">
        <ele>2798</ele>
        <time>2021-06-19T17:04:27Z</time>
      </trkpt>
      <trkpt lat="42.59418" lon="1.44192">
        <ele>2783</ele>
        <time>2021-06-19T17:04:32Z</time>
      </trkpt>
      <trkpt lat="42.59426" lon="1.44215">
        <ele>2771</ele>
        <time>2021-06-19T17:04:36Z</time>
      </trkpt>
      <trkpt lat="42.59429" lon="1.44236">
        <ele>2760</ele>
        <time>2021-06-19T17:04:40Z</time>
      </trkpt>
      <trkpt lat="42.59435" lon="1.44242">
        <ele>2754</ele>
        <time>2021-06-19T17:04:42Z</time>
      </trkpt>
      <trkpt lat="42.5945" lon="1.44285">
        <ele>2737</ele>
        <time>2021-06-19T17:04:50Z</time>
      </trkpt>
      <trkpt lat="42.5947" lon="1.44317">
        <ele>2722</ele>
        <time>2021-06-19T17:04:57Z</time>
      </trkpt>
      <trkpt lat="42.59498" lon="1.44389">
        <ele>2697</ele>
        <time>2021-06-19T17:05:11Z</time>
      </trkpt>
      <trkpt lat="42.5951" lon="1.44412">
        <ele>2691</ele>
        <time>2021-06-19T17:05:16Z</time>
      </trkpt>
      <trkpt lat="42.59515" lon="1.44432">
        <ele>2687</ele>
        <time>2021-06-19T17:05:20Z</time>
      </trkpt>
      <trkpt lat="42.59514" lon="1.44436">
        <ele>2686</ele>
        <time>2021-06-19T17:05:20Z</time>
      </trkpt>
      <trkpt lat="42.59503" lon="1.44446">
        <ele>2683</ele>
        <time>2021-06-19T17:05:23Z</time>
      </trkpt>
      <trkpt lat="42.59501" lon="1.44462">
        <ele>2679</ele>
        <time>2021-06-19T17:05:26Z</time>
      </trkpt>
      <trkpt lat="42.59502" lon="1.44473">
        <ele>2676</ele>
        <time>2021-06-19T17:05:28Z</time>
      </trkpt>
      <trkpt lat="42.59506" lon="1.44476">
        <ele>2675</ele>
        <time>2021-06-19T17:05:29Z</time>
      </trkpt>
      <trkpt lat="42.59512" lon="1.44475">
        <ele>2676</ele>
        <time>2021-06-19T17:05:31Z</time>
      </trkpt>
      <trkpt lat="42.59515" lon="1.4448">
        <ele>2675</ele>
        <time>2021-06-19T17:05:32Z</time>
      </trkpt>
      <trkpt lat="42.59515" lon="1.44491">
        <ele>2672</ele>
        <time>2021-06-19T17:05:34Z</time>
      </trkpt>
      <trkpt lat="42.59514" lon="1.44501">
        <ele>2669</ele>
        <time>2021-06-19T17:05:35Z</time>
      </trkpt>
      <trkpt lat="42.59508" lon="1.44511">
        <ele>2666</ele>
        <time>2021-06-19T17:05:37Z</time>
      </trkpt>
      <trkpt lat="42.59504" lon="1.44524">
        <ele>2663</ele>
        <time>2021-06-19T17:05:40Z</time>
      </trkpt>
      <trkpt lat="42.59501" lon="1.4455">
        <ele>2656</ele>
        <time>2021-06-19T17:05:44Z</time>
      </trkpt>
      <trkpt lat="42.59502" lon="1.44556">
        <ele>2654</ele>
        <time>2021-06-19T17:05:45Z</time>
      </trkpt>
      <trkpt lat="42.59508" lon="1.44565">
        <ele>2654</ele>
        <time>2021-06-19T17:05:48Z</time>
      </trkpt>
      <trkpt lat="42.59503" lon="1.44586">
        <ele>2647</ele>
        <time>2021-06-19T17:05:51Z</time>
      </trkpt>
      <trkpt lat="42.59511" lon="1.44617">
        <ele>2644</ele>
        <time>2021-06-19T17:05:57Z</time>
      </trkpt>
      <trkpt lat="42.59511" lon="1.44627">
        <ele>2642</ele>
        <time>2021-06-19T17:05:59Z</time>
      </trkpt>
      <trkpt lat="42.59507" lon="1.44644">
        <ele>2637</ele>
        <time>2021-06-19T17:06:02Z</time>
      </trkpt>
      <trkpt lat="42.59485" lon="1.4469">
        <ele>2627</ele>
        <time>2021-06-19T17:06:11Z</time>
      </trkpt>
      <trkpt lat="42.59484" lon="1.44703">
        <ele>2625</ele>
        <time>2021-06-19T17:06:13Z</time>
      </trkpt>
      <trkpt lat="42.59489" lon="1.44718">
        <ele>2621</ele>
        <time>2021-06-19T17:06:16Z</time>
      </trkpt>
      <trkpt lat="42.59489" lon="1.4473">
        <ele>2619</ele>
        <time>2021-06-19T17:06:18Z</time>
      </trkpt>
      <trkpt lat="42.59479" lon="1.44773">
        <ele>2608</ele>
        <time>2021-06-19T17:06:26Z</time>
      </trkpt>
      <trkpt lat="42.59484" lon="1.44818">
        <ele>2594</ele>
        <time>2021-06-19T17:06:34Z</time>
      </trkpt>
      <trkpt lat="42.59479" lon="1.44844">
        <ele>2586</ele>
        <time>2021-06-19T17:06:39Z</time>
      </trkpt>
      <trkpt lat="42.59481" lon="1.44866">
        <ele>2581</ele>
        <time>2021-06-19T17:06:42Z</time>
      </trkpt>
      <trkpt lat="42.59474" lon="1.44885">
        <ele>2574</ele>
        <time>2021-06-19T17:06:46Z</time>
      </trkpt>
      <trkpt lat="42.59474" lon="1.44905">
        <ele>2569</ele>
        <time>2021-06-19T17:06:49Z</time>
      </trkpt>
      <trkpt lat="42.59463" lon="1.44916">
        <ele>2564</ele>
        <time>2021-06-19T17:06:53Z</time>
      </trkpt>
      <trkpt lat="42.59458" lon="1.44931">
        <ele>2556</ele>
        <time>2021-06-19T17:06:55Z</time>
      </trkpt>
      <trkpt lat="42.59455" lon="1.44956">
        <ele>2544</ele>
        <time>2021-06-19T17:07:00Z</time>
      </trkpt>
      <trkpt lat="42.59427" lon="1.44998">
        <ele>2520</ele>
        <time>2021-06-19T17:07:10Z</time>
      </trkpt>
      <trkpt lat="42.5942" lon="1.45019">
        <ele>2505</ele>
        <time>2021-06-19T17:07:14Z</time>
      </trkpt>
      <trkpt lat="42.59406" lon="1.45043">
        <ele>2491</ele>
        <time>2021-06-19T17:07:19Z</time>
      </trkpt>
      <trkpt lat="42.59407" lon="1.45061">
        <ele>2480</ele>
        <time>2021-06-19T17:07:22Z</time>
      </trkpt>
      <trkpt lat="42.59402" lon="1.45072">
        <ele>2474</ele>
        <time>2021-06-19T17:07:24Z</time>
      </trkpt>
      <trkpt lat="42.59358" lon="1.45128">
        <ele>2456</ele>
        <time>2021-06-19T17:07:38Z</time>
      </trkpt>
      <trkpt lat="42.59361" lon="1.45152">
        <ele>2444</ele>
        <time>2021-06-19T17:07:42Z</time>
      </trkpt>
      <trkpt lat="42.59351" lon="1.45166">
        <ele>2439</ele>
        <time>2021-06-19T17:07:46Z</time>
      </trkpt>
      <trkpt lat="42.59345" lon="1.45187">
        <ele>2430</ele>
        <time>2021-06-19T17:07:50Z</time>
      </trkpt>
      <trkpt lat="42.59336" lon="1.45207">
        <ele>2423</ele>
        <time>2021-06-19T17:07:54Z</time>
      </trkpt>
      <trkpt lat="42.59333" lon="1.4522">
        <ele>2418</ele>
        <time>2021-06-19T17:07:56Z</time>
      </trkpt>
      <trkpt lat="42.59335" lon="1.4523">
        <ele>2413</ele>
        <time>2021-06-19T17:07:58Z</time>
      </trkpt>
      <trkpt lat="42.59332" lon="1.45259">
        <ele>2402</ele>
        <time>2021-06-19T17:08:03Z</time>
      </trkpt>
      <trkpt lat="42.59335" lon="1.45284">
        <ele>2391</ele>
        <time>2021-06-19T17:08:07Z</time>
      </trkpt>
      <trkpt lat="42.59341" lon="1.45304">
        <ele>2383</ele>
        <time>2021-06-19T17:08:11Z</time>
      </trkpt>
      <trkpt lat="42.59321" lon="1.4534">
        <ele>2373</ele>
        <time>2021-06-19T17:08:19Z</time>
      </trkpt>
      <trkpt lat="42.59319" lon="1.4535">
        <ele>2369</ele>
        <time>2021-06-19T17:08:20Z</time>
      </trkpt>
      <trkpt lat="42.59326" lon="1.45362">
        <ele>2363</ele>
        <time>2021-06-19T17:08:23Z</time>
      </trkpt>
      <trkpt lat="42.59318" lon="1.45373">
        <ele>2361</ele>
        <time>2021-06-19T17:08:26Z</time>
      </trkpt>
      <trkpt lat="42.59316" lon="1.4538">
        <ele>2359</ele>
        <time>2021-06-19T17:08:27Z</time>
      </trkpt>
      <trkpt lat="42.59317" lon="1.45409">
        <ele>2347</ele>
        <time>2021-06-19T17:08:32Z</time>
      </trkpt>
      <trkpt lat="42.59307" lon="1.45469">
        <ele>2334</ele>
        <time>2021-06-19T17:08:43Z</time>
      </trkpt>
      <trkpt lat="42.59312" lon="1.45496">
        <ele>2326</ele>
        <time>2021-06-19T17:08:47Z</time>
      </trkpt>
      <trkpt lat="42.59322" lon="1.45514">
        <ele>2317</ele>
        <time>2021-06-19T17:08:51Z</time>
      </trkpt>
      <trkpt lat="42.59334" lon="1.45527">
        <ele>2309</ele>
        <time>2021-06-19T17:08:55Z</time>
      </trkpt>
      <trkpt lat="42.5935" lon="1.45539">
        <ele>2303</ele>
        <time>2021-06-19T17:08:59Z</time>
      </trkpt>
      <trkpt lat="42.59357" lon="1.45548">
        <ele>2299</ele>
        <time>2021-06-19T17:09:01Z</time>
      </trkpt>
      <trkpt lat="42.59369" lon="1.45581">
        <ele>2289</ele>
        <time>2021-06-19T17:09:08Z</time>
      </trkpt>
      <trkpt lat="42.59375" lon="1.45588">
        <ele>2287</ele>
        <time>2021-06-19T17:09:10Z</time>
      </trkpt>
      <trkpt lat="42.59374" lon="1.45598">
        <ele>2282</ele>
        <time>2021-06-19T17:09:11Z</time>
      </trkpt>
      <trkpt lat="42.59377" lon="1.45608">
        <ele>2277</ele>
        <time>2021-06-19T17:09:13Z</time>
      </trkpt>
      <trkpt lat="42.59383" lon="1.45619">
        <ele>2273</ele>
        <time>2021-06-19T17:09:15Z</time>
      </trkpt>
      <trkpt lat="42.59389" lon="1.45623">
        <ele>2272</ele>
        <time>2021-06-19T17:09:17Z</time>
      </trkpt>
      <trkpt lat="42.59393" lon="1.45636">
        <ele>2267</ele>
        <time>2021-06-19T17:09:19Z</time>
      </trkpt>
      <trkpt lat="42.59403" lon="1.45648">
        <ele>2265</ele>
        <time>2021-06-19T17:09:23Z</time>
      </trkpt>
      <trkpt lat="42.59407" lon="1.45662">
        <ele>2261</ele>
        <time>2021-06-19T17:09:25Z</time>
      </trkpt>
      <trkpt lat="42.59416" lon="1.45674">
        <ele>2258</ele>
        <time>2021-06-19T17:09:28Z</time>
      </trkpt>
      <trkpt lat="42.59423" lon="1.45698">
        <ele>2248</ele>
        <time>2021-06-19T17:09:33Z</time>
      </trkpt>
      <trkpt lat="42.59435" lon="1.4571">
        <ele>2243</ele>
        <time>2021-06-19T17:09:36Z</time>
      </trkpt>
      <trkpt lat="42.59452" lon="1.45711">
        <ele>2244</ele>
        <time>2021-06-19T17:09:40Z</time>
      </trkpt>
      <trkpt lat="42.59457" lon="1.45718">
        <ele>2241</ele>
        <time>2021-06-19T17:09:42Z</time>
      </trkpt>
      <trkpt lat="42.59452" lon="1.45726">
        <ele>2237</ele>
        <time>2021-06-19T17:09:43Z</time>
      </trkpt>
      <trkpt lat="42.59441" lon="1.45736">
        <ele>2232</ele>
        <time>2021-06-19T17:09:47Z</time>
      </trkpt>
      <trkpt lat="42.59436" lon="1.45737">
        <ele>2231</ele>
        <time>2021-06-19T17:09:48Z</time>
      </trkpt>
      <trkpt lat="42.59421" lon="1.45749">
        <ele>2225</ele>
        <time>2021-06-19T17:09:52Z</time>
      </trkpt>
      <trkpt lat="42.59402" lon="1.45742">
        <ele>2224</ele>
        <time>2021-06-19T17:09:56Z</time>
      </trkpt>
      <trkpt lat="42.59382" lon="1.45745">
        <ele>2217</ele>
        <time>2021-06-19T17:10:01Z</time>
      </trkpt>
      <trkpt lat="42.59377" lon="1.45753">
        <ele>2212</ele>
        <time>2021-06-19T17:10:03Z</time>
      </trkpt>
      <trkpt lat="42.59379" lon="1.45764">
        <ele>2207</ele>
        <time>2021-06-19T17:10:05Z</time>
      </trkpt>
      <trkpt lat="42.59366" lon="1.45794">
        <ele>2187</ele>
        <time>2021-06-19T17:10:11Z</time>
      </trkpt>
      <trkpt lat="42.59338" lon="1.45818">
        <ele>2163</ele>
        <time>2021-06-19T17:10:19Z</time>
      </trkpt>
      <trkpt lat="42.59311" lon="1.45824">
        <ele>2155</ele>
        <time>2021-06-19T17:10:25Z</time>
      </trkpt>
      <trkpt lat="42.59308" lon="1.45859">
        <ele>2136</ele>
        <time>2021-06-19T17:10:31Z</time>
      </trkpt>
      <trkpt lat="42.593" lon="1.45893">
        <ele>2118</ele>
        <time>2021-06-19T17:10:37Z</time>
      </trkpt>
      <trkpt lat="42.59303" lon="1.45901">
        <ele>2116</ele>
        <time>2021-06-19T17:10:39Z</time>
      </trkpt>
      <trkpt lat="42.59293" lon="1.45923">
        <ele>2101</ele>
        <time>2021-06-19T17:10:43Z</time>
      </trkpt>
      <trkpt lat="42.59296" lon="1.45943">
        <ele>2091</ele>
        <time>2021-06-19T17:10:47Z</time>
      </trkpt>
      <trkpt lat="42.59294" lon="1.4598">
        <ele>2070</ele>
        <time>2021-06-19T17:10:53Z</time>
      </trkpt>
      <trkpt lat="42.59288" lon="1.45986">
        <ele>2067</ele>
        <time>2021-06-19T17:10:55Z</time>
      </trkpt>
      <trkpt lat="42.59285" lon="1.46001">
        <ele>2059</ele>
        <time>2021-06-19T17:10:57Z</time>
      </trkpt>
      <trkpt lat="42.5928" lon="1.46011">
        <ele>2056</ele>
        <time>2021-06-19T17:11:00Z</time>
      </trkpt>
      <trkpt lat="42.59263" lon="1.4603">
        <ele>2050</ele>
        <time>2021-06-19T17:11:05Z</time>
      </trkpt>
      <trkpt lat="42.59256" lon="1.46049">
        <ele>2044</ele>
        <time>2021-06-19T17:11:08Z</time>
      </trkpt>
      <trkpt lat="42.59231" lon="1.46086">
        <ele>2032</ele>
        <time>2021-06-19T17:11:17Z</time>
      </trkpt>
      <trkpt lat="42.59214" lon="1.46117">
        <ele>2030</ele>
        <time>2021-06-19T17:11:24Z</time>
      </trkpt>
      <trkpt lat="42.59193" lon="1.46172">
        <ele>2028</ele>
        <time>2021-06-19T17:11:34Z</time>
      </trkpt>
      <trkpt lat="42.59171" lon="1.46166">
        <ele>2028</ele>
        <time>2021-06-19T17:11:39Z</time>
      </trkpt>
      <trkpt lat="42.59156" lon="1.46167">
        <ele>2027</ele>
        <time>2021-06-19T17:11:43Z</time>
      </trkpt>
      <trkpt lat="42.5915" lon="1.46165">
        <ele>2027</ele>
        <time>2021-06-19T17:11:44Z</time>
      </trkpt>
      <trkpt lat="42.5914" lon="1.46167">
        <ele>2026</ele>
        <time>2021-06-19T17:11:47Z</time>
      </trkpt>
      <trkpt lat="42.59119" lon="1.46181">
        <ele>2025</ele>
        <time>2021-06-19T17:11:52Z</time>
      </trkpt>
      <trkpt lat="42.59105" lon="1.46183">
        <ele>2025</ele>
        <time>2021-06-19T17:11:56Z</time>
      </trkpt>
      <trkpt lat="42.59083" lon="1.46193">
        <ele>2024</ele>
        <time>2021-06-19T17:12:01Z</time>
      </trkpt>
      <trkpt lat="42.59073" lon="1.462">
        <ele>2022</ele>
        <time>2021-06-19T17:12:04Z</time>
      </trkpt>
      <trkpt lat="42.59065" lon="1.4621">
        <ele>2022</ele>
        <time>2021-06-19T17:12:06Z</time>
      </trkpt>
      <trkpt lat="42.59062" lon="1.4621">
        <ele>2021</ele>
        <time>2021-06-19T17:12:07Z</time>
      </trkpt>
      <trkpt lat="42.59026" lon="1.46192">
        <ele>2015</ele>
        <time>2021-06-19T17:12:16Z</time>
      </trkpt>
      <trkpt lat="42.59007" lon="1.46188">
        <ele>2011</ele>
        <time>2021-06-19T17:12:20Z</time>
      </trkpt>
      <trkpt lat="42.58988" lon="1.46164">
        <ele>2005</ele>
        <time>2021-06-19T17:12:26Z</time>
      </trkpt>
      <trkpt lat="42.58978" lon="1.4616">
        <ele>2003</ele>
        <time>2021-06-19T17:12:29Z</time>
      </trkpt>
      <trkpt lat="42.58973" lon="1.46163">
        <ele>2001</ele>
        <time>2021-06-19T17:12:30Z</time>
      </trkpt>
      <trkpt lat="42.58968" lon="1.46171">
        <ele>1999</ele>
        <time>2021-06-19T17:12:32Z</time>
      </trkpt>
      <trkpt lat="42.58964" lon="1.46194">
        <ele>1998</ele>
        <time>2021-06-19T17:12:36Z</time>
      </trkpt>
      <trkpt lat="42.58957" lon="1.46206">
        <ele>1996</ele>
        <time>2021-06-19T17:12:39Z</time>
      </trkpt>
      <trkpt lat="42.58942" lon="1.46248">
        <ele>1988</ele>
        <time>2021-06-19T17:12:47Z</time>
      </trkpt>
      <trkpt lat="42.58926" lon="1.46272">
        <ele>1987</ele>
        <time>2021-06-19T17:12:52Z</time>
      </trkpt>
      <trkpt lat="42.58873" lon="1.4632">
        <ele>1977</ele>
        <time>2021-06-19T17:13:07Z</time>
      </trkpt>
      <trkpt lat="42.58837" lon="1.46367">
        <ele>1974</ele>
        <time>2021-06-19T17:13:19Z</time>
      </trkpt>
      <trkpt lat="42.58828" lon="1.46375">
        <ele>1974</ele>
        <time>2021-06-19T17:13:21Z</time>
      </trkpt>
      <trkpt lat="42.58796" lon="1.46393">
        <ele>1969</ele>
        <time>2021-06-19T17:13:29Z</time>
      </trkpt>
      <trkpt lat="42.58724" lon="1.46469">
        <ele>1955</ele>
        <time>2021-06-19T17:13:51Z</time>
      </trkpt>
      <trkpt lat="42.5872" lon="1.46476">
        <ele>1954</ele>
        <time>2021-06-19T17:13:52Z</time>
      </trkpt>
      <trkpt lat="42.587" lon="1.46592">
        <ele>1927</ele>
        <time>2021-06-19T17:14:13Z</time>
      </trkpt>
      <trkpt lat="42.58695" lon="1.4667">
        <ele>1912</ele>
        <time>2021-06-19T17:14:26Z</time>
      </trkpt>
      <trkpt lat="42.58685" lon="1.46686">
        <ele>1907</ele>
        <time>2021-06-19T17:14:30Z</time>
      </trkpt>
      <trkpt lat="42.58681" lon="1.46717">
        <ele>1903</ele>
        <time>2021-06-19T17:14:35Z</time>
      </trkpt>
      <trkpt lat="42.58669" lon="1.46735">
        <ele>1896</ele>
        <time>2021-06-19T17:14:39Z</time>
      </trkpt>
      <trkpt lat="42.58636" lon="1.46742">
        <ele>1886</ele>
        <time>2021-06-19T17:14:47Z</time>
      </trkpt>
      <trkpt lat="42.58616" lon="1.46749">
        <ele>1879</ele>
        <time>2021-06-19T17:14:52Z</time>
      </trkpt>
      <trkpt lat="42.58598" lon="1.46766">
        <ele>1872</ele>
        <time>2021-06-19T17:14:57Z</time>
      </trkpt>
      <trkpt lat="42.58572" lon="1.46825">
        <ele>1857</ele>
        <time>2021-06-19T17:15:09Z</time>
      </trkpt>
      <trkpt lat="42.58542" lon="1.46844">
        <ele>1838</ele>
        <time>2021-06-19T17:15:17Z</time>
      </trkpt>
      <trkpt lat="42.58545" lon="1.46895">
        <ele>1837</ele>
        <time>2021-06-19T17:15:25Z</time>
      </trkpt>
      <trkpt lat="42.58528" lon="1.46969">
        <ele>1833</ele>
        <time>2021-06-19T17:15:39Z</time>
      </trkpt>
      <trkpt lat="42.58522" lon="1.46987">
        <ele>1833</ele>
        <time>2021-06-19T17:15:42Z</time>
      </trkpt>
      <trkpt lat="42.58481" lon="1.47069">
        <ele>1831</ele>
        <time>2021-06-19T17:15:59Z</time>
      </trkpt>
      <trkpt lat="42.58474" lon="1.47075">
        <ele>1830</ele>
        <time>2021-06-19T17:16:01Z</time>
      </trkpt>
      <trkpt lat="42.58467" lon="1.47077">
        <ele>1827</ele>
        <time>2021-06-19T17:16:03Z</time>
      </trkpt>
      <trkpt lat="42.58446" lon="1.47073">
        <ele>1817</ele>
        <time>2021-06-19T17:16:08Z</time>
      </trkpt>
      <trkpt lat="42.58432" lon="1.47076">
        <ele>1812</ele>
        <time>2021-06-19T17:16:11Z</time>
      </trkpt>
      <trkpt lat="42.58419" lon="1.47087">
        <ele>1810</ele>
        <time>2021-06-19T17:16:15Z</time>
      </trkpt>
      <trkpt lat="42.58408" lon="1.47109">
        <ele>1809</ele>
        <time>2021-06-19T17:16:19Z</time>
      </trkpt>
      <trkpt lat="42.58381" lon="1.47147">
        <ele>1804</ele>
        <time>2021-06-19T17:16:28Z</time>
      </trkpt>
      <trkpt lat="42.58365" lon="1.47162">
        <ele>1801</ele>
        <time>2021-06-19T17:16:33Z</time>
      </trkpt>
      <trkpt lat="42.58341" lon="1.47178">
        <ele>1794</ele>
        <time>2021-06-19T17:16:39Z</time>
      </trkpt>
      <trkpt lat="42.58334" lon="1.47187">
        <ele>1793</ele>
        <time>2021-06-19T17:16:41Z</time>
      </trkpt>
      <trkpt lat="42.58324" lon="1.47208">
        <ele>1793</ele>
        <time>2021-06-19T17:16:46Z</time>
      </trkpt>
      <trkpt lat="42.58319" lon="1.47213">
        <ele>1792</ele>
        <time>2021-06-19T17:16:47Z</time>
      </trkpt>
      <trkpt lat="42.58316" lon="1.47213">
        <ele>1791</ele>
        <time>2021-06-19T17:16:48Z</time>
      </trkpt>
      <trkpt lat="42.58315" lon="1.4721">
        <ele>1789</ele>
        <time>2021-06-19T17:16:48Z</time>
      </trkpt>
      <trkpt lat="42.58319" lon="1.47194">
        <ele>1788</ele>
        <time>2021-06-19T17:16:51Z</time>
      </trkpt>
      <trkpt lat="42.58316" lon="1.47187">
        <ele>1785</ele>
        <time>2021-06-19T17:16:53Z</time>
      </trkpt>
      <trkpt lat="42.58311" lon="1.47189">
        <ele>1783</ele>
        <time>2021-06-19T17:16:54Z</time>
      </trkpt>
      <trkpt lat="42.58299" lon="1.47203">
        <ele>1780</ele>
        <time>2021-06-19T17:16:57Z</time>
      </trkpt>
      <trkpt lat="42.58291" lon="1.47217">
        <ele>1779</ele>
        <time>2021-06-19T17:17:00Z</time>
      </trkpt>
      <trkpt lat="42.58287" lon="1.47217">
        <ele>1777</ele>
        <time>2021-06-19T17:17:01Z</time>
      </trkpt>
      <trkpt lat="42.58286" lon="1.47211">
        <ele>1776</ele>
        <time>2021-06-19T17:17:02Z</time>
      </trkpt>
      <trkpt lat="42.583" lon="1.4714">
        <ele>1764</ele>
        <time>2021-06-19T17:17:15Z</time>
      </trkpt>
      <trkpt lat="42.58324" lon="1.47084">
        <ele>1758</ele>
        <time>2021-06-19T17:17:26Z</time>
      </trkpt>
      <trkpt lat="42.58332" lon="1.46989">
        <ele>1740</ele>
        <time>2021-06-19T17:17:43Z</time>
      </trkpt>
      <trkpt lat="42.58329" lon="1.46985">
        <ele>1738</ele>
        <time>2021-06-19T17:17:44Z</time>
      </trkpt>
      <trkpt lat="42.58303" lon="1.47041">
        <ele>1738</ele>
        <time>2021-06-19T17:17:55Z</time>
      </trkpt>
      <trkpt lat="42.58286" lon="1.47066">
        <ele>1734</ele>
        <time>2021-06-19T17:18:01Z</time>
      </trkpt>
      <trkpt lat="42.58231" lon="1.47118">
        <ele>1722</ele>
        <time>2021-06-19T17:18:17Z</time>
      </trkpt>
      <trkpt lat="42.582" lon="1.47142">
        <ele>1714</ele>
        <time>2021-06-19T17:18:25Z</time>
      </trkpt>
      <trkpt lat="42.58172" lon="1.47168">
        <ele>1703</ele>
        <time>2021-06-19T17:18:33Z</time>
      </trkpt>
      <trkpt lat="42.58154" lon="1.47191">
        <ele>1701</ele>
        <time>2021-06-19T17:18:39Z</time>
      </trkpt>
      <trkpt lat="42.58143" lon="1.47211">
        <ele>1701</ele>
        <time>2021-06-19T17:18:43Z</time>
      </trkpt>
      <trkpt lat="42.58122" lon="1.47258">
        <ele>1693</ele>
        <time>2021-06-19T17:18:52Z</time>
      </trkpt>
      <trkpt lat="42.58118" lon="1.47273">
        <ele>1689</ele>
        <time>2021-06-19T17:18:55Z</time>
      </trkpt>
      <trkpt lat="42.58118" lon="1.47304">
        <ele>1686</ele>
        <time>2021-06-19T17:19:00Z</time>
      </trkpt>
      <trkpt lat="42.58121" lon="1.47315">
        <ele>1687</ele>
        <time>2021-06-19T17:19:02Z</time>
      </trkpt>
      <trkpt lat="42.58131" lon="1.47334">
        <ele>1693</ele>
        <time>2021-06-19T17:19:06Z</time>
      </trkpt>
      <trkpt lat="42.58133" lon="1.47351">
        <ele>1693</ele>
        <time>2021-06-19T17:19:09Z</time>
      </trkpt>
      <trkpt lat="42.58127" lon="1.47383">
        <ele>1685</ele>
        <time>2021-06-19T17:19:15Z</time>
      </trkpt>
      <trkpt lat="42.58111" lon="1.47433">
        <ele>1669</ele>
        <time>2021-06-19T17:19:24Z</time>
      </trkpt>
      <trkpt lat="42.58109" lon="1.47455">
        <ele>1665</ele>
        <time>2021-06-19T17:19:28Z</time>
      </trkpt>
      <trkpt lat="42.58105" lon="1.47459">
        <ele>1662</ele>
        <time>2021-06-19T17:19:29Z</time>
      </trkpt>
      <trkpt lat="42.58103" lon="1.47472">
        <ele>1659</ele>
        <time>2021-06-19T17:19:32Z</time>
      </trkpt>
      <trkpt lat="42.581" lon="1.47472">
        <ele>1657</ele>
        <time>2021-06-19T17:19:32Z</time>
      </trkpt>
      <trkpt lat="42.58091" lon="1.47464">
        <ele>1652</ele>
        <time>2021-06-19T17:19:35Z</time>
      </trkpt>
      <trkpt lat="42.58089" lon="1.47458">
        <ele>1651</ele>
        <time>2021-06-19T17:19:36Z</time>
      </trkpt>
      <trkpt lat="42.58085" lon="1.47421">
        <ele>1654</ele>
        <time>2021-06-19T17:19:42Z</time>
      </trkpt>
      <trkpt lat="42.58086" lon="1.47367">
        <ele>1658</ele>
        <time>2021-06-19T17:19:52Z</time>
      </trkpt>
      <trkpt lat="42.5807" lon="1.47351">
        <ele>1655</ele>
        <time>2021-06-19T17:19:56Z</time>
      </trkpt>
      <trkpt lat="42.58046" lon="1.47337">
        <ele>1653</ele>
        <time>2021-06-19T17:20:03Z</time>
      </trkpt>
      <trkpt lat="42.58041" lon="1.47336">
        <ele>1653</ele>
        <time>2021-06-19T17:20:04Z</time>
      </trkpt>
      <trkpt lat="42.58038" lon="1.47339">
        <ele>1652</ele>
        <time>2021-06-19T17:20:05Z</time>
      </trkpt>
      <trkpt lat="42.58035" lon="1.47349">
        <ele>1650</ele>
        <time>2021-06-19T17:20:06Z</time>
      </trkpt>
      <trkpt lat="42.58038" lon="1.47356">
        <ele>1649</ele>
        <time>2021-06-19T17:20:08Z</time>
      </trkpt>
      <trkpt lat="42.58034" lon="1.47368">
        <ele>1647</ele>
        <time>2021-06-19T17:20:10Z</time>
      </trkpt>
      <trkpt lat="42.58038" lon="1.47387">
        <ele>1645</ele>
        <time>2021-06-19T17:20:13Z</time>
      </trkpt>
      <trkpt lat="42.58029" lon="1.47435">
        <ele>1635</ele>
        <time>2021-06-19T17:20:22Z</time>
      </trkpt>
      <trkpt lat="42.58028" lon="1.47455">
        <ele>1631</ele>
        <time>2021-06-19T17:20:25Z</time>
      </trkpt>
      <trkpt lat="42.58021" lon="1.47473">
        <ele>1625</ele>
        <time>2021-06-19T17:20:29Z</time>
      </trkpt>
      <trkpt lat="42.58021" lon="1.47481">
        <ele>1623</ele>
        <time>2021-06-19T17:20:30Z</time>
      </trkpt>
      <trkpt lat="42.58025" lon="1.47487">
        <ele>1623</ele>
        <time>2021-06-19T17:20:32Z</time>
      </trkpt>
      <trkpt lat="42.58022" lon="1.47491">
        <ele>1621</ele>
        <time>2021-06-19T17:20:33Z</time>
      </trkpt>
      <trkpt lat="42.58021" lon="1.47502">
        <ele>1618</ele>
        <time>2021-06-19T17:20:35Z</time>
      </trkpt>
      <trkpt lat="42.58023" lon="1.47514">
        <ele>1616</ele>
        <time>2021-06-19T17:20:37Z</time>
      </trkpt>
      <trkpt lat="42.58036" lon="1.47537">
        <ele>1616</ele>
        <time>2021-06-19T17:20:42Z</time>
      </trkpt>
      <trkpt lat="42.58046" lon="1.47566">
        <ele>1613</ele>
        <time>2021-06-19T17:20:47Z</time>
      </trkpt>
      <trkpt lat="42.58038" lon="1.47591">
        <ele>1605</ele>
        <time>2021-06-19T17:20:52Z</time>
      </trkpt>
      <trkpt lat="42.58034" lon="1.47595">
        <ele>1603</ele>
        <time>2021-06-19T17:20:53Z</time>
      </trkpt>
      <trkpt lat="42.58028" lon="1.47591">
        <ele>1600</ele>
        <time>2021-06-19T17:20:55Z</time>
      </trkpt>
      <trkpt lat="42.58023" lon="1.47582">
        <ele>1599</ele>
        <time>2021-06-19T17:20:57Z</time>
      </trkpt>
      <trkpt lat="42.58013" lon="1.47603">
        <ele>1593</ele>
        <time>2021-06-19T17:21:01Z</time>
      </trkpt>
      <trkpt lat="42.57998" lon="1.47619">
        <ele>1586</ele>
        <time>2021-06-19T17:21:05Z</time>
      </trkpt>
      <trkpt lat="42.57979" lon="1.4761">
        <ele>1587</ele>
        <time>2021-06-19T17:21:10Z</time>
      </trkpt>
      <trkpt lat="42.57958" lon="1.47614">
        <ele>1587</ele>
        <time>2021-06-19T17:21:15Z</time>
      </trkpt>
      <trkpt lat="42.57917" lon="1.47649">
        <ele>1578</ele>
        <time>2021-06-19T17:21:26Z</time>
      </trkpt>
      <trkpt lat="42.57899" lon="1.47669">
        <ele>1578</ele>
        <time>2021-06-19T17:21:32Z</time>
      </trkpt>
      <trkpt lat="42.5786" lon="1.47721">
        <ele>1574</ele>
        <time>2021-06-19T17:21:44Z</time>
      </trkpt>
      <trkpt lat="42.57848" lon="1.47742">
        <ele>1570</ele>
        <time>2021-06-19T17:21:49Z</time>
      </trkpt>
      <trkpt lat="42.57835" lon="1.47772">
        <ele>1565</ele>
        <time>2021-06-19T17:21:55Z</time>
      </trkpt>
      <trkpt lat="42.57824" lon="1.478">
        <ele>1564</ele>
        <time>2021-06-19T17:22:00Z</time>
      </trkpt>
      <trkpt lat="42.57818" lon="1.47824">
        <ele>1561</ele>
        <time>2021-06-19T17:22:05Z</time>
      </trkpt>
      <trkpt lat="42.57813" lon="1.4787">
        <ele>1558</ele>
        <time>2021-06-19T17:22:13Z</time>
      </trkpt>
      <trkpt lat="42.57816" lon="1.47885">
        <ele>1557</ele>
        <time>2021-06-19T17:22:16Z</time>
      </trkpt>
      <trkpt lat="42.57821" lon="1.47885">
        <ele>1556</ele>
        <time>2021-06-19T17:22:17Z</time>
      </trkpt>
      <trkpt lat="42.57825" lon="1.47891">
        <ele>1556</ele>
        <time>2021-06-19T17:22:18Z</time>
      </trkpt>
      <trkpt lat="42.57826" lon="1.479">
        <ele>1555</ele>
        <time>2021-06-19T17:22:20Z</time>
      </trkpt>
      <trkpt lat="42.57818" lon="1.47918">
        <ele>1555</ele>
        <time>2021-06-19T17:22:23Z</time>
      </trkpt>
      <trkpt lat="42.57735" lon="1.48054">
        <ele>1545</ele>
        <time>2021-06-19T17:22:54Z</time>
      </trkpt>
      <trkpt lat="42.57723" lon="1.4807">
        <ele>1542</ele>
        <time>2021-06-19T17:22:58Z</time>
      </trkpt>
      <trkpt lat="42.57694" lon="1.48087">
        <ele>1535</ele>
        <time>2021-06-19T17:23:05Z</time>
      </trkpt>
      <trkpt lat="42.57664" lon="1.48099">
        <ele>1530</ele>
        <time>2021-06-19T17:23:12Z</time>
      </trkpt>
      <trkpt lat="42.57621" lon="1.48129">
        <ele>1524</ele>
        <time>2021-06-19T17:23:24Z</time>
      </trkpt>
      <trkpt lat="42.57587" lon="1.48146">
        <ele>1515</ele>
        <time>2021-06-19T17:23:32Z</time>
      </trkpt>
      <trkpt lat="42.57568" lon="1.48147">
        <ele>1512</ele>
        <time>2021-06-19T17:23:36Z</time>
      </trkpt>
      <trkpt lat="42.57534" lon="1.48138">
        <ele>1512</ele>
        <time>2021-06-19T17:23:45Z</time>
      </trkpt>
      <trkpt lat="42.57522" lon="1.48141">
        <ele>1510</ele>
        <time>2021-06-19T17:23:47Z</time>
      </trkpt>
      <trkpt lat="42.57502" lon="1.48151">
        <ele>1506</ele>
        <time>2021-06-19T17:23:52Z</time>
      </trkpt>
      <trkpt lat="42.57456" lon="1.48181">
        <ele>1500</ele>
        <time>2021-06-19T17:24:04Z</time>
      </trkpt>
      <trkpt lat="42.57351" lon="1.48313">
        <ele>1484</ele>
        <time>2021-06-19T17:24:38Z</time>
      </trkpt>
      <trkpt lat="42.57335" lon="1.48338">
        <ele>1484</ele>
        <time>2021-06-19T17:24:43Z</time>
      </trkpt>
      <trkpt lat="42.57325" lon="1.48362">
        <ele>1487</ele>
        <time>2021-06-19T17:24:48Z</time>
      </trkpt>
      <trkpt lat="42.57317" lon="1.4837">
        <ele>1487</ele>
        <time>2021-06-19T17:24:50Z</time>
      </trkpt>
      <trkpt lat="42.57274" lon="1.48383">
        <ele>1481</ele>
        <time>2021-06-19T17:25:01Z</time>
      </trkpt>
      <trkpt lat="42.57242" lon="1.48384">
        <ele>1476</ele>
        <time>2021-06-19T17:25:08Z</time>
      </trkpt>
      <trkpt lat="42.57205" lon="1.48391">
        <ele>1472</ele>
        <time>2021-06-19T17:25:17Z</time>
      </trkpt>
      <trkpt lat="42.57197" lon="1.48403">
        <ele>1471</ele>
        <time>2021-06-19T17:25:20Z</time>
      </trkpt>
      <trkpt lat="42.57192" lon="1.48416">
        <ele>1469</ele>
        <time>2021-06-19T17:25:22Z</time>
      </trkpt>
      <trkpt lat="42.57146" lon="1.48558">
        <ele>1463</ele>
        <time>2021-06-19T17:25:49Z</time>
      </trkpt>
      <trkpt lat="42.57098" lon="1.48627">
        <ele>1455</ele>
        <time>2021-06-19T17:26:05Z</time>
      </trkpt>
      <trkpt lat="42.57099" lon="1.48632">
        <ele>1455</ele>
        <time>2021-06-19T17:26:06Z</time>
      </trkpt>
      <trkpt lat="42.57096" lon="1.48636">
        <ele>1454</ele>
        <time>2021-06-19T17:26:07Z</time>
      </trkpt>
      <trkpt lat="42.57091" lon="1.48634">
        <ele>1453</ele>
        <time>2021-06-19T17:26:08Z</time>
      </trkpt>
      <trkpt lat="42.57081" lon="1.48641">
        <ele>1451</ele>
        <time>2021-06-19T17:26:11Z</time>
      </trkpt>
      <trkpt lat="42.57037" lon="1.48713">
        <ele>1449</ele>
        <time>2021-06-19T17:26:27Z</time>
      </trkpt>
      <trkpt lat="42.57017" lon="1.48735">
        <ele>1446</ele>
        <time>2021-06-19T17:26:33Z</time>
      </trkpt>
      <trkpt lat="42.56894" lon="1.48846">
        <ele>1438</ele>
        <time>2021-06-19T17:27:08Z</time>
      </trkpt>
      <trkpt lat="42.56851" lon="1.48873">
        <ele>1436</ele>
        <time>2021-06-19T17:27:19Z</time>
      </trkpt>
      <trkpt lat="42.56812" lon="1.48884">
        <ele>1431</ele>
        <time>2021-06-19T17:27:28Z</time>
      </trkpt>
      <trkpt lat="42.56799" lon="1.4889">
        <ele>1429</ele>
        <time>2021-06-19T17:27:31Z</time>
      </trkpt>
      <trkpt lat="42.56775" lon="1.48909">
        <ele>1423</ele>
        <time>2021-06-19T17:27:38Z</time>
      </trkpt>
      <trkpt lat="42.56711" lon="1.48977">
        <ele>1418</ele>
        <time>2021-06-19T17:27:57Z</time>
      </trkpt>
      <trkpt lat="42.56682" lon="1.49002">
        <ele>1415</ele>
        <time>2021-06-19T17:28:05Z</time>
      </trkpt>
      <trkpt lat="42.56655" lon="1.49017">
        <ele>1413</ele>
        <time>2021-06-19T17:28:11Z</time>
      </trkpt>
      <trkpt lat="42.5659" lon="1.49079">
        <ele>1403</ele>
        <time>2021-06-19T17:28:30Z</time>
      </trkpt>
      <trkpt lat="42.56588" lon="1.49092">
        <ele>1405</ele>
        <time>2021-06-19T17:28:32Z</time>
      </trkpt>
      <trkpt lat="42.56582" lon="1.49094">
        <ele>1403</ele>
        <time>2021-06-19T17:28:34Z</time>
      </trkpt>
      <trkpt lat="42.56578" lon="1.4909">
        <ele>1402</ele>
        <time>2021-06-19T17:28:35Z</time>
      </trkpt>
      <trkpt lat="42.56505" lon="1.49163">
        <ele>1394</ele>
        <time>2021-06-19T17:28:56Z</time>
      </trkpt>
      <trkpt lat="42.56478" lon="1.49193">
        <ele>1396</ele>
        <time>2021-06-19T17:29:04Z</time>
      </trkpt>
      <trkpt lat="42.56412" lon="1.49246">
        <ele>1386</ele>
        <time>2021-06-19T17:29:22Z</time>
      </trkpt>
      <trkpt lat="42.56383" lon="1.4929">
        <ele>1388</ele>
        <time>2021-06-19T17:29:32Z</time>
      </trkpt>
      <trkpt lat="42.56356" lon="1.49381">
        <ele>1380</ele>
        <time>2021-06-19T17:29:49Z</time>
      </trkpt>
      <trkpt lat="42.56344" lon="1.4943">
        <ele>1377</ele>
        <time>2021-06-19T17:29:58Z</time>
      </trkpt>
      <trkpt lat="42.56334" lon="1.49447">
        <ele>1375</ele>
        <time>2021-06-19T17:30:02Z</time>
      </trkpt>
      <trkpt lat="42.56307" lon="1.49483">
        <ele>1374</ele>
        <time>2021-06-19T17:30:11Z</time>
      </trkpt>
      <trkpt lat="42.56282" lon="1.4951">
        <ele>1368</ele>
        <time>2021-06-19T17:30:18Z</time>
      </trkpt>
      <trkpt lat="42.5623" lon="1.49549">
        <ele>1360</ele>
        <time>2021-06-19T17:30:32Z</time>
      </trkpt>
      <trkpt lat="42.56209" lon="1.49571">
        <ele>1358</ele>
        <time>2021-06-19T17:30:38Z</time>
      </trkpt>
      <trkpt lat="42.56194" lon="1.49594">
        <ele>1355</ele>
        <time>2021-06-19T17:30:43Z</time>
      </trkpt>
      <trkpt lat="42.56156" lon="1.49669">
        <ele>1349</ele>
        <time>2021-06-19T17:30:59Z</time>
      </trkpt>
      <trkpt lat="42.56146" lon="1.49752">
        <ele>1348</ele>
        <time>2021-06-19T17:31:14Z</time>
      </trkpt>
      <trkpt lat="42.56147" lon="1.4979">
        <ele>1347</ele>
        <time>2021-06-19T17:31:20Z</time>
      </trkpt>
      <trkpt lat="42.56168" lon="1.49926">
        <ele>1335</ele>
        <time>2021-06-19T17:31:44Z</time>
      </trkpt>
      <trkpt lat="42.56174" lon="1.49993">
        <ele>1335</ele>
        <time>2021-06-19T17:31:56Z</time>
      </trkpt>
      <trkpt lat="42.56165" lon="1.50051">
        <ele>1330</ele>
        <time>2021-06-19T17:32:06Z</time>
      </trkpt>
      <trkpt lat="42.5614" lon="1.50111">
        <ele>1333</ele>
        <time>2021-06-19T17:32:18Z</time>
      </trkpt>
      <trkpt lat="42.56136" lon="1.50132">
        <ele>1333</ele>
        <time>2021-06-19T17:32:21Z</time>
      </trkpt>
      <trkpt lat="42.56138" lon="1.50181">
        <ele>1335</ele>
        <time>2021-06-19T17:32:30Z</time>
      </trkpt>
      <trkpt lat="42.56134" lon="1.50198">
        <ele>1338</ele>
        <time>2021-06-19T17:32:33Z</time>
      </trkpt>
      <trkpt lat="42.56124" lon="1.50216">
        <ele>1337</ele>
        <time>2021-06-19T17:32:37Z</time>
      </trkpt>
      <trkpt lat="42.5611" lon="1.50227">
        <ele>1333</ele>
        <time>2021-06-19T17:32:41Z</time>
      </trkpt>
      <trkpt lat="42.56084" lon="1.50235">
        <ele>1321</ele>
        <time>2021-06-19T17:32:47Z</time>
      </trkpt>
      <trkpt lat="42.56067" lon="1.50247">
        <ele>1320</ele>
        <time>2021-06-19T17:32:51Z</time>
      </trkpt>
      <trkpt lat="42.56012" lon="1.50313">
        <ele>1316</ele>
        <time>2021-06-19T17:33:08Z</time>
      </trkpt>
      <trkpt lat="42.55941" lon="1.50378">
        <ele>1312</ele>
        <time>2021-06-19T17:33:28Z</time>
      </trkpt>
      <trkpt lat="42.55882" lon="1.50455">
        <ele>1312</ele>
        <time>2021-06-19T17:33:47Z</time>
      </trkpt>
      <trkpt lat="42.55862" lon="1.50474">
        <ele>1312</ele>
        <time>2021-06-19T17:33:53Z</time>
      </trkpt>
      <trkpt lat="42.55848" lon="1.50479">
        <ele>1309</ele>
        <time>2021-06-19T17:33:57Z</time>
      </trkpt>
      <trkpt lat="42.55786" lon="1.50477">
        <ele>1302</ele>
        <time>2021-06-19T17:34:11Z</time>
      </trkpt>
      <trkpt lat="42.55743" lon="1.5048">
        <ele>1298</ele>
        <time>2021-06-19T17:34:21Z</time>
      </trkpt>
      <trkpt lat="42.55695" lon="1.5051">
        <ele>1292</ele>
        <time>2021-06-19T17:34:33Z</time>
      </trkpt>
      <trkpt lat="42.55628" lon="1.50578">
        <ele>1291</ele>
        <time>2021-06-19T17:34:53Z</time>
      </trkpt>
      <trkpt lat="42.55574" lon="1.50612">
        <ele>1293</ele>
        <time>2021-06-19T17:35:07Z</time>
      </trkpt>
      <trkpt lat="42.55522" lon="1.50651">
        <ele>1289</ele>
        <time>2021-06-19T17:35:21Z</time>
      </trkpt>
      <trkpt lat="42.55509" lon="1.50656">
        <ele>1286</ele>
        <time>2021-06-19T17:35:24Z</time>
      </trkpt>
      <trkpt lat="42.5547" lon="1.50657">
        <ele>1280</ele>
        <time>2021-06-19T17:35:33Z</time>
      </trkpt>
      <trkpt lat="42.55417" lon="1.50669">
        <ele>1275</ele>
        <time>2021-06-19T17:35:46Z</time>
      </trkpt>
      <trkpt lat="42.55415" lon="1.50664">
        <ele>1274</ele>
        <time>2021-06-19T17:35:47Z</time>
      </trkpt>
      <trkpt lat="42.55409" lon="1.50663">
        <ele>1274</ele>
        <time>2021-06-19T17:35:48Z</time>
      </trkpt>
      <trkpt lat="42.55405" lon="1.50667">
        <ele>1274</ele>
        <time>2021-06-19T17:35:49Z</time>
      </trkpt>
      <trkpt lat="42.55404" lon="1.50674">
        <ele>1275</ele>
        <time>2021-06-19T17:35:50Z</time>
      </trkpt>
      <trkpt lat="42.55368" lon="1.50704">
        <ele>1276</ele>
        <time>2021-06-19T17:36:00Z</time>
      </trkpt>
      <trkpt lat="42.55247" lon="1.50834">
        <ele>1267</ele>
        <time>2021-06-19T17:36:36Z</time>
      </trkpt>
      <trkpt lat="42.55178" lon="1.50917">
        <ele>1262</ele>
        <time>2021-06-19T17:36:58Z</time>
      </trkpt>
      <trkpt lat="42.55083" lon="1.51059">
        <ele>1257</ele>
        <time>2021-06-19T17:37:31Z</time>
      </trkpt>
      <trkpt lat="42.55027" lon="1.51126">
        <ele>1259</ele>
        <time>2021-06-19T17:37:48Z</time>
      </trkpt>
      <trkpt lat="42.54958" lon="1.51189">
        <ele>1255</ele>
        <time>2021-06-19T17:38:08Z</time>
      </trkpt>
      <trkpt lat="42.54938" lon="1.51213">
        <ele>1255</ele>
        <time>2021-06-19T17:38:14Z</time>
      </trkpt>
      <trkpt lat="42.54895" lon="1.51257">
        <ele>1256</ele>
        <time>2021-06-19T17:38:26Z</time>
      </trkpt>
      <trkpt lat="42.54847" lon="1.51301">
        <ele>1256</ele>
        <time>2021-06-19T17:38:40Z</time>
      </trkpt>
      <trkpt lat="42.54809" lon="1.51324">
        <ele>1251</ele>
        <time>2021-06-19T17:38:50Z</time>
      </trkpt>
      <trkpt lat="42.54804" lon="1.51332">
        <ele>1251</ele>
        <time>2021-06-19T17:38:51Z</time>
      </trkpt>
      <trkpt lat="42.5479" lon="1.51337">
        <ele>1250</ele>
        <time>2021-06-19T17:38:55Z</time>
      </trkpt>
      <trkpt lat="42.54753" lon="1.51336">
        <ele>1244</ele>
        <time>2021-06-19T17:39:03Z</time>
      </trkpt>
      <trkpt lat="42.54736" lon="1.51342">
        <ele>1244</ele>
        <time>2021-06-19T17:39:08Z</time>
      </trkpt>
      <trkpt lat="42.54662" lon="1.51391">
        <ele>1243</ele>
        <time>2021-06-19T17:39:27Z</time>
      </trkpt>
      <trkpt lat="42.54644" lon="1.51399">
        <ele>1244</ele>
        <time>2021-06-19T17:39:31Z</time>
      </trkpt>
      <trkpt lat="42.54612" lon="1.51404">
        <ele>1247</ele>
        <time>2021-06-19T17:39:39Z</time>
      </trkpt>
      <trkpt lat="42.54605" lon="1.51407">
        <ele>1248</ele>
        <time>2021-06-19T17:39:40Z</time>
      </trkpt>
      <trkpt lat="42.54595" lon="1.51417">
        <ele>1248</ele>
        <time>2021-06-19T17:39:43Z</time>
      </trkpt>
      <trkpt lat="42.54576" lon="1.51455">
        <ele>1245</ele>
        <time>2021-06-19T17:39:51Z</time>
      </trkpt>
      <trkpt lat="42.54288" lon="1.5171">
        <ele>1241</ele>
        <time>2021-06-19T17:41:12Z</time>
      </trkpt>
      <trkpt lat="42.54236" lon="1.51739">
        <ele>1241</ele>
        <time>2021-06-19T17:41:25Z</time>
      </trkpt>
      <trkpt lat="42.54229" lon="1.51745">
        <ele>1241</ele>
        <time>2021-06-19T17:41:27Z</time>
      </trkpt>
      <trkpt lat="42.54212" lon="1.51751">
        <ele>1242</ele>
        <time>2021-06-19T17:41:31Z</time>
      </trkpt>
      <trkpt lat="42.54184" lon="1.51769">
        <ele>1244</ele>
        <time>2021-06-19T17:41:38Z</time>
      </trkpt>
      <trkpt lat="42.54171" lon="1.51784">
        <ele>1245</ele>
        <time>2021-06-19T17:41:42Z</time>
      </trkpt>
      <trkpt lat="42.54113" lon="1.51915">
        <ele>1244</ele>
        <time>2021-06-19T17:42:08Z</time>
      </trkpt>
      <trkpt lat="42.54094" lon="1.51936">
        <ele>1244</ele>
        <time>2021-06-19T17:42:14Z</time>
      </trkpt>
      <trkpt lat="42.54076" lon="1.51946">
        <ele>1243</ele>
        <time>2021-06-19T17:42:19Z</time>
      </trkpt>
      <trkpt lat="42.54067" lon="1.51948">
        <ele>1242</ele>
        <time>2021-06-19T17:42:21Z</time>
      </trkpt>
      <trkpt lat="42.54047" lon="1.51947">
        <ele>1242</ele>
        <time>2021-06-19T17:42:25Z</time>
      </trkpt>
      <trkpt lat="42.53976" lon="1.5192">
        <ele>1250</ele>
        <time>2021-06-19T17:42:43Z</time>
      </trkpt>
      <trkpt lat="42.53951" lon="1.51916">
        <ele>1251</ele>
        <time>2021-06-19T17:42:48Z</time>
      </trkpt>
      <trkpt lat="42.53809" lon="1.51962">
        <ele>1248</ele>
        <time>2021-06-19T17:43:23Z</time>
      </trkpt>
      <trkpt lat="42.53724" lon="1.52">
        <ele>1246</ele>
        <time>2021-06-19T17:43:43Z</time>
      </trkpt>
      <trkpt lat="42.53712" lon="1.52002">
        <ele>1247</ele>
        <time>2021-06-19T17:43:46Z</time>
      </trkpt>
      <trkpt lat="42.53662" lon="1.52034">
        <ele>1246</ele>
        <time>2021-06-19T17:43:59Z</time>
      </trkpt>
      <trkpt lat="42.5363" lon="1.52061">
        <ele>1243</ele>
        <time>2021-06-19T17:44:08Z</time>
      </trkpt>
      <trkpt lat="42.53605" lon="1.52099">
        <ele>1236</ele>
        <time>2021-06-19T17:44:17Z</time>
      </trkpt>
      <trkpt lat="42.53597" lon="1.52108">
        <ele>1235</ele>
        <time>2021-06-19T17:44:19Z</time>
      </trkpt>
      <trkpt lat="42.53587" lon="1.52113">
        <ele>1235</ele>
        <time>2021-06-19T17:44:22Z</time>
      </trkpt>
      <trkpt lat="42.53577" lon="1.52112">
        <ele>1234</ele>
        <time>2021-06-19T17:44:24Z</time>
      </trkpt>
      <trkpt lat="42.53567" lon="1.52107">
        <ele>1232</ele>
        <time>2021-06-19T17:44:26Z</time>
      </trkpt>
      <trkpt lat="42.53516" lon="1.52044">
        <ele>1235</ele>
        <time>2021-06-19T17:44:43Z</time>
      </trkpt>
      <trkpt lat="42.53424" lon="1.51951">
        <ele>1233</ele>
        <time>2021-06-19T17:45:09Z</time>
      </trkpt>
      <trkpt lat="42.534" lon="1.51936">
        <ele>1232</ele>
        <time>2021-06-19T17:45:16Z</time>
      </trkpt>
      <trkpt lat="42.53379" lon="1.51932">
        <ele>1229</ele>
        <time>2021-06-19T17:45:20Z</time>
      </trkpt>
      <trkpt lat="42.5337" lon="1.51932">
        <ele>1227</ele>
        <time>2021-06-19T17:45:23Z</time>
      </trkpt>
      <trkpt lat="42.53348" lon="1.51939">
        <ele>1221</ele>
        <time>2021-06-19T17:45:28Z</time>
      </trkpt>
      <trkpt lat="42.53304" lon="1.51962">
        <ele>1208</ele>
        <time>2021-06-19T17:45:39Z</time>
      </trkpt>
      <trkpt lat="42.53255" lon="1.51972">
        <ele>1200</ele>
        <time>2021-06-19T17:45:50Z</time>
      </trkpt>
      <trkpt lat="42.5324" lon="1.51969">
        <ele>1200</ele>
        <time>2021-06-19T17:45:54Z</time>
      </trkpt>
      <trkpt lat="42.53203" lon="1.51952">
        <ele>1207</ele>
        <time>2021-06-19T17:46:03Z</time>
      </trkpt>
      <trkpt lat="42.53189" lon="1.51957">
        <ele>1205</ele>
        <time>2021-06-19T17:46:06Z</time>
      </trkpt>
      <trkpt lat="42.53185" lon="1.51965">
        <ele>1201</ele>
        <time>2021-06-19T17:46:08Z</time>
      </trkpt>
      <trkpt lat="42.53179" lon="1.51957">
        <ele>1205</ele>
        <time>2021-06-19T17:46:10Z</time>
      </trkpt>
      <trkpt lat="42.53162" lon="1.51951">
        <ele>1208</ele>
        <time>2021-06-19T17:46:14Z</time>
      </trkpt>
      <trkpt lat="42.53151" lon="1.51955">
        <ele>1204</ele>
        <time>2021-06-19T17:46:17Z</time>
      </trkpt>
      <trkpt lat="42.53138" lon="1.51966">
        <ele>1198</ele>
        <time>2021-06-19T17:46:20Z</time>
      </trkpt>
      <trkpt lat="42.53099" lon="1.51984">
        <ele>1186</ele>
        <time>2021-06-19T17:46:30Z</time>
      </trkpt>
      <trkpt lat="42.53059" lon="1.51983">
        <ele>1185</ele>
        <time>2021-06-19T17:46:39Z</time>
      </trkpt>
      <trkpt lat="42.53043" lon="1.51973">
        <ele>1188</ele>
        <time>2021-06-19T17:46:44Z</time>
      </trkpt>
      <trkpt lat="42.53025" lon="1.51972">
        <ele>1187</ele>
        <time>2021-06-19T17:46:48Z</time>
      </trkpt>
      <trkpt lat="42.53003" lon="1.51988">
        <ele>1183</ele>
        <time>2021-06-19T17:46:54Z</time>
      </trkpt>
      <trkpt lat="42.52991" lon="1.52014">
        <ele>1184</ele>
        <time>2021-06-19T17:46:59Z</time>
      </trkpt>
      <trkpt lat="42.52984" lon="1.52023">
        <ele>1185</ele>
        <time>2021-06-19T17:47:01Z</time>
      </trkpt>
      <trkpt lat="42.52944" lon="1.5205">
        <ele>1192</ele>
        <time>2021-06-19T17:47:12Z</time>
      </trkpt>
      <trkpt lat="42.52922" lon="1.52062">
        <ele>1194</ele>
        <time>2021-06-19T17:47:17Z</time>
      </trkpt>
      <trkpt lat="42.52905" lon="1.52066">
        <ele>1195</ele>
        <time>2021-06-19T17:47:21Z</time>
      </trkpt>
      <trkpt lat="42.52886" lon="1.52066">
        <ele>1198</ele>
        <time>2021-06-19T17:47:26Z</time>
      </trkpt>
      <trkpt lat="42.52857" lon="1.52062">
        <ele>1205</ele>
        <time>2021-06-19T17:47:32Z</time>
      </trkpt>
      <trkpt lat="42.52845" lon="1.52058">
        <ele>1209</ele>
        <time>2021-06-19T17:47:35Z</time>
      </trkpt>
      <trkpt lat="42.52817" lon="1.52044">
        <ele>1216</ele>
        <time>2021-06-19T17:47:42Z</time>
      </trkpt>
      <trkpt lat="42.52761" lon="1.52002">
        <ele>1222</ele>
        <time>2021-06-19T17:47:57Z</time>
      </trkpt>
      <trkpt lat="42.52745" lon="1.51995">
        <ele>1221</ele>
        <time>2021-06-19T17:48:01Z</time>
      </trkpt>
      <trkpt lat="42.52731" lon="1.51994">
        <ele>1217</ele>
        <time>2021-06-19T17:48:04Z</time>
      </trkpt>
      <trkpt lat="42.52703" lon="1.52001">
        <ele>1202</ele>
        <time>2021-06-19T17:48:11Z</time>
      </trkpt>
      <trkpt lat="42.5269" lon="1.52009">
        <ele>1195</ele>
        <time>2021-06-19T17:48:14Z</time>
      </trkpt>
      <trkpt lat="42.52653" lon="1.5204">
        <ele>1174</ele>
        <time>2021-06-19T17:48:24Z</time>
      </trkpt>
      <trkpt lat="42.52635" lon="1.52049">
        <ele>1169</ele>
        <time>2021-06-19T17:48:29Z</time>
      </trkpt>
      <trkpt lat="42.52613" lon="1.52056">
        <ele>1165</ele>
        <time>2021-06-19T17:48:34Z</time>
      </trkpt>
      <trkpt lat="42.52498" lon="1.52065">
        <ele>1144</ele>
        <time>2021-06-19T17:49:01Z</time>
      </trkpt>
      <trkpt lat="42.52451" lon="1.52071">
        <ele>1140</ele>
        <time>2021-06-19T17:49:12Z</time>
      </trkpt>
      <trkpt lat="42.52442" lon="1.52075">
        <ele>1137</ele>
        <time>2021-06-19T17:49:14Z</time>
      </trkpt>
      <trkpt lat="42.5234" lon="1.52142">
        <ele>1137</ele>
        <time>2021-06-19T17:49:41Z</time>
      </trkpt>
      <trkpt lat="42.52285" lon="1.52184">
        <ele>1134</ele>
        <time>2021-06-19T17:49:56Z</time>
      </trkpt>
      <trkpt lat="42.52262" lon="1.52186">
        <ele>1132</ele>
        <time>2021-06-19T17:50:01Z</time>
      </trkpt>
      <trkpt lat="42.52239" lon="1.52196">
        <ele>1133</ele>
        <time>2021-06-19T17:50:07Z</time>
      </trkpt>
      <trkpt lat="42.52214" lon="1.52212">
        <ele>1135</ele>
        <time>2021-06-19T17:50:13Z</time>
      </trkpt>
      <trkpt lat="42.52195" lon="1.52234">
        <ele>1130</ele>
        <time>2021-06-19T17:50:19Z</time>
      </trkpt>
      <trkpt lat="42.52154" lon="1.52299">
        <ele>1128</ele>
        <time>2021-06-19T17:50:34Z</time>
      </trkpt>
      <trkpt lat="42.52135" lon="1.52316">
        <ele>1129</ele>
        <time>2021-06-19T17:50:39Z</time>
      </trkpt>
      <trkpt lat="42.52037" lon="1.52364">
        <ele>1125</ele>
        <time>2021-06-19T17:51:03Z</time>
      </trkpt>
      <trkpt lat="42.52004" lon="1.52374">
        <ele>1123</ele>
        <time>2021-06-19T17:51:11Z</time>
      </trkpt>
      <trkpt lat="42.51965" lon="1.52377">
        <ele>1123</ele>
        <time>2021-06-19T17:51:20Z</time>
      </trkpt>
      <trkpt lat="42.51945" lon="1.52386">
        <ele>1120</ele>
        <time>2021-06-19T17:51:25Z</time>
      </trkpt>
      <trkpt lat="42.5193" lon="1.52402">
        <ele>1115</ele>
        <time>2021-06-19T17:51:30Z</time>
      </trkpt>
      <trkpt lat="42.51824" lon="1.52545">
        <ele>1118</ele>
        <time>2021-06-19T17:52:05Z</time>
      </trkpt>
      <trkpt lat="42.51785" lon="1.52585">
        <ele>1117</ele>
        <time>2021-06-19T17:52:16Z</time>
      </trkpt>
      <trkpt lat="42.51765" lon="1.52613">
        <ele>1116</ele>
        <time>2021-06-19T17:52:23Z</time>
      </trkpt>
      <trkpt lat="42.51711" lon="1.52739">
        <ele>1121</ele>
        <time>2021-06-19T17:52:48Z</time>
      </trkpt>
      <trkpt lat="42.51681" lon="1.52797">
        <ele>1111</ele>
        <time>2021-06-19T17:53:00Z</time>
      </trkpt>
      <trkpt lat="42.5167" lon="1.52809">
        <ele>1106</ele>
        <time>2021-06-19T17:53:03Z</time>
      </trkpt>
      <trkpt lat="42.51662" lon="1.52811">
        <ele>1106</ele>
        <time>2021-06-19T17:53:05Z</time>
      </trkpt>
      <trkpt lat="42.51657" lon="1.52819">
        <ele>1107</ele>
        <time>2021-06-19T17:53:07Z</time>
      </trkpt>
      <trkpt lat="42.51656" lon="1.5283">
        <ele>1106</ele>
        <time>2021-06-19T17:53:09Z</time>
      </trkpt>
      <trkpt lat="42.5166" lon="1.52839">
        <ele>1104</ele>
        <time>2021-06-19T17:53:11Z</time>
      </trkpt>
      <trkpt lat="42.51668" lon="1.52843">
        <ele>1104</ele>
        <time>2021-06-19T17:53:13Z</time>
      </trkpt>
      <trkpt lat="42.51673" lon="1.52855">
        <ele>1107</ele>
        <time>2021-06-19T17:53:15Z</time>
      </trkpt>
      <trkpt lat="42.51676" lon="1.52869">
        <ele>1109</ele>
        <time>2021-06-19T17:53:18Z</time>
      </trkpt>
      <trkpt lat="42.51673" lon="1.52886">
        <ele>1108</ele>
        <time>2021-06-19T17:53:21Z</time>
      </trkpt>
      <trkpt lat="42.51656" lon="1.52922">
        <ele>1106</ele>
        <time>2021-06-19T17:53:28Z</time>
      </trkpt>
      <trkpt lat="42.51633" lon="1.52954">
        <ele>1105</ele>
        <time>2021-06-19T17:53:36Z</time>
      </trkpt>
      <trkpt lat="42.51618" lon="1.5298">
        <ele>1102</ele>
        <time>2021-06-19T17:53:41Z</time>
      </trkpt>
      <trkpt lat="42.51598" lon="1.53036">
        <ele>1101</ele>
        <time>2021-06-19T17:53:52Z</time>
      </trkpt>
      <trkpt lat="42.51488" lon="1.53173">
        <ele>1088</ele>
        <time>2021-06-19T17:54:27Z</time>
      </trkpt>
      <trkpt lat="42.51452" lon="1.53205">
        <ele>1086</ele>
        <time>2021-06-19T17:54:37Z</time>
      </trkpt>
      <trkpt lat="42.51424" lon="1.53234">
        <ele>1078</ele>
        <time>2021-06-19T17:54:45Z</time>
      </trkpt>
      <trkpt lat="42.51411" lon="1.53254">
        <ele>1075</ele>
        <time>2021-06-19T17:54:50Z</time>
      </trkpt>
      <trkpt lat="42.51395" lon="1.53286">
        <ele>1076</ele>
        <time>2021-06-19T17:54:56Z</time>
      </trkpt>
      <trkpt lat="42.5137" lon="1.53386">
        <ele>1074</ele>
        <time>2021-06-19T17:55:15Z</time>
      </trkpt>
      <trkpt lat="42.51363" lon="1.53395">
        <ele>1072</ele>
        <time>2021-06-19T17:55:17Z</time>
      </trkpt>
      <trkpt lat="42.5134" lon="1.53405">
        <ele>1065</ele>
        <time>2021-06-19T17:55:22Z</time>
      </trkpt>
      <trkpt lat="42.5132" lon="1.53424">
        <ele>1062</ele>
        <time>2021-06-19T17:55:28Z</time>
      </trkpt>
      <trkpt lat="42.51271" lon="1.53529">
        <ele>1055</ele>
        <time>2021-06-19T17:55:50Z</time>
      </trkpt>
      <trkpt lat="42.51269" lon="1.53573">
        <ele>1050</ele>
        <time>2021-06-19T17:55:57Z</time>
      </trkpt>
      <trkpt lat="42.51262" lon="1.53603">
        <ele>1047</ele>
        <time>2021-06-19T17:56:03Z</time>
      </trkpt>
      <trkpt lat="42.51253" lon="1.53629">
        <ele>1044</ele>
        <time>2021-06-19T17:56:08Z</time>
      </trkpt>
      <trkpt lat="42.51247" lon="1.5364">
        <ele>1042</ele>
        <time>2021-06-19T17:56:10Z</time>
      </trkpt>
      <trkpt lat="42.5123" lon="1.53659">
        <ele>1041</ele>
        <time>2021-06-19T17:56:15Z</time>
      </trkpt>
      <trkpt lat="42.5121" lon="1.53658">
        <ele>1040</ele>
        <time>2021-06-19T17:56:20Z</time>
      </trkpt>
      <trkpt lat="42.51207" lon="1.53662">
        <ele>1040</ele>
        <time>2021-06-19T17:56:21Z</time>
      </trkpt>
      <trkpt lat="42.51206" lon="1.53667">
        <ele>1039</ele>
        <time>2021-06-19T17:56:22Z</time>
      </trkpt>
      <trkpt lat="42.5121" lon="1.5368">
        <ele>1040</ele>
        <time>2021-06-19T17:56:24Z</time>
      </trkpt>
      <trkpt lat="42.51209" lon="1.53687">
        <ele>1041</ele>
        <time>2021-06-19T17:56:25Z</time>
      </trkpt>
      <trkpt lat="42.51185" lon="1.53737">
        <ele>1042</ele>
        <time>2021-06-19T17:56:36Z</time>
      </trkpt>
      <trkpt lat="42.51156" lon="1.53807">
        <ele>1043</ele>
        <time>2021-06-19T17:56:49Z</time>
      </trkpt>
      <trkpt lat="42.51143" lon="1.53847">
        <ele>1045</ele>
        <time>2021-06-19T17:56:57Z</time>
      </trkpt>
      <trkpt lat="42.51117" lon="1.53955">
        <ele>1050</ele>
        <time>2021-06-19T17:57:16Z</time>
      </trkpt>
      <trkpt lat="42.51111" lon="1.53962">
        <ele>1049</ele>
        <time>2021-06-19T17:57:18Z</time>
      </trkpt>
      <trkpt lat="42.51105" lon="1.53965">
        <ele>1049</ele>
        <time>2021-06-19T17:57:20Z</time>
      </trkpt>
      <trkpt lat="42.51015" lon="1.53882">
        <ele>1040</ele>
        <time>2021-06-19T17:57:45Z</time>
      </trkpt>
      <trkpt lat="42.51014" lon="1.53875">
        <ele>1040</ele>
        <time>2021-06-19T17:57:46Z</time>
      </trkpt>
      <trkpt lat="42.51009" lon="1.53873">
        <ele>1039</ele>
        <time>2021-06-19T17:57:48Z</time>
      </trkpt>
      <trkpt lat="42.51006" lon="1.53879">
        <ele>1040</ele>
        <time>2021-06-19T17:57:49Z</time>
      </trkpt>
      <trkpt lat="42.51009" lon="1.53885">
        <ele>1040</ele>
        <time>2021-06-19T17:57:50Z</time>
      </trkpt>
      <trkpt lat="42.51012" lon="1.53885">
        <ele>1040</ele>
        <time>2021-06-19T17:57:51Z</time>
      </trkpt>
      <trkpt lat="42.51016" lon="1.53937">
        <ele>1044</ele>
        <time>2021-06-19T17:58:00Z</time>
      </trkpt>
      <trkpt lat="42.50994" lon="1.53995">
        <ele>1049</ele>
        <time>2021-06-19T17:58:11Z</time>
      </trkpt>
      <trkpt lat="42.50986" lon="1.54009">
        <ele>1051</ele>
        <time>2021-06-19T17:58:14Z</time>
      </trkpt>
      <trkpt lat="42.50968" lon="1.54015">
        <ele>1053</ele>
        <time>2021-06-19T17:58:18Z</time>
      </trkpt>
      <trkpt lat="42.50964" lon="1.54011">
        <ele>1053</ele>
        <time>2021-06-19T17:58:20Z</time>
      </trkpt>
      <trkpt lat="42.50959" lon="1.54011">
        <ele>1053</ele>
        <time>2021-06-19T17:58:21Z</time>
      </trkpt>
      <trkpt lat="42.50954" lon="1.54019">
        <ele>1054</ele>
        <time>2021-06-19T17:58:23Z</time>
      </trkpt>
      <trkpt lat="42.50957" lon="1.54031">
        <ele>1054</ele>
        <time>2021-06-19T17:58:25Z</time>
      </trkpt>
      <trkpt lat="42.5093" lon="1.54079">
        <ele>1059</ele>
        <time>2021-06-19T17:58:35Z</time>
      </trkpt>
      <trkpt lat="42.50875" lon="1.54088">
        <ele>1062</ele>
        <time>2021-06-19T17:58:48Z</time>
      </trkpt>
      <trkpt lat="42.50869" lon="1.54091">
        <ele>1062</ele>
        <time>2021-06-19T17:58:50Z</time>
      </trkpt>
      <trkpt lat="42.5089" lon="1.54214">
        <ele>1066</ele>
        <time>2021-06-19T17:59:11Z</time>
      </trkpt>
      <trkpt lat="42.5089" lon="1.54276">
        <ele>1071</ele>
        <time>2021-06-19T17:59:22Z</time>
      </trkpt>
      <trkpt lat="42.50903" lon="1.54351">
        <ele>1075</ele>
        <time>2021-06-19T17:59:35Z</time>
      </trkpt>
      <trkpt lat="42.50882" lon="1.54357">
        <ele>1081</ele>
        <time>2021-06-19T17:59:40Z</time>
      </trkpt>
      <trkpt lat="42.50875" lon="1.54369">
        <ele>1085</ele>
        <time>2021-06-19T17:59:43Z</time>
      </trkpt>
      <trkpt lat="42.5087" lon="1.54371">
        <ele>1087</ele>
        <time>2021-06-19T17:59:44Z</time>
      </trkpt>
      <trkpt lat="42.50855" lon="1.54364">
        <ele>1091</ele>
        <time>2021-06-19T17:59:48Z</time>
      </trkpt>
      <trkpt lat="42.50844" lon="1.54353">
        <ele>1092</ele>
        <time>2021-06-19T17:59:51Z</time>
      </trkpt>
      <trkpt lat="42.5084" lon="1.54356">
        <ele>1094</ele>
        <time>2021-06-19T17:59:52Z</time>
      </trkpt>
      <trkpt lat="42.50842" lon="1.54371">
        <ele>1096</ele>
        <time>2021-06-19T17:59:55Z</time>
      </trkpt>
      <trkpt lat="42.50855" lon="1.54391">
        <ele>1095</ele>
        <time>2021-06-19T17:59:59Z</time>
      </trkpt>
      <trkpt lat="42.50856" lon="1.54398">
        <ele>1095</ele>
        <time>2021-06-19T18:00:00Z</time>
      </trkpt>
      <trkpt lat="42.50851" lon="1.54395">
        <ele>1097</ele>
        <time>2021-06-19T18:00:02Z</time>
      </trkpt>
      <trkpt lat="42.50846" lon="1.54397">
        <ele>1099</ele>
        <time>2021-06-19T18:00:03Z</time>
      </trkpt>
      <trkpt lat="42.50853" lon="1.54418">
        <ele>1100</ele>
        <time>2021-06-19T18:00:07Z</time>
      </trkpt>
      <trkpt lat="42.50858" lon="1.54457">
        <ele>1098</ele>
        <time>2021-06-19T18:00:14Z</time>
      </trkpt>
      <trkpt lat="42.50857" lon="1.54477">
        <ele>1098</ele>
        <time>2021-06-19T18:00:17Z</time>
      </trkpt>
      <trkpt lat="42.50823" lon="1.5459">
        <ele>1111</ele>
        <time>2021-06-19T18:00:38Z</time>
      </trkpt>
      <trkpt lat="42.50815" lon="1.54627">
        <ele>1116</ele>
        <time>2021-06-19T18:00:45Z</time>
      </trkpt>
      <trkpt lat="42.50815" lon="1.5467">
        <ele>1117</ele>
        <time>2021-06-19T18:00:52Z</time>
      </trkpt>
      <trkpt lat="42.50819" lon="1.54692">
        <ele>1119</ele>
        <time>2021-06-19T18:00:56Z</time>
      </trkpt>
      <trkpt lat="42.50826" lon="1.54712">
        <ele>1120</ele>
        <time>2021-06-19T18:01:00Z</time>
      </trkpt>
      <trkpt lat="42.50844" lon="1.54742">
        <ele>1122</ele>
        <time>2021-06-19T18:01:07Z</time>
      </trkpt>
      <trkpt lat="42.50859" lon="1.54757">
        <ele>1124</ele>
        <time>2021-06-19T18:01:11Z</time>
      </trkpt>
      <trkpt lat="42.50879" lon="1.54768">
        <ele>1125</ele>
        <time>2021-06-19T18:01:16Z</time>
      </trkpt>
      <trkpt lat="42.50977" lon="1.54804">
        <ele>1128</ele>
        <time>2021-06-19T18:01:40Z</time>
      </trkpt>
      <trkpt lat="42.50984" lon="1.54811">
        <ele>1130</ele>
        <time>2021-06-19T18:01:42Z</time>
      </trkpt>
      <trkpt lat="42.50993" lon="1.54827">
        <ele>1134</ele>
        <time>2021-06-19T18:01:45Z</time>
      </trkpt>
      <trkpt lat="42.50983" lon="1.5484">
        <ele>1138</ele>
        <time>2021-06-19T18:01:48Z</time>
      </trkpt>
      <trkpt lat="42.50968" lon="1.54848">
        <ele>1142</ele>
        <time>2021-06-19T18:01:52Z</time>
      </trkpt>
      <trkpt lat="42.50943" lon="1.54852">
        <ele>1144</ele>
        <time>2021-06-19T18:01:58Z</time>
      </trkpt>
      <trkpt lat="42.50874" lon="1.54843">
        <ele>1149</ele>
        <time>2021-06-19T18:02:14Z</time>
      </trkpt>
      <trkpt lat="42.50854" lon="1.54834">
        <ele>1148</ele>
        <time>2021-06-19T18:02:19Z</time>
      </trkpt>
      <trkpt lat="42.50846" lon="1.54849">
        <ele>1155</ele>
        <time>2021-06-19T18:02:22Z</time>
      </trkpt>
      <trkpt lat="42.50828" lon="1.54852">
        <ele>1158</ele>
        <time>2021-06-19T18:02:27Z</time>
      </trkpt>
      <trkpt lat="42.50812" lon="1.54858">
        <ele>1160</ele>
        <time>2021-06-19T18:02:31Z</time>
      </trkpt>
      <trkpt lat="42.50749" lon="1.54901">
        <ele>1173</ele>
        <time>2021-06-19T18:02:47Z</time>
      </trkpt>
      <trkpt lat="42.50743" lon="1.54911">
        <ele>1175</ele>
        <time>2021-06-19T18:02:49Z</time>
      </trkpt>
      <trkpt lat="42.5074" lon="1.54934">
        <ele>1181</ele>
        <time>2021-06-19T18:02:53Z</time>
      </trkpt>
      <trkpt lat="42.50785" lon="1.54921">
        <ele>1180</ele>
        <time>2021-06-19T18:03:04Z</time>
      </trkpt>
      <trkpt lat="42.50792" lon="1.54932">
        <ele>1183</ele>
        <time>2021-06-19T18:03:06Z</time>
      </trkpt>
      <trkpt lat="42.5079" lon="1.54948">
        <ele>1188</ele>
        <time>2021-06-19T18:03:09Z</time>
      </trkpt>
      <trkpt lat="42.50776" lon="1.54962">
        <ele>1192</ele>
        <time>2021-06-19T18:03:13Z</time>
      </trkpt>
      <trkpt lat="42.50624" lon="1.5505">
        <ele>1212</ele>
        <time>2021-06-19T18:03:52Z</time>
      </trkpt>
      <trkpt lat="42.50678" lon="1.55065">
        <ele>1222</ele>
        <time>2021-06-19T18:04:05Z</time>
      </trkpt>
      <trkpt lat="42.50819" lon="1.5502">
        <ele>1213</ele>
        <time>2021-06-19T18:04:39Z</time>
      </trkpt>
      <trkpt lat="42.50862" lon="1.55029">
        <ele>1213</ele>
        <time>2021-06-19T18:04:49Z</time>
      </trkpt>
      <trkpt lat="42.50903" lon="1.55075">
        <ele>1223</ele>
        <time>2021-06-19T18:05:01Z</time>
      </trkpt>
      <trkpt lat="42.50881" lon="1.55101">
        <ele>1236</ele>
        <time>2021-06-19T18:05:08Z</time>
      </trkpt>
      <trkpt lat="42.50847" lon="1.55093">
        <ele>1240</ele>
        <time>2021-06-19T18:05:16Z</time>
      </trkpt>
      <trkpt lat="42.50801" lon="1.5509">
        <ele>1240</ele>
        <time>2021-06-19T18:05:27Z</time>
      </trkpt>
      <trkpt lat="42.50765" lon="1.55093">
        <ele>1240</ele>
        <time>2021-06-19T18:05:35Z</time>
      </trkpt>
      <trkpt lat="42.50762" lon="1.55101">
        <ele>1244</ele>
        <time>2021-06-19T18:05:37Z</time>
      </trkpt>
      <trkpt lat="42.50763" lon="1.55107">
        <ele>1246</ele>
        <time>2021-06-19T18:05:38Z</time>
      </trkpt>
      <trkpt lat="42.50769" lon="1.55113">
        <ele>1249</ele>
        <time>2021-06-19T18:05:40Z</time>
      </trkpt>
      <trkpt lat="42.50789" lon="1.55114">
        <ele>1250</ele>
        <time>2021-06-19T18:05:44Z</time>
      </trkpt>
      <trkpt lat="42.50822" lon="1.55124">
        <ele>1255</ele>
        <time>2021-06-19T18:05:52Z</time>
      </trkpt>
      <trkpt lat="42.50866" lon="1.55143">
        <ele>1253</ele>
        <time>2021-06-19T18:06:03Z</time>
      </trkpt>
      <trkpt lat="42.50879" lon="1.55155">
        <ele>1254</ele>
        <time>2021-06-19T18:06:07Z</time>
      </trkpt>
      <trkpt lat="42.50905" lon="1.55224">
        <ele>1270</ele>
        <time>2021-06-19T18:06:20Z</time>
      </trkpt>
      <trkpt lat="42.50922" lon="1.55242">
        <ele>1271</ele>
        <time>2021-06-19T18:06:25Z</time>
      </trkpt>
      <trkpt lat="42.5095" lon="1.55264">
        <ele>1273</ele>
        <time>2021-06-19T18:06:33Z</time>
      </trkpt>
      <trkpt lat="42.50959" lon="1.55278">
        <ele>1274</ele>
        <time>2021-06-19T18:06:36Z</time>
      </trkpt>
      <trkpt lat="42.50953" lon="1.55288">
        <ele>1277</ele>
        <time>2021-06-19T18:06:38Z</time>
      </trkpt>
      <trkpt lat="42.50943" lon="1.55288">
        <ele>1280</ele>
        <time>2021-06-19T18:06:40Z</time>
      </trkpt>
      <trkpt lat="42.50889" lon="1.55261">
        <ele>1287</ele>
        <time>2021-06-19T18:06:54Z</time>
      </trkpt>
      <trkpt lat="42.50872" lon="1.55246">
        <ele>1289</ele>
        <time>2021-06-19T18:06:59Z</time>
      </trkpt>
      <trkpt lat="42.50841" lon="1.55191">
        <ele>1278</ele>
        <time>2021-06-19T18:07:10Z</time>
      </trkpt>
      <trkpt lat="42.50823" lon="1.55181">
        <ele>1277</ele>
        <time>2021-06-19T18:07:15Z</time>
      </trkpt>
      <trkpt lat="42.50832" lon="1.55193">
        <ele>1281</ele>
        <time>2021-06-19T18:07:18Z</time>
      </trkpt>
      <trkpt lat="42.50835" lon="1.55217">
        <ele>1290</ele>
        <time>2021-06-19T18:07:22Z</time>
      </trkpt>
      <trkpt lat="42.50841" lon="1.55237">
        <ele>1295</ele>
        <time>2021-06-19T18:07:26Z</time>
      </trkpt>
      <trkpt lat="42.50857" lon="1.55265">
        <ele>1299</ele>
        <time>2021-06-19T18:07:32Z</time>
      </trkpt>
      <trkpt lat="42.50884" lon="1.55304">
        <ele>1301</ele>
        <time>2021-06-19T18:07:41Z</time>
      </trkpt>
      <trkpt lat="42.50912" lon="1.55333">
        <ele>1300</ele>
        <time>2021-06-19T18:07:49Z</time>
      </trkpt>
      <trkpt lat="42.5093" lon="1.55345">
        <ele>1297</ele>
        <time>2021-06-19T18:07:54Z</time>
      </trkpt>
      <trkpt lat="42.50937" lon="1.55358">
        <ele>1299</ele>
        <time>2021-06-19T18:07:57Z</time>
      </trkpt>
      <trkpt lat="42.50933" lon="1.55378">
        <ele>1305</ele>
        <time>2021-06-19T18:08:00Z</time>
      </trkpt>
      <trkpt lat="42.50927" lon="1.55387">
        <ele>1309</ele>
        <time>2021-06-19T18:08:02Z</time>
      </trkpt>
      <trkpt lat="42.50914" lon="1.55385">
        <ele>1312</ele>
        <time>2021-06-19T18:08:06Z</time>
      </trkpt>
      <trkpt lat="42.50883" lon="1.55361">
        <ele>1318</ele>
        <time>2021-06-19T18:08:14Z</time>
      </trkpt>
      <trkpt lat="42.5087" lon="1.55347">
        <ele>1319</ele>
        <time>2021-06-19T18:08:18Z</time>
      </trkpt>
      <trkpt lat="42.50846" lon="1.55327">
        <ele>1322</ele>
        <time>2021-06-19T18:08:24Z</time>
      </trkpt>
      <trkpt lat="42.50829" lon="1.55306">
        <ele>1321</ele>
        <time>2021-06-19T18:08:30Z</time>
      </trkpt>
      <trkpt lat="42.50808" lon="1.5527">
        <ele>1313</ele>
        <time>2021-06-19T18:08:38Z</time>
      </trkpt>
      <trkpt lat="42.50799" lon="1.55264">
        <ele>1312</ele>
        <time>2021-06-19T18:08:40Z</time>
      </trkpt>
      <trkpt lat="42.5079" lon="1.55269">
        <ele>1315</ele>
        <time>2021-06-19T18:08:42Z</time>
      </trkpt>
      <trkpt lat="42.50787" lon="1.55281">
        <ele>1321</ele>
        <time>2021-06-19T18:08:44Z</time>
      </trkpt>
      <trkpt lat="42.50791" lon="1.55301">
        <ele>1328</ele>
        <time>2021-06-19T18:08:48Z</time>
      </trkpt>
      <trkpt lat="42.50853" lon="1.55399">
        <ele>1341</ele>
        <time>2021-06-19T18:09:10Z</time>
      </trkpt>
      <trkpt lat="42.50869" lon="1.55438">
        <ele>1346</ele>
        <time>2021-06-19T18:09:18Z</time>
      </trkpt>
      <trkpt lat="42.50876" lon="1.55469">
        <ele>1352</ele>
        <time>2021-06-19T18:09:23Z</time>
      </trkpt>
      <trkpt lat="42.5087" lon="1.5551">
        <ele>1367</ele>
        <time>2021-06-19T18:09:31Z</time>
      </trkpt>
      <trkpt lat="42.50874" lon="1.55557">
        <ele>1374</ele>
        <time>2021-06-19T18:09:39Z</time>
      </trkpt>
      <trkpt lat="42.50886" lon="1.55589">
        <ele>1375</ele>
        <time>2021-06-19T18:09:45Z</time>
      </trkpt>
      <trkpt lat="42.50908" lon="1.55613">
        <ele>1373</ele>
        <time>2021-06-19T18:09:52Z</time>
      </trkpt>
      <trkpt lat="42.50924" lon="1.55617">
        <ele>1371</ele>
        <time>2021-06-19T18:09:55Z</time>
      </trkpt>
      <trkpt lat="42.50944" lon="1.55611">
        <ele>1369</ele>
        <time>2021-06-19T18:10:00Z</time>
      </trkpt>
      <trkpt lat="42.50966" lon="1.5561">
        <ele>1369</ele>
        <time>2021-06-19T18:10:05Z</time>
      </trkpt>
      <trkpt lat="42.50985" lon="1.55618">
        <ele>1372</ele>
        <time>2021-06-19T18:10:10Z</time>
      </trkpt>
      <trkpt lat="42.5101" lon="1.55641">
        <ele>1378</ele>
        <time>2021-06-19T18:10:17Z</time>
      </trkpt>
      <trkpt lat="42.51038" lon="1.55657">
        <ele>1379</ele>
        <time>2021-06-19T18:10:24Z</time>
      </trkpt>
      <trkpt lat="42.51089" lon="1.5568">
        <ele>1380</ele>
        <time>2021-06-19T18:10:37Z</time>
      </trkpt>
      <trkpt lat="42.51124" lon="1.55703">
        <ele>1391</ele>
        <time>2021-06-19T18:10:46Z</time>
      </trkpt>
      <trkpt lat="42.51128" lon="1.55717">
        <ele>1395</ele>
        <time>2021-06-19T18:10:48Z</time>
      </trkpt>
      <trkpt lat="42.51122" lon="1.55729">
        <ele>1397</ele>
        <time>2021-06-19T18:10:51Z</time>
      </trkpt>
      <trkpt lat="42.51111" lon="1.55739">
        <ele>1398</ele>
        <time>2021-06-19T18:10:54Z</time>
      </trkpt>
      <trkpt lat="42.51094" lon="1.55745">
        <ele>1398</ele>
        <time>2021-06-19T18:10:58Z</time>
      </trkpt>
      <trkpt lat="42.51072" lon="1.55746">
        <ele>1399</ele>
        <time>2021-06-19T18:11:03Z</time>
      </trkpt>
      <trkpt lat="42.51048" lon="1.55738">
        <ele>1402</ele>
        <time>2021-06-19T18:11:09Z</time>
      </trkpt>
      <trkpt lat="42.51028" lon="1.55727">
        <ele>1403</ele>
        <time>2021-06-19T18:11:14Z</time>
      </trkpt>
      <trkpt lat="42.51008" lon="1.55703">
        <ele>1399</ele>
        <time>2021-06-19T18:11:20Z</time>
      </trkpt>
      <trkpt lat="42.50996" lon="1.557">
        <ele>1400</ele>
        <time>2021-06-19T18:11:23Z</time>
      </trkpt>
      <trkpt lat="42.50989" lon="1.55706">
        <ele>1403</ele>
        <time>2021-06-19T18:11:25Z</time>
      </trkpt>
      <trkpt lat="42.50986" lon="1.55717">
        <ele>1407</ele>
        <time>2021-06-19T18:11:27Z</time>
      </trkpt>
      <trkpt lat="42.50991" lon="1.55732">
        <ele>1412</ele>
        <time>2021-06-19T18:11:30Z</time>
      </trkpt>
      <trkpt lat="42.51103" lon="1.55831">
        <ele>1424</ele>
        <time>2021-06-19T18:12:01Z</time>
      </trkpt>
      <trkpt lat="42.51146" lon="1.55854">
        <ele>1431</ele>
        <time>2021-06-19T18:12:12Z</time>
      </trkpt>
      <trkpt lat="42.51203" lon="1.55873">
        <ele>1438</ele>
        <time>2021-06-19T18:12:26Z</time>
      </trkpt>
      <trkpt lat="42.51251" lon="1.55878">
        <ele>1439</ele>
        <time>2021-06-19T18:12:37Z</time>
      </trkpt>
      <trkpt lat="42.51279" lon="1.55894">
        <ele>1436</ele>
        <time>2021-06-19T18:12:44Z</time>
      </trkpt>
      <trkpt lat="42.51312" lon="1.55928">
        <ele>1440</ele>
        <time>2021-06-19T18:12:54Z</time>
      </trkpt>
      <trkpt lat="42.51345" lon="1.55968">
        <ele>1449</ele>
        <time>2021-06-19T18:13:04Z</time>
      </trkpt>
      <trkpt lat="42.51363" lon="1.55994">
        <ele>1455</ele>
        <time>2021-06-19T18:13:10Z</time>
      </trkpt>
      <trkpt lat="42.51363" lon="1.56009">
        <ele>1461</ele>
        <time>2021-06-19T18:13:13Z</time>
      </trkpt>
      <trkpt lat="42.51353" lon="1.56015">
        <ele>1466</ele>
        <time>2021-06-19T18:13:15Z</time>
      </trkpt>
      <trkpt lat="42.51337" lon="1.56002">
        <ele>1463</ele>
        <time>2021-06-19T18:13:20Z</time>
      </trkpt>
      <trkpt lat="42.51318" lon="1.55976">
        <ele>1458</ele>
        <time>2021-06-19T18:13:26Z</time>
      </trkpt>
      <trkpt lat="42.51294" lon="1.55951">
        <ele>1454</ele>
        <time>2021-06-19T18:13:33Z</time>
      </trkpt>
      <trkpt lat="42.51268" lon="1.55946">
        <ele>1459</ele>
        <time>2021-06-19T18:13:39Z</time>
      </trkpt>
      <trkpt lat="42.51174" lon="1.55968">
        <ele>1474</ele>
        <time>2021-06-19T18:14:01Z</time>
      </trkpt>
      <trkpt lat="42.51132" lon="1.55966">
        <ele>1475</ele>
        <time>2021-06-19T18:14:11Z</time>
      </trkpt>
      <trkpt lat="42.51028" lon="1.55944">
        <ele>1477</ele>
        <time>2021-06-19T18:14:36Z</time>
      </trkpt>
      <trkpt lat="42.51016" lon="1.55943">
        <ele>1478</ele>
        <time>2021-06-19T18:14:38Z</time>
      </trkpt>
      <trkpt lat="42.51002" lon="1.55948">
        <ele>1480</ele>
        <time>2021-06-19T18:14:42Z</time>
      </trkpt>
      <trkpt lat="42.5099" lon="1.55946">
        <ele>1480</ele>
        <time>2021-06-19T18:14:45Z</time>
      </trkpt>
      <trkpt lat="42.50968" lon="1.55931">
        <ele>1479</ele>
        <time>2021-06-19T18:14:50Z</time>
      </trkpt>
      <trkpt lat="42.50959" lon="1.5593">
        <ele>1479</ele>
        <time>2021-06-19T18:14:53Z</time>
      </trkpt>
      <trkpt lat="42.5095" lon="1.55938">
        <ele>1481</ele>
        <time>2021-06-19T18:14:55Z</time>
      </trkpt>
      <trkpt lat="42.50949" lon="1.55951">
        <ele>1483</ele>
        <time>2021-06-19T18:14:57Z</time>
      </trkpt>
      <trkpt lat="42.50953" lon="1.55963">
        <ele>1484</ele>
        <time>2021-06-19T18:15:00Z</time>
      </trkpt>
      <trkpt lat="42.51054" lon="1.55998">
        <ele>1489</ele>
        <time>2021-06-19T18:15:24Z</time>
      </trkpt>
      <trkpt lat="42.51141" lon="1.56036">
        <ele>1492</ele>
        <time>2021-06-19T18:15:45Z</time>
      </trkpt>
      <trkpt lat="42.51157" lon="1.5604">
        <ele>1492</ele>
        <time>2021-06-19T18:15:49Z</time>
      </trkpt>
      <trkpt lat="42.51196" lon="1.5606">
        <ele>1498</ele>
        <time>2021-06-19T18:15:59Z</time>
      </trkpt>
      <trkpt lat="42.51212" lon="1.56077">
        <ele>1502</ele>
        <time>2021-06-19T18:16:04Z</time>
      </trkpt>
      <trkpt lat="42.51214" lon="1.5609">
        <ele>1504</ele>
        <time>2021-06-19T18:16:06Z</time>
      </trkpt>
      <trkpt lat="42.51211" lon="1.56123">
        <ele>1506</ele>
        <time>2021-06-19T18:16:12Z</time>
      </trkpt>
      <trkpt lat="42.51194" lon="1.56194">
        <ele>1511</ele>
        <time>2021-06-19T18:16:24Z</time>
      </trkpt>
      <trkpt lat="42.51186" lon="1.56216">
        <ele>1513</ele>
        <time>2021-06-19T18:16:29Z</time>
      </trkpt>
      <trkpt lat="42.51177" lon="1.5623">
        <ele>1514</ele>
        <time>2021-06-19T18:16:32Z</time>
      </trkpt>
      <trkpt lat="42.5116" lon="1.56245">
        <ele>1514</ele>
        <time>2021-06-19T18:16:37Z</time>
      </trkpt>
      <trkpt lat="42.51129" lon="1.56267">
        <ele>1514</ele>
        <time>2021-06-19T18:16:45Z</time>
      </trkpt>
      <trkpt lat="42.51121" lon="1.56281">
        <ele>1514</ele>
        <time>2021-06-19T18:16:48Z</time>
      </trkpt>
      <trkpt lat="42.51113" lon="1.56365">
        <ele>1518</ele>
        <time>2021-06-19T18:17:02Z</time>
      </trkpt>
      <trkpt lat="42.51104" lon="1.56383">
        <ele>1518</ele>
        <time>2021-06-19T18:17:06Z</time>
      </trkpt>
      <trkpt lat="42.51084" lon="1.56401">
        <ele>1518</ele>
        <time>2021-06-19T18:17:12Z</time>
      </trkpt>
      <trkpt lat="42.51076" lon="1.56412">
        <ele>1519</ele>
        <time>2021-06-19T18:17:14Z</time>
      </trkpt>
      <trkpt lat="42.51071" lon="1.56451">
        <ele>1522</ele>
        <time>2021-06-19T18:17:21Z</time>
      </trkpt>
      <trkpt lat="42.51072" lon="1.56464">
        <ele>1523</ele>
        <time>2021-06-19T18:17:23Z</time>
      </trkpt>
      <trkpt lat="42.50985" lon="1.56477">
        <ele>1523</ele>
        <time>2021-06-19T18:17:44Z</time>
      </trkpt>
      <trkpt lat="42.5096" lon="1.56475">
        <ele>1523</ele>
        <time>2021-06-19T18:17:50Z</time>
      </trkpt>
      <trkpt lat="42.50924" lon="1.56455">
        <ele>1523</ele>
        <time>2021-06-19T18:17:59Z</time>
      </trkpt>
      <trkpt lat="42.50907" lon="1.56431">
        <ele>1527</ele>
        <time>2021-06-19T18:18:05Z</time>
      </trkpt>
      <trkpt lat="42.50885" lon="1.56392">
        <ele>1535</ele>
        <time>2021-06-19T18:18:13Z</time>
      </trkpt>
      <trkpt lat="42.50858" lon="1.56383">
        <ele>1547</ele>
        <time>2021-06-19T18:18:19Z</time>
      </trkpt>
      <trkpt lat="42.50844" lon="1.56372">
        <ele>1553</ele>
        <time>2021-06-19T18:18:23Z</time>
      </trkpt>
      <trkpt lat="42.5082" lon="1.56312">
        <ele>1554</ele>
        <time>2021-06-19T18:18:35Z</time>
      </trkpt>
      <trkpt lat="42.50814" lon="1.56308">
        <ele>1554</ele>
        <time>2021-06-19T18:18:37Z</time>
      </trkpt>
      <trkpt lat="42.50806" lon="1.5631">
        <ele>1557</ele>
        <time>2021-06-19T18:18:38Z</time>
      </trkpt>
      <trkpt lat="42.50793" lon="1.56322">
        <ele>1563</ele>
        <time>2021-06-19T18:18:42Z</time>
      </trkpt>
      <trkpt lat="42.50764" lon="1.5634">
        <ele>1577</ele>
        <time>2021-06-19T18:18:50Z</time>
      </trkpt>
      <trkpt lat="42.50747" lon="1.56359">
        <ele>1588</ele>
        <time>2021-06-19T18:18:55Z</time>
      </trkpt>
      <trkpt lat="42.50726" lon="1.56368">
        <ele>1595</ele>
        <time>2021-06-19T18:19:00Z</time>
      </trkpt>
      <trkpt lat="42.50699" lon="1.56373">
        <ele>1603</ele>
        <time>2021-06-19T18:19:06Z</time>
      </trkpt>
      <trkpt lat="42.50673" lon="1.56372">
        <ele>1609</ele>
        <time>2021-06-19T18:19:12Z</time>
      </trkpt>
      <trkpt lat="42.50665" lon="1.56374">
        <ele>1611</ele>
        <time>2021-06-19T18:19:14Z</time>
      </trkpt>
      <trkpt lat="42.50656" lon="1.56381">
        <ele>1616</ele>
        <time>2021-06-19T18:19:17Z</time>
      </trkpt>
      <trkpt lat="42.50643" lon="1.56386">
        <ele>1620</ele>
        <time>2021-06-19T18:19:20Z</time>
      </trkpt>
      <trkpt lat="42.50635" lon="1.56387">
        <ele>1622</ele>
        <time>2021-06-19T18:19:22Z</time>
      </trkpt>
      <trkpt lat="42.50616" lon="1.56383">
        <ele>1623</ele>
        <time>2021-06-19T18:19:26Z</time>
      </trkpt>
      <trkpt lat="42.50571" lon="1.56395">
        <ele>1636</ele>
        <time>2021-06-19T18:19:37Z</time>
      </trkpt>
      <trkpt lat="42.50558" lon="1.56402">
        <ele>1642</ele>
        <time>2021-06-19T18:19:40Z</time>
      </trkpt>
      <trkpt lat="42.50537" lon="1.564">
        <ele>1645</ele>
        <time>2021-06-19T18:19:45Z</time>
      </trkpt>
      <trkpt lat="42.50522" lon="1.56405">
        <ele>1650</ele>
        <time>2021-06-19T18:19:49Z</time>
      </trkpt>
      <trkpt lat="42.50514" lon="1.56405">
        <ele>1652</ele>
        <time>2021-06-19T18:19:51Z</time>
      </trkpt>
      <trkpt lat="42.50493" lon="1.56399">
        <ele>1654</ele>
        <time>2021-06-19T18:19:56Z</time>
      </trkpt>
      <trkpt lat="42.50478" lon="1.56399">
        <ele>1659</ele>
        <time>2021-06-19T18:19:59Z</time>
      </trkpt>
      <trkpt lat="42.50452" lon="1.56391">
        <ele>1664</ele>
        <time>2021-06-19T18:20:05Z</time>
      </trkpt>
      <trkpt lat="42.50444" lon="1.56391">
        <ele>1666</ele>
        <time>2021-06-19T18:20:07Z</time>
      </trkpt>
      <trkpt lat="42.50421" lon="1.56407">
        <ele>1679</ele>
        <time>2021-06-19T18:20:13Z</time>
      </trkpt>
      <trkpt lat="42.5038" lon="1.56408">
        <ele>1699</ele>
        <time>2021-06-19T18:20:23Z</time>
      </trkpt>
      <trkpt lat="42.50357" lon="1.56401">
        <ele>1709</ele>
        <time>2021-06-19T18:20:28Z</time>
      </trkpt>
      <trkpt lat="42.50328" lon="1.56397">
        <ele>1724</ele>
        <time>2021-06-19T18:20:35Z</time>
      </trkpt>
      <trkpt lat="42.50311" lon="1.56398">
        <ele>1733</ele>
        <time>2021-06-19T18:20:39Z</time>
      </trkpt>
      <trkpt lat="42.50267" lon="1.56373">
        <ele>1753</ele>
        <time>2021-06-19T18:20:50Z</time>
      </trkpt>
      <trkpt lat="42.50228" lon="1.56344">
        <ele>1764</ele>
        <time>2021-06-19T18:21:01Z</time>
      </trkpt>
      <trkpt lat="42.50221" lon="1.56347">
        <ele>1766</ele>
        <time>2021-06-19T18:21:02Z</time>
      </trkpt>
      <trkpt lat="42.50208" lon="1.5639">
        <ele>1773</ele>
        <time>2021-06-19T18:21:10Z</time>
      </trkpt>
      <trkpt lat="42.50208" lon="1.56398">
        <ele>1774</ele>
        <time>2021-06-19T18:21:12Z</time>
      </trkpt>
      <trkpt lat="42.50217" lon="1.56411">
        <ele>1773</ele>
        <time>2021-06-19T18:21:15Z</time>
      </trkpt>
      <trkpt lat="42.50194" lon="1.56387">
        <ele>1776</ele>
        <time>2021-06-19T18:21:22Z</time>
      </trkpt>
      <trkpt lat="42.50173" lon="1.56383">
        <ele>1780</ele>
        <time>2021-06-19T18:21:26Z</time>
      </trkpt>
      <trkpt lat="42.50164" lon="1.56389">
        <ele>1780</ele>
        <time>2021-06-19T18:21:29Z</time>
      </trkpt>
      <trkpt lat="42.50112" lon="1.56444">
        <ele>1745</ele>
        <time>2021-06-19T18:21:44Z</time>
      </trkpt>
      <trkpt lat="42.50099" lon="1.56449">
        <ele>1736</ele>
        <time>2021-06-19T18:21:47Z</time>
      </trkpt>
      <trkpt lat="42.501" lon="1.5647">
        <ele>1738</ele>
        <time>2021-06-19T18:21:51Z</time>
      </trkpt>
      <trkpt lat="42.5009" lon="1.56501">
        <ele>1732</ele>
        <time>2021-06-19T18:21:57Z</time>
      </trkpt>
      <trkpt lat="42.50081" lon="1.56515">
        <ele>1728</ele>
        <time>2021-06-19T18:22:00Z</time>
      </trkpt>
      <trkpt lat="42.50089" lon="1.56534">
        <ele>1737</ele>
        <time>2021-06-19T18:22:04Z</time>
      </trkpt>
      <trkpt lat="42.50088" lon="1.56558">
        <ele>1740</ele>
        <time>2021-06-19T18:22:08Z</time>
      </trkpt>
      <trkpt lat="42.50076" lon="1.56567">
        <ele>1732</ele>
        <time>2021-06-19T18:22:11Z</time>
      </trkpt>
      <trkpt lat="42.50054" lon="1.56573">
        <ele>1715</ele>
        <time>2021-06-19T18:22:16Z</time>
      </trkpt>
      <trkpt lat="42.50064" lon="1.56599">
        <ele>1727</ele>
        <time>2021-06-19T18:22:21Z</time>
      </trkpt>
      <trkpt lat="42.50057" lon="1.56616">
        <ele>1724</ele>
        <time>2021-06-19T18:22:25Z</time>
      </trkpt>
      <trkpt lat="42.50047" lon="1.56622">
        <ele>1716</ele>
        <time>2021-06-19T18:22:27Z</time>
      </trkpt>
      <trkpt lat="42.50042" lon="1.56665">
        <ele>1718</ele>
        <time>2021-06-19T18:22:35Z</time>
      </trkpt>
      <trkpt lat="42.5002" lon="1.56722">
        <ele>1710</ele>
        <time>2021-06-19T18:22:46Z</time>
      </trkpt>
      <trkpt lat="42.50022" lon="1.56762">
        <ele>1718</ele>
        <time>2021-06-19T18:22:53Z</time>
      </trkpt>
      <trkpt lat="42.49958" lon="1.56891">
        <ele>1695</ele>
        <time>2021-06-19T18:23:20Z</time>
      </trkpt>
      <trkpt lat="42.49963" lon="1.56921">
        <ele>1704</ele>
        <time>2021-06-19T18:23:25Z</time>
      </trkpt>
      <trkpt lat="42.49922" lon="1.5697">
        <ele>1685</ele>
        <time>2021-06-19T18:23:38Z</time>
      </trkpt>
      <trkpt lat="42.49914" lon="1.57009">
        <ele>1686</ele>
        <time>2021-06-19T18:23:45Z</time>
      </trkpt>
      <trkpt lat="42.49835" lon="1.57198">
        <ele>1655</ele>
        <time>2021-06-19T18:24:22Z</time>
      </trkpt>
      <trkpt lat="42.49823" lon="1.57287">
        <ele>1653</ele>
        <time>2021-06-19T18:24:38Z</time>
      </trkpt>
      <trkpt lat="42.49816" lon="1.573">
        <ele>1650</ele>
        <time>2021-06-19T18:24:40Z</time>
      </trkpt>
      <trkpt lat="42.49807" lon="1.57362">
        <ele>1653</ele>
        <time>2021-06-19T18:24:51Z</time>
      </trkpt>
      <trkpt lat="42.49789" lon="1.57406">
        <ele>1654</ele>
        <time>2021-06-19T18:25:00Z</time>
      </trkpt>
      <trkpt lat="42.49768" lon="1.57446">
        <ele>1652</ele>
        <time>2021-06-19T18:25:08Z</time>
      </trkpt>
      <trkpt lat="42.49763" lon="1.57464">
        <ele>1653</ele>
        <time>2021-06-19T18:25:12Z</time>
      </trkpt>
      <trkpt lat="42.49758" lon="1.57514">
        <ele>1660</ele>
        <time>2021-06-19T18:25:20Z</time>
      </trkpt>
      <trkpt lat="42.49737" lon="1.57625">
        <ele>1671</ele>
        <time>2021-06-19T18:25:40Z</time>
      </trkpt>
      <trkpt lat="42.49739" lon="1.57644">
        <ele>1673</ele>
        <time>2021-06-19T18:25:43Z</time>
      </trkpt>
      <trkpt lat="42.49754" lon="1.5771">
        <ele>1682</ele>
        <time>2021-06-19T18:25:55Z</time>
      </trkpt>
      <trkpt lat="42.49763" lon="1.57738">
        <ele>1689</ele>
        <time>2021-06-19T18:26:01Z</time>
      </trkpt>
      <trkpt lat="42.49764" lon="1.5775">
        <ele>1690</ele>
        <time>2021-06-19T18:26:03Z</time>
      </trkpt>
      <trkpt lat="42.49763" lon="1.57796">
        <ele>1696</ele>
        <time>2021-06-19T18:26:11Z</time>
      </trkpt>
      <trkpt lat="42.49768" lon="1.57952">
        <ele>1724</ele>
        <time>2021-06-19T18:26:37Z</time>
      </trkpt>
      <trkpt lat="42.4976" lon="1.58017">
        <ele>1736</ele>
        <time>2021-06-19T18:26:49Z</time>
      </trkpt>
      <trkpt lat="42.49747" lon="1.58049">
        <ele>1740</ele>
        <time>2021-06-19T18:26:55Z</time>
      </trkpt>
      <trkpt lat="42.49718" lon="1.58084">
        <ele>1748</ele>
        <time>2021-06-19T18:27:04Z</time>
      </trkpt>
      <trkpt lat="42.4971" lon="1.58098">
        <ele>1751</ele>
        <time>2021-06-19T18:27:07Z</time>
      </trkpt>
      <trkpt lat="42.49706" lon="1.5811">
        <ele>1753</ele>
        <time>2021-06-19T18:27:09Z</time>
      </trkpt>
      <trkpt lat="42.49703" lon="1.58144">
        <ele>1760</ele>
        <time>2021-06-19T18:27:15Z</time>
      </trkpt>
      <trkpt lat="42.49699" lon="1.58158">
        <ele>1762</ele>
        <time>2021-06-19T18:27:18Z</time>
      </trkpt>
      <trkpt lat="42.4966" lon="1.58243">
        <ele>1772</ele>
        <time>2021-06-19T18:27:35Z</time>
      </trkpt>
      <trkpt lat="42.49651" lon="1.58254">
        <ele>1775</ele>
        <time>2021-06-19T18:27:38Z</time>
      </trkpt>
      <trkpt lat="42.49623" lon="1.58277">
        <ele>1779</ele>
        <time>2021-06-19T18:27:46Z</time>
      </trkpt>
      <trkpt lat="42.49617" lon="1.58297">
        <ele>1781</ele>
        <time>2021-06-19T18:27:49Z</time>
      </trkpt>
      <trkpt lat="42.49617" lon="1.58345">
        <ele>1785</ele>
        <time>2021-06-19T18:27:58Z</time>
      </trkpt>
      <trkpt lat="42.49611" lon="1.58367">
        <ele>1788</ele>
        <time>2021-06-19T18:28:02Z</time>
      </trkpt>
      <trkpt lat="42.49589" lon="1.58404">
        <ele>1791</ele>
        <time>2021-06-19T18:28:10Z</time>
      </trkpt>
      <trkpt lat="42.49563" lon="1.58434">
        <ele>1797</ele>
        <time>2021-06-19T18:28:18Z</time>
      </trkpt>
      <trkpt lat="42.49526" lon="1.58483">
        <ele>1805</ele>
        <time>2021-06-19T18:28:30Z</time>
      </trkpt>
      <trkpt lat="42.49521" lon="1.58496">
        <ele>1806</ele>
        <time>2021-06-19T18:28:32Z</time>
      </trkpt>
      <trkpt lat="42.49521" lon="1.58508">
        <ele>1808</ele>
        <time>2021-06-19T18:28:34Z</time>
      </trkpt>
      <trkpt lat="42.49525" lon="1.58525">
        <ele>1813</ele>
        <time>2021-06-19T18:28:38Z</time>
      </trkpt>
      <trkpt lat="42.49526" lon="1.5856">
        <ele>1821</ele>
        <time>2021-06-19T18:28:44Z</time>
      </trkpt>
      <trkpt lat="42.49517" lon="1.58625">
        <ele>1830</ele>
        <time>2021-06-19T18:28:55Z</time>
      </trkpt>
      <trkpt lat="42.49516" lon="1.58663">
        <ele>1835</ele>
        <time>2021-06-19T18:29:02Z</time>
      </trkpt>
      <trkpt lat="42.49511" lon="1.58681">
        <ele>1836</ele>
        <time>2021-06-19T18:29:05Z</time>
      </trkpt>
      <trkpt lat="42.49496" lon="1.58721">
        <ele>1837</ele>
        <time>2021-06-19T18:29:13Z</time>
      </trkpt>
      <trkpt lat="42.49477" lon="1.58748">
        <ele>1840</ele>
        <time>2021-06-19T18:29:19Z</time>
      </trkpt>
      <trkpt lat="42.49461" lon="1.58797">
        <ele>1847</ele>
        <time>2021-06-19T18:29:28Z</time>
      </trkpt>
      <trkpt lat="42.49424" lon="1.58864">
        <ele>1846</ele>
        <time>2021-06-19T18:29:43Z</time>
      </trkpt>
      <trkpt lat="42.49412" lon="1.58894">
        <ele>1848</ele>
        <time>2021-06-19T18:29:49Z</time>
      </trkpt>
      <trkpt lat="42.49401" lon="1.58942">
        <ele>1855</ele>
        <time>2021-06-19T18:29:57Z</time>
      </trkpt>
      <trkpt lat="42.49357" lon="1.59004">
        <ele>1862</ele>
        <time>2021-06-19T18:30:12Z</time>
      </trkpt>
      <trkpt lat="42.49342" lon="1.59045">
        <ele>1865</ele>
        <time>2021-06-19T18:30:20Z</time>
      </trkpt>
      <trkpt lat="42.49322" lon="1.59086">
        <ele>1869</ele>
        <time>2021-06-19T18:30:28Z</time>
      </trkpt>
      <trkpt lat="42.4931" lon="1.59105">
        <ele>1872</ele>
        <time>2021-06-19T18:30:33Z</time>
      </trkpt>
      <trkpt lat="42.49279" lon="1.59142">
        <ele>1873</ele>
        <time>2021-06-19T18:30:42Z</time>
      </trkpt>
      <trkpt lat="42.4927" lon="1.59162">
        <ele>1873</ele>
        <time>2021-06-19T18:30:46Z</time>
      </trkpt>
      <trkpt lat="42.4925" lon="1.5923">
        <ele>1874</ele>
        <time>2021-06-19T18:30:59Z</time>
      </trkpt>
      <trkpt lat="42.49244" lon="1.59277">
        <ele>1877</ele>
        <time>2021-06-19T18:31:07Z</time>
      </trkpt>
      <trkpt lat="42.49227" lon="1.59309">
        <ele>1880</ele>
        <time>2021-06-19T18:31:14Z</time>
      </trkpt>
      <trkpt lat="42.49207" lon="1.59396">
        <ele>1887</ele>
        <time>2021-06-19T18:31:30Z</time>
      </trkpt>
      <trkpt lat="42.49206" lon="1.59412">
        <ele>1888</ele>
        <time>2021-06-19T18:31:32Z</time>
      </trkpt>
      <trkpt lat="42.49214" lon="1.59439">
        <ele>1891</ele>
        <time>2021-06-19T18:31:37Z</time>
      </trkpt>
      <trkpt lat="42.49203" lon="1.59451">
        <ele>1891</ele>
        <time>2021-06-19T18:31:41Z</time>
      </trkpt>
      <trkpt lat="42.49202" lon="1.5946">
        <ele>1892</ele>
        <time>2021-06-19T18:31:42Z</time>
      </trkpt>
      <trkpt lat="42.49188" lon="1.59473">
        <ele>1891</ele>
        <time>2021-06-19T18:31:46Z</time>
      </trkpt>
      <trkpt lat="42.49179" lon="1.59487">
        <ele>1891</ele>
        <time>2021-06-19T18:31:49Z</time>
      </trkpt>
      <trkpt lat="42.49171" lon="1.59511">
        <ele>1893</ele>
        <time>2021-06-19T18:31:54Z</time>
      </trkpt>
      <trkpt lat="42.49157" lon="1.59526">
        <ele>1895</ele>
        <time>2021-06-19T18:31:58Z</time>
      </trkpt>
      <trkpt lat="42.49137" lon="1.59613">
        <ele>1909</ele>
        <time>2021-06-19T18:32:14Z</time>
      </trkpt>
      <trkpt lat="42.49138" lon="1.59637">
        <ele>1913</ele>
        <time>2021-06-19T18:32:18Z</time>
      </trkpt>
      <trkpt lat="42.49146" lon="1.5968">
        <ele>1919</ele>
        <time>2021-06-19T18:32:26Z</time>
      </trkpt>
      <trkpt lat="42.49124" lon="1.59771">
        <ele>1925</ele>
        <time>2021-06-19T18:32:42Z</time>
      </trkpt>
      <trkpt lat="42.4912" lon="1.59846">
        <ele>1929</ele>
        <time>2021-06-19T18:32:55Z</time>
      </trkpt>
      <trkpt lat="42.49106" lon="1.599">
        <ele>1928</ele>
        <time>2021-06-19T18:33:05Z</time>
      </trkpt>
      <trkpt lat="42.4908" lon="1.5998">
        <ele>1929</ele>
        <time>2021-06-19T18:33:20Z</time>
      </trkpt>
      <trkpt lat="42.49054" lon="1.60015">
        <ele>1935</ele>
        <time>2021-06-19T18:33:29Z</time>
      </trkpt>
      <trkpt lat="42.49028" lon="1.60096">
        <ele>1947</ele>
        <time>2021-06-19T18:33:44Z</time>
      </trkpt>
      <trkpt lat="42.49011" lon="1.60185">
        <ele>1957</ele>
        <time>2021-06-19T18:34:00Z</time>
      </trkpt>
      <trkpt lat="42.49012" lon="1.60231">
        <ele>1967</ele>
        <time>2021-06-19T18:34:07Z</time>
      </trkpt>
      <trkpt lat="42.48998" lon="1.60284">
        <ele>1973</ele>
        <time>2021-06-19T18:34:17Z</time>
      </trkpt>
      <trkpt lat="42.48999" lon="1.60311">
        <ele>1978</ele>
        <time>2021-06-19T18:34:22Z</time>
      </trkpt>
      <trkpt lat="42.48992" lon="1.6037">
        <ele>1985</ele>
        <time>2021-06-19T18:34:32Z</time>
      </trkpt>
      <trkpt lat="42.48964" lon="1.60474">
        <ele>1988</ele>
        <time>2021-06-19T18:34:51Z</time>
      </trkpt>
      <trkpt lat="42.48961" lon="1.60521">
        <ele>1989</ele>
        <time>2021-06-19T18:34:59Z</time>
      </trkpt>
      <trkpt lat="42.48971" lon="1.60584">
        <ele>1992</ele>
        <time>2021-06-19T18:35:10Z</time>
      </trkpt>
      <trkpt lat="42.48972" lon="1.60605">
        <ele>1994</ele>
        <time>2021-06-19T18:35:14Z</time>
      </trkpt>
      <trkpt lat="42.48964" lon="1.60632">
        <ele>1993</ele>
        <time>2021-06-19T18:35:19Z</time>
      </trkpt>
      <trkpt lat="42.48956" lon="1.60641">
        <ele>1992</ele>
        <time>2021-06-19T18:35:21Z</time>
      </trkpt>
      <trkpt lat="42.4895" lon="1.60659">
        <ele>1991</ele>
        <time>2021-06-19T18:35:25Z</time>
      </trkpt>
      <trkpt lat="42.48968" lon="1.60751">
        <ele>2001</ele>
        <time>2021-06-19T18:35:41Z</time>
      </trkpt>
      <trkpt lat="42.48973" lon="1.60822">
        <ele>2002</ele>
        <time>2021-06-19T18:35:54Z</time>
      </trkpt>
      <trkpt lat="42.48988" lon="1.6089">
        <ele>2005</ele>
        <time>2021-06-19T18:36:06Z</time>
      </trkpt>
      <trkpt lat="42.48982" lon="1.60934">
        <ele>2007</ele>
        <time>2021-06-19T18:36:13Z</time>
      </trkpt>
      <trkpt lat="42.48971" lon="1.60977">
        <ele>2010</ele>
        <time>2021-06-19T18:36:21Z</time>
      </trkpt>
      <trkpt lat="42.48943" lon="1.60999">
        <ele>2007</ele>
        <time>2021-06-19T18:36:29Z</time>
      </trkpt>
      <trkpt lat="42.48929" lon="1.61027">
        <ele>2008</ele>
        <time>2021-06-19T18:36:35Z</time>
      </trkpt>
      <trkpt lat="42.48919" lon="1.61068">
        <ele>2012</ele>
        <time>2021-06-19T18:36:42Z</time>
      </trkpt>
      <trkpt lat="42.48892" lon="1.61111">
        <ele>2019</ele>
        <time>2021-06-19T18:36:52Z</time>
      </trkpt>
      <trkpt lat="42.48859" lon="1.61188">
        <ele>2027</ele>
        <time>2021-06-19T18:37:07Z</time>
      </trkpt>
      <trkpt lat="42.4885" lon="1.61234">
        <ele>2030</ele>
        <time>2021-06-19T18:37:15Z</time>
      </trkpt>
      <trkpt lat="42.48821" lon="1.6127">
        <ele>2030</ele>
        <time>2021-06-19T18:37:25Z</time>
      </trkpt>
      <trkpt lat="42.48813" lon="1.61286">
        <ele>2033</ele>
        <time>2021-06-19T18:37:28Z</time>
      </trkpt>
      <trkpt lat="42.48795" lon="1.6135">
        <ele>2041</ele>
        <time>2021-06-19T18:37:40Z</time>
      </trkpt>
      <trkpt lat="42.48786" lon="1.61373">
        <ele>2043</ele>
        <time>2021-06-19T18:37:44Z</time>
      </trkpt>
      <trkpt lat="42.48761" lon="1.61416">
        <ele>2042</ele>
        <time>2021-06-19T18:37:54Z</time>
      </trkpt>
      <trkpt lat="42.48732" lon="1.61453">
        <ele>2042</ele>
        <time>2021-06-19T18:38:03Z</time>
      </trkpt>
      <trkpt lat="42.48712" lon="1.61495">
        <ele>2045</ele>
        <time>2021-06-19T18:38:12Z</time>
      </trkpt>
      <trkpt lat="42.48685" lon="1.61529">
        <ele>2048</ele>
        <time>2021-06-19T18:38:20Z</time>
      </trkpt>
      <trkpt lat="42.48674" lon="1.61567">
        <ele>2050</ele>
        <time>2021-06-19T18:38:27Z</time>
      </trkpt>
      <trkpt lat="42.48662" lon="1.6159">
        <ele>2051</ele>
        <time>2021-06-19T18:38:32Z</time>
      </trkpt>
      <trkpt lat="42.48635" lon="1.61601">
        <ele>2054</ele>
        <time>2021-06-19T18:38:39Z</time>
      </trkpt>
      <trkpt lat="42.48602" lon="1.61622">
        <ele>2058</ele>
        <time>2021-06-19T18:38:47Z</time>
      </trkpt>
      <trkpt lat="42.48594" lon="1.61628">
        <ele>2060</ele>
        <time>2021-06-19T18:38:49Z</time>
      </trkpt>
      <trkpt lat="42.48578" lon="1.61647">
        <ele>2062</ele>
        <time>2021-06-19T18:38:54Z</time>
      </trkpt>
      <trkpt lat="42.48563" lon="1.61674">
        <ele>2065</ele>
        <time>2021-06-19T18:39:00Z</time>
      </trkpt>
      <trkpt lat="42.48546" lon="1.61696">
        <ele>2066</ele>
        <time>2021-06-19T18:39:06Z</time>
      </trkpt>
      <trkpt lat="42.4854" lon="1.61718">
        <ele>2068</ele>
        <time>2021-06-19T18:39:10Z</time>
      </trkpt>
      <trkpt lat="42.48529" lon="1.61731">
        <ele>2069</ele>
        <time>2021-06-19T18:39:13Z</time>
      </trkpt>
      <trkpt lat="42.4851" lon="1.6178">
        <ele>2074</ele>
        <time>2021-06-19T18:39:22Z</time>
      </trkpt>
      <trkpt lat="42.48494" lon="1.61802">
        <ele>2076</ele>
        <time>2021-06-19T18:39:28Z</time>
      </trkpt>
      <trkpt lat="42.48472" lon="1.61842">
        <ele>2079</ele>
        <time>2021-06-19T18:39:36Z</time>
      </trkpt>
      <trkpt lat="42.48462" lon="1.61853">
        <ele>2081</ele>
        <time>2021-06-19T18:39:39Z</time>
      </trkpt>
      <trkpt lat="42.48455" lon="1.61875">
        <ele>2083</ele>
        <time>2021-06-19T18:39:44Z</time>
      </trkpt>
      <trkpt lat="42.4845" lon="1.6191">
        <ele>2088</ele>
        <time>2021-06-19T18:39:50Z</time>
      </trkpt>
      <trkpt lat="42.48435" lon="1.6193">
        <ele>2090</ele>
        <time>2021-06-19T18:39:55Z</time>
      </trkpt>
      <trkpt lat="42.48431" lon="1.61944">
        <ele>2092</ele>
        <time>2021-06-19T18:39:57Z</time>
      </trkpt>
      <trkpt lat="42.48427" lon="1.61996">
        <ele>2098</ele>
        <time>2021-06-19T18:40:06Z</time>
      </trkpt>
      <trkpt lat="42.48436" lon="1.62031">
        <ele>2103</ele>
        <time>2021-06-19T18:40:13Z</time>
      </trkpt>
      <trkpt lat="42.48435" lon="1.62039">
        <ele>2104</ele>
        <time>2021-06-19T18:40:14Z</time>
      </trkpt>
      <trkpt lat="42.48422" lon="1.62058">
        <ele>2105</ele>
        <time>2021-06-19T18:40:18Z</time>
      </trkpt>
      <trkpt lat="42.4842" lon="1.62075">
        <ele>2107</ele>
        <time>2021-06-19T18:40:21Z</time>
      </trkpt>
      <trkpt lat="42.48415" lon="1.62086">
        <ele>2108</ele>
        <time>2021-06-19T18:40:24Z</time>
      </trkpt>
      <trkpt lat="42.48412" lon="1.62102">
        <ele>2108</ele>
        <time>2021-06-19T18:40:26Z</time>
      </trkpt>
      <trkpt lat="42.48396" lon="1.62124">
        <ele>2105</ele>
        <time>2021-06-19T18:40:32Z</time>
      </trkpt>
      <trkpt lat="42.48389" lon="1.62143">
        <ele>2105</ele>
        <time>2021-06-19T18:40:35Z</time>
      </trkpt>
      <trkpt lat="42.48387" lon="1.62164">
        <ele>2106</ele>
        <time>2021-06-19T18:40:39Z</time>
      </trkpt>
      <trkpt lat="42.4838" lon="1.62183">
        <ele>2108</ele>
        <time>2021-06-19T18:40:43Z</time>
      </trkpt>
      <trkpt lat="42.4838" lon="1.62227">
        <ele>2116</ele>
        <time>2021-06-19T18:40:50Z</time>
      </trkpt>
      <trkpt lat="42.48376" lon="1.62239">
        <ele>2117</ele>
        <time>2021-06-19T18:40:53Z</time>
      </trkpt>
      <trkpt lat="42.48366" lon="1.62246">
        <ele>2116</ele>
        <time>2021-06-19T18:40:55Z</time>
      </trkpt>
      <trkpt lat="42.48358" lon="1.62259">
        <ele>2117</ele>
        <time>2021-06-19T18:40:58Z</time>
      </trkpt>
      <trkpt lat="42.48354" lon="1.62273">
        <ele>2118</ele>
        <time>2021-06-19T18:41:01Z</time>
      </trkpt>
      <trkpt lat="42.48338" lon="1.6229">
        <ele>2117</ele>
        <time>2021-06-19T18:41:05Z</time>
      </trkpt>
      <trkpt lat="42.48327" lon="1.62382">
        <ele>2127</ele>
        <time>2021-06-19T18:41:22Z</time>
      </trkpt>
      <trkpt lat="42.4833" lon="1.6239">
        <ele>2128</ele>
        <time>2021-06-19T18:41:23Z</time>
      </trkpt>
      <trkpt lat="42.48329" lon="1.6241">
        <ele>2131</ele>
        <time>2021-06-19T18:41:27Z</time>
      </trkpt>
      <trkpt lat="42.48305" lon="1.62461">
        <ele>2137</ele>
        <time>2021-06-19T18:41:37Z</time>
      </trkpt>
      <trkpt lat="42.48303" lon="1.62482">
        <ele>2140</ele>
        <time>2021-06-19T18:41:41Z</time>
      </trkpt>
      <trkpt lat="42.48294" lon="1.62518">
        <ele>2144</ele>
        <time>2021-06-19T18:41:47Z</time>
      </trkpt>
      <trkpt lat="42.48274" lon="1.6256">
        <ele>2149</ele>
        <time>2021-06-19T18:41:56Z</time>
      </trkpt>
      <trkpt lat="42.48282" lon="1.62576">
        <ele>2152</ele>
        <time>2021-06-19T18:41:59Z</time>
      </trkpt>
      <trkpt lat="42.48284" lon="1.62668">
        <ele>2168</ele>
        <time>2021-06-19T18:42:15Z</time>
      </trkpt>
      <trkpt lat="42.4829" lon="1.62705">
        <ele>2172</ele>
        <time>2021-06-19T18:42:21Z</time>
      </trkpt>
      <trkpt lat="42.48289" lon="1.62719">
        <ele>2174</ele>
        <time>2021-06-19T18:42:24Z</time>
      </trkpt>
      <trkpt lat="42.48282" lon="1.6274">
        <ele>2175</ele>
        <time>2021-06-19T18:42:28Z</time>
      </trkpt>
      <trkpt lat="42.48277" lon="1.62747">
        <ele>2175</ele>
        <time>2021-06-19T18:42:30Z</time>
      </trkpt>
      <trkpt lat="42.48276" lon="1.62753">
        <ele>2175</ele>
        <time>2021-06-19T18:42:31Z</time>
      </trkpt>
      <trkpt lat="42.48279" lon="1.62756">
        <ele>2176</ele>
        <time>2021-06-19T18:42:31Z</time>
      </trkpt>
      <trkpt lat="42.48273" lon="1.62775">
        <ele>2177</ele>
        <time>2021-06-19T18:42:35Z</time>
      </trkpt>
      <trkpt lat="42.48272" lon="1.62815">
        <ele>2180</ele>
        <time>2021-06-19T18:42:42Z</time>
      </trkpt>
      <trkpt lat="42.48277" lon="1.62859">
        <ele>2183</ele>
        <time>2021-06-19T18:42:50Z</time>
      </trkpt>
      <trkpt lat="42.48271" lon="1.629">
        <ele>2183</ele>
        <time>2021-06-19T18:42:57Z</time>
      </trkpt>
      <trkpt lat="42.48263" lon="1.62932">
        <ele>2183</ele>
        <time>2021-06-19T18:43:03Z</time>
      </trkpt>
      <trkpt lat="42.48264" lon="1.6295">
        <ele>2184</ele>
        <time>2021-06-19T18:43:06Z</time>
      </trkpt>
      <trkpt lat="42.48276" lon="1.62983">
        <ele>2187</ele>
        <time>2021-06-19T18:43:12Z</time>
      </trkpt>
      <trkpt lat="42.48276" lon="1.63007">
        <ele>2188</ele>
        <time>2021-06-19T18:43:16Z</time>
      </trkpt>
      <trkpt lat="42.48283" lon="1.63032">
        <ele>2190</ele>
        <time>2021-06-19T18:43:21Z</time>
      </trkpt>
      <trkpt lat="42.48289" lon="1.63097">
        <ele>2193</ele>
        <time>2021-06-19T18:43:32Z</time>
      </trkpt>
      <trkpt lat="42.48306" lon="1.63153">
        <ele>2190</ele>
        <time>2021-06-19T18:43:42Z</time>
      </trkpt>
      <trkpt lat="42.48318" lon="1.63179">
        <ele>2188</ele>
        <time>2021-06-19T18:43:48Z</time>
      </trkpt>
      <trkpt lat="42.4834" lon="1.63301">
        <ele>2188</ele>
        <time>2021-06-19T18:44:09Z</time>
      </trkpt>
      <trkpt lat="42.48364" lon="1.63384">
        <ele>2194</ele>
        <time>2021-06-19T18:44:25Z</time>
      </trkpt>
      <trkpt lat="42.48375" lon="1.63439">
        <ele>2197</ele>
        <time>2021-06-19T18:44:35Z</time>
      </trkpt>
      <trkpt lat="42.48381" lon="1.6349">
        <ele>2202</ele>
        <time>2021-06-19T18:44:43Z</time>
      </trkpt>
      <trkpt lat="42.4838" lon="1.63532">
        <ele>2205</ele>
        <time>2021-06-19T18:44:51Z</time>
      </trkpt>
      <trkpt lat="42.48383" lon="1.63554">
        <ele>2207</ele>
        <time>2021-06-19T18:44:55Z</time>
      </trkpt>
      <trkpt lat="42.48397" lon="1.63613">
        <ele>2212</ele>
        <time>2021-06-19T18:45:05Z</time>
      </trkpt>
      <trkpt lat="42.48405" lon="1.63629">
        <ele>2213</ele>
        <time>2021-06-19T18:45:09Z</time>
      </trkpt>
      <trkpt lat="42.48412" lon="1.63655">
        <ele>2214</ele>
        <time>2021-06-19T18:45:13Z</time>
      </trkpt>
      <trkpt lat="42.48418" lon="1.63666">
        <ele>2215</ele>
        <time>2021-06-19T18:45:16Z</time>
      </trkpt>
      <trkpt lat="42.4843" lon="1.63672">
        <ele>2222</ele>
        <time>2021-06-19T18:45:19Z</time>
      </trkpt>
      <trkpt lat="42.48433" lon="1.6368">
        <ele>2224</ele>
        <time>2021-06-19T18:45:20Z</time>
      </trkpt>
      <trkpt lat="42.48446" lon="1.63695">
        <ele>2231</ele>
        <time>2021-06-19T18:45:24Z</time>
      </trkpt>
      <trkpt lat="42.48456" lon="1.6372">
        <ele>2237</ele>
        <time>2021-06-19T18:45:29Z</time>
      </trkpt>
      <trkpt lat="42.48459" lon="1.63747">
        <ele>2238</ele>
        <time>2021-06-19T18:45:34Z</time>
      </trkpt>
      <trkpt lat="42.48472" lon="1.63789">
        <ele>2242</ele>
        <time>2021-06-19T18:45:42Z</time>
      </trkpt>
      <trkpt lat="42.48471" lon="1.63795">
        <ele>2242</ele>
        <time>2021-06-19T18:45:43Z</time>
      </trkpt>
      <trkpt lat="42.4848" lon="1.63838">
        <ele>2242</ele>
        <time>2021-06-19T18:45:50Z</time>
      </trkpt>
      <trkpt lat="42.48481" lon="1.63862">
        <ele>2242</ele>
        <time>2021-06-19T18:45:55Z</time>
      </trkpt>
      <trkpt lat="42.48504" lon="1.63894">
        <ele>2244</ele>
        <time>2021-06-19T18:46:02Z</time>
      </trkpt>
      <trkpt lat="42.48509" lon="1.6391">
        <ele>2247</ele>
        <time>2021-06-19T18:46:05Z</time>
      </trkpt>
      <trkpt lat="42.48503" lon="1.63925">
        <ele>2243</ele>
        <time>2021-06-19T18:46:08Z</time>
      </trkpt>
      <trkpt lat="42.48507" lon="1.6394">
        <ele>2246</ele>
        <time>2021-06-19T18:46:11Z</time>
      </trkpt>
      <trkpt lat="42.48515" lon="1.64037">
        <ele>2254</ele>
        <time>2021-06-19T18:46:28Z</time>
      </trkpt>
      <trkpt lat="42.48523" lon="1.64052">
        <ele>2256</ele>
        <time>2021-06-19T18:46:31Z</time>
      </trkpt>
      <trkpt lat="42.48531" lon="1.64061">
        <ele>2258</ele>
        <time>2021-06-19T18:46:33Z</time>
      </trkpt>
      <trkpt lat="42.48534" lon="1.64073">
        <ele>2258</ele>
        <time>2021-06-19T18:46:36Z</time>
      </trkpt>
      <trkpt lat="42.48554" lon="1.64119">
        <ele>2261</ele>
        <time>2021-06-19T18:46:45Z</time>
      </trkpt>
      <trkpt lat="42.4855" lon="1.6413">
        <ele>2261</ele>
        <time>2021-06-19T18:46:47Z</time>
      </trkpt>
      <trkpt lat="42.48559" lon="1.64165">
        <ele>2263</ele>
        <time>2021-06-19T18:46:53Z</time>
      </trkpt>
      <trkpt lat="42.48569" lon="1.64188">
        <ele>2264</ele>
        <time>2021-06-19T18:46:58Z</time>
      </trkpt>
      <trkpt lat="42.48585" lon="1.64204">
        <ele>2266</ele>
        <time>2021-06-19T18:47:02Z</time>
      </trkpt>
      <trkpt lat="42.4859" lon="1.64216">
        <ele>2269</ele>
        <time>2021-06-19T18:47:05Z</time>
      </trkpt>
      <trkpt lat="42.48584" lon="1.64233">
        <ele>2266</ele>
        <time>2021-06-19T18:47:08Z</time>
      </trkpt>
      <trkpt lat="42.48594" lon="1.64285">
        <ele>2273</ele>
        <time>2021-06-19T18:47:17Z</time>
      </trkpt>
      <trkpt lat="42.48587" lon="1.64294">
        <ele>2270</ele>
        <time>2021-06-19T18:47:20Z</time>
      </trkpt>
      <trkpt lat="42.4859" lon="1.64311">
        <ele>2273</ele>
        <time>2021-06-19T18:47:23Z</time>
      </trkpt>
      <trkpt lat="42.48578" lon="1.64346">
        <ele>2273</ele>
        <time>2021-06-19T18:47:29Z</time>
      </trkpt>
      <trkpt lat="42.48573" lon="1.64356">
        <ele>2275</ele>
        <time>2021-06-19T18:47:31Z</time>
      </trkpt>
      <trkpt lat="42.4854" lon="1.64384">
        <ele>2281</ele>
        <time>2021-06-19T18:47:40Z</time>
      </trkpt>
      <trkpt lat="42.48536" lon="1.64392">
        <ele>2283</ele>
        <time>2021-06-19T18:47:42Z</time>
      </trkpt>
      <trkpt lat="42.48506" lon="1.64405">
        <ele>2286</ele>
        <time>2021-06-19T18:47:49Z</time>
      </trkpt>
      <trkpt lat="42.48492" lon="1.64419">
        <ele>2289</ele>
        <time>2021-06-19T18:47:53Z</time>
      </trkpt>
      <trkpt lat="42.48482" lon="1.64441">
        <ele>2293</ele>
        <time>2021-06-19T18:47:58Z</time>
      </trkpt>
      <trkpt lat="42.48476" lon="1.64461">
        <ele>2296</ele>
        <time>2021-06-19T18:48:02Z</time>
      </trkpt>
      <trkpt lat="42.48482" lon="1.64503">
        <ele>2302</ele>
        <time>2021-06-19T18:48:09Z</time>
      </trkpt>
      <trkpt lat="42.48485" lon="1.64508">
        <ele>2303</ele>
        <time>2021-06-19T18:48:10Z</time>
      </trkpt>
      <trkpt lat="42.48488" lon="1.64505">
        <ele>2303</ele>
        <time>2021-06-19T18:48:11Z</time>
      </trkpt>
      <trkpt lat="42.48492" lon="1.64506">
        <ele>2303</ele>
        <time>2021-06-19T18:48:12Z</time>
      </trkpt>
      <trkpt lat="42.485" lon="1.64522">
        <ele>2305</ele>
        <time>2021-06-19T18:48:15Z</time>
      </trkpt>
      <trkpt lat="42.48501" lon="1.64545">
        <ele>2307</ele>
        <time>2021-06-19T18:48:19Z</time>
      </trkpt>
      <trkpt lat="42.48495" lon="1.64569">
        <ele>2309</ele>
        <time>2021-06-19T18:48:24Z</time>
      </trkpt>
      <trkpt lat="42.48508" lon="1.64588">
        <ele>2313</ele>
        <time>2021-06-19T18:48:28Z</time>
      </trkpt>
      <trkpt lat="42.48517" lon="1.64594">
        <ele>2315</ele>
        <time>2021-06-19T18:48:30Z</time>
      </trkpt>
      <trkpt lat="42.48527" lon="1.64624">
        <ele>2319</ele>
        <time>2021-06-19T18:48:36Z</time>
      </trkpt>
      <trkpt lat="42.48532" lon="1.64626">
        <ele>2321</ele>
        <time>2021-06-19T18:48:37Z</time>
      </trkpt>
      <trkpt lat="42.48547" lon="1.64617">
        <ele>2323</ele>
        <time>2021-06-19T18:48:41Z</time>
      </trkpt>
      <trkpt lat="42.48555" lon="1.64601">
        <ele>2324</ele>
        <time>2021-06-19T18:48:44Z</time>
      </trkpt>
      <trkpt lat="42.48577" lon="1.64593">
        <ele>2328</ele>
        <time>2021-06-19T18:48:50Z</time>
      </trkpt>
      <trkpt lat="42.48585" lon="1.64587">
        <ele>2330</ele>
        <time>2021-06-19T18:48:52Z</time>
      </trkpt>
      <trkpt lat="42.48596" lon="1.64607">
        <ele>2333</ele>
        <time>2021-06-19T18:48:56Z</time>
      </trkpt>
      <trkpt lat="42.48601" lon="1.64609">
        <ele>2334</ele>
        <time>2021-06-19T18:48:57Z</time>
      </trkpt>
      <trkpt lat="42.48606" lon="1.64615">
        <ele>2336</ele>
        <time>2021-06-19T18:48:59Z</time>
      </trkpt>
      <trkpt lat="42.48615" lon="1.64618">
        <ele>2337</ele>
        <time>2021-06-19T18:49:01Z</time>
      </trkpt>
      <trkpt lat="42.48625" lon="1.64619">
        <ele>2339</ele>
        <time>2021-06-19T18:49:03Z</time>
      </trkpt>
      <trkpt lat="42.48646" lon="1.64596">
        <ele>2341</ele>
        <time>2021-06-19T18:49:10Z</time>
      </trkpt>
      <trkpt lat="42.48654" lon="1.64596">
        <ele>2342</ele>
        <time>2021-06-19T18:49:12Z</time>
      </trkpt>
      <trkpt lat="42.48661" lon="1.646">
        <ele>2344</ele>
        <time>2021-06-19T18:49:13Z</time>
      </trkpt>
      <trkpt lat="42.48666" lon="1.64614">
        <ele>2347</ele>
        <time>2021-06-19T18:49:16Z</time>
      </trkpt>
      <trkpt lat="42.48673" lon="1.64607">
        <ele>2347</ele>
        <time>2021-06-19T18:49:18Z</time>
      </trkpt>
      <trkpt lat="42.48677" lon="1.64606">
        <ele>2348</ele>
        <time>2021-06-19T18:49:19Z</time>
      </trkpt>
      <trkpt lat="42.48692" lon="1.64615">
        <ele>2353</ele>
        <time>2021-06-19T18:49:23Z</time>
      </trkpt>
      <trkpt lat="42.48707" lon="1.64633">
        <ele>2359</ele>
        <time>2021-06-19T18:49:28Z</time>
      </trkpt>
      <trkpt lat="42.48711" lon="1.64648">
        <ele>2361</ele>
        <time>2021-06-19T18:49:30Z</time>
      </trkpt>
      <trkpt lat="42.48715" lon="1.64653">
        <ele>2363</ele>
        <time>2021-06-19T18:49:32Z</time>
      </trkpt>
      <trkpt lat="42.48718" lon="1.64673">
        <ele>2366</ele>
        <time>2021-06-19T18:49:35Z</time>
      </trkpt>
      <trkpt lat="42.48715" lon="1.64685">
        <ele>2368</ele>
        <time>2021-06-19T18:49:37Z</time>
      </trkpt>
      <trkpt lat="42.48716" lon="1.64694">
        <ele>2369</ele>
        <time>2021-06-19T18:49:39Z</time>
      </trkpt>
      <trkpt lat="42.48724" lon="1.64698">
        <ele>2372</ele>
        <time>2021-06-19T18:49:41Z</time>
      </trkpt>
      <trkpt lat="42.48735" lon="1.64717">
        <ele>2377</ele>
        <time>2021-06-19T18:49:45Z</time>
      </trkpt>
      <trkpt lat="42.48741" lon="1.64709">
        <ele>2377</ele>
        <time>2021-06-19T18:49:47Z</time>
      </trkpt>
      <trkpt lat="42.48755" lon="1.64702">
        <ele>2379</ele>
        <time>2021-06-19T18:49:50Z</time>
      </trkpt>
      <trkpt lat="42.48776" lon="1.6471">
        <ele>2382</ele>
        <time>2021-06-19T18:49:56Z</time>
      </trkpt>
      <trkpt lat="42.48789" lon="1.64697">
        <ele>2381</ele>
        <time>2021-06-19T18:49:59Z</time>
      </trkpt>
      <trkpt lat="42.48801" lon="1.647">
        <ele>2383</ele>
        <time>2021-06-19T18:50:02Z</time>
      </trkpt>
      <trkpt lat="42.48815" lon="1.64718">
        <ele>2386</ele>
        <time>2021-06-19T18:50:07Z</time>
      </trkpt>
      <trkpt lat="42.48826" lon="1.64729">
        <ele>2388</ele>
        <time>2021-06-19T18:50:10Z</time>
      </trkpt>
      <trkpt lat="42.48836" lon="1.64734">
        <ele>2390</ele>
        <time>2021-06-19T18:50:12Z</time>
      </trkpt>
      <trkpt lat="42.48842" lon="1.64742">
        <ele>2391</ele>
        <time>2021-06-19T18:50:14Z</time>
      </trkpt>
      <trkpt lat="42.48861" lon="1.64782">
        <ele>2399</ele>
        <time>2021-06-19T18:50:23Z</time>
      </trkpt>
      <trkpt lat="42.48861" lon="1.6479">
        <ele>2401</ele>
        <time>2021-06-19T18:50:24Z</time>
      </trkpt>
      <trkpt lat="42.48869" lon="1.648">
        <ele>2403</ele>
        <time>2021-06-19T18:50:26Z</time>
      </trkpt>
      <trkpt lat="42.4889" lon="1.64808">
        <ele>2405</ele>
        <time>2021-06-19T18:50:32Z</time>
      </trkpt>
      <trkpt lat="42.48904" lon="1.6481">
        <ele>2406</ele>
        <time>2021-06-19T18:50:35Z</time>
      </trkpt>
      <trkpt lat="42.48921" lon="1.64807">
        <ele>2408</ele>
        <time>2021-06-19T18:50:39Z</time>
      </trkpt>
      <trkpt lat="42.48939" lon="1.64794">
        <ele>2410</ele>
        <time>2021-06-19T18:50:44Z</time>
      </trkpt>
      <trkpt lat="42.4896" lon="1.64764">
        <ele>2411</ele>
        <time>2021-06-19T18:50:51Z</time>
      </trkpt>
      <trkpt lat="42.48982" lon="1.64756">
        <ele>2416</ele>
        <time>2021-06-19T18:50:56Z</time>
      </trkpt>
      <trkpt lat="42.48986" lon="1.64748">
        <ele>2417</ele>
        <time>2021-06-19T18:50:58Z</time>
      </trkpt>
      <trkpt lat="42.4899" lon="1.64749">
        <ele>2418</ele>
        <time>2021-06-19T18:50:59Z</time>
      </trkpt>
      <trkpt lat="42.49001" lon="1.64768">
        <ele>2421</ele>
        <time>2021-06-19T18:51:03Z</time>
      </trkpt>
      <trkpt lat="42.49017" lon="1.64764">
        <ele>2425</ele>
        <time>2021-06-19T18:51:07Z</time>
      </trkpt>
      <trkpt lat="42.49024" lon="1.64769">
        <ele>2427</ele>
        <time>2021-06-19T18:51:08Z</time>
      </trkpt>
      <trkpt lat="42.49049" lon="1.64861">
        <ele>2433</ele>
        <time>2021-06-19T18:51:25Z</time>
      </trkpt>
      <trkpt lat="42.49056" lon="1.64864">
        <ele>2435</ele>
        <time>2021-06-19T18:51:27Z</time>
      </trkpt>
      <trkpt lat="42.49061" lon="1.64871">
        <ele>2435</ele>
        <time>2021-06-19T18:51:29Z</time>
      </trkpt>
      <trkpt lat="42.49077" lon="1.64905">
        <ele>2436</ele>
        <time>2021-06-19T18:51:36Z</time>
      </trkpt>
      <trkpt lat="42.49082" lon="1.64928">
        <ele>2435</ele>
        <time>2021-06-19T18:51:40Z</time>
      </trkpt>
      <trkpt lat="42.49087" lon="1.64938">
        <ele>2435</ele>
        <time>2021-06-19T18:51:42Z</time>
      </trkpt>
      <trkpt lat="42.49087" lon="1.6495">
        <ele>2434</ele>
        <time>2021-06-19T18:51:44Z</time>
      </trkpt>
      <trkpt lat="42.49084" lon="1.64959">
        <ele>2433</ele>
        <time>2021-06-19T18:51:46Z</time>
      </trkpt>
      <trkpt lat="42.49087" lon="1.6497">
        <ele>2432</ele>
        <time>2021-06-19T18:51:48Z</time>
      </trkpt>
      <trkpt lat="42.49094" lon="1.64982">
        <ele>2433</ele>
        <time>2021-06-19T18:51:50Z</time>
      </trkpt>
      <trkpt lat="42.491" lon="1.64987">
        <ele>2434</ele>
        <time>2021-06-19T18:51:52Z</time>
      </trkpt>
      <trkpt lat="42.4911" lon="1.65016">
        <ele>2436</ele>
        <time>2021-06-19T18:51:57Z</time>
      </trkpt>
      <trkpt lat="42.49117" lon="1.65061">
        <ele>2438</ele>
        <time>2021-06-19T18:52:05Z</time>
      </trkpt>
      <trkpt lat="42.49116" lon="1.65067">
        <ele>2438</ele>
        <time>2021-06-19T18:52:06Z</time>
      </trkpt>
      <trkpt lat="42.49108" lon="1.65074">
        <ele>2436</ele>
        <time>2021-06-19T18:52:09Z</time>
      </trkpt>
      <trkpt lat="42.49111" lon="1.65084">
        <ele>2437</ele>
        <time>2021-06-19T18:52:11Z</time>
      </trkpt>
      <trkpt lat="42.49107" lon="1.65105">
        <ele>2436</ele>
        <time>2021-06-19T18:52:14Z</time>
      </trkpt>
      <trkpt lat="42.4911" lon="1.65115">
        <ele>2436</ele>
        <time>2021-06-19T18:52:16Z</time>
      </trkpt>
      <trkpt lat="42.49116" lon="1.65118">
        <ele>2437</ele>
        <time>2021-06-19T18:52:18Z</time>
      </trkpt>
      <trkpt lat="42.49125" lon="1.65116">
        <ele>2439</ele>
        <time>2021-06-19T18:52:20Z</time>
      </trkpt>
      <trkpt lat="42.49133" lon="1.65109">
        <ele>2441</ele>
        <time>2021-06-19T18:52:22Z</time>
      </trkpt>
      <trkpt lat="42.49144" lon="1.65115">
        <ele>2442</ele>
        <time>2021-06-19T18:52:25Z</time>
      </trkpt>
      <trkpt lat="42.49156" lon="1.65115">
        <ele>2445</ele>
        <time>2021-06-19T18:52:28Z</time>
      </trkpt>
      <trkpt lat="42.49176" lon="1.65122">
        <ele>2447</ele>
        <time>2021-06-19T18:52:32Z</time>
      </trkpt>
      <trkpt lat="42.4918" lon="1.65136">
        <ele>2447</ele>
        <time>2021-06-19T18:52:35Z</time>
      </trkpt>
      <trkpt lat="42.49188" lon="1.65148">
        <ele>2447</ele>
        <time>2021-06-19T18:52:38Z</time>
      </trkpt>
      <trkpt lat="42.49195" lon="1.6515">
        <ele>2448</ele>
        <time>2021-06-19T18:52:39Z</time>
      </trkpt>
      <trkpt lat="42.49221" lon="1.65171">
        <ele>2449</ele>
        <time>2021-06-19T18:52:47Z</time>
      </trkpt>
      <trkpt lat="42.49227" lon="1.6517">
        <ele>2450</ele>
        <time>2021-06-19T18:52:48Z</time>
      </trkpt>
      <trkpt lat="42.49231" lon="1.65174">
        <ele>2450</ele>
        <time>2021-06-19T18:52:49Z</time>
      </trkpt>
      <trkpt lat="42.49236" lon="1.65191">
        <ele>2452</ele>
        <time>2021-06-19T18:52:52Z</time>
      </trkpt>
      <trkpt lat="42.4925" lon="1.6518">
        <ele>2453</ele>
        <time>2021-06-19T18:52:56Z</time>
      </trkpt>
      <trkpt lat="42.49261" lon="1.65156">
        <ele>2453</ele>
        <time>2021-06-19T18:53:01Z</time>
      </trkpt>
      <trkpt lat="42.49274" lon="1.65138">
        <ele>2455</ele>
        <time>2021-06-19T18:53:05Z</time>
      </trkpt>
      <trkpt lat="42.49282" lon="1.65139">
        <ele>2456</ele>
        <time>2021-06-19T18:53:07Z</time>
      </trkpt>
      <trkpt lat="42.4929" lon="1.65132">
        <ele>2457</ele>
        <time>2021-06-19T18:53:09Z</time>
      </trkpt>
      <trkpt lat="42.49307" lon="1.65126">
        <ele>2458</ele>
        <time>2021-06-19T18:53:13Z</time>
      </trkpt>
      <trkpt lat="42.49315" lon="1.6512">
        <ele>2458</ele>
        <time>2021-06-19T18:53:16Z</time>
      </trkpt>
      <trkpt lat="42.49333" lon="1.65119">
        <ele>2459</ele>
        <time>2021-06-19T18:53:20Z</time>
      </trkpt>
      <trkpt lat="42.49348" lon="1.65114">
        <ele>2461</ele>
        <time>2021-06-19T18:53:23Z</time>
      </trkpt>
      <trkpt lat="42.49361" lon="1.65135">
        <ele>2463</ele>
        <time>2021-06-19T18:53:28Z</time>
      </trkpt>
      <trkpt lat="42.4936" lon="1.6514">
        <ele>2463</ele>
        <time>2021-06-19T18:53:29Z</time>
      </trkpt>
      <trkpt lat="42.49347" lon="1.65161">
        <ele>2462</ele>
        <time>2021-06-19T18:53:34Z</time>
      </trkpt>
      <trkpt lat="42.49343" lon="1.65158">
        <ele>2461</ele>
        <time>2021-06-19T18:53:35Z</time>
      </trkpt>
      <trkpt lat="42.49338" lon="1.6516">
        <ele>2461</ele>
        <time>2021-06-19T18:53:36Z</time>
      </trkpt>
      <trkpt lat="42.49331" lon="1.65168">
        <ele>2460</ele>
        <time>2021-06-19T18:53:38Z</time>
      </trkpt>
      <trkpt lat="42.49306" lon="1.65203">
        <ele>2461</ele>
        <time>2021-06-19T18:53:47Z</time>
      </trkpt>
      <trkpt lat="42.49304" lon="1.65213">
        <ele>2462</ele>
        <time>2021-06-19T18:53:48Z</time>
      </trkpt>
      <trkpt lat="42.49309" lon="1.65219">
        <ele>2463</ele>
        <time>2021-06-19T18:53:50Z</time>
      </trkpt>
      <trkpt lat="42.49318" lon="1.65214">
        <ele>2464</ele>
        <time>2021-06-19T18:53:52Z</time>
      </trkpt>
      <trkpt lat="42.49333" lon="1.6521">
        <ele>2466</ele>
        <time>2021-06-19T18:53:56Z</time>
      </trkpt>
      <trkpt lat="42.4934" lon="1.65218">
        <ele>2467</ele>
        <time>2021-06-19T18:53:58Z</time>
      </trkpt>
      <trkpt lat="42.49348" lon="1.65219">
        <ele>2468</ele>
        <time>2021-06-19T18:54:00Z</time>
      </trkpt>
      <trkpt lat="42.49351" lon="1.65235">
        <ele>2470</ele>
        <time>2021-06-19T18:54:03Z</time>
      </trkpt>
      <trkpt lat="42.49357" lon="1.65241">
        <ele>2471</ele>
        <time>2021-06-19T18:54:04Z</time>
      </trkpt>
      <trkpt lat="42.49359" lon="1.65275">
        <ele>2474</ele>
        <time>2021-06-19T18:54:10Z</time>
      </trkpt>
      <trkpt lat="42.49383" lon="1.65323">
        <ele>2478</ele>
        <time>2021-06-19T18:54:20Z</time>
      </trkpt>
      <trkpt lat="42.49388" lon="1.65326">
        <ele>2478</ele>
        <time>2021-06-19T18:54:21Z</time>
      </trkpt>
      <trkpt lat="42.49394" lon="1.6534">
        <ele>2479</ele>
        <time>2021-06-19T18:54:24Z</time>
      </trkpt>
      <trkpt lat="42.49407" lon="1.65359">
        <ele>2479</ele>
        <time>2021-06-19T18:54:29Z</time>
      </trkpt>
      <trkpt lat="42.49408" lon="1.65367">
        <ele>2480</ele>
        <time>2021-06-19T18:54:30Z</time>
      </trkpt>
      <trkpt lat="42.49403" lon="1.65385">
        <ele>2481</ele>
        <time>2021-06-19T18:54:33Z</time>
      </trkpt>
      <trkpt lat="42.494" lon="1.65416">
        <ele>2482</ele>
        <time>2021-06-19T18:54:39Z</time>
      </trkpt>
      <trkpt lat="42.49401" lon="1.65432">
        <ele>2482</ele>
        <time>2021-06-19T18:54:42Z</time>
      </trkpt>
      <trkpt lat="42.49409" lon="1.65434">
        <ele>2482</ele>
        <time>2021-06-19T18:54:43Z</time>
      </trkpt>
      <trkpt lat="42.49415" lon="1.65441">
        <ele>2483</ele>
        <time>2021-06-19T18:54:45Z</time>
      </trkpt>
      <trkpt lat="42.49425" lon="1.65443">
        <ele>2483</ele>
        <time>2021-06-19T18:54:48Z</time>
      </trkpt>
      <trkpt lat="42.49435" lon="1.6545">
        <ele>2483</ele>
        <time>2021-06-19T18:54:50Z</time>
      </trkpt>
      <trkpt lat="42.49439" lon="1.65464">
        <ele>2483</ele>
        <time>2021-06-19T18:54:53Z</time>
      </trkpt>
      <trkpt lat="42.49437" lon="1.65478">
        <ele>2483</ele>
        <time>2021-06-19T18:54:55Z</time>
      </trkpt>
      <trkpt lat="42.49425" lon="1.65509">
        <ele>2484</ele>
        <time>2021-06-19T18:55:01Z</time>
      </trkpt>
      <trkpt lat="42.49426" lon="1.65532">
        <ele>2484</ele>
        <time>2021-06-19T18:55:05Z</time>
      </trkpt>
      <trkpt lat="42.49466" lon="1.65586">
        <ele>2484</ele>
        <time>2021-06-19T18:55:18Z</time>
      </trkpt>
      <trkpt lat="42.49477" lon="1.65595">
        <ele>2484</ele>
        <time>2021-06-19T18:55:21Z</time>
      </trkpt>
      <trkpt lat="42.49484" lon="1.65597">
        <ele>2485</ele>
        <time>2021-06-19T18:55:23Z</time>
      </trkpt>
      <trkpt lat="42.49484" lon="1.656">
        <ele>2485</ele>
        <time>2021-06-19T18:55:24Z</time>
      </trkpt>
      <trkpt lat="42.49488" lon="1.65603">
        <ele>2485</ele>
        <time>2021-06-19T18:55:25Z</time>
      </trkpt>
      <trkpt lat="42.49489" lon="1.65649">
        <ele>2490</ele>
        <time>2021-06-19T18:55:33Z</time>
      </trkpt>
      <trkpt lat="42.49487" lon="1.65664">
        <ele>2492</ele>
        <time>2021-06-19T18:55:35Z</time>
      </trkpt>
      <trkpt lat="42.49501" lon="1.65678">
        <ele>2495</ele>
        <time>2021-06-19T18:55:39Z</time>
      </trkpt>
      <trkpt lat="42.49507" lon="1.65695">
        <ele>2498</ele>
        <time>2021-06-19T18:55:43Z</time>
      </trkpt>
      <trkpt lat="42.49514" lon="1.65704">
        <ele>2500</ele>
        <time>2021-06-19T18:55:45Z</time>
      </trkpt>
      <trkpt lat="42.49516" lon="1.65719">
        <ele>2502</ele>
        <time>2021-06-19T18:55:47Z</time>
      </trkpt>
      <trkpt lat="42.49512" lon="1.65737">
        <ele>2504</ele>
        <time>2021-06-19T18:55:51Z</time>
      </trkpt>
      <trkpt lat="42.49508" lon="1.65739">
        <ele>2504</ele>
        <time>2021-06-19T18:55:52Z</time>
      </trkpt>
      <trkpt lat="42.49507" lon="1.65743">
        <ele>2504</ele>
        <time>2021-06-19T18:55:52Z</time>
      </trkpt>
      <trkpt lat="42.49513" lon="1.65756">
        <ele>2507</ele>
        <time>2021-06-19T18:55:55Z</time>
      </trkpt>
      <trkpt lat="42.49513" lon="1.65773">
        <ele>2509</ele>
        <time>2021-06-19T18:55:58Z</time>
      </trkpt>
      <trkpt lat="42.4952" lon="1.65795">
        <ele>2513</ele>
        <time>2021-06-19T18:56:02Z</time>
      </trkpt>
      <trkpt lat="42.49517" lon="1.65814">
        <ele>2516</ele>
        <time>2021-06-19T18:56:05Z</time>
      </trkpt>
      <trkpt lat="42.49528" lon="1.65833">
        <ele>2517</ele>
        <time>2021-06-19T18:56:10Z</time>
      </trkpt>
      <trkpt lat="42.49541" lon="1.65845">
        <ele>2516</ele>
        <time>2021-06-19T18:56:13Z</time>
      </trkpt>
      <trkpt lat="42.49548" lon="1.65898">
        <ele>2522</ele>
        <time>2021-06-19T18:56:23Z</time>
      </trkpt>
      <trkpt lat="42.49559" lon="1.65921">
        <ele>2521</ele>
        <time>2021-06-19T18:56:27Z</time>
      </trkpt>
      <trkpt lat="42.49556" lon="1.65952">
        <ele>2525</ele>
        <time>2021-06-19T18:56:33Z</time>
      </trkpt>
      <trkpt lat="42.49559" lon="1.65963">
        <ele>2525</ele>
        <time>2021-06-19T18:56:35Z</time>
      </trkpt>
      <trkpt lat="42.49552" lon="1.65998">
        <ele>2531</ele>
        <time>2021-06-19T18:56:41Z</time>
      </trkpt>
      <trkpt lat="42.49551" lon="1.66022">
        <ele>2533</ele>
        <time>2021-06-19T18:56:45Z</time>
      </trkpt>
      <trkpt lat="42.49544" lon="1.66035">
        <ele>2535</ele>
        <time>2021-06-19T18:56:48Z</time>
      </trkpt>
      <trkpt lat="42.49537" lon="1.66078">
        <ele>2539</ele>
        <time>2021-06-19T18:56:55Z</time>
      </trkpt>
      <trkpt lat="42.49532" lon="1.66089">
        <ele>2540</ele>
        <time>2021-06-19T18:56:58Z</time>
      </trkpt>
      <trkpt lat="42.49526" lon="1.66117">
        <ele>2543</ele>
        <time>2021-06-19T18:57:03Z</time>
      </trkpt>
      <trkpt lat="42.49517" lon="1.66129">
        <ele>2544</ele>
        <time>2021-06-19T18:57:06Z</time>
      </trkpt>
      <trkpt lat="42.49498" lon="1.66128">
        <ele>2543</ele>
        <time>2021-06-19T18:57:10Z</time>
      </trkpt>
      <trkpt lat="42.49491" lon="1.66122">
        <ele>2544</ele>
        <time>2021-06-19T18:57:12Z</time>
      </trkpt>
      <trkpt lat="42.49429" lon="1.6616">
        <ele>2551</ele>
        <time>2021-06-19T18:57:28Z</time>
      </trkpt>
      <trkpt lat="42.4941" lon="1.66189">
        <ele>2553</ele>
        <time>2021-06-19T18:57:35Z</time>
      </trkpt>
      <trkpt lat="42.49403" lon="1.66192">
        <ele>2554</ele>
        <time>2021-06-19T18:57:36Z</time>
      </trkpt>
      <trkpt lat="42.49369" lon="1.66226">
        <ele>2556</ele>
        <time>2021-06-19T18:57:46Z</time>
      </trkpt>
      <trkpt lat="42.49356" lon="1.66231">
        <ele>2555</ele>
        <time>2021-06-19T18:57:49Z</time>
      </trkpt>
      <trkpt lat="42.49346" lon="1.66243">
        <ele>2555</ele>
        <time>2021-06-19T18:57:52Z</time>
      </trkpt>
      <trkpt lat="42.49344" lon="1.66263">
        <ele>2555</ele>
        <time>2021-06-19T18:57:56Z</time>
      </trkpt>
      <trkpt lat="42.49332" lon="1.66288">
        <ele>2554</ele>
        <time>2021-06-19T18:58:01Z</time>
      </trkpt>
      <trkpt lat="42.49325" lon="1.66311">
        <ele>2553</ele>
        <time>2021-06-19T18:58:05Z</time>
      </trkpt>
      <trkpt lat="42.49294" lon="1.66352">
        <ele>2552</ele>
        <time>2021-06-19T18:58:15Z</time>
      </trkpt>
      <trkpt lat="42.49278" lon="1.66385">
        <ele>2549</ele>
        <time>2021-06-19T18:58:22Z</time>
      </trkpt>
      <trkpt lat="42.49265" lon="1.66406">
        <ele>2544</ele>
        <time>2021-06-19T18:58:27Z</time>
      </trkpt>
      <trkpt lat="42.49252" lon="1.66418">
        <ele>2539</ele>
        <time>2021-06-19T18:58:31Z</time>
      </trkpt>
      <trkpt lat="42.49243" lon="1.66419">
        <ele>2538</ele>
        <time>2021-06-19T18:58:33Z</time>
      </trkpt>
      <trkpt lat="42.49231" lon="1.66426">
        <ele>2534</ele>
        <time>2021-06-19T18:58:36Z</time>
      </trkpt>
      <trkpt lat="42.49217" lon="1.66444">
        <ele>2528</ele>
        <time>2021-06-19T18:58:40Z</time>
      </trkpt>
      <trkpt lat="42.49213" lon="1.6646">
        <ele>2524</ele>
        <time>2021-06-19T18:58:43Z</time>
      </trkpt>
      <trkpt lat="42.49201" lon="1.66459">
        <ele>2520</ele>
        <time>2021-06-19T18:58:46Z</time>
      </trkpt>
      <trkpt lat="42.49192" lon="1.6647">
        <ele>2514</ele>
        <time>2021-06-19T18:58:49Z</time>
      </trkpt>
      <trkpt lat="42.49169" lon="1.6649">
        <ele>2500</ele>
        <time>2021-06-19T18:58:55Z</time>
      </trkpt>
      <trkpt lat="42.4915" lon="1.66526">
        <ele>2482</ele>
        <time>2021-06-19T18:59:03Z</time>
      </trkpt>
      <trkpt lat="42.49149" lon="1.66554">
        <ele>2475</ele>
        <time>2021-06-19T18:59:08Z</time>
      </trkpt>
      <trkpt lat="42.4914" lon="1.66561">
        <ele>2469</ele>
        <time>2021-06-19T18:59:10Z</time>
      </trkpt>
      <trkpt lat="42.49136" lon="1.66571">
        <ele>2464</ele>
        <time>2021-06-19T18:59:12Z</time>
      </trkpt>
      <trkpt lat="42.49125" lon="1.6657">
        <ele>2459</ele>
        <time>2021-06-19T18:59:15Z</time>
      </trkpt>
      <trkpt lat="42.49116" lon="1.66584">
        <ele>2451</ele>
        <time>2021-06-19T18:59:18Z</time>
      </trkpt>
      <trkpt lat="42.49092" lon="1.6659">
        <ele>2437</ele>
        <time>2021-06-19T18:59:24Z</time>
      </trkpt>
      <trkpt lat="42.4909" lon="1.66598">
        <ele>2435</ele>
        <time>2021-06-19T18:59:25Z</time>
      </trkpt>
      <trkpt lat="42.49099" lon="1.66619">
        <ele>2437</ele>
        <time>2021-06-19T18:59:29Z</time>
      </trkpt>
      <trkpt lat="42.49099" lon="1.66629">
        <ele>2435</ele>
        <time>2021-06-19T18:59:31Z</time>
      </trkpt>
      <trkpt lat="42.49092" lon="1.66654">
        <ele>2428</ele>
        <time>2021-06-19T18:59:35Z</time>
      </trkpt>
      <trkpt lat="42.49093" lon="1.66674">
        <ele>2425</ele>
        <time>2021-06-19T18:59:39Z</time>
      </trkpt>
      <trkpt lat="42.49086" lon="1.66692">
        <ele>2418</ele>
        <time>2021-06-19T18:59:42Z</time>
      </trkpt>
      <trkpt lat="42.49082" lon="1.66742">
        <ele>2407</ele>
        <time>2021-06-19T18:59:51Z</time>
      </trkpt>
      <trkpt lat="42.49066" lon="1.66757">
        <ele>2399</ele>
        <time>2021-06-19T18:59:56Z</time>
      </trkpt>
      <trkpt lat="42.49063" lon="1.66756">
        <ele>2398</ele>
        <time>2021-06-19T18:59:56Z</time>
      </trkpt>
      <trkpt lat="42.49043" lon="1.66769">
        <ele>2390</ele>
        <time>2021-06-19T19:00:02Z</time>
      </trkpt>
      <trkpt lat="42.49032" lon="1.66823">
        <ele>2385</ele>
        <time>2021-06-19T19:00:11Z</time>
      </trkpt>
      <trkpt lat="42.49031" lon="1.66838">
        <ele>2384</ele>
        <time>2021-06-19T19:00:14Z</time>
      </trkpt>
      <trkpt lat="42.49006" lon="1.66863">
        <ele>2373</ele>
        <time>2021-06-19T19:00:21Z</time>
      </trkpt>
      <trkpt lat="42.48991" lon="1.66873">
        <ele>2368</ele>
        <time>2021-06-19T19:00:25Z</time>
      </trkpt>
      <trkpt lat="42.48941" lon="1.66934">
        <ele>2356</ele>
        <time>2021-06-19T19:00:41Z</time>
      </trkpt>
      <trkpt lat="42.48923" lon="1.66962">
        <ele>2353</ele>
        <time>2021-06-19T19:00:47Z</time>
      </trkpt>
      <trkpt lat="42.4891" lon="1.67033">
        <ele>2351</ele>
        <time>2021-06-19T19:01:00Z</time>
      </trkpt>
      <trkpt lat="42.489" lon="1.67069">
        <ele>2351</ele>
        <time>2021-06-19T19:01:06Z</time>
      </trkpt>
      <trkpt lat="42.48894" lon="1.67079">
        <ele>2351</ele>
        <time>2021-06-19T19:01:09Z</time>
      </trkpt>
      <trkpt lat="42.48891" lon="1.67095">
        <ele>2350</ele>
        <time>2021-06-19T19:01:11Z</time>
      </trkpt>
      <trkpt lat="42.48891" lon="1.67132">
        <ele>2347</ele>
        <time>2021-06-19T19:01:18Z</time>
      </trkpt>
      <trkpt lat="42.48887" lon="1.67143">
        <ele>2347</ele>
        <time>2021-06-19T19:01:20Z</time>
      </trkpt>
      <trkpt lat="42.48886" lon="1.67178">
        <ele>2344</ele>
        <time>2021-06-19T19:01:26Z</time>
      </trkpt>
      <trkpt lat="42.48874" lon="1.6719">
        <ele>2343</ele>
        <time>2021-06-19T19:01:29Z</time>
      </trkpt>
      <trkpt lat="42.48867" lon="1.67205">
        <ele>2341</ele>
        <time>2021-06-19T19:01:32Z</time>
      </trkpt>
      <trkpt lat="42.48867" lon="1.67221">
        <ele>2339</ele>
        <time>2021-06-19T19:01:35Z</time>
      </trkpt>
      <trkpt lat="42.4886" lon="1.67236">
        <ele>2338</ele>
        <time>2021-06-19T19:01:38Z</time>
      </trkpt>
      <trkpt lat="42.4885" lon="1.67292">
        <ele>2329</ele>
        <time>2021-06-19T19:01:48Z</time>
      </trkpt>
      <trkpt lat="42.48856" lon="1.67333">
        <ele>2321</ele>
        <time>2021-06-19T19:01:55Z</time>
      </trkpt>
      <trkpt lat="42.48858" lon="1.67444">
        <ele>2310</ele>
        <time>2021-06-19T19:02:14Z</time>
      </trkpt>
      <trkpt lat="42.48862" lon="1.67465">
        <ele>2309</ele>
        <time>2021-06-19T19:02:18Z</time>
      </trkpt>
      <trkpt lat="42.48864" lon="1.67514">
        <ele>2305</ele>
        <time>2021-06-19T19:02:27Z</time>
      </trkpt>
      <trkpt lat="42.48856" lon="1.67594">
        <ele>2296</ele>
        <time>2021-06-19T19:02:41Z</time>
      </trkpt>
      <trkpt lat="42.48858" lon="1.6761">
        <ele>2295</ele>
        <time>2021-06-19T19:02:43Z</time>
      </trkpt>
      <trkpt lat="42.48854" lon="1.67614">
        <ele>2294</ele>
        <time>2021-06-19T19:02:44Z</time>
      </trkpt>
      <trkpt lat="42.48852" lon="1.67623">
        <ele>2293</ele>
        <time>2021-06-19T19:02:46Z</time>
      </trkpt>
      <trkpt lat="42.48832" lon="1.67662">
        <ele>2287</ele>
        <time>2021-06-19T19:02:54Z</time>
      </trkpt>
      <trkpt lat="42.48831" lon="1.67692">
        <ele>2285</ele>
        <time>2021-06-19T19:02:59Z</time>
      </trkpt>
      <trkpt lat="42.48834" lon="1.6773">
        <ele>2284</ele>
        <time>2021-06-19T19:03:06Z</time>
      </trkpt>
      <trkpt lat="42.48829" lon="1.67775">
        <ele>2281</ele>
        <time>2021-06-19T19:03:14Z</time>
      </trkpt>
      <trkpt lat="42.4883" lon="1.67808">
        <ele>2279</ele>
        <time>2021-06-19T19:03:20Z</time>
      </trkpt>
      <trkpt lat="42.48841" lon="1.67898">
        <ele>2271</ele>
        <time>2021-06-19T19:03:35Z</time>
      </trkpt>
      <trkpt lat="42.4884" lon="1.67953">
        <ele>2269</ele>
        <time>2021-06-19T19:03:45Z</time>
      </trkpt>
      <trkpt lat="42.48827" lon="1.67975">
        <ele>2268</ele>
        <time>2021-06-19T19:03:50Z</time>
      </trkpt>
      <trkpt lat="42.48819" lon="1.67984">
        <ele>2268</ele>
        <time>2021-06-19T19:03:52Z</time>
      </trkpt>
      <trkpt lat="42.48813" lon="1.67998">
        <ele>2267</ele>
        <time>2021-06-19T19:03:55Z</time>
      </trkpt>
      <trkpt lat="42.48808" lon="1.68065">
        <ele>2268</ele>
        <time>2021-06-19T19:04:06Z</time>
      </trkpt>
      <trkpt lat="42.48789" lon="1.68115">
        <ele>2265</ele>
        <time>2021-06-19T19:04:16Z</time>
      </trkpt>
      <trkpt lat="42.48771" lon="1.68189">
        <ele>2260</ele>
        <time>2021-06-19T19:04:30Z</time>
      </trkpt>
      <trkpt lat="42.48769" lon="1.68211">
        <ele>2259</ele>
        <time>2021-06-19T19:04:33Z</time>
      </trkpt>
      <trkpt lat="42.48771" lon="1.68241">
        <ele>2260</ele>
        <time>2021-06-19T19:04:39Z</time>
      </trkpt>
      <trkpt lat="42.48763" lon="1.68283">
        <ele>2255</ele>
        <time>2021-06-19T19:04:46Z</time>
      </trkpt>
      <trkpt lat="42.48767" lon="1.68317">
        <ele>2255</ele>
        <time>2021-06-19T19:04:52Z</time>
      </trkpt>
      <trkpt lat="42.48767" lon="1.68347">
        <ele>2252</ele>
        <time>2021-06-19T19:04:57Z</time>
      </trkpt>
      <trkpt lat="42.48764" lon="1.68365">
        <ele>2249</ele>
        <time>2021-06-19T19:05:00Z</time>
      </trkpt>
      <trkpt lat="42.48749" lon="1.68415">
        <ele>2238</ele>
        <time>2021-06-19T19:05:10Z</time>
      </trkpt>
      <trkpt lat="42.48746" lon="1.6847">
        <ele>2237</ele>
        <time>2021-06-19T19:05:19Z</time>
      </trkpt>
      <trkpt lat="42.48749" lon="1.68474">
        <ele>2236</ele>
        <time>2021-06-19T19:05:20Z</time>
      </trkpt>
      <trkpt lat="42.48744" lon="1.68486">
        <ele>2237</ele>
        <time>2021-06-19T19:05:22Z</time>
      </trkpt>
      <trkpt lat="42.48743" lon="1.68496">
        <ele>2237</ele>
        <time>2021-06-19T19:05:24Z</time>
      </trkpt>
      <trkpt lat="42.48764" lon="1.68551">
        <ele>2239</ele>
        <time>2021-06-19T19:05:35Z</time>
      </trkpt>
      <trkpt lat="42.48766" lon="1.68593">
        <ele>2239</ele>
        <time>2021-06-19T19:05:42Z</time>
      </trkpt>
      <trkpt lat="42.48759" lon="1.68634">
        <ele>2233</ele>
        <time>2021-06-19T19:05:49Z</time>
      </trkpt>
      <trkpt lat="42.4876" lon="1.68656">
        <ele>2231</ele>
        <time>2021-06-19T19:05:53Z</time>
      </trkpt>
      <trkpt lat="42.48752" lon="1.68695">
        <ele>2223</ele>
        <time>2021-06-19T19:06:00Z</time>
      </trkpt>
      <trkpt lat="42.48751" lon="1.68717">
        <ele>2218</ele>
        <time>2021-06-19T19:06:04Z</time>
      </trkpt>
      <trkpt lat="42.48753" lon="1.68726">
        <ele>2217</ele>
        <time>2021-06-19T19:06:06Z</time>
      </trkpt>
      <trkpt lat="42.48762" lon="1.68736">
        <ele>2219</ele>
        <time>2021-06-19T19:06:08Z</time>
      </trkpt>
      <trkpt lat="42.48766" lon="1.68745">
        <ele>2219</ele>
        <time>2021-06-19T19:06:10Z</time>
      </trkpt>
      <trkpt lat="42.48766" lon="1.68753">
        <ele>2218</ele>
        <time>2021-06-19T19:06:11Z</time>
      </trkpt>
      <trkpt lat="42.48757" lon="1.68758">
        <ele>2214</ele>
        <time>2021-06-19T19:06:14Z</time>
      </trkpt>
      <trkpt lat="42.48744" lon="1.68777">
        <ele>2213</ele>
        <time>2021-06-19T19:06:18Z</time>
      </trkpt>
      <trkpt lat="42.48736" lon="1.68798">
        <ele>2213</ele>
        <time>2021-06-19T19:06:22Z</time>
      </trkpt>
      <trkpt lat="42.48733" lon="1.68825">
        <ele>2212</ele>
        <time>2021-06-19T19:06:27Z</time>
      </trkpt>
      <trkpt lat="42.48735" lon="1.68847">
        <ele>2212</ele>
        <time>2021-06-19T19:06:31Z</time>
      </trkpt>
      <trkpt lat="42.48732" lon="1.68853">
        <ele>2212</ele>
        <time>2021-06-19T19:06:32Z</time>
      </trkpt>
      <trkpt lat="42.48735" lon="1.68859">
        <ele>2212</ele>
        <time>2021-06-19T19:06:33Z</time>
      </trkpt>
      <trkpt lat="42.48735" lon="1.68881">
        <ele>2213</ele>
        <time>2021-06-19T19:06:37Z</time>
      </trkpt>
      <trkpt lat="42.48741" lon="1.68908">
        <ele>2213</ele>
        <time>2021-06-19T19:06:42Z</time>
      </trkpt>
      <trkpt lat="42.48738" lon="1.68945">
        <ele>2213</ele>
        <time>2021-06-19T19:06:48Z</time>
      </trkpt>
      <trkpt lat="42.48742" lon="1.68988">
        <ele>2212</ele>
        <time>2021-06-19T19:06:56Z</time>
      </trkpt>
      <trkpt lat="42.48731" lon="1.69019">
        <ele>2209</ele>
        <time>2021-06-19T19:07:02Z</time>
      </trkpt>
      <trkpt lat="42.4872" lon="1.69036">
        <ele>2207</ele>
        <time>2021-06-19T19:07:06Z</time>
      </trkpt>
      <trkpt lat="42.48707" lon="1.69106">
        <ele>2201</ele>
        <time>2021-06-19T19:07:18Z</time>
      </trkpt>
      <trkpt lat="42.487" lon="1.69118">
        <ele>2199</ele>
        <time>2021-06-19T19:07:21Z</time>
      </trkpt>
      <trkpt lat="42.48692" lon="1.69167">
        <ele>2194</ele>
        <time>2021-06-19T19:07:29Z</time>
      </trkpt>
      <trkpt lat="42.48684" lon="1.69186">
        <ele>2192</ele>
        <time>2021-06-19T19:07:33Z</time>
      </trkpt>
      <trkpt lat="42.4868" lon="1.69218">
        <ele>2190</ele>
        <time>2021-06-19T19:07:39Z</time>
      </trkpt>
      <trkpt lat="42.48671" lon="1.69253">
        <ele>2186</ele>
        <time>2021-06-19T19:07:45Z</time>
      </trkpt>
      <trkpt lat="42.48673" lon="1.69281">
        <ele>2185</ele>
        <time>2021-06-19T19:07:50Z</time>
      </trkpt>
      <trkpt lat="42.48669" lon="1.693">
        <ele>2183</ele>
        <time>2021-06-19T19:07:53Z</time>
      </trkpt>
      <trkpt lat="42.48651" lon="1.69327">
        <ele>2182</ele>
        <time>2021-06-19T19:08:00Z</time>
      </trkpt>
      <trkpt lat="42.48648" lon="1.69356">
        <ele>2181</ele>
        <time>2021-06-19T19:08:05Z</time>
      </trkpt>
      <trkpt lat="42.48643" lon="1.69359">
        <ele>2181</ele>
        <time>2021-06-19T19:08:06Z</time>
      </trkpt>
      <trkpt lat="42.48641" lon="1.69365">
        <ele>2180</ele>
        <time>2021-06-19T19:08:07Z</time>
      </trkpt>
      <trkpt lat="42.48639" lon="1.69426">
        <ele>2174</ele>
        <time>2021-06-19T19:08:18Z</time>
      </trkpt>
      <trkpt lat="42.48633" lon="1.69448">
        <ele>2170</ele>
        <time>2021-06-19T19:08:22Z</time>
      </trkpt>
      <trkpt lat="42.48629" lon="1.69497">
        <ele>2160</ele>
        <time>2021-06-19T19:08:30Z</time>
      </trkpt>
      <trkpt lat="42.48618" lon="1.69523">
        <ele>2156</ele>
        <time>2021-06-19T19:08:35Z</time>
      </trkpt>
      <trkpt lat="42.48618" lon="1.69531">
        <ele>2155</ele>
        <time>2021-06-19T19:08:37Z</time>
      </trkpt>
      <trkpt lat="42.48607" lon="1.69542">
        <ele>2152</ele>
        <time>2021-06-19T19:08:40Z</time>
      </trkpt>
      <trkpt lat="42.48605" lon="1.69549">
        <ele>2151</ele>
        <time>2021-06-19T19:08:41Z</time>
      </trkpt>
      <trkpt lat="42.48607" lon="1.69563">
        <ele>2149</ele>
        <time>2021-06-19T19:08:44Z</time>
      </trkpt>
      <trkpt lat="42.48604" lon="1.69579">
        <ele>2147</ele>
        <time>2021-06-19T19:08:46Z</time>
      </trkpt>
      <trkpt lat="42.48604" lon="1.69602">
        <ele>2143</ele>
        <time>2021-06-19T19:08:50Z</time>
      </trkpt>
      <trkpt lat="42.48607" lon="1.69652">
        <ele>2133</ele>
        <time>2021-06-19T19:08:59Z</time>
      </trkpt>
      <trkpt lat="42.48613" lon="1.69696">
        <ele>2128</ele>
        <time>2021-06-19T19:09:07Z</time>
      </trkpt>
      <trkpt lat="42.48613" lon="1.69727">
        <ele>2124</ele>
        <time>2021-06-19T19:09:12Z</time>
      </trkpt>
      <trkpt lat="42.48619" lon="1.69746">
        <ele>2123</ele>
        <time>2021-06-19T19:09:16Z</time>
      </trkpt>
      <trkpt lat="42.48621" lon="1.6977">
        <ele>2121</ele>
        <time>2021-06-19T19:09:20Z</time>
      </trkpt>
      <trkpt lat="42.48616" lon="1.69786">
        <ele>2118</ele>
        <time>2021-06-19T19:09:23Z</time>
      </trkpt>
      <trkpt lat="42.48618" lon="1.69802">
        <ele>2117</ele>
        <time>2021-06-19T19:09:26Z</time>
      </trkpt>
      <trkpt lat="42.48616" lon="1.69809">
        <ele>2116</ele>
        <time>2021-06-19T19:09:27Z</time>
      </trkpt>
      <trkpt lat="42.4862" lon="1.69822">
        <ele>2116</ele>
        <time>2021-06-19T19:09:29Z</time>
      </trkpt>
      <trkpt lat="42.48614" lon="1.69836">
        <ele>2113</ele>
        <time>2021-06-19T19:09:32Z</time>
      </trkpt>
      <trkpt lat="42.48614" lon="1.69864">
        <ele>2109</ele>
        <time>2021-06-19T19:09:37Z</time>
      </trkpt>
      <trkpt lat="42.48609" lon="1.69905">
        <ele>2101</ele>
        <time>2021-06-19T19:09:44Z</time>
      </trkpt>
      <trkpt lat="42.48628" lon="1.69965">
        <ele>2098</ele>
        <time>2021-06-19T19:09:55Z</time>
      </trkpt>
      <trkpt lat="42.48628" lon="1.69981">
        <ele>2095</ele>
        <time>2021-06-19T19:09:58Z</time>
      </trkpt>
      <trkpt lat="42.48623" lon="1.69995">
        <ele>2092</ele>
        <time>2021-06-19T19:10:01Z</time>
      </trkpt>
      <trkpt lat="42.48614" lon="1.7">
        <ele>2089</ele>
        <time>2021-06-19T19:10:03Z</time>
      </trkpt>
      <trkpt lat="42.48595" lon="1.70031">
        <ele>2083</ele>
        <time>2021-06-19T19:10:10Z</time>
      </trkpt>
      <trkpt lat="42.48575" lon="1.70058">
        <ele>2080</ele>
        <time>2021-06-19T19:10:16Z</time>
      </trkpt>
      <trkpt lat="42.48577" lon="1.70076">
        <ele>2078</ele>
        <time>2021-06-19T19:10:20Z</time>
      </trkpt>
      <trkpt lat="42.48573" lon="1.70086">
        <ele>2078</ele>
        <time>2021-06-19T19:10:22Z</time>
      </trkpt>
      <trkpt lat="42.48575" lon="1.70104">
        <ele>2076</ele>
        <time>2021-06-19T19:10:25Z</time>
      </trkpt>
      <trkpt lat="42.48569" lon="1.70122">
        <ele>2076</ele>
        <time>2021-06-19T19:10:28Z</time>
      </trkpt>
      <trkpt lat="42.48571" lon="1.70138">
        <ele>2074</ele>
        <time>2021-06-19T19:10:31Z</time>
      </trkpt>
      <trkpt lat="42.48567" lon="1.70187">
        <ele>2074</ele>
        <time>2021-06-19T19:10:39Z</time>
      </trkpt>
      <trkpt lat="42.48553" lon="1.7022">
        <ele>2075</ele>
        <time>2021-06-19T19:10:46Z</time>
      </trkpt>
      <trkpt lat="42.48556" lon="1.70244">
        <ele>2076</ele>
        <time>2021-06-19T19:10:50Z</time>
      </trkpt>
      <trkpt lat="42.48557" lon="1.70324">
        <ele>2082</ele>
        <time>2021-06-19T19:11:04Z</time>
      </trkpt>
      <trkpt lat="42.48544" lon="1.70361">
        <ele>2080</ele>
        <time>2021-06-19T19:11:11Z</time>
      </trkpt>
      <trkpt lat="42.4854" lon="1.70381">
        <ele>2079</ele>
        <time>2021-06-19T19:11:15Z</time>
      </trkpt>
      <trkpt lat="42.48534" lon="1.70391">
        <ele>2078</ele>
        <time>2021-06-19T19:11:17Z</time>
      </trkpt>
      <trkpt lat="42.4853" lon="1.70404">
        <ele>2077</ele>
        <time>2021-06-19T19:11:19Z</time>
      </trkpt>
      <trkpt lat="42.48522" lon="1.70416">
        <ele>2076</ele>
        <time>2021-06-19T19:11:22Z</time>
      </trkpt>
      <trkpt lat="42.48519" lon="1.70432">
        <ele>2076</ele>
        <time>2021-06-19T19:11:25Z</time>
      </trkpt>
      <trkpt lat="42.4852" lon="1.7044">
        <ele>2076</ele>
        <time>2021-06-19T19:11:26Z</time>
      </trkpt>
      <trkpt lat="42.48524" lon="1.70446">
        <ele>2076</ele>
        <time>2021-06-19T19:11:28Z</time>
      </trkpt>
      <trkpt lat="42.48547" lon="1.70452">
        <ele>2079</ele>
        <time>2021-06-19T19:11:33Z</time>
      </trkpt>
      <trkpt lat="42.48584" lon="1.70478">
        <ele>2081</ele>
        <time>2021-06-19T19:11:43Z</time>
      </trkpt>
      <trkpt lat="42.48588" lon="1.70499">
        <ele>2079</ele>
        <time>2021-06-19T19:11:47Z</time>
      </trkpt>
      <trkpt lat="42.48594" lon="1.70508">
        <ele>2081</ele>
        <time>2021-06-19T19:11:49Z</time>
      </trkpt>
      <trkpt lat="42.48603" lon="1.70548">
        <ele>2085</ele>
        <time>2021-06-19T19:11:56Z</time>
      </trkpt>
      <trkpt lat="42.48609" lon="1.7055">
        <ele>2086</ele>
        <time>2021-06-19T19:11:57Z</time>
      </trkpt>
      <trkpt lat="42.48611" lon="1.70566">
        <ele>2087</ele>
        <time>2021-06-19T19:12:00Z</time>
      </trkpt>
      <trkpt lat="42.48595" lon="1.7058">
        <ele>2087</ele>
        <time>2021-06-19T19:12:05Z</time>
      </trkpt>
      <trkpt lat="42.48565" lon="1.70598">
        <ele>2090</ele>
        <time>2021-06-19T19:12:12Z</time>
      </trkpt>
      <trkpt lat="42.48545" lon="1.70614">
        <ele>2093</ele>
        <time>2021-06-19T19:12:18Z</time>
      </trkpt>
      <trkpt lat="42.48521" lon="1.70653">
        <ele>2102</ele>
        <time>2021-06-19T19:12:26Z</time>
      </trkpt>
      <trkpt lat="42.48499" lon="1.70671">
        <ele>2105</ele>
        <time>2021-06-19T19:12:32Z</time>
      </trkpt>
      <trkpt lat="42.48479" lon="1.70714">
        <ele>2117</ele>
        <time>2021-06-19T19:12:41Z</time>
      </trkpt>
      <trkpt lat="42.48463" lon="1.70726">
        <ele>2119</ele>
        <time>2021-06-19T19:12:45Z</time>
      </trkpt>
      <trkpt lat="42.48484" lon="1.70739">
        <ele>2126</ele>
        <time>2021-06-19T19:12:51Z</time>
      </trkpt>
      <trkpt lat="42.48512" lon="1.7075">
        <ele>2132</ele>
        <time>2021-06-19T19:12:58Z</time>
      </trkpt>
      <trkpt lat="42.48552" lon="1.7075">
        <ele>2137</ele>
        <time>2021-06-19T19:13:07Z</time>
      </trkpt>
      <trkpt lat="42.48587" lon="1.70761">
        <ele>2145</ele>
        <time>2021-06-19T19:13:15Z</time>
      </trkpt>
      <trkpt lat="42.48651" lon="1.70789">
        <ele>2156</ele>
        <time>2021-06-19T19:13:31Z</time>
      </trkpt>
      <trkpt lat="42.48669" lon="1.70811">
        <ele>2163</ele>
        <time>2021-06-19T19:13:37Z</time>
      </trkpt>
      <trkpt lat="42.48644" lon="1.70825">
        <ele>2167</ele>
        <time>2021-06-19T19:13:43Z</time>
      </trkpt>
      <trkpt lat="42.48653" lon="1.70854">
        <ele>2178</ele>
        <time>2021-06-19T19:13:48Z</time>
      </trkpt>
      <trkpt lat="42.48633" lon="1.7086">
        <ele>2179</ele>
        <time>2021-06-19T19:13:53Z</time>
      </trkpt>
      <trkpt lat="42.48633" lon="1.70878">
        <ele>2186</ele>
        <time>2021-06-19T19:13:56Z</time>
      </trkpt>
      <trkpt lat="42.4862" lon="1.70889">
        <ele>2189</ele>
        <time>2021-06-19T19:14:00Z</time>
      </trkpt>
      <trkpt lat="42.4863" lon="1.70916">
        <ele>2200</ele>
        <time>2021-06-19T19:14:05Z</time>
      </trkpt>
      <trkpt lat="42.48609" lon="1.70926">
        <ele>2202</ele>
        <time>2021-06-19T19:14:10Z</time>
      </trkpt>
      <trkpt lat="42.4861" lon="1.70951">
        <ele>2210</ele>
        <time>2021-06-19T19:14:15Z</time>
      </trkpt>
      <trkpt lat="42.48606" lon="1.70964">
        <ele>2214</ele>
        <time>2021-06-19T19:14:17Z</time>
      </trkpt>
      <trkpt lat="42.48645" lon="1.71017">
        <ele>2229</ele>
        <time>2021-06-19T19:14:30Z</time>
      </trkpt>
      <trkpt lat="42.48616" lon="1.7106">
        <ele>2237</ele>
        <time>2021-06-19T19:14:40Z</time>
      </trkpt>
      <trkpt lat="42.4859" lon="1.71121">
        <ele>2247</ele>
        <time>2021-06-19T19:14:52Z</time>
      </trkpt>
      <trkpt lat="42.48554" lon="1.71177">
        <ele>2260</ele>
        <time>2021-06-19T19:15:05Z</time>
      </trkpt>
      <trkpt lat="42.48514" lon="1.71214">
        <ele>2275</ele>
        <time>2021-06-19T19:15:16Z</time>
      </trkpt>
      <trkpt lat="42.485" lon="1.71213">
        <ele>2275</ele>
        <time>2021-06-19T19:15:19Z</time>
      </trkpt>
      <trkpt lat="42.48479" lon="1.71206">
        <ele>2276</ele>
        <time>2021-06-19T19:15:25Z</time>
      </trkpt>
      <trkpt lat="42.48435" lon="1.71201">
        <ele>2280</ele>
        <time>2021-06-19T19:15:35Z</time>
      </trkpt>
      <trkpt lat="42.48422" lon="1.71183">
        <ele>2275</ele>
        <time>2021-06-19T19:15:39Z</time>
      </trkpt>
      <trkpt lat="42.48396" lon="1.71183">
        <ele>2281</ele>
        <time>2021-06-19T19:15:45Z</time>
      </trkpt>
      <trkpt lat="42.48396" lon="1.71192">
        <ele>2285</ele>
        <time>2021-06-19T19:15:47Z</time>
      </trkpt>
      <trkpt lat="42.48388" lon="1.71188">
        <ele>2285</ele>
        <time>2021-06-19T19:15:49Z</time>
      </trkpt>
      <trkpt lat="42.4838" lon="1.71189">
        <ele>2287</ele>
        <time>2021-06-19T19:15:51Z</time>
      </trkpt>
      <trkpt lat="42.48369" lon="1.71184">
        <ele>2288</ele>
        <time>2021-06-19T19:15:53Z</time>
      </trkpt>
      <trkpt lat="42.48364" lon="1.71186">
        <ele>2290</ele>
        <time>2021-06-19T19:15:55Z</time>
      </trkpt>
      <trkpt lat="42.48373" lon="1.7122">
        <ele>2302</ele>
        <time>2021-06-19T19:16:01Z</time>
      </trkpt>
      <trkpt lat="42.48362" lon="1.71231">
        <ele>2310</ele>
        <time>2021-06-19T19:16:04Z</time>
      </trkpt>
      <trkpt lat="42.48353" lon="1.7123">
        <ele>2312</ele>
        <time>2021-06-19T19:16:06Z</time>
      </trkpt>
      <trkpt lat="42.48345" lon="1.7122">
        <ele>2309</ele>
        <time>2021-06-19T19:16:09Z</time>
      </trkpt>
      <trkpt lat="42.48327" lon="1.71215">
        <ele>2310</ele>
        <time>2021-06-19T19:16:13Z</time>
      </trkpt>
      <trkpt lat="42.48314" lon="1.71225">
        <ele>2315</ele>
        <time>2021-06-19T19:16:16Z</time>
      </trkpt>
      <trkpt lat="42.48278" lon="1.71284">
        <ele>2334</ele>
        <time>2021-06-19T19:16:30Z</time>
      </trkpt>
      <trkpt lat="42.4827" lon="1.7129">
        <ele>2335</ele>
        <time>2021-06-19T19:16:32Z</time>
      </trkpt>
      <trkpt lat="42.48259" lon="1.71319">
        <ele>2342</ele>
        <time>2021-06-19T19:16:37Z</time>
      </trkpt>
      <trkpt lat="42.48252" lon="1.71325">
        <ele>2343</ele>
        <time>2021-06-19T19:16:39Z</time>
      </trkpt>
      <trkpt lat="42.48252" lon="1.71331">
        <ele>2345</ele>
        <time>2021-06-19T19:16:40Z</time>
      </trkpt>
      <trkpt lat="42.48245" lon="1.71345">
        <ele>2348</ele>
        <time>2021-06-19T19:16:43Z</time>
      </trkpt>
      <trkpt lat="42.48248" lon="1.71355">
        <ele>2351</ele>
        <time>2021-06-19T19:16:45Z</time>
      </trkpt>
      <trkpt lat="42.48264" lon="1.7135">
        <ele>2352</ele>
        <time>2021-06-19T19:16:49Z</time>
      </trkpt>
      <trkpt lat="42.48293" lon="1.71348">
        <ele>2355</ele>
        <time>2021-06-19T19:16:56Z</time>
      </trkpt>
      <trkpt lat="42.48319" lon="1.71386">
        <ele>2372</ele>
        <time>2021-06-19T19:17:05Z</time>
      </trkpt>
      <trkpt lat="42.48318" lon="1.71405">
        <ele>2378</ele>
        <time>2021-06-19T19:17:08Z</time>
      </trkpt>
      <trkpt lat="42.48296" lon="1.71441">
        <ele>2390</ele>
        <time>2021-06-19T19:17:16Z</time>
      </trkpt>
      <trkpt lat="42.48275" lon="1.71465">
        <ele>2397</ele>
        <time>2021-06-19T19:17:22Z</time>
      </trkpt>
      <trkpt lat="42.48263" lon="1.71469">
        <ele>2396</ele>
        <time>2021-06-19T19:17:25Z</time>
      </trkpt>
      <trkpt lat="42.4825" lon="1.71482">
        <ele>2398</ele>
        <time>2021-06-19T19:17:29Z</time>
      </trkpt>
      <trkpt lat="42.48244" lon="1.71481">
        <ele>2397</ele>
        <time>2021-06-19T19:17:30Z</time>
      </trkpt>
      <trkpt lat="42.48225" lon="1.71496">
        <ele>2398</ele>
        <time>2021-06-19T19:17:36Z</time>
      </trkpt>
      <trkpt lat="42.4821" lon="1.7152">
        <ele>2404</ele>
        <time>2021-06-19T19:17:41Z</time>
      </trkpt>
      <trkpt lat="42.48204" lon="1.71522">
        <ele>2403</ele>
        <time>2021-06-19T19:17:42Z</time>
      </trkpt>
      <trkpt lat="42.48199" lon="1.71528">
        <ele>2404</ele>
        <time>2021-06-19T19:17:44Z</time>
      </trkpt>
      <trkpt lat="42.48194" lon="1.7154">
        <ele>2407</ele>
        <time>2021-06-19T19:17:46Z</time>
      </trkpt>
      <trkpt lat="42.48188" lon="1.71542">
        <ele>2405</ele>
        <time>2021-06-19T19:17:48Z</time>
      </trkpt>
      <trkpt lat="42.48183" lon="1.7155">
        <ele>2406</ele>
        <time>2021-06-19T19:17:50Z</time>
      </trkpt>
      <trkpt lat="42.48185" lon="1.71553">
        <ele>2408</ele>
        <time>2021-06-19T19:17:50Z</time>
      </trkpt>
      <trkpt lat="42.48166" lon="1.71584">
        <ele>2410</ele>
        <time>2021-06-19T19:17:57Z</time>
      </trkpt>
      <trkpt lat="42.48162" lon="1.71613">
        <ele>2420</ele>
        <time>2021-06-19T19:18:02Z</time>
      </trkpt>
      <trkpt lat="42.48137" lon="1.71654">
        <ele>2430</ele>
        <time>2021-06-19T19:18:12Z</time>
      </trkpt>
      <trkpt lat="42.48137" lon="1.71669">
        <ele>2435</ele>
        <time>2021-06-19T19:18:14Z</time>
      </trkpt>
      <trkpt lat="42.48134" lon="1.71674">
        <ele>2437</ele>
        <time>2021-06-19T19:18:15Z</time>
      </trkpt>
      <trkpt lat="42.48122" lon="1.71728">
        <ele>2453</ele>
        <time>2021-06-19T19:18:25Z</time>
      </trkpt>
      <trkpt lat="42.48108" lon="1.71761">
        <ele>2462</ele>
        <time>2021-06-19T19:18:31Z</time>
      </trkpt>
      <trkpt lat="42.48108" lon="1.71768">
        <ele>2464</ele>
        <time>2021-06-19T19:18:33Z</time>
      </trkpt>
      <trkpt lat="42.48112" lon="1.71769">
        <ele>2465</ele>
        <time>2021-06-19T19:18:34Z</time>
      </trkpt>
      <trkpt lat="42.48127" lon="1.71765">
        <ele>2467</ele>
        <time>2021-06-19T19:18:37Z</time>
      </trkpt>
      <trkpt lat="42.48132" lon="1.71766">
        <ele>2469</ele>
        <time>2021-06-19T19:18:38Z</time>
      </trkpt>
      <trkpt lat="42.48132" lon="1.71772">
        <ele>2471</ele>
        <time>2021-06-19T19:18:39Z</time>
      </trkpt>
      <trkpt lat="42.48126" lon="1.71782">
        <ele>2473</ele>
        <time>2021-06-19T19:18:42Z</time>
      </trkpt>
      <trkpt lat="42.48121" lon="1.71802">
        <ele>2479</ele>
        <time>2021-06-19T19:18:45Z</time>
      </trkpt>
      <trkpt lat="42.48108" lon="1.71821">
        <ele>2483</ele>
        <time>2021-06-19T19:18:50Z</time>
      </trkpt>
      <trkpt lat="42.48103" lon="1.71837">
        <ele>2487</ele>
        <time>2021-06-19T19:18:53Z</time>
      </trkpt>
      <trkpt lat="42.48091" lon="1.71906">
        <ele>2509</ele>
        <time>2021-06-19T19:19:05Z</time>
      </trkpt>
      <trkpt lat="42.48089" lon="1.71943">
        <ele>2522</ele>
        <time>2021-06-19T19:19:11Z</time>
      </trkpt>
      <trkpt lat="42.48092" lon="1.71961">
        <ele>2527</ele>
        <time>2021-06-19T19:19:15Z</time>
      </trkpt>
      <trkpt lat="42.48099" lon="1.71971">
        <ele>2530</ele>
        <time>2021-06-19T19:19:17Z</time>
      </trkpt>
      <trkpt lat="42.48106" lon="1.71991">
        <ele>2536</ele>
        <time>2021-06-19T19:19:21Z</time>
      </trkpt>
      <trkpt lat="42.48103" lon="1.71995">
        <ele>2537</ele>
        <time>2021-06-19T19:19:22Z</time>
      </trkpt>
      <trkpt lat="42.48093" lon="1.71991">
        <ele>2537</ele>
        <time>2021-06-19T19:19:24Z</time>
      </trkpt>
      <trkpt lat="42.48091" lon="1.71994">
        <ele>2538</ele>
        <time>2021-06-19T19:19:25Z</time>
      </trkpt>
      <trkpt lat="42.48087" lon="1.71991">
        <ele>2538</ele>
        <time>2021-06-19T19:19:26Z</time>
      </trkpt>
      <trkpt lat="42.48073" lon="1.71991">
        <ele>2542</ele>
        <time>2021-06-19T19:19:29Z</time>
      </trkpt>
      <trkpt lat="42.48064" lon="1.71995">
        <ele>2547</ele>
        <time>2021-06-19T19:19:31Z</time>
      </trkpt>
      <trkpt lat="42.48038" lon="1.71992">
        <ele>2557</ele>
        <time>2021-06-19T19:19:37Z</time>
      </trkpt>
      <trkpt lat="42.48036" lon="1.71989">
        <ele>2557</ele>
        <time>2021-06-19T19:19:38Z</time>
      </trkpt>
      <trkpt lat="42.48015" lon="1.71988">
        <ele>2566</ele>
        <time>2021-06-19T19:19:43Z</time>
      </trkpt>
      <trkpt lat="42.4801" lon="1.7199">
        <ele>2568</ele>
        <time>2021-06-19T19:19:44Z</time>
      </trkpt>
      <trkpt lat="42.48001" lon="1.72009">
        <ele>2577</ele>
        <time>2021-06-19T19:19:48Z</time>
      </trkpt>
      <trkpt lat="42.47995" lon="1.72012">
        <ele>2580</ele>
        <time>2021-06-19T19:19:50Z</time>
      </trkpt>
      <trkpt lat="42.47991" lon="1.72022">
        <ele>2584</ele>
        <time>2021-06-19T19:19:52Z</time>
      </trkpt>
      <trkpt lat="42.47975" lon="1.72022">
        <ele>2588</ele>
        <time>2021-06-19T19:19:55Z</time>
      </trkpt>
      <trkpt lat="42.47964" lon="1.72046">
        <ele>2596</ele>
        <time>2021-06-19T19:20:00Z</time>
      </trkpt>
      <trkpt lat="42.47951" lon="1.72058">
        <ele>2600</ele>
        <time>2021-06-19T19:20:04Z</time>
      </trkpt>
      <trkpt lat="42.4795" lon="1.72068">
        <ele>2602</ele>
        <time>2021-06-19T19:20:06Z</time>
      </trkpt>
      <trkpt lat="42.47955" lon="1.72077">
        <ele>2603</ele>
        <time>2021-06-19T19:20:08Z</time>
      </trkpt>
      <trkpt lat="42.47956" lon="1.72108">
        <ele>2607</ele>
        <time>2021-06-19T19:20:13Z</time>
      </trkpt>
      <trkpt lat="42.47953" lon="1.72114">
        <ele>2608</ele>
        <time>2021-06-19T19:20:14Z</time>
      </trkpt>
      <trkpt lat="42.47961" lon="1.72134">
        <ele>2610</ele>
        <time>2021-06-19T19:20:18Z</time>
      </trkpt>
      <trkpt lat="42.47961" lon="1.72158">
        <ele>2613</ele>
        <time>2021-06-19T19:20:22Z</time>
      </trkpt>
      <trkpt lat="42.47968" lon="1.72182">
        <ele>2617</ele>
        <time>2021-06-19T19:20:27Z</time>
      </trkpt>
      <trkpt lat="42.47972" lon="1.72187">
        <ele>2618</ele>
        <time>2021-06-19T19:20:28Z</time>
      </trkpt>
      <trkpt lat="42.47971" lon="1.72196">
        <ele>2619</ele>
        <time>2021-06-19T19:20:30Z</time>
      </trkpt>
      <trkpt lat="42.47975" lon="1.72219">
        <ele>2623</ele>
        <time>2021-06-19T19:20:34Z</time>
      </trkpt>
      <trkpt lat="42.47979" lon="1.72273">
        <ele>2632</ele>
        <time>2021-06-19T19:20:43Z</time>
      </trkpt>
      <trkpt lat="42.47977" lon="1.72314">
        <ele>2638</ele>
        <time>2021-06-19T19:20:50Z</time>
      </trkpt>
      <trkpt lat="42.47988" lon="1.72369">
        <ele>2649</ele>
        <time>2021-06-19T19:21:00Z</time>
      </trkpt>
      <trkpt lat="42.47986" lon="1.72386">
        <ele>2652</ele>
        <time>2021-06-19T19:21:03Z</time>
      </trkpt>
      <trkpt lat="42.47988" lon="1.72399">
        <ele>2655</ele>
        <time>2021-06-19T19:21:05Z</time>
      </trkpt>
      <trkpt lat="42.47999" lon="1.72433">
        <ele>2661</ele>
        <time>2021-06-19T19:21:11Z</time>
      </trkpt>
      <trkpt lat="42.48017" lon="1.72514">
        <ele>2673</ele>
        <time>2021-06-19T19:21:26Z</time>
      </trkpt>
      <trkpt lat="42.48026" lon="1.72531">
        <ele>2677</ele>
        <time>2021-06-19T19:21:30Z</time>
      </trkpt>
      <trkpt lat="42.48038" lon="1.72542">
        <ele>2680</ele>
        <time>2021-06-19T19:21:33Z</time>
      </trkpt>
      <trkpt lat="42.48044" lon="1.72554">
        <ele>2682</ele>
        <time>2021-06-19T19:21:36Z</time>
      </trkpt>
      <trkpt lat="42.48059" lon="1.72561">
        <ele>2685</ele>
        <time>2021-06-19T19:21:39Z</time>
      </trkpt>
      <trkpt lat="42.48079" lon="1.72563">
        <ele>2687</ele>
        <time>2021-06-19T19:21:44Z</time>
      </trkpt>
      <trkpt lat="42.48085" lon="1.72578">
        <ele>2689</ele>
        <time>2021-06-19T19:21:47Z</time>
      </trkpt>
      <trkpt lat="42.48089" lon="1.72599">
        <ele>2691</ele>
        <time>2021-06-19T19:21:51Z</time>
      </trkpt>
      <trkpt lat="42.48104" lon="1.72634">
        <ele>2692</ele>
        <time>2021-06-19T19:21:58Z</time>
      </trkpt>
      <trkpt lat="42.4811" lon="1.72656">
        <ele>2691</ele>
        <time>2021-06-19T19:22:02Z</time>
      </trkpt>
      <trkpt lat="42.4812" lon="1.7267">
        <ele>2689</ele>
        <time>2021-06-19T19:22:05Z</time>
      </trkpt>
      <trkpt lat="42.48131" lon="1.72699">
        <ele>2679</ele>
        <time>2021-06-19T19:22:11Z</time>
      </trkpt>
      <trkpt lat="42.4814" lon="1.72702">
        <ele>2676</ele>
        <time>2021-06-19T19:22:13Z</time>
      </trkpt>
      <trkpt lat="42.48138" lon="1.72717">
        <ele>2672</ele>
        <time>2021-06-19T19:22:15Z</time>
      </trkpt>
      <trkpt lat="42.4814" lon="1.72739">
        <ele>2665</ele>
        <time>2021-06-19T19:22:19Z</time>
      </trkpt>
      <trkpt lat="42.48148" lon="1.72743">
        <ele>2659</ele>
        <time>2021-06-19T19:22:21Z</time>
      </trkpt>
      <trkpt lat="42.48154" lon="1.72742">
        <ele>2656</ele>
        <time>2021-06-19T19:22:23Z</time>
      </trkpt>
      <trkpt lat="42.48153" lon="1.72733">
        <ele>2660</ele>
        <time>2021-06-19T19:22:24Z</time>
      </trkpt>
      <trkpt lat="42.48157" lon="1.7273">
        <ele>2659</ele>
        <time>2021-06-19T19:22:25Z</time>
      </trkpt>
      <trkpt lat="42.4816" lon="1.72736">
        <ele>2655</ele>
        <time>2021-06-19T19:22:26Z</time>
      </trkpt>
      <trkpt lat="42.48167" lon="1.72734">
        <ele>2653</ele>
        <time>2021-06-19T19:22:28Z</time>
      </trkpt>
      <trkpt lat="42.48168" lon="1.72729">
        <ele>2655</ele>
        <time>2021-06-19T19:22:29Z</time>
      </trkpt>
      <trkpt lat="42.48172" lon="1.72729">
        <ele>2653</ele>
        <time>2021-06-19T19:22:30Z</time>
      </trkpt>
      <trkpt lat="42.48171" lon="1.72738">
        <ele>2649</ele>
        <time>2021-06-19T19:22:32Z</time>
      </trkpt>
      <trkpt lat="42.48177" lon="1.72734">
        <ele>2649</ele>
        <time>2021-06-19T19:22:33Z</time>
      </trkpt>
      <trkpt lat="42.48178" lon="1.72728">
        <ele>2651</ele>
        <time>2021-06-19T19:22:34Z</time>
      </trkpt>
      <trkpt lat="42.48183" lon="1.72731">
        <ele>2647</ele>
        <time>2021-06-19T19:22:35Z</time>
      </trkpt>
      <trkpt lat="42.4818" lon="1.72738">
        <ele>2646</ele>
        <time>2021-06-19T19:22:37Z</time>
      </trkpt>
      <trkpt lat="42.48188" lon="1.72739">
        <ele>2642</ele>
        <time>2021-06-19T19:22:39Z</time>
      </trkpt>
      <trkpt lat="42.48188" lon="1.72746">
        <ele>2638</ele>
        <time>2021-06-19T19:22:40Z</time>
      </trkpt>
      <trkpt lat="42.48193" lon="1.72743">
        <ele>2638</ele>
        <time>2021-06-19T19:22:41Z</time>
      </trkpt>
      <trkpt lat="42.48186" lon="1.72806">
        <ele>2617</ele>
        <time>2021-06-19T19:22:52Z</time>
      </trkpt>
      <trkpt lat="42.48192" lon="1.72805">
        <ele>2615</ele>
        <time>2021-06-19T19:22:54Z</time>
      </trkpt>
      <trkpt lat="42.48195" lon="1.72808">
        <ele>2612</ele>
        <time>2021-06-19T19:22:54Z</time>
      </trkpt>
      <trkpt lat="42.48197" lon="1.72814">
        <ele>2609</ele>
        <time>2021-06-19T19:22:56Z</time>
      </trkpt>
      <trkpt lat="42.48195" lon="1.72819">
        <ele>2608</ele>
        <time>2021-06-19T19:22:57Z</time>
      </trkpt>
      <trkpt lat="42.48201" lon="1.72835">
        <ele>2600</ele>
        <time>2021-06-19T19:23:00Z</time>
      </trkpt>
      <trkpt lat="42.48204" lon="1.72837">
        <ele>2599</ele>
        <time>2021-06-19T19:23:00Z</time>
      </trkpt>
      <trkpt lat="42.4822" lon="1.72902">
        <ele>2583</ele>
        <time>2021-06-19T19:23:12Z</time>
      </trkpt>
      <trkpt lat="42.48218" lon="1.72915">
        <ele>2582</ele>
        <time>2021-06-19T19:23:14Z</time>
      </trkpt>
      <trkpt lat="42.48212" lon="1.72921">
        <ele>2584</ele>
        <time>2021-06-19T19:23:16Z</time>
      </trkpt>
      <trkpt lat="42.48198" lon="1.72966">
        <ele>2586</ele>
        <time>2021-06-19T19:23:25Z</time>
      </trkpt>
      <trkpt lat="42.48184" lon="1.72984">
        <ele>2588</ele>
        <time>2021-06-19T19:23:29Z</time>
      </trkpt>
      <trkpt lat="42.48184" lon="1.72993">
        <ele>2587</ele>
        <time>2021-06-19T19:23:31Z</time>
      </trkpt>
      <trkpt lat="42.4818" lon="1.73005">
        <ele>2586</ele>
        <time>2021-06-19T19:23:33Z</time>
      </trkpt>
      <trkpt lat="42.48182" lon="1.73022">
        <ele>2583</ele>
        <time>2021-06-19T19:23:36Z</time>
      </trkpt>
      <trkpt lat="42.48179" lon="1.73038">
        <ele>2580</ele>
        <time>2021-06-19T19:23:39Z</time>
      </trkpt>
      <trkpt lat="42.4818" lon="1.73053">
        <ele>2577</ele>
        <time>2021-06-19T19:23:41Z</time>
      </trkpt>
      <trkpt lat="42.48177" lon="1.73086">
        <ele>2571</ele>
        <time>2021-06-19T19:23:47Z</time>
      </trkpt>
      <trkpt lat="42.48169" lon="1.73118">
        <ele>2567</ele>
        <time>2021-06-19T19:23:53Z</time>
      </trkpt>
      <trkpt lat="42.48169" lon="1.73141">
        <ele>2564</ele>
        <time>2021-06-19T19:23:57Z</time>
      </trkpt>
      <trkpt lat="42.48164" lon="1.73175">
        <ele>2560</ele>
        <time>2021-06-19T19:24:03Z</time>
      </trkpt>
      <trkpt lat="42.48149" lon="1.73189">
        <ele>2563</ele>
        <time>2021-06-19T19:24:07Z</time>
      </trkpt>
      <trkpt lat="42.48131" lon="1.73199">
        <ele>2566</ele>
        <time>2021-06-19T19:24:12Z</time>
      </trkpt>
      <trkpt lat="42.48104" lon="1.73239">
        <ele>2562</ele>
        <time>2021-06-19T19:24:21Z</time>
      </trkpt>
      <trkpt lat="42.48096" lon="1.73262">
        <ele>2559</ele>
        <time>2021-06-19T19:24:25Z</time>
      </trkpt>
      <trkpt lat="42.4808" lon="1.73286">
        <ele>2558</ele>
        <time>2021-06-19T19:24:31Z</time>
      </trkpt>
      <trkpt lat="42.48073" lon="1.73311">
        <ele>2557</ele>
        <time>2021-06-19T19:24:36Z</time>
      </trkpt>
      <trkpt lat="42.48043" lon="1.73381">
        <ele>2555</ele>
        <time>2021-06-19T19:24:49Z</time>
      </trkpt>
      <trkpt lat="42.48048" lon="1.73411">
        <ele>2553</ele>
        <time>2021-06-19T19:24:55Z</time>
      </trkpt>
      <trkpt lat="42.48051" lon="1.73466">
        <ele>2550</ele>
        <time>2021-06-19T19:25:04Z</time>
      </trkpt>
      <trkpt lat="42.48062" lon="1.73524">
        <ele>2547</ele>
        <time>2021-06-19T19:25:15Z</time>
      </trkpt>
      <trkpt lat="42.48073" lon="1.73554">
        <ele>2546</ele>
        <time>2021-06-19T19:25:20Z</time>
      </trkpt>
      <trkpt lat="42.48075" lon="1.7361">
        <ele>2544</ele>
        <time>2021-06-19T19:25:30Z</time>
      </trkpt>
      <trkpt lat="42.48038" lon="1.73618">
        <ele>2539</ele>
        <time>2021-06-19T19:25:39Z</time>
      </trkpt>
      <trkpt lat="42.47999" lon="1.73663">
        <ele>2532</ele>
        <time>2021-06-19T19:25:51Z</time>
      </trkpt>
      <trkpt lat="42.4796" lon="1.73731">
        <ele>2517</ele>
        <time>2021-06-19T19:26:06Z</time>
      </trkpt>
      <trkpt lat="42.47953" lon="1.7376">
        <ele>2512</ele>
        <time>2021-06-19T19:26:11Z</time>
      </trkpt>
      <trkpt lat="42.47927" lon="1.73766">
        <ele>2506</ele>
        <time>2021-06-19T19:26:17Z</time>
      </trkpt>
      <trkpt lat="42.47922" lon="1.7382">
        <ele>2496</ele>
        <time>2021-06-19T19:26:26Z</time>
      </trkpt>
      <trkpt lat="42.47941" lon="1.73846">
        <ele>2495</ele>
        <time>2021-06-19T19:26:33Z</time>
      </trkpt>
      <trkpt lat="42.47954" lon="1.73852">
        <ele>2495</ele>
        <time>2021-06-19T19:26:36Z</time>
      </trkpt>
      <trkpt lat="42.47954" lon="1.73869">
        <ele>2493</ele>
        <time>2021-06-19T19:26:39Z</time>
      </trkpt>
      <trkpt lat="42.47964" lon="1.7388">
        <ele>2491</ele>
        <time>2021-06-19T19:26:42Z</time>
      </trkpt>
      <trkpt lat="42.47967" lon="1.739">
        <ele>2488</ele>
        <time>2021-06-19T19:26:45Z</time>
      </trkpt>
      <trkpt lat="42.47996" lon="1.7393">
        <ele>2482</ele>
        <time>2021-06-19T19:26:54Z</time>
      </trkpt>
      <trkpt lat="42.48051" lon="1.74022">
        <ele>2475</ele>
        <time>2021-06-19T19:27:14Z</time>
      </trkpt>
      <trkpt lat="42.48069" lon="1.74029">
        <ele>2472</ele>
        <time>2021-06-19T19:27:19Z</time>
      </trkpt>
      <trkpt lat="42.48089" lon="1.74074">
        <ele>2469</ele>
        <time>2021-06-19T19:27:28Z</time>
      </trkpt>
      <trkpt lat="42.48089" lon="1.74107">
        <ele>2465</ele>
        <time>2021-06-19T19:27:33Z</time>
      </trkpt>
      <trkpt lat="42.48094" lon="1.74147">
        <ele>2462</ele>
        <time>2021-06-19T19:27:40Z</time>
      </trkpt>
      <trkpt lat="42.48113" lon="1.74195">
        <ele>2458</ele>
        <time>2021-06-19T19:27:50Z</time>
      </trkpt>
      <trkpt lat="42.48116" lon="1.74237">
        <ele>2451</ele>
        <time>2021-06-19T19:27:57Z</time>
      </trkpt>
      <trkpt lat="42.48117" lon="1.74263">
        <ele>2447</ele>
        <time>2021-06-19T19:28:01Z</time>
      </trkpt>
      <trkpt lat="42.4811" lon="1.74289">
        <ele>2443</ele>
        <time>2021-06-19T19:28:06Z</time>
      </trkpt>
      <trkpt lat="42.48113" lon="1.74328">
        <ele>2437</ele>
        <time>2021-06-19T19:28:13Z</time>
      </trkpt>
      <trkpt lat="42.48103" lon="1.7439">
        <ele>2420</ele>
        <time>2021-06-19T19:28:24Z</time>
      </trkpt>
      <trkpt lat="42.48091" lon="1.74442">
        <ele>2403</ele>
        <time>2021-06-19T19:28:33Z</time>
      </trkpt>
      <trkpt lat="42.48111" lon="1.74465">
        <ele>2398</ele>
        <time>2021-06-19T19:28:39Z</time>
      </trkpt>
      <trkpt lat="42.48115" lon="1.74531">
        <ele>2384</ele>
        <time>2021-06-19T19:28:51Z</time>
      </trkpt>
      <trkpt lat="42.4811" lon="1.74567">
        <ele>2378</ele>
        <time>2021-06-19T19:28:57Z</time>
      </trkpt>
      <trkpt lat="42.48081" lon="1.74575">
        <ele>2373</ele>
        <time>2021-06-19T19:29:04Z</time>
      </trkpt>
      <trkpt lat="42.48077" lon="1.74582">
        <ele>2371</ele>
        <time>2021-06-19T19:29:06Z</time>
      </trkpt>
      <trkpt lat="42.48069" lon="1.74587">
        <ele>2369</ele>
        <time>2021-06-19T19:29:08Z</time>
      </trkpt>
      <trkpt lat="42.48044" lon="1.74588">
        <ele>2364</ele>
        <time>2021-06-19T19:29:13Z</time>
      </trkpt>
      <trkpt lat="42.48026" lon="1.74584">
        <ele>2360</ele>
        <time>2021-06-19T19:29:18Z</time>
      </trkpt>
      <trkpt lat="42.48008" lon="1.74585">
        <ele>2357</ele>
        <time>2021-06-19T19:29:22Z</time>
      </trkpt>
      <trkpt lat="42.47961" lon="1.74607">
        <ele>2347</ele>
        <time>2021-06-19T19:29:34Z</time>
      </trkpt>
      <trkpt lat="42.47959" lon="1.74619">
        <ele>2347</ele>
        <time>2021-06-19T19:29:36Z</time>
      </trkpt>
      <trkpt lat="42.47952" lon="1.74631">
        <ele>2347</ele>
        <time>2021-06-19T19:29:38Z</time>
      </trkpt>
      <trkpt lat="42.47954" lon="1.74644">
        <ele>2347</ele>
        <time>2021-06-19T19:29:41Z</time>
      </trkpt>
      <trkpt lat="42.47943" lon="1.7465">
        <ele>2347</ele>
        <time>2021-06-19T19:29:43Z</time>
      </trkpt>
      <trkpt lat="42.47934" lon="1.74644">
        <ele>2345</ele>
        <time>2021-06-19T19:29:46Z</time>
      </trkpt>
      <trkpt lat="42.4793" lon="1.74631">
        <ele>2344</ele>
        <time>2021-06-19T19:29:48Z</time>
      </trkpt>
      <trkpt lat="42.47904" lon="1.74616">
        <ele>2340</ele>
        <time>2021-06-19T19:29:55Z</time>
      </trkpt>
      <trkpt lat="42.47895" lon="1.74621">
        <ele>2340</ele>
        <time>2021-06-19T19:29:57Z</time>
      </trkpt>
      <trkpt lat="42.47875" lon="1.74626">
        <ele>2339</ele>
        <time>2021-06-19T19:30:02Z</time>
      </trkpt>
      <trkpt lat="42.47833" lon="1.74602">
        <ele>2332</ele>
        <time>2021-06-19T19:30:12Z</time>
      </trkpt>
      <trkpt lat="42.47806" lon="1.74594">
        <ele>2327</ele>
        <time>2021-06-19T19:30:19Z</time>
      </trkpt>
      <trkpt lat="42.4779" lon="1.74604">
        <ele>2326</ele>
        <time>2021-06-19T19:30:23Z</time>
      </trkpt>
      <trkpt lat="42.47759" lon="1.74649">
        <ele>2324</ele>
        <time>2021-06-19T19:30:34Z</time>
      </trkpt>
      <trkpt lat="42.47726" lon="1.74686">
        <ele>2321</ele>
        <time>2021-06-19T19:30:44Z</time>
      </trkpt>
      <trkpt lat="42.47687" lon="1.74716">
        <ele>2315</ele>
        <time>2021-06-19T19:30:54Z</time>
      </trkpt>
      <trkpt lat="42.47668" lon="1.74742">
        <ele>2310</ele>
        <time>2021-06-19T19:31:00Z</time>
      </trkpt>
      <trkpt lat="42.47632" lon="1.74765">
        <ele>2304</ele>
        <time>2021-06-19T19:31:10Z</time>
      </trkpt>
      <trkpt lat="42.47615" lon="1.74786">
        <ele>2303</ele>
        <time>2021-06-19T19:31:15Z</time>
      </trkpt>
      <trkpt lat="42.47597" lon="1.74818">
        <ele>2304</ele>
        <time>2021-06-19T19:31:22Z</time>
      </trkpt>
      <trkpt lat="42.47547" lon="1.74884">
        <ele>2291</ele>
        <time>2021-06-19T19:31:38Z</time>
      </trkpt>
      <trkpt lat="42.47527" lon="1.7494">
        <ele>2284</ele>
        <time>2021-06-19T19:31:49Z</time>
      </trkpt>
      <trkpt lat="42.47524" lon="1.74951">
        <ele>2283</ele>
        <time>2021-06-19T19:31:51Z</time>
      </trkpt>
      <trkpt lat="42.47531" lon="1.74992">
        <ele>2285</ele>
        <time>2021-06-19T19:31:58Z</time>
      </trkpt>
      <trkpt lat="42.47524" lon="1.7502">
        <ele>2279</ele>
        <time>2021-06-19T19:32:03Z</time>
      </trkpt>
      <trkpt lat="42.47516" lon="1.75178">
        <ele>2263</ele>
        <time>2021-06-19T19:32:31Z</time>
      </trkpt>
      <trkpt lat="42.47504" lon="1.75247">
        <ele>2257</ele>
        <time>2021-06-19T19:32:43Z</time>
      </trkpt>
      <trkpt lat="42.47487" lon="1.7531">
        <ele>2252</ele>
        <time>2021-06-19T19:32:54Z</time>
      </trkpt>
      <trkpt lat="42.47449" lon="1.75366">
        <ele>2233</ele>
        <time>2021-06-19T19:33:07Z</time>
      </trkpt>
      <trkpt lat="42.47434" lon="1.75406">
        <ele>2230</ele>
        <time>2021-06-19T19:33:15Z</time>
      </trkpt>
      <trkpt lat="42.47415" lon="1.75431">
        <ele>2221</ele>
        <time>2021-06-19T19:33:21Z</time>
      </trkpt>
      <trkpt lat="42.47408" lon="1.75458">
        <ele>2223</ele>
        <time>2021-06-19T19:33:26Z</time>
      </trkpt>
      <trkpt lat="42.47392" lon="1.75487">
        <ele>2217</ele>
        <time>2021-06-19T19:33:33Z</time>
      </trkpt>
      <trkpt lat="42.47372" lon="1.75534">
        <ele>2212</ele>
        <time>2021-06-19T19:33:42Z</time>
      </trkpt>
      <trkpt lat="42.47367" lon="1.75559">
        <ele>2214</ele>
        <time>2021-06-19T19:33:46Z</time>
      </trkpt>
      <trkpt lat="42.47358" lon="1.7558">
        <ele>2212</ele>
        <time>2021-06-19T19:33:51Z</time>
      </trkpt>
      <trkpt lat="42.47349" lon="1.7567">
        <ele>2224</ele>
        <time>2021-06-19T19:34:06Z</time>
      </trkpt>
      <trkpt lat="42.47339" lon="1.75693">
        <ele>2224</ele>
        <time>2021-06-19T19:34:11Z</time>
      </trkpt>
      <trkpt lat="42.47328" lon="1.75705">
        <ele>2219</ele>
        <time>2021-06-19T19:34:14Z</time>
      </trkpt>
      <trkpt lat="42.47324" lon="1.75732">
        <ele>2226</ele>
        <time>2021-06-19T19:34:19Z</time>
      </trkpt>
      <trkpt lat="42.47303" lon="1.75743">
        <ele>2214</ele>
        <time>2021-06-19T19:34:24Z</time>
      </trkpt>
      <trkpt lat="42.47294" lon="1.75766">
        <ele>2216</ele>
        <time>2021-06-19T19:34:29Z</time>
      </trkpt>
      <trkpt lat="42.47285" lon="1.75805">
        <ele>2226</ele>
        <time>2021-06-19T19:34:36Z</time>
      </trkpt>
      <trkpt lat="42.47283" lon="1.75836">
        <ele>2237</ele>
        <time>2021-06-19T19:34:41Z</time>
      </trkpt>
      <trkpt lat="42.47269" lon="1.75869">
        <ele>2232</ele>
        <time>2021-06-19T19:34:48Z</time>
      </trkpt>
      <trkpt lat="42.47268" lon="1.75901">
        <ele>2237</ele>
        <time>2021-06-19T19:34:53Z</time>
      </trkpt>
      <trkpt lat="42.47271" lon="1.75923">
        <ele>2243</ele>
        <time>2021-06-19T19:34:57Z</time>
      </trkpt>
      <trkpt lat="42.47269" lon="1.75967">
        <ele>2250</ele>
        <time>2021-06-19T19:35:04Z</time>
      </trkpt>
      <trkpt lat="42.4726" lon="1.75997">
        <ele>2251</ele>
        <time>2021-06-19T19:35:10Z</time>
      </trkpt>
      <trkpt lat="42.47258" lon="1.76015">
        <ele>2255</ele>
        <time>2021-06-19T19:35:13Z</time>
      </trkpt>
      <trkpt lat="42.47241" lon="1.76048">
        <ele>2258</ele>
        <time>2021-06-19T19:35:20Z</time>
      </trkpt>
      <trkpt lat="42.47226" lon="1.76068">
        <ele>2259</ele>
        <time>2021-06-19T19:35:25Z</time>
      </trkpt>
      <trkpt lat="42.47221" lon="1.76084">
        <ele>2262</ele>
        <time>2021-06-19T19:35:28Z</time>
      </trkpt>
      <trkpt lat="42.47196" lon="1.76106">
        <ele>2257</ele>
        <time>2021-06-19T19:35:35Z</time>
      </trkpt>
      <trkpt lat="42.47184" lon="1.76128">
        <ele>2257</ele>
        <time>2021-06-19T19:35:40Z</time>
      </trkpt>
      <trkpt lat="42.47165" lon="1.76154">
        <ele>2255</ele>
        <time>2021-06-19T19:35:46Z</time>
      </trkpt>
      <trkpt lat="42.47138" lon="1.76229">
        <ele>2269</ele>
        <time>2021-06-19T19:36:00Z</time>
      </trkpt>
      <trkpt lat="42.4713" lon="1.76238">
        <ele>2271</ele>
        <time>2021-06-19T19:36:03Z</time>
      </trkpt>
      <trkpt lat="42.47054" lon="1.76242">
        <ele>2270</ele>
        <time>2021-06-19T19:36:21Z</time>
      </trkpt>
      <trkpt lat="42.47047" lon="1.76252">
        <ele>2275</ele>
        <time>2021-06-19T19:36:23Z</time>
      </trkpt>
      <trkpt lat="42.47008" lon="1.76244">
        <ele>2273</ele>
        <time>2021-06-19T19:36:32Z</time>
      </trkpt>
      <trkpt lat="42.47" lon="1.76247">
        <ele>2275</ele>
        <time>2021-06-19T19:36:34Z</time>
      </trkpt>
      <trkpt lat="42.46968" lon="1.76239">
        <ele>2267</ele>
        <time>2021-06-19T19:36:42Z</time>
      </trkpt>
      <trkpt lat="42.46948" lon="1.76241">
        <ele>2266</ele>
        <time>2021-06-19T19:36:46Z</time>
      </trkpt>
      <trkpt lat="42.46886" lon="1.76284">
        <ele>2265</ele>
        <time>2021-06-19T19:37:03Z</time>
      </trkpt>
      <trkpt lat="42.46859" lon="1.76322">
        <ele>2265</ele>
        <time>2021-06-19T19:37:12Z</time>
      </trkpt>
      <trkpt lat="42.46839" lon="1.76356">
        <ele>2267</ele>
        <time>2021-06-19T19:37:19Z</time>
      </trkpt>
      <trkpt lat="42.46831" lon="1.76361">
        <ele>2265</ele>
        <time>2021-06-19T19:37:21Z</time>
      </trkpt>
      <trkpt lat="42.46823" lon="1.7637">
        <ele>2265</ele>
        <time>2021-06-19T19:37:24Z</time>
      </trkpt>
      <trkpt lat="42.46818" lon="1.76382">
        <ele>2268</ele>
        <time>2021-06-19T19:37:26Z</time>
      </trkpt>
      <trkpt lat="42.46785" lon="1.76404">
        <ele>2265</ele>
        <time>2021-06-19T19:37:35Z</time>
      </trkpt>
      <trkpt lat="42.46774" lon="1.76405">
        <ele>2261</ele>
        <time>2021-06-19T19:37:37Z</time>
      </trkpt>
      <trkpt lat="42.46737" lon="1.76432">
        <ele>2262</ele>
        <time>2021-06-19T19:37:47Z</time>
      </trkpt>
      <trkpt lat="42.46718" lon="1.7644">
        <ele>2261</ele>
        <time>2021-06-19T19:37:52Z</time>
      </trkpt>
      <trkpt lat="42.46699" lon="1.76456">
        <ele>2263</ele>
        <time>2021-06-19T19:37:57Z</time>
      </trkpt>
      <trkpt lat="42.46692" lon="1.76467">
        <ele>2266</ele>
        <time>2021-06-19T19:37:59Z</time>
      </trkpt>
      <trkpt lat="42.46656" lon="1.76501">
        <ele>2265</ele>
        <time>2021-06-19T19:38:10Z</time>
      </trkpt>
      <trkpt lat="42.46648" lon="1.76513">
        <ele>2264</ele>
        <time>2021-06-19T19:38:12Z</time>
      </trkpt>
      <trkpt lat="42.46636" lon="1.7654">
        <ele>2264</ele>
        <time>2021-06-19T19:38:18Z</time>
      </trkpt>
      <trkpt lat="42.46637" lon="1.76559">
        <ele>2269</ele>
        <time>2021-06-19T19:38:21Z</time>
      </trkpt>
      <trkpt lat="42.46628" lon="1.76619">
        <ele>2279</ele>
        <time>2021-06-19T19:38:32Z</time>
      </trkpt>
      <trkpt lat="42.46621" lon="1.76639">
        <ele>2280</ele>
        <time>2021-06-19T19:38:36Z</time>
      </trkpt>
      <trkpt lat="42.46612" lon="1.76687">
        <ele>2289</ele>
        <time>2021-06-19T19:38:44Z</time>
      </trkpt>
      <trkpt lat="42.46605" lon="1.76706">
        <ele>2292</ele>
        <time>2021-06-19T19:38:48Z</time>
      </trkpt>
      <trkpt lat="42.4655" lon="1.76759">
        <ele>2292</ele>
        <time>2021-06-19T19:39:03Z</time>
      </trkpt>
      <trkpt lat="42.4652" lon="1.76783">
        <ele>2291</ele>
        <time>2021-06-19T19:39:12Z</time>
      </trkpt>
      <trkpt lat="42.465" lon="1.76789">
        <ele>2288</ele>
        <time>2021-06-19T19:39:16Z</time>
      </trkpt>
      <trkpt lat="42.46469" lon="1.7682">
        <ele>2289</ele>
        <time>2021-06-19T19:39:25Z</time>
      </trkpt>
      <trkpt lat="42.46427" lon="1.76889">
        <ele>2295</ele>
        <time>2021-06-19T19:39:41Z</time>
      </trkpt>
      <trkpt lat="42.46427" lon="1.76908">
        <ele>2299</ele>
        <time>2021-06-19T19:39:44Z</time>
      </trkpt>
      <trkpt lat="42.46402" lon="1.76967">
        <ele>2296</ele>
        <time>2021-06-19T19:39:56Z</time>
      </trkpt>
      <trkpt lat="42.46396" lon="1.77009">
        <ele>2296</ele>
        <time>2021-06-19T19:40:03Z</time>
      </trkpt>
      <trkpt lat="42.46399" lon="1.77026">
        <ele>2295</ele>
        <time>2021-06-19T19:40:06Z</time>
      </trkpt>
      <trkpt lat="42.46424" lon="1.77063">
        <ele>2300</ele>
        <time>2021-06-19T19:40:15Z</time>
      </trkpt>
      <trkpt lat="42.46451" lon="1.7711">
        <ele>2300</ele>
        <time>2021-06-19T19:40:25Z</time>
      </trkpt>
      <trkpt lat="42.46461" lon="1.77137">
        <ele>2297</ele>
        <time>2021-06-19T19:40:30Z</time>
      </trkpt>
      <trkpt lat="42.46467" lon="1.77147">
        <ele>2297</ele>
        <time>2021-06-19T19:40:33Z</time>
      </trkpt>
      <trkpt lat="42.46471" lon="1.77162">
        <ele>2295</ele>
        <time>2021-06-19T19:40:35Z</time>
      </trkpt>
      <trkpt lat="42.46481" lon="1.77178">
        <ele>2294</ele>
        <time>2021-06-19T19:40:39Z</time>
      </trkpt>
      <trkpt lat="42.46496" lon="1.77215">
        <ele>2289</ele>
        <time>2021-06-19T19:40:46Z</time>
      </trkpt>
      <trkpt lat="42.46505" lon="1.77258">
        <ele>2280</ele>
        <time>2021-06-19T19:40:54Z</time>
      </trkpt>
      <trkpt lat="42.46507" lon="1.77303">
        <ele>2271</ele>
        <time>2021-06-19T19:41:02Z</time>
      </trkpt>
      <trkpt lat="42.46514" lon="1.77356">
        <ele>2261</ele>
        <time>2021-06-19T19:41:11Z</time>
      </trkpt>
      <trkpt lat="42.46513" lon="1.77387">
        <ele>2251</ele>
        <time>2021-06-19T19:41:16Z</time>
      </trkpt>
      <trkpt lat="42.46526" lon="1.77446">
        <ele>2241</ele>
        <time>2021-06-19T19:41:27Z</time>
      </trkpt>
      <trkpt lat="42.46536" lon="1.77466">
        <ele>2240</ele>
        <time>2021-06-19T19:41:31Z</time>
      </trkpt>
      <trkpt lat="42.46548" lon="1.77505">
        <ele>2236</ele>
        <time>2021-06-19T19:41:38Z</time>
      </trkpt>
      <trkpt lat="42.46561" lon="1.77517">
        <ele>2240</ele>
        <time>2021-06-19T19:41:42Z</time>
      </trkpt>
      <trkpt lat="42.46569" lon="1.77533">
        <ele>2241</ele>
        <time>2021-06-19T19:41:45Z</time>
      </trkpt>
      <trkpt lat="42.46579" lon="1.77539">
        <ele>2245</ele>
        <time>2021-06-19T19:41:48Z</time>
      </trkpt>
      <trkpt lat="42.46583" lon="1.77552">
        <ele>2244</ele>
        <time>2021-06-19T19:41:50Z</time>
      </trkpt>
      <trkpt lat="42.46581" lon="1.77612">
        <ele>2233</ele>
        <time>2021-06-19T19:42:01Z</time>
      </trkpt>
      <trkpt lat="42.46575" lon="1.77654">
        <ele>2227</ele>
        <time>2021-06-19T19:42:08Z</time>
      </trkpt>
      <trkpt lat="42.46565" lon="1.77668">
        <ele>2220</ele>
        <time>2021-06-19T19:42:11Z</time>
      </trkpt>
      <trkpt lat="42.46552" lon="1.77715">
        <ele>2216</ele>
        <time>2021-06-19T19:42:20Z</time>
      </trkpt>
      <trkpt lat="42.46552" lon="1.77735">
        <ele>2217</ele>
        <time>2021-06-19T19:42:23Z</time>
      </trkpt>
      <trkpt lat="42.46546" lon="1.77751">
        <ele>2215</ele>
        <time>2021-06-19T19:42:27Z</time>
      </trkpt>
      <trkpt lat="42.46528" lon="1.77772">
        <ele>2209</ele>
        <time>2021-06-19T19:42:32Z</time>
      </trkpt>
      <trkpt lat="42.46514" lon="1.77806">
        <ele>2206</ele>
        <time>2021-06-19T19:42:39Z</time>
      </trkpt>
      <trkpt lat="42.46508" lon="1.77839">
        <ele>2205</ele>
        <time>2021-06-19T19:42:45Z</time>
      </trkpt>
      <trkpt lat="42.46506" lon="1.77867">
        <ele>2202</ele>
        <time>2021-06-19T19:42:49Z</time>
      </trkpt>
      <trkpt lat="42.46485" lon="1.7791">
        <ele>2195</ele>
        <time>2021-06-19T19:42:58Z</time>
      </trkpt>
      <trkpt lat="42.46473" lon="1.77948">
        <ele>2189</ele>
        <time>2021-06-19T19:43:06Z</time>
      </trkpt>
      <trkpt lat="42.46433" lon="1.78188">
        <ele>2151</ele>
        <time>2021-06-19T19:43:48Z</time>
      </trkpt>
      <trkpt lat="42.46428" lon="1.78199">
        <ele>2149</ele>
        <time>2021-06-19T19:43:50Z</time>
      </trkpt>
      <trkpt lat="42.46423" lon="1.78221">
        <ele>2145</ele>
        <time>2021-06-19T19:43:54Z</time>
      </trkpt>
      <trkpt lat="42.4642" lon="1.7826">
        <ele>2139</ele>
        <time>2021-06-19T19:44:01Z</time>
      </trkpt>
      <trkpt lat="42.46421" lon="1.78279">
        <ele>2137</ele>
        <time>2021-06-19T19:44:04Z</time>
      </trkpt>
      <trkpt lat="42.46426" lon="1.78301">
        <ele>2135</ele>
        <time>2021-06-19T19:44:08Z</time>
      </trkpt>
      <trkpt lat="42.46423" lon="1.78327">
        <ele>2132</ele>
        <time>2021-06-19T19:44:13Z</time>
      </trkpt>
      <trkpt lat="42.46443" lon="1.78385">
        <ele>2130</ele>
        <time>2021-06-19T19:44:24Z</time>
      </trkpt>
      <trkpt lat="42.46437" lon="1.78405">
        <ele>2129</ele>
        <time>2021-06-19T19:44:27Z</time>
      </trkpt>
      <trkpt lat="42.46424" lon="1.78411">
        <ele>2129</ele>
        <time>2021-06-19T19:44:31Z</time>
      </trkpt>
      <trkpt lat="42.46422" lon="1.78419">
        <ele>2129</ele>
        <time>2021-06-19T19:44:32Z</time>
      </trkpt>
      <trkpt lat="42.46423" lon="1.78464">
        <ele>2130</ele>
        <time>2021-06-19T19:44:40Z</time>
      </trkpt>
      <trkpt lat="42.464" lon="1.78517">
        <ele>2128</ele>
        <time>2021-06-19T19:44:50Z</time>
      </trkpt>
      <trkpt lat="42.46408" lon="1.78543">
        <ele>2129</ele>
        <time>2021-06-19T19:44:55Z</time>
      </trkpt>
      <trkpt lat="42.46411" lon="1.78587">
        <ele>2130</ele>
        <time>2021-06-19T19:45:03Z</time>
      </trkpt>
      <trkpt lat="42.4641" lon="1.78628">
        <ele>2129</ele>
        <time>2021-06-19T19:45:10Z</time>
      </trkpt>
      <trkpt lat="42.464" lon="1.78649">
        <ele>2128</ele>
        <time>2021-06-19T19:45:14Z</time>
      </trkpt>
      <trkpt lat="42.46407" lon="1.78662">
        <ele>2129</ele>
        <time>2021-06-19T19:45:17Z</time>
      </trkpt>
      <trkpt lat="42.46415" lon="1.78668">
        <ele>2130</ele>
        <time>2021-06-19T19:45:19Z</time>
      </trkpt>
      <trkpt lat="42.46425" lon="1.78709">
        <ele>2135</ele>
        <time>2021-06-19T19:45:27Z</time>
      </trkpt>
      <trkpt lat="42.46426" lon="1.78726">
        <ele>2137</ele>
        <time>2021-06-19T19:45:30Z</time>
      </trkpt>
      <trkpt lat="42.46421" lon="1.78742">
        <ele>2138</ele>
        <time>2021-06-19T19:45:32Z</time>
      </trkpt>
      <trkpt lat="42.46428" lon="1.78764">
        <ele>2140</ele>
        <time>2021-06-19T19:45:37Z</time>
      </trkpt>
      <trkpt lat="42.46407" lon="1.78821">
        <ele>2144</ele>
        <time>2021-06-19T19:45:48Z</time>
      </trkpt>
      <trkpt lat="42.46393" lon="1.78825">
        <ele>2144</ele>
        <time>2021-06-19T19:45:51Z</time>
      </trkpt>
      <trkpt lat="42.46385" lon="1.78833">
        <ele>2144</ele>
        <time>2021-06-19T19:45:53Z</time>
      </trkpt>
      <trkpt lat="42.46354" lon="1.7883">
        <ele>2143</ele>
        <time>2021-06-19T19:46:01Z</time>
      </trkpt>
      <trkpt lat="42.46345" lon="1.78844">
        <ele>2144</ele>
        <time>2021-06-19T19:46:04Z</time>
      </trkpt>
      <trkpt lat="42.46332" lon="1.78852">
        <ele>2145</ele>
        <time>2021-06-19T19:46:07Z</time>
      </trkpt>
      <trkpt lat="42.46329" lon="1.78872">
        <ele>2147</ele>
        <time>2021-06-19T19:46:11Z</time>
      </trkpt>
      <trkpt lat="42.46341" lon="1.78934">
        <ele>2156</ele>
        <time>2021-06-19T19:46:22Z</time>
      </trkpt>
      <trkpt lat="42.46334" lon="1.78957">
        <ele>2163</ele>
        <time>2021-06-19T19:46:26Z</time>
      </trkpt>
      <trkpt lat="42.46341" lon="1.78968">
        <ele>2165</ele>
        <time>2021-06-19T19:46:28Z</time>
      </trkpt>
      <trkpt lat="42.46349" lon="1.78971">
        <ele>2166</ele>
        <time>2021-06-19T19:46:30Z</time>
      </trkpt>
      <trkpt lat="42.4636" lon="1.7898">
        <ele>2168</ele>
        <time>2021-06-19T19:46:33Z</time>
      </trkpt>
      <trkpt lat="42.46373" lon="1.79013">
        <ele>2176</ele>
        <time>2021-06-19T19:46:40Z</time>
      </trkpt>
      <trkpt lat="42.46371" lon="1.7903">
        <ele>2180</ele>
        <time>2021-06-19T19:46:43Z</time>
      </trkpt>
      <trkpt lat="42.46374" lon="1.79043">
        <ele>2183</ele>
        <time>2021-06-19T19:46:45Z</time>
      </trkpt>
      <trkpt lat="42.46382" lon="1.79058">
        <ele>2186</ele>
        <time>2021-06-19T19:46:48Z</time>
      </trkpt>
      <trkpt lat="42.46371" lon="1.79072">
        <ele>2191</ele>
        <time>2021-06-19T19:46:52Z</time>
      </trkpt>
      <trkpt lat="42.46364" lon="1.79065">
        <ele>2190</ele>
        <time>2021-06-19T19:46:54Z</time>
      </trkpt>
      <trkpt lat="42.46339" lon="1.79054">
        <ele>2190</ele>
        <time>2021-06-19T19:47:00Z</time>
      </trkpt>
      <trkpt lat="42.46323" lon="1.79054">
        <ele>2191</ele>
        <time>2021-06-19T19:47:04Z</time>
      </trkpt>
      <trkpt lat="42.46311" lon="1.79059">
        <ele>2192</ele>
        <time>2021-06-19T19:47:07Z</time>
      </trkpt>
      <trkpt lat="42.4625" lon="1.7912">
        <ele>2198</ele>
        <time>2021-06-19T19:47:24Z</time>
      </trkpt>
      <trkpt lat="42.46235" lon="1.79126">
        <ele>2197</ele>
        <time>2021-06-19T19:47:28Z</time>
      </trkpt>
      <trkpt lat="42.46221" lon="1.79144">
        <ele>2197</ele>
        <time>2021-06-19T19:47:33Z</time>
      </trkpt>
      <trkpt lat="42.46191" lon="1.79164">
        <ele>2197</ele>
        <time>2021-06-19T19:47:40Z</time>
      </trkpt>
      <trkpt lat="42.46182" lon="1.79199">
        <ele>2198</ele>
        <time>2021-06-19T19:47:47Z</time>
      </trkpt>
      <trkpt lat="42.46154" lon="1.79214">
        <ele>2195</ele>
        <time>2021-06-19T19:47:54Z</time>
      </trkpt>
      <trkpt lat="42.46147" lon="1.79248">
        <ele>2196</ele>
        <time>2021-06-19T19:48:00Z</time>
      </trkpt>
      <trkpt lat="42.46111" lon="1.79299">
        <ele>2191</ele>
        <time>2021-06-19T19:48:12Z</time>
      </trkpt>
      <trkpt lat="42.46103" lon="1.79326">
        <ele>2191</ele>
        <time>2021-06-19T19:48:17Z</time>
      </trkpt>
      <trkpt lat="42.46105" lon="1.79344">
        <ele>2192</ele>
        <time>2021-06-19T19:48:20Z</time>
      </trkpt>
      <trkpt lat="42.46101" lon="1.79362">
        <ele>2192</ele>
        <time>2021-06-19T19:48:23Z</time>
      </trkpt>
      <trkpt lat="42.46035" lon="1.79526">
        <ele>2181</ele>
        <time>2021-06-19T19:48:56Z</time>
      </trkpt>
      <trkpt lat="42.46026" lon="1.79566">
        <ele>2183</ele>
        <time>2021-06-19T19:49:03Z</time>
      </trkpt>
      <trkpt lat="42.46001" lon="1.79584">
        <ele>2181</ele>
        <time>2021-06-19T19:49:09Z</time>
      </trkpt>
      <trkpt lat="42.45984" lon="1.79601">
        <ele>2176</ele>
        <time>2021-06-19T19:49:14Z</time>
      </trkpt>
      <trkpt lat="42.45976" lon="1.79636">
        <ele>2178</ele>
        <time>2021-06-19T19:49:21Z</time>
      </trkpt>
      <trkpt lat="42.45956" lon="1.79686">
        <ele>2178</ele>
        <time>2021-06-19T19:49:30Z</time>
      </trkpt>
      <trkpt lat="42.45947" lon="1.797">
        <ele>2177</ele>
        <time>2021-06-19T19:49:34Z</time>
      </trkpt>
      <trkpt lat="42.4594" lon="1.79725">
        <ele>2178</ele>
        <time>2021-06-19T19:49:38Z</time>
      </trkpt>
      <trkpt lat="42.45942" lon="1.79744">
        <ele>2179</ele>
        <time>2021-06-19T19:49:42Z</time>
      </trkpt>
      <trkpt lat="42.45949" lon="1.79763">
        <ele>2181</ele>
        <time>2021-06-19T19:49:45Z</time>
      </trkpt>
      <trkpt lat="42.45957" lon="1.79769">
        <ele>2182</ele>
        <time>2021-06-19T19:49:47Z</time>
      </trkpt>
      <trkpt lat="42.45962" lon="1.79782">
        <ele>2183</ele>
        <time>2021-06-19T19:49:50Z</time>
      </trkpt>
      <trkpt lat="42.4596" lon="1.79798">
        <ele>2183</ele>
        <time>2021-06-19T19:49:53Z</time>
      </trkpt>
      <trkpt lat="42.45917" lon="1.799">
        <ele>2185</ele>
        <time>2021-06-19T19:50:13Z</time>
      </trkpt>
      <trkpt lat="42.45916" lon="1.79919">
        <ele>2186</ele>
        <time>2021-06-19T19:50:16Z</time>
      </trkpt>
      <trkpt lat="42.45894" lon="1.79997">
        <ele>2187</ele>
        <time>2021-06-19T19:50:31Z</time>
      </trkpt>
      <trkpt lat="42.45886" lon="1.80016">
        <ele>2187</ele>
        <time>2021-06-19T19:50:34Z</time>
      </trkpt>
      <trkpt lat="42.45886" lon="1.80037">
        <ele>2190</ele>
        <time>2021-06-19T19:50:38Z</time>
      </trkpt>
      <trkpt lat="42.45897" lon="1.8006">
        <ele>2194</ele>
        <time>2021-06-19T19:50:43Z</time>
      </trkpt>
      <trkpt lat="42.45896" lon="1.80069">
        <ele>2194</ele>
        <time>2021-06-19T19:50:44Z</time>
      </trkpt>
      <trkpt lat="42.45879" lon="1.80104">
        <ele>2195</ele>
        <time>2021-06-19T19:50:51Z</time>
      </trkpt>
      <trkpt lat="42.4586" lon="1.8016">
        <ele>2198</ele>
        <time>2021-06-19T19:51:02Z</time>
      </trkpt>
      <trkpt lat="42.45855" lon="1.802">
        <ele>2200</ele>
        <time>2021-06-19T19:51:09Z</time>
      </trkpt>
      <trkpt lat="42.4587" lon="1.80204">
        <ele>2201</ele>
        <time>2021-06-19T19:51:13Z</time>
      </trkpt>
      <trkpt lat="42.4589" lon="1.80216">
        <ele>2202</ele>
        <time>2021-06-19T19:51:18Z</time>
      </trkpt>
      <trkpt lat="42.45914" lon="1.80241">
        <ele>2203</ele>
        <time>2021-06-19T19:51:25Z</time>
      </trkpt>
      <trkpt lat="42.45947" lon="1.80285">
        <ele>2208</ele>
        <time>2021-06-19T19:51:36Z</time>
      </trkpt>
      <trkpt lat="42.46037" lon="1.80436">
        <ele>2218</ele>
        <time>2021-06-19T19:52:09Z</time>
      </trkpt>
      <trkpt lat="42.4606" lon="1.80484">
        <ele>2218</ele>
        <time>2021-06-19T19:52:19Z</time>
      </trkpt>
      <trkpt lat="42.46077" lon="1.80532">
        <ele>2218</ele>
        <time>2021-06-19T19:52:28Z</time>
      </trkpt>
      <trkpt lat="42.46105" lon="1.80636">
        <ele>2219</ele>
        <time>2021-06-19T19:52:47Z</time>
      </trkpt>
      <trkpt lat="42.46126" lon="1.80756">
        <ele>2213</ele>
        <time>2021-06-19T19:53:08Z</time>
      </trkpt>
      <trkpt lat="42.4614" lon="1.80818">
        <ele>2211</ele>
        <time>2021-06-19T19:53:20Z</time>
      </trkpt>
      <trkpt lat="42.46243" lon="1.81074">
        <ele>2200</ele>
        <time>2021-06-19T19:54:10Z</time>
      </trkpt>
      <trkpt lat="42.46265" lon="1.81142">
        <ele>2196</ele>
        <time>2021-06-19T19:54:23Z</time>
      </trkpt>
      <trkpt lat="42.46296" lon="1.8129">
        <ele>2184</ele>
        <time>2021-06-19T19:54:49Z</time>
      </trkpt>
      <trkpt lat="42.46277" lon="1.81386">
        <ele>2179</ele>
        <time>2021-06-19T19:55:06Z</time>
      </trkpt>
      <trkpt lat="42.4624" lon="1.81448">
        <ele>2175</ele>
        <time>2021-06-19T19:55:20Z</time>
      </trkpt>
      <trkpt lat="42.4617" lon="1.81533">
        <ele>2169</ele>
        <time>2021-06-19T19:55:42Z</time>
      </trkpt>
      <trkpt lat="42.46103" lon="1.81622">
        <ele>2166</ele>
        <time>2021-06-19T19:56:04Z</time>
      </trkpt>
      <trkpt lat="42.46087" lon="1.81662">
        <ele>2166</ele>
        <time>2021-06-19T19:56:12Z</time>
      </trkpt>
      <trkpt lat="42.46069" lon="1.81737">
        <ele>2166</ele>
        <time>2021-06-19T19:56:25Z</time>
      </trkpt>
      <trkpt lat="42.46048" lon="1.81842">
        <ele>2168</ele>
        <time>2021-06-19T19:56:44Z</time>
      </trkpt>
      <trkpt lat="42.46022" lon="1.81896">
        <ele>2172</ele>
        <time>2021-06-19T19:56:55Z</time>
      </trkpt>
      <trkpt lat="42.46007" lon="1.81978">
        <ele>2175</ele>
        <time>2021-06-19T19:57:10Z</time>
      </trkpt>
      <trkpt lat="42.45995" lon="1.82147">
        <ele>2176</ele>
        <time>2021-06-19T19:57:39Z</time>
      </trkpt>
      <trkpt lat="42.45981" lon="1.82265">
        <ele>2168</ele>
        <time>2021-06-19T19:58:00Z</time>
      </trkpt>
      <trkpt lat="42.45977" lon="1.82378">
        <ele>2159</ele>
        <time>2021-06-19T19:58:19Z</time>
      </trkpt>
      <trkpt lat="42.46014" lon="1.82528">
        <ele>2145</ele>
        <time>2021-06-19T19:58:46Z</time>
      </trkpt>
      <trkpt lat="42.46036" lon="1.82669">
        <ele>2136</ele>
        <time>2021-06-19T19:59:11Z</time>
      </trkpt>
      <trkpt lat="42.46034" lon="1.82688">
        <ele>2134</ele>
        <time>2021-06-19T19:59:14Z</time>
      </trkpt>
      <trkpt lat="42.46013" lon="1.82763">
        <ele>2124</ele>
        <time>2021-06-19T19:59:28Z</time>
      </trkpt>
      <trkpt lat="42.45987" lon="1.82896">
        <ele>2105</ele>
        <time>2021-06-19T19:59:52Z</time>
      </trkpt>
      <trkpt lat="42.45956" lon="1.82995">
        <ele>2088</ele>
        <time>2021-06-19T20:00:10Z</time>
      </trkpt>
      <trkpt lat="42.45939" lon="1.83039">
        <ele>2082</ele>
        <time>2021-06-19T20:00:19Z</time>
      </trkpt>
      <trkpt lat="42.45921" lon="1.83076">
        <ele>2076</ele>
        <time>2021-06-19T20:00:27Z</time>
      </trkpt>
      <trkpt lat="42.45884" lon="1.83118">
        <ele>2065</ele>
        <time>2021-06-19T20:00:38Z</time>
      </trkpt>
      <trkpt lat="42.45823" lon="1.83236">
        <ele>2045</ele>
        <time>2021-06-19T20:01:03Z</time>
      </trkpt>
      <trkpt lat="42.45821" lon="1.83256">
        <ele>2043</ele>
        <time>2021-06-19T20:01:06Z</time>
      </trkpt>
      <trkpt lat="42.45812" lon="1.83265">
        <ele>2040</ele>
        <time>2021-06-19T20:01:09Z</time>
      </trkpt>
      <trkpt lat="42.45798" lon="1.83299">
        <ele>2033</ele>
        <time>2021-06-19T20:01:16Z</time>
      </trkpt>
      <trkpt lat="42.45778" lon="1.83332">
        <ele>2027</ele>
        <time>2021-06-19T20:01:23Z</time>
      </trkpt>
      <trkpt lat="42.45734" lon="1.83432">
        <ele>2013</ele>
        <time>2021-06-19T20:01:43Z</time>
      </trkpt>
      <trkpt lat="42.45673" lon="1.83604">
        <ele>1992</ele>
        <time>2021-06-19T20:02:16Z</time>
      </trkpt>
      <trkpt lat="42.45638" lon="1.83719">
        <ele>1970</ele>
        <time>2021-06-19T20:02:37Z</time>
      </trkpt>
      <trkpt lat="42.45639" lon="1.83746">
        <ele>1967</ele>
        <time>2021-06-19T20:02:42Z</time>
      </trkpt>
      <trkpt lat="42.45636" lon="1.83777">
        <ele>1962</ele>
        <time>2021-06-19T20:02:47Z</time>
      </trkpt>
      <trkpt lat="42.45628" lon="1.83807">
        <ele>1957</ele>
        <time>2021-06-19T20:02:53Z</time>
      </trkpt>
      <trkpt lat="42.45622" lon="1.83844">
        <ele>1953</ele>
        <time>2021-06-19T20:02:59Z</time>
      </trkpt>
      <trkpt lat="42.45611" lon="1.83873">
        <ele>1949</ele>
        <time>2021-06-19T20:03:05Z</time>
      </trkpt>
      <trkpt lat="42.45595" lon="1.83893">
        <ele>1945</ele>
        <time>2021-06-19T20:03:10Z</time>
      </trkpt>
      <trkpt lat="42.45582" lon="1.83924">
        <ele>1941</ele>
        <time>2021-06-19T20:03:16Z</time>
      </trkpt>
      <trkpt lat="42.45578" lon="1.83945">
        <ele>1938</ele>
        <time>2021-06-19T20:03:20Z</time>
      </trkpt>
      <trkpt lat="42.45577" lon="1.83982">
        <ele>1934</ele>
        <time>2021-06-19T20:03:26Z</time>
      </trkpt>
      <trkpt lat="42.45589" lon="1.84025">
        <ele>1932</ele>
        <time>2021-06-19T20:03:34Z</time>
      </trkpt>
      <trkpt lat="42.45596" lon="1.84071">
        <ele>1928</ele>
        <time>2021-06-19T20:03:42Z</time>
      </trkpt>
      <trkpt lat="42.45594" lon="1.84101">
        <ele>1926</ele>
        <time>2021-06-19T20:03:47Z</time>
      </trkpt>
      <trkpt lat="42.45575" lon="1.84207">
        <ele>1921</ele>
        <time>2021-06-19T20:04:06Z</time>
      </trkpt>
      <trkpt lat="42.45542" lon="1.84311">
        <ele>1915</ele>
        <time>2021-06-19T20:04:26Z</time>
      </trkpt>
      <trkpt lat="42.4552" lon="1.84394">
        <ele>1913</ele>
        <time>2021-06-19T20:04:41Z</time>
      </trkpt>
      <trkpt lat="42.45499" lon="1.8445">
        <ele>1913</ele>
        <time>2021-06-19T20:04:52Z</time>
      </trkpt>
      <trkpt lat="42.45474" lon="1.84504">
        <ele>1912</ele>
        <time>2021-06-19T20:05:03Z</time>
      </trkpt>
      <trkpt lat="42.45447" lon="1.84555">
        <ele>1911</ele>
        <time>2021-06-19T20:05:14Z</time>
      </trkpt>
      <trkpt lat="42.45421" lon="1.84628">
        <ele>1908</ele>
        <time>2021-06-19T20:05:28Z</time>
      </trkpt>
      <trkpt lat="42.45415" lon="1.84639">
        <ele>1907</ele>
        <time>2021-06-19T20:05:30Z</time>
      </trkpt>
      <trkpt lat="42.45395" lon="1.84653">
        <ele>1905</ele>
        <time>2021-06-19T20:05:35Z</time>
      </trkpt>
      <trkpt lat="42.45354" lon="1.84671">
        <ele>1901</ele>
        <time>2021-06-19T20:05:45Z</time>
      </trkpt>
      <trkpt lat="42.45346" lon="1.84703">
        <ele>1899</ele>
        <time>2021-06-19T20:05:51Z</time>
      </trkpt>
      <trkpt lat="42.45343" lon="1.84729">
        <ele>1898</ele>
        <time>2021-06-19T20:05:56Z</time>
      </trkpt>
      <trkpt lat="42.45351" lon="1.84771">
        <ele>1897</ele>
        <time>2021-06-19T20:06:03Z</time>
      </trkpt>
      <trkpt lat="42.45345" lon="1.84791">
        <ele>1897</ele>
        <time>2021-06-19T20:06:07Z</time>
      </trkpt>
      <trkpt lat="42.45328" lon="1.84825">
        <ele>1896</ele>
        <time>2021-06-19T20:06:14Z</time>
      </trkpt>
      <trkpt lat="42.45325" lon="1.84851">
        <ele>1894</ele>
        <time>2021-06-19T20:06:18Z</time>
      </trkpt>
      <trkpt lat="42.45293" lon="1.84908">
        <ele>1891</ele>
        <time>2021-06-19T20:06:31Z</time>
      </trkpt>
      <trkpt lat="42.45263" lon="1.84933">
        <ele>1890</ele>
        <time>2021-06-19T20:06:39Z</time>
      </trkpt>
      <trkpt lat="42.45241" lon="1.84971">
        <ele>1885</ele>
        <time>2021-06-19T20:06:47Z</time>
      </trkpt>
      <trkpt lat="42.45218" lon="1.85022">
        <ele>1877</ele>
        <time>2021-06-19T20:06:58Z</time>
      </trkpt>
      <trkpt lat="42.45191" lon="1.85061">
        <ele>1869</ele>
        <time>2021-06-19T20:07:07Z</time>
      </trkpt>
      <trkpt lat="42.45187" lon="1.85085">
        <ele>1866</ele>
        <time>2021-06-19T20:07:11Z</time>
      </trkpt>
      <trkpt lat="42.45177" lon="1.85092">
        <ele>1863</ele>
        <time>2021-06-19T20:07:14Z</time>
      </trkpt>
      <trkpt lat="42.45153" lon="1.85177">
        <ele>1844</ele>
        <time>2021-06-19T20:07:29Z</time>
      </trkpt>
      <trkpt lat="42.45139" lon="1.85199">
        <ele>1837</ele>
        <time>2021-06-19T20:07:34Z</time>
      </trkpt>
      <trkpt lat="42.45109" lon="1.8526">
        <ele>1821</ele>
        <time>2021-06-19T20:07:47Z</time>
      </trkpt>
      <trkpt lat="42.45102" lon="1.85301">
        <ele>1812</ele>
        <time>2021-06-19T20:07:54Z</time>
      </trkpt>
      <trkpt lat="42.4509" lon="1.85341">
        <ele>1804</ele>
        <time>2021-06-19T20:08:02Z</time>
      </trkpt>
      <trkpt lat="42.45072" lon="1.85475">
        <ele>1782</ele>
        <time>2021-06-19T20:08:25Z</time>
      </trkpt>
      <trkpt lat="42.45062" lon="1.85524">
        <ele>1774</ele>
        <time>2021-06-19T20:08:34Z</time>
      </trkpt>
      <trkpt lat="42.45045" lon="1.85576">
        <ele>1764</ele>
        <time>2021-06-19T20:08:44Z</time>
      </trkpt>
      <trkpt lat="42.45045" lon="1.85615">
        <ele>1761</ele>
        <time>2021-06-19T20:08:50Z</time>
      </trkpt>
      <trkpt lat="42.45038" lon="1.85634">
        <ele>1759</ele>
        <time>2021-06-19T20:08:54Z</time>
      </trkpt>
      <trkpt lat="42.45024" lon="1.85652">
        <ele>1757</ele>
        <time>2021-06-19T20:08:59Z</time>
      </trkpt>
      <trkpt lat="42.45018" lon="1.85679">
        <ele>1755</ele>
        <time>2021-06-19T20:09:03Z</time>
      </trkpt>
      <trkpt lat="42.45011" lon="1.85696">
        <ele>1755</ele>
        <time>2021-06-19T20:09:07Z</time>
      </trkpt>
      <trkpt lat="42.45002" lon="1.85771">
        <ele>1752</ele>
        <time>2021-06-19T20:09:20Z</time>
      </trkpt>
      <trkpt lat="42.45002" lon="1.85803">
        <ele>1750</ele>
        <time>2021-06-19T20:09:25Z</time>
      </trkpt>
      <trkpt lat="42.45004" lon="1.85815">
        <ele>1749</ele>
        <time>2021-06-19T20:09:28Z</time>
      </trkpt>
      <trkpt lat="42.45022" lon="1.85859">
        <ele>1743</ele>
        <time>2021-06-19T20:09:36Z</time>
      </trkpt>
      <trkpt lat="42.4503" lon="1.85888">
        <ele>1740</ele>
        <time>2021-06-19T20:09:42Z</time>
      </trkpt>
      <trkpt lat="42.45032" lon="1.85908">
        <ele>1737</ele>
        <time>2021-06-19T20:09:45Z</time>
      </trkpt>
      <trkpt lat="42.45031" lon="1.85949">
        <ele>1732</ele>
        <time>2021-06-19T20:09:52Z</time>
      </trkpt>
      <trkpt lat="42.45024" lon="1.85974">
        <ele>1730</ele>
        <time>2021-06-19T20:09:57Z</time>
      </trkpt>
      <trkpt lat="42.45013" lon="1.85999">
        <ele>1728</ele>
        <time>2021-06-19T20:10:02Z</time>
      </trkpt>
      <trkpt lat="42.45002" lon="1.86044">
        <ele>1722</ele>
        <time>2021-06-19T20:10:10Z</time>
      </trkpt>
      <trkpt lat="42.44986" lon="1.86068">
        <ele>1715</ele>
        <time>2021-06-19T20:10:15Z</time>
      </trkpt>
      <trkpt lat="42.44979" lon="1.86096">
        <ele>1709</ele>
        <time>2021-06-19T20:10:21Z</time>
      </trkpt>
      <trkpt lat="42.44982" lon="1.86111">
        <ele>1707</ele>
        <time>2021-06-19T20:10:23Z</time>
      </trkpt>
      <trkpt lat="42.44997" lon="1.86139">
        <ele>1705</ele>
        <time>2021-06-19T20:10:29Z</time>
      </trkpt>
      <trkpt lat="42.45006" lon="1.8615">
        <ele>1702</ele>
        <time>2021-06-19T20:10:32Z</time>
      </trkpt>
      <trkpt lat="42.45007" lon="1.86164">
        <ele>1699</ele>
        <time>2021-06-19T20:10:34Z</time>
      </trkpt>
      <trkpt lat="42.45017" lon="1.86176">
        <ele>1694</ele>
        <time>2021-06-19T20:10:38Z</time>
      </trkpt>
      <trkpt lat="42.45018" lon="1.86181">
        <ele>1692</ele>
        <time>2021-06-19T20:10:38Z</time>
      </trkpt>
      <trkpt lat="42.45014" lon="1.86205">
        <ele>1685</ele>
        <time>2021-06-19T20:10:43Z</time>
      </trkpt>
      <trkpt lat="42.45019" lon="1.86235">
        <ele>1674</ele>
        <time>2021-06-19T20:10:48Z</time>
      </trkpt>
      <trkpt lat="42.45018" lon="1.86249">
        <ele>1670</ele>
        <time>2021-06-19T20:10:50Z</time>
      </trkpt>
      <trkpt lat="42.45025" lon="1.8626">
        <ele>1666</ele>
        <time>2021-06-19T20:10:53Z</time>
      </trkpt>
      <trkpt lat="42.45022" lon="1.86279">
        <ele>1660</ele>
        <time>2021-06-19T20:10:56Z</time>
      </trkpt>
      <trkpt lat="42.45015" lon="1.86283">
        <ele>1660</ele>
        <time>2021-06-19T20:10:58Z</time>
      </trkpt>
      <trkpt lat="42.45002" lon="1.86344">
        <ele>1645</ele>
        <time>2021-06-19T20:11:09Z</time>
      </trkpt>
      <trkpt lat="42.45006" lon="1.86387">
        <ele>1633</ele>
        <time>2021-06-19T20:11:16Z</time>
      </trkpt>
      <trkpt lat="42.45011" lon="1.86409">
        <ele>1627</ele>
        <time>2021-06-19T20:11:20Z</time>
      </trkpt>
      <trkpt lat="42.4501" lon="1.86441">
        <ele>1619</ele>
        <time>2021-06-19T20:11:26Z</time>
      </trkpt>
      <trkpt lat="42.45018" lon="1.86467">
        <ele>1611</ele>
        <time>2021-06-19T20:11:31Z</time>
      </trkpt>
      <trkpt lat="42.45025" lon="1.86506">
        <ele>1600</ele>
        <time>2021-06-19T20:11:38Z</time>
      </trkpt>
      <trkpt lat="42.45024" lon="1.86543">
        <ele>1595</ele>
        <time>2021-06-19T20:11:44Z</time>
      </trkpt>
      <trkpt lat="42.45021" lon="1.86559">
        <ele>1593</ele>
        <time>2021-06-19T20:11:47Z</time>
      </trkpt>
      <trkpt lat="42.45022" lon="1.86579">
        <ele>1590</ele>
        <time>2021-06-19T20:11:50Z</time>
      </trkpt>
      <trkpt lat="42.45011" lon="1.86603">
        <ele>1587</ele>
        <time>2021-06-19T20:11:55Z</time>
      </trkpt>
      <trkpt lat="42.45" lon="1.86636">
        <ele>1584</ele>
        <time>2021-06-19T20:12:02Z</time>
      </trkpt>
      <trkpt lat="42.44997" lon="1.86675">
        <ele>1576</ele>
        <time>2021-06-19T20:12:08Z</time>
      </trkpt>
      <trkpt lat="42.45011" lon="1.86772">
        <ele>1554</ele>
        <time>2021-06-19T20:12:25Z</time>
      </trkpt>
      <trkpt lat="42.45017" lon="1.86833">
        <ele>1541</ele>
        <time>2021-06-19T20:12:36Z</time>
      </trkpt>
      <trkpt lat="42.45025" lon="1.86867">
        <ele>1533</ele>
        <time>2021-06-19T20:12:42Z</time>
      </trkpt>
      <trkpt lat="42.45022" lon="1.86949">
        <ele>1518</ele>
        <time>2021-06-19T20:12:56Z</time>
      </trkpt>
      <trkpt lat="42.45036" lon="1.87036">
        <ele>1503</ele>
        <time>2021-06-19T20:13:12Z</time>
      </trkpt>
      <trkpt lat="42.45033" lon="1.87068">
        <ele>1498</ele>
        <time>2021-06-19T20:13:17Z</time>
      </trkpt>
      <trkpt lat="42.45033" lon="1.87115">
        <ele>1491</ele>
        <time>2021-06-19T20:13:25Z</time>
      </trkpt>
      <trkpt lat="42.4503" lon="1.87136">
        <ele>1488</ele>
        <time>2021-06-19T20:13:29Z</time>
      </trkpt>
      <trkpt lat="42.45034" lon="1.87167">
        <ele>1484</ele>
        <time>2021-06-19T20:13:34Z</time>
      </trkpt>
      <trkpt lat="42.45031" lon="1.87186">
        <ele>1480</ele>
        <time>2021-06-19T20:13:38Z</time>
      </trkpt>
      <trkpt lat="42.45024" lon="1.872">
        <ele>1476</ele>
        <time>2021-06-19T20:13:41Z</time>
      </trkpt>
      <trkpt lat="42.45018" lon="1.87244">
        <ele>1468</ele>
        <time>2021-06-19T20:13:48Z</time>
      </trkpt>
      <trkpt lat="42.45009" lon="1.87258">
        <ele>1464</ele>
        <time>2021-06-19T20:13:51Z</time>
      </trkpt>
      <trkpt lat="42.4499" lon="1.87274">
        <ele>1460</ele>
        <time>2021-06-19T20:13:57Z</time>
      </trkpt>
      <trkpt lat="42.44985" lon="1.87297">
        <ele>1455</ele>
        <time>2021-06-19T20:14:01Z</time>
      </trkpt>
      <trkpt lat="42.44976" lon="1.87314">
        <ele>1452</ele>
        <time>2021-06-19T20:14:04Z</time>
      </trkpt>
      <trkpt lat="42.44994" lon="1.8736">
        <ele>1444</ele>
        <time>2021-06-19T20:14:13Z</time>
      </trkpt>
      <trkpt lat="42.44998" lon="1.87382">
        <ele>1441</ele>
        <time>2021-06-19T20:14:17Z</time>
      </trkpt>
      <trkpt lat="42.44992" lon="1.87385">
        <ele>1440</ele>
        <time>2021-06-19T20:14:19Z</time>
      </trkpt>
      <trkpt lat="42.44988" lon="1.87405">
        <ele>1437</ele>
        <time>2021-06-19T20:14:22Z</time>
      </trkpt>
      <trkpt lat="42.4501" lon="1.87462">
        <ele>1431</ele>
        <time>2021-06-19T20:14:33Z</time>
      </trkpt>
      <trkpt lat="42.45028" lon="1.87519">
        <ele>1426</ele>
        <time>2021-06-19T20:14:44Z</time>
      </trkpt>
      <trkpt lat="42.4495" lon="1.8769">
        <ele>1407</ele>
        <time>2021-06-19T20:15:19Z</time>
      </trkpt>
      <trkpt lat="42.44944" lon="1.87695">
        <ele>1407</ele>
        <time>2021-06-19T20:15:20Z</time>
      </trkpt>
      <trkpt lat="42.44937" lon="1.87711">
        <ele>1406</ele>
        <time>2021-06-19T20:15:24Z</time>
      </trkpt>
      <trkpt lat="42.44933" lon="1.8773">
        <ele>1405</ele>
        <time>2021-06-19T20:15:27Z</time>
      </trkpt>
      <trkpt lat="42.44934" lon="1.87736">
        <ele>1404</ele>
        <time>2021-06-19T20:15:28Z</time>
      </trkpt>
      <trkpt lat="42.44923" lon="1.87776">
        <ele>1401</ele>
        <time>2021-06-19T20:15:35Z</time>
      </trkpt>
      <trkpt lat="42.44917" lon="1.87814">
        <ele>1397</ele>
        <time>2021-06-19T20:15:42Z</time>
      </trkpt>
      <trkpt lat="42.44918" lon="1.87839">
        <ele>1394</ele>
        <time>2021-06-19T20:15:46Z</time>
      </trkpt>
      <trkpt lat="42.44936" lon="1.87841">
        <ele>1394</ele>
        <time>2021-06-19T20:15:51Z</time>
      </trkpt>
      <trkpt lat="42.44935" lon="1.87884">
        <ele>1391</ele>
        <time>2021-06-19T20:15:58Z</time>
      </trkpt>
      <trkpt lat="42.44928" lon="1.87913">
        <ele>1388</ele>
        <time>2021-06-19T20:16:03Z</time>
      </trkpt>
      <trkpt lat="42.44931" lon="1.87921">
        <ele>1387</ele>
        <time>2021-06-19T20:16:05Z</time>
      </trkpt>
      <trkpt lat="42.44942" lon="1.87932">
        <ele>1387</ele>
        <time>2021-06-19T20:16:08Z</time>
      </trkpt>
      <trkpt lat="42.44943" lon="1.87937">
        <ele>1387</ele>
        <time>2021-06-19T20:16:09Z</time>
      </trkpt>
      <trkpt lat="42.44935" lon="1.87964">
        <ele>1383</ele>
        <time>2021-06-19T20:16:14Z</time>
      </trkpt>
      <trkpt lat="42.44921" lon="1.87992">
        <ele>1378</ele>
        <time>2021-06-19T20:16:20Z</time>
      </trkpt>
      <trkpt lat="42.44883" lon="1.88028">
        <ele>1374</ele>
        <time>2021-06-19T20:16:31Z</time>
      </trkpt>
      <trkpt lat="42.44863" lon="1.88068">
        <ele>1370</ele>
        <time>2021-06-19T20:16:39Z</time>
      </trkpt>
      <trkpt lat="42.44869" lon="1.88072">
        <ele>1370</ele>
        <time>2021-06-19T20:16:41Z</time>
      </trkpt>
      <trkpt lat="42.44874" lon="1.88086">
        <ele>1369</ele>
        <time>2021-06-19T20:16:43Z</time>
      </trkpt>
      <trkpt lat="42.44873" lon="1.88125">
        <ele>1368</ele>
        <time>2021-06-19T20:16:50Z</time>
      </trkpt>
      <trkpt lat="42.44861" lon="1.88184">
        <ele>1366</ele>
        <time>2021-06-19T20:17:01Z</time>
      </trkpt>
      <trkpt lat="42.44827" lon="1.88276">
        <ele>1367</ele>
        <time>2021-06-19T20:17:18Z</time>
      </trkpt>
      <trkpt lat="42.44814" lon="1.88299">
        <ele>1368</ele>
        <time>2021-06-19T20:17:23Z</time>
      </trkpt>
      <trkpt lat="42.44776" lon="1.88182">
        <ele>1357</ele>
        <time>2021-06-19T20:17:45Z</time>
      </trkpt>
      <trkpt lat="42.44771" lon="1.88174">
        <ele>1356</ele>
        <time>2021-06-19T20:17:47Z</time>
      </trkpt>
      <trkpt lat="42.4476" lon="1.88168">
        <ele>1355</ele>
        <time>2021-06-19T20:17:50Z</time>
      </trkpt>
      <trkpt lat="42.44687" lon="1.88182">
        <ele>1349</ele>
        <time>2021-06-19T20:18:07Z</time>
      </trkpt>
      <trkpt lat="42.44671" lon="1.88182">
        <ele>1348</ele>
        <time>2021-06-19T20:18:11Z</time>
      </trkpt>
      <trkpt lat="42.44583" lon="1.88276">
        <ele>1342</ele>
        <time>2021-06-19T20:18:37Z</time>
      </trkpt>
      <trkpt lat="42.44548" lon="1.883">
        <ele>1342</ele>
        <time>2021-06-19T20:18:46Z</time>
      </trkpt>
      <trkpt lat="42.44529" lon="1.88308">
        <ele>1342</ele>
        <time>2021-06-19T20:18:51Z</time>
      </trkpt>
      <trkpt lat="42.44502" lon="1.88312">
        <ele>1341</ele>
        <time>2021-06-19T20:18:57Z</time>
      </trkpt>
      <trkpt lat="42.44486" lon="1.8831">
        <ele>1340</ele>
        <time>2021-06-19T20:19:01Z</time>
      </trkpt>
      <trkpt lat="42.44365" lon="1.88276">
        <ele>1331</ele>
        <time>2021-06-19T20:19:30Z</time>
      </trkpt>
      <trkpt lat="42.44326" lon="1.88269">
        <ele>1329</ele>
        <time>2021-06-19T20:19:39Z</time>
      </trkpt>
      <trkpt lat="42.44314" lon="1.8827">
        <ele>1329</ele>
        <time>2021-06-19T20:19:42Z</time>
      </trkpt>
      <trkpt lat="42.44204" lon="1.88296">
        <ele>1325</ele>
        <time>2021-06-19T20:20:08Z</time>
      </trkpt>
      <trkpt lat="42.44173" lon="1.88296">
        <ele>1324</ele>
        <time>2021-06-19T20:20:15Z</time>
      </trkpt>
      <trkpt lat="42.44118" lon="1.88289">
        <ele>1322</ele>
        <time>2021-06-19T20:20:28Z</time>
      </trkpt>
      <trkpt lat="42.44109" lon="1.8829">
        <ele>1321</ele>
        <time>2021-06-19T20:20:30Z</time>
      </trkpt>
      <trkpt lat="42.44098" lon="1.88298">
        <ele>1320</ele>
        <time>2021-06-19T20:20:33Z</time>
      </trkpt>
      <trkpt lat="42.44091" lon="1.88309">
        <ele>1319</ele>
        <time>2021-06-19T20:20:35Z</time>
      </trkpt>
      <trkpt lat="42.44086" lon="1.88328">
        <ele>1317</ele>
        <time>2021-06-19T20:20:39Z</time>
      </trkpt>
      <trkpt lat="42.44088" lon="1.88344">
        <ele>1316</ele>
        <time>2021-06-19T20:20:42Z</time>
      </trkpt>
      <trkpt lat="42.44093" lon="1.88357">
        <ele>1315</ele>
        <time>2021-06-19T20:20:44Z</time>
      </trkpt>
      <trkpt lat="42.44109" lon="1.88374">
        <ele>1314</ele>
        <time>2021-06-19T20:20:49Z</time>
      </trkpt>
      <trkpt lat="42.44166" lon="1.88411">
        <ele>1313</ele>
        <time>2021-06-19T20:21:04Z</time>
      </trkpt>
      <trkpt lat="42.44191" lon="1.88432">
        <ele>1311</ele>
        <time>2021-06-19T20:21:11Z</time>
      </trkpt>
      <trkpt lat="42.44214" lon="1.88454">
        <ele>1309</ele>
        <time>2021-06-19T20:21:17Z</time>
      </trkpt>
      <trkpt lat="42.44289" lon="1.88542">
        <ele>1300</ele>
        <time>2021-06-19T20:21:40Z</time>
      </trkpt>
      <trkpt lat="42.44474" lon="1.88764">
        <ele>1285</ele>
        <time>2021-06-19T20:22:38Z</time>
      </trkpt>
      <trkpt lat="42.44493" lon="1.8879">
        <ele>1283</ele>
        <time>2021-06-19T20:22:44Z</time>
      </trkpt>
      <trkpt lat="42.44502" lon="1.88807">
        <ele>1282</ele>
        <time>2021-06-19T20:22:48Z</time>
      </trkpt>
      <trkpt lat="42.44513" lon="1.88842">
        <ele>1279</ele>
        <time>2021-06-19T20:22:55Z</time>
      </trkpt>
      <trkpt lat="42.44516" lon="1.8886">
        <ele>1278</ele>
        <time>2021-06-19T20:22:58Z</time>
      </trkpt>
      <trkpt lat="42.44518" lon="1.88886">
        <ele>1277</ele>
        <time>2021-06-19T20:23:02Z</time>
      </trkpt>
      <trkpt lat="42.44516" lon="1.8891">
        <ele>1275</ele>
        <time>2021-06-19T20:23:06Z</time>
      </trkpt>
      <trkpt lat="42.44502" lon="1.88998">
        <ele>1269</ele>
        <time>2021-06-19T20:23:22Z</time>
      </trkpt>
      <trkpt lat="42.44499" lon="1.89037">
        <ele>1269</ele>
        <time>2021-06-19T20:23:29Z</time>
      </trkpt>
      <trkpt lat="42.445" lon="1.89081">
        <ele>1269</ele>
        <time>2021-06-19T20:23:36Z</time>
      </trkpt>
      <trkpt lat="42.44537" lon="1.89537">
        <ele>1255</ele>
        <time>2021-06-19T20:24:55Z</time>
      </trkpt>
      <trkpt lat="42.44538" lon="1.89571">
        <ele>1254</ele>
        <time>2021-06-19T20:25:01Z</time>
      </trkpt>
      <trkpt lat="42.44533" lon="1.89604">
        <ele>1252</ele>
        <time>2021-06-19T20:25:07Z</time>
      </trkpt>
      <trkpt lat="42.44524" lon="1.89637">
        <ele>1250</ele>
        <time>2021-06-19T20:25:13Z</time>
      </trkpt>
      <trkpt lat="42.44488" lon="1.89719">
        <ele>1244</ele>
        <time>2021-06-19T20:25:29Z</time>
      </trkpt>
      <trkpt lat="42.44368" lon="1.90013">
        <ele>1222</ele>
        <time>2021-06-19T20:26:27Z</time>
      </trkpt>
      <trkpt lat="42.44296" lon="1.90183">
        <ele>1208</ele>
        <time>2021-06-19T20:27:01Z</time>
      </trkpt>
      <trkpt lat="42.44289" lon="1.90215">
        <ele>1206</ele>
        <time>2021-06-19T20:27:07Z</time>
      </trkpt>
      <trkpt lat="42.44288" lon="1.90237">
        <ele>1205</ele>
        <time>2021-06-19T20:27:11Z</time>
      </trkpt>
      <trkpt lat="42.44295" lon="1.90274">
        <ele>1204</ele>
        <time>2021-06-19T20:27:17Z</time>
      </trkpt>
      <trkpt lat="42.44332" lon="1.90374">
        <ele>1203</ele>
        <time>2021-06-19T20:27:37Z</time>
      </trkpt>
      <trkpt lat="42.44355" lon="1.90446">
        <ele>1204</ele>
        <time>2021-06-19T20:27:50Z</time>
      </trkpt>
      <trkpt lat="42.4436" lon="1.90469">
        <ele>1203</ele>
        <time>2021-06-19T20:27:54Z</time>
      </trkpt>
      <trkpt lat="42.4436" lon="1.90494">
        <ele>1202</ele>
        <time>2021-06-19T20:27:59Z</time>
      </trkpt>
      <trkpt lat="42.44351" lon="1.90521">
        <ele>1201</ele>
        <time>2021-06-19T20:28:04Z</time>
      </trkpt>
      <trkpt lat="42.44339" lon="1.90539">
        <ele>1200</ele>
        <time>2021-06-19T20:28:08Z</time>
      </trkpt>
      <trkpt lat="42.44322" lon="1.90557">
        <ele>1200</ele>
        <time>2021-06-19T20:28:13Z</time>
      </trkpt>
      <trkpt lat="42.4431" lon="1.90579">
        <ele>1199</ele>
        <time>2021-06-19T20:28:18Z</time>
      </trkpt>
      <trkpt lat="42.44143" lon="1.90921">
        <ele>1187</ele>
        <time>2021-06-19T20:29:28Z</time>
      </trkpt>
      <trkpt lat="42.44121" lon="1.90958">
        <ele>1185</ele>
        <time>2021-06-19T20:29:36Z</time>
      </trkpt>
      <trkpt lat="42.43868" lon="1.91304">
        <ele>1170</ele>
        <time>2021-06-19T20:31:00Z</time>
      </trkpt>
      <trkpt lat="42.43841" lon="1.91333">
        <ele>1169</ele>
        <time>2021-06-19T20:31:08Z</time>
      </trkpt>
      <trkpt lat="42.43753" lon="1.91408">
        <ele>1169</ele>
        <time>2021-06-19T20:31:33Z</time>
      </trkpt>
      <trkpt lat="42.43661" lon="1.91476">
        <ele>1165</ele>
        <time>2021-06-19T20:31:57Z</time>
      </trkpt>
      <trkpt lat="42.43603" lon="1.91513">
        <ele>1162</ele>
        <time>2021-06-19T20:32:12Z</time>
      </trkpt>
      <trkpt lat="42.43509" lon="1.91551">
        <ele>1159</ele>
        <time>2021-06-19T20:32:35Z</time>
      </trkpt>
      <trkpt lat="42.43424" lon="1.91599">
        <ele>1158</ele>
        <time>2021-06-19T20:32:57Z</time>
      </trkpt>
      <trkpt lat="42.43389" lon="1.91662">
        <ele>1153</ele>
        <time>2021-06-19T20:33:10Z</time>
      </trkpt>
      <trkpt lat="42.43345" lon="1.9167">
        <ele>1151</ele>
        <time>2021-06-19T20:33:21Z</time>
      </trkpt>
      <trkpt lat="42.43313" lon="1.9169">
        <ele>1151</ele>
        <time>2021-06-19T20:33:29Z</time>
      </trkpt>
      <trkpt lat="42.4328" lon="1.91706">
        <ele>1151</ele>
        <time>2021-06-19T20:33:37Z</time>
      </trkpt>
      <trkpt lat="42.4326" lon="1.91707">
        <ele>1151</ele>
        <time>2021-06-19T20:33:42Z</time>
      </trkpt>
      <trkpt lat="42.43283" lon="1.91789">
        <ele>1152</ele>
        <time>2021-06-19T20:33:57Z</time>
      </trkpt>
      <trkpt lat="42.43289" lon="1.91838">
        <ele>1154</ele>
        <time>2021-06-19T20:34:05Z</time>
      </trkpt>
      <trkpt lat="42.43287" lon="1.91858">
        <ele>1155</ele>
        <time>2021-06-19T20:34:09Z</time>
      </trkpt>
      <trkpt lat="42.43277" lon="1.9188">
        <ele>1156</ele>
        <time>2021-06-19T20:34:13Z</time>
      </trkpt>
      <trkpt lat="42.4324" lon="1.91923">
        <ele>1156</ele>
        <time>2021-06-19T20:34:25Z</time>
      </trkpt>
      <trkpt lat="42.43237" lon="1.91945">
        <ele>1155</ele>
        <time>2021-06-19T20:34:28Z</time>
      </trkpt>
      <trkpt lat="42.43232" lon="1.9195">
        <ele>1155</ele>
        <time>2021-06-19T20:34:30Z</time>
      </trkpt>
      <trkpt lat="42.43231" lon="1.91958">
        <ele>1155</ele>
        <time>2021-06-19T20:34:31Z</time>
      </trkpt>
      <trkpt lat="42.43236" lon="1.91964">
        <ele>1155</ele>
        <time>2021-06-19T20:34:33Z</time>
      </trkpt>
      <trkpt lat="42.43242" lon="1.91961">
        <ele>1155</ele>
        <time>2021-06-19T20:34:34Z</time>
      </trkpt>
      <trkpt lat="42.43248" lon="1.91971">
        <ele>1155</ele>
        <time>2021-06-19T20:34:37Z</time>
      </trkpt>
      <trkpt lat="42.43252" lon="1.91986">
        <ele>1155</ele>
        <time>2021-06-19T20:34:39Z</time>
      </trkpt>
      <trkpt lat="42.43263" lon="1.9204">
        <ele>1154</ele>
        <time>2021-06-19T20:34:49Z</time>
      </trkpt>
      <trkpt lat="42.43275" lon="1.92117">
        <ele>1154</ele>
        <time>2021-06-19T20:35:03Z</time>
      </trkpt>
      <trkpt lat="42.43277" lon="1.92146">
        <ele>1154</ele>
        <time>2021-06-19T20:35:08Z</time>
      </trkpt>
      <trkpt lat="42.43017" lon="1.92396">
        <ele>1152</ele>
        <time>2021-06-19T20:36:22Z</time>
      </trkpt>
      <trkpt lat="42.4297" lon="1.92464">
        <ele>1153</ele>
        <time>2021-06-19T20:36:38Z</time>
      </trkpt>
      <trkpt lat="42.42954" lon="1.92496">
        <ele>1153</ele>
        <time>2021-06-19T20:36:45Z</time>
      </trkpt>
      <trkpt lat="42.42953" lon="1.92506">
        <ele>1153</ele>
        <time>2021-06-19T20:36:46Z</time>
      </trkpt>
      <trkpt lat="42.42978" lon="1.92542">
        <ele>1156</ele>
        <time>2021-06-19T20:36:55Z</time>
      </trkpt>
      <trkpt lat="42.42944" lon="1.92588">
        <ele>1156</ele>
        <time>2021-06-19T20:37:06Z</time>
      </trkpt>
      <trkpt lat="42.42963" lon="1.92617">
        <ele>1160</ele>
        <time>2021-06-19T20:37:13Z</time>
      </trkpt>
      <trkpt lat="42.42892" lon="1.92703">
        <ele>1156</ele>
        <time>2021-06-19T20:37:35Z</time>
      </trkpt>
      <trkpt lat="42.42901" lon="1.9272">
        <ele>1158</ele>
        <time>2021-06-19T20:37:39Z</time>
      </trkpt>
      <trkpt lat="42.42905" lon="1.92739">
        <ele>1159</ele>
        <time>2021-06-19T20:37:42Z</time>
      </trkpt>
      <trkpt lat="42.42905" lon="1.92759">
        <ele>1160</ele>
        <time>2021-06-19T20:37:46Z</time>
      </trkpt>
      <trkpt lat="42.42894" lon="1.92801">
        <ele>1163</ele>
        <time>2021-06-19T20:37:53Z</time>
      </trkpt>
      <trkpt lat="42.42891" lon="1.92826">
        <ele>1164</ele>
        <time>2021-06-19T20:37:58Z</time>
      </trkpt>
      <trkpt lat="42.42898" lon="1.92857">
        <ele>1166</ele>
        <time>2021-06-19T20:38:03Z</time>
      </trkpt>
      <trkpt lat="42.42949" lon="1.92936">
        <ele>1168</ele>
        <time>2021-06-19T20:38:21Z</time>
      </trkpt>
      <trkpt lat="42.42973" lon="1.92953">
        <ele>1169</ele>
        <time>2021-06-19T20:38:28Z</time>
      </trkpt>
      <trkpt lat="42.42982" lon="1.92968">
        <ele>1169</ele>
        <time>2021-06-19T20:38:31Z</time>
      </trkpt>
      <trkpt lat="42.42987" lon="1.92988">
        <ele>1168</ele>
        <time>2021-06-19T20:38:35Z</time>
      </trkpt>
      <trkpt lat="42.42998" lon="1.93012">
        <ele>1167</ele>
        <time>2021-06-19T20:38:40Z</time>
      </trkpt>
      <trkpt lat="42.43018" lon="1.93041">
        <ele>1168</ele>
        <time>2021-06-19T20:38:46Z</time>
      </trkpt>
      <trkpt lat="42.43181" lon="1.93209">
        <ele>1161</ele>
        <time>2021-06-19T20:39:34Z</time>
      </trkpt>
      <trkpt lat="42.43197" lon="1.93239">
        <ele>1159</ele>
        <time>2021-06-19T20:39:41Z</time>
      </trkpt>
      <trkpt lat="42.43225" lon="1.93306">
        <ele>1157</ele>
        <time>2021-06-19T20:39:54Z</time>
      </trkpt>
      <trkpt lat="42.43232" lon="1.93327">
        <ele>1156</ele>
        <time>2021-06-19T20:39:58Z</time>
      </trkpt>
      <trkpt lat="42.43273" lon="1.93515">
        <ele>1152</ele>
        <time>2021-06-19T20:40:32Z</time>
      </trkpt>
      <trkpt lat="42.43275" lon="1.93541">
        <ele>1151</ele>
        <time>2021-06-19T20:40:36Z</time>
      </trkpt>
      <trkpt lat="42.43271" lon="1.93562">
        <ele>1150</ele>
        <time>2021-06-19T20:40:40Z</time>
      </trkpt>
      <trkpt lat="42.43264" lon="1.93573">
        <ele>1148</ele>
        <time>2021-06-19T20:40:42Z</time>
      </trkpt>
      <trkpt lat="42.43262" lon="1.93592">
        <ele>1147</ele>
        <time>2021-06-19T20:40:46Z</time>
      </trkpt>
      <trkpt lat="42.43265" lon="1.93601">
        <ele>1147</ele>
        <time>2021-06-19T20:40:47Z</time>
      </trkpt>
      <trkpt lat="42.4329" lon="1.93636">
        <ele>1147</ele>
        <time>2021-06-19T20:40:56Z</time>
      </trkpt>
      <trkpt lat="42.43304" lon="1.93665">
        <ele>1146</ele>
        <time>2021-06-19T20:41:02Z</time>
      </trkpt>
      <trkpt lat="42.43305" lon="1.93699">
        <ele>1144</ele>
        <time>2021-06-19T20:41:08Z</time>
      </trkpt>
      <trkpt lat="42.43315" lon="1.93753">
        <ele>1143</ele>
        <time>2021-06-19T20:41:17Z</time>
      </trkpt>
      <trkpt lat="42.43319" lon="1.93761">
        <ele>1143</ele>
        <time>2021-06-19T20:41:19Z</time>
      </trkpt>
      <trkpt lat="42.43351" lon="1.9394">
        <ele>1145</ele>
        <time>2021-06-19T20:41:51Z</time>
      </trkpt>
      <trkpt lat="42.43373" lon="1.94093">
        <ele>1145</ele>
        <time>2021-06-19T20:42:17Z</time>
      </trkpt>
      <trkpt lat="42.4333" lon="1.94084">
        <ele>1145</ele>
        <time>2021-06-19T20:42:28Z</time>
      </trkpt>
      <trkpt lat="42.43213" lon="1.94093">
        <ele>1141</ele>
        <time>2021-06-19T20:42:55Z</time>
      </trkpt>
      <trkpt lat="42.43214" lon="1.94155">
        <ele>1140</ele>
        <time>2021-06-19T20:43:06Z</time>
      </trkpt>
      <trkpt lat="42.43246" lon="1.94296">
        <ele>1139</ele>
        <time>2021-06-19T20:43:31Z</time>
      </trkpt>
      <trkpt lat="42.43246" lon="1.94303">
        <ele>1139</ele>
        <time>2021-06-19T20:43:32Z</time>
      </trkpt>
      <trkpt lat="42.43241" lon="1.94309">
        <ele>1139</ele>
        <time>2021-06-19T20:43:34Z</time>
      </trkpt>
      <trkpt lat="42.43214" lon="1.94319">
        <ele>1139</ele>
        <time>2021-06-19T20:43:40Z</time>
      </trkpt>
      <trkpt lat="42.43283" lon="1.9438">
        <ele>1140</ele>
        <time>2021-06-19T20:44:00Z</time>
      </trkpt>
      <trkpt lat="42.43358" lon="1.94431">
        <ele>1142</ele>
        <time>2021-06-19T20:44:19Z</time>
      </trkpt>
      <trkpt lat="42.43367" lon="1.9441">
        <ele>1142</ele>
        <time>2021-06-19T20:44:23Z</time>
      </trkpt>
      <trkpt lat="42.43373" lon="1.94402">
        <ele>1142</ele>
        <time>2021-06-19T20:44:25Z</time>
      </trkpt>
      <trkpt lat="42.43376" lon="1.94407">
        <ele>1143</ele>
        <time>2021-06-19T20:44:27Z</time>
      </trkpt>
      <trkpt lat="42.43368" lon="1.94434">
        <ele>1143</ele>
        <time>2021-06-19T20:44:32Z</time>
      </trkpt>
      <trkpt lat="42.43333" lon="1.94527">
        <ele>1143</ele>
        <time>2021-06-19T20:44:50Z</time>
      </trkpt>
      <trkpt lat="42.43329" lon="1.94551">
        <ele>1144</ele>
        <time>2021-06-19T20:44:54Z</time>
      </trkpt>
      <trkpt lat="42.4333" lon="1.94597">
        <ele>1144</ele>
        <time>2021-06-19T20:45:02Z</time>
      </trkpt>
      <trkpt lat="42.43371" lon="1.95136">
        <ele>1150</ele>
        <time>2021-06-19T20:46:35Z</time>
      </trkpt>
      <trkpt lat="42.43371" lon="1.95171">
        <ele>1151</ele>
        <time>2021-06-19T20:46:41Z</time>
      </trkpt>
      <trkpt lat="42.43366" lon="1.9523">
        <ele>1152</ele>
        <time>2021-06-19T20:46:51Z</time>
      </trkpt>
      <trkpt lat="42.43344" lon="1.95411">
        <ele>1159</ele>
        <time>2021-06-19T20:47:23Z</time>
      </trkpt>
      <trkpt lat="42.43333" lon="1.95743">
        <ele>1170</ele>
        <time>2021-06-19T20:48:20Z</time>
      </trkpt>
      <trkpt lat="42.43332" lon="1.95851">
        <ele>1174</ele>
        <time>2021-06-19T20:48:39Z</time>
      </trkpt>
      <trkpt lat="42.43336" lon="1.95882">
        <ele>1176</ele>
        <time>2021-06-19T20:48:44Z</time>
      </trkpt>
      <trkpt lat="42.43349" lon="1.95944">
        <ele>1180</ele>
        <time>2021-06-19T20:48:55Z</time>
      </trkpt>
      <trkpt lat="42.43569" lon="1.96847">
        <ele>1214</ele>
        <time>2021-06-19T20:51:39Z</time>
      </trkpt>
      <trkpt lat="42.43579" lon="1.96909">
        <ele>1216</ele>
        <time>2021-06-19T20:51:50Z</time>
      </trkpt>
      <trkpt lat="42.4361" lon="1.97327">
        <ele>1227</ele>
        <time>2021-06-19T20:53:03Z</time>
      </trkpt>
      <trkpt lat="42.43732" lon="1.98607">
        <ele>1237</ele>
        <time>2021-06-19T20:56:45Z</time>
      </trkpt>
      <trkpt lat="42.43738" lon="1.98633">
        <ele>1235</ele>
        <time>2021-06-19T20:56:50Z</time>
      </trkpt>
      <trkpt lat="42.43757" lon="1.9868">
        <ele>1231</ele>
        <time>2021-06-19T20:56:59Z</time>
      </trkpt>
      <trkpt lat="42.43773" lon="1.98703">
        <ele>1231</ele>
        <time>2021-06-19T20:57:04Z</time>
      </trkpt>
      <trkpt lat="42.43822" lon="1.9875">
        <ele>1233</ele>
        <time>2021-06-19T20:57:18Z</time>
      </trkpt>
      <trkpt lat="42.4384" lon="1.98772">
        <ele>1235</ele>
        <time>2021-06-19T20:57:24Z</time>
      </trkpt>
      <trkpt lat="42.43852" lon="1.98801">
        <ele>1237</ele>
        <time>2021-06-19T20:57:30Z</time>
      </trkpt>
      <trkpt lat="42.43858" lon="1.98826">
        <ele>1239</ele>
        <time>2021-06-19T20:57:34Z</time>
      </trkpt>
      <trkpt lat="42.43859" lon="1.98856">
        <ele>1240</ele>
        <time>2021-06-19T20:57:40Z</time>
      </trkpt>
      <trkpt lat="42.43846" lon="1.98936">
        <ele>1243</ele>
        <time>2021-06-19T20:57:54Z</time>
      </trkpt>
      <trkpt lat="42.43844" lon="1.98981">
        <ele>1245</ele>
        <time>2021-06-19T20:58:01Z</time>
      </trkpt>
      <trkpt lat="42.4386" lon="1.991">
        <ele>1252</ele>
        <time>2021-06-19T20:58:22Z</time>
      </trkpt>
      <trkpt lat="42.43866" lon="1.99103">
        <ele>1252</ele>
        <time>2021-06-19T20:58:24Z</time>
      </trkpt>
      <trkpt lat="42.43875" lon="1.99123">
        <ele>1254</ele>
        <time>2021-06-19T20:58:28Z</time>
      </trkpt>
      <trkpt lat="42.4394" lon="1.99323">
        <ele>1266</ele>
        <time>2021-06-19T20:59:06Z</time>
      </trkpt>
      <trkpt lat="42.43959" lon="1.99402">
        <ele>1269</ele>
        <time>2021-06-19T20:59:20Z</time>
      </trkpt>
      <trkpt lat="42.43965" lon="1.99465">
        <ele>1271</ele>
        <time>2021-06-19T20:59:31Z</time>
      </trkpt>
      <trkpt lat="42.43971" lon="1.99725">
        <ele>1278</ele>
        <time>2021-06-19T21:00:16Z</time>
      </trkpt>
      <trkpt lat="42.43976" lon="1.99838">
        <ele>1280</ele>
        <time>2021-06-19T21:00:35Z</time>
      </trkpt>
      <trkpt lat="42.43935" lon="1.99936">
        <ele>1285</ele>
        <time>2021-06-19T21:00:55Z</time>
      </trkpt>
      <trkpt lat="42.43922" lon="2.0011">
        <ele>1290</ele>
        <time>2021-06-19T21:01:25Z</time>
      </trkpt>
      <trkpt lat="42.43918" lon="2.00123">
        <ele>1291</ele>
        <time>2021-06-19T21:01:27Z</time>
      </trkpt>
      <trkpt lat="42.44542" lon="2.01468">
        <ele>1334</ele>
        <time>2021-06-19T21:06:01Z</time>
      </trkpt>
      <trkpt lat="42.44568" lon="2.01535">
        <ele>1333</ele>
        <time>2021-06-19T21:06:14Z</time>
      </trkpt>
      <trkpt lat="42.44573" lon="2.01557">
        <ele>1333</ele>
        <time>2021-06-19T21:06:18Z</time>
      </trkpt>
      <trkpt lat="42.44576" lon="2.01591">
        <ele>1331</ele>
        <time>2021-06-19T21:06:24Z</time>
      </trkpt>
      <trkpt lat="42.44571" lon="2.01632">
        <ele>1328</ele>
        <time>2021-06-19T21:06:31Z</time>
      </trkpt>
      <trkpt lat="42.44541" lon="2.01724">
        <ele>1327</ele>
        <time>2021-06-19T21:06:48Z</time>
      </trkpt>
      <trkpt lat="42.44516" lon="2.01777">
        <ele>1328</ele>
        <time>2021-06-19T21:06:59Z</time>
      </trkpt>
      <trkpt lat="42.44413" lon="2.01935">
        <ele>1324</ele>
        <time>2021-06-19T21:07:35Z</time>
      </trkpt>
      <trkpt lat="42.44397" lon="2.01969">
        <ele>1323</ele>
        <time>2021-06-19T21:07:42Z</time>
      </trkpt>
      <trkpt lat="42.44389" lon="2.02008">
        <ele>1320</ele>
        <time>2021-06-19T21:07:49Z</time>
      </trkpt>
      <trkpt lat="42.44392" lon="2.02048">
        <ele>1319</ele>
        <time>2021-06-19T21:07:56Z</time>
      </trkpt>
      <trkpt lat="42.44396" lon="2.02068">
        <ele>1318</ele>
        <time>2021-06-19T21:08:00Z</time>
      </trkpt>
      <trkpt lat="42.44404" lon="2.02087">
        <ele>1317</ele>
        <time>2021-06-19T21:08:04Z</time>
      </trkpt>
      <trkpt lat="42.44455" lon="2.02173">
        <ele>1315</ele>
        <time>2021-06-19T21:08:23Z</time>
      </trkpt>
      <trkpt lat="42.44527" lon="2.02308">
        <ele>1313</ele>
        <time>2021-06-19T21:08:51Z</time>
      </trkpt>
      <trkpt lat="42.44502" lon="2.02349">
        <ele>1314</ele>
        <time>2021-06-19T21:09:01Z</time>
      </trkpt>
      <trkpt lat="42.44454" lon="2.02416">
        <ele>1316</ele>
        <time>2021-06-19T21:09:17Z</time>
      </trkpt>
      <trkpt lat="42.444" lon="2.0252">
        <ele>1319</ele>
        <time>2021-06-19T21:09:39Z</time>
      </trkpt>
      <trkpt lat="42.44359" lon="2.02566">
        <ele>1321</ele>
        <time>2021-06-19T21:09:51Z</time>
      </trkpt>
      <trkpt lat="42.44286" lon="2.02611">
        <ele>1324</ele>
        <time>2021-06-19T21:10:10Z</time>
      </trkpt>
      <trkpt lat="42.44254" lon="2.02635">
        <ele>1326</ele>
        <time>2021-06-19T21:10:18Z</time>
      </trkpt>
      <trkpt lat="42.44141" lon="2.02733">
        <ele>1331</ele>
        <time>2021-06-19T21:10:50Z</time>
      </trkpt>
      <trkpt lat="42.4412" lon="2.02775">
        <ele>1333</ele>
        <time>2021-06-19T21:10:58Z</time>
      </trkpt>
      <trkpt lat="42.44106" lon="2.02812">
        <ele>1334</ele>
        <time>2021-06-19T21:11:05Z</time>
      </trkpt>
      <trkpt lat="42.4409" lon="2.02866">
        <ele>1336</ele>
        <time>2021-06-19T21:11:16Z</time>
      </trkpt>
      <trkpt lat="42.4407" lon="2.02893">
        <ele>1339</ele>
        <time>2021-06-19T21:11:22Z</time>
      </trkpt>
      <trkpt lat="42.44037" lon="2.02955">
        <ele>1341</ele>
        <time>2021-06-19T21:11:35Z</time>
      </trkpt>
      <trkpt lat="42.44015" lon="2.02985">
        <ele>1342</ele>
        <time>2021-06-19T21:11:43Z</time>
      </trkpt>
      <trkpt lat="42.43961" lon="2.03132">
        <ele>1347</ele>
        <time>2021-06-19T21:12:11Z</time>
      </trkpt>
      <trkpt lat="42.43947" lon="2.03196">
        <ele>1350</ele>
        <time>2021-06-19T21:12:22Z</time>
      </trkpt>
      <trkpt lat="42.43948" lon="2.03205">
        <ele>1350</ele>
        <time>2021-06-19T21:12:24Z</time>
      </trkpt>
      <trkpt lat="42.43953" lon="2.03212">
        <ele>1351</ele>
        <time>2021-06-19T21:12:26Z</time>
      </trkpt>
      <trkpt lat="42.43941" lon="2.03244">
        <ele>1352</ele>
        <time>2021-06-19T21:12:32Z</time>
      </trkpt>
      <trkpt lat="42.43901" lon="2.03315">
        <ele>1354</ele>
        <time>2021-06-19T21:12:47Z</time>
      </trkpt>
      <trkpt lat="42.43848" lon="2.03385">
        <ele>1358</ele>
        <time>2021-06-19T21:13:04Z</time>
      </trkpt>
      <trkpt lat="42.4382" lon="2.03415">
        <ele>1359</ele>
        <time>2021-06-19T21:13:13Z</time>
      </trkpt>
      <trkpt lat="42.43803" lon="2.0344">
        <ele>1360</ele>
        <time>2021-06-19T21:13:19Z</time>
      </trkpt>
      <trkpt lat="42.43789" lon="2.03476">
        <ele>1362</ele>
        <time>2021-06-19T21:13:26Z</time>
      </trkpt>
      <trkpt lat="42.43713" lon="2.03626">
        <ele>1369</ele>
        <time>2021-06-19T21:13:57Z</time>
      </trkpt>
      <trkpt lat="42.43701" lon="2.03656">
        <ele>1370</ele>
        <time>2021-06-19T21:14:03Z</time>
      </trkpt>
      <trkpt lat="42.43675" lon="2.03701">
        <ele>1372</ele>
        <time>2021-06-19T21:14:13Z</time>
      </trkpt>
      <trkpt lat="42.43663" lon="2.0373">
        <ele>1373</ele>
        <time>2021-06-19T21:14:19Z</time>
      </trkpt>
      <trkpt lat="42.43619" lon="2.03796">
        <ele>1377</ele>
        <time>2021-06-19T21:14:34Z</time>
      </trkpt>
      <trkpt lat="42.43592" lon="2.03856">
        <ele>1379</ele>
        <time>2021-06-19T21:14:46Z</time>
      </trkpt>
      <trkpt lat="42.43569" lon="2.03897">
        <ele>1383</ele>
        <time>2021-06-19T21:14:55Z</time>
      </trkpt>
      <trkpt lat="42.43558" lon="2.03923">
        <ele>1385</ele>
        <time>2021-06-19T21:15:00Z</time>
      </trkpt>
      <trkpt lat="42.43556" lon="2.03935">
        <ele>1386</ele>
        <time>2021-06-19T21:15:02Z</time>
      </trkpt>
      <trkpt lat="42.43484" lon="2.04004">
        <ele>1389</ele>
        <time>2021-06-19T21:15:23Z</time>
      </trkpt>
      <trkpt lat="42.43408" lon="2.04072">
        <ele>1392</ele>
        <time>2021-06-19T21:15:44Z</time>
      </trkpt>
      <trkpt lat="42.43373" lon="2.04114">
        <ele>1397</ele>
        <time>2021-06-19T21:15:55Z</time>
      </trkpt>
      <trkpt lat="42.43311" lon="2.04166">
        <ele>1401</ele>
        <time>2021-06-19T21:16:12Z</time>
      </trkpt>
      <trkpt lat="42.43298" lon="2.04166">
        <ele>1402</ele>
        <time>2021-06-19T21:16:15Z</time>
      </trkpt>
      <trkpt lat="42.43289" lon="2.04169">
        <ele>1403</ele>
        <time>2021-06-19T21:16:17Z</time>
      </trkpt>
      <trkpt lat="42.43253" lon="2.04216">
        <ele>1404</ele>
        <time>2021-06-19T21:16:29Z</time>
      </trkpt>
      <trkpt lat="42.43227" lon="2.04231">
        <ele>1412</ele>
        <time>2021-06-19T21:16:35Z</time>
      </trkpt>
      <trkpt lat="42.43214" lon="2.04247">
        <ele>1414</ele>
        <time>2021-06-19T21:16:40Z</time>
      </trkpt>
      <trkpt lat="42.43194" lon="2.04289">
        <ele>1417</ele>
        <time>2021-06-19T21:16:48Z</time>
      </trkpt>
      <trkpt lat="42.43178" lon="2.04313">
        <ele>1415</ele>
        <time>2021-06-19T21:16:54Z</time>
      </trkpt>
      <trkpt lat="42.43155" lon="2.0433">
        <ele>1417</ele>
        <time>2021-06-19T21:17:00Z</time>
      </trkpt>
      <trkpt lat="42.43135" lon="2.04357">
        <ele>1424</ele>
        <time>2021-06-19T21:17:06Z</time>
      </trkpt>
      <trkpt lat="42.43079" lon="2.04454">
        <ele>1429</ele>
        <time>2021-06-19T21:17:28Z</time>
      </trkpt>
      <trkpt lat="42.43063" lon="2.04467">
        <ele>1434</ele>
        <time>2021-06-19T21:17:32Z</time>
      </trkpt>
      <trkpt lat="42.43049" lon="2.04485">
        <ele>1437</ele>
        <time>2021-06-19T21:17:37Z</time>
      </trkpt>
      <trkpt lat="42.43041" lon="2.04506">
        <ele>1437</ele>
        <time>2021-06-19T21:17:41Z</time>
      </trkpt>
      <trkpt lat="42.43022" lon="2.04581">
        <ele>1437</ele>
        <time>2021-06-19T21:17:54Z</time>
      </trkpt>
      <trkpt lat="42.43015" lon="2.04595">
        <ele>1437</ele>
        <time>2021-06-19T21:17:57Z</time>
      </trkpt>
      <trkpt lat="42.42996" lon="2.04612">
        <ele>1439</ele>
        <time>2021-06-19T21:18:02Z</time>
      </trkpt>
      <trkpt lat="42.42984" lon="2.04633">
        <ele>1441</ele>
        <time>2021-06-19T21:18:07Z</time>
      </trkpt>
      <trkpt lat="42.4298" lon="2.04662">
        <ele>1439</ele>
        <time>2021-06-19T21:18:12Z</time>
      </trkpt>
      <trkpt lat="42.42967" lon="2.04701">
        <ele>1442</ele>
        <time>2021-06-19T21:18:20Z</time>
      </trkpt>
      <trkpt lat="42.42953" lon="2.04723">
        <ele>1443</ele>
        <time>2021-06-19T21:18:25Z</time>
      </trkpt>
      <trkpt lat="42.4294" lon="2.04734">
        <ele>1445</ele>
        <time>2021-06-19T21:18:28Z</time>
      </trkpt>
      <trkpt lat="42.42901" lon="2.04756">
        <ele>1454</ele>
        <time>2021-06-19T21:18:38Z</time>
      </trkpt>
      <trkpt lat="42.42883" lon="2.04774">
        <ele>1461</ele>
        <time>2021-06-19T21:18:43Z</time>
      </trkpt>
      <trkpt lat="42.42868" lon="2.048">
        <ele>1464</ele>
        <time>2021-06-19T21:18:49Z</time>
      </trkpt>
      <trkpt lat="42.42828" lon="2.04856">
        <ele>1469</ele>
        <time>2021-06-19T21:19:02Z</time>
      </trkpt>
      <trkpt lat="42.42808" lon="2.0487">
        <ele>1477</ele>
        <time>2021-06-19T21:19:08Z</time>
      </trkpt>
      <trkpt lat="42.42789" lon="2.04892">
        <ele>1481</ele>
        <time>2021-06-19T21:19:13Z</time>
      </trkpt>
      <trkpt lat="42.42772" lon="2.0492">
        <ele>1482</ele>
        <time>2021-06-19T21:19:20Z</time>
      </trkpt>
      <trkpt lat="42.42766" lon="2.0494">
        <ele>1482</ele>
        <time>2021-06-19T21:19:23Z</time>
      </trkpt>
      <trkpt lat="42.4276" lon="2.0498">
        <ele>1479</ele>
        <time>2021-06-19T21:19:30Z</time>
      </trkpt>
      <trkpt lat="42.42741" lon="2.05049">
        <ele>1477</ele>
        <time>2021-06-19T21:19:43Z</time>
      </trkpt>
      <trkpt lat="42.42728" lon="2.05078">
        <ele>1480</ele>
        <time>2021-06-19T21:19:49Z</time>
      </trkpt>
      <trkpt lat="42.42718" lon="2.05096">
        <ele>1484</ele>
        <time>2021-06-19T21:19:53Z</time>
      </trkpt>
      <trkpt lat="42.427" lon="2.05115">
        <ele>1491</ele>
        <time>2021-06-19T21:19:58Z</time>
      </trkpt>
      <trkpt lat="42.42666" lon="2.05165">
        <ele>1494</ele>
        <time>2021-06-19T21:20:10Z</time>
      </trkpt>
      <trkpt lat="42.42621" lon="2.05224">
        <ele>1503</ele>
        <time>2021-06-19T21:20:25Z</time>
      </trkpt>
      <trkpt lat="42.42595" lon="2.05267">
        <ele>1505</ele>
        <time>2021-06-19T21:20:34Z</time>
      </trkpt>
      <trkpt lat="42.42576" lon="2.05289">
        <ele>1506</ele>
        <time>2021-06-19T21:20:40Z</time>
      </trkpt>
      <trkpt lat="42.42559" lon="2.05305">
        <ele>1508</ele>
        <time>2021-06-19T21:20:45Z</time>
      </trkpt>
      <trkpt lat="42.42506" lon="2.05337">
        <ele>1515</ele>
        <time>2021-06-19T21:20:58Z</time>
      </trkpt>
      <trkpt lat="42.42481" lon="2.05348">
        <ele>1522</ele>
        <time>2021-06-19T21:21:04Z</time>
      </trkpt>
      <trkpt lat="42.42425" lon="2.05396">
        <ele>1525</ele>
        <time>2021-06-19T21:21:20Z</time>
      </trkpt>
      <trkpt lat="42.42351" lon="2.0545">
        <ele>1532</ele>
        <time>2021-06-19T21:21:40Z</time>
      </trkpt>
      <trkpt lat="42.42338" lon="2.05457">
        <ele>1532</ele>
        <time>2021-06-19T21:21:43Z</time>
      </trkpt>
      <trkpt lat="42.4233" lon="2.05459">
        <ele>1533</ele>
        <time>2021-06-19T21:21:45Z</time>
      </trkpt>
      <trkpt lat="42.42311" lon="2.05457">
        <ele>1535</ele>
        <time>2021-06-19T21:21:49Z</time>
      </trkpt>
      <trkpt lat="42.42299" lon="2.05462">
        <ele>1535</ele>
        <time>2021-06-19T21:21:52Z</time>
      </trkpt>
      <trkpt lat="42.42288" lon="2.05463">
        <ele>1535</ele>
        <time>2021-06-19T21:21:55Z</time>
      </trkpt>
      <trkpt lat="42.42277" lon="2.05459">
        <ele>1538</ele>
        <time>2021-06-19T21:21:57Z</time>
      </trkpt>
      <trkpt lat="42.4225" lon="2.05442">
        <ele>1546</ele>
        <time>2021-06-19T21:22:04Z</time>
      </trkpt>
      <trkpt lat="42.42238" lon="2.05429">
        <ele>1551</ele>
        <time>2021-06-19T21:22:08Z</time>
      </trkpt>
      <trkpt lat="42.4219" lon="2.05403">
        <ele>1562</ele>
        <time>2021-06-19T21:22:20Z</time>
      </trkpt>
      <trkpt lat="42.42183" lon="2.05401">
        <ele>1563</ele>
        <time>2021-06-19T21:22:22Z</time>
      </trkpt>
      <trkpt lat="42.42177" lon="2.05404">
        <ele>1562</ele>
        <time>2021-06-19T21:22:23Z</time>
      </trkpt>
      <trkpt lat="42.4215" lon="2.05431">
        <ele>1558</ele>
        <time>2021-06-19T21:22:31Z</time>
      </trkpt>
      <trkpt lat="42.42075" lon="2.05489">
        <ele>1566</ele>
        <time>2021-06-19T21:22:51Z</time>
      </trkpt>
      <trkpt lat="42.42052" lon="2.055">
        <ele>1574</ele>
        <time>2021-06-19T21:22:57Z</time>
      </trkpt>
      <trkpt lat="42.42021" lon="2.05548">
        <ele>1571</ele>
        <time>2021-06-19T21:23:08Z</time>
      </trkpt>
      <trkpt lat="42.41976" lon="2.05591">
        <ele>1573</ele>
        <time>2021-06-19T21:23:21Z</time>
      </trkpt>
      <trkpt lat="42.4196" lon="2.05602">
        <ele>1575</ele>
        <time>2021-06-19T21:23:25Z</time>
      </trkpt>
      <trkpt lat="42.41948" lon="2.05607">
        <ele>1577</ele>
        <time>2021-06-19T21:23:28Z</time>
      </trkpt>
      <trkpt lat="42.41915" lon="2.05609">
        <ele>1587</ele>
        <time>2021-06-19T21:23:36Z</time>
      </trkpt>
      <trkpt lat="42.41906" lon="2.05612">
        <ele>1590</ele>
        <time>2021-06-19T21:23:38Z</time>
      </trkpt>
      <trkpt lat="42.419" lon="2.05617">
        <ele>1590</ele>
        <time>2021-06-19T21:23:39Z</time>
      </trkpt>
      <trkpt lat="42.41875" lon="2.05657">
        <ele>1581</ele>
        <time>2021-06-19T21:23:48Z</time>
      </trkpt>
      <trkpt lat="42.41856" lon="2.05671">
        <ele>1584</ele>
        <time>2021-06-19T21:23:53Z</time>
      </trkpt>
      <trkpt lat="42.41836" lon="2.05681">
        <ele>1589</ele>
        <time>2021-06-19T21:23:58Z</time>
      </trkpt>
      <trkpt lat="42.41812" lon="2.05685">
        <ele>1598</ele>
        <time>2021-06-19T21:24:04Z</time>
      </trkpt>
      <trkpt lat="42.41803" lon="2.05693">
        <ele>1599</ele>
        <time>2021-06-19T21:24:07Z</time>
      </trkpt>
      <trkpt lat="42.41744" lon="2.05789">
        <ele>1592</ele>
        <time>2021-06-19T21:24:28Z</time>
      </trkpt>
      <trkpt lat="42.41717" lon="2.05817">
        <ele>1593</ele>
        <time>2021-06-19T21:24:36Z</time>
      </trkpt>
      <trkpt lat="42.41705" lon="2.05825">
        <ele>1596</ele>
        <time>2021-06-19T21:24:39Z</time>
      </trkpt>
      <trkpt lat="42.41688" lon="2.05831">
        <ele>1600</ele>
        <time>2021-06-19T21:24:43Z</time>
      </trkpt>
      <trkpt lat="42.41677" lon="2.05839">
        <ele>1603</ele>
        <time>2021-06-19T21:24:46Z</time>
      </trkpt>
      <trkpt lat="42.41667" lon="2.05855">
        <ele>1603</ele>
        <time>2021-06-19T21:24:50Z</time>
      </trkpt>
      <trkpt lat="42.41661" lon="2.05877">
        <ele>1600</ele>
        <time>2021-06-19T21:24:54Z</time>
      </trkpt>
      <trkpt lat="42.41656" lon="2.05886">
        <ele>1601</ele>
        <time>2021-06-19T21:24:56Z</time>
      </trkpt>
      <trkpt lat="42.41649" lon="2.0589">
        <ele>1603</ele>
        <time>2021-06-19T21:24:58Z</time>
      </trkpt>
      <trkpt lat="42.41642" lon="2.05886">
        <ele>1607</ele>
        <time>2021-06-19T21:24:59Z</time>
      </trkpt>
      <trkpt lat="42.41638" lon="2.05876">
        <ele>1612</ele>
        <time>2021-06-19T21:25:01Z</time>
      </trkpt>
      <trkpt lat="42.41639" lon="2.05866">
        <ele>1614</ele>
        <time>2021-06-19T21:25:03Z</time>
      </trkpt>
      <trkpt lat="42.41645" lon="2.05852">
        <ele>1614</ele>
        <time>2021-06-19T21:25:06Z</time>
      </trkpt>
      <trkpt lat="42.41657" lon="2.05833">
        <ele>1613</ele>
        <time>2021-06-19T21:25:10Z</time>
      </trkpt>
      <trkpt lat="42.4167" lon="2.0582">
        <ele>1611</ele>
        <time>2021-06-19T21:25:14Z</time>
      </trkpt>
      <trkpt lat="42.41691" lon="2.05808">
        <ele>1606</ele>
        <time>2021-06-19T21:25:19Z</time>
      </trkpt>
      <trkpt lat="42.41718" lon="2.05773">
        <ele>1607</ele>
        <time>2021-06-19T21:25:28Z</time>
      </trkpt>
      <trkpt lat="42.41745" lon="2.05732">
        <ele>1612</ele>
        <time>2021-06-19T21:25:37Z</time>
      </trkpt>
      <trkpt lat="42.41778" lon="2.05651">
        <ele>1628</ele>
        <time>2021-06-19T21:25:53Z</time>
      </trkpt>
      <trkpt lat="42.41784" lon="2.05643">
        <ele>1628</ele>
        <time>2021-06-19T21:25:55Z</time>
      </trkpt>
      <trkpt lat="42.41802" lon="2.05631">
        <ele>1626</ele>
        <time>2021-06-19T21:26:00Z</time>
      </trkpt>
      <trkpt lat="42.41833" lon="2.0562">
        <ele>1617</ele>
        <time>2021-06-19T21:26:08Z</time>
      </trkpt>
      <trkpt lat="42.41845" lon="2.05606">
        <ele>1619</ele>
        <time>2021-06-19T21:26:11Z</time>
      </trkpt>
      <trkpt lat="42.41867" lon="2.05555">
        <ele>1630</ele>
        <time>2021-06-19T21:26:21Z</time>
      </trkpt>
      <trkpt lat="42.4188" lon="2.05534">
        <ele>1632</ele>
        <time>2021-06-19T21:26:26Z</time>
      </trkpt>
      <trkpt lat="42.41945" lon="2.05467">
        <ele>1629</ele>
        <time>2021-06-19T21:26:45Z</time>
      </trkpt>
      <trkpt lat="42.41954" lon="2.05453">
        <ele>1630</ele>
        <time>2021-06-19T21:26:48Z</time>
      </trkpt>
      <trkpt lat="42.42008" lon="2.05328">
        <ele>1648</ele>
        <time>2021-06-19T21:27:13Z</time>
      </trkpt>
      <trkpt lat="42.42025" lon="2.05272">
        <ele>1656</ele>
        <time>2021-06-19T21:27:24Z</time>
      </trkpt>
      <trkpt lat="42.42052" lon="2.05214">
        <ele>1661</ele>
        <time>2021-06-19T21:27:36Z</time>
      </trkpt>
      <trkpt lat="42.42085" lon="2.05165">
        <ele>1663</ele>
        <time>2021-06-19T21:27:47Z</time>
      </trkpt>
      <trkpt lat="42.42123" lon="2.05131">
        <ele>1669</ele>
        <time>2021-06-19T21:27:58Z</time>
      </trkpt>
      <trkpt lat="42.42181" lon="2.05094">
        <ele>1670</ele>
        <time>2021-06-19T21:28:13Z</time>
      </trkpt>
      <trkpt lat="42.4219" lon="2.05086">
        <ele>1671</ele>
        <time>2021-06-19T21:28:15Z</time>
      </trkpt>
      <trkpt lat="42.422" lon="2.05073">
        <ele>1673</ele>
        <time>2021-06-19T21:28:18Z</time>
      </trkpt>
      <trkpt lat="42.42221" lon="2.05031">
        <ele>1682</ele>
        <time>2021-06-19T21:28:27Z</time>
      </trkpt>
      <trkpt lat="42.42243" lon="2.04994">
        <ele>1688</ele>
        <time>2021-06-19T21:28:35Z</time>
      </trkpt>
      <trkpt lat="42.42251" lon="2.04988">
        <ele>1688</ele>
        <time>2021-06-19T21:28:37Z</time>
      </trkpt>
      <trkpt lat="42.42276" lon="2.04979">
        <ele>1685</ele>
        <time>2021-06-19T21:28:44Z</time>
      </trkpt>
      <trkpt lat="42.42288" lon="2.04972">
        <ele>1685</ele>
        <time>2021-06-19T21:28:47Z</time>
      </trkpt>
      <trkpt lat="42.42349" lon="2.049">
        <ele>1689</ele>
        <time>2021-06-19T21:29:05Z</time>
      </trkpt>
      <trkpt lat="42.42384" lon="2.04843">
        <ele>1687</ele>
        <time>2021-06-19T21:29:18Z</time>
      </trkpt>
      <trkpt lat="42.42387" lon="2.04837">
        <ele>1686</ele>
        <time>2021-06-19T21:29:19Z</time>
      </trkpt>
      <trkpt lat="42.42386" lon="2.04831">
        <ele>1687</ele>
        <time>2021-06-19T21:29:21Z</time>
      </trkpt>
      <trkpt lat="42.42382" lon="2.04825">
        <ele>1688</ele>
        <time>2021-06-19T21:29:22Z</time>
      </trkpt>
      <trkpt lat="42.42375" lon="2.04825">
        <ele>1690</ele>
        <time>2021-06-19T21:29:24Z</time>
      </trkpt>
      <trkpt lat="42.42351" lon="2.04852">
        <ele>1697</ele>
        <time>2021-06-19T21:29:31Z</time>
      </trkpt>
      <trkpt lat="42.42337" lon="2.04864">
        <ele>1699</ele>
        <time>2021-06-19T21:29:35Z</time>
      </trkpt>
      <trkpt lat="42.42311" lon="2.04879">
        <ele>1703</ele>
        <time>2021-06-19T21:29:41Z</time>
      </trkpt>
      <trkpt lat="42.42298" lon="2.04885">
        <ele>1705</ele>
        <time>2021-06-19T21:29:45Z</time>
      </trkpt>
      <trkpt lat="42.42223" lon="2.04902">
        <ele>1720</ele>
        <time>2021-06-19T21:30:02Z</time>
      </trkpt>
      <trkpt lat="42.42145" lon="2.04933">
        <ele>1733</ele>
        <time>2021-06-19T21:30:21Z</time>
      </trkpt>
      <trkpt lat="42.42077" lon="2.04972">
        <ele>1739</ele>
        <time>2021-06-19T21:30:39Z</time>
      </trkpt>
      <trkpt lat="42.42049" lon="2.04992">
        <ele>1742</ele>
        <time>2021-06-19T21:30:46Z</time>
      </trkpt>
      <trkpt lat="42.41903" lon="2.05118">
        <ele>1756</ele>
        <time>2021-06-19T21:31:26Z</time>
      </trkpt>
      <trkpt lat="42.41862" lon="2.0516">
        <ele>1760</ele>
        <time>2021-06-19T21:31:38Z</time>
      </trkpt>
      <trkpt lat="42.41825" lon="2.05189">
        <ele>1766</ele>
        <time>2021-06-19T21:31:48Z</time>
      </trkpt>
      <trkpt lat="42.41776" lon="2.05237">
        <ele>1767</ele>
        <time>2021-06-19T21:32:02Z</time>
      </trkpt>
      <trkpt lat="42.41641" lon="2.05315">
        <ele>1785</ele>
        <time>2021-06-19T21:32:37Z</time>
      </trkpt>
      <trkpt lat="42.41557" lon="2.05382">
        <ele>1791</ele>
        <time>2021-06-19T21:32:59Z</time>
      </trkpt>
      <trkpt lat="42.41513" lon="2.05419">
        <ele>1795</ele>
        <time>2021-06-19T21:33:12Z</time>
      </trkpt>
      <trkpt lat="42.41507" lon="2.05434">
        <ele>1794</ele>
        <time>2021-06-19T21:33:15Z</time>
      </trkpt>
      <trkpt lat="42.41491" lon="2.05461">
        <ele>1794</ele>
        <time>2021-06-19T21:33:21Z</time>
      </trkpt>
      <trkpt lat="42.41469" lon="2.05487">
        <ele>1796</ele>
        <time>2021-06-19T21:33:27Z</time>
      </trkpt>
      <trkpt lat="42.41361" lon="2.05572">
        <ele>1809</ele>
        <time>2021-06-19T21:33:56Z</time>
      </trkpt>
      <trkpt lat="42.41335" lon="2.05599">
        <ele>1811</ele>
        <time>2021-06-19T21:34:04Z</time>
      </trkpt>
      <trkpt lat="42.41242" lon="2.05726">
        <ele>1824</ele>
        <time>2021-06-19T21:34:35Z</time>
      </trkpt>
      <trkpt lat="42.41203" lon="2.05771">
        <ele>1826</ele>
        <time>2021-06-19T21:34:47Z</time>
      </trkpt>
      <trkpt lat="42.41167" lon="2.05806">
        <ele>1830</ele>
        <time>2021-06-19T21:34:57Z</time>
      </trkpt>
      <trkpt lat="42.41148" lon="2.05819">
        <ele>1831</ele>
        <time>2021-06-19T21:35:02Z</time>
      </trkpt>
      <trkpt lat="42.41105" lon="2.05833">
        <ele>1837</ele>
        <time>2021-06-19T21:35:13Z</time>
      </trkpt>
      <trkpt lat="42.41008" lon="2.0585">
        <ele>1849</ele>
        <time>2021-06-19T21:35:35Z</time>
      </trkpt>
      <trkpt lat="42.40964" lon="2.05868">
        <ele>1855</ele>
        <time>2021-06-19T21:35:46Z</time>
      </trkpt>
      <trkpt lat="42.40967" lon="2.05859">
        <ele>1855</ele>
        <time>2021-06-19T21:35:48Z</time>
      </trkpt>
      <trkpt lat="42.40972" lon="2.05853">
        <ele>1855</ele>
        <time>2021-06-19T21:35:49Z</time>
      </trkpt>
      <trkpt lat="42.40991" lon="2.0584">
        <ele>1853</ele>
        <time>2021-06-19T21:35:54Z</time>
      </trkpt>
      <trkpt lat="42.41003" lon="2.05821">
        <ele>1855</ele>
        <time>2021-06-19T21:35:59Z</time>
      </trkpt>
      <trkpt lat="42.41023" lon="2.05809">
        <ele>1855</ele>
        <time>2021-06-19T21:36:04Z</time>
      </trkpt>
      <trkpt lat="42.41024" lon="2.05797">
        <ele>1857</ele>
        <time>2021-06-19T21:36:06Z</time>
      </trkpt>
      <trkpt lat="42.41022" lon="2.05793">
        <ele>1858</ele>
        <time>2021-06-19T21:36:07Z</time>
      </trkpt>
      <trkpt lat="42.41019" lon="2.05791">
        <ele>1859</ele>
        <time>2021-06-19T21:36:08Z</time>
      </trkpt>
      <trkpt lat="42.41012" lon="2.05792">
        <ele>1860</ele>
        <time>2021-06-19T21:36:09Z</time>
      </trkpt>
      <trkpt lat="42.40885" lon="2.05845">
        <ele>1875</ele>
        <time>2021-06-19T21:36:40Z</time>
      </trkpt>
      <trkpt lat="42.40848" lon="2.05852">
        <ele>1881</ele>
        <time>2021-06-19T21:36:49Z</time>
      </trkpt>
      <trkpt lat="42.40776" lon="2.05876">
        <ele>1895</ele>
        <time>2021-06-19T21:37:06Z</time>
      </trkpt>
      <trkpt lat="42.40757" lon="2.05891">
        <ele>1897</ele>
        <time>2021-06-19T21:37:11Z</time>
      </trkpt>
      <trkpt lat="42.40722" lon="2.05944">
        <ele>1897</ele>
        <time>2021-06-19T21:37:24Z</time>
      </trkpt>
      <trkpt lat="42.40683" lon="2.05978">
        <ele>1902</ele>
        <time>2021-06-19T21:37:34Z</time>
      </trkpt>
      <trkpt lat="42.40649" lon="2.06013">
        <ele>1907</ele>
        <time>2021-06-19T21:37:44Z</time>
      </trkpt>
      <trkpt lat="42.40529" lon="2.06144">
        <ele>1925</ele>
        <time>2021-06-19T21:38:20Z</time>
      </trkpt>
      <trkpt lat="42.4049" lon="2.06175">
        <ele>1933</ele>
        <time>2021-06-19T21:38:31Z</time>
      </trkpt>
      <trkpt lat="42.40496" lon="2.06177">
        <ele>1929</ele>
        <time>2021-06-19T21:38:32Z</time>
      </trkpt>
      <trkpt lat="42.40497" lon="2.06187">
        <ele>1926</ele>
        <time>2021-06-19T21:38:34Z</time>
      </trkpt>
      <trkpt lat="42.40455" lon="2.0623">
        <ele>1934</ele>
        <time>2021-06-19T21:38:46Z</time>
      </trkpt>
      <trkpt lat="42.40415" lon="2.06297">
        <ele>1939</ele>
        <time>2021-06-19T21:39:01Z</time>
      </trkpt>
      <trkpt lat="42.404" lon="2.06328">
        <ele>1941</ele>
        <time>2021-06-19T21:39:08Z</time>
      </trkpt>
      <trkpt lat="42.40392" lon="2.06352">
        <ele>1941</ele>
        <time>2021-06-19T21:39:12Z</time>
      </trkpt>
      <trkpt lat="42.4038" lon="2.06409">
        <ele>1938</ele>
        <time>2021-06-19T21:39:22Z</time>
      </trkpt>
      <trkpt lat="42.40373" lon="2.06428">
        <ele>1939</ele>
        <time>2021-06-19T21:39:26Z</time>
      </trkpt>
      <trkpt lat="42.40334" lon="2.06512">
        <ele>1940</ele>
        <time>2021-06-19T21:39:43Z</time>
      </trkpt>
      <trkpt lat="42.40296" lon="2.06581">
        <ele>1940</ele>
        <time>2021-06-19T21:39:58Z</time>
      </trkpt>
      <trkpt lat="42.40264" lon="2.06626">
        <ele>1943</ele>
        <time>2021-06-19T21:40:09Z</time>
      </trkpt>
      <trkpt lat="42.40229" lon="2.06669">
        <ele>1947</ele>
        <time>2021-06-19T21:40:20Z</time>
      </trkpt>
      <trkpt lat="42.40212" lon="2.06686">
        <ele>1949</ele>
        <time>2021-06-19T21:40:25Z</time>
      </trkpt>
      <trkpt lat="42.40199" lon="2.06705">
        <ele>1950</ele>
        <time>2021-06-19T21:40:29Z</time>
      </trkpt>
      <trkpt lat="42.4018" lon="2.06749">
        <ele>1947</ele>
        <time>2021-06-19T21:40:38Z</time>
      </trkpt>
      <trkpt lat="42.40154" lon="2.06789">
        <ele>1945</ele>
        <time>2021-06-19T21:40:47Z</time>
      </trkpt>
      <trkpt lat="42.40143" lon="2.06811">
        <ele>1944</ele>
        <time>2021-06-19T21:40:52Z</time>
      </trkpt>
      <trkpt lat="42.40117" lon="2.06888">
        <ele>1937</ele>
        <time>2021-06-19T21:41:06Z</time>
      </trkpt>
      <trkpt lat="42.40107" lon="2.06907">
        <ele>1937</ele>
        <time>2021-06-19T21:41:10Z</time>
      </trkpt>
      <trkpt lat="42.40079" lon="2.06947">
        <ele>1938</ele>
        <time>2021-06-19T21:41:20Z</time>
      </trkpt>
      <trkpt lat="42.40053" lon="2.06975">
        <ele>1939</ele>
        <time>2021-06-19T21:41:28Z</time>
      </trkpt>
      <trkpt lat="42.40042" lon="2.06993">
        <ele>1938</ele>
        <time>2021-06-19T21:41:32Z</time>
      </trkpt>
      <trkpt lat="42.40044" lon="2.07006">
        <ele>1935</ele>
        <time>2021-06-19T21:41:34Z</time>
      </trkpt>
      <trkpt lat="42.39956" lon="2.07109">
        <ele>1945</ele>
        <time>2021-06-19T21:42:01Z</time>
      </trkpt>
      <trkpt lat="42.39936" lon="2.07144">
        <ele>1948</ele>
        <time>2021-06-19T21:42:09Z</time>
      </trkpt>
      <trkpt lat="42.39874" lon="2.07282">
        <ele>1949</ele>
        <time>2021-06-19T21:42:37Z</time>
      </trkpt>
      <trkpt lat="42.39848" lon="2.07327">
        <ele>1951</ele>
        <time>2021-06-19T21:42:47Z</time>
      </trkpt>
      <trkpt lat="42.39807" lon="2.07365">
        <ele>1956</ele>
        <time>2021-06-19T21:42:58Z</time>
      </trkpt>
      <trkpt lat="42.39728" lon="2.07413">
        <ele>1971</ele>
        <time>2021-06-19T21:43:18Z</time>
      </trkpt>
      <trkpt lat="42.39711" lon="2.07427">
        <ele>1973</ele>
        <time>2021-06-19T21:43:23Z</time>
      </trkpt>
      <trkpt lat="42.39695" lon="2.07444">
        <ele>1974</ele>
        <time>2021-06-19T21:43:28Z</time>
      </trkpt>
      <trkpt lat="42.39656" lon="2.07501">
        <ele>1974</ele>
        <time>2021-06-19T21:43:41Z</time>
      </trkpt>
      <trkpt lat="42.39627" lon="2.07529">
        <ele>1979</ele>
        <time>2021-06-19T21:43:50Z</time>
      </trkpt>
      <trkpt lat="42.39593" lon="2.07567">
        <ele>1985</ele>
        <time>2021-06-19T21:44:00Z</time>
      </trkpt>
      <trkpt lat="42.39579" lon="2.07603">
        <ele>1985</ele>
        <time>2021-06-19T21:44:07Z</time>
      </trkpt>
      <trkpt lat="42.39571" lon="2.07662">
        <ele>1983</ele>
        <time>2021-06-19T21:44:17Z</time>
      </trkpt>
      <trkpt lat="42.39544" lon="2.078">
        <ele>1986</ele>
        <time>2021-06-19T21:44:42Z</time>
      </trkpt>
      <trkpt lat="42.39522" lon="2.07854">
        <ele>1990</ele>
        <time>2021-06-19T21:44:52Z</time>
      </trkpt>
      <trkpt lat="42.39472" lon="2.07937">
        <ele>1997</ele>
        <time>2021-06-19T21:45:11Z</time>
      </trkpt>
      <trkpt lat="42.39429" lon="2.07988">
        <ele>2001</ele>
        <time>2021-06-19T21:45:24Z</time>
      </trkpt>
      <trkpt lat="42.39305" lon="2.08087">
        <ele>2019</ele>
        <time>2021-06-19T21:45:58Z</time>
      </trkpt>
      <trkpt lat="42.39161" lon="2.08226">
        <ele>2038</ele>
        <time>2021-06-19T21:46:39Z</time>
      </trkpt>
      <trkpt lat="42.3915" lon="2.08246">
        <ele>2037</ele>
        <time>2021-06-19T21:46:43Z</time>
      </trkpt>
      <trkpt lat="42.39142" lon="2.08282">
        <ele>2034</ele>
        <time>2021-06-19T21:46:50Z</time>
      </trkpt>
      <trkpt lat="42.3913" lon="2.08314">
        <ele>2034</ele>
        <time>2021-06-19T21:46:56Z</time>
      </trkpt>
      <trkpt lat="42.39079" lon="2.08399">
        <ele>2041</ele>
        <time>2021-06-19T21:47:15Z</time>
      </trkpt>
      <trkpt lat="42.39025" lon="2.08503">
        <ele>2048</ele>
        <time>2021-06-19T21:47:37Z</time>
      </trkpt>
      <trkpt lat="42.38998" lon="2.08573">
        <ele>2048</ele>
        <time>2021-06-19T21:47:51Z</time>
      </trkpt>
      <trkpt lat="42.38965" lon="2.08642">
        <ele>2055</ele>
        <time>2021-06-19T21:48:05Z</time>
      </trkpt>
      <trkpt lat="42.38913" lon="2.08733">
        <ele>2064</ele>
        <time>2021-06-19T21:48:25Z</time>
      </trkpt>
      <trkpt lat="42.38844" lon="2.0883">
        <ele>2075</ele>
        <time>2021-06-19T21:48:48Z</time>
      </trkpt>
      <trkpt lat="42.38807" lon="2.08892">
        <ele>2083</ele>
        <time>2021-06-19T21:49:02Z</time>
      </trkpt>
      <trkpt lat="42.38792" lon="2.08902">
        <ele>2085</ele>
        <time>2021-06-19T21:49:05Z</time>
      </trkpt>
      <trkpt lat="42.3879" lon="2.08912">
        <ele>2084</ele>
        <time>2021-06-19T21:49:07Z</time>
      </trkpt>
      <trkpt lat="42.38778" lon="2.08938">
        <ele>2090</ele>
        <time>2021-06-19T21:49:13Z</time>
      </trkpt>
      <trkpt lat="42.38737" lon="2.09011">
        <ele>2103</ele>
        <time>2021-06-19T21:49:28Z</time>
      </trkpt>
      <trkpt lat="42.3872" lon="2.0906">
        <ele>2113</ele>
        <time>2021-06-19T21:49:38Z</time>
      </trkpt>
      <trkpt lat="42.38667" lon="2.09131">
        <ele>2121</ele>
        <time>2021-06-19T21:49:55Z</time>
      </trkpt>
      <trkpt lat="42.38614" lon="2.09217">
        <ele>2138</ele>
        <time>2021-06-19T21:50:14Z</time>
      </trkpt>
      <trkpt lat="42.38574" lon="2.09272">
        <ele>2149</ele>
        <time>2021-06-19T21:50:28Z</time>
      </trkpt>
      <trkpt lat="42.38551" lon="2.09338">
        <ele>2167</ele>
        <time>2021-06-19T21:50:40Z</time>
      </trkpt>
      <trkpt lat="42.38546" lon="2.09363">
        <ele>2173</ele>
        <time>2021-06-19T21:50:45Z</time>
      </trkpt>
      <trkpt lat="42.38543" lon="2.09395">
        <ele>2179</ele>
        <time>2021-06-19T21:50:50Z</time>
      </trkpt>
      <trkpt lat="42.38544" lon="2.09411">
        <ele>2182</ele>
        <time>2021-06-19T21:50:53Z</time>
      </trkpt>
      <trkpt lat="42.38534" lon="2.09461">
        <ele>2191</ele>
        <time>2021-06-19T21:51:02Z</time>
      </trkpt>
      <trkpt lat="42.38535" lon="2.09486">
        <ele>2195</ele>
        <time>2021-06-19T21:51:06Z</time>
      </trkpt>
      <trkpt lat="42.3853" lon="2.09496">
        <ele>2197</ele>
        <time>2021-06-19T21:51:08Z</time>
      </trkpt>
      <trkpt lat="42.38524" lon="2.09521">
        <ele>2200</ele>
        <time>2021-06-19T21:51:13Z</time>
      </trkpt>
      <trkpt lat="42.38518" lon="2.09578">
        <ele>2208</ele>
        <time>2021-06-19T21:51:23Z</time>
      </trkpt>
      <trkpt lat="42.38526" lon="2.09684">
        <ele>2226</ele>
        <time>2021-06-19T21:51:41Z</time>
      </trkpt>
      <trkpt lat="42.38539" lon="2.09714">
        <ele>2231</ele>
        <time>2021-06-19T21:51:47Z</time>
      </trkpt>
      <trkpt lat="42.38565" lon="2.0975">
        <ele>2234</ele>
        <time>2021-06-19T21:51:56Z</time>
      </trkpt>
      <trkpt lat="42.38595" lon="2.09784">
        <ele>2242</ele>
        <time>2021-06-19T21:52:05Z</time>
      </trkpt>
      <trkpt lat="42.38601" lon="2.09817">
        <ele>2249</ele>
        <time>2021-06-19T21:52:11Z</time>
      </trkpt>
      <trkpt lat="42.38618" lon="2.09873">
        <ele>2262</ele>
        <time>2021-06-19T21:52:21Z</time>
      </trkpt>
      <trkpt lat="42.38636" lon="2.099">
        <ele>2268</ele>
        <time>2021-06-19T21:52:28Z</time>
      </trkpt>
      <trkpt lat="42.38651" lon="2.09936">
        <ele>2273</ele>
        <time>2021-06-19T21:52:35Z</time>
      </trkpt>
      <trkpt lat="42.3866" lon="2.09972">
        <ele>2277</ele>
        <time>2021-06-19T21:52:41Z</time>
      </trkpt>
      <trkpt lat="42.38695" lon="2.10027">
        <ele>2292</ele>
        <time>2021-06-19T21:52:54Z</time>
      </trkpt>
      <trkpt lat="42.38702" lon="2.10055">
        <ele>2297</ele>
        <time>2021-06-19T21:52:59Z</time>
      </trkpt>
      <trkpt lat="42.38722" lon="2.10104">
        <ele>2306</ele>
        <time>2021-06-19T21:53:09Z</time>
      </trkpt>
      <trkpt lat="42.38745" lon="2.10132">
        <ele>2310</ele>
        <time>2021-06-19T21:53:16Z</time>
      </trkpt>
      <trkpt lat="42.38755" lon="2.10138">
        <ele>2312</ele>
        <time>2021-06-19T21:53:18Z</time>
      </trkpt>
      <trkpt lat="42.3878" lon="2.10178">
        <ele>2324</ele>
        <time>2021-06-19T21:53:28Z</time>
      </trkpt>
      <trkpt lat="42.38807" lon="2.10205">
        <ele>2331</ele>
        <time>2021-06-19T21:53:35Z</time>
      </trkpt>
      <trkpt lat="42.3882" lon="2.10269">
        <ele>2336</ele>
        <time>2021-06-19T21:53:47Z</time>
      </trkpt>
      <trkpt lat="42.38819" lon="2.10295">
        <ele>2339</ele>
        <time>2021-06-19T21:53:51Z</time>
      </trkpt>
      <trkpt lat="42.38814" lon="2.10313">
        <ele>2342</ele>
        <time>2021-06-19T21:53:55Z</time>
      </trkpt>
      <trkpt lat="42.38799" lon="2.10341">
        <ele>2346</ele>
        <time>2021-06-19T21:54:01Z</time>
      </trkpt>
      <trkpt lat="42.38805" lon="2.10379">
        <ele>2352</ele>
        <time>2021-06-19T21:54:07Z</time>
      </trkpt>
      <trkpt lat="42.38819" lon="2.10413">
        <ele>2357</ele>
        <time>2021-06-19T21:54:14Z</time>
      </trkpt>
      <trkpt lat="42.38838" lon="2.10431">
        <ele>2363</ele>
        <time>2021-06-19T21:54:19Z</time>
      </trkpt>
      <trkpt lat="42.38844" lon="2.10445">
        <ele>2369</ele>
        <time>2021-06-19T21:54:22Z</time>
      </trkpt>
      <trkpt lat="42.38844" lon="2.1046">
        <ele>2373</ele>
        <time>2021-06-19T21:54:25Z</time>
      </trkpt>
      <trkpt lat="42.38837" lon="2.10473">
        <ele>2375</ele>
        <time>2021-06-19T21:54:28Z</time>
      </trkpt>
      <trkpt lat="42.38834" lon="2.10496">
        <ele>2381</ele>
        <time>2021-06-19T21:54:32Z</time>
      </trkpt>
      <trkpt lat="42.38842" lon="2.10512">
        <ele>2388</ele>
        <time>2021-06-19T21:54:35Z</time>
      </trkpt>
      <trkpt lat="42.38844" lon="2.10531">
        <ele>2394</ele>
        <time>2021-06-19T21:54:38Z</time>
      </trkpt>
      <trkpt lat="42.38837" lon="2.10541">
        <ele>2395</ele>
        <time>2021-06-19T21:54:41Z</time>
      </trkpt>
      <trkpt lat="42.38816" lon="2.1055">
        <ele>2400</ele>
        <time>2021-06-19T21:54:46Z</time>
      </trkpt>
      <trkpt lat="42.38837" lon="2.10577">
        <ele>2407</ele>
        <time>2021-06-19T21:54:53Z</time>
      </trkpt>
      <trkpt lat="42.38856" lon="2.10589">
        <ele>2413</ele>
        <time>2021-06-19T21:54:57Z</time>
      </trkpt>
      <trkpt lat="42.38867" lon="2.10594">
        <ele>2416</ele>
        <time>2021-06-19T21:55:00Z</time>
      </trkpt>
      <trkpt lat="42.38874" lon="2.10586">
        <ele>2415</ele>
        <time>2021-06-19T21:55:02Z</time>
      </trkpt>
      <trkpt lat="42.38887" lon="2.1059">
        <ele>2418</ele>
        <time>2021-06-19T21:55:05Z</time>
      </trkpt>
      <trkpt lat="42.38885" lon="2.10601">
        <ele>2421</ele>
        <time>2021-06-19T21:55:07Z</time>
      </trkpt>
      <trkpt lat="42.38907" lon="2.10604">
        <ele>2425</ele>
        <time>2021-06-19T21:55:13Z</time>
      </trkpt>
      <trkpt lat="42.38904" lon="2.1062">
        <ele>2429</ele>
        <time>2021-06-19T21:55:15Z</time>
      </trkpt>
      <trkpt lat="42.38913" lon="2.10621">
        <ele>2430</ele>
        <time>2021-06-19T21:55:17Z</time>
      </trkpt>
      <trkpt lat="42.38921" lon="2.10628">
        <ele>2434</ele>
        <time>2021-06-19T21:55:20Z</time>
      </trkpt>
      <trkpt lat="42.3893" lon="2.10667">
        <ele>2446</ele>
        <time>2021-06-19T21:55:27Z</time>
      </trkpt>
      <trkpt lat="42.38949" lon="2.10702">
        <ele>2459</ele>
        <time>2021-06-19T21:55:34Z</time>
      </trkpt>
      <trkpt lat="42.38953" lon="2.10727">
        <ele>2465</ele>
        <time>2021-06-19T21:55:39Z</time>
      </trkpt>
      <trkpt lat="42.38964" lon="2.1076">
        <ele>2474</ele>
        <time>2021-06-19T21:55:45Z</time>
      </trkpt>
      <trkpt lat="42.38979" lon="2.10791">
        <ele>2482</ele>
        <time>2021-06-19T21:55:51Z</time>
      </trkpt>
      <trkpt lat="42.39002" lon="2.1081">
        <ele>2486</ele>
        <time>2021-06-19T21:55:58Z</time>
      </trkpt>
      <trkpt lat="42.39018" lon="2.10844">
        <ele>2497</ele>
        <time>2021-06-19T21:56:05Z</time>
      </trkpt>
      <trkpt lat="42.39057" lon="2.10895">
        <ele>2518</ele>
        <time>2021-06-19T21:56:17Z</time>
      </trkpt>
      <trkpt lat="42.39079" lon="2.10902">
        <ele>2523</ele>
        <time>2021-06-19T21:56:22Z</time>
      </trkpt>
      <trkpt lat="42.39095" lon="2.10921">
        <ele>2532</ele>
        <time>2021-06-19T21:56:27Z</time>
      </trkpt>
      <trkpt lat="42.3911" lon="2.10927">
        <ele>2539</ele>
        <time>2021-06-19T21:56:31Z</time>
      </trkpt>
      <trkpt lat="42.3913" lon="2.1096">
        <ele>2554</ele>
        <time>2021-06-19T21:56:38Z</time>
      </trkpt>
      <trkpt lat="42.39138" lon="2.10963">
        <ele>2558</ele>
        <time>2021-06-19T21:56:40Z</time>
      </trkpt>
      <trkpt lat="42.39138" lon="2.10981">
        <ele>2561</ele>
        <time>2021-06-19T21:56:43Z</time>
      </trkpt>
      <trkpt lat="42.39154" lon="2.10992">
        <ele>2568</ele>
        <time>2021-06-19T21:56:48Z</time>
      </trkpt>
      <trkpt lat="42.39155" lon="2.11005">
        <ele>2571</ele>
        <time>2021-06-19T21:56:50Z</time>
      </trkpt>
      <trkpt lat="42.39191" lon="2.11049">
        <ele>2592</ele>
        <time>2021-06-19T21:57:01Z</time>
      </trkpt>
      <trkpt lat="42.3919" lon="2.11068">
        <ele>2595</ele>
        <time>2021-06-19T21:57:05Z</time>
      </trkpt>
      <trkpt lat="42.39211" lon="2.11091">
        <ele>2606</ele>
        <time>2021-06-19T21:57:11Z</time>
      </trkpt>
      <trkpt lat="42.39214" lon="2.11109">
        <ele>2612</ele>
        <time>2021-06-19T21:57:14Z</time>
      </trkpt>
      <trkpt lat="42.39233" lon="2.11122">
        <ele>2620</ele>
        <time>2021-06-19T21:57:19Z</time>
      </trkpt>
      <trkpt lat="42.39236" lon="2.1113">
        <ele>2623</ele>
        <time>2021-06-19T21:57:21Z</time>
      </trkpt>
      <trkpt lat="42.39235" lon="2.11142">
        <ele>2626</ele>
        <time>2021-06-19T21:57:23Z</time>
      </trkpt>
      <trkpt lat="42.39246" lon="2.11164">
        <ele>2632</ele>
        <time>2021-06-19T21:57:27Z</time>
      </trkpt>
      <trkpt lat="42.3927" lon="2.1119">
        <ele>2648</ele>
        <time>2021-06-19T21:57:34Z</time>
      </trkpt>
      <trkpt lat="42.39292" lon="2.11203">
        <ele>2658</ele>
        <time>2021-06-19T21:57:40Z</time>
      </trkpt>
      <trkpt lat="42.39318" lon="2.11209">
        <ele>2667</ele>
        <time>2021-06-19T21:57:46Z</time>
      </trkpt>
      <trkpt lat="42.3934" lon="2.11224">
        <ele>2677</ele>
        <time>2021-06-19T21:57:52Z</time>
      </trkpt>
      <trkpt lat="42.39352" lon="2.11215">
        <ele>2681</ele>
        <time>2021-06-19T21:57:55Z</time>
      </trkpt>
      <trkpt lat="42.39368" lon="2.11217">
        <ele>2689</ele>
        <time>2021-06-19T21:57:59Z</time>
      </trkpt>
      <trkpt lat="42.39394" lon="2.11234">
        <ele>2704</ele>
        <time>2021-06-19T21:58:06Z</time>
      </trkpt>
      <trkpt lat="42.39401" lon="2.11243">
        <ele>2708</ele>
        <time>2021-06-19T21:58:08Z</time>
      </trkpt>
      <trkpt lat="42.39406" lon="2.11245">
        <ele>2711</ele>
        <time>2021-06-19T21:58:09Z</time>
      </trkpt>
      <trkpt lat="42.39412" lon="2.1124">
        <ele>2713</ele>
        <time>2021-06-19T21:58:11Z</time>
      </trkpt>
      <trkpt lat="42.39416" lon="2.11249">
        <ele>2716</ele>
        <time>2021-06-19T21:58:13Z</time>
      </trkpt>
      <trkpt lat="42.39427" lon="2.11255">
        <ele>2720</ele>
        <time>2021-06-19T21:58:15Z</time>
      </trkpt>
      <trkpt lat="42.39434" lon="2.11255">
        <ele>2722</ele>
        <time>2021-06-19T21:58:17Z</time>
      </trkpt>
      <trkpt lat="42.39442" lon="2.11268">
        <ele>2727</ele>
        <time>2021-06-19T21:58:20Z</time>
      </trkpt>
      <trkpt lat="42.39449" lon="2.11264">
        <ele>2728</ele>
        <time>2021-06-19T21:58:22Z</time>
      </trkpt>
      <trkpt lat="42.39455" lon="2.11264">
        <ele>2729</ele>
        <time>2021-06-19T21:58:23Z</time>
      </trkpt>
      <trkpt lat="42.39459" lon="2.11268">
        <ele>2731</ele>
        <time>2021-06-19T21:58:24Z</time>
      </trkpt>
      <trkpt lat="42.39462" lon="2.11266">
        <ele>2731</ele>
        <time>2021-06-19T21:58:25Z</time>
      </trkpt>
      <trkpt lat="42.39466" lon="2.1127">
        <ele>2733</ele>
        <time>2021-06-19T21:58:26Z</time>
      </trkpt>
      <trkpt lat="42.39473" lon="2.11306">
        <ele>2743</ele>
        <time>2021-06-19T21:58:33Z</time>
      </trkpt>
      <trkpt lat="42.39473" lon="2.11317">
        <ele>2746</ele>
        <time>2021-06-19T21:58:34Z</time>
      </trkpt>
      <trkpt lat="42.39469" lon="2.11316">
        <ele>2745</ele>
        <time>2021-06-19T21:58:35Z</time>
      </trkpt>
      <trkpt lat="42.3947" lon="2.11321">
        <ele>2746</ele>
        <time>2021-06-19T21:58:36Z</time>
      </trkpt>
      <trkpt lat="42.39457" lon="2.11337">
        <ele>2749</ele>
        <time>2021-06-19T21:58:40Z</time>
      </trkpt>
      <trkpt lat="42.39456" lon="2.11343">
        <ele>2751</ele>
        <time>2021-06-19T21:58:41Z</time>
      </trkpt>
      <trkpt lat="42.39444" lon="2.11362">
        <ele>2757</ele>
        <time>2021-06-19T21:58:46Z</time>
      </trkpt>
      <trkpt lat="42.39439" lon="2.11373">
        <ele>2761</ele>
        <time>2021-06-19T21:58:48Z</time>
      </trkpt>
      <trkpt lat="42.39438" lon="2.11391">
        <ele>2767</ele>
        <time>2021-06-19T21:58:51Z</time>
      </trkpt>
      <trkpt lat="42.39426" lon="2.11415">
        <ele>2777</ele>
        <time>2021-06-19T21:58:56Z</time>
      </trkpt>
      <trkpt lat="42.39432" lon="2.11418">
        <ele>2777</ele>
        <time>2021-06-19T21:58:58Z</time>
      </trkpt>
      <trkpt lat="42.39431" lon="2.11424">
        <ele>2779</ele>
        <time>2021-06-19T21:58:59Z</time>
      </trkpt>
      <trkpt lat="42.3944" lon="2.11434">
        <ele>2780</ele>
        <time>2021-06-19T21:59:01Z</time>
      </trkpt>
      <trkpt lat="42.39438" lon="2.1144">
        <ele>2781</ele>
        <time>2021-06-19T21:59:03Z</time>
      </trkpt>
      <trkpt lat="42.39426" lon="2.11445">
        <ele>2782</ele>
        <time>2021-06-19T21:59:05Z</time>
      </trkpt>
      <trkpt lat="42.39426" lon="2.11452">
        <ele>2783</ele>
        <time>2021-06-19T21:59:07Z</time>
      </trkpt>
      <trkpt lat="42.39419" lon="2.1146">
        <ele>2785</ele>
        <time>2021-06-19T21:59:09Z</time>
      </trkpt>
      <trkpt lat="42.39408" lon="2.11481">
        <ele>2788</ele>
        <time>2021-06-19T21:59:13Z</time>
      </trkpt>
      <trkpt lat="42.39416" lon="2.11491">
        <ele>2790</ele>
        <time>2021-06-19T21:59:16Z</time>
      </trkpt>
      <trkpt lat="42.39416" lon="2.11496">
        <ele>2791</ele>
        <time>2021-06-19T21:59:17Z</time>
      </trkpt>
      <trkpt lat="42.39423" lon="2.11489">
        <ele>2790</ele>
        <time>2021-06-19T21:59:19Z</time>
      </trkpt>
      <trkpt lat="42.39429" lon="2.1149">
        <ele>2789</ele>
        <time>2021-06-19T21:59:20Z</time>
      </trkpt>
      <trkpt lat="42.39454" lon="2.11485">
        <ele>2787</ele>
        <time>2021-06-19T21:59:26Z</time>
      </trkpt>
      <trkpt lat="42.39465" lon="2.11489">
        <ele>2787</ele>
        <time>2021-06-19T21:59:29Z</time>
      </trkpt>
      <trkpt lat="42.39469" lon="2.11495">
        <ele>2787</ele>
        <time>2021-06-19T21:59:30Z</time>
      </trkpt>
      <trkpt lat="42.39484" lon="2.11506">
        <ele>2786</ele>
        <time>2021-06-19T21:59:34Z</time>
      </trkpt>
      <trkpt lat="42.395" lon="2.11533">
        <ele>2778</ele>
        <time>2021-06-19T21:59:40Z</time>
      </trkpt>
      <trkpt lat="42.39513" lon="2.11546">
        <ele>2772</ele>
        <time>2021-06-19T21:59:44Z</time>
      </trkpt>
      <trkpt lat="42.39525" lon="2.11553">
        <ele>2767</ele>
        <time>2021-06-19T21:59:47Z</time>
      </trkpt>
      <trkpt lat="42.39525" lon="2.11559">
        <ele>2766</ele>
        <time>2021-06-19T21:59:48Z</time>
      </trkpt>
      <trkpt lat="42.39534" lon="2.11562">
        <ele>2763</ele>
        <time>2021-06-19T21:59:50Z</time>
      </trkpt>
      <trkpt lat="42.39546" lon="2.11614">
        <ele>2753</ele>
        <time>2021-06-19T21:59:59Z</time>
      </trkpt>
      <trkpt lat="42.39546" lon="2.11625">
        <ele>2751</ele>
        <time>2021-06-19T22:00:01Z</time>
      </trkpt>
      <trkpt lat="42.39543" lon="2.11631">
        <ele>2750</ele>
        <time>2021-06-19T22:00:03Z</time>
      </trkpt>
      <trkpt lat="42.39537" lon="2.11664">
        <ele>2743</ele>
        <time>2021-06-19T22:00:08Z</time>
      </trkpt>
      <trkpt lat="42.3954" lon="2.11689">
        <ele>2738</ele>
        <time>2021-06-19T22:00:13Z</time>
      </trkpt>
      <trkpt lat="42.39545" lon="2.11703">
        <ele>2735</ele>
        <time>2021-06-19T22:00:15Z</time>
      </trkpt>
      <trkpt lat="42.39552" lon="2.1171">
        <ele>2736</ele>
        <time>2021-06-19T22:00:18Z</time>
      </trkpt>
      <trkpt lat="42.39562" lon="2.11727">
        <ele>2735</ele>
        <time>2021-06-19T22:00:21Z</time>
      </trkpt>
      <trkpt lat="42.39574" lon="2.11735">
        <ele>2738</ele>
        <time>2021-06-19T22:00:24Z</time>
      </trkpt>
      <trkpt lat="42.39581" lon="2.11748">
        <ele>2738</ele>
        <time>2021-06-19T22:00:27Z</time>
      </trkpt>
      <trkpt lat="42.39593" lon="2.11758">
        <ele>2737</ele>
        <time>2021-06-19T22:00:30Z</time>
      </trkpt>
      <trkpt lat="42.39601" lon="2.11786">
        <ele>2737</ele>
        <time>2021-06-19T22:00:36Z</time>
      </trkpt>
      <trkpt lat="42.39609" lon="2.11794">
        <ele>2736</ele>
        <time>2021-06-19T22:00:38Z</time>
      </trkpt>
      <trkpt lat="42.39609" lon="2.1181">
        <ele>2737</ele>
        <time>2021-06-19T22:00:41Z</time>
      </trkpt>
      <trkpt lat="42.39617" lon="2.11825">
        <ele>2738</ele>
        <time>2021-06-19T22:00:44Z</time>
      </trkpt>
      <trkpt lat="42.39625" lon="2.11832">
        <ele>2739</ele>
        <time>2021-06-19T22:00:46Z</time>
      </trkpt>
      <trkpt lat="42.39631" lon="2.11855">
        <ele>2743</ele>
        <time>2021-06-19T22:00:50Z</time>
      </trkpt>
      <trkpt lat="42.39625" lon="2.11873">
        <ele>2745</ele>
        <time>2021-06-19T22:00:54Z</time>
      </trkpt>
      <trkpt lat="42.39632" lon="2.11901">
        <ele>2750</ele>
        <time>2021-06-19T22:00:59Z</time>
      </trkpt>
      <trkpt lat="42.39636" lon="2.11908">
        <ele>2753</ele>
        <time>2021-06-19T22:01:00Z</time>
      </trkpt>
      <trkpt lat="42.39637" lon="2.1193">
        <ele>2758</ele>
        <time>2021-06-19T22:01:04Z</time>
      </trkpt>
      <trkpt lat="42.39641" lon="2.11941">
        <ele>2762</ele>
        <time>2021-06-19T22:01:06Z</time>
      </trkpt>
      <trkpt lat="42.39639" lon="2.11945">
        <ele>2762</ele>
        <time>2021-06-19T22:01:07Z</time>
      </trkpt>
      <trkpt lat="42.39644" lon="2.11959">
        <ele>2768</ele>
        <time>2021-06-19T22:01:10Z</time>
      </trkpt>
      <trkpt lat="42.39648" lon="2.11963">
        <ele>2770</ele>
        <time>2021-06-19T22:01:11Z</time>
      </trkpt>
      <trkpt lat="42.39652" lon="2.1198">
        <ele>2777</ele>
        <time>2021-06-19T22:01:14Z</time>
      </trkpt>
      <trkpt lat="42.39656" lon="2.11987">
        <ele>2780</ele>
        <time>2021-06-19T22:01:16Z</time>
      </trkpt>
      <trkpt lat="42.39655" lon="2.12013">
        <ele>2787</ele>
        <time>2021-06-19T22:01:20Z</time>
      </trkpt>
      <trkpt lat="42.39666" lon="2.12049">
        <ele>2800</ele>
        <time>2021-06-19T22:01:27Z</time>
      </trkpt>
      <trkpt lat="42.39672" lon="2.12051">
        <ele>2801</ele>
        <time>2021-06-19T22:01:28Z</time>
      </trkpt>
      <trkpt lat="42.3967" lon="2.12055">
        <ele>2802</ele>
        <time>2021-06-19T22:01:29Z</time>
      </trkpt>
      <trkpt lat="42.39675" lon="2.12058">
        <ele>2802</ele>
        <time>2021-06-19T22:01:30Z</time>
      </trkpt>
      <trkpt lat="42.39672" lon="2.12061">
        <ele>2803</ele>
        <time>2021-06-19T22:01:31Z</time>
      </trkpt>
      <trkpt lat="42.39672" lon="2.12065">
        <ele>2804</ele>
        <time>2021-06-19T22:01:32Z</time>
      </trkpt>
      <trkpt lat="42.39677" lon="2.12065">
        <ele>2804</ele>
        <time>2021-06-19T22:01:33Z</time>
      </trkpt>
      <trkpt lat="42.39683" lon="2.12069">
        <ele>2805</ele>
        <time>2021-06-19T22:01:35Z</time>
      </trkpt>
      <trkpt lat="42.39685" lon="2.12077">
        <ele>2807</ele>
        <time>2021-06-19T22:01:36Z</time>
      </trkpt>
      <trkpt lat="42.39689" lon="2.12082">
        <ele>2808</ele>
        <time>2021-06-19T22:01:37Z</time>
      </trkpt>
      <trkpt lat="42.39688" lon="2.12094">
        <ele>2810</ele>
        <time>2021-06-19T22:01:39Z</time>
      </trkpt>
      <trkpt lat="42.3969" lon="2.12099">
        <ele>2811</ele>
        <time>2021-06-19T22:01:40Z</time>
      </trkpt>
      <trkpt lat="42.39688" lon="2.12109">
        <ele>2813</ele>
        <time>2021-06-19T22:01:42Z</time>
      </trkpt>
      <trkpt lat="42.39691" lon="2.12122">
        <ele>2815</ele>
        <time>2021-06-19T22:01:45Z</time>
      </trkpt>
      <trkpt lat="42.39698" lon="2.12126">
        <ele>2816</ele>
        <time>2021-06-19T22:01:46Z</time>
      </trkpt>
      <trkpt lat="42.39707" lon="2.12126">
        <ele>2816</ele>
        <time>2021-06-19T22:01:48Z</time>
      </trkpt>
      <trkpt lat="42.39707" lon="2.1213">
        <ele>2817</ele>
        <time>2021-06-19T22:01:49Z</time>
      </trkpt>
      <trkpt lat="42.39703" lon="2.12132">
        <ele>2817</ele>
        <time>2021-06-19T22:01:50Z</time>
      </trkpt>
      <trkpt lat="42.39702" lon="2.1214">
        <ele>2819</ele>
        <time>2021-06-19T22:01:51Z</time>
      </trkpt>
      <trkpt lat="42.39734" lon="2.12177">
        <ele>2823</ele>
        <time>2021-06-19T22:02:01Z</time>
      </trkpt>
      <trkpt lat="42.39737" lon="2.12173">
        <ele>2824</ele>
        <time>2021-06-19T22:02:02Z</time>
      </trkpt>
      <trkpt lat="42.39758" lon="2.12162">
        <ele>2823</ele>
        <time>2021-06-19T22:02:08Z</time>
      </trkpt>
      <trkpt lat="42.39773" lon="2.12157">
        <ele>2818</ele>
        <time>2021-06-19T22:02:11Z</time>
      </trkpt>
      <trkpt lat="42.39781" lon="2.12157">
        <ele>2816</ele>
        <time>2021-06-19T22:02:13Z</time>
      </trkpt>
      <trkpt lat="42.39806" lon="2.1217">
        <ele>2811</ele>
        <time>2021-06-19T22:02:19Z</time>
      </trkpt>
      <trkpt lat="42.39827" lon="2.12166">
        <ele>2806</ele>
        <time>2021-06-19T22:02:24Z</time>
      </trkpt>
      <trkpt lat="42.39834" lon="2.12167">
        <ele>2805</ele>
        <time>2021-06-19T22:02:26Z</time>
      </trkpt>
      <trkpt lat="42.39864" lon="2.12159">
        <ele>2802</ele>
        <time>2021-06-19T22:02:33Z</time>
      </trkpt>
      <trkpt lat="42.39886" lon="2.12165">
        <ele>2803</ele>
        <time>2021-06-19T22:02:38Z</time>
      </trkpt>
      <trkpt lat="42.39903" lon="2.12173">
        <ele>2803</ele>
        <time>2021-06-19T22:02:42Z</time>
      </trkpt>
      <trkpt lat="42.3992" lon="2.1219">
        <ele>2800</ele>
        <time>2021-06-19T22:02:47Z</time>
      </trkpt>
      <trkpt lat="42.39922" lon="2.12195">
        <ele>2800</ele>
        <time>2021-06-19T22:02:48Z</time>
      </trkpt>
      <trkpt lat="42.39993" lon="2.12258">
        <ele>2797</ele>
        <time>2021-06-19T22:03:08Z</time>
      </trkpt>
      <trkpt lat="42.40013" lon="2.12297">
        <ele>2788</ele>
        <time>2021-06-19T22:03:16Z</time>
      </trkpt>
      <trkpt lat="42.40026" lon="2.1231">
        <ele>2784</ele>
        <time>2021-06-19T22:03:20Z</time>
      </trkpt>
      <trkpt lat="42.40042" lon="2.12311">
        <ele>2782</ele>
        <time>2021-06-19T22:03:24Z</time>
      </trkpt>
      <trkpt lat="42.4005" lon="2.12308">
        <ele>2782</ele>
        <time>2021-06-19T22:03:26Z</time>
      </trkpt>
      <trkpt lat="42.40106" lon="2.12306">
        <ele>2773</ele>
        <time>2021-06-19T22:03:39Z</time>
      </trkpt>
      <trkpt lat="42.40113" lon="2.12303">
        <ele>2772</ele>
        <time>2021-06-19T22:03:41Z</time>
      </trkpt>
      <trkpt lat="42.40126" lon="2.12307">
        <ele>2769</ele>
        <time>2021-06-19T22:03:44Z</time>
      </trkpt>
      <trkpt lat="42.40131" lon="2.12306">
        <ele>2768</ele>
        <time>2021-06-19T22:03:45Z</time>
      </trkpt>
      <trkpt lat="42.40142" lon="2.12298">
        <ele>2767</ele>
        <time>2021-06-19T22:03:48Z</time>
      </trkpt>
      <trkpt lat="42.4019" lon="2.1229">
        <ele>2759</ele>
        <time>2021-06-19T22:03:59Z</time>
      </trkpt>
      <trkpt lat="42.40217" lon="2.12294">
        <ele>2752</ele>
        <time>2021-06-19T22:04:06Z</time>
      </trkpt>
      <trkpt lat="42.40248" lon="2.12291">
        <ele>2746</ele>
        <time>2021-06-19T22:04:13Z</time>
      </trkpt>
      <trkpt lat="42.40286" lon="2.12295">
        <ele>2736</ele>
        <time>2021-06-19T22:04:22Z</time>
      </trkpt>
      <trkpt lat="42.40301" lon="2.12301">
        <ele>2732</ele>
        <time>2021-06-19T22:04:25Z</time>
      </trkpt>
      <trkpt lat="42.4033" lon="2.12306">
        <ele>2724</ele>
        <time>2021-06-19T22:04:32Z</time>
      </trkpt>
      <trkpt lat="42.40335" lon="2.12308">
        <ele>2723</ele>
        <time>2021-06-19T22:04:33Z</time>
      </trkpt>
      <trkpt lat="42.40336" lon="2.12313">
        <ele>2722</ele>
        <time>2021-06-19T22:04:34Z</time>
      </trkpt>
      <trkpt lat="42.40342" lon="2.12315">
        <ele>2720</ele>
        <time>2021-06-19T22:04:36Z</time>
      </trkpt>
      <trkpt lat="42.40355" lon="2.12313">
        <ele>2716</ele>
        <time>2021-06-19T22:04:39Z</time>
      </trkpt>
      <trkpt lat="42.40368" lon="2.12317">
        <ele>2711</ele>
        <time>2021-06-19T22:04:42Z</time>
      </trkpt>
      <trkpt lat="42.40403" lon="2.12313">
        <ele>2699</ele>
        <time>2021-06-19T22:04:50Z</time>
      </trkpt>
      <trkpt lat="42.40408" lon="2.12309">
        <ele>2698</ele>
        <time>2021-06-19T22:04:51Z</time>
      </trkpt>
      <trkpt lat="42.40417" lon="2.12313">
        <ele>2694</ele>
        <time>2021-06-19T22:04:54Z</time>
      </trkpt>
      <trkpt lat="42.40426" lon="2.12312">
        <ele>2692</ele>
        <time>2021-06-19T22:04:56Z</time>
      </trkpt>
      <trkpt lat="42.40435" lon="2.12302">
        <ele>2689</ele>
        <time>2021-06-19T22:04:58Z</time>
      </trkpt>
      <trkpt lat="42.4046" lon="2.12283">
        <ele>2681</ele>
        <time>2021-06-19T22:05:05Z</time>
      </trkpt>
      <trkpt lat="42.40467" lon="2.12292">
        <ele>2678</ele>
        <time>2021-06-19T22:05:07Z</time>
      </trkpt>
      <trkpt lat="42.40475" lon="2.12315">
        <ele>2676</ele>
        <time>2021-06-19T22:05:12Z</time>
      </trkpt>
      <trkpt lat="42.40484" lon="2.1232">
        <ele>2673</ele>
        <time>2021-06-19T22:05:14Z</time>
      </trkpt>
      <trkpt lat="42.40491" lon="2.12317">
        <ele>2671</ele>
        <time>2021-06-19T22:05:16Z</time>
      </trkpt>
      <trkpt lat="42.40513" lon="2.12323">
        <ele>2665</ele>
        <time>2021-06-19T22:05:21Z</time>
      </trkpt>
      <trkpt lat="42.40538" lon="2.12343">
        <ele>2658</ele>
        <time>2021-06-19T22:05:28Z</time>
      </trkpt>
      <trkpt lat="42.40549" lon="2.12348">
        <ele>2655</ele>
        <time>2021-06-19T22:05:31Z</time>
      </trkpt>
      <trkpt lat="42.40565" lon="2.12346">
        <ele>2653</ele>
        <time>2021-06-19T22:05:34Z</time>
      </trkpt>
      <trkpt lat="42.40571" lon="2.1235">
        <ele>2651</ele>
        <time>2021-06-19T22:05:36Z</time>
      </trkpt>
      <trkpt lat="42.40597" lon="2.12353">
        <ele>2644</ele>
        <time>2021-06-19T22:05:42Z</time>
      </trkpt>
      <trkpt lat="42.40622" lon="2.12352">
        <ele>2637</ele>
        <time>2021-06-19T22:05:48Z</time>
      </trkpt>
      <trkpt lat="42.40636" lon="2.12361">
        <ele>2633</ele>
        <time>2021-06-19T22:05:51Z</time>
      </trkpt>
      <trkpt lat="42.4064" lon="2.12371">
        <ele>2631</ele>
        <time>2021-06-19T22:05:53Z</time>
      </trkpt>
      <trkpt lat="42.40677" lon="2.12388">
        <ele>2623</ele>
        <time>2021-06-19T22:06:02Z</time>
      </trkpt>
      <trkpt lat="42.40689" lon="2.12398">
        <ele>2621</ele>
        <time>2021-06-19T22:06:06Z</time>
      </trkpt>
      <trkpt lat="42.40699" lon="2.124">
        <ele>2620</ele>
        <time>2021-06-19T22:06:08Z</time>
      </trkpt>
      <trkpt lat="42.40729" lon="2.1242">
        <ele>2617</ele>
        <time>2021-06-19T22:06:16Z</time>
      </trkpt>
      <trkpt lat="42.40745" lon="2.12435">
        <ele>2612</ele>
        <time>2021-06-19T22:06:20Z</time>
      </trkpt>
      <trkpt lat="42.40775" lon="2.1245">
        <ele>2605</ele>
        <time>2021-06-19T22:06:28Z</time>
      </trkpt>
      <trkpt lat="42.40813" lon="2.12464">
        <ele>2600</ele>
        <time>2021-06-19T22:06:37Z</time>
      </trkpt>
      <trkpt lat="42.4085" lon="2.12492">
        <ele>2603</ele>
        <time>2021-06-19T22:06:47Z</time>
      </trkpt>
      <trkpt lat="42.40877" lon="2.12497">
        <ele>2605</ele>
        <time>2021-06-19T22:06:53Z</time>
      </trkpt>
      <trkpt lat="42.40909" lon="2.12517">
        <ele>2609</ele>
        <time>2021-06-19T22:07:02Z</time>
      </trkpt>
      <trkpt lat="42.40913" lon="2.12527">
        <ele>2611</ele>
        <time>2021-06-19T22:07:04Z</time>
      </trkpt>
      <trkpt lat="42.40921" lon="2.12532">
        <ele>2612</ele>
        <time>2021-06-19T22:07:06Z</time>
      </trkpt>
      <trkpt lat="42.4093" lon="2.1255">
        <ele>2617</ele>
        <time>2021-06-19T22:07:09Z</time>
      </trkpt>
      <trkpt lat="42.40949" lon="2.12533">
        <ele>2618</ele>
        <time>2021-06-19T22:07:15Z</time>
      </trkpt>
      <trkpt lat="42.40958" lon="2.12549">
        <ele>2624</ele>
        <time>2021-06-19T22:07:18Z</time>
      </trkpt>
      <trkpt lat="42.4097" lon="2.12563">
        <ele>2632</ele>
        <time>2021-06-19T22:07:22Z</time>
      </trkpt>
      <trkpt lat="42.40987" lon="2.12579">
        <ele>2644</ele>
        <time>2021-06-19T22:07:27Z</time>
      </trkpt>
      <trkpt lat="42.40995" lon="2.1258">
        <ele>2647</ele>
        <time>2021-06-19T22:07:29Z</time>
      </trkpt>
      <trkpt lat="42.40995" lon="2.12609">
        <ele>2652</ele>
        <time>2021-06-19T22:07:34Z</time>
      </trkpt>
      <trkpt lat="42.41012" lon="2.12647">
        <ele>2663</ele>
        <time>2021-06-19T22:07:41Z</time>
      </trkpt>
      <trkpt lat="42.41026" lon="2.12694">
        <ele>2673</ele>
        <time>2021-06-19T22:07:50Z</time>
      </trkpt>
      <trkpt lat="42.41053" lon="2.12768">
        <ele>2693</ele>
        <time>2021-06-19T22:08:04Z</time>
      </trkpt>
      <trkpt lat="42.41062" lon="2.12786">
        <ele>2697</ele>
        <time>2021-06-19T22:08:08Z</time>
      </trkpt>
      <trkpt lat="42.41097" lon="2.12839">
        <ele>2708</ele>
        <time>2021-06-19T22:08:20Z</time>
      </trkpt>
      <trkpt lat="42.41107" lon="2.12844">
        <ele>2708</ele>
        <time>2021-06-19T22:08:23Z</time>
      </trkpt>
      <trkpt lat="42.41121" lon="2.12842">
        <ele>2711</ele>
        <time>2021-06-19T22:08:26Z</time>
      </trkpt>
      <trkpt lat="42.41136" lon="2.12836">
        <ele>2716</ele>
        <time>2021-06-19T22:08:30Z</time>
      </trkpt>
      <trkpt lat="42.41144" lon="2.12836">
        <ele>2717</ele>
        <time>2021-06-19T22:08:32Z</time>
      </trkpt>
      <trkpt lat="42.41178" lon="2.12851">
        <ele>2717</ele>
        <time>2021-06-19T22:08:40Z</time>
      </trkpt>
      <trkpt lat="42.41195" lon="2.12871">
        <ele>2713</ele>
        <time>2021-06-19T22:08:45Z</time>
      </trkpt>
      <trkpt lat="42.412" lon="2.12872">
        <ele>2713</ele>
        <time>2021-06-19T22:08:46Z</time>
      </trkpt>
      <trkpt lat="42.41208" lon="2.12882">
        <ele>2713</ele>
        <time>2021-06-19T22:08:49Z</time>
      </trkpt>
      <trkpt lat="42.41242" lon="2.12897">
        <ele>2717</ele>
        <time>2021-06-19T22:08:57Z</time>
      </trkpt>
      <trkpt lat="42.41275" lon="2.12926">
        <ele>2719</ele>
        <time>2021-06-19T22:09:06Z</time>
      </trkpt>
      <trkpt lat="42.41303" lon="2.12979">
        <ele>2722</ele>
        <time>2021-06-19T22:09:18Z</time>
      </trkpt>
      <trkpt lat="42.41308" lon="2.13008">
        <ele>2726</ele>
        <time>2021-06-19T22:09:23Z</time>
      </trkpt>
      <trkpt lat="42.41321" lon="2.13029">
        <ele>2733</ele>
        <time>2021-06-19T22:09:27Z</time>
      </trkpt>
      <trkpt lat="42.41322" lon="2.1304">
        <ele>2735</ele>
        <time>2021-06-19T22:09:29Z</time>
      </trkpt>
      <trkpt lat="42.41336" lon="2.13049">
        <ele>2741</ele>
        <time>2021-06-19T22:09:33Z</time>
      </trkpt>
      <trkpt lat="42.4134" lon="2.13063">
        <ele>2745</ele>
        <time>2021-06-19T22:09:36Z</time>
      </trkpt>
      <trkpt lat="42.41346" lon="2.13072">
        <ele>2748</ele>
        <time>2021-06-19T22:09:38Z</time>
      </trkpt>
      <trkpt lat="42.41345" lon="2.13078">
        <ele>2749</ele>
        <time>2021-06-19T22:09:39Z</time>
      </trkpt>
      <trkpt lat="42.41349" lon="2.1308">
        <ele>2751</ele>
        <time>2021-06-19T22:09:40Z</time>
      </trkpt>
      <trkpt lat="42.41351" lon="2.1309">
        <ele>2753</ele>
        <time>2021-06-19T22:09:42Z</time>
      </trkpt>
      <trkpt lat="42.41357" lon="2.13101">
        <ele>2756</ele>
        <time>2021-06-19T22:09:44Z</time>
      </trkpt>
      <trkpt lat="42.41367" lon="2.13113">
        <ele>2761</ele>
        <time>2021-06-19T22:09:47Z</time>
      </trkpt>
      <trkpt lat="42.41381" lon="2.13116">
        <ele>2766</ele>
        <time>2021-06-19T22:09:50Z</time>
      </trkpt>
      <trkpt lat="42.41386" lon="2.13123">
        <ele>2769</ele>
        <time>2021-06-19T22:09:52Z</time>
      </trkpt>
      <trkpt lat="42.41389" lon="2.13123">
        <ele>2770</ele>
        <time>2021-06-19T22:09:53Z</time>
      </trkpt>
      <trkpt lat="42.41387" lon="2.13132">
        <ele>2771</ele>
        <time>2021-06-19T22:09:54Z</time>
      </trkpt>
      <trkpt lat="42.41393" lon="2.13134">
        <ele>2774</ele>
        <time>2021-06-19T22:09:56Z</time>
      </trkpt>
      <trkpt lat="42.41394" lon="2.13141">
        <ele>2776</ele>
        <time>2021-06-19T22:09:57Z</time>
      </trkpt>
      <trkpt lat="42.41406" lon="2.13157">
        <ele>2784</ele>
        <time>2021-06-19T22:10:01Z</time>
      </trkpt>
      <trkpt lat="42.41408" lon="2.13165">
        <ele>2787</ele>
        <time>2021-06-19T22:10:02Z</time>
      </trkpt>
      <trkpt lat="42.41419" lon="2.13182">
        <ele>2794</ele>
        <time>2021-06-19T22:10:06Z</time>
      </trkpt>
      <trkpt lat="42.41418" lon="2.13198">
        <ele>2796</ele>
        <time>2021-06-19T22:10:09Z</time>
      </trkpt>
      <trkpt lat="42.4143" lon="2.13231">
        <ele>2801</ele>
        <time>2021-06-19T22:10:15Z</time>
      </trkpt>
      <trkpt lat="42.41442" lon="2.1324">
        <ele>2802</ele>
        <time>2021-06-19T22:10:19Z</time>
      </trkpt>
      <trkpt lat="42.41452" lon="2.13268">
        <ele>2803</ele>
        <time>2021-06-19T22:10:24Z</time>
      </trkpt>
      <trkpt lat="42.41444" lon="2.13269">
        <ele>2804</ele>
        <time>2021-06-19T22:10:26Z</time>
      </trkpt>
      <trkpt lat="42.41442" lon="2.13272">
        <ele>2804</ele>
        <time>2021-06-19T22:10:27Z</time>
      </trkpt>
      <trkpt lat="42.41442" lon="2.13285">
        <ele>2805</ele>
        <time>2021-06-19T22:10:29Z</time>
      </trkpt>
      <trkpt lat="42.41435" lon="2.13305">
        <ele>2806</ele>
        <time>2021-06-19T22:10:33Z</time>
      </trkpt>
      <trkpt lat="42.41432" lon="2.13322">
        <ele>2807</ele>
        <time>2021-06-19T22:10:36Z</time>
      </trkpt>
      <trkpt lat="42.41435" lon="2.1334">
        <ele>2807</ele>
        <time>2021-06-19T22:10:39Z</time>
      </trkpt>
      <trkpt lat="42.41445" lon="2.13347">
        <ele>2806</ele>
        <time>2021-06-19T22:10:41Z</time>
      </trkpt>
      <trkpt lat="42.41476" lon="2.13396">
        <ele>2806</ele>
        <time>2021-06-19T22:10:53Z</time>
      </trkpt>
      <trkpt lat="42.41492" lon="2.13434">
        <ele>2808</ele>
        <time>2021-06-19T22:11:00Z</time>
      </trkpt>
      <trkpt lat="42.41502" lon="2.13441">
        <ele>2809</ele>
        <time>2021-06-19T22:11:03Z</time>
      </trkpt>
      <trkpt lat="42.41507" lon="2.13466">
        <ele>2807</ele>
        <time>2021-06-19T22:11:07Z</time>
      </trkpt>
      <trkpt lat="42.41503" lon="2.1348">
        <ele>2808</ele>
        <time>2021-06-19T22:11:10Z</time>
      </trkpt>
      <trkpt lat="42.41504" lon="2.13486">
        <ele>2807</ele>
        <time>2021-06-19T22:11:11Z</time>
      </trkpt>
      <trkpt lat="42.41519" lon="2.13534">
        <ele>2800</ele>
        <time>2021-06-19T22:11:20Z</time>
      </trkpt>
      <trkpt lat="42.41522" lon="2.13558">
        <ele>2797</ele>
        <time>2021-06-19T22:11:24Z</time>
      </trkpt>
      <trkpt lat="42.41533" lon="2.13606">
        <ele>2790</ele>
        <time>2021-06-19T22:11:33Z</time>
      </trkpt>
      <trkpt lat="42.41536" lon="2.13637">
        <ele>2785</ele>
        <time>2021-06-19T22:11:38Z</time>
      </trkpt>
      <trkpt lat="42.41555" lon="2.13698">
        <ele>2780</ele>
        <time>2021-06-19T22:11:49Z</time>
      </trkpt>
      <trkpt lat="42.41559" lon="2.13718">
        <ele>2779</ele>
        <time>2021-06-19T22:11:53Z</time>
      </trkpt>
      <trkpt lat="42.41565" lon="2.13733">
        <ele>2780</ele>
        <time>2021-06-19T22:11:56Z</time>
      </trkpt>
      <trkpt lat="42.41579" lon="2.13753">
        <ele>2784</ele>
        <time>2021-06-19T22:12:01Z</time>
      </trkpt>
      <trkpt lat="42.4158" lon="2.13761">
        <ele>2783</ele>
        <time>2021-06-19T22:12:02Z</time>
      </trkpt>
      <trkpt lat="42.41588" lon="2.13772">
        <ele>2780</ele>
        <time>2021-06-19T22:12:05Z</time>
      </trkpt>
      <trkpt lat="42.4159" lon="2.13795">
        <ele>2775</ele>
        <time>2021-06-19T22:12:09Z</time>
      </trkpt>
      <trkpt lat="42.41604" lon="2.13829">
        <ele>2764</ele>
        <time>2021-06-19T22:12:16Z</time>
      </trkpt>
      <trkpt lat="42.41607" lon="2.13859">
        <ele>2757</ele>
        <time>2021-06-19T22:12:21Z</time>
      </trkpt>
      <trkpt lat="42.41616" lon="2.13884">
        <ele>2751</ele>
        <time>2021-06-19T22:12:26Z</time>
      </trkpt>
      <trkpt lat="42.41616" lon="2.13931">
        <ele>2745</ele>
        <time>2021-06-19T22:12:34Z</time>
      </trkpt>
      <trkpt lat="42.4162" lon="2.13937">
        <ele>2744</ele>
        <time>2021-06-19T22:12:35Z</time>
      </trkpt>
      <trkpt lat="42.41622" lon="2.13992">
        <ele>2739</ele>
        <time>2021-06-19T22:12:45Z</time>
      </trkpt>
      <trkpt lat="42.41628" lon="2.14017">
        <ele>2738</ele>
        <time>2021-06-19T22:12:49Z</time>
      </trkpt>
      <trkpt lat="42.41626" lon="2.14027">
        <ele>2739</ele>
        <time>2021-06-19T22:12:51Z</time>
      </trkpt>
      <trkpt lat="42.41617" lon="2.14046">
        <ele>2741</ele>
        <time>2021-06-19T22:12:55Z</time>
      </trkpt>
      <trkpt lat="42.41612" lon="2.14063">
        <ele>2742</ele>
        <time>2021-06-19T22:12:58Z</time>
      </trkpt>
      <trkpt lat="42.41612" lon="2.14071">
        <ele>2742</ele>
        <time>2021-06-19T22:12:59Z</time>
      </trkpt>
      <trkpt lat="42.41607" lon="2.14077">
        <ele>2743</ele>
        <time>2021-06-19T22:13:01Z</time>
      </trkpt>
      <trkpt lat="42.41606" lon="2.14102">
        <ele>2746</ele>
        <time>2021-06-19T22:13:05Z</time>
      </trkpt>
      <trkpt lat="42.41612" lon="2.14164">
        <ele>2754</ele>
        <time>2021-06-19T22:13:16Z</time>
      </trkpt>
      <trkpt lat="42.41615" lon="2.1417">
        <ele>2755</ele>
        <time>2021-06-19T22:13:17Z</time>
      </trkpt>
      <trkpt lat="42.41614" lon="2.14189">
        <ele>2757</ele>
        <time>2021-06-19T22:13:20Z</time>
      </trkpt>
      <trkpt lat="42.41604" lon="2.14223">
        <ele>2761</ele>
        <time>2021-06-19T22:13:27Z</time>
      </trkpt>
      <trkpt lat="42.41607" lon="2.14255">
        <ele>2764</ele>
        <time>2021-06-19T22:13:32Z</time>
      </trkpt>
      <trkpt lat="42.41617" lon="2.14253">
        <ele>2766</ele>
        <time>2021-06-19T22:13:35Z</time>
      </trkpt>
      <trkpt lat="42.41631" lon="2.14267">
        <ele>2767</ele>
        <time>2021-06-19T22:13:39Z</time>
      </trkpt>
      <trkpt lat="42.41653" lon="2.14297">
        <ele>2772</ele>
        <time>2021-06-19T22:13:46Z</time>
      </trkpt>
      <trkpt lat="42.41665" lon="2.14306">
        <ele>2775</ele>
        <time>2021-06-19T22:13:49Z</time>
      </trkpt>
      <trkpt lat="42.41687" lon="2.14341">
        <ele>2771</ele>
        <time>2021-06-19T22:13:57Z</time>
      </trkpt>
      <trkpt lat="42.41696" lon="2.14341">
        <ele>2769</ele>
        <time>2021-06-19T22:13:59Z</time>
      </trkpt>
      <trkpt lat="42.41715" lon="2.14359">
        <ele>2764</ele>
        <time>2021-06-19T22:14:05Z</time>
      </trkpt>
      <trkpt lat="42.4172" lon="2.14361">
        <ele>2763</ele>
        <time>2021-06-19T22:14:06Z</time>
      </trkpt>
      <trkpt lat="42.41742" lon="2.14399">
        <ele>2760</ele>
        <time>2021-06-19T22:14:14Z</time>
      </trkpt>
      <trkpt lat="42.41753" lon="2.14405">
        <ele>2759</ele>
        <time>2021-06-19T22:14:17Z</time>
      </trkpt>
      <trkpt lat="42.41761" lon="2.14413">
        <ele>2757</ele>
        <time>2021-06-19T22:14:19Z</time>
      </trkpt>
      <trkpt lat="42.41771" lon="2.14441">
        <ele>2751</ele>
        <time>2021-06-19T22:14:25Z</time>
      </trkpt>
      <trkpt lat="42.41779" lon="2.14448">
        <ele>2748</ele>
        <time>2021-06-19T22:14:27Z</time>
      </trkpt>
      <trkpt lat="42.41794" lon="2.1447">
        <ele>2744</ele>
        <time>2021-06-19T22:14:32Z</time>
      </trkpt>
      <trkpt lat="42.4181" lon="2.14507">
        <ele>2744</ele>
        <time>2021-06-19T22:14:39Z</time>
      </trkpt>
      <trkpt lat="42.41834" lon="2.14607">
        <ele>2751</ele>
        <time>2021-06-19T22:14:58Z</time>
      </trkpt>
      <trkpt lat="42.41843" lon="2.14627">
        <ele>2751</ele>
        <time>2021-06-19T22:15:02Z</time>
      </trkpt>
      <trkpt lat="42.4185" lon="2.14657">
        <ele>2752</ele>
        <time>2021-06-19T22:15:07Z</time>
      </trkpt>
      <trkpt lat="42.41858" lon="2.14669">
        <ele>2752</ele>
        <time>2021-06-19T22:15:10Z</time>
      </trkpt>
      <trkpt lat="42.41865" lon="2.14696">
        <ele>2748</ele>
        <time>2021-06-19T22:15:15Z</time>
      </trkpt>
      <trkpt lat="42.41877" lon="2.1471">
        <ele>2747</ele>
        <time>2021-06-19T22:15:18Z</time>
      </trkpt>
      <trkpt lat="42.41893" lon="2.1472">
        <ele>2749</ele>
        <time>2021-06-19T22:15:23Z</time>
      </trkpt>
      <trkpt lat="42.41902" lon="2.1473">
        <ele>2750</ele>
        <time>2021-06-19T22:15:25Z</time>
      </trkpt>
      <trkpt lat="42.41917" lon="2.14737">
        <ele>2752</ele>
        <time>2021-06-19T22:15:29Z</time>
      </trkpt>
      <trkpt lat="42.41934" lon="2.14755">
        <ele>2747</ele>
        <time>2021-06-19T22:15:34Z</time>
      </trkpt>
      <trkpt lat="42.41942" lon="2.1476">
        <ele>2744</ele>
        <time>2021-06-19T22:15:36Z</time>
      </trkpt>
      <trkpt lat="42.41947" lon="2.14759">
        <ele>2744</ele>
        <time>2021-06-19T22:15:37Z</time>
      </trkpt>
      <trkpt lat="42.41961" lon="2.14772">
        <ele>2738</ele>
        <time>2021-06-19T22:15:41Z</time>
      </trkpt>
      <trkpt lat="42.41974" lon="2.14777">
        <ele>2736</ele>
        <time>2021-06-19T22:15:44Z</time>
      </trkpt>
      <trkpt lat="42.41991" lon="2.14791">
        <ele>2731</ele>
        <time>2021-06-19T22:15:49Z</time>
      </trkpt>
      <trkpt lat="42.42012" lon="2.14796">
        <ele>2727</ele>
        <time>2021-06-19T22:15:54Z</time>
      </trkpt>
      <trkpt lat="42.42017" lon="2.14804">
        <ele>2724</ele>
        <time>2021-06-19T22:15:56Z</time>
      </trkpt>
      <trkpt lat="42.42038" lon="2.14825">
        <ele>2716</ele>
        <time>2021-06-19T22:16:02Z</time>
      </trkpt>
      <trkpt lat="42.42038" lon="2.14832">
        <ele>2715</ele>
        <time>2021-06-19T22:16:03Z</time>
      </trkpt>
      <trkpt lat="42.42044" lon="2.14833">
        <ele>2713</ele>
        <time>2021-06-19T22:16:05Z</time>
      </trkpt>
      <trkpt lat="42.42051" lon="2.14848">
        <ele>2709</ele>
        <time>2021-06-19T22:16:08Z</time>
      </trkpt>
      <trkpt lat="42.42078" lon="2.14861">
        <ele>2702</ele>
        <time>2021-06-19T22:16:14Z</time>
      </trkpt>
      <trkpt lat="42.42081" lon="2.14874">
        <ele>2699</ele>
        <time>2021-06-19T22:16:17Z</time>
      </trkpt>
      <trkpt lat="42.42078" lon="2.14894">
        <ele>2697</ele>
        <time>2021-06-19T22:16:20Z</time>
      </trkpt>
      <trkpt lat="42.42078" lon="2.14952">
        <ele>2690</ele>
        <time>2021-06-19T22:16:30Z</time>
      </trkpt>
      <trkpt lat="42.42086" lon="2.15">
        <ele>2684</ele>
        <time>2021-06-19T22:16:39Z</time>
      </trkpt>
      <trkpt lat="42.42102" lon="2.15">
        <ele>2678</ele>
        <time>2021-06-19T22:16:42Z</time>
      </trkpt>
      <trkpt lat="42.42107" lon="2.15079">
        <ele>2681</ele>
        <time>2021-06-19T22:16:56Z</time>
      </trkpt>
      <trkpt lat="42.42114" lon="2.15108">
        <ele>2683</ele>
        <time>2021-06-19T22:17:01Z</time>
      </trkpt>
      <trkpt lat="42.4212" lon="2.15123">
        <ele>2683</ele>
        <time>2021-06-19T22:17:04Z</time>
      </trkpt>
      <trkpt lat="42.42124" lon="2.15158">
        <ele>2687</ele>
        <time>2021-06-19T22:17:10Z</time>
      </trkpt>
      <trkpt lat="42.4214" lon="2.15249">
        <ele>2691</ele>
        <time>2021-06-19T22:17:27Z</time>
      </trkpt>
      <trkpt lat="42.42158" lon="2.15338">
        <ele>2701</ele>
        <time>2021-06-19T22:17:42Z</time>
      </trkpt>
      <trkpt lat="42.42169" lon="2.15352">
        <ele>2703</ele>
        <time>2021-06-19T22:17:46Z</time>
      </trkpt>
      <trkpt lat="42.42178" lon="2.15394">
        <ele>2706</ele>
        <time>2021-06-19T22:17:53Z</time>
      </trkpt>
      <trkpt lat="42.42185" lon="2.1541">
        <ele>2707</ele>
        <time>2021-06-19T22:17:57Z</time>
      </trkpt>
      <trkpt lat="42.42185" lon="2.1545">
        <ele>2709</ele>
        <time>2021-06-19T22:18:04Z</time>
      </trkpt>
      <trkpt lat="42.4218" lon="2.15459">
        <ele>2710</ele>
        <time>2021-06-19T22:18:06Z</time>
      </trkpt>
      <trkpt lat="42.42193" lon="2.15484">
        <ele>2711</ele>
        <time>2021-06-19T22:18:11Z</time>
      </trkpt>
      <trkpt lat="42.42202" lon="2.15512">
        <ele>2713</ele>
        <time>2021-06-19T22:18:16Z</time>
      </trkpt>
      <trkpt lat="42.42221" lon="2.15606">
        <ele>2723</ele>
        <time>2021-06-19T22:18:33Z</time>
      </trkpt>
      <trkpt lat="42.42234" lon="2.15633">
        <ele>2729</ele>
        <time>2021-06-19T22:18:38Z</time>
      </trkpt>
      <trkpt lat="42.42237" lon="2.15649">
        <ele>2730</ele>
        <time>2021-06-19T22:18:41Z</time>
      </trkpt>
      <trkpt lat="42.42244" lon="2.15666">
        <ele>2734</ele>
        <time>2021-06-19T22:18:45Z</time>
      </trkpt>
      <trkpt lat="42.42246" lon="2.15713">
        <ele>2736</ele>
        <time>2021-06-19T22:18:53Z</time>
      </trkpt>
      <trkpt lat="42.42251" lon="2.15749">
        <ele>2739</ele>
        <time>2021-06-19T22:18:59Z</time>
      </trkpt>
      <trkpt lat="42.42241" lon="2.15785">
        <ele>2731</ele>
        <time>2021-06-19T22:19:06Z</time>
      </trkpt>
      <trkpt lat="42.4224" lon="2.15794">
        <ele>2730</ele>
        <time>2021-06-19T22:19:07Z</time>
      </trkpt>
      <trkpt lat="42.42244" lon="2.15833">
        <ele>2730</ele>
        <time>2021-06-19T22:19:14Z</time>
      </trkpt>
      <trkpt lat="42.4223" lon="2.1588">
        <ele>2721</ele>
        <time>2021-06-19T22:19:23Z</time>
      </trkpt>
      <trkpt lat="42.42228" lon="2.15912">
        <ele>2719</ele>
        <time>2021-06-19T22:19:28Z</time>
      </trkpt>
      <trkpt lat="42.42236" lon="2.15963">
        <ele>2719</ele>
        <time>2021-06-19T22:19:37Z</time>
      </trkpt>
      <trkpt lat="42.42242" lon="2.16052">
        <ele>2718</ele>
        <time>2021-06-19T22:19:53Z</time>
      </trkpt>
      <trkpt lat="42.42257" lon="2.16112">
        <ele>2718</ele>
        <time>2021-06-19T22:20:04Z</time>
      </trkpt>
      <trkpt lat="42.42256" lon="2.16149">
        <ele>2717</ele>
        <time>2021-06-19T22:20:10Z</time>
      </trkpt>
      <trkpt lat="42.42265" lon="2.16224">
        <ele>2715</ele>
        <time>2021-06-19T22:20:23Z</time>
      </trkpt>
      <trkpt lat="42.42274" lon="2.16249">
        <ele>2713</ele>
        <time>2021-06-19T22:20:28Z</time>
      </trkpt>
      <trkpt lat="42.42276" lon="2.16441">
        <ele>2759</ele>
        <time>2021-06-19T22:21:01Z</time>
      </trkpt>
      <trkpt lat="42.42334" lon="2.16623">
        <ele>2815</ele>
        <time>2021-06-19T22:21:35Z</time>
      </trkpt>
      <trkpt lat="42.42402" lon="2.16729">
        <ele>2836</ele>
        <time>2021-06-19T22:21:59Z</time>
      </trkpt>
      <trkpt lat="42.4241" lon="2.16722">
        <ele>2838</ele>
        <time>2021-06-19T22:22:02Z</time>
      </trkpt>
      <trkpt lat="42.42415" lon="2.16736">
        <ele>2841</ele>
        <time>2021-06-19T22:22:04Z</time>
      </trkpt>
      <trkpt lat="42.42489" lon="2.16762">
        <ele>2838</ele>
        <time>2021-06-19T22:22:22Z</time>
      </trkpt>
      <trkpt lat="42.42464" lon="2.16796">
        <ele>2833</ele>
        <time>2021-06-19T22:22:30Z</time>
      </trkpt>
      <trkpt lat="42.42459" lon="2.16819">
        <ele>2829</ele>
        <time>2021-06-19T22:22:35Z</time>
      </trkpt>
      <trkpt lat="42.42447" lon="2.16837">
        <ele>2824</ele>
        <time>2021-06-19T22:22:39Z</time>
      </trkpt>
      <trkpt lat="42.42431" lon="2.1685">
        <ele>2818</ele>
        <time>2021-06-19T22:22:43Z</time>
      </trkpt>
      <trkpt lat="42.4242" lon="2.16883">
        <ele>2804</ele>
        <time>2021-06-19T22:22:49Z</time>
      </trkpt>
      <trkpt lat="42.42375" lon="2.1694">
        <ele>2777</ele>
        <time>2021-06-19T22:23:04Z</time>
      </trkpt>
      <trkpt lat="42.4234" lon="2.16959">
        <ele>2769</ele>
        <time>2021-06-19T22:23:13Z</time>
      </trkpt>
      <trkpt lat="42.42339" lon="2.16968">
        <ele>2766</ele>
        <time>2021-06-19T22:23:14Z</time>
      </trkpt>
      <trkpt lat="42.42334" lon="2.16971">
        <ele>2765</ele>
        <time>2021-06-19T22:23:15Z</time>
      </trkpt>
      <trkpt lat="42.42335" lon="2.16979">
        <ele>2763</ele>
        <time>2021-06-19T22:23:17Z</time>
      </trkpt>
      <trkpt lat="42.42326" lon="2.17033">
        <ele>2745</ele>
        <time>2021-06-19T22:23:26Z</time>
      </trkpt>
      <trkpt lat="42.42313" lon="2.17053">
        <ele>2738</ele>
        <time>2021-06-19T22:23:31Z</time>
      </trkpt>
      <trkpt lat="42.42311" lon="2.17068">
        <ele>2734</ele>
        <time>2021-06-19T22:23:34Z</time>
      </trkpt>
      <trkpt lat="42.42303" lon="2.17089">
        <ele>2727</ele>
        <time>2021-06-19T22:23:38Z</time>
      </trkpt>
      <trkpt lat="42.42296" lon="2.17099">
        <ele>2723</ele>
        <time>2021-06-19T22:23:40Z</time>
      </trkpt>
      <trkpt lat="42.42279" lon="2.17151">
        <ele>2704</ele>
        <time>2021-06-19T22:23:50Z</time>
      </trkpt>
      <trkpt lat="42.42268" lon="2.17175">
        <ele>2697</ele>
        <time>2021-06-19T22:23:55Z</time>
      </trkpt>
      <trkpt lat="42.42263" lon="2.17191">
        <ele>2694</ele>
        <time>2021-06-19T22:23:58Z</time>
      </trkpt>
      <trkpt lat="42.42259" lon="2.17224">
        <ele>2686</ele>
        <time>2021-06-19T22:24:03Z</time>
      </trkpt>
      <trkpt lat="42.42236" lon="2.17287">
        <ele>2663</ele>
        <time>2021-06-19T22:24:16Z</time>
      </trkpt>
      <trkpt lat="42.42239" lon="2.17318">
        <ele>2655</ele>
        <time>2021-06-19T22:24:21Z</time>
      </trkpt>
      <trkpt lat="42.42237" lon="2.17354">
        <ele>2648</ele>
        <time>2021-06-19T22:24:27Z</time>
      </trkpt>
      <trkpt lat="42.42232" lon="2.17383">
        <ele>2644</ele>
        <time>2021-06-19T22:24:32Z</time>
      </trkpt>
      <trkpt lat="42.42203" lon="2.17439">
        <ele>2635</ele>
        <time>2021-06-19T22:24:44Z</time>
      </trkpt>
      <trkpt lat="42.42194" lon="2.17472">
        <ele>2636</ele>
        <time>2021-06-19T22:24:50Z</time>
      </trkpt>
      <trkpt lat="42.42186" lon="2.17491">
        <ele>2638</ele>
        <time>2021-06-19T22:24:54Z</time>
      </trkpt>
      <trkpt lat="42.42186" lon="2.17502">
        <ele>2639</ele>
        <time>2021-06-19T22:24:56Z</time>
      </trkpt>
      <trkpt lat="42.42175" lon="2.17521">
        <ele>2639</ele>
        <time>2021-06-19T22:25:00Z</time>
      </trkpt>
      <trkpt lat="42.42169" lon="2.17543">
        <ele>2640</ele>
        <time>2021-06-19T22:25:04Z</time>
      </trkpt>
      <trkpt lat="42.42154" lon="2.1756">
        <ele>2636</ele>
        <time>2021-06-19T22:25:09Z</time>
      </trkpt>
      <trkpt lat="42.42129" lon="2.17595">
        <ele>2634</ele>
        <time>2021-06-19T22:25:17Z</time>
      </trkpt>
      <trkpt lat="42.42125" lon="2.17607">
        <ele>2633</ele>
        <time>2021-06-19T22:25:19Z</time>
      </trkpt>
      <trkpt lat="42.4211" lon="2.17628">
        <ele>2635</ele>
        <time>2021-06-19T22:25:24Z</time>
      </trkpt>
      <trkpt lat="42.42095" lon="2.17636">
        <ele>2638</ele>
        <time>2021-06-19T22:25:28Z</time>
      </trkpt>
      <trkpt lat="42.42073" lon="2.17671">
        <ele>2648</ele>
        <time>2021-06-19T22:25:36Z</time>
      </trkpt>
      <trkpt lat="42.42057" lon="2.17689">
        <ele>2649</ele>
        <time>2021-06-19T22:25:41Z</time>
      </trkpt>
      <trkpt lat="42.42033" lon="2.17703">
        <ele>2653</ele>
        <time>2021-06-19T22:25:47Z</time>
      </trkpt>
      <trkpt lat="42.42015" lon="2.17727">
        <ele>2661</ele>
        <time>2021-06-19T22:25:53Z</time>
      </trkpt>
      <trkpt lat="42.42008" lon="2.17746">
        <ele>2669</ele>
        <time>2021-06-19T22:25:56Z</time>
      </trkpt>
      <trkpt lat="42.41988" lon="2.1778">
        <ele>2680</ele>
        <time>2021-06-19T22:26:04Z</time>
      </trkpt>
      <trkpt lat="42.41985" lon="2.17794">
        <ele>2684</ele>
        <time>2021-06-19T22:26:06Z</time>
      </trkpt>
      <trkpt lat="42.41986" lon="2.17801">
        <ele>2685</ele>
        <time>2021-06-19T22:26:08Z</time>
      </trkpt>
      <trkpt lat="42.41983" lon="2.17805">
        <ele>2687</ele>
        <time>2021-06-19T22:26:09Z</time>
      </trkpt>
      <trkpt lat="42.41987" lon="2.17825">
        <ele>2691</ele>
        <time>2021-06-19T22:26:12Z</time>
      </trkpt>
      <trkpt lat="42.41991" lon="2.17831">
        <ele>2692</ele>
        <time>2021-06-19T22:26:14Z</time>
      </trkpt>
      <trkpt lat="42.41987" lon="2.17842">
        <ele>2694</ele>
        <time>2021-06-19T22:26:16Z</time>
      </trkpt>
      <trkpt lat="42.41975" lon="2.17848">
        <ele>2698</ele>
        <time>2021-06-19T22:26:19Z</time>
      </trkpt>
      <trkpt lat="42.41971" lon="2.17854">
        <ele>2699</ele>
        <time>2021-06-19T22:26:20Z</time>
      </trkpt>
      <trkpt lat="42.41967" lon="2.17855">
        <ele>2701</ele>
        <time>2021-06-19T22:26:21Z</time>
      </trkpt>
      <trkpt lat="42.41965" lon="2.17858">
        <ele>2702</ele>
        <time>2021-06-19T22:26:22Z</time>
      </trkpt>
      <trkpt lat="42.41967" lon="2.17863">
        <ele>2702</ele>
        <time>2021-06-19T22:26:23Z</time>
      </trkpt>
      <trkpt lat="42.41961" lon="2.17866">
        <ele>2704</ele>
        <time>2021-06-19T22:26:24Z</time>
      </trkpt>
      <trkpt lat="42.41961" lon="2.17869">
        <ele>2705</ele>
        <time>2021-06-19T22:26:25Z</time>
      </trkpt>
      <trkpt lat="42.41956" lon="2.17872">
        <ele>2707</ele>
        <time>2021-06-19T22:26:26Z</time>
      </trkpt>
      <trkpt lat="42.41954" lon="2.17871">
        <ele>2708</ele>
        <time>2021-06-19T22:26:27Z</time>
      </trkpt>
      <trkpt lat="42.41941" lon="2.17881">
        <ele>2715</ele>
        <time>2021-06-19T22:26:30Z</time>
      </trkpt>
      <trkpt lat="42.41936" lon="2.17881">
        <ele>2717</ele>
        <time>2021-06-19T22:26:31Z</time>
      </trkpt>
      <trkpt lat="42.41938" lon="2.17894">
        <ele>2719</ele>
        <time>2021-06-19T22:26:34Z</time>
      </trkpt>
      <trkpt lat="42.41936" lon="2.17906">
        <ele>2724</ele>
        <time>2021-06-19T22:26:36Z</time>
      </trkpt>
      <trkpt lat="42.41931" lon="2.1791">
        <ele>2727</ele>
        <time>2021-06-19T22:26:37Z</time>
      </trkpt>
      <trkpt lat="42.4193" lon="2.17928">
        <ele>2730</ele>
        <time>2021-06-19T22:26:40Z</time>
      </trkpt>
      <trkpt lat="42.41921" lon="2.17968">
        <ele>2736</ele>
        <time>2021-06-19T22:26:47Z</time>
      </trkpt>
      <trkpt lat="42.41916" lon="2.17975">
        <ele>2739</ele>
        <time>2021-06-19T22:26:49Z</time>
      </trkpt>
      <trkpt lat="42.41913" lon="2.17985">
        <ele>2740</ele>
        <time>2021-06-19T22:26:51Z</time>
      </trkpt>
      <trkpt lat="42.41904" lon="2.17995">
        <ele>2745</ele>
        <time>2021-06-19T22:26:54Z</time>
      </trkpt>
      <trkpt lat="42.4188" lon="2.18036">
        <ele>2758</ele>
        <time>2021-06-19T22:27:03Z</time>
      </trkpt>
      <trkpt lat="42.4188" lon="2.18045">
        <ele>2758</ele>
        <time>2021-06-19T22:27:04Z</time>
      </trkpt>
      <trkpt lat="42.41857" lon="2.18092">
        <ele>2771</ele>
        <time>2021-06-19T22:27:14Z</time>
      </trkpt>
      <trkpt lat="42.41857" lon="2.181">
        <ele>2771</ele>
        <time>2021-06-19T22:27:15Z</time>
      </trkpt>
      <trkpt lat="42.41849" lon="2.18097">
        <ele>2775</ele>
        <time>2021-06-19T22:27:17Z</time>
      </trkpt>
      <trkpt lat="42.41847" lon="2.18104">
        <ele>2776</ele>
        <time>2021-06-19T22:27:18Z</time>
      </trkpt>
      <trkpt lat="42.41848" lon="2.18116">
        <ele>2776</ele>
        <time>2021-06-19T22:27:21Z</time>
      </trkpt>
      <trkpt lat="42.41844" lon="2.1812">
        <ele>2778</ele>
        <time>2021-06-19T22:27:22Z</time>
      </trkpt>
      <trkpt lat="42.41833" lon="2.18143">
        <ele>2784</ele>
        <time>2021-06-19T22:27:26Z</time>
      </trkpt>
      <trkpt lat="42.41834" lon="2.18174">
        <ele>2783</ele>
        <time>2021-06-19T22:27:32Z</time>
      </trkpt>
      <trkpt lat="42.41838" lon="2.18197">
        <ele>2781</ele>
        <time>2021-06-19T22:27:36Z</time>
      </trkpt>
      <trkpt lat="42.41848" lon="2.18231">
        <ele>2777</ele>
        <time>2021-06-19T22:27:42Z</time>
      </trkpt>
      <trkpt lat="42.41863" lon="2.18264">
        <ele>2774</ele>
        <time>2021-06-19T22:27:49Z</time>
      </trkpt>
      <trkpt lat="42.41866" lon="2.18277">
        <ele>2774</ele>
        <time>2021-06-19T22:27:51Z</time>
      </trkpt>
      <trkpt lat="42.41879" lon="2.18293">
        <ele>2773</ele>
        <time>2021-06-19T22:27:55Z</time>
      </trkpt>
      <trkpt lat="42.41922" lon="2.18376">
        <ele>2781</ele>
        <time>2021-06-19T22:28:13Z</time>
      </trkpt>
      <trkpt lat="42.4193" lon="2.18397">
        <ele>2781</ele>
        <time>2021-06-19T22:28:17Z</time>
      </trkpt>
      <trkpt lat="42.41948" lon="2.1842">
        <ele>2777</ele>
        <time>2021-06-19T22:28:23Z</time>
      </trkpt>
      <trkpt lat="42.41925" lon="2.18434">
        <ele>2781</ele>
        <time>2021-06-19T22:28:29Z</time>
      </trkpt>
      <trkpt lat="42.41899" lon="2.18459">
        <ele>2775</ele>
        <time>2021-06-19T22:28:36Z</time>
      </trkpt>
      <trkpt lat="42.41845" lon="2.18524">
        <ele>2765</ele>
        <time>2021-06-19T22:28:53Z</time>
      </trkpt>
      <trkpt lat="42.4182" lon="2.18569">
        <ele>2764</ele>
        <time>2021-06-19T22:29:03Z</time>
      </trkpt>
      <trkpt lat="42.41807" lon="2.18598">
        <ele>2762</ele>
        <time>2021-06-19T22:29:08Z</time>
      </trkpt>
      <trkpt lat="42.41806" lon="2.18606">
        <ele>2761</ele>
        <time>2021-06-19T22:29:10Z</time>
      </trkpt>
      <trkpt lat="42.41795" lon="2.18625">
        <ele>2760</ele>
        <time>2021-06-19T22:29:14Z</time>
      </trkpt>
      <trkpt lat="42.41793" lon="2.18632">
        <ele>2760</ele>
        <time>2021-06-19T22:29:15Z</time>
      </trkpt>
      <trkpt lat="42.41795" lon="2.18653">
        <ele>2758</ele>
        <time>2021-06-19T22:29:19Z</time>
      </trkpt>
      <trkpt lat="42.41789" lon="2.18663">
        <ele>2759</ele>
        <time>2021-06-19T22:29:21Z</time>
      </trkpt>
      <trkpt lat="42.41777" lon="2.18711">
        <ele>2761</ele>
        <time>2021-06-19T22:29:30Z</time>
      </trkpt>
      <trkpt lat="42.41773" lon="2.18794">
        <ele>2762</ele>
        <time>2021-06-19T22:29:44Z</time>
      </trkpt>
      <trkpt lat="42.41769" lon="2.18807">
        <ele>2763</ele>
        <time>2021-06-19T22:29:47Z</time>
      </trkpt>
      <trkpt lat="42.41767" lon="2.18832">
        <ele>2764</ele>
        <time>2021-06-19T22:29:51Z</time>
      </trkpt>
      <trkpt lat="42.41757" lon="2.1886">
        <ele>2771</ele>
        <time>2021-06-19T22:29:56Z</time>
      </trkpt>
      <trkpt lat="42.41758" lon="2.18867">
        <ele>2772</ele>
        <time>2021-06-19T22:29:58Z</time>
      </trkpt>
      <trkpt lat="42.41745" lon="2.18971">
        <ele>2785</ele>
        <time>2021-06-19T22:30:16Z</time>
      </trkpt>
      <trkpt lat="42.41753" lon="2.19015">
        <ele>2791</ele>
        <time>2021-06-19T22:30:24Z</time>
      </trkpt>
      <trkpt lat="42.41776" lon="2.1904">
        <ele>2790</ele>
        <time>2021-06-19T22:30:30Z</time>
      </trkpt>
      <trkpt lat="42.41798" lon="2.19086">
        <ele>2791</ele>
        <time>2021-06-19T22:30:40Z</time>
      </trkpt>
      <trkpt lat="42.41818" lon="2.19109">
        <ele>2785</ele>
        <time>2021-06-19T22:30:46Z</time>
      </trkpt>
      <trkpt lat="42.41814" lon="2.19119">
        <ele>2784</ele>
        <time>2021-06-19T22:30:48Z</time>
      </trkpt>
      <trkpt lat="42.41823" lon="2.19139">
        <ele>2780</ele>
        <time>2021-06-19T22:30:52Z</time>
      </trkpt>
      <trkpt lat="42.41828" lon="2.19157">
        <ele>2778</ele>
        <time>2021-06-19T22:30:55Z</time>
      </trkpt>
      <trkpt lat="42.41828" lon="2.19174">
        <ele>2775</ele>
        <time>2021-06-19T22:30:58Z</time>
      </trkpt>
      <trkpt lat="42.41837" lon="2.19239">
        <ele>2759</ele>
        <time>2021-06-19T22:31:10Z</time>
      </trkpt>
      <trkpt lat="42.41836" lon="2.19276">
        <ele>2751</ele>
        <time>2021-06-19T22:31:16Z</time>
      </trkpt>
      <trkpt lat="42.4184" lon="2.19292">
        <ele>2748</ele>
        <time>2021-06-19T22:31:19Z</time>
      </trkpt>
      <trkpt lat="42.41839" lon="2.1933">
        <ele>2741</ele>
        <time>2021-06-19T22:31:26Z</time>
      </trkpt>
      <trkpt lat="42.41844" lon="2.19411">
        <ele>2725</ele>
        <time>2021-06-19T22:31:40Z</time>
      </trkpt>
      <trkpt lat="42.41849" lon="2.19424">
        <ele>2723</ele>
        <time>2021-06-19T22:31:42Z</time>
      </trkpt>
      <trkpt lat="42.4185" lon="2.19445">
        <ele>2721</ele>
        <time>2021-06-19T22:31:46Z</time>
      </trkpt>
      <trkpt lat="42.41831" lon="2.19506">
        <ele>2718</ele>
        <time>2021-06-19T22:31:57Z</time>
      </trkpt>
      <trkpt lat="42.41829" lon="2.19521">
        <ele>2717</ele>
        <time>2021-06-19T22:32:00Z</time>
      </trkpt>
      <trkpt lat="42.41823" lon="2.19526">
        <ele>2715</ele>
        <time>2021-06-19T22:32:01Z</time>
      </trkpt>
      <trkpt lat="42.41811" lon="2.19575">
        <ele>2712</ele>
        <time>2021-06-19T22:32:10Z</time>
      </trkpt>
      <trkpt lat="42.41802" lon="2.19594">
        <ele>2711</ele>
        <time>2021-06-19T22:32:14Z</time>
      </trkpt>
      <trkpt lat="42.41798" lon="2.19613">
        <ele>2713</ele>
        <time>2021-06-19T22:32:18Z</time>
      </trkpt>
      <trkpt lat="42.41789" lon="2.19633">
        <ele>2715</ele>
        <time>2021-06-19T22:32:22Z</time>
      </trkpt>
      <trkpt lat="42.4178" lon="2.19667">
        <ele>2721</ele>
        <time>2021-06-19T22:32:28Z</time>
      </trkpt>
      <trkpt lat="42.41764" lon="2.19706">
        <ele>2730</ele>
        <time>2021-06-19T22:32:36Z</time>
      </trkpt>
      <trkpt lat="42.41763" lon="2.19722">
        <ele>2733</ele>
        <time>2021-06-19T22:32:38Z</time>
      </trkpt>
      <trkpt lat="42.4175" lon="2.19768">
        <ele>2746</ele>
        <time>2021-06-19T22:32:47Z</time>
      </trkpt>
      <trkpt lat="42.4175" lon="2.19775">
        <ele>2747</ele>
        <time>2021-06-19T22:32:48Z</time>
      </trkpt>
      <trkpt lat="42.41744" lon="2.19782">
        <ele>2747</ele>
        <time>2021-06-19T22:32:50Z</time>
      </trkpt>
      <trkpt lat="42.41745" lon="2.19792">
        <ele>2749</ele>
        <time>2021-06-19T22:32:52Z</time>
      </trkpt>
      <trkpt lat="42.41734" lon="2.198">
        <ele>2749</ele>
        <time>2021-06-19T22:32:55Z</time>
      </trkpt>
      <trkpt lat="42.41733" lon="2.19816">
        <ele>2752</ele>
        <time>2021-06-19T22:32:57Z</time>
      </trkpt>
      <trkpt lat="42.4173" lon="2.19823">
        <ele>2754</ele>
        <time>2021-06-19T22:32:59Z</time>
      </trkpt>
      <trkpt lat="42.41717" lon="2.19835">
        <ele>2756</ele>
        <time>2021-06-19T22:33:02Z</time>
      </trkpt>
      <trkpt lat="42.41693" lon="2.19881">
        <ele>2763</ele>
        <time>2021-06-19T22:33:12Z</time>
      </trkpt>
      <trkpt lat="42.41688" lon="2.19897">
        <ele>2767</ele>
        <time>2021-06-19T22:33:15Z</time>
      </trkpt>
      <trkpt lat="42.41663" lon="2.1993">
        <ele>2777</ele>
        <time>2021-06-19T22:33:23Z</time>
      </trkpt>
      <trkpt lat="42.41657" lon="2.19944">
        <ele>2776</ele>
        <time>2021-06-19T22:33:26Z</time>
      </trkpt>
      <trkpt lat="42.41657" lon="2.19952">
        <ele>2777</ele>
        <time>2021-06-19T22:33:27Z</time>
      </trkpt>
      <trkpt lat="42.41649" lon="2.19965">
        <ele>2776</ele>
        <time>2021-06-19T22:33:30Z</time>
      </trkpt>
      <trkpt lat="42.41647" lon="2.19975">
        <ele>2777</ele>
        <time>2021-06-19T22:33:32Z</time>
      </trkpt>
      <trkpt lat="42.41649" lon="2.20016">
        <ele>2782</ele>
        <time>2021-06-19T22:33:39Z</time>
      </trkpt>
      <trkpt lat="42.41651" lon="2.20021">
        <ele>2783</ele>
        <time>2021-06-19T22:33:40Z</time>
      </trkpt>
      <trkpt lat="42.41645" lon="2.20054">
        <ele>2784</ele>
        <time>2021-06-19T22:33:46Z</time>
      </trkpt>
      <trkpt lat="42.41624" lon="2.20112">
        <ele>2785</ele>
        <time>2021-06-19T22:33:57Z</time>
      </trkpt>
      <trkpt lat="42.41621" lon="2.20148">
        <ele>2789</ele>
        <time>2021-06-19T22:34:03Z</time>
      </trkpt>
      <trkpt lat="42.41704" lon="2.204">
        <ele>2773</ele>
        <time>2021-06-19T22:34:51Z</time>
      </trkpt>
      <trkpt lat="42.41729" lon="2.20495">
        <ele>2784</ele>
        <time>2021-06-19T22:35:08Z</time>
      </trkpt>
      <trkpt lat="42.41737" lon="2.2059">
        <ele>2795</ele>
        <time>2021-06-19T22:35:25Z</time>
      </trkpt>
      <trkpt lat="42.41748" lon="2.20621">
        <ele>2797</ele>
        <time>2021-06-19T22:35:31Z</time>
      </trkpt>
      <trkpt lat="42.41758" lon="2.20638">
        <ele>2796</ele>
        <time>2021-06-19T22:35:35Z</time>
      </trkpt>
      <trkpt lat="42.41774" lon="2.20655">
        <ele>2795</ele>
        <time>2021-06-19T22:35:39Z</time>
      </trkpt>
      <trkpt lat="42.41798" lon="2.20661">
        <ele>2792</ele>
        <time>2021-06-19T22:35:45Z</time>
      </trkpt>
      <trkpt lat="42.41818" lon="2.20657">
        <ele>2789</ele>
        <time>2021-06-19T22:35:50Z</time>
      </trkpt>
      <trkpt lat="42.41842" lon="2.20665">
        <ele>2787</ele>
        <time>2021-06-19T22:35:55Z</time>
      </trkpt>
      <trkpt lat="42.4185" lon="2.20674">
        <ele>2784</ele>
        <time>2021-06-19T22:35:58Z</time>
      </trkpt>
      <trkpt lat="42.41898" lon="2.20693">
        <ele>2775</ele>
        <time>2021-06-19T22:36:10Z</time>
      </trkpt>
      <trkpt lat="42.41915" lon="2.20708">
        <ele>2774</ele>
        <time>2021-06-19T22:36:14Z</time>
      </trkpt>
      <trkpt lat="42.41925" lon="2.20708">
        <ele>2770</ele>
        <time>2021-06-19T22:36:17Z</time>
      </trkpt>
      <trkpt lat="42.41928" lon="2.20712">
        <ele>2769</ele>
        <time>2021-06-19T22:36:18Z</time>
      </trkpt>
      <trkpt lat="42.41933" lon="2.20712">
        <ele>2767</ele>
        <time>2021-06-19T22:36:19Z</time>
      </trkpt>
      <trkpt lat="42.41954" lon="2.20734">
        <ele>2761</ele>
        <time>2021-06-19T22:36:25Z</time>
      </trkpt>
      <trkpt lat="42.41966" lon="2.20771">
        <ele>2755</ele>
        <time>2021-06-19T22:36:32Z</time>
      </trkpt>
      <trkpt lat="42.41969" lon="2.20793">
        <ele>2750</ele>
        <time>2021-06-19T22:36:36Z</time>
      </trkpt>
      <trkpt lat="42.41969" lon="2.20819">
        <ele>2745</ele>
        <time>2021-06-19T22:36:40Z</time>
      </trkpt>
      <trkpt lat="42.41977" lon="2.20854">
        <ele>2736</ele>
        <time>2021-06-19T22:36:47Z</time>
      </trkpt>
      <trkpt lat="42.41974" lon="2.2086">
        <ele>2734</ele>
        <time>2021-06-19T22:36:48Z</time>
      </trkpt>
      <trkpt lat="42.41979" lon="2.20869">
        <ele>2732</ele>
        <time>2021-06-19T22:36:50Z</time>
      </trkpt>
      <trkpt lat="42.41979" lon="2.20873">
        <ele>2730</ele>
        <time>2021-06-19T22:36:50Z</time>
      </trkpt>
      <trkpt lat="42.41976" lon="2.20876">
        <ele>2730</ele>
        <time>2021-06-19T22:36:51Z</time>
      </trkpt>
      <trkpt lat="42.41978" lon="2.2089">
        <ele>2726</ele>
        <time>2021-06-19T22:36:54Z</time>
      </trkpt>
      <trkpt lat="42.41975" lon="2.20896">
        <ele>2724</ele>
        <time>2021-06-19T22:36:55Z</time>
      </trkpt>
      <trkpt lat="42.41973" lon="2.20919">
        <ele>2719</ele>
        <time>2021-06-19T22:36:59Z</time>
      </trkpt>
      <trkpt lat="42.4199" lon="2.20954">
        <ele>2719</ele>
        <time>2021-06-19T22:37:06Z</time>
      </trkpt>
      <trkpt lat="42.41994" lon="2.20994">
        <ele>2721</ele>
        <time>2021-06-19T22:37:13Z</time>
      </trkpt>
      <trkpt lat="42.42003" lon="2.21042">
        <ele>2728</ele>
        <time>2021-06-19T22:37:22Z</time>
      </trkpt>
      <trkpt lat="42.4201" lon="2.21053">
        <ele>2728</ele>
        <time>2021-06-19T22:37:24Z</time>
      </trkpt>
      <trkpt lat="42.42011" lon="2.21061">
        <ele>2729</ele>
        <time>2021-06-19T22:37:26Z</time>
      </trkpt>
      <trkpt lat="42.4202" lon="2.21069">
        <ele>2728</ele>
        <time>2021-06-19T22:37:28Z</time>
      </trkpt>
      <trkpt lat="42.42024" lon="2.21079">
        <ele>2730</ele>
        <time>2021-06-19T22:37:30Z</time>
      </trkpt>
      <trkpt lat="42.42029" lon="2.21106">
        <ele>2737</ele>
        <time>2021-06-19T22:37:35Z</time>
      </trkpt>
      <trkpt lat="42.42042" lon="2.21125">
        <ele>2742</ele>
        <time>2021-06-19T22:37:39Z</time>
      </trkpt>
      <trkpt lat="42.42049" lon="2.21133">
        <ele>2745</ele>
        <time>2021-06-19T22:37:42Z</time>
      </trkpt>
      <trkpt lat="42.42057" lon="2.21135">
        <ele>2746</ele>
        <time>2021-06-19T22:37:43Z</time>
      </trkpt>
      <trkpt lat="42.4206" lon="2.21142">
        <ele>2749</ele>
        <time>2021-06-19T22:37:45Z</time>
      </trkpt>
      <trkpt lat="42.42062" lon="2.21167">
        <ele>2760</ele>
        <time>2021-06-19T22:37:49Z</time>
      </trkpt>
      <trkpt lat="42.42078" lon="2.21222">
        <ele>2771</ele>
        <time>2021-06-19T22:37:59Z</time>
      </trkpt>
      <trkpt lat="42.42086" lon="2.2123">
        <ele>2773</ele>
        <time>2021-06-19T22:38:02Z</time>
      </trkpt>
      <trkpt lat="42.42101" lon="2.21233">
        <ele>2771</ele>
        <time>2021-06-19T22:38:05Z</time>
      </trkpt>
      <trkpt lat="42.42109" lon="2.21248">
        <ele>2774</ele>
        <time>2021-06-19T22:38:08Z</time>
      </trkpt>
      <trkpt lat="42.42117" lon="2.21249">
        <ele>2773</ele>
        <time>2021-06-19T22:38:10Z</time>
      </trkpt>
      <trkpt lat="42.42123" lon="2.21254">
        <ele>2773</ele>
        <time>2021-06-19T22:38:12Z</time>
      </trkpt>
      <trkpt lat="42.42148" lon="2.21285">
        <ele>2779</ele>
        <time>2021-06-19T22:38:20Z</time>
      </trkpt>
      <trkpt lat="42.4215" lon="2.21293">
        <ele>2782</ele>
        <time>2021-06-19T22:38:21Z</time>
      </trkpt>
      <trkpt lat="42.42159" lon="2.21307">
        <ele>2788</ele>
        <time>2021-06-19T22:38:25Z</time>
      </trkpt>
      <trkpt lat="42.42177" lon="2.2133">
        <ele>2798</ele>
        <time>2021-06-19T22:38:30Z</time>
      </trkpt>
      <trkpt lat="42.42181" lon="2.21332">
        <ele>2798</ele>
        <time>2021-06-19T22:38:31Z</time>
      </trkpt>
      <trkpt lat="42.42202" lon="2.21366">
        <ele>2801</ele>
        <time>2021-06-19T22:38:39Z</time>
      </trkpt>
      <trkpt lat="42.42208" lon="2.2137">
        <ele>2802</ele>
        <time>2021-06-19T22:38:41Z</time>
      </trkpt>
      <trkpt lat="42.42217" lon="2.21385">
        <ele>2806</ele>
        <time>2021-06-19T22:38:44Z</time>
      </trkpt>
      <trkpt lat="42.42228" lon="2.2139">
        <ele>2809</ele>
        <time>2021-06-19T22:38:47Z</time>
      </trkpt>
      <trkpt lat="42.42242" lon="2.21404">
        <ele>2816</ele>
        <time>2021-06-19T22:38:51Z</time>
      </trkpt>
      <trkpt lat="42.42252" lon="2.21418">
        <ele>2823</ele>
        <time>2021-06-19T22:38:54Z</time>
      </trkpt>
      <trkpt lat="42.42264" lon="2.21427">
        <ele>2823</ele>
        <time>2021-06-19T22:38:57Z</time>
      </trkpt>
      <trkpt lat="42.42284" lon="2.21436">
        <ele>2825</ele>
        <time>2021-06-19T22:39:02Z</time>
      </trkpt>
      <trkpt lat="42.4232" lon="2.2146">
        <ele>2827</ele>
        <time>2021-06-19T22:39:11Z</time>
      </trkpt>
      <trkpt lat="42.42341" lon="2.21455">
        <ele>2828</ele>
        <time>2021-06-19T22:39:16Z</time>
      </trkpt>
      <trkpt lat="42.42323" lon="2.21501">
        <ele>2820</ele>
        <time>2021-06-19T22:39:25Z</time>
      </trkpt>
      <trkpt lat="42.42316" lon="2.21527">
        <ele>2808</ele>
        <time>2021-06-19T22:39:30Z</time>
      </trkpt>
      <trkpt lat="42.42297" lon="2.2161">
        <ele>2777</ele>
        <time>2021-06-19T22:39:45Z</time>
      </trkpt>
      <trkpt lat="42.4229" lon="2.21652">
        <ele>2767</ele>
        <time>2021-06-19T22:39:53Z</time>
      </trkpt>
      <trkpt lat="42.4229" lon="2.21666">
        <ele>2764</ele>
        <time>2021-06-19T22:39:55Z</time>
      </trkpt>
      <trkpt lat="42.423" lon="2.21742">
        <ele>2761</ele>
        <time>2021-06-19T22:40:08Z</time>
      </trkpt>
      <trkpt lat="42.423" lon="2.21768">
        <ele>2764</ele>
        <time>2021-06-19T22:40:13Z</time>
      </trkpt>
      <trkpt lat="42.4229" lon="2.21821">
        <ele>2772</ele>
        <time>2021-06-19T22:40:22Z</time>
      </trkpt>
      <trkpt lat="42.42298" lon="2.21835">
        <ele>2773</ele>
        <time>2021-06-19T22:40:25Z</time>
      </trkpt>
      <trkpt lat="42.42301" lon="2.21873">
        <ele>2781</ele>
        <time>2021-06-19T22:40:32Z</time>
      </trkpt>
      <trkpt lat="42.423" lon="2.21935">
        <ele>2790</ele>
        <time>2021-06-19T22:40:43Z</time>
      </trkpt>
      <trkpt lat="42.42308" lon="2.2195">
        <ele>2790</ele>
        <time>2021-06-19T22:40:46Z</time>
      </trkpt>
      <trkpt lat="42.42312" lon="2.21978">
        <ele>2791</ele>
        <time>2021-06-19T22:40:51Z</time>
      </trkpt>
      <trkpt lat="42.42325" lon="2.21988">
        <ele>2793</ele>
        <time>2021-06-19T22:40:54Z</time>
      </trkpt>
      <trkpt lat="42.42337" lon="2.22008">
        <ele>2789</ele>
        <time>2021-06-19T22:40:59Z</time>
      </trkpt>
      <trkpt lat="42.42365" lon="2.22035">
        <ele>2765</ele>
        <time>2021-06-19T22:41:07Z</time>
      </trkpt>
      <trkpt lat="42.42368" lon="2.22041">
        <ele>2762</ele>
        <time>2021-06-19T22:41:08Z</time>
      </trkpt>
      <trkpt lat="42.42366" lon="2.22052">
        <ele>2761</ele>
        <time>2021-06-19T22:41:10Z</time>
      </trkpt>
      <trkpt lat="42.42371" lon="2.22059">
        <ele>2757</ele>
        <time>2021-06-19T22:41:12Z</time>
      </trkpt>
      <trkpt lat="42.42385" lon="2.2207">
        <ele>2750</ele>
        <time>2021-06-19T22:41:15Z</time>
      </trkpt>
      <trkpt lat="42.42389" lon="2.22087">
        <ele>2746</ele>
        <time>2021-06-19T22:41:18Z</time>
      </trkpt>
      <trkpt lat="42.42398" lon="2.22101">
        <ele>2741</ele>
        <time>2021-06-19T22:41:22Z</time>
      </trkpt>
      <trkpt lat="42.42416" lon="2.22119">
        <ele>2735</ele>
        <time>2021-06-19T22:41:27Z</time>
      </trkpt>
      <trkpt lat="42.42431" lon="2.22139">
        <ele>2726</ele>
        <time>2021-06-19T22:41:32Z</time>
      </trkpt>
      <trkpt lat="42.42472" lon="2.22214">
        <ele>2710</ele>
        <time>2021-06-19T22:41:48Z</time>
      </trkpt>
      <trkpt lat="42.42483" lon="2.22236">
        <ele>2712</ele>
        <time>2021-06-19T22:41:52Z</time>
      </trkpt>
      <trkpt lat="42.42487" lon="2.22251">
        <ele>2713</ele>
        <time>2021-06-19T22:41:55Z</time>
      </trkpt>
      <trkpt lat="42.42518" lon="2.22306">
        <ele>2710</ele>
        <time>2021-06-19T22:42:07Z</time>
      </trkpt>
      <trkpt lat="42.42523" lon="2.2232">
        <ele>2710</ele>
        <time>2021-06-19T22:42:10Z</time>
      </trkpt>
      <trkpt lat="42.42532" lon="2.22334">
        <ele>2709</ele>
        <time>2021-06-19T22:42:13Z</time>
      </trkpt>
      <trkpt lat="42.42562" lon="2.22359">
        <ele>2702</ele>
        <time>2021-06-19T22:42:21Z</time>
      </trkpt>
      <trkpt lat="42.42577" lon="2.224">
        <ele>2700</ele>
        <time>2021-06-19T22:42:29Z</time>
      </trkpt>
      <trkpt lat="42.42584" lon="2.22412">
        <ele>2700</ele>
        <time>2021-06-19T22:42:32Z</time>
      </trkpt>
      <trkpt lat="42.42591" lon="2.22449">
        <ele>2696</ele>
        <time>2021-06-19T22:42:38Z</time>
      </trkpt>
      <trkpt lat="42.42591" lon="2.22466">
        <ele>2696</ele>
        <time>2021-06-19T22:42:41Z</time>
      </trkpt>
      <trkpt lat="42.42604" lon="2.22536">
        <ele>2698</ele>
        <time>2021-06-19T22:42:54Z</time>
      </trkpt>
      <trkpt lat="42.42611" lon="2.22547">
        <ele>2698</ele>
        <time>2021-06-19T22:42:56Z</time>
      </trkpt>
      <trkpt lat="42.42613" lon="2.22558">
        <ele>2699</ele>
        <time>2021-06-19T22:42:58Z</time>
      </trkpt>
      <trkpt lat="42.42612" lon="2.22582">
        <ele>2705</ele>
        <time>2021-06-19T22:43:02Z</time>
      </trkpt>
      <trkpt lat="42.42617" lon="2.22594">
        <ele>2706</ele>
        <time>2021-06-19T22:43:05Z</time>
      </trkpt>
      <trkpt lat="42.42622" lon="2.22678">
        <ele>2722</ele>
        <time>2021-06-19T22:43:19Z</time>
      </trkpt>
      <trkpt lat="42.42621" lon="2.22764">
        <ele>2744</ele>
        <time>2021-06-19T22:43:34Z</time>
      </trkpt>
      <trkpt lat="42.42622" lon="2.2278">
        <ele>2749</ele>
        <time>2021-06-19T22:43:37Z</time>
      </trkpt>
      <trkpt lat="42.4263" lon="2.22803">
        <ele>2757</ele>
        <time>2021-06-19T22:43:41Z</time>
      </trkpt>
      <trkpt lat="42.42629" lon="2.22815">
        <ele>2760</ele>
        <time>2021-06-19T22:43:43Z</time>
      </trkpt>
      <trkpt lat="42.42633" lon="2.2286">
        <ele>2775</ele>
        <time>2021-06-19T22:43:51Z</time>
      </trkpt>
      <trkpt lat="42.42636" lon="2.22867">
        <ele>2778</ele>
        <time>2021-06-19T22:43:52Z</time>
      </trkpt>
      <trkpt lat="42.42634" lon="2.22883">
        <ele>2782</ele>
        <time>2021-06-19T22:43:55Z</time>
      </trkpt>
      <trkpt lat="42.42641" lon="2.22926">
        <ele>2799</ele>
        <time>2021-06-19T22:44:03Z</time>
      </trkpt>
      <trkpt lat="42.42654" lon="2.22981">
        <ele>2821</ele>
        <time>2021-06-19T22:44:13Z</time>
      </trkpt>
      <trkpt lat="42.42667" lon="2.23005">
        <ele>2834</ele>
        <time>2021-06-19T22:44:18Z</time>
      </trkpt>
      <trkpt lat="42.4268" lon="2.23053">
        <ele>2845</ele>
        <time>2021-06-19T22:44:27Z</time>
      </trkpt>
      <trkpt lat="42.42684" lon="2.23059">
        <ele>2846</ele>
        <time>2021-06-19T22:44:28Z</time>
      </trkpt>
      <trkpt lat="42.42688" lon="2.23085">
        <ele>2852</ele>
        <time>2021-06-19T22:44:33Z</time>
      </trkpt>
      <trkpt lat="42.42673" lon="2.23122">
        <ele>2857</ele>
        <time>2021-06-19T22:44:40Z</time>
      </trkpt>
      <trkpt lat="42.42642" lon="2.23184">
        <ele>2853</ele>
        <time>2021-06-19T22:44:53Z</time>
      </trkpt>
      <trkpt lat="42.42642" lon="2.23196">
        <ele>2852</ele>
        <time>2021-06-19T22:44:55Z</time>
      </trkpt>
      <trkpt lat="42.42635" lon="2.23215">
        <ele>2850</ele>
        <time>2021-06-19T22:44:59Z</time>
      </trkpt>
      <trkpt lat="42.4263" lon="2.23248">
        <ele>2849</ele>
        <time>2021-06-19T22:45:04Z</time>
      </trkpt>
      <trkpt lat="42.42624" lon="2.23261">
        <ele>2849</ele>
        <time>2021-06-19T22:45:07Z</time>
      </trkpt>
      <trkpt lat="42.42624" lon="2.23274">
        <ele>2849</ele>
        <time>2021-06-19T22:45:09Z</time>
      </trkpt>
      <trkpt lat="42.42615" lon="2.23302">
        <ele>2851</ele>
        <time>2021-06-19T22:45:15Z</time>
      </trkpt>
      <trkpt lat="42.42612" lon="2.23332">
        <ele>2853</ele>
        <time>2021-06-19T22:45:20Z</time>
      </trkpt>
      <trkpt lat="42.42614" lon="2.23343">
        <ele>2852</ele>
        <time>2021-06-19T22:45:22Z</time>
      </trkpt>
      <trkpt lat="42.42608" lon="2.23386">
        <ele>2850</ele>
        <time>2021-06-19T22:45:29Z</time>
      </trkpt>
      <trkpt lat="42.42614" lon="2.23409">
        <ele>2847</ele>
        <time>2021-06-19T22:45:33Z</time>
      </trkpt>
      <trkpt lat="42.42615" lon="2.23429">
        <ele>2844</ele>
        <time>2021-06-19T22:45:37Z</time>
      </trkpt>
      <trkpt lat="42.42609" lon="2.23435">
        <ele>2844</ele>
        <time>2021-06-19T22:45:39Z</time>
      </trkpt>
      <trkpt lat="42.42617" lon="2.23453">
        <ele>2839</ele>
        <time>2021-06-19T22:45:42Z</time>
      </trkpt>
      <trkpt lat="42.42615" lon="2.23462">
        <ele>2837</ele>
        <time>2021-06-19T22:45:44Z</time>
      </trkpt>
      <trkpt lat="42.42608" lon="2.23464">
        <ele>2838</ele>
        <time>2021-06-19T22:45:46Z</time>
      </trkpt>
      <trkpt lat="42.42627" lon="2.23509">
        <ele>2827</ele>
        <time>2021-06-19T22:45:55Z</time>
      </trkpt>
      <trkpt lat="42.42639" lon="2.23555">
        <ele>2818</ele>
        <time>2021-06-19T22:46:03Z</time>
      </trkpt>
      <trkpt lat="42.42658" lon="2.23588">
        <ele>2813</ele>
        <time>2021-06-19T22:46:10Z</time>
      </trkpt>
      <trkpt lat="42.42659" lon="2.23602">
        <ele>2810</ele>
        <time>2021-06-19T22:46:13Z</time>
      </trkpt>
      <trkpt lat="42.42667" lon="2.23609">
        <ele>2810</ele>
        <time>2021-06-19T22:46:15Z</time>
      </trkpt>
      <trkpt lat="42.42674" lon="2.23625">
        <ele>2804</ele>
        <time>2021-06-19T22:46:18Z</time>
      </trkpt>
      <trkpt lat="42.42681" lon="2.23627">
        <ele>2801</ele>
        <time>2021-06-19T22:46:20Z</time>
      </trkpt>
      <trkpt lat="42.427" lon="2.23648">
        <ele>2790</ele>
        <time>2021-06-19T22:46:25Z</time>
      </trkpt>
      <trkpt lat="42.42709" lon="2.23666">
        <ele>2785</ele>
        <time>2021-06-19T22:46:29Z</time>
      </trkpt>
      <trkpt lat="42.4272" lon="2.23675">
        <ele>2778</ele>
        <time>2021-06-19T22:46:32Z</time>
      </trkpt>
      <trkpt lat="42.42736" lon="2.23716">
        <ele>2762</ele>
        <time>2021-06-19T22:46:40Z</time>
      </trkpt>
      <trkpt lat="42.42744" lon="2.23712">
        <ele>2761</ele>
        <time>2021-06-19T22:46:42Z</time>
      </trkpt>
      <trkpt lat="42.42743" lon="2.23726">
        <ele>2758</ele>
        <time>2021-06-19T22:46:45Z</time>
      </trkpt>
      <trkpt lat="42.42749" lon="2.23731">
        <ele>2756</ele>
        <time>2021-06-19T22:46:46Z</time>
      </trkpt>
      <trkpt lat="42.42755" lon="2.2373">
        <ele>2753</ele>
        <time>2021-06-19T22:46:48Z</time>
      </trkpt>
      <trkpt lat="42.42759" lon="2.23738">
        <ele>2749</ele>
        <time>2021-06-19T22:46:49Z</time>
      </trkpt>
      <trkpt lat="42.42754" lon="2.23756">
        <ele>2746</ele>
        <time>2021-06-19T22:46:53Z</time>
      </trkpt>
      <trkpt lat="42.42758" lon="2.23765">
        <ele>2741</ele>
        <time>2021-06-19T22:46:54Z</time>
      </trkpt>
      <trkpt lat="42.42756" lon="2.2377">
        <ele>2739</ele>
        <time>2021-06-19T22:46:55Z</time>
      </trkpt>
      <trkpt lat="42.42768" lon="2.2378">
        <ele>2730</ele>
        <time>2021-06-19T22:46:59Z</time>
      </trkpt>
      <trkpt lat="42.42791" lon="2.23832">
        <ele>2703</ele>
        <time>2021-06-19T22:47:09Z</time>
      </trkpt>
      <trkpt lat="42.42803" lon="2.23874">
        <ele>2689</ele>
        <time>2021-06-19T22:47:17Z</time>
      </trkpt>
      <trkpt lat="42.42815" lon="2.23896">
        <ele>2683</ele>
        <time>2021-06-19T22:47:22Z</time>
      </trkpt>
      <trkpt lat="42.42819" lon="2.23915">
        <ele>2679</ele>
        <time>2021-06-19T22:47:25Z</time>
      </trkpt>
      <trkpt lat="42.42834" lon="2.23949">
        <ele>2674</ele>
        <time>2021-06-19T22:47:32Z</time>
      </trkpt>
      <trkpt lat="42.42853" lon="2.24018">
        <ele>2662</ele>
        <time>2021-06-19T22:47:45Z</time>
      </trkpt>
      <trkpt lat="42.42855" lon="2.24048">
        <ele>2659</ele>
        <time>2021-06-19T22:47:50Z</time>
      </trkpt>
      <trkpt lat="42.42876" lon="2.24099">
        <ele>2653</ele>
        <time>2021-06-19T22:48:00Z</time>
      </trkpt>
      <trkpt lat="42.42878" lon="2.24185">
        <ele>2645</ele>
        <time>2021-06-19T22:48:15Z</time>
      </trkpt>
      <trkpt lat="42.42885" lon="2.24216">
        <ele>2641</ele>
        <time>2021-06-19T22:48:20Z</time>
      </trkpt>
      <trkpt lat="42.42894" lon="2.24231">
        <ele>2639</ele>
        <time>2021-06-19T22:48:24Z</time>
      </trkpt>
      <trkpt lat="42.42891" lon="2.24277">
        <ele>2635</ele>
        <time>2021-06-19T22:48:31Z</time>
      </trkpt>
      <trkpt lat="42.42898" lon="2.24295">
        <ele>2635</ele>
        <time>2021-06-19T22:48:35Z</time>
      </trkpt>
      <trkpt lat="42.42901" lon="2.24326">
        <ele>2634</ele>
        <time>2021-06-19T22:48:40Z</time>
      </trkpt>
      <trkpt lat="42.429" lon="2.24354">
        <ele>2631</ele>
        <time>2021-06-19T22:48:45Z</time>
      </trkpt>
      <trkpt lat="42.42903" lon="2.24395">
        <ele>2628</ele>
        <time>2021-06-19T22:48:52Z</time>
      </trkpt>
      <trkpt lat="42.42901" lon="2.24414">
        <ele>2626</ele>
        <time>2021-06-19T22:48:56Z</time>
      </trkpt>
      <trkpt lat="42.42905" lon="2.24443">
        <ele>2622</ele>
        <time>2021-06-19T22:49:01Z</time>
      </trkpt>
      <trkpt lat="42.42917" lon="2.24482">
        <ele>2619</ele>
        <time>2021-06-19T22:49:08Z</time>
      </trkpt>
      <trkpt lat="42.42925" lon="2.24521">
        <ele>2615</ele>
        <time>2021-06-19T22:49:15Z</time>
      </trkpt>
      <trkpt lat="42.4299" lon="2.24637">
        <ele>2605</ele>
        <time>2021-06-19T22:49:40Z</time>
      </trkpt>
      <trkpt lat="42.43028" lon="2.24682">
        <ele>2602</ele>
        <time>2021-06-19T22:49:52Z</time>
      </trkpt>
      <trkpt lat="42.43043" lon="2.24709">
        <ele>2601</ele>
        <time>2021-06-19T22:49:58Z</time>
      </trkpt>
      <trkpt lat="42.43073" lon="2.24753">
        <ele>2603</ele>
        <time>2021-06-19T22:50:08Z</time>
      </trkpt>
      <trkpt lat="42.43092" lon="2.2476">
        <ele>2602</ele>
        <time>2021-06-19T22:50:13Z</time>
      </trkpt>
      <trkpt lat="42.43113" lon="2.24759">
        <ele>2599</ele>
        <time>2021-06-19T22:50:18Z</time>
      </trkpt>
      <trkpt lat="42.43123" lon="2.2477">
        <ele>2598</ele>
        <time>2021-06-19T22:50:21Z</time>
      </trkpt>
      <trkpt lat="42.4319" lon="2.24882">
        <ele>2606</ele>
        <time>2021-06-19T22:50:45Z</time>
      </trkpt>
      <trkpt lat="42.43206" lon="2.249">
        <ele>2606</ele>
        <time>2021-06-19T22:50:50Z</time>
      </trkpt>
      <trkpt lat="42.43217" lon="2.24946">
        <ele>2610</ele>
        <time>2021-06-19T22:50:59Z</time>
      </trkpt>
      <trkpt lat="42.43235" lon="2.24974">
        <ele>2614</ele>
        <time>2021-06-19T22:51:05Z</time>
      </trkpt>
      <trkpt lat="42.43279" lon="2.25018">
        <ele>2616</ele>
        <time>2021-06-19T22:51:18Z</time>
      </trkpt>
      <trkpt lat="42.43284" lon="2.25032">
        <ele>2616</ele>
        <time>2021-06-19T22:51:20Z</time>
      </trkpt>
      <trkpt lat="42.43294" lon="2.25044">
        <ele>2616</ele>
        <time>2021-06-19T22:51:24Z</time>
      </trkpt>
      <trkpt lat="42.43314" lon="2.25062">
        <ele>2618</ele>
        <time>2021-06-19T22:51:29Z</time>
      </trkpt>
      <trkpt lat="42.43335" lon="2.2507">
        <ele>2619</ele>
        <time>2021-06-19T22:51:34Z</time>
      </trkpt>
      <trkpt lat="42.43375" lon="2.25103">
        <ele>2612</ele>
        <time>2021-06-19T22:51:45Z</time>
      </trkpt>
      <trkpt lat="42.4339" lon="2.25111">
        <ele>2610</ele>
        <time>2021-06-19T22:51:49Z</time>
      </trkpt>
      <trkpt lat="42.43402" lon="2.25103">
        <ele>2609</ele>
        <time>2021-06-19T22:51:52Z</time>
      </trkpt>
      <trkpt lat="42.43418" lon="2.25111">
        <ele>2607</ele>
        <time>2021-06-19T22:51:56Z</time>
      </trkpt>
      <trkpt lat="42.43424" lon="2.25127">
        <ele>2608</ele>
        <time>2021-06-19T22:51:59Z</time>
      </trkpt>
      <trkpt lat="42.43435" lon="2.25142">
        <ele>2608</ele>
        <time>2021-06-19T22:52:03Z</time>
      </trkpt>
      <trkpt lat="42.4346" lon="2.25157">
        <ele>2610</ele>
        <time>2021-06-19T22:52:09Z</time>
      </trkpt>
      <trkpt lat="42.43546" lon="2.25173">
        <ele>2614</ele>
        <time>2021-06-19T22:52:29Z</time>
      </trkpt>
      <trkpt lat="42.43617" lon="2.25203">
        <ele>2619</ele>
        <time>2021-06-19T22:52:47Z</time>
      </trkpt>
      <trkpt lat="42.43642" lon="2.2521">
        <ele>2623</ele>
        <time>2021-06-19T22:52:53Z</time>
      </trkpt>
      <trkpt lat="42.43659" lon="2.2523">
        <ele>2630</ele>
        <time>2021-06-19T22:52:58Z</time>
      </trkpt>
      <trkpt lat="42.43661" lon="2.25258">
        <ele>2634</ele>
        <time>2021-06-19T22:53:03Z</time>
      </trkpt>
      <trkpt lat="42.43678" lon="2.25312">
        <ele>2635</ele>
        <time>2021-06-19T22:53:13Z</time>
      </trkpt>
      <trkpt lat="42.4371" lon="2.25352">
        <ele>2639</ele>
        <time>2021-06-19T22:53:23Z</time>
      </trkpt>
      <trkpt lat="42.43735" lon="2.25397">
        <ele>2645</ele>
        <time>2021-06-19T22:53:33Z</time>
      </trkpt>
      <trkpt lat="42.4376" lon="2.2546">
        <ele>2653</ele>
        <time>2021-06-19T22:53:45Z</time>
      </trkpt>
      <trkpt lat="42.43769" lon="2.25497">
        <ele>2657</ele>
        <time>2021-06-19T22:53:52Z</time>
      </trkpt>
      <trkpt lat="42.43774" lon="2.25558">
        <ele>2662</ele>
        <time>2021-06-19T22:54:02Z</time>
      </trkpt>
      <trkpt lat="42.43774" lon="2.25656">
        <ele>2670</ele>
        <time>2021-06-19T22:54:19Z</time>
      </trkpt>
      <trkpt lat="42.43765" lon="2.25771">
        <ele>2670</ele>
        <time>2021-06-19T22:54:39Z</time>
      </trkpt>
      <trkpt lat="42.4376" lon="2.25887">
        <ele>2670</ele>
        <time>2021-06-19T22:54:59Z</time>
      </trkpt>
      <trkpt lat="42.43766" lon="2.25926">
        <ele>2672</ele>
        <time>2021-06-19T22:55:06Z</time>
      </trkpt>
      <trkpt lat="42.43778" lon="2.25944">
        <ele>2675</ele>
        <time>2021-06-19T22:55:10Z</time>
      </trkpt>
      <trkpt lat="42.43789" lon="2.25946">
        <ele>2675</ele>
        <time>2021-06-19T22:55:13Z</time>
      </trkpt>
      <trkpt lat="42.43782" lon="2.25961">
        <ele>2676</ele>
        <time>2021-06-19T22:55:16Z</time>
      </trkpt>
      <trkpt lat="42.43753" lon="2.26107">
        <ele>2688</ele>
        <time>2021-06-19T22:55:42Z</time>
      </trkpt>
      <trkpt lat="42.43778" lon="2.26174">
        <ele>2682</ele>
        <time>2021-06-19T22:55:55Z</time>
      </trkpt>
      <trkpt lat="42.43774" lon="2.2618">
        <ele>2681</ele>
        <time>2021-06-19T22:55:56Z</time>
      </trkpt>
      <trkpt lat="42.43758" lon="2.26176">
        <ele>2685</ele>
        <time>2021-06-19T22:56:00Z</time>
      </trkpt>
      <trkpt lat="42.4371" lon="2.26176">
        <ele>2680</ele>
        <time>2021-06-19T22:56:11Z</time>
      </trkpt>
      <trkpt lat="42.43698" lon="2.26177">
        <ele>2678</ele>
        <time>2021-06-19T22:56:14Z</time>
      </trkpt>
      <trkpt lat="42.43675" lon="2.26186">
        <ele>2671</ele>
        <time>2021-06-19T22:56:20Z</time>
      </trkpt>
      <trkpt lat="42.4366" lon="2.26183">
        <ele>2668</ele>
        <time>2021-06-19T22:56:23Z</time>
      </trkpt>
      <trkpt lat="42.4365" lon="2.26191">
        <ele>2662</ele>
        <time>2021-06-19T22:56:26Z</time>
      </trkpt>
      <trkpt lat="42.43647" lon="2.26215">
        <ele>2656</ele>
        <time>2021-06-19T22:56:30Z</time>
      </trkpt>
      <trkpt lat="42.43643" lon="2.26226">
        <ele>2653</ele>
        <time>2021-06-19T22:56:32Z</time>
      </trkpt>
      <trkpt lat="42.43638" lon="2.26225">
        <ele>2651</ele>
        <time>2021-06-19T22:56:34Z</time>
      </trkpt>
      <trkpt lat="42.43629" lon="2.2623">
        <ele>2648</ele>
        <time>2021-06-19T22:56:36Z</time>
      </trkpt>
      <trkpt lat="42.43627" lon="2.26243">
        <ele>2645</ele>
        <time>2021-06-19T22:56:38Z</time>
      </trkpt>
      <trkpt lat="42.43624" lon="2.26247">
        <ele>2644</ele>
        <time>2021-06-19T22:56:39Z</time>
      </trkpt>
      <trkpt lat="42.43615" lon="2.26245">
        <ele>2642</ele>
        <time>2021-06-19T22:56:41Z</time>
      </trkpt>
      <trkpt lat="42.4361" lon="2.26236">
        <ele>2642</ele>
        <time>2021-06-19T22:56:43Z</time>
      </trkpt>
      <trkpt lat="42.43607" lon="2.26235">
        <ele>2641</ele>
        <time>2021-06-19T22:56:44Z</time>
      </trkpt>
      <trkpt lat="42.43606" lon="2.26246">
        <ele>2640</ele>
        <time>2021-06-19T22:56:46Z</time>
      </trkpt>
      <trkpt lat="42.436" lon="2.26252">
        <ele>2637</ele>
        <time>2021-06-19T22:56:48Z</time>
      </trkpt>
      <trkpt lat="42.43599" lon="2.26278">
        <ele>2630</ele>
        <time>2021-06-19T22:56:52Z</time>
      </trkpt>
      <trkpt lat="42.43586" lon="2.26285">
        <ele>2627</ele>
        <time>2021-06-19T22:56:55Z</time>
      </trkpt>
      <trkpt lat="42.43574" lon="2.26287">
        <ele>2622</ele>
        <time>2021-06-19T22:56:58Z</time>
      </trkpt>
      <trkpt lat="42.43571" lon="2.26304">
        <ele>2617</ele>
        <time>2021-06-19T22:57:01Z</time>
      </trkpt>
      <trkpt lat="42.43572" lon="2.26314">
        <ele>2616</ele>
        <time>2021-06-19T22:57:03Z</time>
      </trkpt>
      <trkpt lat="42.43567" lon="2.26315">
        <ele>2613</ele>
        <time>2021-06-19T22:57:04Z</time>
      </trkpt>
      <trkpt lat="42.43562" lon="2.2632">
        <ele>2611</ele>
        <time>2021-06-19T22:57:06Z</time>
      </trkpt>
      <trkpt lat="42.43563" lon="2.26329">
        <ele>2610</ele>
        <time>2021-06-19T22:57:07Z</time>
      </trkpt>
      <trkpt lat="42.43561" lon="2.26332">
        <ele>2608</ele>
        <time>2021-06-19T22:57:08Z</time>
      </trkpt>
      <trkpt lat="42.43553" lon="2.26334">
        <ele>2605</ele>
        <time>2021-06-19T22:57:10Z</time>
      </trkpt>
      <trkpt lat="42.43552" lon="2.26341">
        <ele>2603</ele>
        <time>2021-06-19T22:57:11Z</time>
      </trkpt>
      <trkpt lat="42.43547" lon="2.26343">
        <ele>2601</ele>
        <time>2021-06-19T22:57:12Z</time>
      </trkpt>
      <trkpt lat="42.43542" lon="2.26352">
        <ele>2597</ele>
        <time>2021-06-19T22:57:14Z</time>
      </trkpt>
      <trkpt lat="42.43535" lon="2.26353">
        <ele>2595</ele>
        <time>2021-06-19T22:57:16Z</time>
      </trkpt>
      <trkpt lat="42.43529" lon="2.26364">
        <ele>2592</ele>
        <time>2021-06-19T22:57:18Z</time>
      </trkpt>
      <trkpt lat="42.43525" lon="2.26381">
        <ele>2588</ele>
        <time>2021-06-19T22:57:21Z</time>
      </trkpt>
      <trkpt lat="42.43514" lon="2.26399">
        <ele>2584</ele>
        <time>2021-06-19T22:57:25Z</time>
      </trkpt>
      <trkpt lat="42.43499" lon="2.26449">
        <ele>2575</ele>
        <time>2021-06-19T22:57:34Z</time>
      </trkpt>
      <trkpt lat="42.4349" lon="2.26463">
        <ele>2569</ele>
        <time>2021-06-19T22:57:38Z</time>
      </trkpt>
      <trkpt lat="42.43485" lon="2.26484">
        <ele>2564</ele>
        <time>2021-06-19T22:57:41Z</time>
      </trkpt>
      <trkpt lat="42.43469" lon="2.26508">
        <ele>2556</ele>
        <time>2021-06-19T22:57:47Z</time>
      </trkpt>
      <trkpt lat="42.43462" lon="2.26537">
        <ele>2550</ele>
        <time>2021-06-19T22:57:52Z</time>
      </trkpt>
      <trkpt lat="42.43445" lon="2.26575">
        <ele>2546</ele>
        <time>2021-06-19T22:58:00Z</time>
      </trkpt>
      <trkpt lat="42.43431" lon="2.26628">
        <ele>2544</ele>
        <time>2021-06-19T22:58:10Z</time>
      </trkpt>
      <trkpt lat="42.43411" lon="2.26658">
        <ele>2546</ele>
        <time>2021-06-19T22:58:17Z</time>
      </trkpt>
      <trkpt lat="42.43356" lon="2.26703">
        <ele>2538</ele>
        <time>2021-06-19T22:58:32Z</time>
      </trkpt>
      <trkpt lat="42.43338" lon="2.26729">
        <ele>2538</ele>
        <time>2021-06-19T22:58:38Z</time>
      </trkpt>
      <trkpt lat="42.43335" lon="2.26743">
        <ele>2540</ele>
        <time>2021-06-19T22:58:40Z</time>
      </trkpt>
      <trkpt lat="42.43336" lon="2.26754">
        <ele>2541</ele>
        <time>2021-06-19T22:58:42Z</time>
      </trkpt>
      <trkpt lat="42.43353" lon="2.26847">
        <ele>2528</ele>
        <time>2021-06-19T22:58:59Z</time>
      </trkpt>
      <trkpt lat="42.43344" lon="2.26866">
        <ele>2524</ele>
        <time>2021-06-19T22:59:03Z</time>
      </trkpt>
      <trkpt lat="42.43362" lon="2.26931">
        <ele>2512</ele>
        <time>2021-06-19T22:59:15Z</time>
      </trkpt>
      <trkpt lat="42.43376" lon="2.27017">
        <ele>2495</ele>
        <time>2021-06-19T22:59:30Z</time>
      </trkpt>
      <trkpt lat="42.43372" lon="2.2715">
        <ele>2465</ele>
        <time>2021-06-19T22:59:53Z</time>
      </trkpt>
      <trkpt lat="42.43377" lon="2.27192">
        <ele>2456</ele>
        <time>2021-06-19T23:00:00Z</time>
      </trkpt>
      <trkpt lat="42.43375" lon="2.27203">
        <ele>2452</ele>
        <time>2021-06-19T23:00:02Z</time>
      </trkpt>
      <trkpt lat="42.43382" lon="2.27258">
        <ele>2438</ele>
        <time>2021-06-19T23:00:12Z</time>
      </trkpt>
      <trkpt lat="42.43377" lon="2.27261">
        <ele>2436</ele>
        <time>2021-06-19T23:00:13Z</time>
      </trkpt>
      <trkpt lat="42.43348" lon="2.27265">
        <ele>2431</ele>
        <time>2021-06-19T23:00:20Z</time>
      </trkpt>
      <trkpt lat="42.43339" lon="2.27264">
        <ele>2430</ele>
        <time>2021-06-19T23:00:22Z</time>
      </trkpt>
      <trkpt lat="42.43335" lon="2.27267">
        <ele>2429</ele>
        <time>2021-06-19T23:00:23Z</time>
      </trkpt>
      <trkpt lat="42.4333" lon="2.27287">
        <ele>2423</ele>
        <time>2021-06-19T23:00:27Z</time>
      </trkpt>
      <trkpt lat="42.43319" lon="2.27299">
        <ele>2419</ele>
        <time>2021-06-19T23:00:30Z</time>
      </trkpt>
      <trkpt lat="42.43296" lon="2.27337">
        <ele>2411</ele>
        <time>2021-06-19T23:00:38Z</time>
      </trkpt>
      <trkpt lat="42.43283" lon="2.27369">
        <ele>2411</ele>
        <time>2021-06-19T23:00:45Z</time>
      </trkpt>
      <trkpt lat="42.43239" lon="2.27379">
        <ele>2415</ele>
        <time>2021-06-19T23:00:55Z</time>
      </trkpt>
      <trkpt lat="42.43209" lon="2.27381">
        <ele>2414</ele>
        <time>2021-06-19T23:01:02Z</time>
      </trkpt>
      <trkpt lat="42.43195" lon="2.27386">
        <ele>2415</ele>
        <time>2021-06-19T23:01:05Z</time>
      </trkpt>
      <trkpt lat="42.43163" lon="2.27392">
        <ele>2415</ele>
        <time>2021-06-19T23:01:13Z</time>
      </trkpt>
      <trkpt lat="42.43149" lon="2.27398">
        <ele>2415</ele>
        <time>2021-06-19T23:01:16Z</time>
      </trkpt>
      <trkpt lat="42.43125" lon="2.27416">
        <ele>2418</ele>
        <time>2021-06-19T23:01:23Z</time>
      </trkpt>
      <trkpt lat="42.43102" lon="2.27443">
        <ele>2420</ele>
        <time>2021-06-19T23:01:30Z</time>
      </trkpt>
      <trkpt lat="42.4306" lon="2.27476">
        <ele>2420</ele>
        <time>2021-06-19T23:01:41Z</time>
      </trkpt>
      <trkpt lat="42.4304" lon="2.27501">
        <ele>2420</ele>
        <time>2021-06-19T23:01:48Z</time>
      </trkpt>
      <trkpt lat="42.4301" lon="2.27529">
        <ele>2417</ele>
        <time>2021-06-19T23:01:56Z</time>
      </trkpt>
      <trkpt lat="42.42971" lon="2.27559">
        <ele>2412</ele>
        <time>2021-06-19T23:02:07Z</time>
      </trkpt>
      <trkpt lat="42.42952" lon="2.27584">
        <ele>2411</ele>
        <time>2021-06-19T23:02:13Z</time>
      </trkpt>
      <trkpt lat="42.42865" lon="2.27665">
        <ele>2397</ele>
        <time>2021-06-19T23:02:37Z</time>
      </trkpt>
      <trkpt lat="42.42798" lon="2.27709">
        <ele>2386</ele>
        <time>2021-06-19T23:02:55Z</time>
      </trkpt>
      <trkpt lat="42.42828" lon="2.27792">
        <ele>2382</ele>
        <time>2021-06-19T23:03:11Z</time>
      </trkpt>
      <trkpt lat="42.42851" lon="2.27828">
        <ele>2382</ele>
        <time>2021-06-19T23:03:19Z</time>
      </trkpt>
      <trkpt lat="42.42883" lon="2.27972">
        <ele>2384</ele>
        <time>2021-06-19T23:03:45Z</time>
      </trkpt>
      <trkpt lat="42.42904" lon="2.28085">
        <ele>2390</ele>
        <time>2021-06-19T23:04:05Z</time>
      </trkpt>
      <trkpt lat="42.42993" lon="2.2833">
        <ele>2403</ele>
        <time>2021-06-19T23:04:52Z</time>
      </trkpt>
      <trkpt lat="42.43013" lon="2.28369">
        <ele>2403</ele>
        <time>2021-06-19T23:05:00Z</time>
      </trkpt>
      <trkpt lat="42.43027" lon="2.28409">
        <ele>2405</ele>
        <time>2021-06-19T23:05:08Z</time>
      </trkpt>
      <trkpt lat="42.43037" lon="2.28515">
        <ele>2410</ele>
        <time>2021-06-19T23:05:26Z</time>
      </trkpt>
      <trkpt lat="42.4303" lon="2.28624">
        <ele>2411</ele>
        <time>2021-06-19T23:05:45Z</time>
      </trkpt>
      <trkpt lat="42.42998" lon="2.28815">
        <ele>2410</ele>
        <time>2021-06-19T23:06:19Z</time>
      </trkpt>
      <trkpt lat="42.42835" lon="2.29228">
        <ele>2400</ele>
        <time>2021-06-19T23:07:40Z</time>
      </trkpt>
      <trkpt lat="42.42791" lon="2.29385">
        <ele>2395</ele>
        <time>2021-06-19T23:08:09Z</time>
      </trkpt>
      <trkpt lat="42.42747" lon="2.29498">
        <ele>2396</ele>
        <time>2021-06-19T23:08:31Z</time>
      </trkpt>
      <trkpt lat="42.42693" lon="2.29845">
        <ele>2391</ele>
        <time>2021-06-19T23:09:32Z</time>
      </trkpt>
      <trkpt lat="42.42713" lon="2.29931">
        <ele>2388</ele>
        <time>2021-06-19T23:09:47Z</time>
      </trkpt>
      <trkpt lat="42.42719" lon="2.2997">
        <ele>2389</ele>
        <time>2021-06-19T23:09:54Z</time>
      </trkpt>
      <trkpt lat="42.42751" lon="2.30048">
        <ele>2387</ele>
        <time>2021-06-19T23:10:09Z</time>
      </trkpt>
      <trkpt lat="42.42837" lon="2.30182">
        <ele>2394</ele>
        <time>2021-06-19T23:10:40Z</time>
      </trkpt>
      <trkpt lat="42.42953" lon="2.30295">
        <ele>2402</ele>
        <time>2021-06-19T23:11:13Z</time>
      </trkpt>
      <trkpt lat="42.42996" lon="2.3036">
        <ele>2408</ele>
        <time>2021-06-19T23:11:29Z</time>
      </trkpt>
      <trkpt lat="42.43064" lon="2.30425">
        <ele>2414</ele>
        <time>2021-06-19T23:11:48Z</time>
      </trkpt>
      <trkpt lat="42.43154" lon="2.30542">
        <ele>2418</ele>
        <time>2021-06-19T23:12:17Z</time>
      </trkpt>
      <trkpt lat="42.43204" lon="2.30619">
        <ele>2407</ele>
        <time>2021-06-19T23:12:35Z</time>
      </trkpt>
      <trkpt lat="42.43123" lon="2.30856">
        <ele>2394</ele>
        <time>2021-06-19T23:13:20Z</time>
      </trkpt>
      <trkpt lat="42.43076" lon="2.3095">
        <ele>2387</ele>
        <time>2021-06-19T23:13:39Z</time>
      </trkpt>
      <trkpt lat="42.42954" lon="2.31089">
        <ele>2377</ele>
        <time>2021-06-19T23:14:17Z</time>
      </trkpt>
      <trkpt lat="42.42925" lon="2.3113">
        <ele>2375</ele>
        <time>2021-06-19T23:14:26Z</time>
      </trkpt>
      <trkpt lat="42.42895" lon="2.3116">
        <ele>2374</ele>
        <time>2021-06-19T23:14:35Z</time>
      </trkpt>
      <trkpt lat="42.42858" lon="2.31215">
        <ele>2372</ele>
        <time>2021-06-19T23:14:48Z</time>
      </trkpt>
      <trkpt lat="42.42831" lon="2.3128">
        <ele>2374</ele>
        <time>2021-06-19T23:15:01Z</time>
      </trkpt>
      <trkpt lat="42.42817" lon="2.31306">
        <ele>2371</ele>
        <time>2021-06-19T23:15:06Z</time>
      </trkpt>
      <trkpt lat="42.4279" lon="2.31382">
        <ele>2379</ele>
        <time>2021-06-19T23:15:21Z</time>
      </trkpt>
      <trkpt lat="42.42784" lon="2.31393">
        <ele>2381</ele>
        <time>2021-06-19T23:15:23Z</time>
      </trkpt>
      <trkpt lat="42.42774" lon="2.31396">
        <ele>2382</ele>
        <time>2021-06-19T23:15:26Z</time>
      </trkpt>
      <trkpt lat="42.42765" lon="2.31406">
        <ele>2385</ele>
        <time>2021-06-19T23:15:28Z</time>
      </trkpt>
      <trkpt lat="42.42755" lon="2.31423">
        <ele>2390</ele>
        <time>2021-06-19T23:15:32Z</time>
      </trkpt>
      <trkpt lat="42.42729" lon="2.31484">
        <ele>2397</ele>
        <time>2021-06-19T23:15:44Z</time>
      </trkpt>
      <trkpt lat="42.42714" lon="2.31509">
        <ele>2401</ele>
        <time>2021-06-19T23:15:50Z</time>
      </trkpt>
      <trkpt lat="42.42714" lon="2.31519">
        <ele>2403</ele>
        <time>2021-06-19T23:15:51Z</time>
      </trkpt>
      <trkpt lat="42.42691" lon="2.31611">
        <ele>2424</ele>
        <time>2021-06-19T23:16:08Z</time>
      </trkpt>
      <trkpt lat="42.42677" lon="2.31644">
        <ele>2434</ele>
        <time>2021-06-19T23:16:15Z</time>
      </trkpt>
      <trkpt lat="42.42657" lon="2.31681">
        <ele>2443</ele>
        <time>2021-06-19T23:16:23Z</time>
      </trkpt>
      <trkpt lat="42.42633" lon="2.31706">
        <ele>2448</ele>
        <time>2021-06-19T23:16:30Z</time>
      </trkpt>
      <trkpt lat="42.42557" lon="2.31815">
        <ele>2479</ele>
        <time>2021-06-19T23:16:56Z</time>
      </trkpt>
      <trkpt lat="42.42541" lon="2.3185">
        <ele>2485</ele>
        <time>2021-06-19T23:17:03Z</time>
      </trkpt>
      <trkpt lat="42.42528" lon="2.31859">
        <ele>2486</ele>
        <time>2021-06-19T23:17:06Z</time>
      </trkpt>
      <trkpt lat="42.42505" lon="2.31883">
        <ele>2489</ele>
        <time>2021-06-19T23:17:13Z</time>
      </trkpt>
      <trkpt lat="42.42496" lon="2.31916">
        <ele>2492</ele>
        <time>2021-06-19T23:17:19Z</time>
      </trkpt>
      <trkpt lat="42.42488" lon="2.31916">
        <ele>2490</ele>
        <time>2021-06-19T23:17:21Z</time>
      </trkpt>
      <trkpt lat="42.42472" lon="2.3191">
        <ele>2486</ele>
        <time>2021-06-19T23:17:25Z</time>
      </trkpt>
      <trkpt lat="42.42443" lon="2.31887">
        <ele>2478</ele>
        <time>2021-06-19T23:17:33Z</time>
      </trkpt>
      <trkpt lat="42.42421" lon="2.31884">
        <ele>2474</ele>
        <time>2021-06-19T23:17:38Z</time>
      </trkpt>
      <trkpt lat="42.42347" lon="2.31914">
        <ele>2461</ele>
        <time>2021-06-19T23:17:56Z</time>
      </trkpt>
      <trkpt lat="42.42286" lon="2.31929">
        <ele>2450</ele>
        <time>2021-06-19T23:18:10Z</time>
      </trkpt>
      <trkpt lat="42.42212" lon="2.31954">
        <ele>2441</ele>
        <time>2021-06-19T23:18:28Z</time>
      </trkpt>
      <trkpt lat="42.4218" lon="2.31977">
        <ele>2437</ele>
        <time>2021-06-19T23:18:36Z</time>
      </trkpt>
      <trkpt lat="42.42152" lon="2.32012">
        <ele>2431</ele>
        <time>2021-06-19T23:18:45Z</time>
      </trkpt>
      <trkpt lat="42.42067" lon="2.32135">
        <ele>2420</ele>
        <time>2021-06-19T23:19:14Z</time>
      </trkpt>
      <trkpt lat="42.42027" lon="2.3217">
        <ele>2417</ele>
        <time>2021-06-19T23:19:26Z</time>
      </trkpt>
      <trkpt lat="42.41989" lon="2.32187">
        <ele>2412</ele>
        <time>2021-06-19T23:19:35Z</time>
      </trkpt>
      <trkpt lat="42.41945" lon="2.32271">
        <ele>2397</ele>
        <time>2021-06-19T23:19:53Z</time>
      </trkpt>
      <trkpt lat="42.41903" lon="2.32337">
        <ele>2393</ele>
        <time>2021-06-19T23:20:08Z</time>
      </trkpt>
      <trkpt lat="42.41815" lon="2.32551">
        <ele>2381</ele>
        <time>2021-06-19T23:20:50Z</time>
      </trkpt>
      <trkpt lat="42.41777" lon="2.3261">
        <ele>2378</ele>
        <time>2021-06-19T23:21:03Z</time>
      </trkpt>
      <trkpt lat="42.41762" lon="2.32642">
        <ele>2375</ele>
        <time>2021-06-19T23:21:10Z</time>
      </trkpt>
      <trkpt lat="42.41723" lon="2.32747">
        <ele>2364</ele>
        <time>2021-06-19T23:21:30Z</time>
      </trkpt>
      <trkpt lat="42.4171" lon="2.32811">
        <ele>2358</ele>
        <time>2021-06-19T23:21:42Z</time>
      </trkpt>
      <trkpt lat="42.41682" lon="2.32922">
        <ele>2360</ele>
        <time>2021-06-19T23:22:02Z</time>
      </trkpt>
      <trkpt lat="42.41674" lon="2.32991">
        <ele>2360</ele>
        <time>2021-06-19T23:22:14Z</time>
      </trkpt>
      <trkpt lat="42.41663" lon="2.33183">
        <ele>2345</ele>
        <time>2021-06-19T23:22:47Z</time>
      </trkpt>
      <trkpt lat="42.41662" lon="2.3332">
        <ele>2329</ele>
        <time>2021-06-19T23:23:11Z</time>
      </trkpt>
      <trkpt lat="42.41648" lon="2.33364">
        <ele>2325</ele>
        <time>2021-06-19T23:23:19Z</time>
      </trkpt>
      <trkpt lat="42.41612" lon="2.33442">
        <ele>2322</ele>
        <time>2021-06-19T23:23:35Z</time>
      </trkpt>
      <trkpt lat="42.41607" lon="2.33478">
        <ele>2322</ele>
        <time>2021-06-19T23:23:41Z</time>
      </trkpt>
      <trkpt lat="42.41591" lon="2.33493">
        <ele>2323</ele>
        <time>2021-06-19T23:23:46Z</time>
      </trkpt>
      <trkpt lat="42.41552" lon="2.33511">
        <ele>2312</ele>
        <time>2021-06-19T23:23:55Z</time>
      </trkpt>
      <trkpt lat="42.41526" lon="2.33553">
        <ele>2302</ele>
        <time>2021-06-19T23:24:05Z</time>
      </trkpt>
      <trkpt lat="42.41515" lon="2.33599">
        <ele>2297</ele>
        <time>2021-06-19T23:24:13Z</time>
      </trkpt>
      <trkpt lat="42.41502" lon="2.3363">
        <ele>2290</ele>
        <time>2021-06-19T23:24:19Z</time>
      </trkpt>
      <trkpt lat="42.4149" lon="2.33672">
        <ele>2282</ele>
        <time>2021-06-19T23:24:27Z</time>
      </trkpt>
      <trkpt lat="42.41488" lon="2.33764">
        <ele>2285</ele>
        <time>2021-06-19T23:24:43Z</time>
      </trkpt>
      <trkpt lat="42.4147" lon="2.33791">
        <ele>2279</ele>
        <time>2021-06-19T23:24:49Z</time>
      </trkpt>
      <trkpt lat="42.41446" lon="2.33817">
        <ele>2268</ele>
        <time>2021-06-19T23:24:56Z</time>
      </trkpt>
      <trkpt lat="42.41401" lon="2.33882">
        <ele>2259</ele>
        <time>2021-06-19T23:25:12Z</time>
      </trkpt>
      <trkpt lat="42.4134" lon="2.33946">
        <ele>2250</ele>
        <time>2021-06-19T23:25:30Z</time>
      </trkpt>
      <trkpt lat="42.4133" lon="2.33954">
        <ele>2248</ele>
        <time>2021-06-19T23:25:32Z</time>
      </trkpt>
      <trkpt lat="42.413" lon="2.33992">
        <ele>2249</ele>
        <time>2021-06-19T23:25:42Z</time>
      </trkpt>
      <trkpt lat="42.41295" lon="2.34027">
        <ele>2247</ele>
        <time>2021-06-19T23:25:48Z</time>
      </trkpt>
      <trkpt lat="42.41295" lon="2.34088">
        <ele>2240</ele>
        <time>2021-06-19T23:25:59Z</time>
      </trkpt>
      <trkpt lat="42.41297" lon="2.34099">
        <ele>2239</ele>
        <time>2021-06-19T23:26:01Z</time>
      </trkpt>
      <trkpt lat="42.41287" lon="2.342">
        <ele>2229</ele>
        <time>2021-06-19T23:26:18Z</time>
      </trkpt>
      <trkpt lat="42.41271" lon="2.34229">
        <ele>2223</ele>
        <time>2021-06-19T23:26:24Z</time>
      </trkpt>
      <trkpt lat="42.41269" lon="2.34237">
        <ele>2223</ele>
        <time>2021-06-19T23:26:26Z</time>
      </trkpt>
      <trkpt lat="42.41247" lon="2.34259">
        <ele>2215</ele>
        <time>2021-06-19T23:26:32Z</time>
      </trkpt>
      <trkpt lat="42.41223" lon="2.34301">
        <ele>2212</ele>
        <time>2021-06-19T23:26:41Z</time>
      </trkpt>
      <trkpt lat="42.41207" lon="2.34345">
        <ele>2215</ele>
        <time>2021-06-19T23:26:50Z</time>
      </trkpt>
      <trkpt lat="42.41164" lon="2.34415">
        <ele>2212</ele>
        <time>2021-06-19T23:27:06Z</time>
      </trkpt>
      <trkpt lat="42.41097" lon="2.34476">
        <ele>2198</ele>
        <time>2021-06-19T23:27:24Z</time>
      </trkpt>
      <trkpt lat="42.4106" lon="2.34504">
        <ele>2195</ele>
        <time>2021-06-19T23:27:34Z</time>
      </trkpt>
      <trkpt lat="42.41043" lon="2.34531">
        <ele>2190</ele>
        <time>2021-06-19T23:27:40Z</time>
      </trkpt>
      <trkpt lat="42.41005" lon="2.34547">
        <ele>2184</ele>
        <time>2021-06-19T23:27:50Z</time>
      </trkpt>
      <trkpt lat="42.40941" lon="2.34503">
        <ele>2164</ele>
        <time>2021-06-19T23:28:07Z</time>
      </trkpt>
      <trkpt lat="42.40937" lon="2.34474">
        <ele>2155</ele>
        <time>2021-06-19T23:28:12Z</time>
      </trkpt>
      <trkpt lat="42.40925" lon="2.34489">
        <ele>2156</ele>
        <time>2021-06-19T23:28:15Z</time>
      </trkpt>
      <trkpt lat="42.40906" lon="2.34498">
        <ele>2152</ele>
        <time>2021-06-19T23:28:20Z</time>
      </trkpt>
      <trkpt lat="42.40857" lon="2.34534">
        <ele>2142</ele>
        <time>2021-06-19T23:28:33Z</time>
      </trkpt>
      <trkpt lat="42.40835" lon="2.34571">
        <ele>2140</ele>
        <time>2021-06-19T23:28:41Z</time>
      </trkpt>
      <trkpt lat="42.40827" lon="2.34592">
        <ele>2138</ele>
        <time>2021-06-19T23:28:45Z</time>
      </trkpt>
      <trkpt lat="42.40821" lon="2.34632">
        <ele>2132</ele>
        <time>2021-06-19T23:28:52Z</time>
      </trkpt>
      <trkpt lat="42.40814" lon="2.34659">
        <ele>2127</ele>
        <time>2021-06-19T23:28:57Z</time>
      </trkpt>
      <trkpt lat="42.40778" lon="2.34723">
        <ele>2100</ele>
        <time>2021-06-19T23:29:11Z</time>
      </trkpt>
      <trkpt lat="42.40762" lon="2.3478">
        <ele>2084</ele>
        <time>2021-06-19T23:29:22Z</time>
      </trkpt>
      <trkpt lat="42.40738" lon="2.34811">
        <ele>2072</ele>
        <time>2021-06-19T23:29:30Z</time>
      </trkpt>
      <trkpt lat="42.40702" lon="2.34873">
        <ele>2042</ele>
        <time>2021-06-19T23:29:43Z</time>
      </trkpt>
      <trkpt lat="42.40694" lon="2.34883">
        <ele>2036</ele>
        <time>2021-06-19T23:29:46Z</time>
      </trkpt>
      <trkpt lat="42.40671" lon="2.34949">
        <ele>2013</ele>
        <time>2021-06-19T23:29:58Z</time>
      </trkpt>
      <trkpt lat="42.40634" lon="2.35023">
        <ele>1985</ele>
        <time>2021-06-19T23:30:14Z</time>
      </trkpt>
      <trkpt lat="42.40621" lon="2.35076">
        <ele>1967</ele>
        <time>2021-06-19T23:30:23Z</time>
      </trkpt>
      <trkpt lat="42.40593" lon="2.35133">
        <ele>1951</ele>
        <time>2021-06-19T23:30:35Z</time>
      </trkpt>
      <trkpt lat="42.4058" lon="2.35182">
        <ele>1942</ele>
        <time>2021-06-19T23:30:44Z</time>
      </trkpt>
      <trkpt lat="42.40532" lon="2.35332">
        <ele>1917</ele>
        <time>2021-06-19T23:31:12Z</time>
      </trkpt>
      <trkpt lat="42.40508" lon="2.354">
        <ele>1911</ele>
        <time>2021-06-19T23:31:25Z</time>
      </trkpt>
      <trkpt lat="42.40483" lon="2.35449">
        <ele>1904</ele>
        <time>2021-06-19T23:31:36Z</time>
      </trkpt>
      <trkpt lat="42.40441" lon="2.35576">
        <ele>1893</ele>
        <time>2021-06-19T23:32:00Z</time>
      </trkpt>
      <trkpt lat="42.40406" lon="2.35669">
        <ele>1887</ele>
        <time>2021-06-19T23:32:18Z</time>
      </trkpt>
      <trkpt lat="42.404" lon="2.3569">
        <ele>1883</ele>
        <time>2021-06-19T23:32:21Z</time>
      </trkpt>
      <trkpt lat="42.40386" lon="2.35771">
        <ele>1870</ele>
        <time>2021-06-19T23:32:36Z</time>
      </trkpt>
      <trkpt lat="42.40368" lon="2.35827">
        <ele>1861</ele>
        <time>2021-06-19T23:32:46Z</time>
      </trkpt>
      <trkpt lat="42.40353" lon="2.35909">
        <ele>1851</ele>
        <time>2021-06-19T23:33:01Z</time>
      </trkpt>
      <trkpt lat="42.40344" lon="2.35934">
        <ele>1848</ele>
        <time>2021-06-19T23:33:06Z</time>
      </trkpt>
      <trkpt lat="42.40293" lon="2.36039">
        <ele>1821</ele>
        <time>2021-06-19T23:33:27Z</time>
      </trkpt>
      <trkpt lat="42.40264" lon="2.36109">
        <ele>1809</ele>
        <time>2021-06-19T23:33:41Z</time>
      </trkpt>
      <trkpt lat="42.40257" lon="2.36148">
        <ele>1803</ele>
        <time>2021-06-19T23:33:48Z</time>
      </trkpt>
      <trkpt lat="42.4025" lon="2.36171">
        <ele>1801</ele>
        <time>2021-06-19T23:33:52Z</time>
      </trkpt>
      <trkpt lat="42.4024" lon="2.36185">
        <ele>1795</ele>
        <time>2021-06-19T23:33:56Z</time>
      </trkpt>
      <trkpt lat="42.40234" lon="2.36243">
        <ele>1783</ele>
        <time>2021-06-19T23:34:06Z</time>
      </trkpt>
      <trkpt lat="42.40234" lon="2.36271">
        <ele>1779</ele>
        <time>2021-06-19T23:34:11Z</time>
      </trkpt>
      <trkpt lat="42.40244" lon="2.36317">
        <ele>1775</ele>
        <time>2021-06-19T23:34:19Z</time>
      </trkpt>
      <trkpt lat="42.40243" lon="2.36334">
        <ele>1772</ele>
        <time>2021-06-19T23:34:22Z</time>
      </trkpt>
      <trkpt lat="42.40226" lon="2.36428">
        <ele>1754</ele>
        <time>2021-06-19T23:34:39Z</time>
      </trkpt>
      <trkpt lat="42.40227" lon="2.36467">
        <ele>1749</ele>
        <time>2021-06-19T23:34:45Z</time>
      </trkpt>
      <trkpt lat="42.40237" lon="2.36551">
        <ele>1741</ele>
        <time>2021-06-19T23:35:00Z</time>
      </trkpt>
      <trkpt lat="42.40231" lon="2.36597">
        <ele>1734</ele>
        <time>2021-06-19T23:35:08Z</time>
      </trkpt>
      <trkpt lat="42.4023" lon="2.36631">
        <ele>1729</ele>
        <time>2021-06-19T23:35:14Z</time>
      </trkpt>
      <trkpt lat="42.40216" lon="2.36673">
        <ele>1721</ele>
        <time>2021-06-19T23:35:22Z</time>
      </trkpt>
      <trkpt lat="42.40206" lon="2.36683">
        <ele>1718</ele>
        <time>2021-06-19T23:35:25Z</time>
      </trkpt>
      <trkpt lat="42.40167" lon="2.36765">
        <ele>1707</ele>
        <time>2021-06-19T23:35:42Z</time>
      </trkpt>
      <trkpt lat="42.40157" lon="2.3678">
        <ele>1702</ele>
        <time>2021-06-19T23:35:45Z</time>
      </trkpt>
      <trkpt lat="42.40146" lon="2.36818">
        <ele>1694</ele>
        <time>2021-06-19T23:35:52Z</time>
      </trkpt>
      <trkpt lat="42.40137" lon="2.3684">
        <ele>1689</ele>
        <time>2021-06-19T23:35:56Z</time>
      </trkpt>
      <trkpt lat="42.40108" lon="2.36899">
        <ele>1680</ele>
        <time>2021-06-19T23:36:09Z</time>
      </trkpt>
      <trkpt lat="42.40102" lon="2.36905">
        <ele>1680</ele>
        <time>2021-06-19T23:36:10Z</time>
      </trkpt>
      <trkpt lat="42.40094" lon="2.36906">
        <ele>1680</ele>
        <time>2021-06-19T23:36:12Z</time>
      </trkpt>
      <trkpt lat="42.4009" lon="2.36936">
        <ele>1681</ele>
        <time>2021-06-19T23:36:18Z</time>
      </trkpt>
      <trkpt lat="42.40074" lon="2.36989">
        <ele>1681</ele>
        <time>2021-06-19T23:36:27Z</time>
      </trkpt>
      <trkpt lat="42.40063" lon="2.37007">
        <ele>1678</ele>
        <time>2021-06-19T23:36:31Z</time>
      </trkpt>
      <trkpt lat="42.40043" lon="2.37025">
        <ele>1673</ele>
        <time>2021-06-19T23:36:37Z</time>
      </trkpt>
      <trkpt lat="42.40037" lon="2.37048">
        <ele>1672</ele>
        <time>2021-06-19T23:36:41Z</time>
      </trkpt>
      <trkpt lat="42.40034" lon="2.3708">
        <ele>1673</ele>
        <time>2021-06-19T23:36:47Z</time>
      </trkpt>
      <trkpt lat="42.40027" lon="2.37104">
        <ele>1672</ele>
        <time>2021-06-19T23:36:51Z</time>
      </trkpt>
      <trkpt lat="42.40003" lon="2.37152">
        <ele>1670</ele>
        <time>2021-06-19T23:37:01Z</time>
      </trkpt>
      <trkpt lat="42.4" lon="2.37193">
        <ele>1668</ele>
        <time>2021-06-19T23:37:08Z</time>
      </trkpt>
      <trkpt lat="42.40008" lon="2.37255">
        <ele>1663</ele>
        <time>2021-06-19T23:37:19Z</time>
      </trkpt>
      <trkpt lat="42.40024" lon="2.37308">
        <ele>1657</ele>
        <time>2021-06-19T23:37:29Z</time>
      </trkpt>
      <trkpt lat="42.40051" lon="2.3738">
        <ele>1647</ele>
        <time>2021-06-19T23:37:43Z</time>
      </trkpt>
      <trkpt lat="42.40071" lon="2.37482">
        <ele>1634</ele>
        <time>2021-06-19T23:38:01Z</time>
      </trkpt>
      <trkpt lat="42.40073" lon="2.37517">
        <ele>1630</ele>
        <time>2021-06-19T23:38:07Z</time>
      </trkpt>
      <trkpt lat="42.40084" lon="2.37568">
        <ele>1626</ele>
        <time>2021-06-19T23:38:16Z</time>
      </trkpt>
      <trkpt lat="42.4009" lon="2.37574">
        <ele>1625</ele>
        <time>2021-06-19T23:38:18Z</time>
      </trkpt>
      <trkpt lat="42.4008" lon="2.37591">
        <ele>1625</ele>
        <time>2021-06-19T23:38:22Z</time>
      </trkpt>
      <trkpt lat="42.40072" lon="2.37612">
        <ele>1626</ele>
        <time>2021-06-19T23:38:26Z</time>
      </trkpt>
      <trkpt lat="42.40063" lon="2.37649">
        <ele>1627</ele>
        <time>2021-06-19T23:38:33Z</time>
      </trkpt>
      <trkpt lat="42.40045" lon="2.37681">
        <ele>1627</ele>
        <time>2021-06-19T23:38:40Z</time>
      </trkpt>
      <trkpt lat="42.40038" lon="2.37699">
        <ele>1628</ele>
        <time>2021-06-19T23:38:43Z</time>
      </trkpt>
      <trkpt lat="42.40026" lon="2.37744">
        <ele>1630</ele>
        <time>2021-06-19T23:38:51Z</time>
      </trkpt>
      <trkpt lat="42.40024" lon="2.37779">
        <ele>1634</ele>
        <time>2021-06-19T23:38:57Z</time>
      </trkpt>
      <trkpt lat="42.40014" lon="2.37829">
        <ele>1638</ele>
        <time>2021-06-19T23:39:06Z</time>
      </trkpt>
      <trkpt lat="42.4" lon="2.37878">
        <ele>1637</ele>
        <time>2021-06-19T23:39:15Z</time>
      </trkpt>
      <trkpt lat="42.39991" lon="2.37961">
        <ele>1640</ele>
        <time>2021-06-19T23:39:30Z</time>
      </trkpt>
      <trkpt lat="42.39982" lon="2.38014">
        <ele>1642</ele>
        <time>2021-06-19T23:39:39Z</time>
      </trkpt>
      <trkpt lat="42.39961" lon="2.38111">
        <ele>1646</ele>
        <time>2021-06-19T23:39:57Z</time>
      </trkpt>
      <trkpt lat="42.39911" lon="2.38273">
        <ele>1649</ele>
        <time>2021-06-19T23:40:27Z</time>
      </trkpt>
      <trkpt lat="42.39896" lon="2.38352">
        <ele>1655</ele>
        <time>2021-06-19T23:40:41Z</time>
      </trkpt>
      <trkpt lat="42.39877" lon="2.38401">
        <ele>1656</ele>
        <time>2021-06-19T23:40:51Z</time>
      </trkpt>
      <trkpt lat="42.39852" lon="2.38505">
        <ele>1655</ele>
        <time>2021-06-19T23:41:09Z</time>
      </trkpt>
      <trkpt lat="42.39845" lon="2.38551">
        <ele>1650</ele>
        <time>2021-06-19T23:41:18Z</time>
      </trkpt>
      <trkpt lat="42.39847" lon="2.38576">
        <ele>1647</ele>
        <time>2021-06-19T23:41:22Z</time>
      </trkpt>
      <trkpt lat="42.39853" lon="2.38595">
        <ele>1647</ele>
        <time>2021-06-19T23:41:25Z</time>
      </trkpt>
      <trkpt lat="42.39876" lon="2.38631">
        <ele>1649</ele>
        <time>2021-06-19T23:41:34Z</time>
      </trkpt>
      <trkpt lat="42.39881" lon="2.38646">
        <ele>1649</ele>
        <time>2021-06-19T23:41:37Z</time>
      </trkpt>
      <trkpt lat="42.39883" lon="2.38681">
        <ele>1647</ele>
        <time>2021-06-19T23:41:43Z</time>
      </trkpt>
      <trkpt lat="42.39881" lon="2.38708">
        <ele>1646</ele>
        <time>2021-06-19T23:41:47Z</time>
      </trkpt>
      <trkpt lat="42.39875" lon="2.38738">
        <ele>1643</ele>
        <time>2021-06-19T23:41:53Z</time>
      </trkpt>
      <trkpt lat="42.39841" lon="2.38818">
        <ele>1639</ele>
        <time>2021-06-19T23:42:09Z</time>
      </trkpt>
      <trkpt lat="42.39824" lon="2.3885">
        <ele>1638</ele>
        <time>2021-06-19T23:42:15Z</time>
      </trkpt>
      <trkpt lat="42.39783" lon="2.3898">
        <ele>1637</ele>
        <time>2021-06-19T23:42:40Z</time>
      </trkpt>
      <trkpt lat="42.39774" lon="2.38998">
        <ele>1637</ele>
        <time>2021-06-19T23:42:43Z</time>
      </trkpt>
      <trkpt lat="42.39741" lon="2.39053">
        <ele>1636</ele>
        <time>2021-06-19T23:42:56Z</time>
      </trkpt>
      <trkpt lat="42.39721" lon="2.39076">
        <ele>1635</ele>
        <time>2021-06-19T23:43:02Z</time>
      </trkpt>
      <trkpt lat="42.39694" lon="2.39099">
        <ele>1634</ele>
        <time>2021-06-19T23:43:09Z</time>
      </trkpt>
      <trkpt lat="42.39657" lon="2.39153">
        <ele>1633</ele>
        <time>2021-06-19T23:43:22Z</time>
      </trkpt>
      <trkpt lat="42.39589" lon="2.39238">
        <ele>1635</ele>
        <time>2021-06-19T23:43:44Z</time>
      </trkpt>
      <trkpt lat="42.39563" lon="2.39279">
        <ele>1632</ele>
        <time>2021-06-19T23:43:53Z</time>
      </trkpt>
      <trkpt lat="42.39548" lon="2.39308">
        <ele>1631</ele>
        <time>2021-06-19T23:43:59Z</time>
      </trkpt>
      <trkpt lat="42.39526" lon="2.39371">
        <ele>1626</ele>
        <time>2021-06-19T23:44:11Z</time>
      </trkpt>
      <trkpt lat="42.39493" lon="2.39542">
        <ele>1609</ele>
        <time>2021-06-19T23:44:42Z</time>
      </trkpt>
      <trkpt lat="42.39472" lon="2.39619">
        <ele>1604</ele>
        <time>2021-06-19T23:44:56Z</time>
      </trkpt>
      <trkpt lat="42.39396" lon="2.39765">
        <ele>1600</ele>
        <time>2021-06-19T23:45:26Z</time>
      </trkpt>
      <trkpt lat="42.39386" lon="2.39788">
        <ele>1599</ele>
        <time>2021-06-19T23:45:31Z</time>
      </trkpt>
      <trkpt lat="42.39369" lon="2.39841">
        <ele>1598</ele>
        <time>2021-06-19T23:45:41Z</time>
      </trkpt>
      <trkpt lat="42.39331" lon="2.39928">
        <ele>1594</ele>
        <time>2021-06-19T23:45:58Z</time>
      </trkpt>
      <trkpt lat="42.39318" lon="2.39944">
        <ele>1592</ele>
        <time>2021-06-19T23:46:03Z</time>
      </trkpt>
      <trkpt lat="42.39305" lon="2.3998">
        <ele>1593</ele>
        <time>2021-06-19T23:46:09Z</time>
      </trkpt>
      <trkpt lat="42.39292" lon="2.40002">
        <ele>1592</ele>
        <time>2021-06-19T23:46:14Z</time>
      </trkpt>
      <trkpt lat="42.39271" lon="2.40029">
        <ele>1588</ele>
        <time>2021-06-19T23:46:21Z</time>
      </trkpt>
      <trkpt lat="42.39251" lon="2.4008">
        <ele>1587</ele>
        <time>2021-06-19T23:46:31Z</time>
      </trkpt>
      <trkpt lat="42.39246" lon="2.401">
        <ele>1585</ele>
        <time>2021-06-19T23:46:35Z</time>
      </trkpt>
      <trkpt lat="42.39247" lon="2.40156">
        <ele>1583</ele>
        <time>2021-06-19T23:46:44Z</time>
      </trkpt>
      <trkpt lat="42.39252" lon="2.40176">
        <ele>1582</ele>
        <time>2021-06-19T23:46:48Z</time>
      </trkpt>
      <trkpt lat="42.39251" lon="2.40183">
        <ele>1581</ele>
        <time>2021-06-19T23:46:49Z</time>
      </trkpt>
      <trkpt lat="42.39273" lon="2.40258">
        <ele>1574</ele>
        <time>2021-06-19T23:47:03Z</time>
      </trkpt>
      <trkpt lat="42.3928" lon="2.40294">
        <ele>1571</ele>
        <time>2021-06-19T23:47:10Z</time>
      </trkpt>
      <trkpt lat="42.3929" lon="2.40379">
        <ele>1561</ele>
        <time>2021-06-19T23:47:24Z</time>
      </trkpt>
      <trkpt lat="42.39288" lon="2.40495">
        <ele>1550</ele>
        <time>2021-06-19T23:47:44Z</time>
      </trkpt>
      <trkpt lat="42.39297" lon="2.40551">
        <ele>1547</ele>
        <time>2021-06-19T23:47:54Z</time>
      </trkpt>
      <trkpt lat="42.39298" lon="2.40591">
        <ele>1544</ele>
        <time>2021-06-19T23:48:01Z</time>
      </trkpt>
      <trkpt lat="42.39305" lon="2.40665">
        <ele>1538</ele>
        <time>2021-06-19T23:48:14Z</time>
      </trkpt>
      <trkpt lat="42.3929" lon="2.40748">
        <ele>1533</ele>
        <time>2021-06-19T23:48:29Z</time>
      </trkpt>
      <trkpt lat="42.39289" lon="2.40807">
        <ele>1534</ele>
        <time>2021-06-19T23:48:39Z</time>
      </trkpt>
      <trkpt lat="42.39293" lon="2.40875">
        <ele>1538</ele>
        <time>2021-06-19T23:48:51Z</time>
      </trkpt>
      <trkpt lat="42.39289" lon="2.41003">
        <ele>1549</ele>
        <time>2021-06-19T23:49:13Z</time>
      </trkpt>
      <trkpt lat="42.39284" lon="2.41031">
        <ele>1551</ele>
        <time>2021-06-19T23:49:18Z</time>
      </trkpt>
      <trkpt lat="42.39282" lon="2.41085">
        <ele>1554</ele>
        <time>2021-06-19T23:49:27Z</time>
      </trkpt>
      <trkpt lat="42.39274" lon="2.41134">
        <ele>1557</ele>
        <time>2021-06-19T23:49:36Z</time>
      </trkpt>
      <trkpt lat="42.39273" lon="2.4117">
        <ele>1559</ele>
        <time>2021-06-19T23:49:42Z</time>
      </trkpt>
      <trkpt lat="42.39264" lon="2.41218">
        <ele>1563</ele>
        <time>2021-06-19T23:49:51Z</time>
      </trkpt>
      <trkpt lat="42.39259" lon="2.41231">
        <ele>1564</ele>
        <time>2021-06-19T23:49:53Z</time>
      </trkpt>
      <trkpt lat="42.39258" lon="2.41245">
        <ele>1565</ele>
        <time>2021-06-19T23:49:56Z</time>
      </trkpt>
      <trkpt lat="42.39259" lon="2.41262">
        <ele>1566</ele>
        <time>2021-06-19T23:49:58Z</time>
      </trkpt>
      <trkpt lat="42.39273" lon="2.41324">
        <ele>1567</ele>
        <time>2021-06-19T23:50:10Z</time>
      </trkpt>
      <trkpt lat="42.39272" lon="2.41382">
        <ele>1569</ele>
        <time>2021-06-19T23:50:20Z</time>
      </trkpt>
      <trkpt lat="42.39278" lon="2.41475">
        <ele>1569</ele>
        <time>2021-06-19T23:50:36Z</time>
      </trkpt>
      <trkpt lat="42.39273" lon="2.41514">
        <ele>1569</ele>
        <time>2021-06-19T23:50:43Z</time>
      </trkpt>
      <trkpt lat="42.39253" lon="2.4158">
        <ele>1571</ele>
        <time>2021-06-19T23:50:55Z</time>
      </trkpt>
      <trkpt lat="42.39247" lon="2.41585">
        <ele>1571</ele>
        <time>2021-06-19T23:50:57Z</time>
      </trkpt>
      <trkpt lat="42.39241" lon="2.41585">
        <ele>1571</ele>
        <time>2021-06-19T23:50:58Z</time>
      </trkpt>
      <trkpt lat="42.39265" lon="2.41626">
        <ele>1568</ele>
        <time>2021-06-19T23:51:07Z</time>
      </trkpt>
      <trkpt lat="42.39272" lon="2.41651">
        <ele>1568</ele>
        <time>2021-06-19T23:51:12Z</time>
      </trkpt>
      <trkpt lat="42.39288" lon="2.41685">
        <ele>1567</ele>
        <time>2021-06-19T23:51:19Z</time>
      </trkpt>
      <trkpt lat="42.39296" lon="2.41736">
        <ele>1568</ele>
        <time>2021-06-19T23:51:28Z</time>
      </trkpt>
      <trkpt lat="42.393" lon="2.41776">
        <ele>1571</ele>
        <time>2021-06-19T23:51:34Z</time>
      </trkpt>
      <trkpt lat="42.393" lon="2.41886">
        <ele>1584</ele>
        <time>2021-06-19T23:51:53Z</time>
      </trkpt>
      <trkpt lat="42.39298" lon="2.41899">
        <ele>1586</ele>
        <time>2021-06-19T23:51:56Z</time>
      </trkpt>
      <trkpt lat="42.39279" lon="2.41944">
        <ele>1592</ele>
        <time>2021-06-19T23:52:05Z</time>
      </trkpt>
      <trkpt lat="42.39273" lon="2.41965">
        <ele>1595</ele>
        <time>2021-06-19T23:52:09Z</time>
      </trkpt>
      <trkpt lat="42.39268" lon="2.41995">
        <ele>1598</ele>
        <time>2021-06-19T23:52:14Z</time>
      </trkpt>
      <trkpt lat="42.39268" lon="2.4201">
        <ele>1598</ele>
        <time>2021-06-19T23:52:16Z</time>
      </trkpt>
      <trkpt lat="42.39277" lon="2.4203">
        <ele>1598</ele>
        <time>2021-06-19T23:52:21Z</time>
      </trkpt>
      <trkpt lat="42.3928" lon="2.42079">
        <ele>1597</ele>
        <time>2021-06-19T23:52:29Z</time>
      </trkpt>
      <trkpt lat="42.39283" lon="2.42092">
        <ele>1598</ele>
        <time>2021-06-19T23:52:31Z</time>
      </trkpt>
      <trkpt lat="42.39313" lon="2.42166">
        <ele>1605</ele>
        <time>2021-06-19T23:52:46Z</time>
      </trkpt>
      <trkpt lat="42.39327" lon="2.42191">
        <ele>1611</ele>
        <time>2021-06-19T23:52:51Z</time>
      </trkpt>
      <trkpt lat="42.39332" lon="2.42229">
        <ele>1618</ele>
        <time>2021-06-19T23:52:58Z</time>
      </trkpt>
      <trkpt lat="42.39331" lon="2.42245">
        <ele>1621</ele>
        <time>2021-06-19T23:53:01Z</time>
      </trkpt>
      <trkpt lat="42.39323" lon="2.42282">
        <ele>1626</ele>
        <time>2021-06-19T23:53:07Z</time>
      </trkpt>
      <trkpt lat="42.39323" lon="2.42294">
        <ele>1628</ele>
        <time>2021-06-19T23:53:09Z</time>
      </trkpt>
      <trkpt lat="42.39329" lon="2.42336">
        <ele>1635</ele>
        <time>2021-06-19T23:53:17Z</time>
      </trkpt>
      <trkpt lat="42.39322" lon="2.42373">
        <ele>1638</ele>
        <time>2021-06-19T23:53:23Z</time>
      </trkpt>
      <trkpt lat="42.39318" lon="2.4241">
        <ele>1641</ele>
        <time>2021-06-19T23:53:30Z</time>
      </trkpt>
      <trkpt lat="42.39319" lon="2.42427">
        <ele>1642</ele>
        <time>2021-06-19T23:53:33Z</time>
      </trkpt>
      <trkpt lat="42.39323" lon="2.42435">
        <ele>1644</ele>
        <time>2021-06-19T23:53:34Z</time>
      </trkpt>
      <trkpt lat="42.39341" lon="2.42451">
        <ele>1646</ele>
        <time>2021-06-19T23:53:39Z</time>
      </trkpt>
      <trkpt lat="42.39353" lon="2.4247">
        <ele>1647</ele>
        <time>2021-06-19T23:53:44Z</time>
      </trkpt>
      <trkpt lat="42.39363" lon="2.4251">
        <ele>1647</ele>
        <time>2021-06-19T23:53:51Z</time>
      </trkpt>
      <trkpt lat="42.39381" lon="2.42612">
        <ele>1640</ele>
        <time>2021-06-19T23:54:09Z</time>
      </trkpt>
      <trkpt lat="42.39395" lon="2.4276">
        <ele>1628</ele>
        <time>2021-06-19T23:54:35Z</time>
      </trkpt>
      <trkpt lat="42.39407" lon="2.42826">
        <ele>1628</ele>
        <time>2021-06-19T23:54:47Z</time>
      </trkpt>
      <trkpt lat="42.39414" lon="2.42896">
        <ele>1628</ele>
        <time>2021-06-19T23:54:59Z</time>
      </trkpt>
      <trkpt lat="42.39402" lon="2.43012">
        <ele>1631</ele>
        <time>2021-06-19T23:55:19Z</time>
      </trkpt>
      <trkpt lat="42.39377" lon="2.43079">
        <ele>1633</ele>
        <time>2021-06-19T23:55:32Z</time>
      </trkpt>
      <trkpt lat="42.39374" lon="2.43111">
        <ele>1632</ele>
        <time>2021-06-19T23:55:38Z</time>
      </trkpt>
      <trkpt lat="42.39378" lon="2.43176">
        <ele>1631</ele>
        <time>2021-06-19T23:55:49Z</time>
      </trkpt>
      <trkpt lat="42.39377" lon="2.43213">
        <ele>1630</ele>
        <time>2021-06-19T23:55:55Z</time>
      </trkpt>
      <trkpt lat="42.39368" lon="2.4326">
        <ele>1628</ele>
        <time>2021-06-19T23:56:04Z</time>
      </trkpt>
      <trkpt lat="42.39361" lon="2.43274">
        <ele>1627</ele>
        <time>2021-06-19T23:56:06Z</time>
      </trkpt>
      <trkpt lat="42.39341" lon="2.43291">
        <ele>1626</ele>
        <time>2021-06-19T23:56:12Z</time>
      </trkpt>
      <trkpt lat="42.39289" lon="2.43355">
        <ele>1623</ele>
        <time>2021-06-19T23:56:28Z</time>
      </trkpt>
      <trkpt lat="42.39248" lon="2.43383">
        <ele>1622</ele>
        <time>2021-06-19T23:56:39Z</time>
      </trkpt>
      <trkpt lat="42.39209" lon="2.43402">
        <ele>1624</ele>
        <time>2021-06-19T23:56:49Z</time>
      </trkpt>
      <trkpt lat="42.39193" lon="2.43417">
        <ele>1626</ele>
        <time>2021-06-19T23:56:53Z</time>
      </trkpt>
      <trkpt lat="42.39146" lon="2.4345">
        <ele>1628</ele>
        <time>2021-06-19T23:57:06Z</time>
      </trkpt>
      <trkpt lat="42.39104" lon="2.43473">
        <ele>1629</ele>
        <time>2021-06-19T23:57:16Z</time>
      </trkpt>
      <trkpt lat="42.38998" lon="2.43479">
        <ele>1634</ele>
        <time>2021-06-19T23:57:41Z</time>
      </trkpt>
      <trkpt lat="42.3894" lon="2.43499">
        <ele>1631</ele>
        <time>2021-06-19T23:57:55Z</time>
      </trkpt>
      <trkpt lat="42.38894" lon="2.43511">
        <ele>1625</ele>
        <time>2021-06-19T23:58:06Z</time>
      </trkpt>
      <trkpt lat="42.3886" lon="2.43509">
        <ele>1619</ele>
        <time>2021-06-19T23:58:14Z</time>
      </trkpt>
      <trkpt lat="42.38844" lon="2.43505">
        <ele>1617</ele>
        <time>2021-06-19T23:58:18Z</time>
      </trkpt>
      <trkpt lat="42.38815" lon="2.43472">
        <ele>1611</ele>
        <time>2021-06-19T23:58:27Z</time>
      </trkpt>
      <trkpt lat="42.38734" lon="2.43467">
        <ele>1602</ele>
        <time>2021-06-19T23:58:45Z</time>
      </trkpt>
      <trkpt lat="42.38688" lon="2.43471">
        <ele>1599</ele>
        <time>2021-06-19T23:58:56Z</time>
      </trkpt>
      <trkpt lat="42.38687" lon="2.43465">
        <ele>1599</ele>
        <time>2021-06-19T23:58:57Z</time>
      </trkpt>
      <trkpt lat="42.38662" lon="2.43442">
        <ele>1597</ele>
        <time>2021-06-19T23:59:04Z</time>
      </trkpt>
      <trkpt lat="42.38628" lon="2.43418">
        <ele>1598</ele>
        <time>2021-06-19T23:59:13Z</time>
      </trkpt>
      <trkpt lat="42.38604" lon="2.43411">
        <ele>1598</ele>
        <time>2021-06-19T23:59:19Z</time>
      </trkpt>
      <trkpt lat="42.38548" lon="2.43416">
        <ele>1600</ele>
        <time>2021-06-19T23:59:32Z</time>
      </trkpt>
      <trkpt lat="42.38527" lon="2.4342">
        <ele>1601</ele>
        <time>2021-06-19T23:59:37Z</time>
      </trkpt>
      <trkpt lat="42.38509" lon="2.4342">
        <ele>1601</ele>
        <time>2021-06-19T23:59:41Z</time>
      </trkpt>
      <trkpt lat="42.38496" lon="2.43412">
        <ele>1601</ele>
        <time>2021-06-19T23:59:45Z</time>
      </trkpt>
      <trkpt lat="42.38483" lon="2.43398">
        <ele>1603</ele>
        <time>2021-06-19T23:59:49Z</time>
      </trkpt>
      <trkpt lat="42.3847" lon="2.43377">
        <ele>1603</ele>
        <time>2021-06-19T23:59:53Z</time>
      </trkpt>
      <trkpt lat="42.38442" lon="2.43303">
        <ele>1602</ele>
        <time>2021-06-20T00:00:08Z</time>
      </trkpt>
      <trkpt lat="42.38418" lon="2.43277">
        <ele>1604</ele>
        <time>2021-06-20T00:00:15Z</time>
      </trkpt>
      <trkpt lat="42.38394" lon="2.43255">
        <ele>1602</ele>
        <time>2021-06-20T00:00:22Z</time>
      </trkpt>
      <trkpt lat="42.3837" lon="2.43246">
        <ele>1602</ele>
        <time>2021-06-20T00:00:27Z</time>
      </trkpt>
      <trkpt lat="42.38339" lon="2.43245">
        <ele>1604</ele>
        <time>2021-06-20T00:00:35Z</time>
      </trkpt>
      <trkpt lat="42.38316" lon="2.43241">
        <ele>1608</ele>
        <time>2021-06-20T00:00:40Z</time>
      </trkpt>
      <trkpt lat="42.383" lon="2.43226">
        <ele>1608</ele>
        <time>2021-06-20T00:00:45Z</time>
      </trkpt>
      <trkpt lat="42.3829" lon="2.4321">
        <ele>1608</ele>
        <time>2021-06-20T00:00:48Z</time>
      </trkpt>
      <trkpt lat="42.38274" lon="2.43146">
        <ele>1601</ele>
        <time>2021-06-20T00:01:00Z</time>
      </trkpt>
      <trkpt lat="42.38265" lon="2.43129">
        <ele>1600</ele>
        <time>2021-06-20T00:01:03Z</time>
      </trkpt>
      <trkpt lat="42.3825" lon="2.43115">
        <ele>1601</ele>
        <time>2021-06-20T00:01:08Z</time>
      </trkpt>
      <trkpt lat="42.38226" lon="2.43106">
        <ele>1602</ele>
        <time>2021-06-20T00:01:14Z</time>
      </trkpt>
      <trkpt lat="42.38172" lon="2.43098">
        <ele>1606</ele>
        <time>2021-06-20T00:01:26Z</time>
      </trkpt>
      <trkpt lat="42.38144" lon="2.43098">
        <ele>1606</ele>
        <time>2021-06-20T00:01:33Z</time>
      </trkpt>
      <trkpt lat="42.38088" lon="2.43105">
        <ele>1606</ele>
        <time>2021-06-20T00:01:46Z</time>
      </trkpt>
      <trkpt lat="42.38062" lon="2.43103">
        <ele>1604</ele>
        <time>2021-06-20T00:01:52Z</time>
      </trkpt>
      <trkpt lat="42.38019" lon="2.4312">
        <ele>1604</ele>
        <time>2021-06-20T00:02:02Z</time>
      </trkpt>
      <trkpt lat="42.37953" lon="2.43137">
        <ele>1606</ele>
        <time>2021-06-20T00:02:18Z</time>
      </trkpt>
      <trkpt lat="42.37937" lon="2.43133">
        <ele>1605</ele>
        <time>2021-06-20T00:02:22Z</time>
      </trkpt>
      <trkpt lat="42.37922" lon="2.43119">
        <ele>1602</ele>
        <time>2021-06-20T00:02:26Z</time>
      </trkpt>
      <trkpt lat="42.37844" lon="2.42983">
        <ele>1587</ele>
        <time>2021-06-20T00:02:56Z</time>
      </trkpt>
      <trkpt lat="42.37815" lon="2.42957">
        <ele>1584</ele>
        <time>2021-06-20T00:03:04Z</time>
      </trkpt>
      <trkpt lat="42.3779" lon="2.42951">
        <ele>1582</ele>
        <time>2021-06-20T00:03:10Z</time>
      </trkpt>
      <trkpt lat="42.37769" lon="2.42956">
        <ele>1581</ele>
        <time>2021-06-20T00:03:15Z</time>
      </trkpt>
      <trkpt lat="42.37743" lon="2.4297">
        <ele>1583</ele>
        <time>2021-06-20T00:03:21Z</time>
      </trkpt>
      <trkpt lat="42.3772" lon="2.42994">
        <ele>1587</ele>
        <time>2021-06-20T00:03:28Z</time>
      </trkpt>
      <trkpt lat="42.37712" lon="2.42998">
        <ele>1587</ele>
        <time>2021-06-20T00:03:30Z</time>
      </trkpt>
      <trkpt lat="42.37691" lon="2.42988">
        <ele>1584</ele>
        <time>2021-06-20T00:03:35Z</time>
      </trkpt>
      <trkpt lat="42.37643" lon="2.42982">
        <ele>1580</ele>
        <time>2021-06-20T00:03:47Z</time>
      </trkpt>
      <trkpt lat="42.37627" lon="2.42983">
        <ele>1580</ele>
        <time>2021-06-20T00:03:50Z</time>
      </trkpt>
      <trkpt lat="42.3762" lon="2.42987">
        <ele>1580</ele>
        <time>2021-06-20T00:03:52Z</time>
      </trkpt>
      <trkpt lat="42.37604" lon="2.43008">
        <ele>1581</ele>
        <time>2021-06-20T00:03:57Z</time>
      </trkpt>
      <trkpt lat="42.37586" lon="2.43061">
        <ele>1582</ele>
        <time>2021-06-20T00:04:07Z</time>
      </trkpt>
      <trkpt lat="42.37568" lon="2.43179">
        <ele>1577</ele>
        <time>2021-06-20T00:04:28Z</time>
      </trkpt>
      <trkpt lat="42.37562" lon="2.43281">
        <ele>1579</ele>
        <time>2021-06-20T00:04:46Z</time>
      </trkpt>
      <trkpt lat="42.37548" lon="2.43328">
        <ele>1582</ele>
        <time>2021-06-20T00:04:55Z</time>
      </trkpt>
      <trkpt lat="42.37516" lon="2.43376">
        <ele>1579</ele>
        <time>2021-06-20T00:05:06Z</time>
      </trkpt>
      <trkpt lat="42.37497" lon="2.43395">
        <ele>1576</ele>
        <time>2021-06-20T00:05:11Z</time>
      </trkpt>
      <trkpt lat="42.37457" lon="2.43466">
        <ele>1576</ele>
        <time>2021-06-20T00:05:27Z</time>
      </trkpt>
      <trkpt lat="42.37389" lon="2.43558">
        <ele>1570</ele>
        <time>2021-06-20T00:05:49Z</time>
      </trkpt>
      <trkpt lat="42.37361" lon="2.436">
        <ele>1567</ele>
        <time>2021-06-20T00:05:59Z</time>
      </trkpt>
      <trkpt lat="42.37297" lon="2.43713">
        <ele>1560</ele>
        <time>2021-06-20T00:06:23Z</time>
      </trkpt>
      <trkpt lat="42.37284" lon="2.43742">
        <ele>1559</ele>
        <time>2021-06-20T00:06:29Z</time>
      </trkpt>
      <trkpt lat="42.37279" lon="2.43743">
        <ele>1557</ele>
        <time>2021-06-20T00:06:31Z</time>
      </trkpt>
      <trkpt lat="42.37269" lon="2.43796">
        <ele>1560</ele>
        <time>2021-06-20T00:06:40Z</time>
      </trkpt>
      <trkpt lat="42.3726" lon="2.43814">
        <ele>1560</ele>
        <time>2021-06-20T00:06:44Z</time>
      </trkpt>
      <trkpt lat="42.37249" lon="2.4383">
        <ele>1559</ele>
        <time>2021-06-20T00:06:47Z</time>
      </trkpt>
      <trkpt lat="42.37233" lon="2.43847">
        <ele>1560</ele>
        <time>2021-06-20T00:06:52Z</time>
      </trkpt>
      <trkpt lat="42.372" lon="2.43874">
        <ele>1560</ele>
        <time>2021-06-20T00:07:01Z</time>
      </trkpt>
      <trkpt lat="42.37177" lon="2.43897">
        <ele>1562</ele>
        <time>2021-06-20T00:07:08Z</time>
      </trkpt>
      <trkpt lat="42.37155" lon="2.43929">
        <ele>1564</ele>
        <time>2021-06-20T00:07:15Z</time>
      </trkpt>
      <trkpt lat="42.37125" lon="2.43985">
        <ele>1570</ele>
        <time>2021-06-20T00:07:27Z</time>
      </trkpt>
      <trkpt lat="42.3707" lon="2.44014">
        <ele>1568</ele>
        <time>2021-06-20T00:07:41Z</time>
      </trkpt>
      <trkpt lat="42.37023" lon="2.44032">
        <ele>1566</ele>
        <time>2021-06-20T00:07:53Z</time>
      </trkpt>
      <trkpt lat="42.36967" lon="2.44077">
        <ele>1566</ele>
        <time>2021-06-20T00:08:08Z</time>
      </trkpt>
      <trkpt lat="42.3696" lon="2.44086">
        <ele>1566</ele>
        <time>2021-06-20T00:08:10Z</time>
      </trkpt>
      <trkpt lat="42.36942" lon="2.44127">
        <ele>1566</ele>
        <time>2021-06-20T00:08:18Z</time>
      </trkpt>
      <trkpt lat="42.36938" lon="2.44142">
        <ele>1566</ele>
        <time>2021-06-20T00:08:21Z</time>
      </trkpt>
      <trkpt lat="42.36941" lon="2.4418">
        <ele>1568</ele>
        <time>2021-06-20T00:08:28Z</time>
      </trkpt>
      <trkpt lat="42.3695" lon="2.44213">
        <ele>1568</ele>
        <time>2021-06-20T00:08:34Z</time>
      </trkpt>
      <trkpt lat="42.36961" lon="2.44241">
        <ele>1570</ele>
        <time>2021-06-20T00:08:39Z</time>
      </trkpt>
      <trkpt lat="42.36974" lon="2.44364">
        <ele>1568</ele>
        <time>2021-06-20T00:09:01Z</time>
      </trkpt>
      <trkpt lat="42.36973" lon="2.44389">
        <ele>1567</ele>
        <time>2021-06-20T00:09:05Z</time>
      </trkpt>
      <trkpt lat="42.36986" lon="2.44462">
        <ele>1565</ele>
        <time>2021-06-20T00:09:18Z</time>
      </trkpt>
      <trkpt lat="42.36996" lon="2.44496">
        <ele>1562</ele>
        <time>2021-06-20T00:09:24Z</time>
      </trkpt>
      <trkpt lat="42.3696" lon="2.4456">
        <ele>1547</ele>
        <time>2021-06-20T00:09:38Z</time>
      </trkpt>
      <trkpt lat="42.36934" lon="2.44697">
        <ele>1530</ele>
        <time>2021-06-20T00:10:02Z</time>
      </trkpt>
      <trkpt lat="42.36914" lon="2.44749">
        <ele>1529</ele>
        <time>2021-06-20T00:10:13Z</time>
      </trkpt>
      <trkpt lat="42.36916" lon="2.44822">
        <ele>1529</ele>
        <time>2021-06-20T00:10:25Z</time>
      </trkpt>
      <trkpt lat="42.36922" lon="2.44892">
        <ele>1523</ele>
        <time>2021-06-20T00:10:37Z</time>
      </trkpt>
      <trkpt lat="42.36927" lon="2.44999">
        <ele>1521</ele>
        <time>2021-06-20T00:10:56Z</time>
      </trkpt>
      <trkpt lat="42.36927" lon="2.45042">
        <ele>1520</ele>
        <time>2021-06-20T00:11:03Z</time>
      </trkpt>
      <trkpt lat="42.36917" lon="2.45101">
        <ele>1523</ele>
        <time>2021-06-20T00:11:14Z</time>
      </trkpt>
      <trkpt lat="42.36904" lon="2.45148">
        <ele>1524</ele>
        <time>2021-06-20T00:11:22Z</time>
      </trkpt>
      <trkpt lat="42.36903" lon="2.45165">
        <ele>1526</ele>
        <time>2021-06-20T00:11:25Z</time>
      </trkpt>
      <trkpt lat="42.36895" lon="2.45181">
        <ele>1524</ele>
        <time>2021-06-20T00:11:29Z</time>
      </trkpt>
      <trkpt lat="42.36887" lon="2.45232">
        <ele>1528</ele>
        <time>2021-06-20T00:11:38Z</time>
      </trkpt>
      <trkpt lat="42.36844" lon="2.45367">
        <ele>1530</ele>
        <time>2021-06-20T00:12:03Z</time>
      </trkpt>
      <trkpt lat="42.3683" lon="2.4539">
        <ele>1529</ele>
        <time>2021-06-20T00:12:08Z</time>
      </trkpt>
      <trkpt lat="42.36812" lon="2.45409">
        <ele>1524</ele>
        <time>2021-06-20T00:12:13Z</time>
      </trkpt>
      <trkpt lat="42.36794" lon="2.45444">
        <ele>1521</ele>
        <time>2021-06-20T00:12:21Z</time>
      </trkpt>
      <trkpt lat="42.36788" lon="2.45449">
        <ele>1519</ele>
        <time>2021-06-20T00:12:22Z</time>
      </trkpt>
      <trkpt lat="42.3677" lon="2.4548">
        <ele>1516</ele>
        <time>2021-06-20T00:12:29Z</time>
      </trkpt>
      <trkpt lat="42.36746" lon="2.45531">
        <ele>1516</ele>
        <time>2021-06-20T00:12:40Z</time>
      </trkpt>
      <trkpt lat="42.3673" lon="2.45577">
        <ele>1521</ele>
        <time>2021-06-20T00:12:48Z</time>
      </trkpt>
      <trkpt lat="42.3673" lon="2.45604">
        <ele>1521</ele>
        <time>2021-06-20T00:12:53Z</time>
      </trkpt>
      <trkpt lat="42.36706" lon="2.45649">
        <ele>1518</ele>
        <time>2021-06-20T00:13:03Z</time>
      </trkpt>
      <trkpt lat="42.36701" lon="2.4564">
        <ele>1518</ele>
        <time>2021-06-20T00:13:05Z</time>
      </trkpt>
      <trkpt lat="42.3671" lon="2.45679">
        <ele>1516</ele>
        <time>2021-06-20T00:13:12Z</time>
      </trkpt>
      <trkpt lat="42.36687" lon="2.45693">
        <ele>1515</ele>
        <time>2021-06-20T00:13:18Z</time>
      </trkpt>
      <trkpt lat="42.36681" lon="2.4569">
        <ele>1516</ele>
        <time>2021-06-20T00:13:19Z</time>
      </trkpt>
      <trkpt lat="42.36668" lon="2.45701">
        <ele>1516</ele>
        <time>2021-06-20T00:13:23Z</time>
      </trkpt>
      <trkpt lat="42.3665" lon="2.45733">
        <ele>1521</ele>
        <time>2021-06-20T00:13:30Z</time>
      </trkpt>
      <trkpt lat="42.3663" lon="2.45758">
        <ele>1526</ele>
        <time>2021-06-20T00:13:36Z</time>
      </trkpt>
      <trkpt lat="42.36601" lon="2.45814">
        <ele>1529</ele>
        <time>2021-06-20T00:13:48Z</time>
      </trkpt>
      <trkpt lat="42.36577" lon="2.45837">
        <ele>1534</ele>
        <time>2021-06-20T00:13:55Z</time>
      </trkpt>
      <trkpt lat="42.36537" lon="2.45867">
        <ele>1542</ele>
        <time>2021-06-20T00:14:05Z</time>
      </trkpt>
      <trkpt lat="42.36514" lon="2.45888">
        <ele>1545</ele>
        <time>2021-06-20T00:14:12Z</time>
      </trkpt>
      <trkpt lat="42.36486" lon="2.45903">
        <ele>1549</ele>
        <time>2021-06-20T00:14:19Z</time>
      </trkpt>
      <trkpt lat="42.36427" lon="2.45955">
        <ele>1555</ele>
        <time>2021-06-20T00:14:35Z</time>
      </trkpt>
      <trkpt lat="42.36404" lon="2.45965">
        <ele>1558</ele>
        <time>2021-06-20T00:14:41Z</time>
      </trkpt>
      <trkpt lat="42.36357" lon="2.45993">
        <ele>1563</ele>
        <time>2021-06-20T00:14:53Z</time>
      </trkpt>
      <trkpt lat="42.36344" lon="2.46007">
        <ele>1564</ele>
        <time>2021-06-20T00:14:57Z</time>
      </trkpt>
      <trkpt lat="42.3632" lon="2.46047">
        <ele>1559</ele>
        <time>2021-06-20T00:15:06Z</time>
      </trkpt>
      <trkpt lat="42.36313" lon="2.4605">
        <ele>1559</ele>
        <time>2021-06-20T00:15:07Z</time>
      </trkpt>
      <trkpt lat="42.36312" lon="2.46059">
        <ele>1557</ele>
        <time>2021-06-20T00:15:09Z</time>
      </trkpt>
      <trkpt lat="42.36292" lon="2.46071">
        <ele>1556</ele>
        <time>2021-06-20T00:15:14Z</time>
      </trkpt>
      <trkpt lat="42.36285" lon="2.46072">
        <ele>1555</ele>
        <time>2021-06-20T00:15:16Z</time>
      </trkpt>
      <trkpt lat="42.36258" lon="2.46142">
        <ele>1548</ele>
        <time>2021-06-20T00:15:29Z</time>
      </trkpt>
      <trkpt lat="42.36236" lon="2.46229">
        <ele>1532</ele>
        <time>2021-06-20T00:15:45Z</time>
      </trkpt>
      <trkpt lat="42.3622" lon="2.46282">
        <ele>1519</ele>
        <time>2021-06-20T00:15:55Z</time>
      </trkpt>
      <trkpt lat="42.36187" lon="2.4634">
        <ele>1501</ele>
        <time>2021-06-20T00:16:08Z</time>
      </trkpt>
      <trkpt lat="42.36177" lon="2.46384">
        <ele>1490</ele>
        <time>2021-06-20T00:16:16Z</time>
      </trkpt>
      <trkpt lat="42.36156" lon="2.46442">
        <ele>1469</ele>
        <time>2021-06-20T00:16:27Z</time>
      </trkpt>
      <trkpt lat="42.36108" lon="2.46534">
        <ele>1435</ele>
        <time>2021-06-20T00:16:46Z</time>
      </trkpt>
      <trkpt lat="42.36072" lon="2.46619">
        <ele>1423</ele>
        <time>2021-06-20T00:17:03Z</time>
      </trkpt>
      <trkpt lat="42.36068" lon="2.46655">
        <ele>1420</ele>
        <time>2021-06-20T00:17:09Z</time>
      </trkpt>
      <trkpt lat="42.36061" lon="2.46683">
        <ele>1415</ele>
        <time>2021-06-20T00:17:15Z</time>
      </trkpt>
      <trkpt lat="42.36052" lon="2.46696">
        <ele>1413</ele>
        <time>2021-06-20T00:17:18Z</time>
      </trkpt>
      <trkpt lat="42.36036" lon="2.46712">
        <ele>1411</ele>
        <time>2021-06-20T00:17:22Z</time>
      </trkpt>
      <trkpt lat="42.36022" lon="2.46748">
        <ele>1407</ele>
        <time>2021-06-20T00:17:29Z</time>
      </trkpt>
      <trkpt lat="42.36012" lon="2.4676">
        <ele>1407</ele>
        <time>2021-06-20T00:17:32Z</time>
      </trkpt>
      <trkpt lat="42.36034" lon="2.4676">
        <ele>1403</ele>
        <time>2021-06-20T00:17:38Z</time>
      </trkpt>
      <trkpt lat="42.36044" lon="2.46753">
        <ele>1402</ele>
        <time>2021-06-20T00:17:40Z</time>
      </trkpt>
      <trkpt lat="42.36049" lon="2.46744">
        <ele>1403</ele>
        <time>2021-06-20T00:17:42Z</time>
      </trkpt>
      <trkpt lat="42.36056" lon="2.46738">
        <ele>1403</ele>
        <time>2021-06-20T00:17:44Z</time>
      </trkpt>
      <trkpt lat="42.36061" lon="2.46738">
        <ele>1402</ele>
        <time>2021-06-20T00:17:45Z</time>
      </trkpt>
      <trkpt lat="42.36061" lon="2.46748">
        <ele>1400</ele>
        <time>2021-06-20T00:17:47Z</time>
      </trkpt>
      <trkpt lat="42.36019" lon="2.4681">
        <ele>1396</ele>
        <time>2021-06-20T00:18:01Z</time>
      </trkpt>
      <trkpt lat="42.35997" lon="2.46857">
        <ele>1390</ele>
        <time>2021-06-20T00:18:11Z</time>
      </trkpt>
      <trkpt lat="42.36005" lon="2.4688">
        <ele>1385</ele>
        <time>2021-06-20T00:18:15Z</time>
      </trkpt>
      <trkpt lat="42.36008" lon="2.46916">
        <ele>1378</ele>
        <time>2021-06-20T00:18:22Z</time>
      </trkpt>
      <trkpt lat="42.36018" lon="2.4694">
        <ele>1371</ele>
        <time>2021-06-20T00:18:26Z</time>
      </trkpt>
      <trkpt lat="42.36024" lon="2.47001">
        <ele>1359</ele>
        <time>2021-06-20T00:18:37Z</time>
      </trkpt>
      <trkpt lat="42.36022" lon="2.47057">
        <ele>1349</ele>
        <time>2021-06-20T00:18:47Z</time>
      </trkpt>
      <trkpt lat="42.36004" lon="2.4708">
        <ele>1350</ele>
        <time>2021-06-20T00:18:53Z</time>
      </trkpt>
      <trkpt lat="42.35994" lon="2.47118">
        <ele>1344</ele>
        <time>2021-06-20T00:18:59Z</time>
      </trkpt>
      <trkpt lat="42.35995" lon="2.47129">
        <ele>1343</ele>
        <time>2021-06-20T00:19:01Z</time>
      </trkpt>
      <trkpt lat="42.35988" lon="2.47138">
        <ele>1340</ele>
        <time>2021-06-20T00:19:04Z</time>
      </trkpt>
      <trkpt lat="42.35981" lon="2.47139">
        <ele>1338</ele>
        <time>2021-06-20T00:19:05Z</time>
      </trkpt>
      <trkpt lat="42.35975" lon="2.47136">
        <ele>1337</ele>
        <time>2021-06-20T00:19:07Z</time>
      </trkpt>
      <trkpt lat="42.35963" lon="2.47123">
        <ele>1336</ele>
        <time>2021-06-20T00:19:10Z</time>
      </trkpt>
      <trkpt lat="42.35939" lon="2.4708">
        <ele>1335</ele>
        <time>2021-06-20T00:19:20Z</time>
      </trkpt>
      <trkpt lat="42.35931" lon="2.47071">
        <ele>1335</ele>
        <time>2021-06-20T00:19:22Z</time>
      </trkpt>
      <trkpt lat="42.35928" lon="2.47073">
        <ele>1334</ele>
        <time>2021-06-20T00:19:23Z</time>
      </trkpt>
      <trkpt lat="42.35926" lon="2.47081">
        <ele>1332</ele>
        <time>2021-06-20T00:19:24Z</time>
      </trkpt>
      <trkpt lat="42.35934" lon="2.47147">
        <ele>1326</ele>
        <time>2021-06-20T00:19:36Z</time>
      </trkpt>
      <trkpt lat="42.35941" lon="2.47278">
        <ele>1317</ele>
        <time>2021-06-20T00:19:59Z</time>
      </trkpt>
      <trkpt lat="42.35936" lon="2.47475">
        <ele>1301</ele>
        <time>2021-06-20T00:20:33Z</time>
      </trkpt>
      <trkpt lat="42.35939" lon="2.47525">
        <ele>1297</ele>
        <time>2021-06-20T00:20:41Z</time>
      </trkpt>
      <trkpt lat="42.35952" lon="2.47552">
        <ele>1294</ele>
        <time>2021-06-20T00:20:47Z</time>
      </trkpt>
      <trkpt lat="42.35991" lon="2.4758">
        <ele>1295</ele>
        <time>2021-06-20T00:20:57Z</time>
      </trkpt>
      <trkpt lat="42.36021" lon="2.47607">
        <ele>1289</ele>
        <time>2021-06-20T00:21:05Z</time>
      </trkpt>
      <trkpt lat="42.36042" lon="2.47631">
        <ele>1286</ele>
        <time>2021-06-20T00:21:12Z</time>
      </trkpt>
      <trkpt lat="42.36063" lon="2.47677">
        <ele>1283</ele>
        <time>2021-06-20T00:21:21Z</time>
      </trkpt>
      <trkpt lat="42.36086" lon="2.47744">
        <ele>1278</ele>
        <time>2021-06-20T00:21:34Z</time>
      </trkpt>
      <trkpt lat="42.36119" lon="2.47798">
        <ele>1267</ele>
        <time>2021-06-20T00:21:46Z</time>
      </trkpt>
      <trkpt lat="42.36126" lon="2.47836">
        <ele>1262</ele>
        <time>2021-06-20T00:21:53Z</time>
      </trkpt>
      <trkpt lat="42.36129" lon="2.47876">
        <ele>1261</ele>
        <time>2021-06-20T00:22:00Z</time>
      </trkpt>
      <trkpt lat="42.3614" lon="2.4791">
        <ele>1260</ele>
        <time>2021-06-20T00:22:06Z</time>
      </trkpt>
      <trkpt lat="42.36148" lon="2.4797">
        <ele>1258</ele>
        <time>2021-06-20T00:22:17Z</time>
      </trkpt>
      <trkpt lat="42.36155" lon="2.47984">
        <ele>1258</ele>
        <time>2021-06-20T00:22:20Z</time>
      </trkpt>
      <trkpt lat="42.36181" lon="2.48012">
        <ele>1252</ele>
        <time>2021-06-20T00:22:27Z</time>
      </trkpt>
      <trkpt lat="42.36203" lon="2.48047">
        <ele>1247</ele>
        <time>2021-06-20T00:22:35Z</time>
      </trkpt>
      <trkpt lat="42.3623" lon="2.48133">
        <ele>1246</ele>
        <time>2021-06-20T00:22:51Z</time>
      </trkpt>
      <trkpt lat="42.36247" lon="2.48163">
        <ele>1246</ele>
        <time>2021-06-20T00:22:58Z</time>
      </trkpt>
      <trkpt lat="42.36327" lon="2.48222">
        <ele>1237</ele>
        <time>2021-06-20T00:23:19Z</time>
      </trkpt>
      <trkpt lat="42.36352" lon="2.48256">
        <ele>1237</ele>
        <time>2021-06-20T00:23:28Z</time>
      </trkpt>
      <trkpt lat="42.36356" lon="2.4825">
        <ele>1235</ele>
        <time>2021-06-20T00:23:29Z</time>
      </trkpt>
      <trkpt lat="42.36356" lon="2.48241">
        <ele>1232</ele>
        <time>2021-06-20T00:23:30Z</time>
      </trkpt>
      <trkpt lat="42.36285" lon="2.48143">
        <ele>1231</ele>
        <time>2021-06-20T00:23:54Z</time>
      </trkpt>
      <trkpt lat="42.3627" lon="2.48104">
        <ele>1231</ele>
        <time>2021-06-20T00:24:02Z</time>
      </trkpt>
      <trkpt lat="42.36249" lon="2.47999">
        <ele>1225</ele>
        <time>2021-06-20T00:24:21Z</time>
      </trkpt>
      <trkpt lat="42.36232" lon="2.47945">
        <ele>1229</ele>
        <time>2021-06-20T00:24:31Z</time>
      </trkpt>
      <trkpt lat="42.36229" lon="2.47914">
        <ele>1229</ele>
        <time>2021-06-20T00:24:36Z</time>
      </trkpt>
      <trkpt lat="42.3624" lon="2.47845">
        <ele>1225</ele>
        <time>2021-06-20T00:24:48Z</time>
      </trkpt>
      <trkpt lat="42.36245" lon="2.47839">
        <ele>1222</ele>
        <time>2021-06-20T00:24:50Z</time>
      </trkpt>
      <trkpt lat="42.36247" lon="2.47879">
        <ele>1221</ele>
        <time>2021-06-20T00:24:57Z</time>
      </trkpt>
      <trkpt lat="42.36244" lon="2.47928">
        <ele>1223</ele>
        <time>2021-06-20T00:25:05Z</time>
      </trkpt>
      <trkpt lat="42.36246" lon="2.47938">
        <ele>1222</ele>
        <time>2021-06-20T00:25:07Z</time>
      </trkpt>
      <trkpt lat="42.36251" lon="2.47949">
        <ele>1221</ele>
        <time>2021-06-20T00:25:09Z</time>
      </trkpt>
      <trkpt lat="42.3629" lon="2.48007">
        <ele>1209</ele>
        <time>2021-06-20T00:25:23Z</time>
      </trkpt>
      <trkpt lat="42.36303" lon="2.48053">
        <ele>1210</ele>
        <time>2021-06-20T00:25:31Z</time>
      </trkpt>
      <trkpt lat="42.36315" lon="2.48082">
        <ele>1209</ele>
        <time>2021-06-20T00:25:37Z</time>
      </trkpt>
      <trkpt lat="42.3633" lon="2.48106">
        <ele>1208</ele>
        <time>2021-06-20T00:25:42Z</time>
      </trkpt>
      <trkpt lat="42.36352" lon="2.48128">
        <ele>1205</ele>
        <time>2021-06-20T00:25:49Z</time>
      </trkpt>
      <trkpt lat="42.36429" lon="2.48182">
        <ele>1192</ele>
        <time>2021-06-20T00:26:09Z</time>
      </trkpt>
      <trkpt lat="42.3644" lon="2.48192">
        <ele>1190</ele>
        <time>2021-06-20T00:26:12Z</time>
      </trkpt>
      <trkpt lat="42.36447" lon="2.48203">
        <ele>1190</ele>
        <time>2021-06-20T00:26:15Z</time>
      </trkpt>
      <trkpt lat="42.36452" lon="2.48217">
        <ele>1191</ele>
        <time>2021-06-20T00:26:17Z</time>
      </trkpt>
      <trkpt lat="42.36453" lon="2.48233">
        <ele>1194</ele>
        <time>2021-06-20T00:26:20Z</time>
      </trkpt>
      <trkpt lat="42.36445" lon="2.48282">
        <ele>1205</ele>
        <time>2021-06-20T00:26:29Z</time>
      </trkpt>
      <trkpt lat="42.36446" lon="2.483">
        <ele>1207</ele>
        <time>2021-06-20T00:26:32Z</time>
      </trkpt>
      <trkpt lat="42.36454" lon="2.48327">
        <ele>1207</ele>
        <time>2021-06-20T00:26:37Z</time>
      </trkpt>
      <trkpt lat="42.36465" lon="2.48343">
        <ele>1205</ele>
        <time>2021-06-20T00:26:41Z</time>
      </trkpt>
      <trkpt lat="42.36477" lon="2.48354">
        <ele>1203</ele>
        <time>2021-06-20T00:26:44Z</time>
      </trkpt>
      <trkpt lat="42.36582" lon="2.48423">
        <ele>1175</ele>
        <time>2021-06-20T00:27:11Z</time>
      </trkpt>
      <trkpt lat="42.36593" lon="2.48436">
        <ele>1172</ele>
        <time>2021-06-20T00:27:15Z</time>
      </trkpt>
      <trkpt lat="42.366" lon="2.48456">
        <ele>1172</ele>
        <time>2021-06-20T00:27:19Z</time>
      </trkpt>
      <trkpt lat="42.36615" lon="2.48535">
        <ele>1168</ele>
        <time>2021-06-20T00:27:33Z</time>
      </trkpt>
      <trkpt lat="42.36614" lon="2.48545">
        <ele>1167</ele>
        <time>2021-06-20T00:27:34Z</time>
      </trkpt>
      <trkpt lat="42.3661" lon="2.48553">
        <ele>1168</ele>
        <time>2021-06-20T00:27:36Z</time>
      </trkpt>
      <trkpt lat="42.36574" lon="2.48597">
        <ele>1178</ele>
        <time>2021-06-20T00:27:47Z</time>
      </trkpt>
      <trkpt lat="42.36564" lon="2.4862">
        <ele>1176</ele>
        <time>2021-06-20T00:27:52Z</time>
      </trkpt>
      <trkpt lat="42.3656" lon="2.48671">
        <ele>1165</ele>
        <time>2021-06-20T00:28:01Z</time>
      </trkpt>
      <trkpt lat="42.36552" lon="2.48719">
        <ele>1157</ele>
        <time>2021-06-20T00:28:09Z</time>
      </trkpt>
      <trkpt lat="42.36542" lon="2.48749">
        <ele>1154</ele>
        <time>2021-06-20T00:28:15Z</time>
      </trkpt>
      <trkpt lat="42.36529" lon="2.48765">
        <ele>1153</ele>
        <time>2021-06-20T00:28:19Z</time>
      </trkpt>
      <trkpt lat="42.36521" lon="2.4877">
        <ele>1154</ele>
        <time>2021-06-20T00:28:21Z</time>
      </trkpt>
      <trkpt lat="42.36469" lon="2.4876">
        <ele>1166</ele>
        <time>2021-06-20T00:28:33Z</time>
      </trkpt>
      <trkpt lat="42.36454" lon="2.48759">
        <ele>1167</ele>
        <time>2021-06-20T00:28:37Z</time>
      </trkpt>
      <trkpt lat="42.3644" lon="2.48762">
        <ele>1167</ele>
        <time>2021-06-20T00:28:40Z</time>
      </trkpt>
      <trkpt lat="42.36449" lon="2.48761">
        <ele>1167</ele>
        <time>2021-06-20T00:28:42Z</time>
      </trkpt>
      <trkpt lat="42.36457" lon="2.48764">
        <ele>1165</ele>
        <time>2021-06-20T00:28:44Z</time>
      </trkpt>
      <trkpt lat="42.36468" lon="2.48779">
        <ele>1158</ele>
        <time>2021-06-20T00:28:48Z</time>
      </trkpt>
      <trkpt lat="42.36502" lon="2.48805">
        <ele>1144</ele>
        <time>2021-06-20T00:28:57Z</time>
      </trkpt>
      <trkpt lat="42.36545" lon="2.48854">
        <ele>1120</ele>
        <time>2021-06-20T00:29:10Z</time>
      </trkpt>
      <trkpt lat="42.36556" lon="2.48863">
        <ele>1117</ele>
        <time>2021-06-20T00:29:13Z</time>
      </trkpt>
      <trkpt lat="42.3657" lon="2.48867">
        <ele>1115</ele>
        <time>2021-06-20T00:29:16Z</time>
      </trkpt>
      <trkpt lat="42.36607" lon="2.48869">
        <ele>1107</ele>
        <time>2021-06-20T00:29:25Z</time>
      </trkpt>
      <trkpt lat="42.36615" lon="2.48871">
        <ele>1104</ele>
        <time>2021-06-20T00:29:27Z</time>
      </trkpt>
      <trkpt lat="42.36622" lon="2.48877">
        <ele>1101</ele>
        <time>2021-06-20T00:29:29Z</time>
      </trkpt>
      <trkpt lat="42.36628" lon="2.48888">
        <ele>1098</ele>
        <time>2021-06-20T00:29:31Z</time>
      </trkpt>
      <trkpt lat="42.36631" lon="2.489">
        <ele>1095</ele>
        <time>2021-06-20T00:29:33Z</time>
      </trkpt>
      <trkpt lat="42.36636" lon="2.48941">
        <ele>1090</ele>
        <time>2021-06-20T00:29:41Z</time>
      </trkpt>
      <trkpt lat="42.3664" lon="2.48954">
        <ele>1089</ele>
        <time>2021-06-20T00:29:43Z</time>
      </trkpt>
      <trkpt lat="42.36656" lon="2.48978">
        <ele>1089</ele>
        <time>2021-06-20T00:29:49Z</time>
      </trkpt>
      <trkpt lat="42.36678" lon="2.48994">
        <ele>1088</ele>
        <time>2021-06-20T00:29:55Z</time>
      </trkpt>
      <trkpt lat="42.36689" lon="2.4901">
        <ele>1085</ele>
        <time>2021-06-20T00:29:58Z</time>
      </trkpt>
      <trkpt lat="42.36695" lon="2.49015">
        <ele>1084</ele>
        <time>2021-06-20T00:30:00Z</time>
      </trkpt>
      <trkpt lat="42.36709" lon="2.49018">
        <ele>1082</ele>
        <time>2021-06-20T00:30:03Z</time>
      </trkpt>
      <trkpt lat="42.36725" lon="2.49017">
        <ele>1081</ele>
        <time>2021-06-20T00:30:07Z</time>
      </trkpt>
      <trkpt lat="42.3676" lon="2.49026">
        <ele>1076</ele>
        <time>2021-06-20T00:30:15Z</time>
      </trkpt>
      <trkpt lat="42.36808" lon="2.49054">
        <ele>1067</ele>
        <time>2021-06-20T00:30:27Z</time>
      </trkpt>
      <trkpt lat="42.36819" lon="2.49067">
        <ele>1066</ele>
        <time>2021-06-20T00:30:31Z</time>
      </trkpt>
      <trkpt lat="42.36831" lon="2.49093">
        <ele>1064</ele>
        <time>2021-06-20T00:30:36Z</time>
      </trkpt>
      <trkpt lat="42.36832" lon="2.49104">
        <ele>1061</ele>
        <time>2021-06-20T00:30:38Z</time>
      </trkpt>
      <trkpt lat="42.3683" lon="2.49112">
        <ele>1060</ele>
        <time>2021-06-20T00:30:40Z</time>
      </trkpt>
      <trkpt lat="42.36817" lon="2.49129">
        <ele>1058</ele>
        <time>2021-06-20T00:30:44Z</time>
      </trkpt>
      <trkpt lat="42.36795" lon="2.49139">
        <ele>1058</ele>
        <time>2021-06-20T00:30:49Z</time>
      </trkpt>
      <trkpt lat="42.36782" lon="2.49157">
        <ele>1054</ele>
        <time>2021-06-20T00:30:54Z</time>
      </trkpt>
      <trkpt lat="42.36839" lon="2.49165">
        <ele>1045</ele>
        <time>2021-06-20T00:31:07Z</time>
      </trkpt>
      <trkpt lat="42.36874" lon="2.49159">
        <ele>1028</ele>
        <time>2021-06-20T00:31:15Z</time>
      </trkpt>
      <trkpt lat="42.36868" lon="2.49175">
        <ele>1028</ele>
        <time>2021-06-20T00:31:18Z</time>
      </trkpt>
      <trkpt lat="42.36823" lon="2.49232">
        <ele>1020</ele>
        <time>2021-06-20T00:31:33Z</time>
      </trkpt>
      <trkpt lat="42.36813" lon="2.4924">
        <ele>1017</ele>
        <time>2021-06-20T00:31:35Z</time>
      </trkpt>
      <trkpt lat="42.36784" lon="2.49253">
        <ele>1013</ele>
        <time>2021-06-20T00:31:43Z</time>
      </trkpt>
      <trkpt lat="42.36764" lon="2.49266">
        <ele>1010</ele>
        <time>2021-06-20T00:31:48Z</time>
      </trkpt>
      <trkpt lat="42.36754" lon="2.49269">
        <ele>1010</ele>
        <time>2021-06-20T00:31:50Z</time>
      </trkpt>
      <trkpt lat="42.36722" lon="2.49247">
        <ele>1011</ele>
        <time>2021-06-20T00:31:58Z</time>
      </trkpt>
      <trkpt lat="42.36668" lon="2.49224">
        <ele>1010</ele>
        <time>2021-06-20T00:32:12Z</time>
      </trkpt>
      <trkpt lat="42.36627" lon="2.49211">
        <ele>1005</ele>
        <time>2021-06-20T00:32:22Z</time>
      </trkpt>
      <trkpt lat="42.36598" lon="2.49198">
        <ele>1004</ele>
        <time>2021-06-20T00:32:29Z</time>
      </trkpt>
      <trkpt lat="42.36588" lon="2.49192">
        <ele>1004</ele>
        <time>2021-06-20T00:32:31Z</time>
      </trkpt>
      <trkpt lat="42.36562" lon="2.49168">
        <ele>1011</ele>
        <time>2021-06-20T00:32:39Z</time>
      </trkpt>
      <trkpt lat="42.36557" lon="2.49168">
        <ele>1010</ele>
        <time>2021-06-20T00:32:40Z</time>
      </trkpt>
      <trkpt lat="42.3655" lon="2.49172">
        <ele>1007</ele>
        <time>2021-06-20T00:32:41Z</time>
      </trkpt>
      <trkpt lat="42.36523" lon="2.49194">
        <ele>993</ele>
        <time>2021-06-20T00:32:49Z</time>
      </trkpt>
      <trkpt lat="42.36507" lon="2.49199">
        <ele>989</ele>
        <time>2021-06-20T00:32:53Z</time>
      </trkpt>
      <trkpt lat="42.36487" lon="2.4921">
        <ele>986</ele>
        <time>2021-06-20T00:32:58Z</time>
      </trkpt>
      <trkpt lat="42.36479" lon="2.4922">
        <ele>984</ele>
        <time>2021-06-20T00:33:00Z</time>
      </trkpt>
      <trkpt lat="42.36477" lon="2.49228">
        <ele>982</ele>
        <time>2021-06-20T00:33:02Z</time>
      </trkpt>
      <trkpt lat="42.36478" lon="2.49237">
        <ele>978</ele>
        <time>2021-06-20T00:33:03Z</time>
      </trkpt>
      <trkpt lat="42.36492" lon="2.49258">
        <ele>972</ele>
        <time>2021-06-20T00:33:08Z</time>
      </trkpt>
      <trkpt lat="42.36501" lon="2.49267">
        <ele>971</ele>
        <time>2021-06-20T00:33:11Z</time>
      </trkpt>
      <trkpt lat="42.36525" lon="2.49283">
        <ele>970</ele>
        <time>2021-06-20T00:33:17Z</time>
      </trkpt>
      <trkpt lat="42.36532" lon="2.49293">
        <ele>968</ele>
        <time>2021-06-20T00:33:19Z</time>
      </trkpt>
      <trkpt lat="42.36559" lon="2.49362">
        <ele>957</ele>
        <time>2021-06-20T00:33:33Z</time>
      </trkpt>
      <trkpt lat="42.36559" lon="2.49374">
        <ele>957</ele>
        <time>2021-06-20T00:33:35Z</time>
      </trkpt>
      <trkpt lat="42.36542" lon="2.49417">
        <ele>969</ele>
        <time>2021-06-20T00:33:43Z</time>
      </trkpt>
      <trkpt lat="42.3651" lon="2.49529">
        <ele>979</ele>
        <time>2021-06-20T00:34:04Z</time>
      </trkpt>
      <trkpt lat="42.36504" lon="2.49629">
        <ele>977</ele>
        <time>2021-06-20T00:34:21Z</time>
      </trkpt>
      <trkpt lat="42.36487" lon="2.49728">
        <ele>981</ele>
        <time>2021-06-20T00:34:39Z</time>
      </trkpt>
      <trkpt lat="42.36483" lon="2.49774">
        <ele>980</ele>
        <time>2021-06-20T00:34:47Z</time>
      </trkpt>
      <trkpt lat="42.36467" lon="2.49845">
        <ele>980</ele>
        <time>2021-06-20T00:35:00Z</time>
      </trkpt>
      <trkpt lat="42.36454" lon="2.49881">
        <ele>981</ele>
        <time>2021-06-20T00:35:07Z</time>
      </trkpt>
      <trkpt lat="42.3643" lon="2.4991">
        <ele>988</ele>
        <time>2021-06-20T00:35:14Z</time>
      </trkpt>
      <trkpt lat="42.36417" lon="2.49935">
        <ele>992</ele>
        <time>2021-06-20T00:35:19Z</time>
      </trkpt>
      <trkpt lat="42.36413" lon="2.49953">
        <ele>992</ele>
        <time>2021-06-20T00:35:23Z</time>
      </trkpt>
      <trkpt lat="42.36417" lon="2.49963">
        <ele>990</ele>
        <time>2021-06-20T00:35:25Z</time>
      </trkpt>
      <trkpt lat="42.36435" lon="2.49978">
        <ele>981</ele>
        <time>2021-06-20T00:35:30Z</time>
      </trkpt>
      <trkpt lat="42.36439" lon="2.49984">
        <ele>978</ele>
        <time>2021-06-20T00:35:31Z</time>
      </trkpt>
      <trkpt lat="42.36446" lon="2.5003">
        <ele>976</ele>
        <time>2021-06-20T00:35:39Z</time>
      </trkpt>
      <trkpt lat="42.36464" lon="2.50069">
        <ele>973</ele>
        <time>2021-06-20T00:35:47Z</time>
      </trkpt>
      <trkpt lat="42.36469" lon="2.50078">
        <ele>972</ele>
        <time>2021-06-20T00:35:49Z</time>
      </trkpt>
      <trkpt lat="42.36516" lon="2.50119">
        <ele>955</ele>
        <time>2021-06-20T00:36:02Z</time>
      </trkpt>
      <trkpt lat="42.36523" lon="2.50136">
        <ele>954</ele>
        <time>2021-06-20T00:36:05Z</time>
      </trkpt>
      <trkpt lat="42.36524" lon="2.50154">
        <ele>955</ele>
        <time>2021-06-20T00:36:09Z</time>
      </trkpt>
      <trkpt lat="42.36517" lon="2.50186">
        <ele>955</ele>
        <time>2021-06-20T00:36:14Z</time>
      </trkpt>
      <trkpt lat="42.36489" lon="2.50222">
        <ele>959</ele>
        <time>2021-06-20T00:36:23Z</time>
      </trkpt>
      <trkpt lat="42.36477" lon="2.50256">
        <ele>958</ele>
        <time>2021-06-20T00:36:30Z</time>
      </trkpt>
      <trkpt lat="42.3646" lon="2.50349">
        <ele>948</ele>
        <time>2021-06-20T00:36:46Z</time>
      </trkpt>
      <trkpt lat="42.36438" lon="2.50443">
        <ele>940</ele>
        <time>2021-06-20T00:37:03Z</time>
      </trkpt>
      <trkpt lat="42.36436" lon="2.50458">
        <ele>939</ele>
        <time>2021-06-20T00:37:06Z</time>
      </trkpt>
      <trkpt lat="42.36438" lon="2.50525">
        <ele>928</ele>
        <time>2021-06-20T00:37:18Z</time>
      </trkpt>
      <trkpt lat="42.36414" lon="2.50578">
        <ele>937</ele>
        <time>2021-06-20T00:37:28Z</time>
      </trkpt>
      <trkpt lat="42.36417" lon="2.5059">
        <ele>936</ele>
        <time>2021-06-20T00:37:30Z</time>
      </trkpt>
      <trkpt lat="42.3643" lon="2.50617">
        <ele>932</ele>
        <time>2021-06-20T00:37:36Z</time>
      </trkpt>
      <trkpt lat="42.36441" lon="2.50633">
        <ele>928</ele>
        <time>2021-06-20T00:37:40Z</time>
      </trkpt>
      <trkpt lat="42.36451" lon="2.50639">
        <ele>923</ele>
        <time>2021-06-20T00:37:42Z</time>
      </trkpt>
      <trkpt lat="42.36481" lon="2.50649">
        <ele>908</ele>
        <time>2021-06-20T00:37:50Z</time>
      </trkpt>
      <trkpt lat="42.36504" lon="2.50669">
        <ele>901</ele>
        <time>2021-06-20T00:37:56Z</time>
      </trkpt>
      <trkpt lat="42.36535" lon="2.50714">
        <ele>901</ele>
        <time>2021-06-20T00:38:07Z</time>
      </trkpt>
      <trkpt lat="42.36568" lon="2.50772">
        <ele>899</ele>
        <time>2021-06-20T00:38:19Z</time>
      </trkpt>
      <trkpt lat="42.36601" lon="2.50836">
        <ele>890</ele>
        <time>2021-06-20T00:38:33Z</time>
      </trkpt>
      <trkpt lat="42.36645" lon="2.50937">
        <ele>881</ele>
        <time>2021-06-20T00:38:53Z</time>
      </trkpt>
      <trkpt lat="42.36668" lon="2.51006">
        <ele>880</ele>
        <time>2021-06-20T00:39:06Z</time>
      </trkpt>
      <trkpt lat="42.36701" lon="2.51052">
        <ele>873</ele>
        <time>2021-06-20T00:39:17Z</time>
      </trkpt>
      <trkpt lat="42.36715" lon="2.51079">
        <ele>873</ele>
        <time>2021-06-20T00:39:23Z</time>
      </trkpt>
      <trkpt lat="42.36737" lon="2.5116">
        <ele>879</ele>
        <time>2021-06-20T00:39:38Z</time>
      </trkpt>
      <trkpt lat="42.36753" lon="2.51199">
        <ele>876</ele>
        <time>2021-06-20T00:39:45Z</time>
      </trkpt>
      <trkpt lat="42.36756" lon="2.51228">
        <ele>879</ele>
        <time>2021-06-20T00:39:50Z</time>
      </trkpt>
      <trkpt lat="42.36753" lon="2.51263">
        <ele>882</ele>
        <time>2021-06-20T00:39:56Z</time>
      </trkpt>
      <trkpt lat="42.36748" lon="2.51278">
        <ele>882</ele>
        <time>2021-06-20T00:39:59Z</time>
      </trkpt>
      <trkpt lat="42.36737" lon="2.51293">
        <ele>881</ele>
        <time>2021-06-20T00:40:03Z</time>
      </trkpt>
      <trkpt lat="42.36723" lon="2.51305">
        <ele>880</ele>
        <time>2021-06-20T00:40:07Z</time>
      </trkpt>
      <trkpt lat="42.36674" lon="2.51332">
        <ele>872</ele>
        <time>2021-06-20T00:40:19Z</time>
      </trkpt>
      <trkpt lat="42.3666" lon="2.51344">
        <ele>868</ele>
        <time>2021-06-20T00:40:23Z</time>
      </trkpt>
      <trkpt lat="42.36631" lon="2.5138">
        <ele>860</ele>
        <time>2021-06-20T00:40:32Z</time>
      </trkpt>
      <trkpt lat="42.36623" lon="2.51386">
        <ele>859</ele>
        <time>2021-06-20T00:40:34Z</time>
      </trkpt>
      <trkpt lat="42.36603" lon="2.51392">
        <ele>859</ele>
        <time>2021-06-20T00:40:39Z</time>
      </trkpt>
      <trkpt lat="42.36589" lon="2.51389">
        <ele>861</ele>
        <time>2021-06-20T00:40:42Z</time>
      </trkpt>
      <trkpt lat="42.36567" lon="2.51392">
        <ele>865</ele>
        <time>2021-06-20T00:40:48Z</time>
      </trkpt>
      <trkpt lat="42.36554" lon="2.514">
        <ele>865</ele>
        <time>2021-06-20T00:40:51Z</time>
      </trkpt>
      <trkpt lat="42.36545" lon="2.51423">
        <ele>860</ele>
        <time>2021-06-20T00:40:55Z</time>
      </trkpt>
      <trkpt lat="42.36541" lon="2.51453">
        <ele>849</ele>
        <time>2021-06-20T00:41:01Z</time>
      </trkpt>
      <trkpt lat="42.36536" lon="2.51467">
        <ele>845</ele>
        <time>2021-06-20T00:41:03Z</time>
      </trkpt>
      <trkpt lat="42.36523" lon="2.51488">
        <ele>842</ele>
        <time>2021-06-20T00:41:08Z</time>
      </trkpt>
      <trkpt lat="42.36477" lon="2.5155">
        <ele>827</ele>
        <time>2021-06-20T00:41:23Z</time>
      </trkpt>
      <trkpt lat="42.36454" lon="2.51571">
        <ele>822</ele>
        <time>2021-06-20T00:41:30Z</time>
      </trkpt>
      <trkpt lat="42.36452" lon="2.51597">
        <ele>811</ele>
        <time>2021-06-20T00:41:34Z</time>
      </trkpt>
      <trkpt lat="42.36447" lon="2.51601">
        <ele>811</ele>
        <time>2021-06-20T00:41:36Z</time>
      </trkpt>
      <trkpt lat="42.36433" lon="2.51604">
        <ele>811</ele>
        <time>2021-06-20T00:41:39Z</time>
      </trkpt>
      <trkpt lat="42.36419" lon="2.51614">
        <ele>809</ele>
        <time>2021-06-20T00:41:43Z</time>
      </trkpt>
      <trkpt lat="42.36357" lon="2.51676">
        <ele>792</ele>
        <time>2021-06-20T00:42:01Z</time>
      </trkpt>
      <trkpt lat="42.36334" lon="2.51695">
        <ele>791</ele>
        <time>2021-06-20T00:42:07Z</time>
      </trkpt>
      <trkpt lat="42.36328" lon="2.51707">
        <ele>789</ele>
        <time>2021-06-20T00:42:09Z</time>
      </trkpt>
      <trkpt lat="42.36328" lon="2.51712">
        <ele>787</ele>
        <time>2021-06-20T00:42:10Z</time>
      </trkpt>
      <trkpt lat="42.3634" lon="2.51735">
        <ele>780</ele>
        <time>2021-06-20T00:42:15Z</time>
      </trkpt>
      <trkpt lat="42.36339" lon="2.51743">
        <ele>778</ele>
        <time>2021-06-20T00:42:16Z</time>
      </trkpt>
      <trkpt lat="42.36335" lon="2.5175">
        <ele>777</ele>
        <time>2021-06-20T00:42:18Z</time>
      </trkpt>
      <trkpt lat="42.36326" lon="2.51756">
        <ele>778</ele>
        <time>2021-06-20T00:42:20Z</time>
      </trkpt>
      <trkpt lat="42.36305" lon="2.51754">
        <ele>781</ele>
        <time>2021-06-20T00:42:25Z</time>
      </trkpt>
      <trkpt lat="42.36299" lon="2.51757">
        <ele>782</ele>
        <time>2021-06-20T00:42:27Z</time>
      </trkpt>
      <trkpt lat="42.36289" lon="2.51769">
        <ele>783</ele>
        <time>2021-06-20T00:42:30Z</time>
      </trkpt>
      <trkpt lat="42.36256" lon="2.51785">
        <ele>784</ele>
        <time>2021-06-20T00:42:38Z</time>
      </trkpt>
      <trkpt lat="42.36245" lon="2.51807">
        <ele>782</ele>
        <time>2021-06-20T00:42:43Z</time>
      </trkpt>
      <trkpt lat="42.36235" lon="2.51816">
        <ele>780</ele>
        <time>2021-06-20T00:42:45Z</time>
      </trkpt>
      <trkpt lat="42.36214" lon="2.51812">
        <ele>781</ele>
        <time>2021-06-20T00:42:50Z</time>
      </trkpt>
      <trkpt lat="42.36166" lon="2.51839">
        <ele>775</ele>
        <time>2021-06-20T00:43:03Z</time>
      </trkpt>
      <trkpt lat="42.36159" lon="2.51873">
        <ele>778</ele>
        <time>2021-06-20T00:43:09Z</time>
      </trkpt>
      <trkpt lat="42.36131" lon="2.51894">
        <ele>779</ele>
        <time>2021-06-20T00:43:16Z</time>
      </trkpt>
      <trkpt lat="42.36105" lon="2.51934">
        <ele>785</ele>
        <time>2021-06-20T00:43:25Z</time>
      </trkpt>
      <trkpt lat="42.36099" lon="2.51939">
        <ele>786</ele>
        <time>2021-06-20T00:43:27Z</time>
      </trkpt>
      <trkpt lat="42.36066" lon="2.51943">
        <ele>784</ele>
        <time>2021-06-20T00:43:35Z</time>
      </trkpt>
      <trkpt lat="42.36042" lon="2.51953">
        <ele>784</ele>
        <time>2021-06-20T00:43:41Z</time>
      </trkpt>
      <trkpt lat="42.36017" lon="2.51999">
        <ele>790</ele>
        <time>2021-06-20T00:43:50Z</time>
      </trkpt>
      <trkpt lat="42.3602" lon="2.52007">
        <ele>792</ele>
        <time>2021-06-20T00:43:52Z</time>
      </trkpt>
      <trkpt lat="42.36006" lon="2.52046">
        <ele>797</ele>
        <time>2021-06-20T00:43:59Z</time>
      </trkpt>
      <trkpt lat="42.35972" lon="2.52103">
        <ele>804</ele>
        <time>2021-06-20T00:44:12Z</time>
      </trkpt>
      <trkpt lat="42.35968" lon="2.52118">
        <ele>806</ele>
        <time>2021-06-20T00:44:15Z</time>
      </trkpt>
      <trkpt lat="42.35979" lon="2.52119">
        <ele>808</ele>
        <time>2021-06-20T00:44:17Z</time>
      </trkpt>
      <trkpt lat="42.3598" lon="2.52136">
        <ele>811</ele>
        <time>2021-06-20T00:44:20Z</time>
      </trkpt>
      <trkpt lat="42.35982" lon="2.52131">
        <ele>811</ele>
        <time>2021-06-20T00:44:21Z</time>
      </trkpt>
      <trkpt lat="42.35986" lon="2.5213">
        <ele>811</ele>
        <time>2021-06-20T00:44:22Z</time>
      </trkpt>
      <trkpt lat="42.35979" lon="2.52178">
        <ele>820</ele>
        <time>2021-06-20T00:44:31Z</time>
      </trkpt>
      <trkpt lat="42.35982" lon="2.5218">
        <ele>821</ele>
        <time>2021-06-20T00:44:32Z</time>
      </trkpt>
      <trkpt lat="42.35971" lon="2.52226">
        <ele>828</ele>
        <time>2021-06-20T00:44:40Z</time>
      </trkpt>
      <trkpt lat="42.35957" lon="2.52261">
        <ele>831</ele>
        <time>2021-06-20T00:44:47Z</time>
      </trkpt>
      <trkpt lat="42.35954" lon="2.52274">
        <ele>834</ele>
        <time>2021-06-20T00:44:49Z</time>
      </trkpt>
      <trkpt lat="42.35944" lon="2.52291">
        <ele>834</ele>
        <time>2021-06-20T00:44:53Z</time>
      </trkpt>
      <trkpt lat="42.35928" lon="2.52313">
        <ele>834</ele>
        <time>2021-06-20T00:44:58Z</time>
      </trkpt>
      <trkpt lat="42.35921" lon="2.52315">
        <ele>831</ele>
        <time>2021-06-20T00:45:00Z</time>
      </trkpt>
      <trkpt lat="42.35909" lon="2.52327">
        <ele>831</ele>
        <time>2021-06-20T00:45:03Z</time>
      </trkpt>
      <trkpt lat="42.35901" lon="2.52344">
        <ele>833</ele>
        <time>2021-06-20T00:45:07Z</time>
      </trkpt>
      <trkpt lat="42.35892" lon="2.52387">
        <ele>839</ele>
        <time>2021-06-20T00:45:14Z</time>
      </trkpt>
      <trkpt lat="42.35893" lon="2.52393">
        <ele>841</ele>
        <time>2021-06-20T00:45:16Z</time>
      </trkpt>
      <trkpt lat="42.35898" lon="2.52397">
        <ele>844</ele>
        <time>2021-06-20T00:45:17Z</time>
      </trkpt>
      <trkpt lat="42.35902" lon="2.52407">
        <ele>848</ele>
        <time>2021-06-20T00:45:19Z</time>
      </trkpt>
      <trkpt lat="42.35903" lon="2.52419">
        <ele>851</ele>
        <time>2021-06-20T00:45:21Z</time>
      </trkpt>
      <trkpt lat="42.35865" lon="2.525">
        <ele>846</ele>
        <time>2021-06-20T00:45:38Z</time>
      </trkpt>
      <trkpt lat="42.35855" lon="2.5257">
        <ele>851</ele>
        <time>2021-06-20T00:45:50Z</time>
      </trkpt>
      <trkpt lat="42.3584" lon="2.52613">
        <ele>847</ele>
        <time>2021-06-20T00:45:58Z</time>
      </trkpt>
      <trkpt lat="42.35844" lon="2.52631">
        <ele>852</ele>
        <time>2021-06-20T00:46:01Z</time>
      </trkpt>
      <trkpt lat="42.35844" lon="2.52655">
        <ele>854</ele>
        <time>2021-06-20T00:46:05Z</time>
      </trkpt>
      <trkpt lat="42.35803" lon="2.528">
        <ele>859</ele>
        <time>2021-06-20T00:46:32Z</time>
      </trkpt>
      <trkpt lat="42.35794" lon="2.52844">
        <ele>861</ele>
        <time>2021-06-20T00:46:40Z</time>
      </trkpt>
      <trkpt lat="42.35793" lon="2.52951">
        <ele>870</ele>
        <time>2021-06-20T00:46:59Z</time>
      </trkpt>
      <trkpt lat="42.35795" lon="2.52988">
        <ele>871</ele>
        <time>2021-06-20T00:47:05Z</time>
      </trkpt>
      <trkpt lat="42.358" lon="2.53024">
        <ele>873</ele>
        <time>2021-06-20T00:47:11Z</time>
      </trkpt>
      <trkpt lat="42.35808" lon="2.53058">
        <ele>874</ele>
        <time>2021-06-20T00:47:17Z</time>
      </trkpt>
      <trkpt lat="42.3582" lon="2.53098">
        <ele>875</ele>
        <time>2021-06-20T00:47:25Z</time>
      </trkpt>
      <trkpt lat="42.35835" lon="2.53134">
        <ele>876</ele>
        <time>2021-06-20T00:47:32Z</time>
      </trkpt>
      <trkpt lat="42.35838" lon="2.53216">
        <ele>878</ele>
        <time>2021-06-20T00:47:46Z</time>
      </trkpt>
      <trkpt lat="42.35845" lon="2.53258">
        <ele>882</ele>
        <time>2021-06-20T00:47:54Z</time>
      </trkpt>
      <trkpt lat="42.3586" lon="2.53307">
        <ele>890</ele>
        <time>2021-06-20T00:48:03Z</time>
      </trkpt>
      <trkpt lat="42.35859" lon="2.53315">
        <ele>891</ele>
        <time>2021-06-20T00:48:04Z</time>
      </trkpt>
      <trkpt lat="42.35852" lon="2.53316">
        <ele>890</ele>
        <time>2021-06-20T00:48:06Z</time>
      </trkpt>
      <trkpt lat="42.35823" lon="2.53287">
        <ele>886</ele>
        <time>2021-06-20T00:48:14Z</time>
      </trkpt>
      <trkpt lat="42.35803" lon="2.53262">
        <ele>887</ele>
        <time>2021-06-20T00:48:21Z</time>
      </trkpt>
      <trkpt lat="42.35791" lon="2.53227">
        <ele>885</ele>
        <time>2021-06-20T00:48:27Z</time>
      </trkpt>
      <trkpt lat="42.35778" lon="2.53208">
        <ele>884</ele>
        <time>2021-06-20T00:48:32Z</time>
      </trkpt>
      <trkpt lat="42.3577" lon="2.53207">
        <ele>885</ele>
        <time>2021-06-20T00:48:34Z</time>
      </trkpt>
      <trkpt lat="42.35766" lon="2.53214">
        <ele>887</ele>
        <time>2021-06-20T00:48:35Z</time>
      </trkpt>
      <trkpt lat="42.35781" lon="2.53238">
        <ele>888</ele>
        <time>2021-06-20T00:48:41Z</time>
      </trkpt>
      <trkpt lat="42.35787" lon="2.53312">
        <ele>900</ele>
        <time>2021-06-20T00:48:53Z</time>
      </trkpt>
      <trkpt lat="42.35796" lon="2.53348">
        <ele>904</ele>
        <time>2021-06-20T00:49:00Z</time>
      </trkpt>
      <trkpt lat="42.35817" lon="2.53405">
        <ele>906</ele>
        <time>2021-06-20T00:49:11Z</time>
      </trkpt>
      <trkpt lat="42.35825" lon="2.53448">
        <ele>909</ele>
        <time>2021-06-20T00:49:19Z</time>
      </trkpt>
      <trkpt lat="42.35845" lon="2.53501">
        <ele>914</ele>
        <time>2021-06-20T00:49:29Z</time>
      </trkpt>
      <trkpt lat="42.35845" lon="2.53524">
        <ele>917</ele>
        <time>2021-06-20T00:49:33Z</time>
      </trkpt>
      <trkpt lat="42.35841" lon="2.53541">
        <ele>920</ele>
        <time>2021-06-20T00:49:36Z</time>
      </trkpt>
      <trkpt lat="42.35836" lon="2.53538">
        <ele>919</ele>
        <time>2021-06-20T00:49:37Z</time>
      </trkpt>
      <trkpt lat="42.35827" lon="2.53487">
        <ele>915</ele>
        <time>2021-06-20T00:49:46Z</time>
      </trkpt>
      <trkpt lat="42.35821" lon="2.53478">
        <ele>916</ele>
        <time>2021-06-20T00:49:48Z</time>
      </trkpt>
      <trkpt lat="42.35812" lon="2.5348">
        <ele>920</ele>
        <time>2021-06-20T00:49:50Z</time>
      </trkpt>
      <trkpt lat="42.358" lon="2.53477">
        <ele>924</ele>
        <time>2021-06-20T00:49:53Z</time>
      </trkpt>
      <trkpt lat="42.35791" lon="2.53459">
        <ele>925</ele>
        <time>2021-06-20T00:49:57Z</time>
      </trkpt>
      <trkpt lat="42.35786" lon="2.53433">
        <ele>923</ele>
        <time>2021-06-20T00:50:02Z</time>
      </trkpt>
      <trkpt lat="42.35766" lon="2.53383">
        <ele>921</ele>
        <time>2021-06-20T00:50:12Z</time>
      </trkpt>
      <trkpt lat="42.3574" lon="2.53329">
        <ele>917</ele>
        <time>2021-06-20T00:50:23Z</time>
      </trkpt>
      <trkpt lat="42.35724" lon="2.53304">
        <ele>914</ele>
        <time>2021-06-20T00:50:28Z</time>
      </trkpt>
      <trkpt lat="42.35704" lon="2.53296">
        <ele>915</ele>
        <time>2021-06-20T00:50:33Z</time>
      </trkpt>
      <trkpt lat="42.35725" lon="2.53324">
        <ele>919</ele>
        <time>2021-06-20T00:50:40Z</time>
      </trkpt>
      <trkpt lat="42.35736" lon="2.53356">
        <ele>924</ele>
        <time>2021-06-20T00:50:46Z</time>
      </trkpt>
      <trkpt lat="42.35755" lon="2.53444">
        <ele>937</ele>
        <time>2021-06-20T00:51:02Z</time>
      </trkpt>
      <trkpt lat="42.35767" lon="2.53485">
        <ele>939</ele>
        <time>2021-06-20T00:51:10Z</time>
      </trkpt>
      <trkpt lat="42.3577" lon="2.53524">
        <ele>943</ele>
        <time>2021-06-20T00:51:16Z</time>
      </trkpt>
      <trkpt lat="42.35769" lon="2.53606">
        <ele>953</ele>
        <time>2021-06-20T00:51:31Z</time>
      </trkpt>
      <trkpt lat="42.35774" lon="2.53648">
        <ele>957</ele>
        <time>2021-06-20T00:51:38Z</time>
      </trkpt>
      <trkpt lat="42.35791" lon="2.5373">
        <ele>962</ele>
        <time>2021-06-20T00:51:53Z</time>
      </trkpt>
      <trkpt lat="42.35795" lon="2.53798">
        <ele>968</ele>
        <time>2021-06-20T00:52:04Z</time>
      </trkpt>
      <trkpt lat="42.358" lon="2.53823">
        <ele>969</ele>
        <time>2021-06-20T00:52:09Z</time>
      </trkpt>
      <trkpt lat="42.3581" lon="2.53847">
        <ele>968</ele>
        <time>2021-06-20T00:52:14Z</time>
      </trkpt>
      <trkpt lat="42.35813" lon="2.5387">
        <ele>970</ele>
        <time>2021-06-20T00:52:18Z</time>
      </trkpt>
      <trkpt lat="42.35809" lon="2.53912">
        <ele>977</ele>
        <time>2021-06-20T00:52:25Z</time>
      </trkpt>
      <trkpt lat="42.35822" lon="2.53932">
        <ele>975</ele>
        <time>2021-06-20T00:52:29Z</time>
      </trkpt>
      <trkpt lat="42.35829" lon="2.53953">
        <ele>975</ele>
        <time>2021-06-20T00:52:33Z</time>
      </trkpt>
      <trkpt lat="42.35827" lon="2.53959">
        <ele>977</ele>
        <time>2021-06-20T00:52:35Z</time>
      </trkpt>
      <trkpt lat="42.3582" lon="2.53955">
        <ele>979</ele>
        <time>2021-06-20T00:52:36Z</time>
      </trkpt>
      <trkpt lat="42.35812" lon="2.53944">
        <ele>981</ele>
        <time>2021-06-20T00:52:39Z</time>
      </trkpt>
      <trkpt lat="42.35801" lon="2.53938">
        <ele>985</ele>
        <time>2021-06-20T00:52:42Z</time>
      </trkpt>
      <trkpt lat="42.3579" lon="2.53926">
        <ele>988</ele>
        <time>2021-06-20T00:52:45Z</time>
      </trkpt>
      <trkpt lat="42.35766" lon="2.53811">
        <ele>981</ele>
        <time>2021-06-20T00:53:06Z</time>
      </trkpt>
      <trkpt lat="42.35732" lon="2.53706">
        <ele>975</ele>
        <time>2021-06-20T00:53:26Z</time>
      </trkpt>
      <trkpt lat="42.35725" lon="2.53652">
        <ele>968</ele>
        <time>2021-06-20T00:53:35Z</time>
      </trkpt>
      <trkpt lat="42.3572" lon="2.53648">
        <ele>967</ele>
        <time>2021-06-20T00:53:36Z</time>
      </trkpt>
      <trkpt lat="42.35714" lon="2.53651">
        <ele>968</ele>
        <time>2021-06-20T00:53:38Z</time>
      </trkpt>
      <trkpt lat="42.35705" lon="2.53683">
        <ele>973</ele>
        <time>2021-06-20T00:53:44Z</time>
      </trkpt>
      <trkpt lat="42.35698" lon="2.53727">
        <ele>980</ele>
        <time>2021-06-20T00:53:52Z</time>
      </trkpt>
      <trkpt lat="42.35687" lon="2.53767">
        <ele>987</ele>
        <time>2021-06-20T00:53:59Z</time>
      </trkpt>
      <trkpt lat="42.35676" lon="2.53786">
        <ele>991</ele>
        <time>2021-06-20T00:54:03Z</time>
      </trkpt>
      <trkpt lat="42.35664" lon="2.53796">
        <ele>992</ele>
        <time>2021-06-20T00:54:06Z</time>
      </trkpt>
      <trkpt lat="42.35657" lon="2.53796">
        <ele>990</ele>
        <time>2021-06-20T00:54:08Z</time>
      </trkpt>
      <trkpt lat="42.35647" lon="2.53806">
        <ele>988</ele>
        <time>2021-06-20T00:54:11Z</time>
      </trkpt>
      <trkpt lat="42.35621" lon="2.53867">
        <ele>994</ele>
        <time>2021-06-20T00:54:23Z</time>
      </trkpt>
      <trkpt lat="42.35608" lon="2.53887">
        <ele>994</ele>
        <time>2021-06-20T00:54:28Z</time>
      </trkpt>
      <trkpt lat="42.35568" lon="2.54015">
        <ele>1008</ele>
        <time>2021-06-20T00:54:52Z</time>
      </trkpt>
      <trkpt lat="42.35549" lon="2.54113">
        <ele>1016</ele>
        <time>2021-06-20T00:55:09Z</time>
      </trkpt>
      <trkpt lat="42.35536" lon="2.54154">
        <ele>1016</ele>
        <time>2021-06-20T00:55:17Z</time>
      </trkpt>
      <trkpt lat="42.35519" lon="2.54234">
        <ele>1019</ele>
        <time>2021-06-20T00:55:31Z</time>
      </trkpt>
      <trkpt lat="42.35521" lon="2.54254">
        <ele>1022</ele>
        <time>2021-06-20T00:55:35Z</time>
      </trkpt>
      <trkpt lat="42.35531" lon="2.54284">
        <ele>1028</ele>
        <time>2021-06-20T00:55:40Z</time>
      </trkpt>
      <trkpt lat="42.35538" lon="2.54318">
        <ele>1033</ele>
        <time>2021-06-20T00:55:46Z</time>
      </trkpt>
      <trkpt lat="42.3554" lon="2.54341">
        <ele>1034</ele>
        <time>2021-06-20T00:55:50Z</time>
      </trkpt>
      <trkpt lat="42.35541" lon="2.54419">
        <ele>1037</ele>
        <time>2021-06-20T00:56:04Z</time>
      </trkpt>
      <trkpt lat="42.35537" lon="2.54458">
        <ele>1039</ele>
        <time>2021-06-20T00:56:11Z</time>
      </trkpt>
      <trkpt lat="42.3552" lon="2.5452">
        <ele>1038</ele>
        <time>2021-06-20T00:56:22Z</time>
      </trkpt>
      <trkpt lat="42.35507" lon="2.54606">
        <ele>1046</ele>
        <time>2021-06-20T00:56:37Z</time>
      </trkpt>
      <trkpt lat="42.35501" lon="2.54617">
        <ele>1046</ele>
        <time>2021-06-20T00:56:40Z</time>
      </trkpt>
      <trkpt lat="42.35486" lon="2.54624">
        <ele>1043</ele>
        <time>2021-06-20T00:56:43Z</time>
      </trkpt>
      <trkpt lat="42.35475" lon="2.54639">
        <ele>1043</ele>
        <time>2021-06-20T00:56:47Z</time>
      </trkpt>
      <trkpt lat="42.35457" lon="2.54649">
        <ele>1040</ele>
        <time>2021-06-20T00:56:51Z</time>
      </trkpt>
      <trkpt lat="42.35452" lon="2.54658">
        <ele>1040</ele>
        <time>2021-06-20T00:56:53Z</time>
      </trkpt>
      <trkpt lat="42.35448" lon="2.54683">
        <ele>1042</ele>
        <time>2021-06-20T00:56:58Z</time>
      </trkpt>
      <trkpt lat="42.35454" lon="2.54723">
        <ele>1047</ele>
        <time>2021-06-20T00:57:05Z</time>
      </trkpt>
      <trkpt lat="42.35454" lon="2.54746">
        <ele>1050</ele>
        <time>2021-06-20T00:57:09Z</time>
      </trkpt>
      <trkpt lat="42.35441" lon="2.5482">
        <ele>1053</ele>
        <time>2021-06-20T00:57:22Z</time>
      </trkpt>
      <trkpt lat="42.35439" lon="2.54972">
        <ele>1069</ele>
        <time>2021-06-20T00:57:48Z</time>
      </trkpt>
      <trkpt lat="42.35443" lon="2.54977">
        <ele>1072</ele>
        <time>2021-06-20T00:57:49Z</time>
      </trkpt>
      <trkpt lat="42.35447" lon="2.54975">
        <ele>1074</ele>
        <time>2021-06-20T00:57:50Z</time>
      </trkpt>
      <trkpt lat="42.35459" lon="2.54883">
        <ele>1069</ele>
        <time>2021-06-20T00:58:07Z</time>
      </trkpt>
      <trkpt lat="42.35466" lon="2.54863">
        <ele>1070</ele>
        <time>2021-06-20T00:58:10Z</time>
      </trkpt>
      <trkpt lat="42.35476" lon="2.54846">
        <ele>1072</ele>
        <time>2021-06-20T00:58:14Z</time>
      </trkpt>
      <trkpt lat="42.3551" lon="2.54801">
        <ele>1080</ele>
        <time>2021-06-20T00:58:25Z</time>
      </trkpt>
      <trkpt lat="42.35525" lon="2.54771">
        <ele>1082</ele>
        <time>2021-06-20T00:58:32Z</time>
      </trkpt>
      <trkpt lat="42.35542" lon="2.54746">
        <ele>1087</ele>
        <time>2021-06-20T00:58:37Z</time>
      </trkpt>
      <trkpt lat="42.35606" lon="2.54596">
        <ele>1090</ele>
        <time>2021-06-20T00:59:07Z</time>
      </trkpt>
      <trkpt lat="42.35632" lon="2.54516">
        <ele>1090</ele>
        <time>2021-06-20T00:59:22Z</time>
      </trkpt>
      <trkpt lat="42.3564" lon="2.54501">
        <ele>1091</ele>
        <time>2021-06-20T00:59:26Z</time>
      </trkpt>
      <trkpt lat="42.35661" lon="2.54484">
        <ele>1100</ele>
        <time>2021-06-20T00:59:31Z</time>
      </trkpt>
      <trkpt lat="42.35702" lon="2.54425">
        <ele>1094</ele>
        <time>2021-06-20T00:59:45Z</time>
      </trkpt>
      <trkpt lat="42.35707" lon="2.54421">
        <ele>1093</ele>
        <time>2021-06-20T00:59:47Z</time>
      </trkpt>
      <trkpt lat="42.35722" lon="2.54426">
        <ele>1093</ele>
        <time>2021-06-20T00:59:50Z</time>
      </trkpt>
      <trkpt lat="42.35732" lon="2.54439">
        <ele>1094</ele>
        <time>2021-06-20T00:59:53Z</time>
      </trkpt>
      <trkpt lat="42.3575" lon="2.54529">
        <ele>1112</ele>
        <time>2021-06-20T01:00:10Z</time>
      </trkpt>
      <trkpt lat="42.35808" lon="2.54671">
        <ele>1130</ele>
        <time>2021-06-20T01:00:38Z</time>
      </trkpt>
      <trkpt lat="42.3582" lon="2.5471">
        <ele>1135</ele>
        <time>2021-06-20T01:00:45Z</time>
      </trkpt>
      <trkpt lat="42.35836" lon="2.5474">
        <ele>1138</ele>
        <time>2021-06-20T01:00:51Z</time>
      </trkpt>
      <trkpt lat="42.35845" lon="2.54747">
        <ele>1141</ele>
        <time>2021-06-20T01:00:54Z</time>
      </trkpt>
      <trkpt lat="42.35853" lon="2.54743">
        <ele>1141</ele>
        <time>2021-06-20T01:00:56Z</time>
      </trkpt>
      <trkpt lat="42.3586" lon="2.54749">
        <ele>1143</ele>
        <time>2021-06-20T01:00:58Z</time>
      </trkpt>
      <trkpt lat="42.35886" lon="2.54721">
        <ele>1141</ele>
        <time>2021-06-20T01:01:05Z</time>
      </trkpt>
      <trkpt lat="42.3589" lon="2.54727">
        <ele>1143</ele>
        <time>2021-06-20T01:01:07Z</time>
      </trkpt>
      <trkpt lat="42.3588" lon="2.54787">
        <ele>1150</ele>
        <time>2021-06-20T01:01:17Z</time>
      </trkpt>
      <trkpt lat="42.35825" lon="2.54948">
        <ele>1153</ele>
        <time>2021-06-20T01:01:48Z</time>
      </trkpt>
      <trkpt lat="42.35809" lon="2.54978">
        <ele>1158</ele>
        <time>2021-06-20T01:01:54Z</time>
      </trkpt>
      <trkpt lat="42.35796" lon="2.55048">
        <ele>1159</ele>
        <time>2021-06-20T01:02:07Z</time>
      </trkpt>
      <trkpt lat="42.35738" lon="2.55165">
        <ele>1160</ele>
        <time>2021-06-20T01:02:31Z</time>
      </trkpt>
      <trkpt lat="42.35717" lon="2.55195">
        <ele>1159</ele>
        <time>2021-06-20T01:02:38Z</time>
      </trkpt>
      <trkpt lat="42.35704" lon="2.55205">
        <ele>1159</ele>
        <time>2021-06-20T01:02:42Z</time>
      </trkpt>
      <trkpt lat="42.35712" lon="2.55264">
        <ele>1161</ele>
        <time>2021-06-20T01:02:52Z</time>
      </trkpt>
      <trkpt lat="42.35708" lon="2.55307">
        <ele>1165</ele>
        <time>2021-06-20T01:03:00Z</time>
      </trkpt>
      <trkpt lat="42.357" lon="2.55341">
        <ele>1169</ele>
        <time>2021-06-20T01:03:06Z</time>
      </trkpt>
      <trkpt lat="42.35694" lon="2.55387">
        <ele>1174</ele>
        <time>2021-06-20T01:03:14Z</time>
      </trkpt>
      <trkpt lat="42.35694" lon="2.55425">
        <ele>1178</ele>
        <time>2021-06-20T01:03:20Z</time>
      </trkpt>
      <trkpt lat="42.35704" lon="2.55476">
        <ele>1181</ele>
        <time>2021-06-20T01:03:29Z</time>
      </trkpt>
      <trkpt lat="42.35732" lon="2.55552">
        <ele>1180</ele>
        <time>2021-06-20T01:03:44Z</time>
      </trkpt>
      <trkpt lat="42.35725" lon="2.5559">
        <ele>1185</ele>
        <time>2021-06-20T01:03:51Z</time>
      </trkpt>
      <trkpt lat="42.35728" lon="2.55613">
        <ele>1185</ele>
        <time>2021-06-20T01:03:55Z</time>
      </trkpt>
      <trkpt lat="42.35725" lon="2.55637">
        <ele>1187</ele>
        <time>2021-06-20T01:03:59Z</time>
      </trkpt>
      <trkpt lat="42.35738" lon="2.55674">
        <ele>1187</ele>
        <time>2021-06-20T01:04:06Z</time>
      </trkpt>
      <trkpt lat="42.35739" lon="2.55697">
        <ele>1189</ele>
        <time>2021-06-20T01:04:10Z</time>
      </trkpt>
      <trkpt lat="42.35731" lon="2.55713">
        <ele>1193</ele>
        <time>2021-06-20T01:04:13Z</time>
      </trkpt>
      <trkpt lat="42.35722" lon="2.5575">
        <ele>1200</ele>
        <time>2021-06-20T01:04:20Z</time>
      </trkpt>
      <trkpt lat="42.35724" lon="2.55785">
        <ele>1204</ele>
        <time>2021-06-20T01:04:26Z</time>
      </trkpt>
      <trkpt lat="42.35734" lon="2.55841">
        <ele>1208</ele>
        <time>2021-06-20T01:04:36Z</time>
      </trkpt>
      <trkpt lat="42.3573" lon="2.55872">
        <ele>1213</ele>
        <time>2021-06-20T01:04:42Z</time>
      </trkpt>
      <trkpt lat="42.35734" lon="2.55912">
        <ele>1216</ele>
        <time>2021-06-20T01:04:49Z</time>
      </trkpt>
      <trkpt lat="42.35729" lon="2.55926">
        <ele>1219</ele>
        <time>2021-06-20T01:04:51Z</time>
      </trkpt>
      <trkpt lat="42.35728" lon="2.55938">
        <ele>1221</ele>
        <time>2021-06-20T01:04:53Z</time>
      </trkpt>
      <trkpt lat="42.35722" lon="2.5595">
        <ele>1224</ele>
        <time>2021-06-20T01:04:56Z</time>
      </trkpt>
      <trkpt lat="42.35732" lon="2.55991">
        <ele>1226</ele>
        <time>2021-06-20T01:05:03Z</time>
      </trkpt>
      <trkpt lat="42.35734" lon="2.56021">
        <ele>1229</ele>
        <time>2021-06-20T01:05:08Z</time>
      </trkpt>
      <trkpt lat="42.35733" lon="2.56052">
        <ele>1232</ele>
        <time>2021-06-20T01:05:14Z</time>
      </trkpt>
      <trkpt lat="42.35736" lon="2.56062">
        <ele>1232</ele>
        <time>2021-06-20T01:05:16Z</time>
      </trkpt>
      <trkpt lat="42.35734" lon="2.56076">
        <ele>1234</ele>
        <time>2021-06-20T01:05:18Z</time>
      </trkpt>
      <trkpt lat="42.35727" lon="2.56096">
        <ele>1236</ele>
        <time>2021-06-20T01:05:22Z</time>
      </trkpt>
      <trkpt lat="42.35728" lon="2.56116">
        <ele>1236</ele>
        <time>2021-06-20T01:05:25Z</time>
      </trkpt>
      <trkpt lat="42.35721" lon="2.56125">
        <ele>1238</ele>
        <time>2021-06-20T01:05:28Z</time>
      </trkpt>
      <trkpt lat="42.35722" lon="2.56132">
        <ele>1237</ele>
        <time>2021-06-20T01:05:29Z</time>
      </trkpt>
      <trkpt lat="42.35717" lon="2.56139">
        <ele>1239</ele>
        <time>2021-06-20T01:05:31Z</time>
      </trkpt>
      <trkpt lat="42.35721" lon="2.56156">
        <ele>1237</ele>
        <time>2021-06-20T01:05:34Z</time>
      </trkpt>
      <trkpt lat="42.35715" lon="2.5617">
        <ele>1239</ele>
        <time>2021-06-20T01:05:36Z</time>
      </trkpt>
      <trkpt lat="42.35715" lon="2.56188">
        <ele>1238</ele>
        <time>2021-06-20T01:05:40Z</time>
      </trkpt>
      <trkpt lat="42.35706" lon="2.56258">
        <ele>1235</ele>
        <time>2021-06-20T01:05:52Z</time>
      </trkpt>
      <trkpt lat="42.35687" lon="2.56348">
        <ele>1225</ele>
        <time>2021-06-20T01:06:08Z</time>
      </trkpt>
      <trkpt lat="42.35683" lon="2.56402">
        <ele>1218</ele>
        <time>2021-06-20T01:06:17Z</time>
      </trkpt>
      <trkpt lat="42.35686" lon="2.56428">
        <ele>1215</ele>
        <time>2021-06-20T01:06:22Z</time>
      </trkpt>
      <trkpt lat="42.35694" lon="2.56464">
        <ele>1212</ele>
        <time>2021-06-20T01:06:28Z</time>
      </trkpt>
      <trkpt lat="42.35684" lon="2.56495">
        <ele>1208</ele>
        <time>2021-06-20T01:06:34Z</time>
      </trkpt>
      <trkpt lat="42.35649" lon="2.56545">
        <ele>1207</ele>
        <time>2021-06-20T01:06:46Z</time>
      </trkpt>
      <trkpt lat="42.35636" lon="2.56593">
        <ele>1206</ele>
        <time>2021-06-20T01:06:55Z</time>
      </trkpt>
      <trkpt lat="42.35635" lon="2.5664">
        <ele>1202</ele>
        <time>2021-06-20T01:07:03Z</time>
      </trkpt>
      <trkpt lat="42.35642" lon="2.56663">
        <ele>1199</ele>
        <time>2021-06-20T01:07:07Z</time>
      </trkpt>
      <trkpt lat="42.35632" lon="2.56686">
        <ele>1197</ele>
        <time>2021-06-20T01:07:12Z</time>
      </trkpt>
      <trkpt lat="42.35641" lon="2.56697">
        <ele>1195</ele>
        <time>2021-06-20T01:07:15Z</time>
      </trkpt>
      <trkpt lat="42.35654" lon="2.56705">
        <ele>1193</ele>
        <time>2021-06-20T01:07:18Z</time>
      </trkpt>
      <trkpt lat="42.35664" lon="2.56724">
        <ele>1191</ele>
        <time>2021-06-20T01:07:22Z</time>
      </trkpt>
      <trkpt lat="42.35748" lon="2.56741">
        <ele>1203</ele>
        <time>2021-06-20T01:07:42Z</time>
      </trkpt>
      <trkpt lat="42.358" lon="2.56766">
        <ele>1205</ele>
        <time>2021-06-20T01:07:55Z</time>
      </trkpt>
      <trkpt lat="42.35864" lon="2.56864">
        <ele>1208</ele>
        <time>2021-06-20T01:08:17Z</time>
      </trkpt>
      <trkpt lat="42.36145" lon="2.57027">
        <ele>1166</ele>
        <time>2021-06-20T01:09:29Z</time>
      </trkpt>
      <trkpt lat="42.36185" lon="2.57096">
        <ele>1162</ele>
        <time>2021-06-20T01:09:44Z</time>
      </trkpt>
      <trkpt lat="42.36219" lon="2.57139">
        <ele>1153</ele>
        <time>2021-06-20T01:09:55Z</time>
      </trkpt>
      <trkpt lat="42.36255" lon="2.57172">
        <ele>1146</ele>
        <time>2021-06-20T01:10:05Z</time>
      </trkpt>
      <trkpt lat="42.36285" lon="2.57189">
        <ele>1140</ele>
        <time>2021-06-20T01:10:13Z</time>
      </trkpt>
      <trkpt lat="42.36297" lon="2.57192">
        <ele>1138</ele>
        <time>2021-06-20T01:10:15Z</time>
      </trkpt>
      <trkpt lat="42.36332" lon="2.57188">
        <ele>1133</ele>
        <time>2021-06-20T01:10:24Z</time>
      </trkpt>
      <trkpt lat="42.36347" lon="2.5719">
        <ele>1130</ele>
        <time>2021-06-20T01:10:27Z</time>
      </trkpt>
      <trkpt lat="42.36366" lon="2.57199">
        <ele>1127</ele>
        <time>2021-06-20T01:10:32Z</time>
      </trkpt>
      <trkpt lat="42.36381" lon="2.57202">
        <ele>1125</ele>
        <time>2021-06-20T01:10:35Z</time>
      </trkpt>
      <trkpt lat="42.36411" lon="2.5723">
        <ele>1124</ele>
        <time>2021-06-20T01:10:44Z</time>
      </trkpt>
      <trkpt lat="42.3644" lon="2.57245">
        <ele>1120</ele>
        <time>2021-06-20T01:10:51Z</time>
      </trkpt>
      <trkpt lat="42.36445" lon="2.57256">
        <ele>1119</ele>
        <time>2021-06-20T01:10:53Z</time>
      </trkpt>
      <trkpt lat="42.3645" lon="2.57261">
        <ele>1118</ele>
        <time>2021-06-20T01:10:55Z</time>
      </trkpt>
      <trkpt lat="42.3646" lon="2.57258">
        <ele>1115</ele>
        <time>2021-06-20T01:10:57Z</time>
      </trkpt>
      <trkpt lat="42.36475" lon="2.5726">
        <ele>1111</ele>
        <time>2021-06-20T01:11:01Z</time>
      </trkpt>
      <trkpt lat="42.36479" lon="2.57251">
        <ele>1111</ele>
        <time>2021-06-20T01:11:03Z</time>
      </trkpt>
      <trkpt lat="42.36491" lon="2.57249">
        <ele>1108</ele>
        <time>2021-06-20T01:11:05Z</time>
      </trkpt>
      <trkpt lat="42.36503" lon="2.57259">
        <ele>1105</ele>
        <time>2021-06-20T01:11:09Z</time>
      </trkpt>
      <trkpt lat="42.36517" lon="2.57263">
        <ele>1102</ele>
        <time>2021-06-20T01:11:12Z</time>
      </trkpt>
      <trkpt lat="42.36524" lon="2.57271">
        <ele>1101</ele>
        <time>2021-06-20T01:11:14Z</time>
      </trkpt>
      <trkpt lat="42.36532" lon="2.57274">
        <ele>1099</ele>
        <time>2021-06-20T01:11:16Z</time>
      </trkpt>
      <trkpt lat="42.36549" lon="2.57272">
        <ele>1097</ele>
        <time>2021-06-20T01:11:20Z</time>
      </trkpt>
      <trkpt lat="42.3657" lon="2.5728">
        <ele>1094</ele>
        <time>2021-06-20T01:11:25Z</time>
      </trkpt>
      <trkpt lat="42.36584" lon="2.57273">
        <ele>1092</ele>
        <time>2021-06-20T01:11:29Z</time>
      </trkpt>
      <trkpt lat="42.36596" lon="2.57272">
        <ele>1091</ele>
        <time>2021-06-20T01:11:31Z</time>
      </trkpt>
      <trkpt lat="42.36608" lon="2.57283">
        <ele>1091</ele>
        <time>2021-06-20T01:11:35Z</time>
      </trkpt>
      <trkpt lat="42.36606" lon="2.57294">
        <ele>1091</ele>
        <time>2021-06-20T01:11:37Z</time>
      </trkpt>
      <trkpt lat="42.36595" lon="2.57303">
        <ele>1091</ele>
        <time>2021-06-20T01:11:40Z</time>
      </trkpt>
      <trkpt lat="42.36564" lon="2.57321">
        <ele>1093</ele>
        <time>2021-06-20T01:11:48Z</time>
      </trkpt>
      <trkpt lat="42.36545" lon="2.57328">
        <ele>1095</ele>
        <time>2021-06-20T01:11:52Z</time>
      </trkpt>
      <trkpt lat="42.36514" lon="2.57328">
        <ele>1098</ele>
        <time>2021-06-20T01:12:00Z</time>
      </trkpt>
      <trkpt lat="42.36491" lon="2.57345">
        <ele>1099</ele>
        <time>2021-06-20T01:12:06Z</time>
      </trkpt>
      <trkpt lat="42.3647" lon="2.57381">
        <ele>1098</ele>
        <time>2021-06-20T01:12:14Z</time>
      </trkpt>
      <trkpt lat="42.36436" lon="2.57414">
        <ele>1099</ele>
        <time>2021-06-20T01:12:23Z</time>
      </trkpt>
      <trkpt lat="42.3643" lon="2.57427">
        <ele>1101</ele>
        <time>2021-06-20T01:12:26Z</time>
      </trkpt>
      <trkpt lat="42.36436" lon="2.57437">
        <ele>1102</ele>
        <time>2021-06-20T01:12:28Z</time>
      </trkpt>
      <trkpt lat="42.3645" lon="2.57441">
        <ele>1100</ele>
        <time>2021-06-20T01:12:32Z</time>
      </trkpt>
      <trkpt lat="42.36487" lon="2.57434">
        <ele>1092</ele>
        <time>2021-06-20T01:12:40Z</time>
      </trkpt>
      <trkpt lat="42.36512" lon="2.57425">
        <ele>1087</ele>
        <time>2021-06-20T01:12:46Z</time>
      </trkpt>
      <trkpt lat="42.3653" lon="2.57424">
        <ele>1084</ele>
        <time>2021-06-20T01:12:51Z</time>
      </trkpt>
      <trkpt lat="42.36569" lon="2.57437">
        <ele>1078</ele>
        <time>2021-06-20T01:13:00Z</time>
      </trkpt>
      <trkpt lat="42.36579" lon="2.57453">
        <ele>1076</ele>
        <time>2021-06-20T01:13:04Z</time>
      </trkpt>
      <trkpt lat="42.36582" lon="2.57476">
        <ele>1075</ele>
        <time>2021-06-20T01:13:08Z</time>
      </trkpt>
      <trkpt lat="42.36585" lon="2.57517">
        <ele>1074</ele>
        <time>2021-06-20T01:13:15Z</time>
      </trkpt>
      <trkpt lat="42.36584" lon="2.57559">
        <ele>1073</ele>
        <time>2021-06-20T01:13:22Z</time>
      </trkpt>
      <trkpt lat="42.36579" lon="2.57594">
        <ele>1074</ele>
        <time>2021-06-20T01:13:28Z</time>
      </trkpt>
      <trkpt lat="42.36562" lon="2.57616">
        <ele>1080</ele>
        <time>2021-06-20T01:13:34Z</time>
      </trkpt>
      <trkpt lat="42.36533" lon="2.5768">
        <ele>1084</ele>
        <time>2021-06-20T01:13:46Z</time>
      </trkpt>
      <trkpt lat="42.3653" lon="2.57715">
        <ele>1080</ele>
        <time>2021-06-20T01:13:53Z</time>
      </trkpt>
      <trkpt lat="42.36525" lon="2.5773">
        <ele>1078</ele>
        <time>2021-06-20T01:13:55Z</time>
      </trkpt>
      <trkpt lat="42.36525" lon="2.57752">
        <ele>1075</ele>
        <time>2021-06-20T01:13:59Z</time>
      </trkpt>
      <trkpt lat="42.36517" lon="2.57786">
        <ele>1071</ele>
        <time>2021-06-20T01:14:05Z</time>
      </trkpt>
      <trkpt lat="42.36517" lon="2.5781">
        <ele>1067</ele>
        <time>2021-06-20T01:14:10Z</time>
      </trkpt>
      <trkpt lat="42.3652" lon="2.57832">
        <ele>1063</ele>
        <time>2021-06-20T01:14:13Z</time>
      </trkpt>
      <trkpt lat="42.36528" lon="2.57846">
        <ele>1060</ele>
        <time>2021-06-20T01:14:16Z</time>
      </trkpt>
      <trkpt lat="42.36529" lon="2.57866">
        <ele>1059</ele>
        <time>2021-06-20T01:14:20Z</time>
      </trkpt>
      <trkpt lat="42.36483" lon="2.57892">
        <ele>1060</ele>
        <time>2021-06-20T01:14:32Z</time>
      </trkpt>
      <trkpt lat="42.36457" lon="2.57927">
        <ele>1057</ele>
        <time>2021-06-20T01:14:40Z</time>
      </trkpt>
      <trkpt lat="42.36434" lon="2.57947">
        <ele>1055</ele>
        <time>2021-06-20T01:14:46Z</time>
      </trkpt>
      <trkpt lat="42.36411" lon="2.57981">
        <ele>1051</ele>
        <time>2021-06-20T01:14:54Z</time>
      </trkpt>
      <trkpt lat="42.36391" lon="2.57996">
        <ele>1052</ele>
        <time>2021-06-20T01:15:00Z</time>
      </trkpt>
      <trkpt lat="42.36388" lon="2.58008">
        <ele>1050</ele>
        <time>2021-06-20T01:15:02Z</time>
      </trkpt>
      <trkpt lat="42.36392" lon="2.58028">
        <ele>1047</ele>
        <time>2021-06-20T01:15:06Z</time>
      </trkpt>
      <trkpt lat="42.36397" lon="2.58036">
        <ele>1046</ele>
        <time>2021-06-20T01:15:07Z</time>
      </trkpt>
      <trkpt lat="42.3641" lon="2.58038">
        <ele>1044</ele>
        <time>2021-06-20T01:15:10Z</time>
      </trkpt>
      <trkpt lat="42.36419" lon="2.58046">
        <ele>1043</ele>
        <time>2021-06-20T01:15:13Z</time>
      </trkpt>
      <trkpt lat="42.36423" lon="2.58057">
        <ele>1042</ele>
        <time>2021-06-20T01:15:15Z</time>
      </trkpt>
      <trkpt lat="42.36414" lon="2.58058">
        <ele>1041</ele>
        <time>2021-06-20T01:15:17Z</time>
      </trkpt>
      <trkpt lat="42.36397" lon="2.58066">
        <ele>1042</ele>
        <time>2021-06-20T01:15:21Z</time>
      </trkpt>
      <trkpt lat="42.36387" lon="2.58075">
        <ele>1042</ele>
        <time>2021-06-20T01:15:24Z</time>
      </trkpt>
      <trkpt lat="42.36386" lon="2.58084">
        <ele>1040</ele>
        <time>2021-06-20T01:15:26Z</time>
      </trkpt>
      <trkpt lat="42.36399" lon="2.58114">
        <ele>1036</ele>
        <time>2021-06-20T01:15:32Z</time>
      </trkpt>
      <trkpt lat="42.36402" lon="2.58142">
        <ele>1033</ele>
        <time>2021-06-20T01:15:37Z</time>
      </trkpt>
      <trkpt lat="42.36397" lon="2.58185">
        <ele>1029</ele>
        <time>2021-06-20T01:15:44Z</time>
      </trkpt>
      <trkpt lat="42.36399" lon="2.58208">
        <ele>1026</ele>
        <time>2021-06-20T01:15:48Z</time>
      </trkpt>
      <trkpt lat="42.36404" lon="2.58222">
        <ele>1025</ele>
        <time>2021-06-20T01:15:51Z</time>
      </trkpt>
      <trkpt lat="42.36413" lon="2.58227">
        <ele>1024</ele>
        <time>2021-06-20T01:15:53Z</time>
      </trkpt>
      <trkpt lat="42.36439" lon="2.58225">
        <ele>1027</ele>
        <time>2021-06-20T01:15:59Z</time>
      </trkpt>
      <trkpt lat="42.36448" lon="2.58229">
        <ele>1027</ele>
        <time>2021-06-20T01:16:01Z</time>
      </trkpt>
      <trkpt lat="42.36457" lon="2.58244">
        <ele>1026</ele>
        <time>2021-06-20T01:16:05Z</time>
      </trkpt>
      <trkpt lat="42.36456" lon="2.58351">
        <ele>1017</ele>
        <time>2021-06-20T01:16:23Z</time>
      </trkpt>
      <trkpt lat="42.36458" lon="2.58364">
        <ele>1016</ele>
        <time>2021-06-20T01:16:25Z</time>
      </trkpt>
      <trkpt lat="42.36466" lon="2.58383">
        <ele>1017</ele>
        <time>2021-06-20T01:16:29Z</time>
      </trkpt>
      <trkpt lat="42.36467" lon="2.58393">
        <ele>1016</ele>
        <time>2021-06-20T01:16:31Z</time>
      </trkpt>
      <trkpt lat="42.36462" lon="2.584">
        <ele>1015</ele>
        <time>2021-06-20T01:16:33Z</time>
      </trkpt>
      <trkpt lat="42.36427" lon="2.58411">
        <ele>1006</ele>
        <time>2021-06-20T01:16:41Z</time>
      </trkpt>
      <trkpt lat="42.36405" lon="2.58427">
        <ele>1003</ele>
        <time>2021-06-20T01:16:47Z</time>
      </trkpt>
      <trkpt lat="42.36393" lon="2.58445">
        <ele>1002</ele>
        <time>2021-06-20T01:16:51Z</time>
      </trkpt>
      <trkpt lat="42.36388" lon="2.58461">
        <ele>1001</ele>
        <time>2021-06-20T01:16:54Z</time>
      </trkpt>
      <trkpt lat="42.36393" lon="2.5852">
        <ele>998</ele>
        <time>2021-06-20T01:17:04Z</time>
      </trkpt>
      <trkpt lat="42.3639" lon="2.58553">
        <ele>996</ele>
        <time>2021-06-20T01:17:10Z</time>
      </trkpt>
      <trkpt lat="42.36365" lon="2.58616">
        <ele>987</ele>
        <time>2021-06-20T01:17:22Z</time>
      </trkpt>
      <trkpt lat="42.3636" lon="2.58638">
        <ele>985</ele>
        <time>2021-06-20T01:17:26Z</time>
      </trkpt>
      <trkpt lat="42.3636" lon="2.58653">
        <ele>984</ele>
        <time>2021-06-20T01:17:29Z</time>
      </trkpt>
      <trkpt lat="42.36364" lon="2.58668">
        <ele>983</ele>
        <time>2021-06-20T01:17:32Z</time>
      </trkpt>
      <trkpt lat="42.36373" lon="2.58687">
        <ele>982</ele>
        <time>2021-06-20T01:17:36Z</time>
      </trkpt>
      <trkpt lat="42.36397" lon="2.58706">
        <ele>982</ele>
        <time>2021-06-20T01:17:42Z</time>
      </trkpt>
      <trkpt lat="42.36406" lon="2.58718">
        <ele>981</ele>
        <time>2021-06-20T01:17:45Z</time>
      </trkpt>
      <trkpt lat="42.3641" lon="2.58728">
        <ele>979</ele>
        <time>2021-06-20T01:17:47Z</time>
      </trkpt>
      <trkpt lat="42.36409" lon="2.58822">
        <ele>965</ele>
        <time>2021-06-20T01:18:03Z</time>
      </trkpt>
      <trkpt lat="42.36413" lon="2.58853">
        <ele>959</ele>
        <time>2021-06-20T01:18:09Z</time>
      </trkpt>
      <trkpt lat="42.36422" lon="2.58881">
        <ele>955</ele>
        <time>2021-06-20T01:18:14Z</time>
      </trkpt>
      <trkpt lat="42.36445" lon="2.58905">
        <ele>959</ele>
        <time>2021-06-20T01:18:21Z</time>
      </trkpt>
      <trkpt lat="42.36448" lon="2.58913">
        <ele>958</ele>
        <time>2021-06-20T01:18:22Z</time>
      </trkpt>
      <trkpt lat="42.36449" lon="2.58943">
        <ele>954</ele>
        <time>2021-06-20T01:18:27Z</time>
      </trkpt>
      <trkpt lat="42.36452" lon="2.58952">
        <ele>953</ele>
        <time>2021-06-20T01:18:29Z</time>
      </trkpt>
      <trkpt lat="42.36466" lon="2.58974">
        <ele>956</ele>
        <time>2021-06-20T01:18:34Z</time>
      </trkpt>
      <trkpt lat="42.36467" lon="2.5898">
        <ele>956</ele>
        <time>2021-06-20T01:18:35Z</time>
      </trkpt>
      <trkpt lat="42.36466" lon="2.58987">
        <ele>955</ele>
        <time>2021-06-20T01:18:36Z</time>
      </trkpt>
      <trkpt lat="42.36453" lon="2.5901">
        <ele>946</ele>
        <time>2021-06-20T01:18:41Z</time>
      </trkpt>
      <trkpt lat="42.36448" lon="2.59026">
        <ele>944</ele>
        <time>2021-06-20T01:18:44Z</time>
      </trkpt>
      <trkpt lat="42.36423" lon="2.59153">
        <ele>928</ele>
        <time>2021-06-20T01:19:07Z</time>
      </trkpt>
      <trkpt lat="42.36421" lon="2.59249">
        <ele>919</ele>
        <time>2021-06-20T01:19:24Z</time>
      </trkpt>
      <trkpt lat="42.36423" lon="2.59318">
        <ele>912</ele>
        <time>2021-06-20T01:19:36Z</time>
      </trkpt>
      <trkpt lat="42.36426" lon="2.59344">
        <ele>911</ele>
        <time>2021-06-20T01:19:40Z</time>
      </trkpt>
      <trkpt lat="42.3643" lon="2.59363">
        <ele>910</ele>
        <time>2021-06-20T01:19:44Z</time>
      </trkpt>
      <trkpt lat="42.36437" lon="2.5938">
        <ele>911</ele>
        <time>2021-06-20T01:19:47Z</time>
      </trkpt>
      <trkpt lat="42.36449" lon="2.59399">
        <ele>914</ele>
        <time>2021-06-20T01:19:51Z</time>
      </trkpt>
      <trkpt lat="42.36446" lon="2.59415">
        <ele>910</ele>
        <time>2021-06-20T01:19:54Z</time>
      </trkpt>
      <trkpt lat="42.36432" lon="2.59441">
        <ele>900</ele>
        <time>2021-06-20T01:20:00Z</time>
      </trkpt>
      <trkpt lat="42.36432" lon="2.59455">
        <ele>899</ele>
        <time>2021-06-20T01:20:02Z</time>
      </trkpt>
      <trkpt lat="42.36441" lon="2.59485">
        <ele>900</ele>
        <time>2021-06-20T01:20:08Z</time>
      </trkpt>
      <trkpt lat="42.36447" lon="2.59494">
        <ele>902</ele>
        <time>2021-06-20T01:20:10Z</time>
      </trkpt>
      <trkpt lat="42.36462" lon="2.59508">
        <ele>906</ele>
        <time>2021-06-20T01:20:14Z</time>
      </trkpt>
      <trkpt lat="42.3646" lon="2.59524">
        <ele>903</ele>
        <time>2021-06-20T01:20:17Z</time>
      </trkpt>
      <trkpt lat="42.36449" lon="2.5954">
        <ele>896</ele>
        <time>2021-06-20T01:20:21Z</time>
      </trkpt>
      <trkpt lat="42.36446" lon="2.59559">
        <ele>892</ele>
        <time>2021-06-20T01:20:24Z</time>
      </trkpt>
      <trkpt lat="42.36444" lon="2.59586">
        <ele>888</ele>
        <time>2021-06-20T01:20:29Z</time>
      </trkpt>
      <trkpt lat="42.36447" lon="2.59642">
        <ele>879</ele>
        <time>2021-06-20T01:20:38Z</time>
      </trkpt>
      <trkpt lat="42.36455" lon="2.59665">
        <ele>878</ele>
        <time>2021-06-20T01:20:43Z</time>
      </trkpt>
      <trkpt lat="42.36482" lon="2.5968">
        <ele>885</ele>
        <time>2021-06-20T01:20:49Z</time>
      </trkpt>
      <trkpt lat="42.36488" lon="2.59686">
        <ele>886</ele>
        <time>2021-06-20T01:20:51Z</time>
      </trkpt>
      <trkpt lat="42.36492" lon="2.59696">
        <ele>885</ele>
        <time>2021-06-20T01:20:53Z</time>
      </trkpt>
      <trkpt lat="42.36489" lon="2.59708">
        <ele>882</ele>
        <time>2021-06-20T01:20:55Z</time>
      </trkpt>
      <trkpt lat="42.36473" lon="2.59732">
        <ele>873</ele>
        <time>2021-06-20T01:21:01Z</time>
      </trkpt>
      <trkpt lat="42.3647" lon="2.59753">
        <ele>869</ele>
        <time>2021-06-20T01:21:05Z</time>
      </trkpt>
      <trkpt lat="42.36474" lon="2.59779">
        <ele>867</ele>
        <time>2021-06-20T01:21:09Z</time>
      </trkpt>
      <trkpt lat="42.3648" lon="2.59785">
        <ele>868</ele>
        <time>2021-06-20T01:21:11Z</time>
      </trkpt>
      <trkpt lat="42.36503" lon="2.59785">
        <ele>875</ele>
        <time>2021-06-20T01:21:16Z</time>
      </trkpt>
      <trkpt lat="42.3651" lon="2.59792">
        <ele>876</ele>
        <time>2021-06-20T01:21:18Z</time>
      </trkpt>
      <trkpt lat="42.36512" lon="2.598">
        <ele>876</ele>
        <time>2021-06-20T01:21:20Z</time>
      </trkpt>
      <trkpt lat="42.36503" lon="2.59819">
        <ele>870</ele>
        <time>2021-06-20T01:21:24Z</time>
      </trkpt>
      <trkpt lat="42.36498" lon="2.59858">
        <ele>864</ele>
        <time>2021-06-20T01:21:31Z</time>
      </trkpt>
      <trkpt lat="42.36496" lon="2.59918">
        <ele>859</ele>
        <time>2021-06-20T01:21:41Z</time>
      </trkpt>
      <trkpt lat="42.3649" lon="2.59944">
        <ele>856</ele>
        <time>2021-06-20T01:21:46Z</time>
      </trkpt>
      <trkpt lat="42.36482" lon="2.5996">
        <ele>854</ele>
        <time>2021-06-20T01:21:49Z</time>
      </trkpt>
      <trkpt lat="42.36479" lon="2.5998">
        <ele>852</ele>
        <time>2021-06-20T01:21:52Z</time>
      </trkpt>
      <trkpt lat="42.36479" lon="2.60015">
        <ele>848</ele>
        <time>2021-06-20T01:21:58Z</time>
      </trkpt>
      <trkpt lat="42.3651" lon="2.60088">
        <ele>843</ele>
        <time>2021-06-20T01:22:13Z</time>
      </trkpt>
      <trkpt lat="42.36523" lon="2.60109">
        <ele>841</ele>
        <time>2021-06-20T01:22:18Z</time>
      </trkpt>
      <trkpt lat="42.3654" lon="2.60131">
        <ele>840</ele>
        <time>2021-06-20T01:22:23Z</time>
      </trkpt>
      <trkpt lat="42.36555" lon="2.6014">
        <ele>841</ele>
        <time>2021-06-20T01:22:27Z</time>
      </trkpt>
      <trkpt lat="42.36571" lon="2.60154">
        <ele>840</ele>
        <time>2021-06-20T01:22:31Z</time>
      </trkpt>
      <trkpt lat="42.36605" lon="2.6021">
        <ele>832</ele>
        <time>2021-06-20T01:22:44Z</time>
      </trkpt>
      <trkpt lat="42.36615" lon="2.60236">
        <ele>826</ele>
        <time>2021-06-20T01:22:49Z</time>
      </trkpt>
      <trkpt lat="42.36622" lon="2.60264">
        <ele>822</ele>
        <time>2021-06-20T01:22:54Z</time>
      </trkpt>
      <trkpt lat="42.36631" lon="2.60278">
        <ele>821</ele>
        <time>2021-06-20T01:22:57Z</time>
      </trkpt>
      <trkpt lat="42.36637" lon="2.60282">
        <ele>821</ele>
        <time>2021-06-20T01:22:59Z</time>
      </trkpt>
      <trkpt lat="42.3665" lon="2.60283">
        <ele>822</ele>
        <time>2021-06-20T01:23:02Z</time>
      </trkpt>
      <trkpt lat="42.36698" lon="2.60261">
        <ele>832</ele>
        <time>2021-06-20T01:23:14Z</time>
      </trkpt>
      <trkpt lat="42.36706" lon="2.60262">
        <ele>833</ele>
        <time>2021-06-20T01:23:16Z</time>
      </trkpt>
      <trkpt lat="42.36713" lon="2.60268">
        <ele>833</ele>
        <time>2021-06-20T01:23:18Z</time>
      </trkpt>
      <trkpt lat="42.36714" lon="2.60274">
        <ele>834</ele>
        <time>2021-06-20T01:23:19Z</time>
      </trkpt>
      <trkpt lat="42.36712" lon="2.60284">
        <ele>833</ele>
        <time>2021-06-20T01:23:20Z</time>
      </trkpt>
      <trkpt lat="42.36688" lon="2.60314">
        <ele>826</ele>
        <time>2021-06-20T01:23:28Z</time>
      </trkpt>
      <trkpt lat="42.36683" lon="2.60326">
        <ele>823</ele>
        <time>2021-06-20T01:23:30Z</time>
      </trkpt>
      <trkpt lat="42.36678" lon="2.6034">
        <ele>820</ele>
        <time>2021-06-20T01:23:33Z</time>
      </trkpt>
      <trkpt lat="42.3667" lon="2.60387">
        <ele>814</ele>
        <time>2021-06-20T01:23:41Z</time>
      </trkpt>
      <trkpt lat="42.36655" lon="2.60432">
        <ele>809</ele>
        <time>2021-06-20T01:23:50Z</time>
      </trkpt>
      <trkpt lat="42.36654" lon="2.60447">
        <ele>808</ele>
        <time>2021-06-20T01:23:53Z</time>
      </trkpt>
      <trkpt lat="42.36662" lon="2.60483">
        <ele>807</ele>
        <time>2021-06-20T01:23:59Z</time>
      </trkpt>
      <trkpt lat="42.36673" lon="2.60581">
        <ele>803</ele>
        <time>2021-06-20T01:24:16Z</time>
      </trkpt>
      <trkpt lat="42.36674" lon="2.60602">
        <ele>803</ele>
        <time>2021-06-20T01:24:20Z</time>
      </trkpt>
      <trkpt lat="42.36669" lon="2.60683">
        <ele>800</ele>
        <time>2021-06-20T01:24:34Z</time>
      </trkpt>
      <trkpt lat="42.3666" lon="2.60727">
        <ele>797</ele>
        <time>2021-06-20T01:24:42Z</time>
      </trkpt>
      <trkpt lat="42.36657" lon="2.60766">
        <ele>795</ele>
        <time>2021-06-20T01:24:48Z</time>
      </trkpt>
      <trkpt lat="42.36652" lon="2.60796">
        <ele>794</ele>
        <time>2021-06-20T01:24:54Z</time>
      </trkpt>
      <trkpt lat="42.36645" lon="2.60812">
        <ele>792</ele>
        <time>2021-06-20T01:24:57Z</time>
      </trkpt>
      <trkpt lat="42.36643" lon="2.60828">
        <ele>791</ele>
        <time>2021-06-20T01:25:00Z</time>
      </trkpt>
      <trkpt lat="42.36647" lon="2.60875">
        <ele>790</ele>
        <time>2021-06-20T01:25:08Z</time>
      </trkpt>
      <trkpt lat="42.36646" lon="2.60968">
        <ele>789</ele>
        <time>2021-06-20T01:25:24Z</time>
      </trkpt>
      <trkpt lat="42.36638" lon="2.61019">
        <ele>786</ele>
        <time>2021-06-20T01:25:33Z</time>
      </trkpt>
      <trkpt lat="42.36639" lon="2.61057">
        <ele>785</ele>
        <time>2021-06-20T01:25:40Z</time>
      </trkpt>
      <trkpt lat="42.36637" lon="2.61073">
        <ele>783</ele>
        <time>2021-06-20T01:25:42Z</time>
      </trkpt>
      <trkpt lat="42.36615" lon="2.61118">
        <ele>774</ele>
        <time>2021-06-20T01:25:52Z</time>
      </trkpt>
      <trkpt lat="42.36599" lon="2.61176">
        <ele>765</ele>
        <time>2021-06-20T01:26:02Z</time>
      </trkpt>
      <trkpt lat="42.36601" lon="2.61278">
        <ele>760</ele>
        <time>2021-06-20T01:26:20Z</time>
      </trkpt>
      <trkpt lat="42.36607" lon="2.61356">
        <ele>758</ele>
        <time>2021-06-20T01:26:33Z</time>
      </trkpt>
      <trkpt lat="42.36595" lon="2.61438">
        <ele>749</ele>
        <time>2021-06-20T01:26:48Z</time>
      </trkpt>
      <trkpt lat="42.36595" lon="2.6146">
        <ele>748</ele>
        <time>2021-06-20T01:26:52Z</time>
      </trkpt>
      <trkpt lat="42.36611" lon="2.61557">
        <ele>744</ele>
        <time>2021-06-20T01:27:09Z</time>
      </trkpt>
      <trkpt lat="42.36624" lon="2.61593">
        <ele>742</ele>
        <time>2021-06-20T01:27:16Z</time>
      </trkpt>
      <trkpt lat="42.36635" lon="2.61611">
        <ele>740</ele>
        <time>2021-06-20T01:27:20Z</time>
      </trkpt>
      <trkpt lat="42.36658" lon="2.61637">
        <ele>737</ele>
        <time>2021-06-20T01:27:27Z</time>
      </trkpt>
      <trkpt lat="42.36666" lon="2.61639">
        <ele>737</ele>
        <time>2021-06-20T01:27:29Z</time>
      </trkpt>
      <trkpt lat="42.36673" lon="2.61639">
        <ele>737</ele>
        <time>2021-06-20T01:27:30Z</time>
      </trkpt>
      <trkpt lat="42.36695" lon="2.61628">
        <ele>738</ele>
        <time>2021-06-20T01:27:36Z</time>
      </trkpt>
      <trkpt lat="42.36723" lon="2.61626">
        <ele>737</ele>
        <time>2021-06-20T01:27:42Z</time>
      </trkpt>
      <trkpt lat="42.36748" lon="2.61631">
        <ele>735</ele>
        <time>2021-06-20T01:27:48Z</time>
      </trkpt>
      <trkpt lat="42.36828" lon="2.61661">
        <ele>720</ele>
        <time>2021-06-20T01:28:08Z</time>
      </trkpt>
      <trkpt lat="42.36849" lon="2.61663">
        <ele>720</ele>
        <time>2021-06-20T01:28:13Z</time>
      </trkpt>
      <trkpt lat="42.36859" lon="2.61658">
        <ele>720</ele>
        <time>2021-06-20T01:28:15Z</time>
      </trkpt>
      <trkpt lat="42.3688" lon="2.61632">
        <ele>723</ele>
        <time>2021-06-20T01:28:22Z</time>
      </trkpt>
      <trkpt lat="42.36886" lon="2.61629">
        <ele>723</ele>
        <time>2021-06-20T01:28:23Z</time>
      </trkpt>
      <trkpt lat="42.36894" lon="2.61632">
        <ele>723</ele>
        <time>2021-06-20T01:28:25Z</time>
      </trkpt>
      <trkpt lat="42.36905" lon="2.61637">
        <ele>722</ele>
        <time>2021-06-20T01:28:28Z</time>
      </trkpt>
      <trkpt lat="42.3696" lon="2.61708">
        <ele>725</ele>
        <time>2021-06-20T01:28:46Z</time>
      </trkpt>
      <trkpt lat="42.36999" lon="2.61741">
        <ele>724</ele>
        <time>2021-06-20T01:28:56Z</time>
      </trkpt>
      <trkpt lat="42.3701" lon="2.61745">
        <ele>723</ele>
        <time>2021-06-20T01:28:59Z</time>
      </trkpt>
      <trkpt lat="42.37022" lon="2.61746">
        <ele>722</ele>
        <time>2021-06-20T01:29:02Z</time>
      </trkpt>
      <trkpt lat="42.37087" lon="2.61731">
        <ele>726</ele>
        <time>2021-06-20T01:29:17Z</time>
      </trkpt>
      <trkpt lat="42.37105" lon="2.61734">
        <ele>725</ele>
        <time>2021-06-20T01:29:21Z</time>
      </trkpt>
      <trkpt lat="42.37125" lon="2.61745">
        <ele>722</ele>
        <time>2021-06-20T01:29:26Z</time>
      </trkpt>
      <trkpt lat="42.37141" lon="2.61775">
        <ele>718</ele>
        <time>2021-06-20T01:29:33Z</time>
      </trkpt>
      <trkpt lat="42.37147" lon="2.61782">
        <ele>717</ele>
        <time>2021-06-20T01:29:35Z</time>
      </trkpt>
      <trkpt lat="42.37213" lon="2.61812">
        <ele>709</ele>
        <time>2021-06-20T01:29:51Z</time>
      </trkpt>
      <trkpt lat="42.37238" lon="2.61812">
        <ele>709</ele>
        <time>2021-06-20T01:29:57Z</time>
      </trkpt>
      <trkpt lat="42.37263" lon="2.61865">
        <ele>702</ele>
        <time>2021-06-20T01:30:08Z</time>
      </trkpt>
      <trkpt lat="42.37279" lon="2.61881">
        <ele>701</ele>
        <time>2021-06-20T01:30:12Z</time>
      </trkpt>
      <trkpt lat="42.37289" lon="2.61882">
        <ele>700</ele>
        <time>2021-06-20T01:30:15Z</time>
      </trkpt>
      <trkpt lat="42.37298" lon="2.61878">
        <ele>700</ele>
        <time>2021-06-20T01:30:17Z</time>
      </trkpt>
      <trkpt lat="42.37333" lon="2.61854">
        <ele>702</ele>
        <time>2021-06-20T01:30:26Z</time>
      </trkpt>
      <trkpt lat="42.37351" lon="2.61847">
        <ele>703</ele>
        <time>2021-06-20T01:30:30Z</time>
      </trkpt>
      <trkpt lat="42.3738" lon="2.61853">
        <ele>700</ele>
        <time>2021-06-20T01:30:37Z</time>
      </trkpt>
      <trkpt lat="42.37401" lon="2.61862">
        <ele>698</ele>
        <time>2021-06-20T01:30:42Z</time>
      </trkpt>
      <trkpt lat="42.37409" lon="2.61869">
        <ele>696</ele>
        <time>2021-06-20T01:30:45Z</time>
      </trkpt>
      <trkpt lat="42.37421" lon="2.61904">
        <ele>689</ele>
        <time>2021-06-20T01:30:51Z</time>
      </trkpt>
      <trkpt lat="42.3743" lon="2.61921">
        <ele>687</ele>
        <time>2021-06-20T01:30:55Z</time>
      </trkpt>
      <trkpt lat="42.37439" lon="2.61925">
        <ele>687</ele>
        <time>2021-06-20T01:30:57Z</time>
      </trkpt>
      <trkpt lat="42.3745" lon="2.61918">
        <ele>687</ele>
        <time>2021-06-20T01:31:00Z</time>
      </trkpt>
      <trkpt lat="42.3746" lon="2.61899">
        <ele>691</ele>
        <time>2021-06-20T01:31:04Z</time>
      </trkpt>
      <trkpt lat="42.37466" lon="2.61896">
        <ele>691</ele>
        <time>2021-06-20T01:31:05Z</time>
      </trkpt>
      <trkpt lat="42.37471" lon="2.61898">
        <ele>691</ele>
        <time>2021-06-20T01:31:07Z</time>
      </trkpt>
      <trkpt lat="42.37489" lon="2.61929">
        <ele>687</ele>
        <time>2021-06-20T01:31:13Z</time>
      </trkpt>
      <trkpt lat="42.37498" lon="2.61935">
        <ele>686</ele>
        <time>2021-06-20T01:31:16Z</time>
      </trkpt>
      <trkpt lat="42.37509" lon="2.61934">
        <ele>685</ele>
        <time>2021-06-20T01:31:18Z</time>
      </trkpt>
      <trkpt lat="42.37534" lon="2.61926">
        <ele>684</ele>
        <time>2021-06-20T01:31:24Z</time>
      </trkpt>
      <trkpt lat="42.37562" lon="2.61922">
        <ele>682</ele>
        <time>2021-06-20T01:31:31Z</time>
      </trkpt>
      <trkpt lat="42.3759" lon="2.61894">
        <ele>687</ele>
        <time>2021-06-20T01:31:39Z</time>
      </trkpt>
      <trkpt lat="42.37598" lon="2.61889">
        <ele>688</ele>
        <time>2021-06-20T01:31:41Z</time>
      </trkpt>
      <trkpt lat="42.37643" lon="2.61904">
        <ele>684</ele>
        <time>2021-06-20T01:31:52Z</time>
      </trkpt>
      <trkpt lat="42.37682" lon="2.61907">
        <ele>683</ele>
        <time>2021-06-20T01:32:01Z</time>
      </trkpt>
      <trkpt lat="42.37695" lon="2.61912">
        <ele>682</ele>
        <time>2021-06-20T01:32:04Z</time>
      </trkpt>
      <trkpt lat="42.37712" lon="2.61922">
        <ele>680</ele>
        <time>2021-06-20T01:32:09Z</time>
      </trkpt>
      <trkpt lat="42.37742" lon="2.61956">
        <ele>675</ele>
        <time>2021-06-20T01:32:18Z</time>
      </trkpt>
      <trkpt lat="42.37682" lon="2.61974">
        <ele>676</ele>
        <time>2021-06-20T01:32:32Z</time>
      </trkpt>
      <trkpt lat="42.37658" lon="2.61975">
        <ele>678</ele>
        <time>2021-06-20T01:32:38Z</time>
      </trkpt>
      <trkpt lat="42.37679" lon="2.6207">
        <ele>679</ele>
        <time>2021-06-20T01:32:55Z</time>
      </trkpt>
      <trkpt lat="42.37688" lon="2.62071">
        <ele>679</ele>
        <time>2021-06-20T01:32:57Z</time>
      </trkpt>
      <trkpt lat="42.37723" lon="2.62053">
        <ele>677</ele>
        <time>2021-06-20T01:33:06Z</time>
      </trkpt>
      <trkpt lat="42.37732" lon="2.62055">
        <ele>677</ele>
        <time>2021-06-20T01:33:08Z</time>
      </trkpt>
      <trkpt lat="42.3774" lon="2.62062">
        <ele>677</ele>
        <time>2021-06-20T01:33:10Z</time>
      </trkpt>
      <trkpt lat="42.37782" lon="2.62155">
        <ele>688</ele>
        <time>2021-06-20T01:33:29Z</time>
      </trkpt>
      <trkpt lat="42.37804" lon="2.62165">
        <ele>690</ele>
        <time>2021-06-20T01:33:34Z</time>
      </trkpt>
      <trkpt lat="42.37829" lon="2.62167">
        <ele>692</ele>
        <time>2021-06-20T01:33:40Z</time>
      </trkpt>
      <trkpt lat="42.37869" lon="2.62149">
        <ele>692</ele>
        <time>2021-06-20T01:33:50Z</time>
      </trkpt>
      <trkpt lat="42.37881" lon="2.62155">
        <ele>695</ele>
        <time>2021-06-20T01:33:53Z</time>
      </trkpt>
      <trkpt lat="42.37894" lon="2.62156">
        <ele>696</ele>
        <time>2021-06-20T01:33:56Z</time>
      </trkpt>
      <trkpt lat="42.37905" lon="2.62128">
        <ele>692</ele>
        <time>2021-06-20T01:34:01Z</time>
      </trkpt>
      <trkpt lat="42.37913" lon="2.6212">
        <ele>692</ele>
        <time>2021-06-20T01:34:04Z</time>
      </trkpt>
      <trkpt lat="42.37925" lon="2.62117">
        <ele>692</ele>
        <time>2021-06-20T01:34:07Z</time>
      </trkpt>
      <trkpt lat="42.37944" lon="2.62118">
        <ele>695</ele>
        <time>2021-06-20T01:34:11Z</time>
      </trkpt>
      <trkpt lat="42.37975" lon="2.62131">
        <ele>701</ele>
        <time>2021-06-20T01:34:19Z</time>
      </trkpt>
      <trkpt lat="42.37984" lon="2.62126">
        <ele>701</ele>
        <time>2021-06-20T01:34:21Z</time>
      </trkpt>
      <trkpt lat="42.37986" lon="2.62103">
        <ele>697</ele>
        <time>2021-06-20T01:34:25Z</time>
      </trkpt>
      <trkpt lat="42.37997" lon="2.6208">
        <ele>693</ele>
        <time>2021-06-20T01:34:30Z</time>
      </trkpt>
      <trkpt lat="42.38022" lon="2.62054">
        <ele>693</ele>
        <time>2021-06-20T01:34:37Z</time>
      </trkpt>
      <trkpt lat="42.38054" lon="2.62045">
        <ele>697</ele>
        <time>2021-06-20T01:34:45Z</time>
      </trkpt>
      <trkpt lat="42.38059" lon="2.62038">
        <ele>697</ele>
        <time>2021-06-20T01:34:46Z</time>
      </trkpt>
      <trkpt lat="42.3806" lon="2.62029">
        <ele>696</ele>
        <time>2021-06-20T01:34:48Z</time>
      </trkpt>
      <trkpt lat="42.38049" lon="2.62014">
        <ele>692</ele>
        <time>2021-06-20T01:34:51Z</time>
      </trkpt>
      <trkpt lat="42.3802" lon="2.61987">
        <ele>682</ele>
        <time>2021-06-20T01:35:00Z</time>
      </trkpt>
      <trkpt lat="42.38018" lon="2.61976">
        <ele>681</ele>
        <time>2021-06-20T01:35:02Z</time>
      </trkpt>
      <trkpt lat="42.3802" lon="2.61956">
        <ele>679</ele>
        <time>2021-06-20T01:35:05Z</time>
      </trkpt>
      <trkpt lat="42.38038" lon="2.61929">
        <ele>681</ele>
        <time>2021-06-20T01:35:11Z</time>
      </trkpt>
      <trkpt lat="42.38063" lon="2.61911">
        <ele>685</ele>
        <time>2021-06-20T01:35:18Z</time>
      </trkpt>
      <trkpt lat="42.38079" lon="2.61905">
        <ele>688</ele>
        <time>2021-06-20T01:35:22Z</time>
      </trkpt>
      <trkpt lat="42.38147" lon="2.6192">
        <ele>696</ele>
        <time>2021-06-20T01:35:38Z</time>
      </trkpt>
      <trkpt lat="42.38225" lon="2.61979">
        <ele>708</ele>
        <time>2021-06-20T01:35:59Z</time>
      </trkpt>
      <trkpt lat="42.38232" lon="2.61991">
        <ele>710</ele>
        <time>2021-06-20T01:36:01Z</time>
      </trkpt>
      <trkpt lat="42.38245" lon="2.62024">
        <ele>716</ele>
        <time>2021-06-20T01:36:08Z</time>
      </trkpt>
      <trkpt lat="42.38258" lon="2.62037">
        <ele>720</ele>
        <time>2021-06-20T01:36:12Z</time>
      </trkpt>
      <trkpt lat="42.38268" lon="2.62037">
        <ele>722</ele>
        <time>2021-06-20T01:36:14Z</time>
      </trkpt>
      <trkpt lat="42.383" lon="2.62018">
        <ele>723</ele>
        <time>2021-06-20T01:36:22Z</time>
      </trkpt>
      <trkpt lat="42.38312" lon="2.62014">
        <ele>724</ele>
        <time>2021-06-20T01:36:25Z</time>
      </trkpt>
      <trkpt lat="42.38332" lon="2.62023">
        <ele>729</ele>
        <time>2021-06-20T01:36:30Z</time>
      </trkpt>
      <trkpt lat="42.38344" lon="2.62038">
        <ele>729</ele>
        <time>2021-06-20T01:36:34Z</time>
      </trkpt>
      <trkpt lat="42.38347" lon="2.6205">
        <ele>730</ele>
        <time>2021-06-20T01:36:36Z</time>
      </trkpt>
      <trkpt lat="42.38322" lon="2.62065">
        <ele>734</ele>
        <time>2021-06-20T01:36:42Z</time>
      </trkpt>
      <trkpt lat="42.38299" lon="2.62096">
        <ele>736</ele>
        <time>2021-06-20T01:36:50Z</time>
      </trkpt>
      <trkpt lat="42.38298" lon="2.6212">
        <ele>738</ele>
        <time>2021-06-20T01:36:54Z</time>
      </trkpt>
      <trkpt lat="42.38292" lon="2.62145">
        <ele>741</ele>
        <time>2021-06-20T01:36:59Z</time>
      </trkpt>
      <trkpt lat="42.38269" lon="2.6221">
        <ele>749</ele>
        <time>2021-06-20T01:37:11Z</time>
      </trkpt>
      <trkpt lat="42.38263" lon="2.62239">
        <ele>754</ele>
        <time>2021-06-20T01:37:16Z</time>
      </trkpt>
      <trkpt lat="42.38252" lon="2.62333">
        <ele>765</ele>
        <time>2021-06-20T01:37:33Z</time>
      </trkpt>
      <trkpt lat="42.38218" lon="2.62382">
        <ele>765</ele>
        <time>2021-06-20T01:37:44Z</time>
      </trkpt>
      <trkpt lat="42.38212" lon="2.62404">
        <ele>766</ele>
        <time>2021-06-20T01:37:48Z</time>
      </trkpt>
      <trkpt lat="42.38212" lon="2.62426">
        <ele>767</ele>
        <time>2021-06-20T01:37:52Z</time>
      </trkpt>
      <trkpt lat="42.38216" lon="2.62448">
        <ele>768</ele>
        <time>2021-06-20T01:37:56Z</time>
      </trkpt>
      <trkpt lat="42.38237" lon="2.62512">
        <ele>771</ele>
        <time>2021-06-20T01:38:08Z</time>
      </trkpt>
      <trkpt lat="42.3824" lon="2.6254">
        <ele>773</ele>
        <time>2021-06-20T01:38:13Z</time>
      </trkpt>
      <trkpt lat="42.38239" lon="2.62565">
        <ele>775</ele>
        <time>2021-06-20T01:38:17Z</time>
      </trkpt>
      <trkpt lat="42.3825" lon="2.62606">
        <ele>779</ele>
        <time>2021-06-20T01:38:25Z</time>
      </trkpt>
      <trkpt lat="42.38246" lon="2.62624">
        <ele>780</ele>
        <time>2021-06-20T01:38:28Z</time>
      </trkpt>
      <trkpt lat="42.38224" lon="2.6265">
        <ele>781</ele>
        <time>2021-06-20T01:38:35Z</time>
      </trkpt>
      <trkpt lat="42.38224" lon="2.62671">
        <ele>783</ele>
        <time>2021-06-20T01:38:39Z</time>
      </trkpt>
      <trkpt lat="42.38264" lon="2.62777">
        <ele>799</ele>
        <time>2021-06-20T01:38:59Z</time>
      </trkpt>
      <trkpt lat="42.38275" lon="2.62851">
        <ele>808</ele>
        <time>2021-06-20T01:39:12Z</time>
      </trkpt>
      <trkpt lat="42.38269" lon="2.62881">
        <ele>810</ele>
        <time>2021-06-20T01:39:17Z</time>
      </trkpt>
      <trkpt lat="42.3825" lon="2.62927">
        <ele>813</ele>
        <time>2021-06-20T01:39:27Z</time>
      </trkpt>
      <trkpt lat="42.38228" lon="2.62969">
        <ele>814</ele>
        <time>2021-06-20T01:39:35Z</time>
      </trkpt>
      <trkpt lat="42.38186" lon="2.63019">
        <ele>818</ele>
        <time>2021-06-20T01:39:48Z</time>
      </trkpt>
      <trkpt lat="42.38152" lon="2.6307">
        <ele>820</ele>
        <time>2021-06-20T01:40:00Z</time>
      </trkpt>
      <trkpt lat="42.38128" lon="2.631">
        <ele>825</ele>
        <time>2021-06-20T01:40:08Z</time>
      </trkpt>
      <trkpt lat="42.38091" lon="2.63127">
        <ele>832</ele>
        <time>2021-06-20T01:40:18Z</time>
      </trkpt>
      <trkpt lat="42.38026" lon="2.63166">
        <ele>841</ele>
        <time>2021-06-20T01:40:34Z</time>
      </trkpt>
      <trkpt lat="42.38" lon="2.63207">
        <ele>847</ele>
        <time>2021-06-20T01:40:44Z</time>
      </trkpt>
      <trkpt lat="42.37991" lon="2.63233">
        <ele>850</ele>
        <time>2021-06-20T01:40:49Z</time>
      </trkpt>
      <trkpt lat="42.3797" lon="2.63252">
        <ele>857</ele>
        <time>2021-06-20T01:40:55Z</time>
      </trkpt>
      <trkpt lat="42.37949" lon="2.63261">
        <ele>864</ele>
        <time>2021-06-20T01:41:00Z</time>
      </trkpt>
      <trkpt lat="42.37936" lon="2.63274">
        <ele>869</ele>
        <time>2021-06-20T01:41:03Z</time>
      </trkpt>
      <trkpt lat="42.37936" lon="2.63286">
        <ele>869</ele>
        <time>2021-06-20T01:41:06Z</time>
      </trkpt>
      <trkpt lat="42.37948" lon="2.63313">
        <ele>867</ele>
        <time>2021-06-20T01:41:11Z</time>
      </trkpt>
      <trkpt lat="42.3795" lon="2.63336">
        <ele>868</ele>
        <time>2021-06-20T01:41:15Z</time>
      </trkpt>
      <trkpt lat="42.37945" lon="2.63384">
        <ele>876</ele>
        <time>2021-06-20T01:41:23Z</time>
      </trkpt>
      <trkpt lat="42.37935" lon="2.63422">
        <ele>883</ele>
        <time>2021-06-20T01:41:30Z</time>
      </trkpt>
      <trkpt lat="42.37935" lon="2.63435">
        <ele>886</ele>
        <time>2021-06-20T01:41:33Z</time>
      </trkpt>
      <trkpt lat="42.37947" lon="2.63456">
        <ele>887</ele>
        <time>2021-06-20T01:41:37Z</time>
      </trkpt>
      <trkpt lat="42.38012" lon="2.63479">
        <ele>882</ele>
        <time>2021-06-20T01:41:53Z</time>
      </trkpt>
      <trkpt lat="42.38026" lon="2.63517">
        <ele>885</ele>
        <time>2021-06-20T01:42:00Z</time>
      </trkpt>
      <trkpt lat="42.38025" lon="2.6355">
        <ele>888</ele>
        <time>2021-06-20T01:42:06Z</time>
      </trkpt>
      <trkpt lat="42.38008" lon="2.63597">
        <ele>898</ele>
        <time>2021-06-20T01:42:15Z</time>
      </trkpt>
      <trkpt lat="42.38004" lon="2.63627">
        <ele>900</ele>
        <time>2021-06-20T01:42:20Z</time>
      </trkpt>
      <trkpt lat="42.37983" lon="2.6366">
        <ele>907</ele>
        <time>2021-06-20T01:42:28Z</time>
      </trkpt>
      <trkpt lat="42.37979" lon="2.63679">
        <ele>909</ele>
        <time>2021-06-20T01:42:31Z</time>
      </trkpt>
      <trkpt lat="42.3799" lon="2.63712">
        <ele>909</ele>
        <time>2021-06-20T01:42:37Z</time>
      </trkpt>
      <trkpt lat="42.37989" lon="2.63732">
        <ele>911</ele>
        <time>2021-06-20T01:42:41Z</time>
      </trkpt>
      <trkpt lat="42.38007" lon="2.63777">
        <ele>906</ele>
        <time>2021-06-20T01:42:50Z</time>
      </trkpt>
      <trkpt lat="42.38012" lon="2.63825">
        <ele>907</ele>
        <time>2021-06-20T01:42:58Z</time>
      </trkpt>
      <trkpt lat="42.38012" lon="2.63854">
        <ele>906</ele>
        <time>2021-06-20T01:43:03Z</time>
      </trkpt>
      <trkpt lat="42.38001" lon="2.63891">
        <ele>908</ele>
        <time>2021-06-20T01:43:10Z</time>
      </trkpt>
      <trkpt lat="42.37998" lon="2.63915">
        <ele>907</ele>
        <time>2021-06-20T01:43:14Z</time>
      </trkpt>
      <trkpt lat="42.37988" lon="2.63949">
        <ele>908</ele>
        <time>2021-06-20T01:43:20Z</time>
      </trkpt>
      <trkpt lat="42.37956" lon="2.6402">
        <ele>910</ele>
        <time>2021-06-20T01:43:35Z</time>
      </trkpt>
      <trkpt lat="42.37951" lon="2.64042">
        <ele>910</ele>
        <time>2021-06-20T01:43:39Z</time>
      </trkpt>
      <trkpt lat="42.37962" lon="2.64057">
        <ele>909</ele>
        <time>2021-06-20T01:43:42Z</time>
      </trkpt>
      <trkpt lat="42.38004" lon="2.64084">
        <ele>908</ele>
        <time>2021-06-20T01:43:53Z</time>
      </trkpt>
      <trkpt lat="42.38022" lon="2.64099">
        <ele>912</ele>
        <time>2021-06-20T01:43:58Z</time>
      </trkpt>
      <trkpt lat="42.38026" lon="2.64107">
        <ele>914</ele>
        <time>2021-06-20T01:44:00Z</time>
      </trkpt>
      <trkpt lat="42.38029" lon="2.64104">
        <ele>913</ele>
        <time>2021-06-20T01:44:01Z</time>
      </trkpt>
      <trkpt lat="42.38035" lon="2.64108">
        <ele>915</ele>
        <time>2021-06-20T01:44:02Z</time>
      </trkpt>
      <trkpt lat="42.38033" lon="2.64115">
        <ele>916</ele>
        <time>2021-06-20T01:44:03Z</time>
      </trkpt>
      <trkpt lat="42.38014" lon="2.64137">
        <ele>917</ele>
        <time>2021-06-20T01:44:09Z</time>
      </trkpt>
      <trkpt lat="42.37995" lon="2.64189">
        <ele>920</ele>
        <time>2021-06-20T01:44:19Z</time>
      </trkpt>
      <trkpt lat="42.37996" lon="2.64192">
        <ele>921</ele>
        <time>2021-06-20T01:44:20Z</time>
      </trkpt>
      <trkpt lat="42.38046" lon="2.64208">
        <ele>932</ele>
        <time>2021-06-20T01:44:32Z</time>
      </trkpt>
      <trkpt lat="42.38079" lon="2.64213">
        <ele>939</ele>
        <time>2021-06-20T01:44:40Z</time>
      </trkpt>
      <trkpt lat="42.381" lon="2.64234">
        <ele>950</ele>
        <time>2021-06-20T01:44:46Z</time>
      </trkpt>
      <trkpt lat="42.38114" lon="2.64244">
        <ele>957</ele>
        <time>2021-06-20T01:44:49Z</time>
      </trkpt>
      <trkpt lat="42.38132" lon="2.64214">
        <ele>956</ele>
        <time>2021-06-20T01:44:56Z</time>
      </trkpt>
      <trkpt lat="42.38159" lon="2.64188">
        <ele>958</ele>
        <time>2021-06-20T01:45:04Z</time>
      </trkpt>
      <trkpt lat="42.38187" lon="2.6418">
        <ele>966</ele>
        <time>2021-06-20T01:45:11Z</time>
      </trkpt>
      <trkpt lat="42.38212" lon="2.64159">
        <ele>969</ele>
        <time>2021-06-20T01:45:17Z</time>
      </trkpt>
      <trkpt lat="42.38232" lon="2.64094">
        <ele>961</ele>
        <time>2021-06-20T01:45:30Z</time>
      </trkpt>
      <trkpt lat="42.38243" lon="2.64078">
        <ele>961</ele>
        <time>2021-06-20T01:45:33Z</time>
      </trkpt>
      <trkpt lat="42.38251" lon="2.6408">
        <ele>964</ele>
        <time>2021-06-20T01:45:35Z</time>
      </trkpt>
      <trkpt lat="42.38251" lon="2.6409">
        <ele>967</ele>
        <time>2021-06-20T01:45:37Z</time>
      </trkpt>
      <trkpt lat="42.38241" lon="2.64106">
        <ele>967</ele>
        <time>2021-06-20T01:45:41Z</time>
      </trkpt>
      <trkpt lat="42.38229" lon="2.64177">
        <ele>980</ele>
        <time>2021-06-20T01:45:53Z</time>
      </trkpt>
      <trkpt lat="42.3819" lon="2.6422">
        <ele>978</ele>
        <time>2021-06-20T01:46:05Z</time>
      </trkpt>
      <trkpt lat="42.38178" lon="2.64237">
        <ele>978</ele>
        <time>2021-06-20T01:46:09Z</time>
      </trkpt>
      <trkpt lat="42.38166" lon="2.64268">
        <ele>978</ele>
        <time>2021-06-20T01:46:15Z</time>
      </trkpt>
      <trkpt lat="42.38165" lon="2.64295">
        <ele>980</ele>
        <time>2021-06-20T01:46:20Z</time>
      </trkpt>
      <trkpt lat="42.38168" lon="2.64384">
        <ele>986</ele>
        <time>2021-06-20T01:46:35Z</time>
      </trkpt>
      <trkpt lat="42.38175" lon="2.64463">
        <ele>991</ele>
        <time>2021-06-20T01:46:49Z</time>
      </trkpt>
      <trkpt lat="42.38181" lon="2.64585">
        <ele>996</ele>
        <time>2021-06-20T01:47:10Z</time>
      </trkpt>
      <trkpt lat="42.38189" lon="2.64641">
        <ele>996</ele>
        <time>2021-06-20T01:47:20Z</time>
      </trkpt>
      <trkpt lat="42.38191" lon="2.64689">
        <ele>995</ele>
        <time>2021-06-20T01:47:28Z</time>
      </trkpt>
      <trkpt lat="42.38203" lon="2.64769">
        <ele>1001</ele>
        <time>2021-06-20T01:47:42Z</time>
      </trkpt>
      <trkpt lat="42.38195" lon="2.64813">
        <ele>997</ele>
        <time>2021-06-20T01:47:50Z</time>
      </trkpt>
      <trkpt lat="42.382" lon="2.64831">
        <ele>1000</ele>
        <time>2021-06-20T01:47:53Z</time>
      </trkpt>
      <trkpt lat="42.38205" lon="2.64874">
        <ele>1004</ele>
        <time>2021-06-20T01:48:01Z</time>
      </trkpt>
      <trkpt lat="42.38217" lon="2.64923">
        <ele>1011</ele>
        <time>2021-06-20T01:48:10Z</time>
      </trkpt>
      <trkpt lat="42.38213" lon="2.6495">
        <ele>1009</ele>
        <time>2021-06-20T01:48:14Z</time>
      </trkpt>
      <trkpt lat="42.38217" lon="2.64993">
        <ele>1011</ele>
        <time>2021-06-20T01:48:22Z</time>
      </trkpt>
      <trkpt lat="42.38234" lon="2.65027">
        <ele>1018</ele>
        <time>2021-06-20T01:48:29Z</time>
      </trkpt>
      <trkpt lat="42.38231" lon="2.65046">
        <ele>1016</ele>
        <time>2021-06-20T01:48:32Z</time>
      </trkpt>
      <trkpt lat="42.38242" lon="2.65114">
        <ele>1018</ele>
        <time>2021-06-20T01:48:44Z</time>
      </trkpt>
      <trkpt lat="42.38249" lon="2.65133">
        <ele>1019</ele>
        <time>2021-06-20T01:48:48Z</time>
      </trkpt>
      <trkpt lat="42.38265" lon="2.65137">
        <ele>1024</ele>
        <time>2021-06-20T01:48:52Z</time>
      </trkpt>
      <trkpt lat="42.38284" lon="2.65153">
        <ele>1029</ele>
        <time>2021-06-20T01:48:57Z</time>
      </trkpt>
      <trkpt lat="42.38308" lon="2.65183">
        <ele>1036</ele>
        <time>2021-06-20T01:49:05Z</time>
      </trkpt>
      <trkpt lat="42.38307" lon="2.65221">
        <ele>1038</ele>
        <time>2021-06-20T01:49:11Z</time>
      </trkpt>
      <trkpt lat="42.38327" lon="2.65267">
        <ele>1045</ele>
        <time>2021-06-20T01:49:20Z</time>
      </trkpt>
      <trkpt lat="42.38353" lon="2.65235">
        <ele>1050</ele>
        <time>2021-06-20T01:49:29Z</time>
      </trkpt>
      <trkpt lat="42.38361" lon="2.65297">
        <ele>1051</ele>
        <time>2021-06-20T01:49:39Z</time>
      </trkpt>
      <trkpt lat="42.38378" lon="2.65293">
        <ele>1054</ele>
        <time>2021-06-20T01:49:43Z</time>
      </trkpt>
      <trkpt lat="42.38395" lon="2.65236">
        <ele>1058</ele>
        <time>2021-06-20T01:49:54Z</time>
      </trkpt>
      <trkpt lat="42.3842" lon="2.65179">
        <ele>1063</ele>
        <time>2021-06-20T01:50:05Z</time>
      </trkpt>
      <trkpt lat="42.38426" lon="2.65155">
        <ele>1064</ele>
        <time>2021-06-20T01:50:10Z</time>
      </trkpt>
      <trkpt lat="42.38437" lon="2.6513">
        <ele>1066</ele>
        <time>2021-06-20T01:50:15Z</time>
      </trkpt>
      <trkpt lat="42.38442" lon="2.65103">
        <ele>1067</ele>
        <time>2021-06-20T01:50:20Z</time>
      </trkpt>
      <trkpt lat="42.38469" lon="2.65081">
        <ele>1069</ele>
        <time>2021-06-20T01:50:27Z</time>
      </trkpt>
      <trkpt lat="42.38483" lon="2.65082">
        <ele>1070</ele>
        <time>2021-06-20T01:50:30Z</time>
      </trkpt>
      <trkpt lat="42.38511" lon="2.65067">
        <ele>1072</ele>
        <time>2021-06-20T01:50:37Z</time>
      </trkpt>
      <trkpt lat="42.38538" lon="2.65156">
        <ele>1077</ele>
        <time>2021-06-20T01:50:54Z</time>
      </trkpt>
      <trkpt lat="42.38531" lon="2.65163">
        <ele>1077</ele>
        <time>2021-06-20T01:50:56Z</time>
      </trkpt>
      <trkpt lat="42.38527" lon="2.65173">
        <ele>1077</ele>
        <time>2021-06-20T01:50:58Z</time>
      </trkpt>
      <trkpt lat="42.38512" lon="2.6519">
        <ele>1075</ele>
        <time>2021-06-20T01:51:02Z</time>
      </trkpt>
      <trkpt lat="42.38506" lon="2.65201">
        <ele>1074</ele>
        <time>2021-06-20T01:51:05Z</time>
      </trkpt>
      <trkpt lat="42.3847" lon="2.65228">
        <ele>1069</ele>
        <time>2021-06-20T01:51:14Z</time>
      </trkpt>
      <trkpt lat="42.38452" lon="2.65234">
        <ele>1067</ele>
        <time>2021-06-20T01:51:19Z</time>
      </trkpt>
      <trkpt lat="42.38431" lon="2.65263">
        <ele>1063</ele>
        <time>2021-06-20T01:51:26Z</time>
      </trkpt>
      <trkpt lat="42.38414" lon="2.65306">
        <ele>1058</ele>
        <time>2021-06-20T01:51:34Z</time>
      </trkpt>
      <trkpt lat="42.38394" lon="2.65342">
        <ele>1053</ele>
        <time>2021-06-20T01:51:42Z</time>
      </trkpt>
      <trkpt lat="42.38387" lon="2.65364">
        <ele>1050</ele>
        <time>2021-06-20T01:51:46Z</time>
      </trkpt>
      <trkpt lat="42.3834" lon="2.65441">
        <ele>1039</ele>
        <time>2021-06-20T01:52:03Z</time>
      </trkpt>
      <trkpt lat="42.38323" lon="2.65502">
        <ele>1029</ele>
        <time>2021-06-20T01:52:15Z</time>
      </trkpt>
      <trkpt lat="42.38314" lon="2.65516">
        <ele>1025</ele>
        <time>2021-06-20T01:52:18Z</time>
      </trkpt>
      <trkpt lat="42.38312" lon="2.6553">
        <ele>1023</ele>
        <time>2021-06-20T01:52:20Z</time>
      </trkpt>
      <trkpt lat="42.38301" lon="2.65536">
        <ele>1020</ele>
        <time>2021-06-20T01:52:23Z</time>
      </trkpt>
      <trkpt lat="42.38288" lon="2.6555">
        <ele>1017</ele>
        <time>2021-06-20T01:52:27Z</time>
      </trkpt>
      <trkpt lat="42.38277" lon="2.65563">
        <ele>1014</ele>
        <time>2021-06-20T01:52:30Z</time>
      </trkpt>
      <trkpt lat="42.38269" lon="2.65578">
        <ele>1011</ele>
        <time>2021-06-20T01:52:33Z</time>
      </trkpt>
      <trkpt lat="42.38252" lon="2.65596">
        <ele>1009</ele>
        <time>2021-06-20T01:52:39Z</time>
      </trkpt>
      <trkpt lat="42.38248" lon="2.65626">
        <ele>1008</ele>
        <time>2021-06-20T01:52:44Z</time>
      </trkpt>
      <trkpt lat="42.3838" lon="2.65551">
        <ele>1020</ele>
        <time>2021-06-20T01:53:17Z</time>
      </trkpt>
      <trkpt lat="42.38437" lon="2.65543">
        <ele>1018</ele>
        <time>2021-06-20T01:53:31Z</time>
      </trkpt>
      <trkpt lat="42.38537" lon="2.65505">
        <ele>1023</ele>
        <time>2021-06-20T01:53:55Z</time>
      </trkpt>
      <trkpt lat="42.38556" lon="2.65511">
        <ele>1023</ele>
        <time>2021-06-20T01:53:59Z</time>
      </trkpt>
      <trkpt lat="42.38592" lon="2.65544">
        <ele>1021</ele>
        <time>2021-06-20T01:54:10Z</time>
      </trkpt>
      <trkpt lat="42.38651" lon="2.65637">
        <ele>1021</ele>
        <time>2021-06-20T01:54:31Z</time>
      </trkpt>
      <trkpt lat="42.38686" lon="2.65676">
        <ele>1022</ele>
        <time>2021-06-20T01:54:41Z</time>
      </trkpt>
      <trkpt lat="42.387" lon="2.65704">
        <ele>1021</ele>
        <time>2021-06-20T01:54:47Z</time>
      </trkpt>
      <trkpt lat="42.38731" lon="2.65756">
        <ele>1021</ele>
        <time>2021-06-20T01:54:59Z</time>
      </trkpt>
      <trkpt lat="42.38749" lon="2.65799">
        <ele>1019</ele>
        <time>2021-06-20T01:55:07Z</time>
      </trkpt>
      <trkpt lat="42.38745" lon="2.65815">
        <ele>1017</ele>
        <time>2021-06-20T01:55:10Z</time>
      </trkpt>
      <trkpt lat="42.38719" lon="2.65864">
        <ele>1010</ele>
        <time>2021-06-20T01:55:20Z</time>
      </trkpt>
      <trkpt lat="42.38702" lon="2.65905">
        <ele>1003</ele>
        <time>2021-06-20T01:55:29Z</time>
      </trkpt>
      <trkpt lat="42.38686" lon="2.65962">
        <ele>998</ele>
        <time>2021-06-20T01:55:39Z</time>
      </trkpt>
      <trkpt lat="42.38681" lon="2.65995">
        <ele>996</ele>
        <time>2021-06-20T01:55:45Z</time>
      </trkpt>
      <trkpt lat="42.3868" lon="2.66069">
        <ele>990</ele>
        <time>2021-06-20T01:55:58Z</time>
      </trkpt>
      <trkpt lat="42.38668" lon="2.66114">
        <ele>986</ele>
        <time>2021-06-20T01:56:06Z</time>
      </trkpt>
      <trkpt lat="42.38651" lon="2.66151">
        <ele>982</ele>
        <time>2021-06-20T01:56:13Z</time>
      </trkpt>
      <trkpt lat="42.3861" lon="2.66221">
        <ele>975</ele>
        <time>2021-06-20T01:56:29Z</time>
      </trkpt>
      <trkpt lat="42.38603" lon="2.66237">
        <ele>974</ele>
        <time>2021-06-20T01:56:32Z</time>
      </trkpt>
      <trkpt lat="42.3859" lon="2.66282">
        <ele>970</ele>
        <time>2021-06-20T01:56:40Z</time>
      </trkpt>
      <trkpt lat="42.38587" lon="2.66334">
        <ele>966</ele>
        <time>2021-06-20T01:56:49Z</time>
      </trkpt>
      <trkpt lat="42.38592" lon="2.66453">
        <ele>960</ele>
        <time>2021-06-20T01:57:10Z</time>
      </trkpt>
      <trkpt lat="42.3859" lon="2.66487">
        <ele>959</ele>
        <time>2021-06-20T01:57:16Z</time>
      </trkpt>
      <trkpt lat="42.38592" lon="2.66505">
        <ele>959</ele>
        <time>2021-06-20T01:57:19Z</time>
      </trkpt>
      <trkpt lat="42.3864" lon="2.66609">
        <ele>956</ele>
        <time>2021-06-20T01:57:40Z</time>
      </trkpt>
      <trkpt lat="42.38665" lon="2.66681">
        <ele>950</ele>
        <time>2021-06-20T01:57:54Z</time>
      </trkpt>
      <trkpt lat="42.38662" lon="2.66706">
        <ele>948</ele>
        <time>2021-06-20T01:57:58Z</time>
      </trkpt>
      <trkpt lat="42.38644" lon="2.66742">
        <ele>943</ele>
        <time>2021-06-20T01:58:06Z</time>
      </trkpt>
      <trkpt lat="42.38638" lon="2.66765">
        <ele>942</ele>
        <time>2021-06-20T01:58:10Z</time>
      </trkpt>
      <trkpt lat="42.38637" lon="2.66802">
        <ele>941</ele>
        <time>2021-06-20T01:58:16Z</time>
      </trkpt>
      <trkpt lat="42.38641" lon="2.66819">
        <ele>940</ele>
        <time>2021-06-20T01:58:19Z</time>
      </trkpt>
      <trkpt lat="42.38655" lon="2.66839">
        <ele>941</ele>
        <time>2021-06-20T01:58:24Z</time>
      </trkpt>
      <trkpt lat="42.38659" lon="2.66852">
        <ele>941</ele>
        <time>2021-06-20T01:58:27Z</time>
      </trkpt>
      <trkpt lat="42.38654" lon="2.6687">
        <ele>941</ele>
        <time>2021-06-20T01:58:30Z</time>
      </trkpt>
      <trkpt lat="42.38645" lon="2.66882">
        <ele>940</ele>
        <time>2021-06-20T01:58:33Z</time>
      </trkpt>
      <trkpt lat="42.38635" lon="2.66909">
        <ele>939</ele>
        <time>2021-06-20T01:58:38Z</time>
      </trkpt>
      <trkpt lat="42.38639" lon="2.6694">
        <ele>937</ele>
        <time>2021-06-20T01:58:44Z</time>
      </trkpt>
      <trkpt lat="42.38646" lon="2.66955">
        <ele>936</ele>
        <time>2021-06-20T01:58:47Z</time>
      </trkpt>
      <trkpt lat="42.38654" lon="2.6696">
        <ele>937</ele>
        <time>2021-06-20T01:58:49Z</time>
      </trkpt>
      <trkpt lat="42.38673" lon="2.66981">
        <ele>938</ele>
        <time>2021-06-20T01:58:54Z</time>
      </trkpt>
      <trkpt lat="42.38681" lon="2.6702">
        <ele>939</ele>
        <time>2021-06-20T01:59:01Z</time>
      </trkpt>
      <trkpt lat="42.38691" lon="2.67004">
        <ele>940</ele>
        <time>2021-06-20T01:59:05Z</time>
      </trkpt>
      <trkpt lat="42.38702" lon="2.66967">
        <ele>941</ele>
        <time>2021-06-20T01:59:12Z</time>
      </trkpt>
      <trkpt lat="42.38708" lon="2.66966">
        <ele>942</ele>
        <time>2021-06-20T01:59:13Z</time>
      </trkpt>
      <trkpt lat="42.38717" lon="2.66975">
        <ele>943</ele>
        <time>2021-06-20T01:59:16Z</time>
      </trkpt>
      <trkpt lat="42.38727" lon="2.67002">
        <ele>946</ele>
        <time>2021-06-20T01:59:21Z</time>
      </trkpt>
      <trkpt lat="42.38727" lon="2.67035">
        <ele>949</ele>
        <time>2021-06-20T01:59:27Z</time>
      </trkpt>
      <trkpt lat="42.38733" lon="2.67062">
        <ele>954</ele>
        <time>2021-06-20T01:59:32Z</time>
      </trkpt>
      <trkpt lat="42.38745" lon="2.67085">
        <ele>960</ele>
        <time>2021-06-20T01:59:36Z</time>
      </trkpt>
      <trkpt lat="42.38757" lon="2.67122">
        <ele>962</ele>
        <time>2021-06-20T01:59:43Z</time>
      </trkpt>
      <trkpt lat="42.38772" lon="2.67137">
        <ele>962</ele>
        <time>2021-06-20T01:59:48Z</time>
      </trkpt>
      <trkpt lat="42.38782" lon="2.6714">
        <ele>961</ele>
        <time>2021-06-20T01:59:50Z</time>
      </trkpt>
      <trkpt lat="42.38937" lon="2.67147">
        <ele>954</ele>
        <time>2021-06-20T02:00:26Z</time>
      </trkpt>
      <trkpt lat="42.38994" lon="2.67195">
        <ele>962</ele>
        <time>2021-06-20T02:00:42Z</time>
      </trkpt>
      <trkpt lat="42.39034" lon="2.67233">
        <ele>965</ele>
        <time>2021-06-20T02:00:53Z</time>
      </trkpt>
      <trkpt lat="42.3904" lon="2.67236">
        <ele>965</ele>
        <time>2021-06-20T02:00:55Z</time>
      </trkpt>
      <trkpt lat="42.39063" lon="2.67239">
        <ele>967</ele>
        <time>2021-06-20T02:01:00Z</time>
      </trkpt>
      <trkpt lat="42.39094" lon="2.67225">
        <ele>969</ele>
        <time>2021-06-20T02:01:08Z</time>
      </trkpt>
      <trkpt lat="42.3911" lon="2.67222">
        <ele>969</ele>
        <time>2021-06-20T02:01:12Z</time>
      </trkpt>
      <trkpt lat="42.39192" lon="2.67219">
        <ele>968</ele>
        <time>2021-06-20T02:01:31Z</time>
      </trkpt>
      <trkpt lat="42.39228" lon="2.67226">
        <ele>967</ele>
        <time>2021-06-20T02:01:39Z</time>
      </trkpt>
      <trkpt lat="42.3928" lon="2.6724">
        <ele>966</ele>
        <time>2021-06-20T02:01:52Z</time>
      </trkpt>
      <trkpt lat="42.39309" lon="2.67253">
        <ele>966</ele>
        <time>2021-06-20T02:01:59Z</time>
      </trkpt>
      <trkpt lat="42.39318" lon="2.67255">
        <ele>965</ele>
        <time>2021-06-20T02:02:01Z</time>
      </trkpt>
      <trkpt lat="42.39333" lon="2.67254">
        <ele>965</ele>
        <time>2021-06-20T02:02:05Z</time>
      </trkpt>
      <trkpt lat="42.39345" lon="2.67257">
        <ele>965</ele>
        <time>2021-06-20T02:02:07Z</time>
      </trkpt>
      <trkpt lat="42.39407" lon="2.67283">
        <ele>965</ele>
        <time>2021-06-20T02:02:23Z</time>
      </trkpt>
      <trkpt lat="42.39419" lon="2.67277">
        <ele>965</ele>
        <time>2021-06-20T02:02:26Z</time>
      </trkpt>
      <trkpt lat="42.3944" lon="2.67285">
        <ele>966</ele>
        <time>2021-06-20T02:02:31Z</time>
      </trkpt>
      <trkpt lat="42.39465" lon="2.67276">
        <ele>967</ele>
        <time>2021-06-20T02:02:37Z</time>
      </trkpt>
      <trkpt lat="42.39505" lon="2.67273">
        <ele>968</ele>
        <time>2021-06-20T02:02:46Z</time>
      </trkpt>
      <trkpt lat="42.39634" lon="2.6729">
        <ele>959</ele>
        <time>2021-06-20T02:03:16Z</time>
      </trkpt>
      <trkpt lat="42.39645" lon="2.67296">
        <ele>958</ele>
        <time>2021-06-20T02:03:19Z</time>
      </trkpt>
      <trkpt lat="42.39653" lon="2.67304">
        <ele>957</ele>
        <time>2021-06-20T02:03:21Z</time>
      </trkpt>
      <trkpt lat="42.3966" lon="2.67318">
        <ele>956</ele>
        <time>2021-06-20T02:03:24Z</time>
      </trkpt>
      <trkpt lat="42.3975" lon="2.67342">
        <ele>952</ele>
        <time>2021-06-20T02:03:46Z</time>
      </trkpt>
      <trkpt lat="42.39762" lon="2.6734">
        <ele>952</ele>
        <time>2021-06-20T02:03:49Z</time>
      </trkpt>
      <trkpt lat="42.39788" lon="2.67329">
        <ele>953</ele>
        <time>2021-06-20T02:03:55Z</time>
      </trkpt>
      <trkpt lat="42.39814" lon="2.67309">
        <ele>952</ele>
        <time>2021-06-20T02:04:02Z</time>
      </trkpt>
      <trkpt lat="42.3983" lon="2.67307">
        <ele>952</ele>
        <time>2021-06-20T02:04:06Z</time>
      </trkpt>
      <trkpt lat="42.39854" lon="2.67314">
        <ele>955</ele>
        <time>2021-06-20T02:04:11Z</time>
      </trkpt>
      <trkpt lat="42.39896" lon="2.67334">
        <ele>960</ele>
        <time>2021-06-20T02:04:22Z</time>
      </trkpt>
      <trkpt lat="42.39949" lon="2.6734">
        <ele>969</ele>
        <time>2021-06-20T02:04:34Z</time>
      </trkpt>
      <trkpt lat="42.39995" lon="2.6734">
        <ele>979</ele>
        <time>2021-06-20T02:04:45Z</time>
      </trkpt>
      <trkpt lat="42.40029" lon="2.6735">
        <ele>986</ele>
        <time>2021-06-20T02:04:53Z</time>
      </trkpt>
      <trkpt lat="42.40031" lon="2.6734">
        <ele>987</ele>
        <time>2021-06-20T02:04:55Z</time>
      </trkpt>
      <trkpt lat="42.40028" lon="2.67333">
        <ele>987</ele>
        <time>2021-06-20T02:04:56Z</time>
      </trkpt>
      <trkpt lat="42.40014" lon="2.67317">
        <ele>986</ele>
        <time>2021-06-20T02:05:01Z</time>
      </trkpt>
      <trkpt lat="42.40015" lon="2.67308">
        <ele>987</ele>
        <time>2021-06-20T02:05:02Z</time>
      </trkpt>
      <trkpt lat="42.40022" lon="2.67307">
        <ele>989</ele>
        <time>2021-06-20T02:05:04Z</time>
      </trkpt>
      <trkpt lat="42.40042" lon="2.67319">
        <ele>992</ele>
        <time>2021-06-20T02:05:09Z</time>
      </trkpt>
      <trkpt lat="42.4006" lon="2.67318">
        <ele>997</ele>
        <time>2021-06-20T02:05:13Z</time>
      </trkpt>
      <trkpt lat="42.40072" lon="2.67311">
        <ele>1000</ele>
        <time>2021-06-20T02:05:16Z</time>
      </trkpt>
      <trkpt lat="42.40093" lon="2.67291">
        <ele>1007</ele>
        <time>2021-06-20T02:05:22Z</time>
      </trkpt>
      <trkpt lat="42.40103" lon="2.67287">
        <ele>1009</ele>
        <time>2021-06-20T02:05:25Z</time>
      </trkpt>
      <trkpt lat="42.4011" lon="2.67289">
        <ele>1010</ele>
        <time>2021-06-20T02:05:26Z</time>
      </trkpt>
      <trkpt lat="42.40121" lon="2.67301">
        <ele>1011</ele>
        <time>2021-06-20T02:05:30Z</time>
      </trkpt>
      <trkpt lat="42.40135" lon="2.67345">
        <ele>1012</ele>
        <time>2021-06-20T02:05:38Z</time>
      </trkpt>
      <trkpt lat="42.40141" lon="2.67349">
        <ele>1013</ele>
        <time>2021-06-20T02:05:39Z</time>
      </trkpt>
      <trkpt lat="42.40149" lon="2.67346">
        <ele>1015</ele>
        <time>2021-06-20T02:05:41Z</time>
      </trkpt>
      <trkpt lat="42.40155" lon="2.67328">
        <ele>1017</ele>
        <time>2021-06-20T02:05:45Z</time>
      </trkpt>
      <trkpt lat="42.40172" lon="2.67299">
        <ele>1023</ele>
        <time>2021-06-20T02:05:51Z</time>
      </trkpt>
      <trkpt lat="42.40175" lon="2.67269">
        <ele>1025</ele>
        <time>2021-06-20T02:05:56Z</time>
      </trkpt>
      <trkpt lat="42.40184" lon="2.67242">
        <ele>1029</ele>
        <time>2021-06-20T02:06:01Z</time>
      </trkpt>
      <trkpt lat="42.40181" lon="2.67229">
        <ele>1029</ele>
        <time>2021-06-20T02:06:04Z</time>
      </trkpt>
      <trkpt lat="42.40152" lon="2.67191">
        <ele>1025</ele>
        <time>2021-06-20T02:06:13Z</time>
      </trkpt>
      <trkpt lat="42.40152" lon="2.67181">
        <ele>1026</ele>
        <time>2021-06-20T02:06:15Z</time>
      </trkpt>
      <trkpt lat="42.40159" lon="2.67174">
        <ele>1028</ele>
        <time>2021-06-20T02:06:17Z</time>
      </trkpt>
      <trkpt lat="42.40163" lon="2.67172">
        <ele>1029</ele>
        <time>2021-06-20T02:06:18Z</time>
      </trkpt>
      <trkpt lat="42.40172" lon="2.67174">
        <ele>1031</ele>
        <time>2021-06-20T02:06:20Z</time>
      </trkpt>
      <trkpt lat="42.40181" lon="2.6718">
        <ele>1033</ele>
        <time>2021-06-20T02:06:22Z</time>
      </trkpt>
      <trkpt lat="42.40191" lon="2.67189">
        <ele>1035</ele>
        <time>2021-06-20T02:06:25Z</time>
      </trkpt>
      <trkpt lat="42.40208" lon="2.67214">
        <ele>1038</ele>
        <time>2021-06-20T02:06:31Z</time>
      </trkpt>
      <trkpt lat="42.40226" lon="2.67231">
        <ele>1042</ele>
        <time>2021-06-20T02:06:36Z</time>
      </trkpt>
      <trkpt lat="42.40231" lon="2.6724">
        <ele>1043</ele>
        <time>2021-06-20T02:06:38Z</time>
      </trkpt>
      <trkpt lat="42.40241" lon="2.67283">
        <ele>1046</ele>
        <time>2021-06-20T02:06:46Z</time>
      </trkpt>
      <trkpt lat="42.40242" lon="2.67291">
        <ele>1047</ele>
        <time>2021-06-20T02:06:47Z</time>
      </trkpt>
      <trkpt lat="42.40238" lon="2.67316">
        <ele>1045</ele>
        <time>2021-06-20T02:06:52Z</time>
      </trkpt>
      <trkpt lat="42.40247" lon="2.6736">
        <ele>1049</ele>
        <time>2021-06-20T02:07:00Z</time>
      </trkpt>
      <trkpt lat="42.40248" lon="2.67388">
        <ele>1049</ele>
        <time>2021-06-20T02:07:04Z</time>
      </trkpt>
      <trkpt lat="42.4024" lon="2.67451">
        <ele>1042</ele>
        <time>2021-06-20T02:07:15Z</time>
      </trkpt>
      <trkpt lat="42.40241" lon="2.67459">
        <ele>1042</ele>
        <time>2021-06-20T02:07:17Z</time>
      </trkpt>
      <trkpt lat="42.40244" lon="2.6746">
        <ele>1043</ele>
        <time>2021-06-20T02:07:18Z</time>
      </trkpt>
      <trkpt lat="42.4026" lon="2.67452">
        <ele>1050</ele>
        <time>2021-06-20T02:07:22Z</time>
      </trkpt>
      <trkpt lat="42.40273" lon="2.67465">
        <ele>1053</ele>
        <time>2021-06-20T02:07:25Z</time>
      </trkpt>
      <trkpt lat="42.40299" lon="2.67473">
        <ele>1062</ele>
        <time>2021-06-20T02:07:32Z</time>
      </trkpt>
      <trkpt lat="42.40313" lon="2.67482">
        <ele>1066</ele>
        <time>2021-06-20T02:07:35Z</time>
      </trkpt>
      <trkpt lat="42.40337" lon="2.67505">
        <ele>1069</ele>
        <time>2021-06-20T02:07:42Z</time>
      </trkpt>
      <trkpt lat="42.40345" lon="2.67519">
        <ele>1070</ele>
        <time>2021-06-20T02:07:45Z</time>
      </trkpt>
      <trkpt lat="42.40364" lon="2.67576">
        <ele>1064</ele>
        <time>2021-06-20T02:07:56Z</time>
      </trkpt>
      <trkpt lat="42.4042" lon="2.67672">
        <ele>1073</ele>
        <time>2021-06-20T02:08:17Z</time>
      </trkpt>
      <trkpt lat="42.40437" lon="2.67697">
        <ele>1076</ele>
        <time>2021-06-20T02:08:23Z</time>
      </trkpt>
      <trkpt lat="42.40453" lon="2.67736">
        <ele>1077</ele>
        <time>2021-06-20T02:08:31Z</time>
      </trkpt>
      <trkpt lat="42.40477" lon="2.67857">
        <ele>1080</ele>
        <time>2021-06-20T02:08:52Z</time>
      </trkpt>
      <trkpt lat="42.40485" lon="2.6796">
        <ele>1083</ele>
        <time>2021-06-20T02:09:10Z</time>
      </trkpt>
      <trkpt lat="42.40484" lon="2.67973">
        <ele>1082</ele>
        <time>2021-06-20T02:09:12Z</time>
      </trkpt>
      <trkpt lat="42.40473" lon="2.68009">
        <ele>1077</ele>
        <time>2021-06-20T02:09:19Z</time>
      </trkpt>
      <trkpt lat="42.40474" lon="2.68059">
        <ele>1078</ele>
        <time>2021-06-20T02:09:28Z</time>
      </trkpt>
      <trkpt lat="42.4047" lon="2.68108">
        <ele>1078</ele>
        <time>2021-06-20T02:09:36Z</time>
      </trkpt>
      <trkpt lat="42.40463" lon="2.68144">
        <ele>1078</ele>
        <time>2021-06-20T02:09:43Z</time>
      </trkpt>
      <trkpt lat="42.40449" lon="2.68183">
        <ele>1074</ele>
        <time>2021-06-20T02:09:50Z</time>
      </trkpt>
      <trkpt lat="42.40447" lon="2.68201">
        <ele>1072</ele>
        <time>2021-06-20T02:09:53Z</time>
      </trkpt>
      <trkpt lat="42.40453" lon="2.68229">
        <ele>1072</ele>
        <time>2021-06-20T02:09:58Z</time>
      </trkpt>
      <trkpt lat="42.40457" lon="2.68238">
        <ele>1073</ele>
        <time>2021-06-20T02:10:00Z</time>
      </trkpt>
      <trkpt lat="42.4049" lon="2.68282">
        <ele>1078</ele>
        <time>2021-06-20T02:10:11Z</time>
      </trkpt>
      <trkpt lat="42.40526" lon="2.68342">
        <ele>1079</ele>
        <time>2021-06-20T02:10:24Z</time>
      </trkpt>
      <trkpt lat="42.40557" lon="2.68379">
        <ele>1080</ele>
        <time>2021-06-20T02:10:34Z</time>
      </trkpt>
      <trkpt lat="42.40566" lon="2.68394">
        <ele>1080</ele>
        <time>2021-06-20T02:10:37Z</time>
      </trkpt>
      <trkpt lat="42.40599" lon="2.68472">
        <ele>1074</ele>
        <time>2021-06-20T02:10:53Z</time>
      </trkpt>
      <trkpt lat="42.40628" lon="2.68508">
        <ele>1074</ele>
        <time>2021-06-20T02:11:02Z</time>
      </trkpt>
      <trkpt lat="42.40643" lon="2.68532">
        <ele>1074</ele>
        <time>2021-06-20T02:11:07Z</time>
      </trkpt>
      <trkpt lat="42.40666" lon="2.68558">
        <ele>1076</ele>
        <time>2021-06-20T02:11:14Z</time>
      </trkpt>
      <trkpt lat="42.40674" lon="2.68573">
        <ele>1074</ele>
        <time>2021-06-20T02:11:17Z</time>
      </trkpt>
      <trkpt lat="42.40676" lon="2.68592">
        <ele>1071</ele>
        <time>2021-06-20T02:11:21Z</time>
      </trkpt>
      <trkpt lat="42.40667" lon="2.68638">
        <ele>1067</ele>
        <time>2021-06-20T02:11:29Z</time>
      </trkpt>
      <trkpt lat="42.40647" lon="2.68709">
        <ele>1055</ele>
        <time>2021-06-20T02:11:42Z</time>
      </trkpt>
      <trkpt lat="42.40638" lon="2.68763">
        <ele>1049</ele>
        <time>2021-06-20T02:11:52Z</time>
      </trkpt>
      <trkpt lat="42.40626" lon="2.68794">
        <ele>1045</ele>
        <time>2021-06-20T02:11:58Z</time>
      </trkpt>
      <trkpt lat="42.40609" lon="2.68854">
        <ele>1041</ele>
        <time>2021-06-20T02:12:09Z</time>
      </trkpt>
      <trkpt lat="42.40593" lon="2.68893">
        <ele>1040</ele>
        <time>2021-06-20T02:12:16Z</time>
      </trkpt>
      <trkpt lat="42.40598" lon="2.68908">
        <ele>1041</ele>
        <time>2021-06-20T02:12:19Z</time>
      </trkpt>
      <trkpt lat="42.40608" lon="2.6892">
        <ele>1042</ele>
        <time>2021-06-20T02:12:22Z</time>
      </trkpt>
      <trkpt lat="42.40606" lon="2.6894">
        <ele>1043</ele>
        <time>2021-06-20T02:12:26Z</time>
      </trkpt>
      <trkpt lat="42.40612" lon="2.68969">
        <ele>1044</ele>
        <time>2021-06-20T02:12:31Z</time>
      </trkpt>
      <trkpt lat="42.40614" lon="2.68996">
        <ele>1044</ele>
        <time>2021-06-20T02:12:36Z</time>
      </trkpt>
      <trkpt lat="42.40613" lon="2.69042">
        <ele>1046</ele>
        <time>2021-06-20T02:12:44Z</time>
      </trkpt>
      <trkpt lat="42.40622" lon="2.6907">
        <ele>1047</ele>
        <time>2021-06-20T02:12:49Z</time>
      </trkpt>
      <trkpt lat="42.40615" lon="2.69101">
        <ele>1048</ele>
        <time>2021-06-20T02:12:54Z</time>
      </trkpt>
      <trkpt lat="42.40617" lon="2.69132">
        <ele>1051</ele>
        <time>2021-06-20T02:13:00Z</time>
      </trkpt>
      <trkpt lat="42.40612" lon="2.69166">
        <ele>1054</ele>
        <time>2021-06-20T02:13:06Z</time>
      </trkpt>
      <trkpt lat="42.40617" lon="2.69192">
        <ele>1057</ele>
        <time>2021-06-20T02:13:10Z</time>
      </trkpt>
      <trkpt lat="42.40615" lon="2.69212">
        <ele>1059</ele>
        <time>2021-06-20T02:13:14Z</time>
      </trkpt>
      <trkpt lat="42.40618" lon="2.6922">
        <ele>1061</ele>
        <time>2021-06-20T02:13:16Z</time>
      </trkpt>
      <trkpt lat="42.40627" lon="2.69231">
        <ele>1063</ele>
        <time>2021-06-20T02:13:18Z</time>
      </trkpt>
      <trkpt lat="42.40644" lon="2.69283">
        <ele>1074</ele>
        <time>2021-06-20T02:13:28Z</time>
      </trkpt>
      <trkpt lat="42.40654" lon="2.69296">
        <ele>1078</ele>
        <time>2021-06-20T02:13:31Z</time>
      </trkpt>
      <trkpt lat="42.40668" lon="2.69327">
        <ele>1087</ele>
        <time>2021-06-20T02:13:38Z</time>
      </trkpt>
      <trkpt lat="42.40699" lon="2.69418">
        <ele>1097</ele>
        <time>2021-06-20T02:13:55Z</time>
      </trkpt>
      <trkpt lat="42.40749" lon="2.6944">
        <ele>1102</ele>
        <time>2021-06-20T02:14:07Z</time>
      </trkpt>
      <trkpt lat="42.40759" lon="2.69452">
        <ele>1101</ele>
        <time>2021-06-20T02:14:10Z</time>
      </trkpt>
      <trkpt lat="42.4078" lon="2.6947">
        <ele>1097</ele>
        <time>2021-06-20T02:14:16Z</time>
      </trkpt>
      <trkpt lat="42.40793" lon="2.69476">
        <ele>1095</ele>
        <time>2021-06-20T02:14:19Z</time>
      </trkpt>
      <trkpt lat="42.40801" lon="2.69488">
        <ele>1094</ele>
        <time>2021-06-20T02:14:22Z</time>
      </trkpt>
      <trkpt lat="42.40809" lon="2.69491">
        <ele>1093</ele>
        <time>2021-06-20T02:14:24Z</time>
      </trkpt>
      <trkpt lat="42.40816" lon="2.69502">
        <ele>1092</ele>
        <time>2021-06-20T02:14:27Z</time>
      </trkpt>
      <trkpt lat="42.40845" lon="2.69523">
        <ele>1084</ele>
        <time>2021-06-20T02:14:34Z</time>
      </trkpt>
      <trkpt lat="42.40862" lon="2.69552">
        <ele>1079</ele>
        <time>2021-06-20T02:14:41Z</time>
      </trkpt>
      <trkpt lat="42.40887" lon="2.69573">
        <ele>1078</ele>
        <time>2021-06-20T02:14:47Z</time>
      </trkpt>
      <trkpt lat="42.40926" lon="2.69617">
        <ele>1083</ele>
        <time>2021-06-20T02:14:59Z</time>
      </trkpt>
      <trkpt lat="42.4095" lon="2.69639">
        <ele>1089</ele>
        <time>2021-06-20T02:15:06Z</time>
      </trkpt>
      <trkpt lat="42.40995" lon="2.69659">
        <ele>1104</ele>
        <time>2021-06-20T02:15:17Z</time>
      </trkpt>
      <trkpt lat="42.41011" lon="2.6968">
        <ele>1109</ele>
        <time>2021-06-20T02:15:22Z</time>
      </trkpt>
      <trkpt lat="42.41026" lon="2.69713">
        <ele>1112</ele>
        <time>2021-06-20T02:15:29Z</time>
      </trkpt>
      <trkpt lat="42.41041" lon="2.69728">
        <ele>1114</ele>
        <time>2021-06-20T02:15:33Z</time>
      </trkpt>
      <trkpt lat="42.41046" lon="2.6974">
        <ele>1116</ele>
        <time>2021-06-20T02:15:36Z</time>
      </trkpt>
      <trkpt lat="42.41072" lon="2.69778">
        <ele>1124</ele>
        <time>2021-06-20T02:15:45Z</time>
      </trkpt>
      <trkpt lat="42.41078" lon="2.69791">
        <ele>1128</ele>
        <time>2021-06-20T02:15:47Z</time>
      </trkpt>
      <trkpt lat="42.41079" lon="2.6981">
        <ele>1131</ele>
        <time>2021-06-20T02:15:51Z</time>
      </trkpt>
      <trkpt lat="42.41076" lon="2.69845">
        <ele>1136</ele>
        <time>2021-06-20T02:15:57Z</time>
      </trkpt>
      <trkpt lat="42.41085" lon="2.69865">
        <ele>1142</ele>
        <time>2021-06-20T02:16:01Z</time>
      </trkpt>
      <trkpt lat="42.41098" lon="2.69938">
        <ele>1157</ele>
        <time>2021-06-20T02:16:14Z</time>
      </trkpt>
      <trkpt lat="42.41103" lon="2.69948">
        <ele>1160</ele>
        <time>2021-06-20T02:16:16Z</time>
      </trkpt>
      <trkpt lat="42.41102" lon="2.69963">
        <ele>1165</ele>
        <time>2021-06-20T02:16:18Z</time>
      </trkpt>
      <trkpt lat="42.41104" lon="2.69969">
        <ele>1166</ele>
        <time>2021-06-20T02:16:20Z</time>
      </trkpt>
      <trkpt lat="42.41145" lon="2.70045">
        <ele>1191</ele>
        <time>2021-06-20T02:16:36Z</time>
      </trkpt>
      <trkpt lat="42.41155" lon="2.70057">
        <ele>1197</ele>
        <time>2021-06-20T02:16:39Z</time>
      </trkpt>
      <trkpt lat="42.41158" lon="2.70078">
        <ele>1204</ele>
        <time>2021-06-20T02:16:43Z</time>
      </trkpt>
      <trkpt lat="42.41186" lon="2.70101">
        <ele>1211</ele>
        <time>2021-06-20T02:16:50Z</time>
      </trkpt>
      <trkpt lat="42.41205" lon="2.70127">
        <ele>1216</ele>
        <time>2021-06-20T02:16:57Z</time>
      </trkpt>
      <trkpt lat="42.41199" lon="2.70133">
        <ele>1219</ele>
        <time>2021-06-20T02:16:58Z</time>
      </trkpt>
      <trkpt lat="42.41195" lon="2.70153">
        <ele>1227</ele>
        <time>2021-06-20T02:17:02Z</time>
      </trkpt>
      <trkpt lat="42.41199" lon="2.70176">
        <ele>1234</ele>
        <time>2021-06-20T02:17:06Z</time>
      </trkpt>
      <trkpt lat="42.41194" lon="2.70185">
        <ele>1238</ele>
        <time>2021-06-20T02:17:08Z</time>
      </trkpt>
      <trkpt lat="42.412" lon="2.70195">
        <ele>1241</ele>
        <time>2021-06-20T02:17:10Z</time>
      </trkpt>
      <trkpt lat="42.41202" lon="2.70209">
        <ele>1245</ele>
        <time>2021-06-20T02:17:13Z</time>
      </trkpt>
      <trkpt lat="42.41202" lon="2.70221">
        <ele>1250</ele>
        <time>2021-06-20T02:17:15Z</time>
      </trkpt>
      <trkpt lat="42.41198" lon="2.70225">
        <ele>1252</ele>
        <time>2021-06-20T02:17:16Z</time>
      </trkpt>
      <trkpt lat="42.41204" lon="2.70237">
        <ele>1255</ele>
        <time>2021-06-20T02:17:18Z</time>
      </trkpt>
      <trkpt lat="42.41202" lon="2.70246">
        <ele>1259</ele>
        <time>2021-06-20T02:17:20Z</time>
      </trkpt>
      <trkpt lat="42.41206" lon="2.7026">
        <ele>1260</ele>
        <time>2021-06-20T02:17:22Z</time>
      </trkpt>
      <trkpt lat="42.41207" lon="2.70301">
        <ele>1266</ele>
        <time>2021-06-20T02:17:30Z</time>
      </trkpt>
      <trkpt lat="42.41212" lon="2.70328">
        <ele>1269</ele>
        <time>2021-06-20T02:17:34Z</time>
      </trkpt>
      <trkpt lat="42.41208" lon="2.70368">
        <ele>1271</ele>
        <time>2021-06-20T02:17:41Z</time>
      </trkpt>
      <trkpt lat="42.41215" lon="2.70393">
        <ele>1272</ele>
        <time>2021-06-20T02:17:46Z</time>
      </trkpt>
      <trkpt lat="42.41222" lon="2.70394">
        <ele>1272</ele>
        <time>2021-06-20T02:17:48Z</time>
      </trkpt>
      <trkpt lat="42.41234" lon="2.7041">
        <ele>1275</ele>
        <time>2021-06-20T02:17:51Z</time>
      </trkpt>
      <trkpt lat="42.41246" lon="2.70419">
        <ele>1278</ele>
        <time>2021-06-20T02:17:55Z</time>
      </trkpt>
      <trkpt lat="42.41254" lon="2.7042">
        <ele>1279</ele>
        <time>2021-06-20T02:17:57Z</time>
      </trkpt>
      <trkpt lat="42.41258" lon="2.70424">
        <ele>1280</ele>
        <time>2021-06-20T02:17:58Z</time>
      </trkpt>
      <trkpt lat="42.41275" lon="2.70425">
        <ele>1281</ele>
        <time>2021-06-20T02:18:02Z</time>
      </trkpt>
      <trkpt lat="42.41289" lon="2.70422">
        <ele>1282</ele>
        <time>2021-06-20T02:18:05Z</time>
      </trkpt>
      <trkpt lat="42.413" lon="2.70426">
        <ele>1284</ele>
        <time>2021-06-20T02:18:08Z</time>
      </trkpt>
      <trkpt lat="42.41318" lon="2.70428">
        <ele>1286</ele>
        <time>2021-06-20T02:18:12Z</time>
      </trkpt>
      <trkpt lat="42.41331" lon="2.70433">
        <ele>1289</ele>
        <time>2021-06-20T02:18:15Z</time>
      </trkpt>
      <trkpt lat="42.41345" lon="2.70455">
        <ele>1295</ele>
        <time>2021-06-20T02:18:20Z</time>
      </trkpt>
      <trkpt lat="42.41355" lon="2.70493">
        <ele>1307</ele>
        <time>2021-06-20T02:18:27Z</time>
      </trkpt>
      <trkpt lat="42.41368" lon="2.70521">
        <ele>1314</ele>
        <time>2021-06-20T02:18:33Z</time>
      </trkpt>
      <trkpt lat="42.41374" lon="2.70521">
        <ele>1315</ele>
        <time>2021-06-20T02:18:34Z</time>
      </trkpt>
      <trkpt lat="42.41377" lon="2.70525">
        <ele>1316</ele>
        <time>2021-06-20T02:18:35Z</time>
      </trkpt>
      <trkpt lat="42.4139" lon="2.70531">
        <ele>1320</ele>
        <time>2021-06-20T02:18:38Z</time>
      </trkpt>
      <trkpt lat="42.41412" lon="2.70538">
        <ele>1326</ele>
        <time>2021-06-20T02:18:44Z</time>
      </trkpt>
      <trkpt lat="42.41436" lon="2.70535">
        <ele>1328</ele>
        <time>2021-06-20T02:18:49Z</time>
      </trkpt>
      <trkpt lat="42.41472" lon="2.70538">
        <ele>1334</ele>
        <time>2021-06-20T02:18:58Z</time>
      </trkpt>
      <trkpt lat="42.41484" lon="2.7055">
        <ele>1339</ele>
        <time>2021-06-20T02:19:01Z</time>
      </trkpt>
      <trkpt lat="42.41493" lon="2.70552">
        <ele>1341</ele>
        <time>2021-06-20T02:19:03Z</time>
      </trkpt>
      <trkpt lat="42.41507" lon="2.70549">
        <ele>1340</ele>
        <time>2021-06-20T02:19:07Z</time>
      </trkpt>
      <trkpt lat="42.41519" lon="2.70551">
        <ele>1338</ele>
        <time>2021-06-20T02:19:09Z</time>
      </trkpt>
      <trkpt lat="42.41532" lon="2.70557">
        <ele>1336</ele>
        <time>2021-06-20T02:19:13Z</time>
      </trkpt>
      <trkpt lat="42.41541" lon="2.70558">
        <ele>1334</ele>
        <time>2021-06-20T02:19:15Z</time>
      </trkpt>
      <trkpt lat="42.41549" lon="2.70564">
        <ele>1334</ele>
        <time>2021-06-20T02:19:17Z</time>
      </trkpt>
      <trkpt lat="42.41554" lon="2.70573">
        <ele>1334</ele>
        <time>2021-06-20T02:19:19Z</time>
      </trkpt>
      <trkpt lat="42.41556" lon="2.70583">
        <ele>1335</ele>
        <time>2021-06-20T02:19:21Z</time>
      </trkpt>
      <trkpt lat="42.41555" lon="2.70602">
        <ele>1335</ele>
        <time>2021-06-20T02:19:24Z</time>
      </trkpt>
      <trkpt lat="42.41544" lon="2.70643">
        <ele>1338</ele>
        <time>2021-06-20T02:19:31Z</time>
      </trkpt>
      <trkpt lat="42.41542" lon="2.70694">
        <ele>1340</ele>
        <time>2021-06-20T02:19:40Z</time>
      </trkpt>
      <trkpt lat="42.41546" lon="2.70719">
        <ele>1340</ele>
        <time>2021-06-20T02:19:45Z</time>
      </trkpt>
      <trkpt lat="42.41549" lon="2.70724">
        <ele>1339</ele>
        <time>2021-06-20T02:19:46Z</time>
      </trkpt>
      <trkpt lat="42.41553" lon="2.70749">
        <ele>1339</ele>
        <time>2021-06-20T02:19:50Z</time>
      </trkpt>
      <trkpt lat="42.4156" lon="2.70762">
        <ele>1338</ele>
        <time>2021-06-20T02:19:53Z</time>
      </trkpt>
      <trkpt lat="42.41563" lon="2.70786">
        <ele>1342</ele>
        <time>2021-06-20T02:19:57Z</time>
      </trkpt>
      <trkpt lat="42.41578" lon="2.70814">
        <ele>1344</ele>
        <time>2021-06-20T02:20:03Z</time>
      </trkpt>
      <trkpt lat="42.4158" lon="2.70828">
        <ele>1346</ele>
        <time>2021-06-20T02:20:05Z</time>
      </trkpt>
      <trkpt lat="42.41595" lon="2.70849">
        <ele>1344</ele>
        <time>2021-06-20T02:20:11Z</time>
      </trkpt>
      <trkpt lat="42.41613" lon="2.70903">
        <ele>1347</ele>
        <time>2021-06-20T02:20:21Z</time>
      </trkpt>
      <trkpt lat="42.41625" lon="2.70987">
        <ele>1347</ele>
        <time>2021-06-20T02:20:36Z</time>
      </trkpt>
      <trkpt lat="42.41629" lon="2.70993">
        <ele>1345</ele>
        <time>2021-06-20T02:20:37Z</time>
      </trkpt>
      <trkpt lat="42.41633" lon="2.71015">
        <ele>1344</ele>
        <time>2021-06-20T02:20:41Z</time>
      </trkpt>
      <trkpt lat="42.41632" lon="2.71024">
        <ele>1344</ele>
        <time>2021-06-20T02:20:42Z</time>
      </trkpt>
      <trkpt lat="42.41639" lon="2.71057">
        <ele>1341</ele>
        <time>2021-06-20T02:20:48Z</time>
      </trkpt>
      <trkpt lat="42.41645" lon="2.7107">
        <ele>1340</ele>
        <time>2021-06-20T02:20:51Z</time>
      </trkpt>
      <trkpt lat="42.41646" lon="2.71082">
        <ele>1341</ele>
        <time>2021-06-20T02:20:53Z</time>
      </trkpt>
      <trkpt lat="42.41672" lon="2.71122">
        <ele>1337</ele>
        <time>2021-06-20T02:21:02Z</time>
      </trkpt>
      <trkpt lat="42.41681" lon="2.71128">
        <ele>1337</ele>
        <time>2021-06-20T02:21:05Z</time>
      </trkpt>
      <trkpt lat="42.41683" lon="2.71134">
        <ele>1337</ele>
        <time>2021-06-20T02:21:06Z</time>
      </trkpt>
      <trkpt lat="42.41699" lon="2.71143">
        <ele>1338</ele>
        <time>2021-06-20T02:21:10Z</time>
      </trkpt>
      <trkpt lat="42.41707" lon="2.71158">
        <ele>1341</ele>
        <time>2021-06-20T02:21:13Z</time>
      </trkpt>
      <trkpt lat="42.41706" lon="2.71169">
        <ele>1342</ele>
        <time>2021-06-20T02:21:15Z</time>
      </trkpt>
      <trkpt lat="42.41716" lon="2.71175">
        <ele>1344</ele>
        <time>2021-06-20T02:21:17Z</time>
      </trkpt>
      <trkpt lat="42.41732" lon="2.71176">
        <ele>1347</ele>
        <time>2021-06-20T02:21:21Z</time>
      </trkpt>
      <trkpt lat="42.41739" lon="2.71182">
        <ele>1350</ele>
        <time>2021-06-20T02:21:23Z</time>
      </trkpt>
      <trkpt lat="42.41742" lon="2.71192">
        <ele>1352</ele>
        <time>2021-06-20T02:21:25Z</time>
      </trkpt>
      <trkpt lat="42.41736" lon="2.71205">
        <ele>1352</ele>
        <time>2021-06-20T02:21:28Z</time>
      </trkpt>
      <trkpt lat="42.41735" lon="2.71213">
        <ele>1353</ele>
        <time>2021-06-20T02:21:29Z</time>
      </trkpt>
      <trkpt lat="42.41745" lon="2.71223">
        <ele>1359</ele>
        <time>2021-06-20T02:21:32Z</time>
      </trkpt>
      <trkpt lat="42.41746" lon="2.71237">
        <ele>1362</ele>
        <time>2021-06-20T02:21:34Z</time>
      </trkpt>
      <trkpt lat="42.4175" lon="2.71243">
        <ele>1365</ele>
        <time>2021-06-20T02:21:36Z</time>
      </trkpt>
      <trkpt lat="42.41762" lon="2.7124">
        <ele>1370</ele>
        <time>2021-06-20T02:21:39Z</time>
      </trkpt>
      <trkpt lat="42.41767" lon="2.71241">
        <ele>1372</ele>
        <time>2021-06-20T02:21:40Z</time>
      </trkpt>
      <trkpt lat="42.41775" lon="2.7125">
        <ele>1377</ele>
        <time>2021-06-20T02:21:42Z</time>
      </trkpt>
      <trkpt lat="42.41795" lon="2.71245">
        <ele>1384</ele>
        <time>2021-06-20T02:21:47Z</time>
      </trkpt>
      <trkpt lat="42.41814" lon="2.71248">
        <ele>1393</ele>
        <time>2021-06-20T02:21:51Z</time>
      </trkpt>
      <trkpt lat="42.41819" lon="2.71251">
        <ele>1396</ele>
        <time>2021-06-20T02:21:53Z</time>
      </trkpt>
      <trkpt lat="42.41829" lon="2.71247">
        <ele>1399</ele>
        <time>2021-06-20T02:21:55Z</time>
      </trkpt>
      <trkpt lat="42.41844" lon="2.71228">
        <ele>1394</ele>
        <time>2021-06-20T02:22:00Z</time>
      </trkpt>
      <trkpt lat="42.41854" lon="2.7122">
        <ele>1391</ele>
        <time>2021-06-20T02:22:03Z</time>
      </trkpt>
      <trkpt lat="42.41861" lon="2.71218">
        <ele>1390</ele>
        <time>2021-06-20T02:22:04Z</time>
      </trkpt>
      <trkpt lat="42.41867" lon="2.71208">
        <ele>1386</ele>
        <time>2021-06-20T02:22:06Z</time>
      </trkpt>
      <trkpt lat="42.41878" lon="2.71203">
        <ele>1384</ele>
        <time>2021-06-20T02:22:09Z</time>
      </trkpt>
      <trkpt lat="42.41882" lon="2.71198">
        <ele>1382</ele>
        <time>2021-06-20T02:22:10Z</time>
      </trkpt>
      <trkpt lat="42.41889" lon="2.71203">
        <ele>1385</ele>
        <time>2021-06-20T02:22:12Z</time>
      </trkpt>
      <trkpt lat="42.419" lon="2.712">
        <ele>1383</ele>
        <time>2021-06-20T02:22:15Z</time>
      </trkpt>
      <trkpt lat="42.4191" lon="2.71209">
        <ele>1388</ele>
        <time>2021-06-20T02:22:18Z</time>
      </trkpt>
      <trkpt lat="42.41915" lon="2.71207">
        <ele>1387</ele>
        <time>2021-06-20T02:22:19Z</time>
      </trkpt>
      <trkpt lat="42.41925" lon="2.7123">
        <ele>1395</ele>
        <time>2021-06-20T02:22:24Z</time>
      </trkpt>
      <trkpt lat="42.41938" lon="2.71243">
        <ele>1397</ele>
        <time>2021-06-20T02:22:27Z</time>
      </trkpt>
      <trkpt lat="42.41947" lon="2.71245">
        <ele>1395</ele>
        <time>2021-06-20T02:22:29Z</time>
      </trkpt>
      <trkpt lat="42.41956" lon="2.71258">
        <ele>1396</ele>
        <time>2021-06-20T02:22:33Z</time>
      </trkpt>
      <trkpt lat="42.41959" lon="2.71258">
        <ele>1395</ele>
        <time>2021-06-20T02:22:33Z</time>
      </trkpt>
      <trkpt lat="42.41965" lon="2.71275">
        <ele>1395</ele>
        <time>2021-06-20T02:22:36Z</time>
      </trkpt>
      <trkpt lat="42.4197" lon="2.7128">
        <ele>1394</ele>
        <time>2021-06-20T02:22:38Z</time>
      </trkpt>
      <trkpt lat="42.41988" lon="2.71328">
        <ele>1392</ele>
        <time>2021-06-20T02:22:47Z</time>
      </trkpt>
      <trkpt lat="42.42005" lon="2.71396">
        <ele>1391</ele>
        <time>2021-06-20T02:23:00Z</time>
      </trkpt>
      <trkpt lat="42.42014" lon="2.71413">
        <ele>1389</ele>
        <time>2021-06-20T02:23:03Z</time>
      </trkpt>
      <trkpt lat="42.42023" lon="2.71442">
        <ele>1388</ele>
        <time>2021-06-20T02:23:09Z</time>
      </trkpt>
      <trkpt lat="42.42026" lon="2.71466">
        <ele>1389</ele>
        <time>2021-06-20T02:23:13Z</time>
      </trkpt>
      <trkpt lat="42.42033" lon="2.71484">
        <ele>1388</ele>
        <time>2021-06-20T02:23:16Z</time>
      </trkpt>
      <trkpt lat="42.42042" lon="2.71494">
        <ele>1387</ele>
        <time>2021-06-20T02:23:19Z</time>
      </trkpt>
      <trkpt lat="42.42063" lon="2.71508">
        <ele>1384</ele>
        <time>2021-06-20T02:23:24Z</time>
      </trkpt>
      <trkpt lat="42.42086" lon="2.71531">
        <ele>1383</ele>
        <time>2021-06-20T02:23:31Z</time>
      </trkpt>
      <trkpt lat="42.42112" lon="2.71548">
        <ele>1381</ele>
        <time>2021-06-20T02:23:38Z</time>
      </trkpt>
      <trkpt lat="42.42136" lon="2.71558">
        <ele>1379</ele>
        <time>2021-06-20T02:23:44Z</time>
      </trkpt>
      <trkpt lat="42.42159" lon="2.71586">
        <ele>1381</ele>
        <time>2021-06-20T02:23:51Z</time>
      </trkpt>
      <trkpt lat="42.42163" lon="2.71596">
        <ele>1382</ele>
        <time>2021-06-20T02:23:53Z</time>
      </trkpt>
      <trkpt lat="42.42171" lon="2.71629">
        <ele>1383</ele>
        <time>2021-06-20T02:23:59Z</time>
      </trkpt>
      <trkpt lat="42.42174" lon="2.71673">
        <ele>1386</ele>
        <time>2021-06-20T02:24:07Z</time>
      </trkpt>
      <trkpt lat="42.42181" lon="2.71706">
        <ele>1383</ele>
        <time>2021-06-20T02:24:12Z</time>
      </trkpt>
      <trkpt lat="42.42182" lon="2.71729">
        <ele>1383</ele>
        <time>2021-06-20T02:24:16Z</time>
      </trkpt>
      <trkpt lat="42.42186" lon="2.71742">
        <ele>1381</ele>
        <time>2021-06-20T02:24:19Z</time>
      </trkpt>
      <trkpt lat="42.42188" lon="2.71766">
        <ele>1380</ele>
        <time>2021-06-20T02:24:23Z</time>
      </trkpt>
      <trkpt lat="42.42194" lon="2.71785">
        <ele>1377</ele>
        <time>2021-06-20T02:24:27Z</time>
      </trkpt>
      <trkpt lat="42.4221" lon="2.71819">
        <ele>1372</ele>
        <time>2021-06-20T02:24:34Z</time>
      </trkpt>
      <trkpt lat="42.42225" lon="2.71898">
        <ele>1366</ele>
        <time>2021-06-20T02:24:48Z</time>
      </trkpt>
      <trkpt lat="42.42211" lon="2.72023">
        <ele>1357</ele>
        <time>2021-06-20T02:25:09Z</time>
      </trkpt>
      <trkpt lat="42.42213" lon="2.72042">
        <ele>1355</ele>
        <time>2021-06-20T02:25:13Z</time>
      </trkpt>
      <trkpt lat="42.42218" lon="2.72051">
        <ele>1355</ele>
        <time>2021-06-20T02:25:15Z</time>
      </trkpt>
      <trkpt lat="42.42224" lon="2.72075">
        <ele>1354</ele>
        <time>2021-06-20T02:25:19Z</time>
      </trkpt>
      <trkpt lat="42.4223" lon="2.72084">
        <ele>1354</ele>
        <time>2021-06-20T02:25:21Z</time>
      </trkpt>
      <trkpt lat="42.42233" lon="2.7211">
        <ele>1358</ele>
        <time>2021-06-20T02:25:26Z</time>
      </trkpt>
      <trkpt lat="42.42249" lon="2.72151">
        <ele>1367</ele>
        <time>2021-06-20T02:25:34Z</time>
      </trkpt>
      <trkpt lat="42.42247" lon="2.72165">
        <ele>1369</ele>
        <time>2021-06-20T02:25:36Z</time>
      </trkpt>
      <trkpt lat="42.42248" lon="2.7219">
        <ele>1372</ele>
        <time>2021-06-20T02:25:40Z</time>
      </trkpt>
      <trkpt lat="42.4226" lon="2.72231">
        <ele>1375</ele>
        <time>2021-06-20T02:25:48Z</time>
      </trkpt>
      <trkpt lat="42.42254" lon="2.72268">
        <ele>1380</ele>
        <time>2021-06-20T02:25:55Z</time>
      </trkpt>
      <trkpt lat="42.42261" lon="2.72294">
        <ele>1381</ele>
        <time>2021-06-20T02:25:59Z</time>
      </trkpt>
      <trkpt lat="42.42261" lon="2.72305">
        <ele>1382</ele>
        <time>2021-06-20T02:26:01Z</time>
      </trkpt>
      <trkpt lat="42.42271" lon="2.72329">
        <ele>1383</ele>
        <time>2021-06-20T02:26:06Z</time>
      </trkpt>
      <trkpt lat="42.42272" lon="2.72342">
        <ele>1384</ele>
        <time>2021-06-20T02:26:08Z</time>
      </trkpt>
      <trkpt lat="42.42282" lon="2.72367">
        <ele>1385</ele>
        <time>2021-06-20T02:26:13Z</time>
      </trkpt>
      <trkpt lat="42.42277" lon="2.7241">
        <ele>1386</ele>
        <time>2021-06-20T02:26:21Z</time>
      </trkpt>
      <trkpt lat="42.4228" lon="2.7242">
        <ele>1386</ele>
        <time>2021-06-20T02:26:23Z</time>
      </trkpt>
      <trkpt lat="42.4228" lon="2.72433">
        <ele>1385</ele>
        <time>2021-06-20T02:26:25Z</time>
      </trkpt>
      <trkpt lat="42.42289" lon="2.72444">
        <ele>1386</ele>
        <time>2021-06-20T02:26:28Z</time>
      </trkpt>
      <trkpt lat="42.42292" lon="2.7246">
        <ele>1385</ele>
        <time>2021-06-20T02:26:30Z</time>
      </trkpt>
      <trkpt lat="42.42298" lon="2.72466">
        <ele>1386</ele>
        <time>2021-06-20T02:26:32Z</time>
      </trkpt>
      <trkpt lat="42.42297" lon="2.72477">
        <ele>1385</ele>
        <time>2021-06-20T02:26:34Z</time>
      </trkpt>
      <trkpt lat="42.42301" lon="2.72485">
        <ele>1385</ele>
        <time>2021-06-20T02:26:36Z</time>
      </trkpt>
      <trkpt lat="42.42303" lon="2.72513">
        <ele>1385</ele>
        <time>2021-06-20T02:26:41Z</time>
      </trkpt>
      <trkpt lat="42.42298" lon="2.7253">
        <ele>1384</ele>
        <time>2021-06-20T02:26:44Z</time>
      </trkpt>
      <trkpt lat="42.42298" lon="2.72564">
        <ele>1384</ele>
        <time>2021-06-20T02:26:50Z</time>
      </trkpt>
      <trkpt lat="42.42302" lon="2.72591">
        <ele>1386</ele>
        <time>2021-06-20T02:26:54Z</time>
      </trkpt>
      <trkpt lat="42.42303" lon="2.72642">
        <ele>1395</ele>
        <time>2021-06-20T02:27:03Z</time>
      </trkpt>
      <trkpt lat="42.42302" lon="2.72655">
        <ele>1397</ele>
        <time>2021-06-20T02:27:05Z</time>
      </trkpt>
      <trkpt lat="42.42293" lon="2.72687">
        <ele>1401</ele>
        <time>2021-06-20T02:27:11Z</time>
      </trkpt>
      <trkpt lat="42.42297" lon="2.72711">
        <ele>1403</ele>
        <time>2021-06-20T02:27:16Z</time>
      </trkpt>
      <trkpt lat="42.42291" lon="2.72746">
        <ele>1408</ele>
        <time>2021-06-20T02:27:22Z</time>
      </trkpt>
      <trkpt lat="42.42277" lon="2.72778">
        <ele>1411</ele>
        <time>2021-06-20T02:27:28Z</time>
      </trkpt>
      <trkpt lat="42.42271" lon="2.72783">
        <ele>1412</ele>
        <time>2021-06-20T02:27:30Z</time>
      </trkpt>
      <trkpt lat="42.42269" lon="2.7279">
        <ele>1412</ele>
        <time>2021-06-20T02:27:31Z</time>
      </trkpt>
      <trkpt lat="42.42262" lon="2.72798">
        <ele>1414</ele>
        <time>2021-06-20T02:27:33Z</time>
      </trkpt>
      <trkpt lat="42.42265" lon="2.7281">
        <ele>1413</ele>
        <time>2021-06-20T02:27:35Z</time>
      </trkpt>
      <trkpt lat="42.42263" lon="2.72833">
        <ele>1414</ele>
        <time>2021-06-20T02:27:39Z</time>
      </trkpt>
      <trkpt lat="42.42266" lon="2.72853">
        <ele>1414</ele>
        <time>2021-06-20T02:27:43Z</time>
      </trkpt>
      <trkpt lat="42.42263" lon="2.72892">
        <ele>1413</ele>
        <time>2021-06-20T02:27:50Z</time>
      </trkpt>
      <trkpt lat="42.42268" lon="2.72907">
        <ele>1413</ele>
        <time>2021-06-20T02:27:53Z</time>
      </trkpt>
      <trkpt lat="42.42269" lon="2.72929">
        <ele>1414</ele>
        <time>2021-06-20T02:27:56Z</time>
      </trkpt>
      <trkpt lat="42.42272" lon="2.72932">
        <ele>1414</ele>
        <time>2021-06-20T02:27:57Z</time>
      </trkpt>
      <trkpt lat="42.42278" lon="2.72958">
        <ele>1416</ele>
        <time>2021-06-20T02:28:02Z</time>
      </trkpt>
      <trkpt lat="42.42291" lon="2.72983">
        <ele>1417</ele>
        <time>2021-06-20T02:28:07Z</time>
      </trkpt>
      <trkpt lat="42.423" lon="2.73009">
        <ele>1419</ele>
        <time>2021-06-20T02:28:12Z</time>
      </trkpt>
      <trkpt lat="42.42317" lon="2.73033">
        <ele>1418</ele>
        <time>2021-06-20T02:28:18Z</time>
      </trkpt>
      <trkpt lat="42.42331" lon="2.73047">
        <ele>1416</ele>
        <time>2021-06-20T02:28:22Z</time>
      </trkpt>
      <trkpt lat="42.4234" lon="2.7308">
        <ele>1413</ele>
        <time>2021-06-20T02:28:28Z</time>
      </trkpt>
      <trkpt lat="42.42349" lon="2.73092">
        <ele>1410</ele>
        <time>2021-06-20T02:28:31Z</time>
      </trkpt>
      <trkpt lat="42.42351" lon="2.73107">
        <ele>1408</ele>
        <time>2021-06-20T02:28:34Z</time>
      </trkpt>
      <trkpt lat="42.4237" lon="2.73152">
        <ele>1402</ele>
        <time>2021-06-20T02:28:42Z</time>
      </trkpt>
      <trkpt lat="42.42371" lon="2.73178">
        <ele>1401</ele>
        <time>2021-06-20T02:28:47Z</time>
      </trkpt>
      <trkpt lat="42.4238" lon="2.73215">
        <ele>1397</ele>
        <time>2021-06-20T02:28:54Z</time>
      </trkpt>
      <trkpt lat="42.42401" lon="2.73274">
        <ele>1395</ele>
        <time>2021-06-20T02:29:05Z</time>
      </trkpt>
      <trkpt lat="42.42411" lon="2.73347">
        <ele>1396</ele>
        <time>2021-06-20T02:29:18Z</time>
      </trkpt>
      <trkpt lat="42.42421" lon="2.73385">
        <ele>1396</ele>
        <time>2021-06-20T02:29:25Z</time>
      </trkpt>
      <trkpt lat="42.42427" lon="2.73433">
        <ele>1394</ele>
        <time>2021-06-20T02:29:33Z</time>
      </trkpt>
      <trkpt lat="42.42421" lon="2.73472">
        <ele>1390</ele>
        <time>2021-06-20T02:29:40Z</time>
      </trkpt>
      <trkpt lat="42.42422" lon="2.73482">
        <ele>1389</ele>
        <time>2021-06-20T02:29:42Z</time>
      </trkpt>
      <trkpt lat="42.42427" lon="2.73494">
        <ele>1387</ele>
        <time>2021-06-20T02:29:44Z</time>
      </trkpt>
      <trkpt lat="42.42429" lon="2.73514">
        <ele>1383</ele>
        <time>2021-06-20T02:29:48Z</time>
      </trkpt>
      <trkpt lat="42.42425" lon="2.73552">
        <ele>1375</ele>
        <time>2021-06-20T02:29:54Z</time>
      </trkpt>
      <trkpt lat="42.42413" lon="2.73589">
        <ele>1367</ele>
        <time>2021-06-20T02:30:01Z</time>
      </trkpt>
      <trkpt lat="42.42412" lon="2.73615">
        <ele>1360</ele>
        <time>2021-06-20T02:30:06Z</time>
      </trkpt>
      <trkpt lat="42.42397" lon="2.73654">
        <ele>1348</ele>
        <time>2021-06-20T02:30:13Z</time>
      </trkpt>
      <trkpt lat="42.42398" lon="2.73665">
        <ele>1345</ele>
        <time>2021-06-20T02:30:15Z</time>
      </trkpt>
      <trkpt lat="42.42407" lon="2.73682">
        <ele>1342</ele>
        <time>2021-06-20T02:30:19Z</time>
      </trkpt>
      <trkpt lat="42.4243" lon="2.73704">
        <ele>1334</ele>
        <time>2021-06-20T02:30:25Z</time>
      </trkpt>
      <trkpt lat="42.42424" lon="2.7372">
        <ele>1330</ele>
        <time>2021-06-20T02:30:28Z</time>
      </trkpt>
      <trkpt lat="42.42376" lon="2.73787">
        <ele>1303</ele>
        <time>2021-06-20T02:30:45Z</time>
      </trkpt>
      <trkpt lat="42.42368" lon="2.73815">
        <ele>1292</ele>
        <time>2021-06-20T02:30:50Z</time>
      </trkpt>
      <trkpt lat="42.42367" lon="2.73845">
        <ele>1283</ele>
        <time>2021-06-20T02:30:55Z</time>
      </trkpt>
      <trkpt lat="42.42369" lon="2.73854">
        <ele>1280</ele>
        <time>2021-06-20T02:30:56Z</time>
      </trkpt>
      <trkpt lat="42.42385" lon="2.73888">
        <ele>1270</ele>
        <time>2021-06-20T02:31:03Z</time>
      </trkpt>
      <trkpt lat="42.42411" lon="2.73905">
        <ele>1265</ele>
        <time>2021-06-20T02:31:10Z</time>
      </trkpt>
      <trkpt lat="42.42386" lon="2.73944">
        <ele>1253</ele>
        <time>2021-06-20T02:31:19Z</time>
      </trkpt>
      <trkpt lat="42.42384" lon="2.73952">
        <ele>1251</ele>
        <time>2021-06-20T02:31:21Z</time>
      </trkpt>
      <trkpt lat="42.42389" lon="2.73964">
        <ele>1247</ele>
        <time>2021-06-20T02:31:23Z</time>
      </trkpt>
      <trkpt lat="42.42389" lon="2.73977">
        <ele>1244</ele>
        <time>2021-06-20T02:31:25Z</time>
      </trkpt>
      <trkpt lat="42.42394" lon="2.74003">
        <ele>1238</ele>
        <time>2021-06-20T02:31:30Z</time>
      </trkpt>
      <trkpt lat="42.42409" lon="2.7398">
        <ele>1244</ele>
        <time>2021-06-20T02:31:35Z</time>
      </trkpt>
      <trkpt lat="42.42412" lon="2.73994">
        <ele>1240</ele>
        <time>2021-06-20T02:31:38Z</time>
      </trkpt>
      <trkpt lat="42.42416" lon="2.73999">
        <ele>1239</ele>
        <time>2021-06-20T02:31:39Z</time>
      </trkpt>
      <trkpt lat="42.42422" lon="2.73994">
        <ele>1239</ele>
        <time>2021-06-20T02:31:41Z</time>
      </trkpt>
      <trkpt lat="42.42436" lon="2.74007">
        <ele>1235</ele>
        <time>2021-06-20T02:31:44Z</time>
      </trkpt>
      <trkpt lat="42.42449" lon="2.73998">
        <ele>1233</ele>
        <time>2021-06-20T02:31:48Z</time>
      </trkpt>
      <trkpt lat="42.42459" lon="2.74005">
        <ele>1230</ele>
        <time>2021-06-20T02:31:51Z</time>
      </trkpt>
      <trkpt lat="42.42476" lon="2.74026">
        <ele>1226</ele>
        <time>2021-06-20T02:31:56Z</time>
      </trkpt>
      <trkpt lat="42.42489" lon="2.74029">
        <ele>1224</ele>
        <time>2021-06-20T02:31:59Z</time>
      </trkpt>
      <trkpt lat="42.42503" lon="2.74029">
        <ele>1221</ele>
        <time>2021-06-20T02:32:02Z</time>
      </trkpt>
      <trkpt lat="42.42513" lon="2.74022">
        <ele>1218</ele>
        <time>2021-06-20T02:32:05Z</time>
      </trkpt>
      <trkpt lat="42.42519" lon="2.74022">
        <ele>1216</ele>
        <time>2021-06-20T02:32:06Z</time>
      </trkpt>
      <trkpt lat="42.42522" lon="2.74027">
        <ele>1215</ele>
        <time>2021-06-20T02:32:07Z</time>
      </trkpt>
      <trkpt lat="42.42528" lon="2.7403">
        <ele>1213</ele>
        <time>2021-06-20T02:32:09Z</time>
      </trkpt>
      <trkpt lat="42.42536" lon="2.74018">
        <ele>1211</ele>
        <time>2021-06-20T02:32:12Z</time>
      </trkpt>
      <trkpt lat="42.42542" lon="2.74017">
        <ele>1209</ele>
        <time>2021-06-20T02:32:13Z</time>
      </trkpt>
      <trkpt lat="42.42547" lon="2.74024">
        <ele>1207</ele>
        <time>2021-06-20T02:32:15Z</time>
      </trkpt>
      <trkpt lat="42.42556" lon="2.74029">
        <ele>1204</ele>
        <time>2021-06-20T02:32:17Z</time>
      </trkpt>
      <trkpt lat="42.42559" lon="2.74048">
        <ele>1202</ele>
        <time>2021-06-20T02:32:20Z</time>
      </trkpt>
      <trkpt lat="42.42569" lon="2.74064">
        <ele>1197</ele>
        <time>2021-06-20T02:32:24Z</time>
      </trkpt>
      <trkpt lat="42.42573" lon="2.74082">
        <ele>1194</ele>
        <time>2021-06-20T02:32:27Z</time>
      </trkpt>
      <trkpt lat="42.42609" lon="2.74133">
        <ele>1181</ele>
        <time>2021-06-20T02:32:39Z</time>
      </trkpt>
      <trkpt lat="42.42607" lon="2.7415">
        <ele>1183</ele>
        <time>2021-06-20T02:32:42Z</time>
      </trkpt>
      <trkpt lat="42.42636" lon="2.74202">
        <ele>1174</ele>
        <time>2021-06-20T02:32:54Z</time>
      </trkpt>
      <trkpt lat="42.42662" lon="2.74242">
        <ele>1165</ele>
        <time>2021-06-20T02:33:03Z</time>
      </trkpt>
      <trkpt lat="42.42678" lon="2.74248">
        <ele>1156</ele>
        <time>2021-06-20T02:33:07Z</time>
      </trkpt>
      <trkpt lat="42.42686" lon="2.7427">
        <ele>1155</ele>
        <time>2021-06-20T02:33:11Z</time>
      </trkpt>
      <trkpt lat="42.42704" lon="2.743">
        <ele>1151</ele>
        <time>2021-06-20T02:33:18Z</time>
      </trkpt>
      <trkpt lat="42.42743" lon="2.74354">
        <ele>1136</ele>
        <time>2021-06-20T02:33:31Z</time>
      </trkpt>
      <trkpt lat="42.4274" lon="2.74373">
        <ele>1137</ele>
        <time>2021-06-20T02:33:34Z</time>
      </trkpt>
      <trkpt lat="42.42746" lon="2.7439">
        <ele>1134</ele>
        <time>2021-06-20T02:33:37Z</time>
      </trkpt>
      <trkpt lat="42.42753" lon="2.74392">
        <ele>1130</ele>
        <time>2021-06-20T02:33:39Z</time>
      </trkpt>
      <trkpt lat="42.42767" lon="2.74431">
        <ele>1122</ele>
        <time>2021-06-20T02:33:46Z</time>
      </trkpt>
      <trkpt lat="42.42767" lon="2.74449">
        <ele>1119</ele>
        <time>2021-06-20T02:33:49Z</time>
      </trkpt>
      <trkpt lat="42.42763" lon="2.74452">
        <ele>1120</ele>
        <time>2021-06-20T02:33:50Z</time>
      </trkpt>
      <trkpt lat="42.42772" lon="2.74471">
        <ele>1113</ele>
        <time>2021-06-20T02:33:54Z</time>
      </trkpt>
      <trkpt lat="42.42779" lon="2.74538">
        <ele>1106</ele>
        <time>2021-06-20T02:34:06Z</time>
      </trkpt>
      <trkpt lat="42.42801" lon="2.74579">
        <ele>1094</ele>
        <time>2021-06-20T02:34:15Z</time>
      </trkpt>
      <trkpt lat="42.42829" lon="2.74676">
        <ele>1085</ele>
        <time>2021-06-20T02:34:33Z</time>
      </trkpt>
      <trkpt lat="42.4283" lon="2.74709">
        <ele>1082</ele>
        <time>2021-06-20T02:34:38Z</time>
      </trkpt>
      <trkpt lat="42.42821" lon="2.74743">
        <ele>1085</ele>
        <time>2021-06-20T02:34:45Z</time>
      </trkpt>
      <trkpt lat="42.42825" lon="2.74766">
        <ele>1083</ele>
        <time>2021-06-20T02:34:49Z</time>
      </trkpt>
      <trkpt lat="42.42827" lon="2.74832">
        <ele>1082</ele>
        <time>2021-06-20T02:35:00Z</time>
      </trkpt>
      <trkpt lat="42.42829" lon="2.74839">
        <ele>1083</ele>
        <time>2021-06-20T02:35:01Z</time>
      </trkpt>
      <trkpt lat="42.42835" lon="2.74834">
        <ele>1078</ele>
        <time>2021-06-20T02:35:03Z</time>
      </trkpt>
      <trkpt lat="42.42841" lon="2.74846">
        <ele>1080</ele>
        <time>2021-06-20T02:35:06Z</time>
      </trkpt>
      <trkpt lat="42.42846" lon="2.74848">
        <ele>1078</ele>
        <time>2021-06-20T02:35:07Z</time>
      </trkpt>
      <trkpt lat="42.42851" lon="2.7484">
        <ele>1073</ele>
        <time>2021-06-20T02:35:09Z</time>
      </trkpt>
      <trkpt lat="42.42861" lon="2.74853">
        <ele>1073</ele>
        <time>2021-06-20T02:35:12Z</time>
      </trkpt>
      <trkpt lat="42.429" lon="2.74865">
        <ele>1062</ele>
        <time>2021-06-20T02:35:21Z</time>
      </trkpt>
      <trkpt lat="42.42918" lon="2.74862">
        <ele>1053</ele>
        <time>2021-06-20T02:35:25Z</time>
      </trkpt>
      <trkpt lat="42.42934" lon="2.74873">
        <ele>1051</ele>
        <time>2021-06-20T02:35:30Z</time>
      </trkpt>
      <trkpt lat="42.42963" lon="2.74876">
        <ele>1041</ele>
        <time>2021-06-20T02:35:36Z</time>
      </trkpt>
      <trkpt lat="42.42967" lon="2.74882">
        <ele>1042</ele>
        <time>2021-06-20T02:35:38Z</time>
      </trkpt>
      <trkpt lat="42.4298" lon="2.74885">
        <ele>1038</ele>
        <time>2021-06-20T02:35:41Z</time>
      </trkpt>
      <trkpt lat="42.43054" lon="2.74964">
        <ele>1048</ele>
        <time>2021-06-20T02:36:03Z</time>
      </trkpt>
      <trkpt lat="42.43097" lon="2.74976">
        <ele>1038</ele>
        <time>2021-06-20T02:36:13Z</time>
      </trkpt>
      <trkpt lat="42.43139" lon="2.74994">
        <ele>1027</ele>
        <time>2021-06-20T02:36:23Z</time>
      </trkpt>
      <trkpt lat="42.43168" lon="2.75019">
        <ele>1016</ele>
        <time>2021-06-20T02:36:31Z</time>
      </trkpt>
      <trkpt lat="42.43174" lon="2.7505">
        <ele>1014</ele>
        <time>2021-06-20T02:36:37Z</time>
      </trkpt>
      <trkpt lat="42.43155" lon="2.7508">
        <ele>1027</ele>
        <time>2021-06-20T02:36:44Z</time>
      </trkpt>
      <trkpt lat="42.43153" lon="2.75124">
        <ele>1027</ele>
        <time>2021-06-20T02:36:51Z</time>
      </trkpt>
      <trkpt lat="42.4316" lon="2.75156">
        <ele>1022</ele>
        <time>2021-06-20T02:36:57Z</time>
      </trkpt>
      <trkpt lat="42.43157" lon="2.75188">
        <ele>1029</ele>
        <time>2021-06-20T02:37:03Z</time>
      </trkpt>
      <trkpt lat="42.4319" lon="2.75211">
        <ele>1026</ele>
        <time>2021-06-20T02:37:11Z</time>
      </trkpt>
      <trkpt lat="42.43206" lon="2.75235">
        <ele>1032</ele>
        <time>2021-06-20T02:37:17Z</time>
      </trkpt>
      <trkpt lat="42.43256" lon="2.7522">
        <ele>1020</ele>
        <time>2021-06-20T02:37:29Z</time>
      </trkpt>
      <trkpt lat="42.43293" lon="2.75229">
        <ele>1024</ele>
        <time>2021-06-20T02:37:38Z</time>
      </trkpt>
      <trkpt lat="42.43329" lon="2.75208">
        <ele>1012</ele>
        <time>2021-06-20T02:37:47Z</time>
      </trkpt>
      <trkpt lat="42.43357" lon="2.75218">
        <ele>1017</ele>
        <time>2021-06-20T02:37:54Z</time>
      </trkpt>
      <trkpt lat="42.43525" lon="2.75201">
        <ele>1006</ele>
        <time>2021-06-20T02:38:33Z</time>
      </trkpt>
      <trkpt lat="42.43562" lon="2.75225">
        <ele>1006</ele>
        <time>2021-06-20T02:38:42Z</time>
      </trkpt>
      <trkpt lat="42.43576" lon="2.75299">
        <ele>1012</ele>
        <time>2021-06-20T02:38:56Z</time>
      </trkpt>
      <trkpt lat="42.43634" lon="2.75342">
        <ele>994</ele>
        <time>2021-06-20T02:39:11Z</time>
      </trkpt>
      <trkpt lat="42.43653" lon="2.75368">
        <ele>989</ele>
        <time>2021-06-20T02:39:17Z</time>
      </trkpt>
      <trkpt lat="42.43659" lon="2.75397">
        <ele>991</ele>
        <time>2021-06-20T02:39:23Z</time>
      </trkpt>
      <trkpt lat="42.43652" lon="2.75451">
        <ele>998</ele>
        <time>2021-06-20T02:39:32Z</time>
      </trkpt>
      <trkpt lat="42.43667" lon="2.75478">
        <ele>993</ele>
        <time>2021-06-20T02:39:38Z</time>
      </trkpt>
      <trkpt lat="42.43676" lon="2.75503">
        <ele>987</ele>
        <time>2021-06-20T02:39:43Z</time>
      </trkpt>
      <trkpt lat="42.43675" lon="2.75524">
        <ele>984</ele>
        <time>2021-06-20T02:39:46Z</time>
      </trkpt>
      <trkpt lat="42.43647" lon="2.75587">
        <ele>988</ele>
        <time>2021-06-20T02:39:59Z</time>
      </trkpt>
      <trkpt lat="42.43638" lon="2.75623">
        <ele>990</ele>
        <time>2021-06-20T02:40:06Z</time>
      </trkpt>
      <trkpt lat="42.43641" lon="2.75651">
        <ele>986</ele>
        <time>2021-06-20T02:40:10Z</time>
      </trkpt>
      <trkpt lat="42.43652" lon="2.75677">
        <ele>979</ele>
        <time>2021-06-20T02:40:16Z</time>
      </trkpt>
      <trkpt lat="42.43707" lon="2.75859">
        <ele>983</ele>
        <time>2021-06-20T02:40:49Z</time>
      </trkpt>
      <trkpt lat="42.43733" lon="2.75904">
        <ele>991</ele>
        <time>2021-06-20T02:40:59Z</time>
      </trkpt>
      <trkpt lat="42.43773" lon="2.75928">
        <ele>992</ele>
        <time>2021-06-20T02:41:10Z</time>
      </trkpt>
      <trkpt lat="42.43819" lon="2.75929">
        <ele>987</ele>
        <time>2021-06-20T02:41:20Z</time>
      </trkpt>
      <trkpt lat="42.43893" lon="2.75924">
        <ele>985</ele>
        <time>2021-06-20T02:41:38Z</time>
      </trkpt>
      <trkpt lat="42.43919" lon="2.75939">
        <ele>991</ele>
        <time>2021-06-20T02:41:44Z</time>
      </trkpt>
      <trkpt lat="42.43968" lon="2.75922">
        <ele>994</ele>
        <time>2021-06-20T02:41:56Z</time>
      </trkpt>
      <trkpt lat="42.44004" lon="2.75925">
        <ele>1000</ele>
        <time>2021-06-20T02:42:04Z</time>
      </trkpt>
      <trkpt lat="42.44053" lon="2.75934">
        <ele>1002</ele>
        <time>2021-06-20T02:42:16Z</time>
      </trkpt>
      <trkpt lat="42.44035" lon="2.7598">
        <ele>999</ele>
        <time>2021-06-20T02:42:25Z</time>
      </trkpt>
      <trkpt lat="42.4399" lon="2.7601">
        <ele>1005</ele>
        <time>2021-06-20T02:42:37Z</time>
      </trkpt>
      <trkpt lat="42.43958" lon="2.76006">
        <ele>1008</ele>
        <time>2021-06-20T02:42:44Z</time>
      </trkpt>
      <trkpt lat="42.43939" lon="2.7607">
        <ele>1008</ele>
        <time>2021-06-20T02:42:56Z</time>
      </trkpt>
      <trkpt lat="42.43881" lon="2.76189">
        <ele>1002</ele>
        <time>2021-06-20T02:43:21Z</time>
      </trkpt>
      <trkpt lat="42.43849" lon="2.76228">
        <ele>1002</ele>
        <time>2021-06-20T02:43:31Z</time>
      </trkpt>
      <trkpt lat="42.43832" lon="2.76253">
        <ele>1000</ele>
        <time>2021-06-20T02:43:37Z</time>
      </trkpt>
      <trkpt lat="42.43827" lon="2.76277">
        <ele>993</ele>
        <time>2021-06-20T02:43:41Z</time>
      </trkpt>
      <trkpt lat="42.43832" lon="2.76313">
        <ele>983</ele>
        <time>2021-06-20T02:43:47Z</time>
      </trkpt>
      <trkpt lat="42.43859" lon="2.76369">
        <ele>960</ele>
        <time>2021-06-20T02:43:59Z</time>
      </trkpt>
      <trkpt lat="42.43877" lon="2.76392">
        <ele>951</ele>
        <time>2021-06-20T02:44:04Z</time>
      </trkpt>
      <trkpt lat="42.43885" lon="2.76458">
        <ele>936</ele>
        <time>2021-06-20T02:44:16Z</time>
      </trkpt>
      <trkpt lat="42.43895" lon="2.76496">
        <ele>929</ele>
        <time>2021-06-20T02:44:23Z</time>
      </trkpt>
      <trkpt lat="42.43899" lon="2.76529">
        <ele>923</ele>
        <time>2021-06-20T02:44:29Z</time>
      </trkpt>
      <trkpt lat="42.43947" lon="2.76606">
        <ele>905</ele>
        <time>2021-06-20T02:44:46Z</time>
      </trkpt>
      <trkpt lat="42.43953" lon="2.76624">
        <ele>902</ele>
        <time>2021-06-20T02:44:49Z</time>
      </trkpt>
      <trkpt lat="42.43957" lon="2.76659">
        <ele>900</ele>
        <time>2021-06-20T02:44:56Z</time>
      </trkpt>
      <trkpt lat="42.43965" lon="2.76686">
        <ele>896</ele>
        <time>2021-06-20T02:45:01Z</time>
      </trkpt>
      <trkpt lat="42.43992" lon="2.76743">
        <ele>889</ele>
        <time>2021-06-20T02:45:12Z</time>
      </trkpt>
      <trkpt lat="42.43994" lon="2.76755">
        <ele>888</ele>
        <time>2021-06-20T02:45:14Z</time>
      </trkpt>
      <trkpt lat="42.4398" lon="2.76788">
        <ele>881</ele>
        <time>2021-06-20T02:45:21Z</time>
      </trkpt>
      <trkpt lat="42.4397" lon="2.76828">
        <ele>872</ele>
        <time>2021-06-20T02:45:28Z</time>
      </trkpt>
      <trkpt lat="42.43968" lon="2.76872">
        <ele>858</ele>
        <time>2021-06-20T02:45:36Z</time>
      </trkpt>
      <trkpt lat="42.43971" lon="2.76887">
        <ele>854</ele>
        <time>2021-06-20T02:45:38Z</time>
      </trkpt>
      <trkpt lat="42.44005" lon="2.76924">
        <ele>847</ele>
        <time>2021-06-20T02:45:49Z</time>
      </trkpt>
      <trkpt lat="42.44001" lon="2.76936">
        <ele>844</ele>
        <time>2021-06-20T02:45:51Z</time>
      </trkpt>
      <trkpt lat="42.43986" lon="2.76943">
        <ele>840</ele>
        <time>2021-06-20T02:45:55Z</time>
      </trkpt>
      <trkpt lat="42.43972" lon="2.76944">
        <ele>837</ele>
        <time>2021-06-20T02:45:58Z</time>
      </trkpt>
      <trkpt lat="42.43948" lon="2.76936">
        <ele>835</ele>
        <time>2021-06-20T02:46:04Z</time>
      </trkpt>
      <trkpt lat="42.43929" lon="2.76922">
        <ele>834</ele>
        <time>2021-06-20T02:46:09Z</time>
      </trkpt>
      <trkpt lat="42.43922" lon="2.7692">
        <ele>833</ele>
        <time>2021-06-20T02:46:10Z</time>
      </trkpt>
      <trkpt lat="42.43918" lon="2.76923">
        <ele>832</ele>
        <time>2021-06-20T02:46:11Z</time>
      </trkpt>
      <trkpt lat="42.43917" lon="2.76934">
        <ele>830</ele>
        <time>2021-06-20T02:46:13Z</time>
      </trkpt>
      <trkpt lat="42.43927" lon="2.7696">
        <ele>826</ele>
        <time>2021-06-20T02:46:18Z</time>
      </trkpt>
      <trkpt lat="42.43946" lon="2.7699">
        <ele>822</ele>
        <time>2021-06-20T02:46:25Z</time>
      </trkpt>
      <trkpt lat="42.43957" lon="2.77001">
        <ele>821</ele>
        <time>2021-06-20T02:46:28Z</time>
      </trkpt>
      <trkpt lat="42.43985" lon="2.77007">
        <ele>822</ele>
        <time>2021-06-20T02:46:35Z</time>
      </trkpt>
      <trkpt lat="42.43986" lon="2.77012">
        <ele>821</ele>
        <time>2021-06-20T02:46:36Z</time>
      </trkpt>
      <trkpt lat="42.43981" lon="2.77017">
        <ele>819</ele>
        <time>2021-06-20T02:46:37Z</time>
      </trkpt>
      <trkpt lat="42.43967" lon="2.77023">
        <ele>816</ele>
        <time>2021-06-20T02:46:41Z</time>
      </trkpt>
      <trkpt lat="42.43928" lon="2.77019">
        <ele>813</ele>
        <time>2021-06-20T02:46:50Z</time>
      </trkpt>
      <trkpt lat="42.43888" lon="2.76995">
        <ele>805</ele>
        <time>2021-06-20T02:47:00Z</time>
      </trkpt>
      <trkpt lat="42.43882" lon="2.76994">
        <ele>802</ele>
        <time>2021-06-20T02:47:02Z</time>
      </trkpt>
      <trkpt lat="42.43877" lon="2.76998">
        <ele>799</ele>
        <time>2021-06-20T02:47:03Z</time>
      </trkpt>
      <trkpt lat="42.43875" lon="2.77013">
        <ele>796</ele>
        <time>2021-06-20T02:47:06Z</time>
      </trkpt>
      <trkpt lat="42.43901" lon="2.77122">
        <ele>785</ele>
        <time>2021-06-20T02:47:25Z</time>
      </trkpt>
      <trkpt lat="42.43894" lon="2.77142">
        <ele>778</ele>
        <time>2021-06-20T02:47:29Z</time>
      </trkpt>
      <trkpt lat="42.43904" lon="2.77175">
        <ele>774</ele>
        <time>2021-06-20T02:47:35Z</time>
      </trkpt>
      <trkpt lat="42.43924" lon="2.77204">
        <ele>770</ele>
        <time>2021-06-20T02:47:42Z</time>
      </trkpt>
      <trkpt lat="42.43923" lon="2.7722">
        <ele>766</ele>
        <time>2021-06-20T02:47:45Z</time>
      </trkpt>
      <trkpt lat="42.43911" lon="2.77224">
        <ele>763</ele>
        <time>2021-06-20T02:47:48Z</time>
      </trkpt>
      <trkpt lat="42.43862" lon="2.77228">
        <ele>750</ele>
        <time>2021-06-20T02:47:59Z</time>
      </trkpt>
      <trkpt lat="42.43853" lon="2.77234">
        <ele>747</ele>
        <time>2021-06-20T02:48:02Z</time>
      </trkpt>
      <trkpt lat="42.43849" lon="2.77256">
        <ele>742</ele>
        <time>2021-06-20T02:48:05Z</time>
      </trkpt>
      <trkpt lat="42.43851" lon="2.77276">
        <ele>739</ele>
        <time>2021-06-20T02:48:09Z</time>
      </trkpt>
      <trkpt lat="42.43856" lon="2.77294">
        <ele>737</ele>
        <time>2021-06-20T02:48:12Z</time>
      </trkpt>
      <trkpt lat="42.43863" lon="2.77306">
        <ele>736</ele>
        <time>2021-06-20T02:48:15Z</time>
      </trkpt>
      <trkpt lat="42.43904" lon="2.77335">
        <ele>737</ele>
        <time>2021-06-20T02:48:26Z</time>
      </trkpt>
      <trkpt lat="42.43955" lon="2.7738">
        <ele>731</ele>
        <time>2021-06-20T02:48:40Z</time>
      </trkpt>
      <trkpt lat="42.43968" lon="2.77395">
        <ele>728</ele>
        <time>2021-06-20T02:48:44Z</time>
      </trkpt>
      <trkpt lat="42.43972" lon="2.77405">
        <ele>726</ele>
        <time>2021-06-20T02:48:46Z</time>
      </trkpt>
      <trkpt lat="42.43972" lon="2.77421">
        <ele>723</ele>
        <time>2021-06-20T02:48:49Z</time>
      </trkpt>
      <trkpt lat="42.4393" lon="2.77433">
        <ele>718</ele>
        <time>2021-06-20T02:48:59Z</time>
      </trkpt>
      <trkpt lat="42.43872" lon="2.77478">
        <ele>700</ele>
        <time>2021-06-20T02:49:14Z</time>
      </trkpt>
      <trkpt lat="42.4386" lon="2.7749">
        <ele>696</ele>
        <time>2021-06-20T02:49:18Z</time>
      </trkpt>
      <trkpt lat="42.43858" lon="2.77495">
        <ele>694</ele>
        <time>2021-06-20T02:49:19Z</time>
      </trkpt>
      <trkpt lat="42.4386" lon="2.77502">
        <ele>693</ele>
        <time>2021-06-20T02:49:20Z</time>
      </trkpt>
      <trkpt lat="42.43873" lon="2.77511">
        <ele>693</ele>
        <time>2021-06-20T02:49:23Z</time>
      </trkpt>
      <trkpt lat="42.43899" lon="2.77515">
        <ele>697</ele>
        <time>2021-06-20T02:49:30Z</time>
      </trkpt>
      <trkpt lat="42.43901" lon="2.77532">
        <ele>693</ele>
        <time>2021-06-20T02:49:33Z</time>
      </trkpt>
      <trkpt lat="42.43872" lon="2.77581">
        <ele>679</ele>
        <time>2021-06-20T02:49:43Z</time>
      </trkpt>
      <trkpt lat="42.43844" lon="2.77616">
        <ele>665</ele>
        <time>2021-06-20T02:49:52Z</time>
      </trkpt>
      <trkpt lat="42.43845" lon="2.77625">
        <ele>663</ele>
        <time>2021-06-20T02:49:54Z</time>
      </trkpt>
      <trkpt lat="42.43864" lon="2.77633">
        <ele>663</ele>
        <time>2021-06-20T02:49:58Z</time>
      </trkpt>
      <trkpt lat="42.43876" lon="2.77629">
        <ele>665</ele>
        <time>2021-06-20T02:50:01Z</time>
      </trkpt>
      <trkpt lat="42.43893" lon="2.7761">
        <ele>673</ele>
        <time>2021-06-20T02:50:06Z</time>
      </trkpt>
      <trkpt lat="42.43903" lon="2.77609">
        <ele>675</ele>
        <time>2021-06-20T02:50:09Z</time>
      </trkpt>
      <trkpt lat="42.4391" lon="2.77615">
        <ele>674</ele>
        <time>2021-06-20T02:50:11Z</time>
      </trkpt>
      <trkpt lat="42.43931" lon="2.77657">
        <ele>665</ele>
        <time>2021-06-20T02:50:19Z</time>
      </trkpt>
      <trkpt lat="42.43984" lon="2.77732">
        <ele>654</ele>
        <time>2021-06-20T02:50:37Z</time>
      </trkpt>
      <trkpt lat="42.44067" lon="2.77864">
        <ele>629</ele>
        <time>2021-06-20T02:51:07Z</time>
      </trkpt>
      <trkpt lat="42.44088" lon="2.77912">
        <ele>622</ele>
        <time>2021-06-20T02:51:17Z</time>
      </trkpt>
      <trkpt lat="42.44085" lon="2.7792">
        <ele>620</ele>
        <time>2021-06-20T02:51:18Z</time>
      </trkpt>
      <trkpt lat="42.44075" lon="2.77918">
        <ele>619</ele>
        <time>2021-06-20T02:51:21Z</time>
      </trkpt>
      <trkpt lat="42.44051" lon="2.77899">
        <ele>618</ele>
        <time>2021-06-20T02:51:27Z</time>
      </trkpt>
      <trkpt lat="42.44044" lon="2.77898">
        <ele>617</ele>
        <time>2021-06-20T02:51:29Z</time>
      </trkpt>
      <trkpt lat="42.44036" lon="2.77902">
        <ele>614</ele>
        <time>2021-06-20T02:51:31Z</time>
      </trkpt>
      <trkpt lat="42.44029" lon="2.7791">
        <ele>610</ele>
        <time>2021-06-20T02:51:33Z</time>
      </trkpt>
      <trkpt lat="42.4396" lon="2.77828">
        <ele>618</ele>
        <time>2021-06-20T02:51:54Z</time>
      </trkpt>
      <trkpt lat="42.43922" lon="2.77789">
        <ele>623</ele>
        <time>2021-06-20T02:52:06Z</time>
      </trkpt>
      <trkpt lat="42.43906" lon="2.77785">
        <ele>622</ele>
        <time>2021-06-20T02:52:09Z</time>
      </trkpt>
      <trkpt lat="42.43896" lon="2.77793">
        <ele>618</ele>
        <time>2021-06-20T02:52:12Z</time>
      </trkpt>
      <trkpt lat="42.43876" lon="2.77832">
        <ele>603</ele>
        <time>2021-06-20T02:52:20Z</time>
      </trkpt>
      <trkpt lat="42.43869" lon="2.7784">
        <ele>599</ele>
        <time>2021-06-20T02:52:22Z</time>
      </trkpt>
      <trkpt lat="42.43861" lon="2.77844">
        <ele>597</ele>
        <time>2021-06-20T02:52:24Z</time>
      </trkpt>
      <trkpt lat="42.43853" lon="2.77843">
        <ele>597</ele>
        <time>2021-06-20T02:52:26Z</time>
      </trkpt>
      <trkpt lat="42.43817" lon="2.7781">
        <ele>599</ele>
        <time>2021-06-20T02:52:36Z</time>
      </trkpt>
      <trkpt lat="42.43787" lon="2.77766">
        <ele>599</ele>
        <time>2021-06-20T02:52:47Z</time>
      </trkpt>
      <trkpt lat="42.43756" lon="2.77704">
        <ele>602</ele>
        <time>2021-06-20T02:53:00Z</time>
      </trkpt>
      <trkpt lat="42.43701" lon="2.77606">
        <ele>608</ele>
        <time>2021-06-20T02:53:21Z</time>
      </trkpt>
      <trkpt lat="42.43687" lon="2.77571">
        <ele>610</ele>
        <time>2021-06-20T02:53:28Z</time>
      </trkpt>
      <trkpt lat="42.43682" lon="2.77512">
        <ele>619</ele>
        <time>2021-06-20T02:53:38Z</time>
      </trkpt>
      <trkpt lat="42.43676" lon="2.7747">
        <ele>625</ele>
        <time>2021-06-20T02:53:45Z</time>
      </trkpt>
      <trkpt lat="42.43672" lon="2.77462">
        <ele>625</ele>
        <time>2021-06-20T02:53:47Z</time>
      </trkpt>
      <trkpt lat="42.43664" lon="2.77463">
        <ele>623</ele>
        <time>2021-06-20T02:53:49Z</time>
      </trkpt>
      <trkpt lat="42.43659" lon="2.77477">
        <ele>622</ele>
        <time>2021-06-20T02:53:52Z</time>
      </trkpt>
      <trkpt lat="42.43644" lon="2.77574">
        <ele>612</ele>
        <time>2021-06-20T02:54:09Z</time>
      </trkpt>
      <trkpt lat="42.43635" lon="2.77599">
        <ele>612</ele>
        <time>2021-06-20T02:54:13Z</time>
      </trkpt>
      <trkpt lat="42.43631" lon="2.77628">
        <ele>611</ele>
        <time>2021-06-20T02:54:19Z</time>
      </trkpt>
      <trkpt lat="42.43641" lon="2.77667">
        <ele>601</ele>
        <time>2021-06-20T02:54:26Z</time>
      </trkpt>
      <trkpt lat="42.43644" lon="2.77704">
        <ele>596</ele>
        <time>2021-06-20T02:54:32Z</time>
      </trkpt>
      <trkpt lat="42.43636" lon="2.7776">
        <ele>599</ele>
        <time>2021-06-20T02:54:42Z</time>
      </trkpt>
      <trkpt lat="42.4362" lon="2.77791">
        <ele>610</ele>
        <time>2021-06-20T02:54:48Z</time>
      </trkpt>
      <trkpt lat="42.43621" lon="2.77808">
        <ele>610</ele>
        <time>2021-06-20T02:54:51Z</time>
      </trkpt>
      <trkpt lat="42.4365" lon="2.77864">
        <ele>596</ele>
        <time>2021-06-20T02:55:03Z</time>
      </trkpt>
      <trkpt lat="42.43652" lon="2.7788">
        <ele>597</ele>
        <time>2021-06-20T02:55:06Z</time>
      </trkpt>
      <trkpt lat="42.43644" lon="2.77985">
        <ele>605</ele>
        <time>2021-06-20T02:55:24Z</time>
      </trkpt>
      <trkpt lat="42.43609" lon="2.78049">
        <ele>624</ele>
        <time>2021-06-20T02:55:38Z</time>
      </trkpt>
      <trkpt lat="42.43606" lon="2.78059">
        <ele>625</ele>
        <time>2021-06-20T02:55:40Z</time>
      </trkpt>
      <trkpt lat="42.43607" lon="2.78069">
        <ele>625</ele>
        <time>2021-06-20T02:55:42Z</time>
      </trkpt>
      <trkpt lat="42.43609" lon="2.78078">
        <ele>624</ele>
        <time>2021-06-20T02:55:43Z</time>
      </trkpt>
      <trkpt lat="42.43631" lon="2.78113">
        <ele>621</ele>
        <time>2021-06-20T02:55:51Z</time>
      </trkpt>
      <trkpt lat="42.43649" lon="2.78149">
        <ele>620</ele>
        <time>2021-06-20T02:55:59Z</time>
      </trkpt>
      <trkpt lat="42.43664" lon="2.78202">
        <ele>622</ele>
        <time>2021-06-20T02:56:08Z</time>
      </trkpt>
      <trkpt lat="42.43683" lon="2.78241">
        <ele>618</ele>
        <time>2021-06-20T02:56:16Z</time>
      </trkpt>
      <trkpt lat="42.43711" lon="2.7837">
        <ele>620</ele>
        <time>2021-06-20T02:56:40Z</time>
      </trkpt>
      <trkpt lat="42.43787" lon="2.7862">
        <ele>609</ele>
        <time>2021-06-20T02:57:26Z</time>
      </trkpt>
      <trkpt lat="42.43789" lon="2.78656">
        <ele>611</ele>
        <time>2021-06-20T02:57:32Z</time>
      </trkpt>
      <trkpt lat="42.43782" lon="2.78675">
        <ele>613</ele>
        <time>2021-06-20T02:57:36Z</time>
      </trkpt>
      <trkpt lat="42.43766" lon="2.7868">
        <ele>616</ele>
        <time>2021-06-20T02:57:40Z</time>
      </trkpt>
      <trkpt lat="42.43753" lon="2.78673">
        <ele>619</ele>
        <time>2021-06-20T02:57:43Z</time>
      </trkpt>
      <trkpt lat="42.43766" lon="2.7868">
        <ele>616</ele>
        <time>2021-06-20T02:57:46Z</time>
      </trkpt>
      <trkpt lat="42.43732" lon="2.78682">
        <ele>617</ele>
        <time>2021-06-20T02:57:54Z</time>
      </trkpt>
      <trkpt lat="42.43711" lon="2.7867">
        <ele>618</ele>
        <time>2021-06-20T02:58:00Z</time>
      </trkpt>
      <trkpt lat="42.43687" lon="2.78661">
        <ele>618</ele>
        <time>2021-06-20T02:58:05Z</time>
      </trkpt>
      <trkpt lat="42.43681" lon="2.78667">
        <ele>617</ele>
        <time>2021-06-20T02:58:07Z</time>
      </trkpt>
      <trkpt lat="42.43673" lon="2.78666">
        <ele>616</ele>
        <time>2021-06-20T02:58:09Z</time>
      </trkpt>
      <trkpt lat="42.43664" lon="2.7866">
        <ele>618</ele>
        <time>2021-06-20T02:58:11Z</time>
      </trkpt>
      <trkpt lat="42.43581" lon="2.78658">
        <ele>612</ele>
        <time>2021-06-20T02:58:31Z</time>
      </trkpt>
      <trkpt lat="42.43533" lon="2.78645">
        <ele>615</ele>
        <time>2021-06-20T02:58:42Z</time>
      </trkpt>
      <trkpt lat="42.43508" lon="2.78649">
        <ele>613</ele>
        <time>2021-06-20T02:58:48Z</time>
      </trkpt>
      <trkpt lat="42.4346" lon="2.78677">
        <ele>604</ele>
        <time>2021-06-20T02:59:00Z</time>
      </trkpt>
      <trkpt lat="42.43428" lon="2.78684">
        <ele>602</ele>
        <time>2021-06-20T02:59:08Z</time>
      </trkpt>
      <trkpt lat="42.43376" lon="2.78667">
        <ele>595</ele>
        <time>2021-06-20T02:59:20Z</time>
      </trkpt>
      <trkpt lat="42.4335" lon="2.78656">
        <ele>589</ele>
        <time>2021-06-20T02:59:27Z</time>
      </trkpt>
      <trkpt lat="42.43343" lon="2.78644">
        <ele>590</ele>
        <time>2021-06-20T02:59:29Z</time>
      </trkpt>
      <trkpt lat="42.43341" lon="2.78608">
        <ele>596</ele>
        <time>2021-06-20T02:59:36Z</time>
      </trkpt>
      <trkpt lat="42.43333" lon="2.78592">
        <ele>597</ele>
        <time>2021-06-20T02:59:39Z</time>
      </trkpt>
      <trkpt lat="42.43312" lon="2.78574">
        <ele>597</ele>
        <time>2021-06-20T02:59:45Z</time>
      </trkpt>
      <trkpt lat="42.43297" lon="2.78533">
        <ele>607</ele>
        <time>2021-06-20T02:59:53Z</time>
      </trkpt>
      <trkpt lat="42.43288" lon="2.7853">
        <ele>607</ele>
        <time>2021-06-20T02:59:55Z</time>
      </trkpt>
      <trkpt lat="42.43279" lon="2.78542">
        <ele>602</ele>
        <time>2021-06-20T02:59:58Z</time>
      </trkpt>
      <trkpt lat="42.43258" lon="2.78587">
        <ele>581</ele>
        <time>2021-06-20T03:00:07Z</time>
      </trkpt>
      <trkpt lat="42.43249" lon="2.78598">
        <ele>575</ele>
        <time>2021-06-20T03:00:10Z</time>
      </trkpt>
      <trkpt lat="42.4324" lon="2.78601">
        <ele>574</ele>
        <time>2021-06-20T03:00:12Z</time>
      </trkpt>
      <trkpt lat="42.43207" lon="2.78585">
        <ele>579</ele>
        <time>2021-06-20T03:00:20Z</time>
      </trkpt>
      <trkpt lat="42.43189" lon="2.78591">
        <ele>576</ele>
        <time>2021-06-20T03:00:24Z</time>
      </trkpt>
      <trkpt lat="42.43169" lon="2.78604">
        <ele>571</ele>
        <time>2021-06-20T03:00:30Z</time>
      </trkpt>
      <trkpt lat="42.43156" lon="2.78608">
        <ele>567</ele>
        <time>2021-06-20T03:00:33Z</time>
      </trkpt>
      <trkpt lat="42.43145" lon="2.78602">
        <ele>568</ele>
        <time>2021-06-20T03:00:36Z</time>
      </trkpt>
      <trkpt lat="42.4313" lon="2.78577">
        <ele>575</ele>
        <time>2021-06-20T03:00:41Z</time>
      </trkpt>
      <trkpt lat="42.43117" lon="2.78571">
        <ele>576</ele>
        <time>2021-06-20T03:00:44Z</time>
      </trkpt>
      <trkpt lat="42.43082" lon="2.78581">
        <ele>566</ele>
        <time>2021-06-20T03:00:53Z</time>
      </trkpt>
      <trkpt lat="42.43054" lon="2.78572">
        <ele>563</ele>
        <time>2021-06-20T03:00:59Z</time>
      </trkpt>
      <trkpt lat="42.43035" lon="2.78571">
        <ele>560</ele>
        <time>2021-06-20T03:01:04Z</time>
      </trkpt>
      <trkpt lat="42.43028" lon="2.78567">
        <ele>559</ele>
        <time>2021-06-20T03:01:06Z</time>
      </trkpt>
      <trkpt lat="42.43023" lon="2.78558">
        <ele>561</ele>
        <time>2021-06-20T03:01:08Z</time>
      </trkpt>
      <trkpt lat="42.43019" lon="2.78537">
        <ele>566</ele>
        <time>2021-06-20T03:01:11Z</time>
      </trkpt>
      <trkpt lat="42.43013" lon="2.78522">
        <ele>569</ele>
        <time>2021-06-20T03:01:14Z</time>
      </trkpt>
      <trkpt lat="42.42991" lon="2.78496">
        <ele>572</ele>
        <time>2021-06-20T03:01:21Z</time>
      </trkpt>
      <trkpt lat="42.42985" lon="2.78496">
        <ele>572</ele>
        <time>2021-06-20T03:01:22Z</time>
      </trkpt>
      <trkpt lat="42.42968" lon="2.7853">
        <ele>559</ele>
        <time>2021-06-20T03:01:29Z</time>
      </trkpt>
      <trkpt lat="42.4296" lon="2.78538">
        <ele>556</ele>
        <time>2021-06-20T03:01:32Z</time>
      </trkpt>
      <trkpt lat="42.42941" lon="2.78537">
        <ele>553</ele>
        <time>2021-06-20T03:01:36Z</time>
      </trkpt>
      <trkpt lat="42.42916" lon="2.7853">
        <ele>552</ele>
        <time>2021-06-20T03:01:42Z</time>
      </trkpt>
      <trkpt lat="42.42889" lon="2.78515">
        <ele>553</ele>
        <time>2021-06-20T03:01:49Z</time>
      </trkpt>
      <trkpt lat="42.42806" lon="2.78484">
        <ele>551</ele>
        <time>2021-06-20T03:02:09Z</time>
      </trkpt>
      <trkpt lat="42.42775" lon="2.7847">
        <ele>550</ele>
        <time>2021-06-20T03:02:17Z</time>
      </trkpt>
      <trkpt lat="42.42734" lon="2.78434">
        <ele>554</ele>
        <time>2021-06-20T03:02:28Z</time>
      </trkpt>
      <trkpt lat="42.42712" lon="2.78424">
        <ele>554</ele>
        <time>2021-06-20T03:02:34Z</time>
      </trkpt>
      <trkpt lat="42.42702" lon="2.78424">
        <ele>552</ele>
        <time>2021-06-20T03:02:36Z</time>
      </trkpt>
      <trkpt lat="42.42692" lon="2.78428">
        <ele>549</ele>
        <time>2021-06-20T03:02:38Z</time>
      </trkpt>
      <trkpt lat="42.42681" lon="2.78435">
        <ele>546</ele>
        <time>2021-06-20T03:02:41Z</time>
      </trkpt>
      <trkpt lat="42.42671" lon="2.78446">
        <ele>543</ele>
        <time>2021-06-20T03:02:44Z</time>
      </trkpt>
      <trkpt lat="42.42661" lon="2.78448">
        <ele>542</ele>
        <time>2021-06-20T03:02:47Z</time>
      </trkpt>
      <trkpt lat="42.42633" lon="2.78434">
        <ele>543</ele>
        <time>2021-06-20T03:02:54Z</time>
      </trkpt>
      <trkpt lat="42.42622" lon="2.7844">
        <ele>543</ele>
        <time>2021-06-20T03:02:56Z</time>
      </trkpt>
      <trkpt lat="42.42614" lon="2.78453">
        <ele>542</ele>
        <time>2021-06-20T03:02:59Z</time>
      </trkpt>
      <trkpt lat="42.42614" lon="2.78466">
        <ele>541</ele>
        <time>2021-06-20T03:03:01Z</time>
      </trkpt>
      <trkpt lat="42.42619" lon="2.78483">
        <ele>539</ele>
        <time>2021-06-20T03:03:05Z</time>
      </trkpt>
      <trkpt lat="42.42648" lon="2.78516">
        <ele>535</ele>
        <time>2021-06-20T03:03:13Z</time>
      </trkpt>
      <trkpt lat="42.4266" lon="2.78554">
        <ele>535</ele>
        <time>2021-06-20T03:03:21Z</time>
      </trkpt>
      <trkpt lat="42.42669" lon="2.78567">
        <ele>534</ele>
        <time>2021-06-20T03:03:24Z</time>
      </trkpt>
      <trkpt lat="42.42672" lon="2.78581">
        <ele>535</ele>
        <time>2021-06-20T03:03:26Z</time>
      </trkpt>
      <trkpt lat="42.42671" lon="2.78609">
        <ele>537</ele>
        <time>2021-06-20T03:03:31Z</time>
      </trkpt>
      <trkpt lat="42.42674" lon="2.78623">
        <ele>537</ele>
        <time>2021-06-20T03:03:34Z</time>
      </trkpt>
      <trkpt lat="42.42671" lon="2.78609">
        <ele>537</ele>
        <time>2021-06-20T03:03:36Z</time>
      </trkpt>
      <trkpt lat="42.42653" lon="2.78602">
        <ele>538</ele>
        <time>2021-06-20T03:03:40Z</time>
      </trkpt>
      <trkpt lat="42.42609" lon="2.78602">
        <ele>543</ele>
        <time>2021-06-20T03:03:51Z</time>
      </trkpt>
      <trkpt lat="42.42595" lon="2.78614">
        <ele>546</ele>
        <time>2021-06-20T03:03:55Z</time>
      </trkpt>
      <trkpt lat="42.42583" lon="2.78612">
        <ele>547</ele>
        <time>2021-06-20T03:03:57Z</time>
      </trkpt>
      <trkpt lat="42.4257" lon="2.78617">
        <ele>550</ele>
        <time>2021-06-20T03:04:01Z</time>
      </trkpt>
      <trkpt lat="42.42582" lon="2.78645">
        <ele>551</ele>
        <time>2021-06-20T03:04:06Z</time>
      </trkpt>
      <trkpt lat="42.42582" lon="2.78653">
        <ele>552</ele>
        <time>2021-06-20T03:04:07Z</time>
      </trkpt>
      <trkpt lat="42.42576" lon="2.78657">
        <ele>553</ele>
        <time>2021-06-20T03:04:09Z</time>
      </trkpt>
      <trkpt lat="42.42571" lon="2.78648">
        <ele>553</ele>
        <time>2021-06-20T03:04:11Z</time>
      </trkpt>
      <trkpt lat="42.42562" lon="2.78647">
        <ele>554</ele>
        <time>2021-06-20T03:04:13Z</time>
      </trkpt>
      <trkpt lat="42.42562" lon="2.78665">
        <ele>556</ele>
        <time>2021-06-20T03:04:16Z</time>
      </trkpt>
      <trkpt lat="42.42576" lon="2.78691">
        <ele>557</ele>
        <time>2021-06-20T03:04:22Z</time>
      </trkpt>
      <trkpt lat="42.42595" lon="2.78702">
        <ele>556</ele>
        <time>2021-06-20T03:04:27Z</time>
      </trkpt>
      <trkpt lat="42.42661" lon="2.78824">
        <ele>569</ele>
        <time>2021-06-20T03:04:53Z</time>
      </trkpt>
      <trkpt lat="42.42707" lon="2.78917">
        <ele>584</ele>
        <time>2021-06-20T03:05:12Z</time>
      </trkpt>
      <trkpt lat="42.42709" lon="2.78941">
        <ele>586</ele>
        <time>2021-06-20T03:05:16Z</time>
      </trkpt>
      <trkpt lat="42.4269" lon="2.78986">
        <ele>590</ele>
        <time>2021-06-20T03:05:25Z</time>
      </trkpt>
      <trkpt lat="42.42728" lon="2.78997">
        <ele>591</ele>
        <time>2021-06-20T03:05:34Z</time>
      </trkpt>
      <trkpt lat="42.4273" lon="2.79008">
        <ele>593</ele>
        <time>2021-06-20T03:05:36Z</time>
      </trkpt>
      <trkpt lat="42.42703" lon="2.79005">
        <ele>592</ele>
        <time>2021-06-20T03:05:42Z</time>
      </trkpt>
      <trkpt lat="42.4268" lon="2.7902">
        <ele>594</ele>
        <time>2021-06-20T03:05:48Z</time>
      </trkpt>
      <trkpt lat="42.42665" lon="2.79043">
        <ele>598</ele>
        <time>2021-06-20T03:05:54Z</time>
      </trkpt>
      <trkpt lat="42.42641" lon="2.79067">
        <ele>603</ele>
        <time>2021-06-20T03:06:01Z</time>
      </trkpt>
      <trkpt lat="42.42607" lon="2.79107">
        <ele>610</ele>
        <time>2021-06-20T03:06:11Z</time>
      </trkpt>
      <trkpt lat="42.42549" lon="2.79148">
        <ele>619</ele>
        <time>2021-06-20T03:06:26Z</time>
      </trkpt>
      <trkpt lat="42.42543" lon="2.79161">
        <ele>621</ele>
        <time>2021-06-20T03:06:29Z</time>
      </trkpt>
      <trkpt lat="42.42558" lon="2.79165">
        <ele>621</ele>
        <time>2021-06-20T03:06:33Z</time>
      </trkpt>
      <trkpt lat="42.42606" lon="2.79168">
        <ele>621</ele>
        <time>2021-06-20T03:06:44Z</time>
      </trkpt>
      <trkpt lat="42.42634" lon="2.79184">
        <ele>625</ele>
        <time>2021-06-20T03:06:51Z</time>
      </trkpt>
      <trkpt lat="42.42643" lon="2.79185">
        <ele>625</ele>
        <time>2021-06-20T03:06:53Z</time>
      </trkpt>
      <trkpt lat="42.4266" lon="2.79194">
        <ele>627</ele>
        <time>2021-06-20T03:06:57Z</time>
      </trkpt>
      <trkpt lat="42.42676" lon="2.79227">
        <ele>634</ele>
        <time>2021-06-20T03:07:04Z</time>
      </trkpt>
      <trkpt lat="42.42674" lon="2.79244">
        <ele>638</ele>
        <time>2021-06-20T03:07:07Z</time>
      </trkpt>
      <trkpt lat="42.42685" lon="2.79267">
        <ele>643</ele>
        <time>2021-06-20T03:07:12Z</time>
      </trkpt>
      <trkpt lat="42.42695" lon="2.7928">
        <ele>645</ele>
        <time>2021-06-20T03:07:15Z</time>
      </trkpt>
      <trkpt lat="42.42735" lon="2.79311">
        <ele>647</ele>
        <time>2021-06-20T03:07:26Z</time>
      </trkpt>
      <trkpt lat="42.42752" lon="2.79314">
        <ele>646</ele>
        <time>2021-06-20T03:07:30Z</time>
      </trkpt>
      <trkpt lat="42.42757" lon="2.7931">
        <ele>646</ele>
        <time>2021-06-20T03:07:31Z</time>
      </trkpt>
      <trkpt lat="42.42758" lon="2.79304">
        <ele>645</ele>
        <time>2021-06-20T03:07:32Z</time>
      </trkpt>
      <trkpt lat="42.42751" lon="2.79261">
        <ele>635</ele>
        <time>2021-06-20T03:07:40Z</time>
      </trkpt>
      <trkpt lat="42.42756" lon="2.79259">
        <ele>636</ele>
        <time>2021-06-20T03:07:41Z</time>
      </trkpt>
      <trkpt lat="42.42778" lon="2.792">
        <ele>633</ele>
        <time>2021-06-20T03:07:52Z</time>
      </trkpt>
      <trkpt lat="42.42831" lon="2.79124">
        <ele>639</ele>
        <time>2021-06-20T03:08:10Z</time>
      </trkpt>
      <trkpt lat="42.42848" lon="2.79056">
        <ele>635</ele>
        <time>2021-06-20T03:08:23Z</time>
      </trkpt>
      <trkpt lat="42.42872" lon="2.78996">
        <ele>632</ele>
        <time>2021-06-20T03:08:35Z</time>
      </trkpt>
      <trkpt lat="42.4288" lon="2.78983">
        <ele>631</ele>
        <time>2021-06-20T03:08:38Z</time>
      </trkpt>
      <trkpt lat="42.42894" lon="2.78972">
        <ele>630</ele>
        <time>2021-06-20T03:08:41Z</time>
      </trkpt>
      <trkpt lat="42.42905" lon="2.78978">
        <ele>634</ele>
        <time>2021-06-20T03:08:44Z</time>
      </trkpt>
      <trkpt lat="42.4291" lon="2.7899">
        <ele>639</ele>
        <time>2021-06-20T03:08:46Z</time>
      </trkpt>
      <trkpt lat="42.42891" lon="2.79013">
        <ele>640</ele>
        <time>2021-06-20T03:08:52Z</time>
      </trkpt>
      <trkpt lat="42.42875" lon="2.79058">
        <ele>644</ele>
        <time>2021-06-20T03:09:01Z</time>
      </trkpt>
      <trkpt lat="42.4286" lon="2.79138">
        <ele>651</ele>
        <time>2021-06-20T03:09:15Z</time>
      </trkpt>
      <trkpt lat="42.42824" lon="2.79239">
        <ele>655</ele>
        <time>2021-06-20T03:09:35Z</time>
      </trkpt>
      <trkpt lat="42.42811" lon="2.79315">
        <ele>660</ele>
        <time>2021-06-20T03:09:48Z</time>
      </trkpt>
      <trkpt lat="42.42796" lon="2.7935">
        <ele>662</ele>
        <time>2021-06-20T03:09:55Z</time>
      </trkpt>
      <trkpt lat="42.428" lon="2.79367">
        <ele>665</ele>
        <time>2021-06-20T03:09:58Z</time>
      </trkpt>
      <trkpt lat="42.4282" lon="2.79345">
        <ele>666</ele>
        <time>2021-06-20T03:10:04Z</time>
      </trkpt>
      <trkpt lat="42.42831" lon="2.79297">
        <ele>663</ele>
        <time>2021-06-20T03:10:13Z</time>
      </trkpt>
      <trkpt lat="42.42866" lon="2.79207">
        <ele>664</ele>
        <time>2021-06-20T03:10:30Z</time>
      </trkpt>
      <trkpt lat="42.42877" lon="2.79184">
        <ele>664</ele>
        <time>2021-06-20T03:10:35Z</time>
      </trkpt>
      <trkpt lat="42.42922" lon="2.79113">
        <ele>668</ele>
        <time>2021-06-20T03:10:51Z</time>
      </trkpt>
      <trkpt lat="42.4294" lon="2.79114">
        <ele>667</ele>
        <time>2021-06-20T03:10:55Z</time>
      </trkpt>
      <trkpt lat="42.42968" lon="2.79126">
        <ele>669</ele>
        <time>2021-06-20T03:11:02Z</time>
      </trkpt>
      <trkpt lat="42.42994" lon="2.79143">
        <ele>673</ele>
        <time>2021-06-20T03:11:09Z</time>
      </trkpt>
      <trkpt lat="42.43004" lon="2.79155">
        <ele>674</ele>
        <time>2021-06-20T03:11:12Z</time>
      </trkpt>
      <trkpt lat="42.43014" lon="2.79173">
        <ele>674</ele>
        <time>2021-06-20T03:11:16Z</time>
      </trkpt>
      <trkpt lat="42.43017" lon="2.79234">
        <ele>677</ele>
        <time>2021-06-20T03:11:26Z</time>
      </trkpt>
      <trkpt lat="42.43011" lon="2.79343">
        <ele>683</ele>
        <time>2021-06-20T03:11:45Z</time>
      </trkpt>
      <trkpt lat="42.43" lon="2.79366">
        <ele>685</ele>
        <time>2021-06-20T03:11:50Z</time>
      </trkpt>
      <trkpt lat="42.42979" lon="2.7939">
        <ele>683</ele>
        <time>2021-06-20T03:11:56Z</time>
      </trkpt>
      <trkpt lat="42.42977" lon="2.7944">
        <ele>683</ele>
        <time>2021-06-20T03:12:05Z</time>
      </trkpt>
      <trkpt lat="42.42971" lon="2.79469">
        <ele>685</ele>
        <time>2021-06-20T03:12:10Z</time>
      </trkpt>
      <trkpt lat="42.42956" lon="2.79493">
        <ele>687</ele>
        <time>2021-06-20T03:12:16Z</time>
      </trkpt>
      <trkpt lat="42.42992" lon="2.79519">
        <ele>690</ele>
        <time>2021-06-20T03:12:25Z</time>
      </trkpt>
      <trkpt lat="42.43061" lon="2.79625">
        <ele>703</ele>
        <time>2021-06-20T03:12:50Z</time>
      </trkpt>
      <trkpt lat="42.43136" lon="2.79663">
        <ele>704</ele>
        <time>2021-06-20T03:13:08Z</time>
      </trkpt>
      <trkpt lat="42.43191" lon="2.79708">
        <ele>709</ele>
        <time>2021-06-20T03:13:23Z</time>
      </trkpt>
      <trkpt lat="42.43188" lon="2.79732">
        <ele>712</ele>
        <time>2021-06-20T03:13:27Z</time>
      </trkpt>
      <trkpt lat="42.43172" lon="2.79783">
        <ele>717</ele>
        <time>2021-06-20T03:13:37Z</time>
      </trkpt>
      <trkpt lat="42.43169" lon="2.7983">
        <ele>720</ele>
        <time>2021-06-20T03:13:45Z</time>
      </trkpt>
      <trkpt lat="42.43174" lon="2.79855">
        <ele>718</ele>
        <time>2021-06-20T03:13:50Z</time>
      </trkpt>
      <trkpt lat="42.43165" lon="2.79931">
        <ele>718</ele>
        <time>2021-06-20T03:14:03Z</time>
      </trkpt>
      <trkpt lat="42.43188" lon="2.80031">
        <ele>722</ele>
        <time>2021-06-20T03:14:21Z</time>
      </trkpt>
      <trkpt lat="42.43208" lon="2.80031">
        <ele>721</ele>
        <time>2021-06-20T03:14:26Z</time>
      </trkpt>
      <trkpt lat="42.43234" lon="2.80042">
        <ele>722</ele>
        <time>2021-06-20T03:14:32Z</time>
      </trkpt>
      <trkpt lat="42.43251" lon="2.80032">
        <ele>720</ele>
        <time>2021-06-20T03:14:36Z</time>
      </trkpt>
      <trkpt lat="42.43278" lon="2.8004">
        <ele>720</ele>
        <time>2021-06-20T03:14:43Z</time>
      </trkpt>
      <trkpt lat="42.43329" lon="2.80087">
        <ele>725</ele>
        <time>2021-06-20T03:14:57Z</time>
      </trkpt>
      <trkpt lat="42.43446" lon="2.80119">
        <ele>735</ele>
        <time>2021-06-20T03:15:25Z</time>
      </trkpt>
      <trkpt lat="42.43468" lon="2.80165">
        <ele>740</ele>
        <time>2021-06-20T03:15:35Z</time>
      </trkpt>
      <trkpt lat="42.43482" lon="2.80248">
        <ele>739</ele>
        <time>2021-06-20T03:15:49Z</time>
      </trkpt>
      <trkpt lat="42.43519" lon="2.80304">
        <ele>734</ele>
        <time>2021-06-20T03:16:02Z</time>
      </trkpt>
      <trkpt lat="42.43563" lon="2.80412">
        <ele>720</ele>
        <time>2021-06-20T03:16:23Z</time>
      </trkpt>
      <trkpt lat="42.4353" lon="2.80555">
        <ele>719</ele>
        <time>2021-06-20T03:16:49Z</time>
      </trkpt>
      <trkpt lat="42.4354" lon="2.80599">
        <ele>716</ele>
        <time>2021-06-20T03:16:57Z</time>
      </trkpt>
      <trkpt lat="42.43646" lon="2.80572">
        <ele>701</ele>
        <time>2021-06-20T03:17:22Z</time>
      </trkpt>
      <trkpt lat="42.43701" lon="2.80596">
        <ele>698</ele>
        <time>2021-06-20T03:17:36Z</time>
      </trkpt>
      <trkpt lat="42.43789" lon="2.80672">
        <ele>692</ele>
        <time>2021-06-20T03:18:00Z</time>
      </trkpt>
      <trkpt lat="42.43824" lon="2.80718">
        <ele>688</ele>
        <time>2021-06-20T03:18:12Z</time>
      </trkpt>
      <trkpt lat="42.43855" lon="2.80816">
        <ele>685</ele>
        <time>2021-06-20T03:18:30Z</time>
      </trkpt>
      <trkpt lat="42.43859" lon="2.80927">
        <ele>680</ele>
        <time>2021-06-20T03:18:49Z</time>
      </trkpt>
      <trkpt lat="42.43844" lon="2.80998">
        <ele>681</ele>
        <time>2021-06-20T03:19:02Z</time>
      </trkpt>
      <trkpt lat="42.43852" lon="2.81025">
        <ele>682</ele>
        <time>2021-06-20T03:19:07Z</time>
      </trkpt>
      <trkpt lat="42.43949" lon="2.81124">
        <ele>680</ele>
        <time>2021-06-20T03:19:35Z</time>
      </trkpt>
      <trkpt lat="42.43988" lon="2.81109">
        <ele>672</ele>
        <time>2021-06-20T03:19:45Z</time>
      </trkpt>
      <trkpt lat="42.44039" lon="2.81114">
        <ele>669</ele>
        <time>2021-06-20T03:19:57Z</time>
      </trkpt>
      <trkpt lat="42.44049" lon="2.81137">
        <ele>671</ele>
        <time>2021-06-20T03:20:01Z</time>
      </trkpt>
      <trkpt lat="42.44091" lon="2.81203">
        <ele>673</ele>
        <time>2021-06-20T03:20:16Z</time>
      </trkpt>
      <trkpt lat="42.44105" lon="2.81243">
        <ele>673</ele>
        <time>2021-06-20T03:20:24Z</time>
      </trkpt>
      <trkpt lat="42.441" lon="2.81261">
        <ele>674</ele>
        <time>2021-06-20T03:20:27Z</time>
      </trkpt>
      <trkpt lat="42.44083" lon="2.81283">
        <ele>678</ele>
        <time>2021-06-20T03:20:33Z</time>
      </trkpt>
      <trkpt lat="42.44076" lon="2.81302">
        <ele>680</ele>
        <time>2021-06-20T03:20:36Z</time>
      </trkpt>
      <trkpt lat="42.44077" lon="2.81325">
        <ele>681</ele>
        <time>2021-06-20T03:20:40Z</time>
      </trkpt>
      <trkpt lat="42.44085" lon="2.81355">
        <ele>681</ele>
        <time>2021-06-20T03:20:46Z</time>
      </trkpt>
      <trkpt lat="42.44133" lon="2.81444">
        <ele>678</ele>
        <time>2021-06-20T03:21:05Z</time>
      </trkpt>
      <trkpt lat="42.44144" lon="2.81483">
        <ele>678</ele>
        <time>2021-06-20T03:21:12Z</time>
      </trkpt>
      <trkpt lat="42.44143" lon="2.81526">
        <ele>679</ele>
        <time>2021-06-20T03:21:19Z</time>
      </trkpt>
      <trkpt lat="42.44125" lon="2.81583">
        <ele>682</ele>
        <time>2021-06-20T03:21:30Z</time>
      </trkpt>
      <trkpt lat="42.44123" lon="2.81606">
        <ele>681</ele>
        <time>2021-06-20T03:21:34Z</time>
      </trkpt>
      <trkpt lat="42.44124" lon="2.81655">
        <ele>679</ele>
        <time>2021-06-20T03:21:43Z</time>
      </trkpt>
      <trkpt lat="42.44147" lon="2.81694">
        <ele>678</ele>
        <time>2021-06-20T03:21:51Z</time>
      </trkpt>
      <trkpt lat="42.44161" lon="2.81705">
        <ele>678</ele>
        <time>2021-06-20T03:21:55Z</time>
      </trkpt>
      <trkpt lat="42.44176" lon="2.81712">
        <ele>678</ele>
        <time>2021-06-20T03:21:59Z</time>
      </trkpt>
      <trkpt lat="42.44198" lon="2.81738">
        <ele>678</ele>
        <time>2021-06-20T03:22:05Z</time>
      </trkpt>
      <trkpt lat="42.44187" lon="2.81759">
        <ele>680</ele>
        <time>2021-06-20T03:22:10Z</time>
      </trkpt>
      <trkpt lat="42.44159" lon="2.81839">
        <ele>685</ele>
        <time>2021-06-20T03:22:25Z</time>
      </trkpt>
      <trkpt lat="42.44118" lon="2.81907">
        <ele>692</ele>
        <time>2021-06-20T03:22:40Z</time>
      </trkpt>
      <trkpt lat="42.44056" lon="2.81973">
        <ele>699</ele>
        <time>2021-06-20T03:22:59Z</time>
      </trkpt>
      <trkpt lat="42.44056" lon="2.82061">
        <ele>703</ele>
        <time>2021-06-20T03:23:14Z</time>
      </trkpt>
      <trkpt lat="42.44016" lon="2.82212">
        <ele>713</ele>
        <time>2021-06-20T03:23:42Z</time>
      </trkpt>
      <trkpt lat="42.43938" lon="2.82379">
        <ele>718</ele>
        <time>2021-06-20T03:24:16Z</time>
      </trkpt>
      <trkpt lat="42.43912" lon="2.8255">
        <ele>717</ele>
        <time>2021-06-20T03:24:46Z</time>
      </trkpt>
      <trkpt lat="42.43934" lon="2.82678">
        <ele>713</ele>
        <time>2021-06-20T03:25:08Z</time>
      </trkpt>
      <trkpt lat="42.44003" lon="2.82697">
        <ele>712</ele>
        <time>2021-06-20T03:25:25Z</time>
      </trkpt>
      <trkpt lat="42.44189" lon="2.82826">
        <ele>704</ele>
        <time>2021-06-20T03:26:14Z</time>
      </trkpt>
      <trkpt lat="42.4423" lon="2.82839">
        <ele>700</ele>
        <time>2021-06-20T03:26:23Z</time>
      </trkpt>
      <trkpt lat="42.4428" lon="2.82945">
        <ele>695</ele>
        <time>2021-06-20T03:26:45Z</time>
      </trkpt>
      <trkpt lat="42.44303" lon="2.82951">
        <ele>692</ele>
        <time>2021-06-20T03:26:51Z</time>
      </trkpt>
      <trkpt lat="42.44362" lon="2.82937">
        <ele>684</ele>
        <time>2021-06-20T03:27:05Z</time>
      </trkpt>
      <trkpt lat="42.44475" lon="2.82986">
        <ele>673</ele>
        <time>2021-06-20T03:27:32Z</time>
      </trkpt>
      <trkpt lat="42.44486" lon="2.83022">
        <ele>672</ele>
        <time>2021-06-20T03:27:39Z</time>
      </trkpt>
      <trkpt lat="42.4447" lon="2.8307">
        <ele>673</ele>
        <time>2021-06-20T03:27:48Z</time>
      </trkpt>
      <trkpt lat="42.44494" lon="2.83136">
        <ele>669</ele>
        <time>2021-06-20T03:28:01Z</time>
      </trkpt>
      <trkpt lat="42.44493" lon="2.83117">
        <ele>669</ele>
        <time>2021-06-20T03:28:04Z</time>
      </trkpt>
      <trkpt lat="42.44494" lon="2.83136">
        <ele>669</ele>
        <time>2021-06-20T03:28:07Z</time>
      </trkpt>
      <trkpt lat="42.44569" lon="2.8314">
        <ele>669</ele>
        <time>2021-06-20T03:28:25Z</time>
      </trkpt>
      <trkpt lat="42.44646" lon="2.83171">
        <ele>669</ele>
        <time>2021-06-20T03:28:44Z</time>
      </trkpt>
      <trkpt lat="42.44703" lon="2.83155">
        <ele>661</ele>
        <time>2021-06-20T03:28:57Z</time>
      </trkpt>
      <trkpt lat="42.44777" lon="2.83104">
        <ele>655</ele>
        <time>2021-06-20T03:29:17Z</time>
      </trkpt>
      <trkpt lat="42.44925" lon="2.8295">
        <ele>647</ele>
        <time>2021-06-20T03:30:00Z</time>
      </trkpt>
      <trkpt lat="42.44932" lon="2.82957">
        <ele>644</ele>
        <time>2021-06-20T03:30:02Z</time>
      </trkpt>
      <trkpt lat="42.4486" lon="2.83073">
        <ele>640</ele>
        <time>2021-06-20T03:30:28Z</time>
      </trkpt>
      <trkpt lat="42.44848" lon="2.83156">
        <ele>627</ele>
        <time>2021-06-20T03:30:43Z</time>
      </trkpt>
      <trkpt lat="42.44803" lon="2.83257">
        <ele>623</ele>
        <time>2021-06-20T03:31:03Z</time>
      </trkpt>
      <trkpt lat="42.44811" lon="2.83295">
        <ele>620</ele>
        <time>2021-06-20T03:31:10Z</time>
      </trkpt>
      <trkpt lat="42.44827" lon="2.83311">
        <ele>617</ele>
        <time>2021-06-20T03:31:15Z</time>
      </trkpt>
      <trkpt lat="42.44909" lon="2.83288">
        <ele>611</ele>
        <time>2021-06-20T03:31:34Z</time>
      </trkpt>
      <trkpt lat="42.4496" lon="2.8323">
        <ele>605</ele>
        <time>2021-06-20T03:31:50Z</time>
      </trkpt>
      <trkpt lat="42.45009" lon="2.83201">
        <ele>599</ele>
        <time>2021-06-20T03:32:02Z</time>
      </trkpt>
      <trkpt lat="42.45041" lon="2.83193">
        <ele>595</ele>
        <time>2021-06-20T03:32:10Z</time>
      </trkpt>
      <trkpt lat="42.45069" lon="2.83201">
        <ele>593</ele>
        <time>2021-06-20T03:32:16Z</time>
      </trkpt>
      <trkpt lat="42.45085" lon="2.83197">
        <ele>591</ele>
        <time>2021-06-20T03:32:20Z</time>
      </trkpt>
      <trkpt lat="42.45098" lon="2.8318">
        <ele>590</ele>
        <time>2021-06-20T03:32:25Z</time>
      </trkpt>
      <trkpt lat="42.45113" lon="2.83152">
        <ele>587</ele>
        <time>2021-06-20T03:32:30Z</time>
      </trkpt>
      <trkpt lat="42.45155" lon="2.83118">
        <ele>583</ele>
        <time>2021-06-20T03:32:42Z</time>
      </trkpt>
      <trkpt lat="42.45193" lon="2.83058">
        <ele>574</ele>
        <time>2021-06-20T03:32:56Z</time>
      </trkpt>
      <trkpt lat="42.45269" lon="2.83011">
        <ele>559</ele>
        <time>2021-06-20T03:33:15Z</time>
      </trkpt>
      <trkpt lat="42.45299" lon="2.83025">
        <ele>556</ele>
        <time>2021-06-20T03:33:22Z</time>
      </trkpt>
      <trkpt lat="42.45332" lon="2.83091">
        <ele>559</ele>
        <time>2021-06-20T03:33:36Z</time>
      </trkpt>
      <trkpt lat="42.4536" lon="2.8311">
        <ele>554</ele>
        <time>2021-06-20T03:33:43Z</time>
      </trkpt>
      <trkpt lat="42.45397" lon="2.83162">
        <ele>550</ele>
        <time>2021-06-20T03:33:56Z</time>
      </trkpt>
      <trkpt lat="42.45441" lon="2.83265">
        <ele>538</ele>
        <time>2021-06-20T03:34:16Z</time>
      </trkpt>
      <trkpt lat="42.45448" lon="2.83317">
        <ele>539</ele>
        <time>2021-06-20T03:34:26Z</time>
      </trkpt>
      <trkpt lat="42.45524" lon="2.83452">
        <ele>531</ele>
        <time>2021-06-20T03:34:55Z</time>
      </trkpt>
      <trkpt lat="42.45631" lon="2.83438">
        <ele>514</ele>
        <time>2021-06-20T03:35:20Z</time>
      </trkpt>
      <trkpt lat="42.45669" lon="2.83418">
        <ele>509</ele>
        <time>2021-06-20T03:35:29Z</time>
      </trkpt>
      <trkpt lat="42.4575" lon="2.83304">
        <ele>496</ele>
        <time>2021-06-20T03:35:57Z</time>
      </trkpt>
      <trkpt lat="42.45786" lon="2.83284">
        <ele>488</ele>
        <time>2021-06-20T03:36:06Z</time>
      </trkpt>
      <trkpt lat="42.45817" lon="2.83338">
        <ele>491</ele>
        <time>2021-06-20T03:36:18Z</time>
      </trkpt>
      <trkpt lat="42.458" lon="2.83552">
        <ele>480</ele>
        <time>2021-06-20T03:36:55Z</time>
      </trkpt>
      <trkpt lat="42.45812" lon="2.83646">
        <ele>467</ele>
        <time>2021-06-20T03:37:11Z</time>
      </trkpt>
      <trkpt lat="42.45786" lon="2.83689">
        <ele>471</ele>
        <time>2021-06-20T03:37:21Z</time>
      </trkpt>
      <trkpt lat="42.4581" lon="2.83772">
        <ele>464</ele>
        <time>2021-06-20T03:37:36Z</time>
      </trkpt>
      <trkpt lat="42.45819" lon="2.83788">
        <ele>464</ele>
        <time>2021-06-20T03:37:40Z</time>
      </trkpt>
      <trkpt lat="42.45828" lon="2.83795">
        <ele>463</ele>
        <time>2021-06-20T03:37:42Z</time>
      </trkpt>
      <trkpt lat="42.45853" lon="2.8384">
        <ele>469</ele>
        <time>2021-06-20T03:37:52Z</time>
      </trkpt>
      <trkpt lat="42.45859" lon="2.83858">
        <ele>471</ele>
        <time>2021-06-20T03:37:55Z</time>
      </trkpt>
      <trkpt lat="42.45856" lon="2.83888">
        <ele>472</ele>
        <time>2021-06-20T03:38:00Z</time>
      </trkpt>
      <trkpt lat="42.45861" lon="2.83917">
        <ele>475</ele>
        <time>2021-06-20T03:38:05Z</time>
      </trkpt>
      <trkpt lat="42.45877" lon="2.83952">
        <ele>479</ele>
        <time>2021-06-20T03:38:12Z</time>
      </trkpt>
      <trkpt lat="42.45893" lon="2.83957">
        <ele>482</ele>
        <time>2021-06-20T03:38:16Z</time>
      </trkpt>
      <trkpt lat="42.45918" lon="2.83984">
        <ele>488</ele>
        <time>2021-06-20T03:38:24Z</time>
      </trkpt>
      <trkpt lat="42.4589" lon="2.84073">
        <ele>477</ele>
        <time>2021-06-20T03:38:40Z</time>
      </trkpt>
      <trkpt lat="42.45863" lon="2.84196">
        <ele>465</ele>
        <time>2021-06-20T03:39:03Z</time>
      </trkpt>
      <trkpt lat="42.45861" lon="2.84217">
        <ele>464</ele>
        <time>2021-06-20T03:39:06Z</time>
      </trkpt>
      <trkpt lat="42.45845" lon="2.84239">
        <ele>465</ele>
        <time>2021-06-20T03:39:12Z</time>
      </trkpt>
      <trkpt lat="42.45833" lon="2.84269">
        <ele>465</ele>
        <time>2021-06-20T03:39:17Z</time>
      </trkpt>
      <trkpt lat="42.45831" lon="2.84292">
        <ele>463</ele>
        <time>2021-06-20T03:39:21Z</time>
      </trkpt>
      <trkpt lat="42.45832" lon="2.84335">
        <ele>460</ele>
        <time>2021-06-20T03:39:29Z</time>
      </trkpt>
      <trkpt lat="42.45825" lon="2.84376">
        <ele>454</ele>
        <time>2021-06-20T03:39:36Z</time>
      </trkpt>
      <trkpt lat="42.45821" lon="2.84387">
        <ele>452</ele>
        <time>2021-06-20T03:39:38Z</time>
      </trkpt>
      <trkpt lat="42.45824" lon="2.84415">
        <ele>450</ele>
        <time>2021-06-20T03:39:43Z</time>
      </trkpt>
      <trkpt lat="42.45806" lon="2.84491">
        <ele>437</ele>
        <time>2021-06-20T03:39:57Z</time>
      </trkpt>
      <trkpt lat="42.45792" lon="2.84498">
        <ele>435</ele>
        <time>2021-06-20T03:40:00Z</time>
      </trkpt>
      <trkpt lat="42.45778" lon="2.84493">
        <ele>435</ele>
        <time>2021-06-20T03:40:04Z</time>
      </trkpt>
      <trkpt lat="42.45765" lon="2.84498">
        <ele>434</ele>
        <time>2021-06-20T03:40:07Z</time>
      </trkpt>
      <trkpt lat="42.4575" lon="2.84534">
        <ele>430</ele>
        <time>2021-06-20T03:40:14Z</time>
      </trkpt>
      <trkpt lat="42.45738" lon="2.84547">
        <ele>424</ele>
        <time>2021-06-20T03:40:18Z</time>
      </trkpt>
      <trkpt lat="42.45728" lon="2.84565">
        <ele>420</ele>
        <time>2021-06-20T03:40:21Z</time>
      </trkpt>
      <trkpt lat="42.45723" lon="2.84593">
        <ele>416</ele>
        <time>2021-06-20T03:40:26Z</time>
      </trkpt>
      <trkpt lat="42.45714" lon="2.84603">
        <ele>413</ele>
        <time>2021-06-20T03:40:29Z</time>
      </trkpt>
      <trkpt lat="42.45707" lon="2.84621">
        <ele>409</ele>
        <time>2021-06-20T03:40:33Z</time>
      </trkpt>
      <trkpt lat="42.45695" lon="2.84732">
        <ele>396</ele>
        <time>2021-06-20T03:40:52Z</time>
      </trkpt>
      <trkpt lat="42.457" lon="2.84749">
        <ele>395</ele>
        <time>2021-06-20T03:40:55Z</time>
      </trkpt>
      <trkpt lat="42.45709" lon="2.84765">
        <ele>393</ele>
        <time>2021-06-20T03:40:59Z</time>
      </trkpt>
      <trkpt lat="42.45706" lon="2.84777">
        <ele>391</ele>
        <time>2021-06-20T03:41:01Z</time>
      </trkpt>
      <trkpt lat="42.45706" lon="2.84815">
        <ele>386</ele>
        <time>2021-06-20T03:41:07Z</time>
      </trkpt>
      <trkpt lat="42.45697" lon="2.84829">
        <ele>385</ele>
        <time>2021-06-20T03:41:10Z</time>
      </trkpt>
      <trkpt lat="42.45697" lon="2.84852">
        <ele>381</ele>
        <time>2021-06-20T03:41:14Z</time>
      </trkpt>
      <trkpt lat="42.45692" lon="2.84871">
        <ele>378</ele>
        <time>2021-06-20T03:41:18Z</time>
      </trkpt>
      <trkpt lat="42.45683" lon="2.84877">
        <ele>378</ele>
        <time>2021-06-20T03:41:20Z</time>
      </trkpt>
      <trkpt lat="42.45662" lon="2.84913">
        <ele>374</ele>
        <time>2021-06-20T03:41:28Z</time>
      </trkpt>
      <trkpt lat="42.45644" lon="2.84928">
        <ele>370</ele>
        <time>2021-06-20T03:41:33Z</time>
      </trkpt>
      <trkpt lat="42.45642" lon="2.84946">
        <ele>368</ele>
        <time>2021-06-20T03:41:36Z</time>
      </trkpt>
      <trkpt lat="42.45637" lon="2.84961">
        <ele>367</ele>
        <time>2021-06-20T03:41:39Z</time>
      </trkpt>
      <trkpt lat="42.4562" lon="2.84988">
        <ele>366</ele>
        <time>2021-06-20T03:41:45Z</time>
      </trkpt>
      <trkpt lat="42.45608" lon="2.8502">
        <ele>364</ele>
        <time>2021-06-20T03:41:51Z</time>
      </trkpt>
      <trkpt lat="42.45576" lon="2.85083">
        <ele>359</ele>
        <time>2021-06-20T03:42:05Z</time>
      </trkpt>
      <trkpt lat="42.45569" lon="2.85119">
        <ele>354</ele>
        <time>2021-06-20T03:42:11Z</time>
      </trkpt>
      <trkpt lat="42.45558" lon="2.85132">
        <ele>351</ele>
        <time>2021-06-20T03:42:14Z</time>
      </trkpt>
      <trkpt lat="42.45537" lon="2.85204">
        <ele>345</ele>
        <time>2021-06-20T03:42:28Z</time>
      </trkpt>
      <trkpt lat="42.45528" lon="2.85216">
        <ele>344</ele>
        <time>2021-06-20T03:42:31Z</time>
      </trkpt>
      <trkpt lat="42.45513" lon="2.85254">
        <ele>343</ele>
        <time>2021-06-20T03:42:38Z</time>
      </trkpt>
      <trkpt lat="42.45506" lon="2.85263">
        <ele>342</ele>
        <time>2021-06-20T03:42:40Z</time>
      </trkpt>
      <trkpt lat="42.45504" lon="2.85274">
        <ele>341</ele>
        <time>2021-06-20T03:42:42Z</time>
      </trkpt>
      <trkpt lat="42.45508" lon="2.85287">
        <ele>340</ele>
        <time>2021-06-20T03:42:45Z</time>
      </trkpt>
      <trkpt lat="42.45503" lon="2.85325">
        <ele>337</ele>
        <time>2021-06-20T03:42:51Z</time>
      </trkpt>
      <trkpt lat="42.45489" lon="2.85354">
        <ele>333</ele>
        <time>2021-06-20T03:42:57Z</time>
      </trkpt>
      <trkpt lat="42.45485" lon="2.85404">
        <ele>328</ele>
        <time>2021-06-20T03:43:06Z</time>
      </trkpt>
      <trkpt lat="42.45481" lon="2.85416">
        <ele>327</ele>
        <time>2021-06-20T03:43:08Z</time>
      </trkpt>
      <trkpt lat="42.4549" lon="2.8547">
        <ele>327</ele>
        <time>2021-06-20T03:43:18Z</time>
      </trkpt>
      <trkpt lat="42.45495" lon="2.85475">
        <ele>327</ele>
        <time>2021-06-20T03:43:19Z</time>
      </trkpt>
      <trkpt lat="42.45492" lon="2.85481">
        <ele>327</ele>
        <time>2021-06-20T03:43:21Z</time>
      </trkpt>
      <trkpt lat="42.45488" lon="2.85506">
        <ele>325</ele>
        <time>2021-06-20T03:43:25Z</time>
      </trkpt>
      <trkpt lat="42.45477" lon="2.85537">
        <ele>324</ele>
        <time>2021-06-20T03:43:31Z</time>
      </trkpt>
      <trkpt lat="42.45476" lon="2.85548">
        <ele>324</ele>
        <time>2021-06-20T03:43:33Z</time>
      </trkpt>
      <trkpt lat="42.45471" lon="2.85561">
        <ele>323</ele>
        <time>2021-06-20T03:43:35Z</time>
      </trkpt>
      <trkpt lat="42.45458" lon="2.85619">
        <ele>322</ele>
        <time>2021-06-20T03:43:46Z</time>
      </trkpt>
      <trkpt lat="42.45441" lon="2.8568">
        <ele>320</ele>
        <time>2021-06-20T03:43:57Z</time>
      </trkpt>
      <trkpt lat="42.4543" lon="2.85689">
        <ele>320</ele>
        <time>2021-06-20T03:44:00Z</time>
      </trkpt>
      <trkpt lat="42.45435" lon="2.85704">
        <ele>320</ele>
        <time>2021-06-20T03:44:03Z</time>
      </trkpt>
      <trkpt lat="42.45437" lon="2.85735">
        <ele>319</ele>
        <time>2021-06-20T03:44:08Z</time>
      </trkpt>
      <trkpt lat="42.45447" lon="2.85754">
        <ele>320</ele>
        <time>2021-06-20T03:44:12Z</time>
      </trkpt>
      <trkpt lat="42.45436" lon="2.85769">
        <ele>320</ele>
        <time>2021-06-20T03:44:16Z</time>
      </trkpt>
      <trkpt lat="42.45432" lon="2.85782">
        <ele>320</ele>
        <time>2021-06-20T03:44:18Z</time>
      </trkpt>
      <trkpt lat="42.45441" lon="2.858">
        <ele>322</ele>
        <time>2021-06-20T03:44:22Z</time>
      </trkpt>
      <trkpt lat="42.45455" lon="2.85805">
        <ele>325</ele>
        <time>2021-06-20T03:44:25Z</time>
      </trkpt>
      <trkpt lat="42.45459" lon="2.85839">
        <ele>328</ele>
        <time>2021-06-20T03:44:31Z</time>
      </trkpt>
      <trkpt lat="42.45475" lon="2.85848">
        <ele>332</ele>
        <time>2021-06-20T03:44:35Z</time>
      </trkpt>
      <trkpt lat="42.45498" lon="2.85867">
        <ele>340</ele>
        <time>2021-06-20T03:44:42Z</time>
      </trkpt>
      <trkpt lat="42.45498" lon="2.85875">
        <ele>341</ele>
        <time>2021-06-20T03:44:43Z</time>
      </trkpt>
      <trkpt lat="42.4551" lon="2.85905">
        <ele>348</ele>
        <time>2021-06-20T03:44:49Z</time>
      </trkpt>
      <trkpt lat="42.45522" lon="2.85914">
        <ele>351</ele>
        <time>2021-06-20T03:44:52Z</time>
      </trkpt>
      <trkpt lat="42.45527" lon="2.8593">
        <ele>354</ele>
        <time>2021-06-20T03:44:55Z</time>
      </trkpt>
      <trkpt lat="42.45539" lon="2.85944">
        <ele>358</ele>
        <time>2021-06-20T03:44:59Z</time>
      </trkpt>
      <trkpt lat="42.45545" lon="2.85963">
        <ele>363</ele>
        <time>2021-06-20T03:45:02Z</time>
      </trkpt>
      <trkpt lat="42.45572" lon="2.85987">
        <ele>372</ele>
        <time>2021-06-20T03:45:10Z</time>
      </trkpt>
      <trkpt lat="42.45571" lon="2.85994">
        <ele>373</ele>
        <time>2021-06-20T03:45:11Z</time>
      </trkpt>
      <trkpt lat="42.45581" lon="2.8601">
        <ele>377</ele>
        <time>2021-06-20T03:45:15Z</time>
      </trkpt>
      <trkpt lat="42.45585" lon="2.86009">
        <ele>377</ele>
        <time>2021-06-20T03:45:16Z</time>
      </trkpt>
      <trkpt lat="42.45587" lon="2.86014">
        <ele>377</ele>
        <time>2021-06-20T03:45:17Z</time>
      </trkpt>
      <trkpt lat="42.45642" lon="2.85991">
        <ele>381</ele>
        <time>2021-06-20T03:45:30Z</time>
      </trkpt>
      <trkpt lat="42.45646" lon="2.86013">
        <ele>383</ele>
        <time>2021-06-20T03:45:34Z</time>
      </trkpt>
      <trkpt lat="42.4565" lon="2.86022">
        <ele>383</ele>
        <time>2021-06-20T03:45:36Z</time>
      </trkpt>
      <trkpt lat="42.45669" lon="2.86042">
        <ele>383</ele>
        <time>2021-06-20T03:45:41Z</time>
      </trkpt>
      <trkpt lat="42.45676" lon="2.8604">
        <ele>384</ele>
        <time>2021-06-20T03:45:43Z</time>
      </trkpt>
      <trkpt lat="42.45725" lon="2.85962">
        <ele>396</ele>
        <time>2021-06-20T03:46:01Z</time>
      </trkpt>
      <trkpt lat="42.45762" lon="2.85937">
        <ele>407</ele>
        <time>2021-06-20T03:46:10Z</time>
      </trkpt>
      <trkpt lat="42.4575" lon="2.85907">
        <ele>405</ele>
        <time>2021-06-20T03:46:16Z</time>
      </trkpt>
      <trkpt lat="42.4575" lon="2.85903">
        <ele>405</ele>
        <time>2021-06-20T03:46:17Z</time>
      </trkpt>
      <trkpt lat="42.45762" lon="2.85884">
        <ele>406</ele>
        <time>2021-06-20T03:46:21Z</time>
      </trkpt>
      <trkpt lat="42.45765" lon="2.85875">
        <ele>406</ele>
        <time>2021-06-20T03:46:23Z</time>
      </trkpt>
      <trkpt lat="42.45766" lon="2.85862">
        <ele>405</ele>
        <time>2021-06-20T03:46:25Z</time>
      </trkpt>
      <trkpt lat="42.45761" lon="2.85834">
        <ele>402</ele>
        <time>2021-06-20T03:46:30Z</time>
      </trkpt>
      <trkpt lat="42.45764" lon="2.8583">
        <ele>401</ele>
        <time>2021-06-20T03:46:31Z</time>
      </trkpt>
      <trkpt lat="42.45778" lon="2.85827">
        <ele>403</ele>
        <time>2021-06-20T03:46:35Z</time>
      </trkpt>
      <trkpt lat="42.45784" lon="2.85821">
        <ele>403</ele>
        <time>2021-06-20T03:46:36Z</time>
      </trkpt>
      <trkpt lat="42.45788" lon="2.85815">
        <ele>402</ele>
        <time>2021-06-20T03:46:38Z</time>
      </trkpt>
      <trkpt lat="42.45793" lon="2.85792">
        <ele>398</ele>
        <time>2021-06-20T03:46:42Z</time>
      </trkpt>
      <trkpt lat="42.45796" lon="2.85791">
        <ele>398</ele>
        <time>2021-06-20T03:46:43Z</time>
      </trkpt>
      <trkpt lat="42.45808" lon="2.858">
        <ele>402</ele>
        <time>2021-06-20T03:46:46Z</time>
      </trkpt>
      <trkpt lat="42.45821" lon="2.858">
        <ele>404</ele>
        <time>2021-06-20T03:46:49Z</time>
      </trkpt>
      <trkpt lat="42.45847" lon="2.85773">
        <ele>399</ele>
        <time>2021-06-20T03:46:56Z</time>
      </trkpt>
      <trkpt lat="42.45838" lon="2.85761">
        <ele>397</ele>
        <time>2021-06-20T03:46:59Z</time>
      </trkpt>
      <trkpt lat="42.45844" lon="2.85753">
        <ele>395</ele>
        <time>2021-06-20T03:47:01Z</time>
      </trkpt>
      <trkpt lat="42.45861" lon="2.85754">
        <ele>395</ele>
        <time>2021-06-20T03:47:05Z</time>
      </trkpt>
      <trkpt lat="42.45897" lon="2.85766">
        <ele>395</ele>
        <time>2021-06-20T03:47:14Z</time>
      </trkpt>
      <trkpt lat="42.45909" lon="2.85763">
        <ele>394</ele>
        <time>2021-06-20T03:47:17Z</time>
      </trkpt>
      <trkpt lat="42.45911" lon="2.85747">
        <ele>391</ele>
        <time>2021-06-20T03:47:20Z</time>
      </trkpt>
      <trkpt lat="42.4592" lon="2.85737">
        <ele>388</ele>
        <time>2021-06-20T03:47:22Z</time>
      </trkpt>
      <trkpt lat="42.45951" lon="2.8571">
        <ele>375</ele>
        <time>2021-06-20T03:47:31Z</time>
      </trkpt>
      <trkpt lat="42.4596" lon="2.85713">
        <ele>374</ele>
        <time>2021-06-20T03:47:33Z</time>
      </trkpt>
      <trkpt lat="42.45967" lon="2.85731">
        <ele>376</ele>
        <time>2021-06-20T03:47:37Z</time>
      </trkpt>
      <trkpt lat="42.45974" lon="2.85785">
        <ele>383</ele>
        <time>2021-06-20T03:47:46Z</time>
      </trkpt>
      <trkpt lat="42.45983" lon="2.85791">
        <ele>381</ele>
        <time>2021-06-20T03:47:48Z</time>
      </trkpt>
      <trkpt lat="42.45995" lon="2.85788">
        <ele>378</ele>
        <time>2021-06-20T03:47:51Z</time>
      </trkpt>
      <trkpt lat="42.46019" lon="2.85774">
        <ele>369</ele>
        <time>2021-06-20T03:47:57Z</time>
      </trkpt>
      <trkpt lat="42.46025" lon="2.85774">
        <ele>367</ele>
        <time>2021-06-20T03:47:59Z</time>
      </trkpt>
      <trkpt lat="42.46033" lon="2.85779">
        <ele>365</ele>
        <time>2021-06-20T03:48:01Z</time>
      </trkpt>
      <trkpt lat="42.46038" lon="2.8579">
        <ele>365</ele>
        <time>2021-06-20T03:48:03Z</time>
      </trkpt>
      <trkpt lat="42.4604" lon="2.85833">
        <ele>369</ele>
        <time>2021-06-20T03:48:10Z</time>
      </trkpt>
      <trkpt lat="42.46045" lon="2.85841">
        <ele>367</ele>
        <time>2021-06-20T03:48:12Z</time>
      </trkpt>
      <trkpt lat="42.46075" lon="2.85867">
        <ele>359</ele>
        <time>2021-06-20T03:48:21Z</time>
      </trkpt>
      <trkpt lat="42.46095" lon="2.85894">
        <ele>355</ele>
        <time>2021-06-20T03:48:27Z</time>
      </trkpt>
      <trkpt lat="42.46118" lon="2.85905">
        <ele>349</ele>
        <time>2021-06-20T03:48:33Z</time>
      </trkpt>
      <trkpt lat="42.46124" lon="2.85914">
        <ele>348</ele>
        <time>2021-06-20T03:48:35Z</time>
      </trkpt>
      <trkpt lat="42.46123" lon="2.85929">
        <ele>348</ele>
        <time>2021-06-20T03:48:38Z</time>
      </trkpt>
      <trkpt lat="42.46103" lon="2.85966">
        <ele>351</ele>
        <time>2021-06-20T03:48:45Z</time>
      </trkpt>
      <trkpt lat="42.46101" lon="2.85978">
        <ele>350</ele>
        <time>2021-06-20T03:48:48Z</time>
      </trkpt>
      <trkpt lat="42.46103" lon="2.85986">
        <ele>350</ele>
        <time>2021-06-20T03:48:49Z</time>
      </trkpt>
      <trkpt lat="42.46109" lon="2.85998">
        <ele>348</ele>
        <time>2021-06-20T03:48:51Z</time>
      </trkpt>
      <trkpt lat="42.46132" lon="2.86017">
        <ele>342</ele>
        <time>2021-06-20T03:48:58Z</time>
      </trkpt>
      <trkpt lat="42.46142" lon="2.8603">
        <ele>340</ele>
        <time>2021-06-20T03:49:01Z</time>
      </trkpt>
      <trkpt lat="42.46189" lon="2.86188">
        <ele>320</ele>
        <time>2021-06-20T03:49:30Z</time>
      </trkpt>
      <trkpt lat="42.462" lon="2.86212">
        <ele>315</ele>
        <time>2021-06-20T03:49:35Z</time>
      </trkpt>
      <trkpt lat="42.46206" lon="2.86216">
        <ele>314</ele>
        <time>2021-06-20T03:49:37Z</time>
      </trkpt>
      <trkpt lat="42.46222" lon="2.86213">
        <ele>316</ele>
        <time>2021-06-20T03:49:41Z</time>
      </trkpt>
      <trkpt lat="42.46241" lon="2.86201">
        <ele>320</ele>
        <time>2021-06-20T03:49:45Z</time>
      </trkpt>
      <trkpt lat="42.46258" lon="2.86184">
        <ele>323</ele>
        <time>2021-06-20T03:49:50Z</time>
      </trkpt>
      <trkpt lat="42.46287" lon="2.86164">
        <ele>321</ele>
        <time>2021-06-20T03:49:58Z</time>
      </trkpt>
      <trkpt lat="42.46305" lon="2.86145">
        <ele>319</ele>
        <time>2021-06-20T03:50:03Z</time>
      </trkpt>
      <trkpt lat="42.46335" lon="2.86101">
        <ele>316</ele>
        <time>2021-06-20T03:50:14Z</time>
      </trkpt>
      <trkpt lat="42.46344" lon="2.86082">
        <ele>316</ele>
        <time>2021-06-20T03:50:18Z</time>
      </trkpt>
      <trkpt lat="42.4635" lon="2.86055">
        <ele>315</ele>
        <time>2021-06-20T03:50:22Z</time>
      </trkpt>
      <trkpt lat="42.46355" lon="2.86045">
        <ele>314</ele>
        <time>2021-06-20T03:50:24Z</time>
      </trkpt>
      <trkpt lat="42.46358" lon="2.86044">
        <ele>314</ele>
        <time>2021-06-20T03:50:25Z</time>
      </trkpt>
      <trkpt lat="42.46364" lon="2.8605">
        <ele>312</ele>
        <time>2021-06-20T03:50:27Z</time>
      </trkpt>
      <trkpt lat="42.4637" lon="2.86073">
        <ele>311</ele>
        <time>2021-06-20T03:50:31Z</time>
      </trkpt>
      <trkpt lat="42.46378" lon="2.86091">
        <ele>308</ele>
        <time>2021-06-20T03:50:35Z</time>
      </trkpt>
      <trkpt lat="42.46391" lon="2.8611">
        <ele>305</ele>
        <time>2021-06-20T03:50:39Z</time>
      </trkpt>
      <trkpt lat="42.46433" lon="2.86153">
        <ele>300</ele>
        <time>2021-06-20T03:50:52Z</time>
      </trkpt>
      <trkpt lat="42.46443" lon="2.86157">
        <ele>300</ele>
        <time>2021-06-20T03:50:54Z</time>
      </trkpt>
      <trkpt lat="42.46443" lon="2.86196">
        <ele>296</ele>
        <time>2021-06-20T03:51:01Z</time>
      </trkpt>
      <trkpt lat="42.46534" lon="2.86209">
        <ele>296</ele>
        <time>2021-06-20T03:51:22Z</time>
      </trkpt>
      <trkpt lat="42.46537" lon="2.86211">
        <ele>296</ele>
        <time>2021-06-20T03:51:23Z</time>
      </trkpt>
      <trkpt lat="42.46529" lon="2.86233">
        <ele>293</ele>
        <time>2021-06-20T03:51:27Z</time>
      </trkpt>
      <trkpt lat="42.46523" lon="2.86239">
        <ele>293</ele>
        <time>2021-06-20T03:51:29Z</time>
      </trkpt>
      <trkpt lat="42.46525" lon="2.86245">
        <ele>292</ele>
        <time>2021-06-20T03:51:30Z</time>
      </trkpt>
      <trkpt lat="42.46523" lon="2.86318">
        <ele>287</ele>
        <time>2021-06-20T03:51:43Z</time>
      </trkpt>
      <trkpt lat="42.4657" lon="2.86317">
        <ele>287</ele>
        <time>2021-06-20T03:51:53Z</time>
      </trkpt>
      <trkpt lat="42.46594" lon="2.86306">
        <ele>286</ele>
        <time>2021-06-20T03:51:59Z</time>
      </trkpt>
      <trkpt lat="42.46608" lon="2.86327">
        <ele>284</ele>
        <time>2021-06-20T03:52:04Z</time>
      </trkpt>
      <trkpt lat="42.46651" lon="2.86335">
        <ele>281</ele>
        <time>2021-06-20T03:52:14Z</time>
      </trkpt>
      <trkpt lat="42.4669" lon="2.86356">
        <ele>275</ele>
        <time>2021-06-20T03:52:24Z</time>
      </trkpt>
      <trkpt lat="42.46694" lon="2.86365">
        <ele>275</ele>
        <time>2021-06-20T03:52:26Z</time>
      </trkpt>
      <trkpt lat="42.46679" lon="2.86431">
        <ele>287</ele>
        <time>2021-06-20T03:52:38Z</time>
      </trkpt>
      <trkpt lat="42.46677" lon="2.86462">
        <ele>287</ele>
        <time>2021-06-20T03:52:43Z</time>
      </trkpt>
      <trkpt lat="42.46671" lon="2.865">
        <ele>289</ele>
        <time>2021-06-20T03:52:50Z</time>
      </trkpt>
      <trkpt lat="42.4666" lon="2.86532">
        <ele>291</ele>
        <time>2021-06-20T03:52:56Z</time>
      </trkpt>
      <trkpt lat="42.46651" lon="2.86541">
        <ele>293</ele>
        <time>2021-06-20T03:52:59Z</time>
      </trkpt>
      <trkpt lat="42.46638" lon="2.86578">
        <ele>295</ele>
        <time>2021-06-20T03:53:06Z</time>
      </trkpt>
      <trkpt lat="42.46616" lon="2.86607">
        <ele>304</ele>
        <time>2021-06-20T03:53:13Z</time>
      </trkpt>
      <trkpt lat="42.46594" lon="2.86606">
        <ele>309</ele>
        <time>2021-06-20T03:53:18Z</time>
      </trkpt>
      <trkpt lat="42.4659" lon="2.86596">
        <ele>309</ele>
        <time>2021-06-20T03:53:20Z</time>
      </trkpt>
      <trkpt lat="42.46583" lon="2.86597">
        <ele>310</ele>
        <time>2021-06-20T03:53:22Z</time>
      </trkpt>
      <trkpt lat="42.46576" lon="2.86611">
        <ele>311</ele>
        <time>2021-06-20T03:53:25Z</time>
      </trkpt>
      <trkpt lat="42.46573" lon="2.8663">
        <ele>312</ele>
        <time>2021-06-20T03:53:28Z</time>
      </trkpt>
      <trkpt lat="42.46573" lon="2.86677">
        <ele>318</ele>
        <time>2021-06-20T03:53:36Z</time>
      </trkpt>
      <trkpt lat="42.4656" lon="2.86728">
        <ele>327</ele>
        <time>2021-06-20T03:53:45Z</time>
      </trkpt>
      <trkpt lat="42.46487" lon="2.86673">
        <ele>315</ele>
        <time>2021-06-20T03:54:05Z</time>
      </trkpt>
      <trkpt lat="42.46475" lon="2.86659">
        <ele>313</ele>
        <time>2021-06-20T03:54:08Z</time>
      </trkpt>
      <trkpt lat="42.46416" lon="2.86618">
        <ele>308</ele>
        <time>2021-06-20T03:54:24Z</time>
      </trkpt>
      <trkpt lat="42.46411" lon="2.86626">
        <ele>309</ele>
        <time>2021-06-20T03:54:26Z</time>
      </trkpt>
      <trkpt lat="42.464" lon="2.86633">
        <ele>309</ele>
        <time>2021-06-20T03:54:29Z</time>
      </trkpt>
      <trkpt lat="42.46395" lon="2.86652">
        <ele>311</ele>
        <time>2021-06-20T03:54:32Z</time>
      </trkpt>
      <trkpt lat="42.46407" lon="2.86686">
        <ele>319</ele>
        <time>2021-06-20T03:54:39Z</time>
      </trkpt>
      <trkpt lat="42.46409" lon="2.867">
        <ele>322</ele>
        <time>2021-06-20T03:54:41Z</time>
      </trkpt>
      <trkpt lat="42.46407" lon="2.8672">
        <ele>326</ele>
        <time>2021-06-20T03:54:45Z</time>
      </trkpt>
      <trkpt lat="42.46399" lon="2.86737">
        <ele>328</ele>
        <time>2021-06-20T03:54:48Z</time>
      </trkpt>
      <trkpt lat="42.4639" lon="2.86746">
        <ele>329</ele>
        <time>2021-06-20T03:54:51Z</time>
      </trkpt>
      <trkpt lat="42.46387" lon="2.86754">
        <ele>330</ele>
        <time>2021-06-20T03:54:52Z</time>
      </trkpt>
      <trkpt lat="42.46391" lon="2.86758">
        <ele>332</ele>
        <time>2021-06-20T03:54:53Z</time>
      </trkpt>
      <trkpt lat="42.46402" lon="2.86758">
        <ele>334</ele>
        <time>2021-06-20T03:54:56Z</time>
      </trkpt>
      <trkpt lat="42.46422" lon="2.86739">
        <ele>331</ele>
        <time>2021-06-20T03:55:02Z</time>
      </trkpt>
      <trkpt lat="42.46442" lon="2.86735">
        <ele>330</ele>
        <time>2021-06-20T03:55:06Z</time>
      </trkpt>
      <trkpt lat="42.4646" lon="2.86743">
        <ele>331</ele>
        <time>2021-06-20T03:55:11Z</time>
      </trkpt>
      <trkpt lat="42.46486" lon="2.86768">
        <ele>337</ele>
        <time>2021-06-20T03:55:18Z</time>
      </trkpt>
      <trkpt lat="42.46509" lon="2.86798">
        <ele>343</ele>
        <time>2021-06-20T03:55:26Z</time>
      </trkpt>
      <trkpt lat="42.46513" lon="2.86809">
        <ele>345</ele>
        <time>2021-06-20T03:55:28Z</time>
      </trkpt>
      <trkpt lat="42.46508" lon="2.8681">
        <ele>346</ele>
        <time>2021-06-20T03:55:29Z</time>
      </trkpt>
      <trkpt lat="42.465" lon="2.86802">
        <ele>345</ele>
        <time>2021-06-20T03:55:31Z</time>
      </trkpt>
      <trkpt lat="42.46489" lon="2.86797">
        <ele>344</ele>
        <time>2021-06-20T03:55:34Z</time>
      </trkpt>
      <trkpt lat="42.46451" lon="2.868">
        <ele>347</ele>
        <time>2021-06-20T03:55:43Z</time>
      </trkpt>
      <trkpt lat="42.46433" lon="2.86826">
        <ele>356</ele>
        <time>2021-06-20T03:55:49Z</time>
      </trkpt>
      <trkpt lat="42.46416" lon="2.86857">
        <ele>368</ele>
        <time>2021-06-20T03:55:56Z</time>
      </trkpt>
      <trkpt lat="42.46401" lon="2.86866">
        <ele>369</ele>
        <time>2021-06-20T03:55:59Z</time>
      </trkpt>
      <trkpt lat="42.46382" lon="2.86869">
        <ele>367</ele>
        <time>2021-06-20T03:56:04Z</time>
      </trkpt>
      <trkpt lat="42.46386" lon="2.86876">
        <ele>370</ele>
        <time>2021-06-20T03:56:05Z</time>
      </trkpt>
      <trkpt lat="42.46404" lon="2.86873">
        <ele>372</ele>
        <time>2021-06-20T03:56:10Z</time>
      </trkpt>
      <trkpt lat="42.46438" lon="2.86873">
        <ele>371</ele>
        <time>2021-06-20T03:56:18Z</time>
      </trkpt>
      <trkpt lat="42.46444" lon="2.86876">
        <ele>371</ele>
        <time>2021-06-20T03:56:19Z</time>
      </trkpt>
      <trkpt lat="42.46452" lon="2.86869">
        <ele>367</ele>
        <time>2021-06-20T03:56:21Z</time>
      </trkpt>
      <trkpt lat="42.4647" lon="2.86871">
        <ele>365</ele>
        <time>2021-06-20T03:56:26Z</time>
      </trkpt>
      <trkpt lat="42.46479" lon="2.86882">
        <ele>367</ele>
        <time>2021-06-20T03:56:28Z</time>
      </trkpt>
      <trkpt lat="42.46479" lon="2.8697">
        <ele>387</ele>
        <time>2021-06-20T03:56:44Z</time>
      </trkpt>
      <trkpt lat="42.46469" lon="2.8705">
        <ele>404</ele>
        <time>2021-06-20T03:56:58Z</time>
      </trkpt>
      <trkpt lat="42.46473" lon="2.87058">
        <ele>404</ele>
        <time>2021-06-20T03:56:59Z</time>
      </trkpt>
      <trkpt lat="42.4648" lon="2.87065">
        <ele>404</ele>
        <time>2021-06-20T03:57:01Z</time>
      </trkpt>
      <trkpt lat="42.46489" lon="2.87069">
        <ele>403</ele>
        <time>2021-06-20T03:57:03Z</time>
      </trkpt>
      <trkpt lat="42.46498" lon="2.87067">
        <ele>400</ele>
        <time>2021-06-20T03:57:06Z</time>
      </trkpt>
      <trkpt lat="42.46504" lon="2.87071">
        <ele>400</ele>
        <time>2021-06-20T03:57:07Z</time>
      </trkpt>
      <trkpt lat="42.46542" lon="2.87065">
        <ele>393</ele>
        <time>2021-06-20T03:57:16Z</time>
      </trkpt>
      <trkpt lat="42.46551" lon="2.8707">
        <ele>392</ele>
        <time>2021-06-20T03:57:18Z</time>
      </trkpt>
      <trkpt lat="42.46602" lon="2.87124">
        <ele>399</ele>
        <time>2021-06-20T03:57:33Z</time>
      </trkpt>
      <trkpt lat="42.46613" lon="2.87129">
        <ele>402</ele>
        <time>2021-06-20T03:57:36Z</time>
      </trkpt>
      <trkpt lat="42.46621" lon="2.87118">
        <ele>401</ele>
        <time>2021-06-20T03:57:39Z</time>
      </trkpt>
      <trkpt lat="42.4663" lon="2.87088">
        <ele>398</ele>
        <time>2021-06-20T03:57:44Z</time>
      </trkpt>
      <trkpt lat="42.46635" lon="2.87048">
        <ele>392</ele>
        <time>2021-06-20T03:57:51Z</time>
      </trkpt>
      <trkpt lat="42.46646" lon="2.87017">
        <ele>390</ele>
        <time>2021-06-20T03:57:57Z</time>
      </trkpt>
      <trkpt lat="42.46695" lon="2.86953">
        <ele>390</ele>
        <time>2021-06-20T03:58:13Z</time>
      </trkpt>
      <trkpt lat="42.4673" lon="2.8694">
        <ele>395</ele>
        <time>2021-06-20T03:58:22Z</time>
      </trkpt>
      <trkpt lat="42.46739" lon="2.86945">
        <ele>398</ele>
        <time>2021-06-20T03:58:24Z</time>
      </trkpt>
      <trkpt lat="42.46724" lon="2.86961">
        <ele>398</ele>
        <time>2021-06-20T03:58:28Z</time>
      </trkpt>
      <trkpt lat="42.46714" lon="2.86981">
        <ele>399</ele>
        <time>2021-06-20T03:58:33Z</time>
      </trkpt>
      <trkpt lat="42.46705" lon="2.87008">
        <ele>402</ele>
        <time>2021-06-20T03:58:38Z</time>
      </trkpt>
      <trkpt lat="42.46699" lon="2.87035">
        <ele>403</ele>
        <time>2021-06-20T03:58:43Z</time>
      </trkpt>
      <trkpt lat="42.46698" lon="2.87072">
        <ele>407</ele>
        <time>2021-06-20T03:58:49Z</time>
      </trkpt>
      <trkpt lat="42.46694" lon="2.87108">
        <ele>410</ele>
        <time>2021-06-20T03:58:55Z</time>
      </trkpt>
      <trkpt lat="42.46679" lon="2.87129">
        <ele>410</ele>
        <time>2021-06-20T03:59:00Z</time>
      </trkpt>
      <trkpt lat="42.46667" lon="2.87154">
        <ele>412</ele>
        <time>2021-06-20T03:59:05Z</time>
      </trkpt>
      <trkpt lat="42.46656" lon="2.87181">
        <ele>414</ele>
        <time>2021-06-20T03:59:11Z</time>
      </trkpt>
      <trkpt lat="42.46655" lon="2.87195">
        <ele>416</ele>
        <time>2021-06-20T03:59:13Z</time>
      </trkpt>
      <trkpt lat="42.46632" lon="2.87256">
        <ele>423</ele>
        <time>2021-06-20T03:59:25Z</time>
      </trkpt>
      <trkpt lat="42.46623" lon="2.87294">
        <ele>428</ele>
        <time>2021-06-20T03:59:32Z</time>
      </trkpt>
      <trkpt lat="42.46607" lon="2.87388">
        <ele>441</ele>
        <time>2021-06-20T03:59:48Z</time>
      </trkpt>
      <trkpt lat="42.46599" lon="2.87419">
        <ele>446</ele>
        <time>2021-06-20T03:59:54Z</time>
      </trkpt>
      <trkpt lat="42.46549" lon="2.87503">
        <ele>465</ele>
        <time>2021-06-20T04:00:13Z</time>
      </trkpt>
      <trkpt lat="42.46503" lon="2.87538">
        <ele>470</ele>
        <time>2021-06-20T04:00:25Z</time>
      </trkpt>
      <trkpt lat="42.46465" lon="2.87561">
        <ele>475</ele>
        <time>2021-06-20T04:00:35Z</time>
      </trkpt>
      <trkpt lat="42.4648" lon="2.8757">
        <ele>476</ele>
        <time>2021-06-20T04:00:39Z</time>
      </trkpt>
      <trkpt lat="42.46497" lon="2.87576">
        <ele>478</ele>
        <time>2021-06-20T04:00:43Z</time>
      </trkpt>
      <trkpt lat="42.46491" lon="2.87589">
        <ele>480</ele>
        <time>2021-06-20T04:00:45Z</time>
      </trkpt>
      <trkpt lat="42.46458" lon="2.87606">
        <ele>481</ele>
        <time>2021-06-20T04:00:54Z</time>
      </trkpt>
      <trkpt lat="42.46449" lon="2.87617">
        <ele>482</ele>
        <time>2021-06-20T04:00:56Z</time>
      </trkpt>
      <trkpt lat="42.46446" lon="2.87628">
        <ele>483</ele>
        <time>2021-06-20T04:00:58Z</time>
      </trkpt>
      <trkpt lat="42.46446" lon="2.87649">
        <ele>486</ele>
        <time>2021-06-20T04:01:02Z</time>
      </trkpt>
      <trkpt lat="42.46437" lon="2.87675">
        <ele>490</ele>
        <time>2021-06-20T04:01:07Z</time>
      </trkpt>
      <trkpt lat="42.46431" lon="2.87759">
        <ele>505</ele>
        <time>2021-06-20T04:01:21Z</time>
      </trkpt>
      <trkpt lat="42.46432" lon="2.8778">
        <ele>508</ele>
        <time>2021-06-20T04:01:25Z</time>
      </trkpt>
      <trkpt lat="42.4643" lon="2.87792">
        <ele>510</ele>
        <time>2021-06-20T04:01:27Z</time>
      </trkpt>
      <trkpt lat="42.46432" lon="2.87806">
        <ele>511</ele>
        <time>2021-06-20T04:01:30Z</time>
      </trkpt>
      <trkpt lat="42.46437" lon="2.87811">
        <ele>510</ele>
        <time>2021-06-20T04:01:31Z</time>
      </trkpt>
      <trkpt lat="42.46436" lon="2.87818">
        <ele>511</ele>
        <time>2021-06-20T04:01:32Z</time>
      </trkpt>
      <trkpt lat="42.46416" lon="2.87844">
        <ele>521</ele>
        <time>2021-06-20T04:01:39Z</time>
      </trkpt>
      <trkpt lat="42.46391" lon="2.87893">
        <ele>526</ele>
        <time>2021-06-20T04:01:49Z</time>
      </trkpt>
      <trkpt lat="42.46361" lon="2.87968">
        <ele>539</ele>
        <time>2021-06-20T04:02:04Z</time>
      </trkpt>
      <trkpt lat="42.46348" lon="2.88025">
        <ele>544</ele>
        <time>2021-06-20T04:02:14Z</time>
      </trkpt>
      <trkpt lat="42.46323" lon="2.88081">
        <ele>550</ele>
        <time>2021-06-20T04:02:25Z</time>
      </trkpt>
      <trkpt lat="42.46298" lon="2.88128">
        <ele>556</ele>
        <time>2021-06-20T04:02:35Z</time>
      </trkpt>
      <trkpt lat="42.46291" lon="2.88154">
        <ele>555</ele>
        <time>2021-06-20T04:02:40Z</time>
      </trkpt>
      <trkpt lat="42.46288" lon="2.88177">
        <ele>553</ele>
        <time>2021-06-20T04:02:44Z</time>
      </trkpt>
      <trkpt lat="42.46291" lon="2.88185">
        <ele>551</ele>
        <time>2021-06-20T04:02:46Z</time>
      </trkpt>
      <trkpt lat="42.46289" lon="2.88206">
        <ele>549</ele>
        <time>2021-06-20T04:02:49Z</time>
      </trkpt>
      <trkpt lat="42.46261" lon="2.88297">
        <ele>552</ele>
        <time>2021-06-20T04:03:06Z</time>
      </trkpt>
      <trkpt lat="42.4627" lon="2.88353">
        <ele>546</ele>
        <time>2021-06-20T04:03:16Z</time>
      </trkpt>
      <trkpt lat="42.46283" lon="2.88389">
        <ele>541</ele>
        <time>2021-06-20T04:03:23Z</time>
      </trkpt>
      <trkpt lat="42.4627" lon="2.88353">
        <ele>546</ele>
        <time>2021-06-20T04:03:30Z</time>
      </trkpt>
      <trkpt lat="42.46261" lon="2.88297">
        <ele>552</ele>
        <time>2021-06-20T04:03:40Z</time>
      </trkpt>
      <trkpt lat="42.46289" lon="2.88206">
        <ele>549</ele>
        <time>2021-06-20T04:03:57Z</time>
      </trkpt>
      <trkpt lat="42.46291" lon="2.88185">
        <ele>551</ele>
        <time>2021-06-20T04:04:00Z</time>
      </trkpt>
      <trkpt lat="42.46288" lon="2.88177">
        <ele>553</ele>
        <time>2021-06-20T04:04:02Z</time>
      </trkpt>
      <trkpt lat="42.46284" lon="2.88182">
        <ele>555</ele>
        <time>2021-06-20T04:04:03Z</time>
      </trkpt>
      <trkpt lat="42.46285" lon="2.88201">
        <ele>552</ele>
        <time>2021-06-20T04:04:07Z</time>
      </trkpt>
      <trkpt lat="42.46278" lon="2.88218">
        <ele>553</ele>
        <time>2021-06-20T04:04:10Z</time>
      </trkpt>
      <trkpt lat="42.46244" lon="2.88267">
        <ele>563</ele>
        <time>2021-06-20T04:04:22Z</time>
      </trkpt>
      <trkpt lat="42.46232" lon="2.88314">
        <ele>566</ele>
        <time>2021-06-20T04:04:30Z</time>
      </trkpt>
      <trkpt lat="42.46238" lon="2.8836">
        <ele>562</ele>
        <time>2021-06-20T04:04:38Z</time>
      </trkpt>
      <trkpt lat="42.46232" lon="2.88447">
        <ele>565</ele>
        <time>2021-06-20T04:04:53Z</time>
      </trkpt>
      <trkpt lat="42.46155" lon="2.88536">
        <ele>591</ele>
        <time>2021-06-20T04:05:17Z</time>
      </trkpt>
      <trkpt lat="42.46086" lon="2.88773">
        <ele>602</ele>
        <time>2021-06-20T04:06:01Z</time>
      </trkpt>
      <trkpt lat="42.46088" lon="2.88802">
        <ele>603</ele>
        <time>2021-06-20T04:06:06Z</time>
      </trkpt>
      <trkpt lat="42.46097" lon="2.88808">
        <ele>604</ele>
        <time>2021-06-20T04:06:08Z</time>
      </trkpt>
      <trkpt lat="42.46205" lon="2.88774">
        <ele>599</ele>
        <time>2021-06-20T04:06:34Z</time>
      </trkpt>
      <trkpt lat="42.4624" lon="2.88782">
        <ele>598</ele>
        <time>2021-06-20T04:06:42Z</time>
      </trkpt>
      <trkpt lat="42.46276" lon="2.88815">
        <ele>599</ele>
        <time>2021-06-20T04:06:52Z</time>
      </trkpt>
      <trkpt lat="42.46296" lon="2.88844">
        <ele>597</ele>
        <time>2021-06-20T04:06:59Z</time>
      </trkpt>
      <trkpt lat="42.46293" lon="2.88872">
        <ele>597</ele>
        <time>2021-06-20T04:07:04Z</time>
      </trkpt>
      <trkpt lat="42.46249" lon="2.88984">
        <ele>610</ele>
        <time>2021-06-20T04:07:26Z</time>
      </trkpt>
      <trkpt lat="42.46253" lon="2.89015">
        <ele>609</ele>
        <time>2021-06-20T04:07:31Z</time>
      </trkpt>
      <trkpt lat="42.46268" lon="2.89063">
        <ele>605</ele>
        <time>2021-06-20T04:07:40Z</time>
      </trkpt>
      <trkpt lat="42.4627" lon="2.892">
        <ele>605</ele>
        <time>2021-06-20T04:08:04Z</time>
      </trkpt>
      <trkpt lat="42.46262" lon="2.89252">
        <ele>610</ele>
        <time>2021-06-20T04:08:13Z</time>
      </trkpt>
      <trkpt lat="42.46275" lon="2.89325">
        <ele>603</ele>
        <time>2021-06-20T04:08:26Z</time>
      </trkpt>
      <trkpt lat="42.46268" lon="2.89354">
        <ele>604</ele>
        <time>2021-06-20T04:08:31Z</time>
      </trkpt>
      <trkpt lat="42.46233" lon="2.89408">
        <ele>613</ele>
        <time>2021-06-20T04:08:44Z</time>
      </trkpt>
      <trkpt lat="42.46227" lon="2.89469">
        <ele>613</ele>
        <time>2021-06-20T04:08:54Z</time>
      </trkpt>
      <trkpt lat="42.46236" lon="2.89537">
        <ele>606</ele>
        <time>2021-06-20T04:09:06Z</time>
      </trkpt>
      <trkpt lat="42.46233" lon="2.8957">
        <ele>605</ele>
        <time>2021-06-20T04:09:12Z</time>
      </trkpt>
      <trkpt lat="42.4619" lon="2.89599">
        <ele>617</ele>
        <time>2021-06-20T04:09:23Z</time>
      </trkpt>
      <trkpt lat="42.46173" lon="2.89643">
        <ele>616</ele>
        <time>2021-06-20T04:09:32Z</time>
      </trkpt>
      <trkpt lat="42.46143" lon="2.89693">
        <ele>618</ele>
        <time>2021-06-20T04:09:43Z</time>
      </trkpt>
      <trkpt lat="42.46126" lon="2.89744">
        <ele>617</ele>
        <time>2021-06-20T04:09:52Z</time>
      </trkpt>
      <trkpt lat="42.46094" lon="2.89858">
        <ele>619</ele>
        <time>2021-06-20T04:10:13Z</time>
      </trkpt>
      <trkpt lat="42.46101" lon="2.89924">
        <ele>613</ele>
        <time>2021-06-20T04:10:25Z</time>
      </trkpt>
      <trkpt lat="42.46094" lon="2.89956">
        <ele>614</ele>
        <time>2021-06-20T04:10:31Z</time>
      </trkpt>
      <trkpt lat="42.4608" lon="2.89983">
        <ele>616</ele>
        <time>2021-06-20T04:10:36Z</time>
      </trkpt>
      <trkpt lat="42.46034" lon="2.90019">
        <ele>623</ele>
        <time>2021-06-20T04:10:49Z</time>
      </trkpt>
      <trkpt lat="42.4603" lon="2.90059">
        <ele>617</ele>
        <time>2021-06-20T04:10:56Z</time>
      </trkpt>
      <trkpt lat="42.46016" lon="2.90081">
        <ele>616</ele>
        <time>2021-06-20T04:11:01Z</time>
      </trkpt>
      <trkpt lat="42.45997" lon="2.90085">
        <ele>619</ele>
        <time>2021-06-20T04:11:05Z</time>
      </trkpt>
      <trkpt lat="42.45961" lon="2.90101">
        <ele>626</ele>
        <time>2021-06-20T04:11:14Z</time>
      </trkpt>
      <trkpt lat="42.45931" lon="2.90143">
        <ele>628</ele>
        <time>2021-06-20T04:11:24Z</time>
      </trkpt>
      <trkpt lat="42.45925" lon="2.90196">
        <ele>627</ele>
        <time>2021-06-20T04:11:33Z</time>
      </trkpt>
      <trkpt lat="42.45946" lon="2.90265">
        <ele>622</ele>
        <time>2021-06-20T04:11:46Z</time>
      </trkpt>
      <trkpt lat="42.45973" lon="2.90317">
        <ele>616</ele>
        <time>2021-06-20T04:11:57Z</time>
      </trkpt>
      <trkpt lat="42.45963" lon="2.90372">
        <ele>618</ele>
        <time>2021-06-20T04:12:07Z</time>
      </trkpt>
      <trkpt lat="42.45955" lon="2.90384">
        <ele>620</ele>
        <time>2021-06-20T04:12:10Z</time>
      </trkpt>
      <trkpt lat="42.45923" lon="2.90397">
        <ele>628</ele>
        <time>2021-06-20T04:12:18Z</time>
      </trkpt>
      <trkpt lat="42.45907" lon="2.90418">
        <ele>631</ele>
        <time>2021-06-20T04:12:23Z</time>
      </trkpt>
      <trkpt lat="42.45901" lon="2.9045">
        <ele>635</ele>
        <time>2021-06-20T04:12:28Z</time>
      </trkpt>
      <trkpt lat="42.45914" lon="2.90471">
        <ele>632</ele>
        <time>2021-06-20T04:12:33Z</time>
      </trkpt>
      <trkpt lat="42.45927" lon="2.90512">
        <ele>629</ele>
        <time>2021-06-20T04:12:41Z</time>
      </trkpt>
      <trkpt lat="42.45923" lon="2.90619">
        <ele>638</ele>
        <time>2021-06-20T04:12:59Z</time>
      </trkpt>
      <trkpt lat="42.4593" lon="2.90645">
        <ele>639</ele>
        <time>2021-06-20T04:13:04Z</time>
      </trkpt>
      <trkpt lat="42.4595" lon="2.90651">
        <ele>635</ele>
        <time>2021-06-20T04:13:09Z</time>
      </trkpt>
      <trkpt lat="42.45982" lon="2.90651">
        <ele>628</ele>
        <time>2021-06-20T04:13:16Z</time>
      </trkpt>
      <trkpt lat="42.46012" lon="2.90686">
        <ele>630</ele>
        <time>2021-06-20T04:13:26Z</time>
      </trkpt>
      <trkpt lat="42.4607" lon="2.90743">
        <ele>628</ele>
        <time>2021-06-20T04:13:42Z</time>
      </trkpt>
      <trkpt lat="42.46075" lon="2.90778">
        <ele>633</ele>
        <time>2021-06-20T04:13:48Z</time>
      </trkpt>
      <trkpt lat="42.46092" lon="2.90843">
        <ele>638</ele>
        <time>2021-06-20T04:14:00Z</time>
      </trkpt>
      <trkpt lat="42.46121" lon="2.90878">
        <ele>632</ele>
        <time>2021-06-20T04:14:09Z</time>
      </trkpt>
      <trkpt lat="42.46125" lon="2.90899">
        <ele>634</ele>
        <time>2021-06-20T04:14:13Z</time>
      </trkpt>
      <trkpt lat="42.46123" lon="2.90918">
        <ele>637</ele>
        <time>2021-06-20T04:14:16Z</time>
      </trkpt>
      <trkpt lat="42.46099" lon="2.90984">
        <ele>649</ele>
        <time>2021-06-20T04:14:29Z</time>
      </trkpt>
      <trkpt lat="42.46097" lon="2.91009">
        <ele>651</ele>
        <time>2021-06-20T04:14:33Z</time>
      </trkpt>
      <trkpt lat="42.46101" lon="2.91018">
        <ele>651</ele>
        <time>2021-06-20T04:14:35Z</time>
      </trkpt>
      <trkpt lat="42.46118" lon="2.91029">
        <ele>648</ele>
        <time>2021-06-20T04:14:40Z</time>
      </trkpt>
      <trkpt lat="42.46179" lon="2.91018">
        <ele>633</ele>
        <time>2021-06-20T04:14:54Z</time>
      </trkpt>
      <trkpt lat="42.4619" lon="2.91023">
        <ele>632</ele>
        <time>2021-06-20T04:14:57Z</time>
      </trkpt>
      <trkpt lat="42.46188" lon="2.91076">
        <ele>640</ele>
        <time>2021-06-20T04:15:06Z</time>
      </trkpt>
      <trkpt lat="42.46193" lon="2.91099">
        <ele>643</ele>
        <time>2021-06-20T04:15:10Z</time>
      </trkpt>
      <trkpt lat="42.46258" lon="2.91163">
        <ele>636</ele>
        <time>2021-06-20T04:15:29Z</time>
      </trkpt>
      <trkpt lat="42.4627" lon="2.91212">
        <ele>639</ele>
        <time>2021-06-20T04:15:38Z</time>
      </trkpt>
      <trkpt lat="42.4628" lon="2.91234">
        <ele>640</ele>
        <time>2021-06-20T04:15:42Z</time>
      </trkpt>
      <trkpt lat="42.46276" lon="2.91299">
        <ele>644</ele>
        <time>2021-06-20T04:15:53Z</time>
      </trkpt>
      <trkpt lat="42.46263" lon="2.91329">
        <ele>649</ele>
        <time>2021-06-20T04:15:59Z</time>
      </trkpt>
      <trkpt lat="42.46246" lon="2.91431">
        <ele>657</ele>
        <time>2021-06-20T04:16:17Z</time>
      </trkpt>
      <trkpt lat="42.46247" lon="2.91481">
        <ele>662</ele>
        <time>2021-06-20T04:16:26Z</time>
      </trkpt>
      <trkpt lat="42.46253" lon="2.91506">
        <ele>664</ele>
        <time>2021-06-20T04:16:31Z</time>
      </trkpt>
      <trkpt lat="42.46272" lon="2.91499">
        <ele>665</ele>
        <time>2021-06-20T04:16:35Z</time>
      </trkpt>
      <trkpt lat="42.46297" lon="2.91466">
        <ele>660</ele>
        <time>2021-06-20T04:16:43Z</time>
      </trkpt>
      <trkpt lat="42.46358" lon="2.91415">
        <ele>648</ele>
        <time>2021-06-20T04:17:00Z</time>
      </trkpt>
      <trkpt lat="42.46394" lon="2.91399">
        <ele>646</ele>
        <time>2021-06-20T04:17:09Z</time>
      </trkpt>
      <trkpt lat="42.46436" lon="2.91411">
        <ele>649</ele>
        <time>2021-06-20T04:17:19Z</time>
      </trkpt>
      <trkpt lat="42.4646" lon="2.91438">
        <ele>653</ele>
        <time>2021-06-20T04:17:26Z</time>
      </trkpt>
      <trkpt lat="42.4649" lon="2.9145">
        <ele>654</ele>
        <time>2021-06-20T04:17:33Z</time>
      </trkpt>
      <trkpt lat="42.46509" lon="2.9145">
        <ele>656</ele>
        <time>2021-06-20T04:17:38Z</time>
      </trkpt>
      <trkpt lat="42.46529" lon="2.9149">
        <ele>664</ele>
        <time>2021-06-20T04:17:46Z</time>
      </trkpt>
      <trkpt lat="42.46531" lon="2.91507">
        <ele>667</ele>
        <time>2021-06-20T04:17:49Z</time>
      </trkpt>
      <trkpt lat="42.46541" lon="2.9153">
        <ele>671</ele>
        <time>2021-06-20T04:17:54Z</time>
      </trkpt>
      <trkpt lat="42.46551" lon="2.91537">
        <ele>673</ele>
        <time>2021-06-20T04:17:56Z</time>
      </trkpt>
      <trkpt lat="42.46559" lon="2.91528">
        <ele>673</ele>
        <time>2021-06-20T04:17:59Z</time>
      </trkpt>
      <trkpt lat="42.46568" lon="2.91466">
        <ele>669</ele>
        <time>2021-06-20T04:18:10Z</time>
      </trkpt>
      <trkpt lat="42.46576" lon="2.91458">
        <ele>670</ele>
        <time>2021-06-20T04:18:12Z</time>
      </trkpt>
      <trkpt lat="42.46586" lon="2.91468">
        <ele>674</ele>
        <time>2021-06-20T04:18:15Z</time>
      </trkpt>
      <trkpt lat="42.46603" lon="2.91448">
        <ele>679</ele>
        <time>2021-06-20T04:18:20Z</time>
      </trkpt>
      <trkpt lat="42.46593" lon="2.91474">
        <ele>677</ele>
        <time>2021-06-20T04:18:25Z</time>
      </trkpt>
      <trkpt lat="42.46598" lon="2.91537">
        <ele>684</ele>
        <time>2021-06-20T04:18:36Z</time>
      </trkpt>
      <trkpt lat="42.46609" lon="2.91548">
        <ele>690</ele>
        <time>2021-06-20T04:18:39Z</time>
      </trkpt>
      <trkpt lat="42.46619" lon="2.91548">
        <ele>694</ele>
        <time>2021-06-20T04:18:42Z</time>
      </trkpt>
      <trkpt lat="42.46633" lon="2.9153">
        <ele>700</ele>
        <time>2021-06-20T04:18:46Z</time>
      </trkpt>
      <trkpt lat="42.46642" lon="2.91486">
        <ele>700</ele>
        <time>2021-06-20T04:18:54Z</time>
      </trkpt>
      <trkpt lat="42.46654" lon="2.91471">
        <ele>704</ele>
        <time>2021-06-20T04:18:58Z</time>
      </trkpt>
      <trkpt lat="42.46675" lon="2.91471">
        <ele>712</ele>
        <time>2021-06-20T04:19:03Z</time>
      </trkpt>
      <trkpt lat="42.46692" lon="2.91437">
        <ele>713</ele>
        <time>2021-06-20T04:19:10Z</time>
      </trkpt>
      <trkpt lat="42.46703" lon="2.91433">
        <ele>716</ele>
        <time>2021-06-20T04:19:13Z</time>
      </trkpt>
      <trkpt lat="42.46713" lon="2.9142">
        <ele>716</ele>
        <time>2021-06-20T04:19:16Z</time>
      </trkpt>
      <trkpt lat="42.46716" lon="2.91411">
        <ele>715</ele>
        <time>2021-06-20T04:19:17Z</time>
      </trkpt>
      <trkpt lat="42.46753" lon="2.9139">
        <ele>721</ele>
        <time>2021-06-20T04:19:27Z</time>
      </trkpt>
      <trkpt lat="42.46787" lon="2.91363">
        <ele>719</ele>
        <time>2021-06-20T04:19:36Z</time>
      </trkpt>
      <trkpt lat="42.46789" lon="2.9135">
        <ele>715</ele>
        <time>2021-06-20T04:19:38Z</time>
      </trkpt>
      <trkpt lat="42.46806" lon="2.91332">
        <ele>713</ele>
        <time>2021-06-20T04:19:43Z</time>
      </trkpt>
      <trkpt lat="42.46814" lon="2.91327">
        <ele>714</ele>
        <time>2021-06-20T04:19:45Z</time>
      </trkpt>
      <trkpt lat="42.46842" lon="2.91334">
        <ele>716</ele>
        <time>2021-06-20T04:19:52Z</time>
      </trkpt>
      <trkpt lat="42.46863" lon="2.91386">
        <ele>726</ele>
        <time>2021-06-20T04:20:02Z</time>
      </trkpt>
      <trkpt lat="42.46881" lon="2.91492">
        <ele>750</ele>
        <time>2021-06-20T04:20:21Z</time>
      </trkpt>
      <trkpt lat="42.4687" lon="2.91592">
        <ele>769</ele>
        <time>2021-06-20T04:20:38Z</time>
      </trkpt>
      <trkpt lat="42.46873" lon="2.91625">
        <ele>773</ele>
        <time>2021-06-20T04:20:44Z</time>
      </trkpt>
      <trkpt lat="42.46893" lon="2.9168">
        <ele>780</ele>
        <time>2021-06-20T04:20:55Z</time>
      </trkpt>
      <trkpt lat="42.46922" lon="2.91729">
        <ele>791</ele>
        <time>2021-06-20T04:21:06Z</time>
      </trkpt>
      <trkpt lat="42.46931" lon="2.91732">
        <ele>792</ele>
        <time>2021-06-20T04:21:08Z</time>
      </trkpt>
      <trkpt lat="42.46974" lon="2.91779">
        <ele>803</ele>
        <time>2021-06-20T04:21:21Z</time>
      </trkpt>
      <trkpt lat="42.46989" lon="2.91832">
        <ele>815</ele>
        <time>2021-06-20T04:21:30Z</time>
      </trkpt>
      <trkpt lat="42.47015" lon="2.91961">
        <ele>833</ele>
        <time>2021-06-20T04:21:53Z</time>
      </trkpt>
      <trkpt lat="42.47018" lon="2.91993">
        <ele>837</ele>
        <time>2021-06-20T04:21:59Z</time>
      </trkpt>
      <trkpt lat="42.47033" lon="2.92005">
        <ele>839</ele>
        <time>2021-06-20T04:22:03Z</time>
      </trkpt>
      <trkpt lat="42.4705" lon="2.92039">
        <ele>845</ele>
        <time>2021-06-20T04:22:10Z</time>
      </trkpt>
      <trkpt lat="42.47061" lon="2.92051">
        <ele>848</ele>
        <time>2021-06-20T04:22:13Z</time>
      </trkpt>
      <trkpt lat="42.47061" lon="2.92066">
        <ele>851</ele>
        <time>2021-06-20T04:22:16Z</time>
      </trkpt>
      <trkpt lat="42.47069" lon="2.9208">
        <ele>855</ele>
        <time>2021-06-20T04:22:19Z</time>
      </trkpt>
      <trkpt lat="42.47078" lon="2.92126">
        <ele>861</ele>
        <time>2021-06-20T04:22:27Z</time>
      </trkpt>
      <trkpt lat="42.47075" lon="2.92138">
        <ele>862</ele>
        <time>2021-06-20T04:22:29Z</time>
      </trkpt>
      <trkpt lat="42.47088" lon="2.92159">
        <ele>866</ele>
        <time>2021-06-20T04:22:34Z</time>
      </trkpt>
      <trkpt lat="42.47123" lon="2.92322">
        <ele>891</ele>
        <time>2021-06-20T04:23:03Z</time>
      </trkpt>
      <trkpt lat="42.47215" lon="2.92391">
        <ele>917</ele>
        <time>2021-06-20T04:23:28Z</time>
      </trkpt>
      <trkpt lat="42.47272" lon="2.92444">
        <ele>926</ele>
        <time>2021-06-20T04:23:44Z</time>
      </trkpt>
      <trkpt lat="42.47293" lon="2.92455">
        <ele>924</ele>
        <time>2021-06-20T04:23:49Z</time>
      </trkpt>
      <trkpt lat="42.47366" lon="2.92509">
        <ele>918</ele>
        <time>2021-06-20T04:24:09Z</time>
      </trkpt>
      <trkpt lat="42.4738" lon="2.92532">
        <ele>921</ele>
        <time>2021-06-20T04:24:14Z</time>
      </trkpt>
      <trkpt lat="42.47384" lon="2.92553">
        <ele>927</ele>
        <time>2021-06-20T04:24:18Z</time>
      </trkpt>
      <trkpt lat="42.47436" lon="2.92629">
        <ele>939</ele>
        <time>2021-06-20T04:24:36Z</time>
      </trkpt>
      <trkpt lat="42.47456" lon="2.92633">
        <ele>942</ele>
        <time>2021-06-20T04:24:40Z</time>
      </trkpt>
      <trkpt lat="42.47565" lon="2.92588">
        <ele>945</ele>
        <time>2021-06-20T04:25:07Z</time>
      </trkpt>
      <trkpt lat="42.47593" lon="2.92566">
        <ele>945</ele>
        <time>2021-06-20T04:25:14Z</time>
      </trkpt>
      <trkpt lat="42.47638" lon="2.92506">
        <ele>939</ele>
        <time>2021-06-20T04:25:29Z</time>
      </trkpt>
      <trkpt lat="42.47704" lon="2.92471">
        <ele>947</ele>
        <time>2021-06-20T04:25:46Z</time>
      </trkpt>
      <trkpt lat="42.4773" lon="2.92431">
        <ele>941</ele>
        <time>2021-06-20T04:25:55Z</time>
      </trkpt>
      <trkpt lat="42.47774" lon="2.92416">
        <ele>948</ele>
        <time>2021-06-20T04:26:05Z</time>
      </trkpt>
      <trkpt lat="42.47799" lon="2.9239">
        <ele>945</ele>
        <time>2021-06-20T04:26:13Z</time>
      </trkpt>
      <trkpt lat="42.47854" lon="2.92354">
        <ele>945</ele>
        <time>2021-06-20T04:26:27Z</time>
      </trkpt>
      <trkpt lat="42.47865" lon="2.92334">
        <ele>942</ele>
        <time>2021-06-20T04:26:31Z</time>
      </trkpt>
      <trkpt lat="42.47881" lon="2.92293">
        <ele>937</ele>
        <time>2021-06-20T04:26:39Z</time>
      </trkpt>
      <trkpt lat="42.4792" lon="2.92267">
        <ele>942</ele>
        <time>2021-06-20T04:26:50Z</time>
      </trkpt>
      <trkpt lat="42.47937" lon="2.92262">
        <ele>945</ele>
        <time>2021-06-20T04:26:54Z</time>
      </trkpt>
      <trkpt lat="42.47935" lon="2.92303">
        <ele>949</ele>
        <time>2021-06-20T04:27:01Z</time>
      </trkpt>
      <trkpt lat="42.47916" lon="2.92365">
        <ele>960</ele>
        <time>2021-06-20T04:27:12Z</time>
      </trkpt>
      <trkpt lat="42.47896" lon="2.92396">
        <ele>964</ele>
        <time>2021-06-20T04:27:19Z</time>
      </trkpt>
      <trkpt lat="42.47843" lon="2.92528">
        <ele>993</ele>
        <time>2021-06-20T04:27:45Z</time>
      </trkpt>
      <trkpt lat="42.47793" lon="2.92606">
        <ele>1008</ele>
        <time>2021-06-20T04:28:03Z</time>
      </trkpt>
      <trkpt lat="42.47781" lon="2.92675">
        <ele>1026</ele>
        <time>2021-06-20T04:28:15Z</time>
      </trkpt>
      <trkpt lat="42.4777" lon="2.9268">
        <ele>1029</ele>
        <time>2021-06-20T04:28:18Z</time>
      </trkpt>
      <trkpt lat="42.47761" lon="2.927">
        <ele>1037</ele>
        <time>2021-06-20T04:28:22Z</time>
      </trkpt>
      <trkpt lat="42.4776" lon="2.92755">
        <ele>1052</ele>
        <time>2021-06-20T04:28:31Z</time>
      </trkpt>
      <trkpt lat="42.47758" lon="2.9276">
        <ele>1053</ele>
        <time>2021-06-20T04:28:32Z</time>
      </trkpt>
      <trkpt lat="42.47722" lon="2.92819">
        <ele>1063</ele>
        <time>2021-06-20T04:28:46Z</time>
      </trkpt>
      <trkpt lat="42.47706" lon="2.92856">
        <ele>1070</ele>
        <time>2021-06-20T04:28:53Z</time>
      </trkpt>
      <trkpt lat="42.47687" lon="2.9288">
        <ele>1075</ele>
        <time>2021-06-20T04:28:59Z</time>
      </trkpt>
      <trkpt lat="42.47683" lon="2.92881">
        <ele>1076</ele>
        <time>2021-06-20T04:29:00Z</time>
      </trkpt>
      <trkpt lat="42.47679" lon="2.92877">
        <ele>1077</ele>
        <time>2021-06-20T04:29:01Z</time>
      </trkpt>
      <trkpt lat="42.47674" lon="2.92877">
        <ele>1078</ele>
        <time>2021-06-20T04:29:02Z</time>
      </trkpt>
      <trkpt lat="42.47644" lon="2.92909">
        <ele>1082</ele>
        <time>2021-06-20T04:29:11Z</time>
      </trkpt>
      <trkpt lat="42.47617" lon="2.92929">
        <ele>1082</ele>
        <time>2021-06-20T04:29:18Z</time>
      </trkpt>
      <trkpt lat="42.47598" lon="2.92956">
        <ele>1085</ele>
        <time>2021-06-20T04:29:25Z</time>
      </trkpt>
      <trkpt lat="42.47574" lon="2.92974">
        <ele>1086</ele>
        <time>2021-06-20T04:29:31Z</time>
      </trkpt>
      <trkpt lat="42.47564" lon="2.92984">
        <ele>1087</ele>
        <time>2021-06-20T04:29:34Z</time>
      </trkpt>
      <trkpt lat="42.4756" lon="2.92992">
        <ele>1088</ele>
        <time>2021-06-20T04:29:36Z</time>
      </trkpt>
      <trkpt lat="42.47563" lon="2.93006">
        <ele>1091</ele>
        <time>2021-06-20T04:29:38Z</time>
      </trkpt>
      <trkpt lat="42.47582" lon="2.93052">
        <ele>1099</ele>
        <time>2021-06-20T04:29:47Z</time>
      </trkpt>
      <trkpt lat="42.47584" lon="2.93081">
        <ele>1102</ele>
        <time>2021-06-20T04:29:52Z</time>
      </trkpt>
      <trkpt lat="42.4758" lon="2.93098">
        <ele>1103</ele>
        <time>2021-06-20T04:29:56Z</time>
      </trkpt>
      <trkpt lat="42.47575" lon="2.93108">
        <ele>1103</ele>
        <time>2021-06-20T04:29:58Z</time>
      </trkpt>
      <trkpt lat="42.47573" lon="2.9317">
        <ele>1102</ele>
        <time>2021-06-20T04:30:08Z</time>
      </trkpt>
      <trkpt lat="42.47552" lon="2.93261">
        <ele>1100</ele>
        <time>2021-06-20T04:30:25Z</time>
      </trkpt>
      <trkpt lat="42.47543" lon="2.93283">
        <ele>1100</ele>
        <time>2021-06-20T04:30:29Z</time>
      </trkpt>
      <trkpt lat="42.47535" lon="2.93318">
        <ele>1099</ele>
        <time>2021-06-20T04:30:35Z</time>
      </trkpt>
      <trkpt lat="42.47529" lon="2.93371">
        <ele>1097</ele>
        <time>2021-06-20T04:30:45Z</time>
      </trkpt>
      <trkpt lat="42.47523" lon="2.93388">
        <ele>1098</ele>
        <time>2021-06-20T04:30:48Z</time>
      </trkpt>
      <trkpt lat="42.47514" lon="2.93392">
        <ele>1099</ele>
        <time>2021-06-20T04:30:50Z</time>
      </trkpt>
      <trkpt lat="42.4752" lon="2.9341">
        <ele>1097</ele>
        <time>2021-06-20T04:30:53Z</time>
      </trkpt>
      <trkpt lat="42.47513" lon="2.93413">
        <ele>1098</ele>
        <time>2021-06-20T04:30:55Z</time>
      </trkpt>
      <trkpt lat="42.47507" lon="2.93424">
        <ele>1099</ele>
        <time>2021-06-20T04:30:58Z</time>
      </trkpt>
      <trkpt lat="42.47508" lon="2.93446">
        <ele>1099</ele>
        <time>2021-06-20T04:31:01Z</time>
      </trkpt>
      <trkpt lat="42.47548" lon="2.93545">
        <ele>1098</ele>
        <time>2021-06-20T04:31:21Z</time>
      </trkpt>
      <trkpt lat="42.47587" lon="2.93658">
        <ele>1109</ele>
        <time>2021-06-20T04:31:42Z</time>
      </trkpt>
      <trkpt lat="42.47595" lon="2.93673">
        <ele>1110</ele>
        <time>2021-06-20T04:31:45Z</time>
      </trkpt>
      <trkpt lat="42.4758" lon="2.93695">
        <ele>1108</ele>
        <time>2021-06-20T04:31:51Z</time>
      </trkpt>
      <trkpt lat="42.47619" lon="2.93754">
        <ele>1112</ele>
        <time>2021-06-20T04:32:04Z</time>
      </trkpt>
      <trkpt lat="42.47685" lon="2.93801">
        <ele>1123</ele>
        <time>2021-06-20T04:32:22Z</time>
      </trkpt>
      <trkpt lat="42.477" lon="2.93814">
        <ele>1126</ele>
        <time>2021-06-20T04:32:26Z</time>
      </trkpt>
      <trkpt lat="42.47717" lon="2.93832">
        <ele>1131</ele>
        <time>2021-06-20T04:32:31Z</time>
      </trkpt>
      <trkpt lat="42.4774" lon="2.93868">
        <ele>1138</ele>
        <time>2021-06-20T04:32:39Z</time>
      </trkpt>
      <trkpt lat="42.47775" lon="2.93949">
        <ele>1148</ele>
        <time>2021-06-20T04:32:55Z</time>
      </trkpt>
      <trkpt lat="42.47813" lon="2.94053">
        <ele>1163</ele>
        <time>2021-06-20T04:33:15Z</time>
      </trkpt>
      <trkpt lat="42.47859" lon="2.94138">
        <ele>1175</ele>
        <time>2021-06-20T04:33:33Z</time>
      </trkpt>
      <trkpt lat="42.47877" lon="2.94183">
        <ele>1180</ele>
        <time>2021-06-20T04:33:42Z</time>
      </trkpt>
      <trkpt lat="42.47909" lon="2.94276">
        <ele>1195</ele>
        <time>2021-06-20T04:34:00Z</time>
      </trkpt>
      <trkpt lat="42.47921" lon="2.94336">
        <ele>1198</ele>
        <time>2021-06-20T04:34:11Z</time>
      </trkpt>
      <trkpt lat="42.47947" lon="2.94431">
        <ele>1204</ele>
        <time>2021-06-20T04:34:28Z</time>
      </trkpt>
      <trkpt lat="42.4795" lon="2.94495">
        <ele>1207</ele>
        <time>2021-06-20T04:34:39Z</time>
      </trkpt>
      <trkpt lat="42.47957" lon="2.94513">
        <ele>1208</ele>
        <time>2021-06-20T04:34:43Z</time>
      </trkpt>
      <trkpt lat="42.4796" lon="2.94529">
        <ele>1208</ele>
        <time>2021-06-20T04:34:45Z</time>
      </trkpt>
      <trkpt lat="42.47972" lon="2.94551">
        <ele>1210</ele>
        <time>2021-06-20T04:34:50Z</time>
      </trkpt>
      <trkpt lat="42.47984" lon="2.94559">
        <ele>1213</ele>
        <time>2021-06-20T04:34:53Z</time>
      </trkpt>
      <trkpt lat="42.47986" lon="2.94569">
        <ele>1213</ele>
        <time>2021-06-20T04:34:55Z</time>
      </trkpt>
      <trkpt lat="42.47999" lon="2.94581">
        <ele>1216</ele>
        <time>2021-06-20T04:34:59Z</time>
      </trkpt>
      <trkpt lat="42.48011" lon="2.94585">
        <ele>1217</ele>
        <time>2021-06-20T04:35:02Z</time>
      </trkpt>
      <trkpt lat="42.48059" lon="2.9463">
        <ele>1220</ele>
        <time>2021-06-20T04:35:15Z</time>
      </trkpt>
      <trkpt lat="42.48089" lon="2.94608">
        <ele>1224</ele>
        <time>2021-06-20T04:35:23Z</time>
      </trkpt>
      <trkpt lat="42.48132" lon="2.94633">
        <ele>1230</ele>
        <time>2021-06-20T04:35:34Z</time>
      </trkpt>
      <trkpt lat="42.48192" lon="2.94691">
        <ele>1240</ele>
        <time>2021-06-20T04:35:51Z</time>
      </trkpt>
      <trkpt lat="42.48198" lon="2.947">
        <ele>1240</ele>
        <time>2021-06-20T04:35:53Z</time>
      </trkpt>
      <trkpt lat="42.48181" lon="2.94715">
        <ele>1240</ele>
        <time>2021-06-20T04:35:58Z</time>
      </trkpt>
      <trkpt lat="42.48151" lon="2.94735">
        <ele>1235</ele>
        <time>2021-06-20T04:36:06Z</time>
      </trkpt>
      <trkpt lat="42.48104" lon="2.94755">
        <ele>1219</ele>
        <time>2021-06-20T04:36:17Z</time>
      </trkpt>
      <trkpt lat="42.4806" lon="2.94783">
        <ele>1200</ele>
        <time>2021-06-20T04:36:29Z</time>
      </trkpt>
      <trkpt lat="42.48014" lon="2.94825">
        <ele>1179</ele>
        <time>2021-06-20T04:36:42Z</time>
      </trkpt>
      <trkpt lat="42.47997" lon="2.94845">
        <ele>1170</ele>
        <time>2021-06-20T04:36:47Z</time>
      </trkpt>
      <trkpt lat="42.47988" lon="2.94864">
        <ele>1162</ele>
        <time>2021-06-20T04:36:51Z</time>
      </trkpt>
      <trkpt lat="42.47978" lon="2.94873">
        <ele>1156</ele>
        <time>2021-06-20T04:36:54Z</time>
      </trkpt>
      <trkpt lat="42.4797" lon="2.94909">
        <ele>1146</ele>
        <time>2021-06-20T04:37:00Z</time>
      </trkpt>
      <trkpt lat="42.47949" lon="2.94933">
        <ele>1134</ele>
        <time>2021-06-20T04:37:07Z</time>
      </trkpt>
      <trkpt lat="42.47929" lon="2.94949">
        <ele>1125</ele>
        <time>2021-06-20T04:37:12Z</time>
      </trkpt>
      <trkpt lat="42.47903" lon="2.94984">
        <ele>1112</ele>
        <time>2021-06-20T04:37:21Z</time>
      </trkpt>
      <trkpt lat="42.47893" lon="2.94994">
        <ele>1108</ele>
        <time>2021-06-20T04:37:24Z</time>
      </trkpt>
      <trkpt lat="42.47849" lon="2.95025">
        <ele>1091</ele>
        <time>2021-06-20T04:37:35Z</time>
      </trkpt>
      <trkpt lat="42.47825" lon="2.95049">
        <ele>1083</ele>
        <time>2021-06-20T04:37:42Z</time>
      </trkpt>
      <trkpt lat="42.47806" lon="2.95107">
        <ele>1075</ele>
        <time>2021-06-20T04:37:53Z</time>
      </trkpt>
      <trkpt lat="42.47814" lon="2.95159">
        <ele>1069</ele>
        <time>2021-06-20T04:38:02Z</time>
      </trkpt>
      <trkpt lat="42.47837" lon="2.95171">
        <ele>1069</ele>
        <time>2021-06-20T04:38:08Z</time>
      </trkpt>
      <trkpt lat="42.47822" lon="2.95189">
        <ele>1066</ele>
        <time>2021-06-20T04:38:13Z</time>
      </trkpt>
      <trkpt lat="42.47808" lon="2.95201">
        <ele>1064</ele>
        <time>2021-06-20T04:38:16Z</time>
      </trkpt>
      <trkpt lat="42.47776" lon="2.95258">
        <ele>1059</ele>
        <time>2021-06-20T04:38:29Z</time>
      </trkpt>
      <trkpt lat="42.4767" lon="2.95402">
        <ele>1046</ele>
        <time>2021-06-20T04:39:04Z</time>
      </trkpt>
      <trkpt lat="42.4762" lon="2.95524">
        <ele>1036</ele>
        <time>2021-06-20T04:39:28Z</time>
      </trkpt>
      <trkpt lat="42.47613" lon="2.95547">
        <ele>1035</ele>
        <time>2021-06-20T04:39:32Z</time>
      </trkpt>
      <trkpt lat="42.47601" lon="2.95607">
        <ele>1037</ele>
        <time>2021-06-20T04:39:43Z</time>
      </trkpt>
      <trkpt lat="42.47598" lon="2.95652">
        <ele>1039</ele>
        <time>2021-06-20T04:39:51Z</time>
      </trkpt>
      <trkpt lat="42.47584" lon="2.95696">
        <ele>1040</ele>
        <time>2021-06-20T04:39:59Z</time>
      </trkpt>
      <trkpt lat="42.47528" lon="2.95774">
        <ele>1030</ele>
        <time>2021-06-20T04:40:18Z</time>
      </trkpt>
      <trkpt lat="42.47493" lon="2.95901">
        <ele>1024</ele>
        <time>2021-06-20T04:40:41Z</time>
      </trkpt>
      <trkpt lat="42.47471" lon="2.95965">
        <ele>1020</ele>
        <time>2021-06-20T04:40:53Z</time>
      </trkpt>
      <trkpt lat="42.47444" lon="2.96018">
        <ele>1021</ele>
        <time>2021-06-20T04:41:04Z</time>
      </trkpt>
      <trkpt lat="42.47398" lon="2.96045">
        <ele>1021</ele>
        <time>2021-06-20T04:41:16Z</time>
      </trkpt>
      <trkpt lat="42.47351" lon="2.96057">
        <ele>1016</ele>
        <time>2021-06-20T04:41:27Z</time>
      </trkpt>
      <trkpt lat="42.47332" lon="2.96089">
        <ele>1017</ele>
        <time>2021-06-20T04:41:34Z</time>
      </trkpt>
      <trkpt lat="42.47314" lon="2.96072">
        <ele>1017</ele>
        <time>2021-06-20T04:41:39Z</time>
      </trkpt>
      <trkpt lat="42.47272" lon="2.96091">
        <ele>1023</ele>
        <time>2021-06-20T04:41:50Z</time>
      </trkpt>
      <trkpt lat="42.47261" lon="2.96118">
        <ele>1026</ele>
        <time>2021-06-20T04:41:55Z</time>
      </trkpt>
      <trkpt lat="42.47243" lon="2.96127">
        <ele>1029</ele>
        <time>2021-06-20T04:41:59Z</time>
      </trkpt>
      <trkpt lat="42.47233" lon="2.96148">
        <ele>1032</ele>
        <time>2021-06-20T04:42:04Z</time>
      </trkpt>
      <trkpt lat="42.47205" lon="2.96151">
        <ele>1034</ele>
        <time>2021-06-20T04:42:10Z</time>
      </trkpt>
      <trkpt lat="42.47175" lon="2.9617">
        <ele>1038</ele>
        <time>2021-06-20T04:42:18Z</time>
      </trkpt>
      <trkpt lat="42.47104" lon="2.96178">
        <ele>1040</ele>
        <time>2021-06-20T04:42:35Z</time>
      </trkpt>
      <trkpt lat="42.47073" lon="2.96189">
        <ele>1037</ele>
        <time>2021-06-20T04:42:42Z</time>
      </trkpt>
      <trkpt lat="42.47039" lon="2.96266">
        <ele>1038</ele>
        <time>2021-06-20T04:42:58Z</time>
      </trkpt>
      <trkpt lat="42.46985" lon="2.96312">
        <ele>1039</ele>
        <time>2021-06-20T04:43:13Z</time>
      </trkpt>
      <trkpt lat="42.4696" lon="2.96317">
        <ele>1036</ele>
        <time>2021-06-20T04:43:18Z</time>
      </trkpt>
      <trkpt lat="42.46945" lon="2.96348">
        <ele>1037</ele>
        <time>2021-06-20T04:43:25Z</time>
      </trkpt>
      <trkpt lat="42.46895" lon="2.96387">
        <ele>1025</ele>
        <time>2021-06-20T04:43:38Z</time>
      </trkpt>
      <trkpt lat="42.46888" lon="2.96418">
        <ele>1022</ele>
        <time>2021-06-20T04:43:44Z</time>
      </trkpt>
      <trkpt lat="42.46868" lon="2.96443">
        <ele>1015</ele>
        <time>2021-06-20T04:43:50Z</time>
      </trkpt>
      <trkpt lat="42.46858" lon="2.96478">
        <ele>1011</ele>
        <time>2021-06-20T04:43:57Z</time>
      </trkpt>
      <trkpt lat="42.46839" lon="2.96482">
        <ele>1008</ele>
        <time>2021-06-20T04:44:01Z</time>
      </trkpt>
      <trkpt lat="42.46839" lon="2.96487">
        <ele>1008</ele>
        <time>2021-06-20T04:44:02Z</time>
      </trkpt>
      <trkpt lat="42.46818" lon="2.96542">
        <ele>1000</ele>
        <time>2021-06-20T04:44:13Z</time>
      </trkpt>
      <trkpt lat="42.46783" lon="2.96562">
        <ele>994</ele>
        <time>2021-06-20T04:44:22Z</time>
      </trkpt>
      <trkpt lat="42.46781" lon="2.96586">
        <ele>993</ele>
        <time>2021-06-20T04:44:26Z</time>
      </trkpt>
      <trkpt lat="42.46766" lon="2.96596">
        <ele>990</ele>
        <time>2021-06-20T04:44:30Z</time>
      </trkpt>
      <trkpt lat="42.46744" lon="2.96597">
        <ele>989</ele>
        <time>2021-06-20T04:44:35Z</time>
      </trkpt>
      <trkpt lat="42.46713" lon="2.96657">
        <ele>987</ele>
        <time>2021-06-20T04:44:47Z</time>
      </trkpt>
      <trkpt lat="42.46674" lon="2.9678">
        <ele>980</ele>
        <time>2021-06-20T04:45:10Z</time>
      </trkpt>
      <trkpt lat="42.46665" lon="2.96963">
        <ele>975</ele>
        <time>2021-06-20T04:45:42Z</time>
      </trkpt>
      <trkpt lat="42.46659" lon="2.97183">
        <ele>973</ele>
        <time>2021-06-20T04:46:20Z</time>
      </trkpt>
      <trkpt lat="42.46699" lon="2.97256">
        <ele>983</ele>
        <time>2021-06-20T04:46:36Z</time>
      </trkpt>
      <trkpt lat="42.46705" lon="2.97331">
        <ele>993</ele>
        <time>2021-06-20T04:46:49Z</time>
      </trkpt>
      <trkpt lat="42.46741" lon="2.97512">
        <ele>1024</ele>
        <time>2021-06-20T04:47:21Z</time>
      </trkpt>
      <trkpt lat="42.46741" lon="2.97579">
        <ele>1034</ele>
        <time>2021-06-20T04:47:32Z</time>
      </trkpt>
      <trkpt lat="42.46756" lon="2.97652">
        <ele>1048</ele>
        <time>2021-06-20T04:47:46Z</time>
      </trkpt>
      <trkpt lat="42.46786" lon="2.9768">
        <ele>1051</ele>
        <time>2021-06-20T04:47:54Z</time>
      </trkpt>
      <trkpt lat="42.46799" lon="2.97731">
        <ele>1052</ele>
        <time>2021-06-20T04:48:03Z</time>
      </trkpt>
      <trkpt lat="42.46798" lon="2.9774">
        <ele>1053</ele>
        <time>2021-06-20T04:48:05Z</time>
      </trkpt>
      <trkpt lat="42.46823" lon="2.9789">
        <ele>1052</ele>
        <time>2021-06-20T04:48:31Z</time>
      </trkpt>
      <trkpt lat="42.46859" lon="2.98011">
        <ele>1048</ele>
        <time>2021-06-20T04:48:54Z</time>
      </trkpt>
      <trkpt lat="42.46898" lon="2.98103">
        <ele>1040</ele>
        <time>2021-06-20T04:49:12Z</time>
      </trkpt>
      <trkpt lat="42.46912" lon="2.98118">
        <ele>1041</ele>
        <time>2021-06-20T04:49:16Z</time>
      </trkpt>
      <trkpt lat="42.47001" lon="2.98164">
        <ele>1040</ele>
        <time>2021-06-20T04:49:39Z</time>
      </trkpt>
      <trkpt lat="42.47071" lon="2.98172">
        <ele>1042</ele>
        <time>2021-06-20T04:49:55Z</time>
      </trkpt>
      <trkpt lat="42.47107" lon="2.98186">
        <ele>1040</ele>
        <time>2021-06-20T04:50:04Z</time>
      </trkpt>
      <trkpt lat="42.47155" lon="2.98194">
        <ele>1036</ele>
        <time>2021-06-20T04:50:15Z</time>
      </trkpt>
      <trkpt lat="42.4719" lon="2.98252">
        <ele>1031</ele>
        <time>2021-06-20T04:50:28Z</time>
      </trkpt>
      <trkpt lat="42.47214" lon="2.98319">
        <ele>1024</ele>
        <time>2021-06-20T04:50:41Z</time>
      </trkpt>
      <trkpt lat="42.47245" lon="2.98346">
        <ele>1026</ele>
        <time>2021-06-20T04:50:49Z</time>
      </trkpt>
      <trkpt lat="42.47266" lon="2.98373">
        <ele>1030</ele>
        <time>2021-06-20T04:50:56Z</time>
      </trkpt>
      <trkpt lat="42.47351" lon="2.98455">
        <ele>1050</ele>
        <time>2021-06-20T04:51:20Z</time>
      </trkpt>
      <trkpt lat="42.47402" lon="2.98538">
        <ele>1074</ele>
        <time>2021-06-20T04:51:39Z</time>
      </trkpt>
      <trkpt lat="42.47449" lon="2.98579">
        <ele>1086</ele>
        <time>2021-06-20T04:51:52Z</time>
      </trkpt>
      <trkpt lat="42.47477" lon="2.98593">
        <ele>1090</ele>
        <time>2021-06-20T04:51:59Z</time>
      </trkpt>
      <trkpt lat="42.47505" lon="2.98596">
        <ele>1091</ele>
        <time>2021-06-20T04:52:06Z</time>
      </trkpt>
      <trkpt lat="42.47515" lon="2.98605">
        <ele>1095</ele>
        <time>2021-06-20T04:52:08Z</time>
      </trkpt>
      <trkpt lat="42.47536" lon="2.98605">
        <ele>1097</ele>
        <time>2021-06-20T04:52:13Z</time>
      </trkpt>
      <trkpt lat="42.47608" lon="2.98586">
        <ele>1098</ele>
        <time>2021-06-20T04:52:30Z</time>
      </trkpt>
      <trkpt lat="42.47647" lon="2.98548">
        <ele>1090</ele>
        <time>2021-06-20T04:52:42Z</time>
      </trkpt>
      <trkpt lat="42.47683" lon="2.98561">
        <ele>1097</ele>
        <time>2021-06-20T04:52:50Z</time>
      </trkpt>
      <trkpt lat="42.47712" lon="2.98533">
        <ele>1093</ele>
        <time>2021-06-20T04:52:59Z</time>
      </trkpt>
      <trkpt lat="42.47723" lon="2.98535">
        <ele>1095</ele>
        <time>2021-06-20T04:53:01Z</time>
      </trkpt>
      <trkpt lat="42.47735" lon="2.98561">
        <ele>1101</ele>
        <time>2021-06-20T04:53:07Z</time>
      </trkpt>
      <trkpt lat="42.47748" lon="2.98565">
        <ele>1103</ele>
        <time>2021-06-20T04:53:10Z</time>
      </trkpt>
      <trkpt lat="42.47769" lon="2.98591">
        <ele>1107</ele>
        <time>2021-06-20T04:53:16Z</time>
      </trkpt>
      <trkpt lat="42.47794" lon="2.98662">
        <ele>1113</ele>
        <time>2021-06-20T04:53:30Z</time>
      </trkpt>
      <trkpt lat="42.47772" lon="2.98672">
        <ele>1116</ele>
        <time>2021-06-20T04:53:35Z</time>
      </trkpt>
      <trkpt lat="42.47757" lon="2.98687">
        <ele>1119</ele>
        <time>2021-06-20T04:53:40Z</time>
      </trkpt>
      <trkpt lat="42.47741" lon="2.98736">
        <ele>1123</ele>
        <time>2021-06-20T04:53:49Z</time>
      </trkpt>
      <trkpt lat="42.47716" lon="2.98757">
        <ele>1124</ele>
        <time>2021-06-20T04:53:56Z</time>
      </trkpt>
      <trkpt lat="42.47663" lon="2.9876">
        <ele>1126</ele>
        <time>2021-06-20T04:54:08Z</time>
      </trkpt>
      <trkpt lat="42.47618" lon="2.9878">
        <ele>1128</ele>
        <time>2021-06-20T04:54:19Z</time>
      </trkpt>
      <trkpt lat="42.47591" lon="2.98804">
        <ele>1130</ele>
        <time>2021-06-20T04:54:27Z</time>
      </trkpt>
      <trkpt lat="42.47577" lon="2.98833">
        <ele>1132</ele>
        <time>2021-06-20T04:54:33Z</time>
      </trkpt>
      <trkpt lat="42.4757" lon="2.98862">
        <ele>1130</ele>
        <time>2021-06-20T04:54:38Z</time>
      </trkpt>
      <trkpt lat="42.47548" lon="2.9892">
        <ele>1131</ele>
        <time>2021-06-20T04:54:49Z</time>
      </trkpt>
      <trkpt lat="42.47532" lon="2.99057">
        <ele>1122</ele>
        <time>2021-06-20T04:55:13Z</time>
      </trkpt>
      <trkpt lat="42.47508" lon="2.99135">
        <ele>1123</ele>
        <time>2021-06-20T04:55:28Z</time>
      </trkpt>
      <trkpt lat="42.47487" lon="2.99159">
        <ele>1128</ele>
        <time>2021-06-20T04:55:34Z</time>
      </trkpt>
      <trkpt lat="42.47476" lon="2.99203">
        <ele>1125</ele>
        <time>2021-06-20T04:55:42Z</time>
      </trkpt>
      <trkpt lat="42.47479" lon="2.99226">
        <ele>1121</ele>
        <time>2021-06-20T04:55:46Z</time>
      </trkpt>
      <trkpt lat="42.47459" lon="2.9927">
        <ele>1123</ele>
        <time>2021-06-20T04:55:55Z</time>
      </trkpt>
      <trkpt lat="42.47462" lon="2.99293">
        <ele>1120</ele>
        <time>2021-06-20T04:55:59Z</time>
      </trkpt>
      <trkpt lat="42.47436" lon="2.99323">
        <ele>1127</ele>
        <time>2021-06-20T04:56:07Z</time>
      </trkpt>
      <trkpt lat="42.47439" lon="2.99343">
        <ele>1124</ele>
        <time>2021-06-20T04:56:11Z</time>
      </trkpt>
      <trkpt lat="42.47428" lon="2.99384">
        <ele>1124</ele>
        <time>2021-06-20T04:56:18Z</time>
      </trkpt>
      <trkpt lat="42.47399" lon="2.99419">
        <ele>1121</ele>
        <time>2021-06-20T04:56:27Z</time>
      </trkpt>
      <trkpt lat="42.47371" lon="2.99518">
        <ele>1112</ele>
        <time>2021-06-20T04:56:45Z</time>
      </trkpt>
      <trkpt lat="42.47392" lon="2.99574">
        <ele>1113</ele>
        <time>2021-06-20T04:56:56Z</time>
      </trkpt>
      <trkpt lat="42.474" lon="2.99641">
        <ele>1119</ele>
        <time>2021-06-20T04:57:08Z</time>
      </trkpt>
      <trkpt lat="42.47401" lon="2.99704">
        <ele>1128</ele>
        <time>2021-06-20T04:57:19Z</time>
      </trkpt>
      <trkpt lat="42.47411" lon="2.9978">
        <ele>1137</ele>
        <time>2021-06-20T04:57:32Z</time>
      </trkpt>
      <trkpt lat="42.47402" lon="2.99832">
        <ele>1139</ele>
        <time>2021-06-20T04:57:41Z</time>
      </trkpt>
      <trkpt lat="42.47355" lon="2.99935">
        <ele>1124</ele>
        <time>2021-06-20T04:58:02Z</time>
      </trkpt>
      <trkpt lat="42.47346" lon="2.99977">
        <ele>1120</ele>
        <time>2021-06-20T04:58:10Z</time>
      </trkpt>
      <trkpt lat="42.47316" lon="3.00051">
        <ele>1103</ele>
        <time>2021-06-20T04:58:24Z</time>
      </trkpt>
      <trkpt lat="42.47303" lon="3.00069">
        <ele>1096</ele>
        <time>2021-06-20T04:58:29Z</time>
      </trkpt>
      <trkpt lat="42.47269" lon="3.00152">
        <ele>1090</ele>
        <time>2021-06-20T04:58:45Z</time>
      </trkpt>
      <trkpt lat="42.47223" lon="3.0022">
        <ele>1073</ele>
        <time>2021-06-20T04:59:01Z</time>
      </trkpt>
      <trkpt lat="42.47218" lon="3.00256">
        <ele>1070</ele>
        <time>2021-06-20T04:59:07Z</time>
      </trkpt>
      <trkpt lat="42.47209" lon="3.00257">
        <ele>1066</ele>
        <time>2021-06-20T04:59:09Z</time>
      </trkpt>
      <trkpt lat="42.47175" lon="3.00281">
        <ele>1052</ele>
        <time>2021-06-20T04:59:18Z</time>
      </trkpt>
      <trkpt lat="42.47154" lon="3.00286">
        <ele>1044</ele>
        <time>2021-06-20T04:59:23Z</time>
      </trkpt>
      <trkpt lat="42.47131" lon="3.00297">
        <ele>1037</ele>
        <time>2021-06-20T04:59:29Z</time>
      </trkpt>
      <trkpt lat="42.47112" lon="3.00298">
        <ele>1030</ele>
        <time>2021-06-20T04:59:33Z</time>
      </trkpt>
      <trkpt lat="42.47107" lon="3.00301">
        <ele>1029</ele>
        <time>2021-06-20T04:59:35Z</time>
      </trkpt>
      <trkpt lat="42.47096" lon="3.00311">
        <ele>1027</ele>
        <time>2021-06-20T04:59:38Z</time>
      </trkpt>
      <trkpt lat="42.47047" lon="3.00382">
        <ele>1014</ele>
        <time>2021-06-20T04:59:54Z</time>
      </trkpt>
      <trkpt lat="42.47038" lon="3.00415">
        <ele>1012</ele>
        <time>2021-06-20T05:00:00Z</time>
      </trkpt>
      <trkpt lat="42.47033" lon="3.00455">
        <ele>1008</ele>
        <time>2021-06-20T05:00:07Z</time>
      </trkpt>
      <trkpt lat="42.47021" lon="3.00505">
        <ele>1003</ele>
        <time>2021-06-20T05:00:16Z</time>
      </trkpt>
      <trkpt lat="42.47011" lon="3.00527">
        <ele>999</ele>
        <time>2021-06-20T05:00:21Z</time>
      </trkpt>
      <trkpt lat="42.46989" lon="3.00603">
        <ele>988</ele>
        <time>2021-06-20T05:00:35Z</time>
      </trkpt>
      <trkpt lat="42.46989" lon="3.00625">
        <ele>985</ele>
        <time>2021-06-20T05:00:39Z</time>
      </trkpt>
      <trkpt lat="42.46973" lon="3.00667">
        <ele>975</ele>
        <time>2021-06-20T05:00:47Z</time>
      </trkpt>
      <trkpt lat="42.4697" lon="3.007">
        <ele>971</ele>
        <time>2021-06-20T05:00:53Z</time>
      </trkpt>
      <trkpt lat="42.46979" lon="3.00759">
        <ele>966</ele>
        <time>2021-06-20T05:01:03Z</time>
      </trkpt>
      <trkpt lat="42.46968" lon="3.00812">
        <ele>966</ele>
        <time>2021-06-20T05:01:13Z</time>
      </trkpt>
      <trkpt lat="42.46967" lon="3.00836">
        <ele>966</ele>
        <time>2021-06-20T05:01:17Z</time>
      </trkpt>
      <trkpt lat="42.4693" lon="3.00956">
        <ele>965</ele>
        <time>2021-06-20T05:01:39Z</time>
      </trkpt>
      <trkpt lat="42.46915" lon="3.00979">
        <ele>965</ele>
        <time>2021-06-20T05:01:44Z</time>
      </trkpt>
      <trkpt lat="42.46875" lon="3.01081">
        <ele>956</ele>
        <time>2021-06-20T05:02:04Z</time>
      </trkpt>
      <trkpt lat="42.46836" lon="3.0114">
        <ele>954</ele>
        <time>2021-06-20T05:02:18Z</time>
      </trkpt>
      <trkpt lat="42.46816" lon="3.01256">
        <ele>946</ele>
        <time>2021-06-20T05:02:38Z</time>
      </trkpt>
      <trkpt lat="42.46803" lon="3.01382">
        <ele>942</ele>
        <time>2021-06-20T05:03:00Z</time>
      </trkpt>
      <trkpt lat="42.46803" lon="3.01408">
        <ele>942</ele>
        <time>2021-06-20T05:03:05Z</time>
      </trkpt>
      <trkpt lat="42.46837" lon="3.01474">
        <ele>929</ele>
        <time>2021-06-20T05:03:19Z</time>
      </trkpt>
      <trkpt lat="42.46839" lon="3.01499">
        <ele>927</ele>
        <time>2021-06-20T05:03:23Z</time>
      </trkpt>
      <trkpt lat="42.46861" lon="3.01546">
        <ele>922</ele>
        <time>2021-06-20T05:03:33Z</time>
      </trkpt>
      <trkpt lat="42.46905" lon="3.01598">
        <ele>920</ele>
        <time>2021-06-20T05:03:46Z</time>
      </trkpt>
      <trkpt lat="42.46922" lon="3.01628">
        <ele>919</ele>
        <time>2021-06-20T05:03:53Z</time>
      </trkpt>
      <trkpt lat="42.46949" lon="3.01647">
        <ele>915</ele>
        <time>2021-06-20T05:04:00Z</time>
      </trkpt>
      <trkpt lat="42.46959" lon="3.017">
        <ele>913</ele>
        <time>2021-06-20T05:04:09Z</time>
      </trkpt>
      <trkpt lat="42.46977" lon="3.01774">
        <ele>909</ele>
        <time>2021-06-20T05:04:23Z</time>
      </trkpt>
      <trkpt lat="42.46995" lon="3.01805">
        <ele>908</ele>
        <time>2021-06-20T05:04:29Z</time>
      </trkpt>
      <trkpt lat="42.4706" lon="3.01853">
        <ele>907</ele>
        <time>2021-06-20T05:04:47Z</time>
      </trkpt>
      <trkpt lat="42.47112" lon="3.01883">
        <ele>909</ele>
        <time>2021-06-20T05:05:00Z</time>
      </trkpt>
      <trkpt lat="42.47169" lon="3.01936">
        <ele>913</ele>
        <time>2021-06-20T05:05:16Z</time>
      </trkpt>
      <trkpt lat="42.47186" lon="3.02011">
        <ele>927</ele>
        <time>2021-06-20T05:05:30Z</time>
      </trkpt>
      <trkpt lat="42.4719" lon="3.02091">
        <ele>939</ele>
        <time>2021-06-20T05:05:43Z</time>
      </trkpt>
      <trkpt lat="42.47199" lon="3.02114">
        <ele>942</ele>
        <time>2021-06-20T05:05:48Z</time>
      </trkpt>
      <trkpt lat="42.47237" lon="3.02139">
        <ele>943</ele>
        <time>2021-06-20T05:05:58Z</time>
      </trkpt>
      <trkpt lat="42.47259" lon="3.02133">
        <ele>940</ele>
        <time>2021-06-20T05:06:03Z</time>
      </trkpt>
      <trkpt lat="42.47265" lon="3.02142">
        <ele>942</ele>
        <time>2021-06-20T05:06:05Z</time>
      </trkpt>
      <trkpt lat="42.47279" lon="3.02137">
        <ele>940</ele>
        <time>2021-06-20T05:06:08Z</time>
      </trkpt>
      <trkpt lat="42.47285" lon="3.02129">
        <ele>938</ele>
        <time>2021-06-20T05:06:10Z</time>
      </trkpt>
      <trkpt lat="42.47336" lon="3.02115">
        <ele>932</ele>
        <time>2021-06-20T05:06:23Z</time>
      </trkpt>
      <trkpt lat="42.47379" lon="3.0213">
        <ele>929</ele>
        <time>2021-06-20T05:06:33Z</time>
      </trkpt>
      <trkpt lat="42.47387" lon="3.02138">
        <ele>930</ele>
        <time>2021-06-20T05:06:35Z</time>
      </trkpt>
      <trkpt lat="42.47396" lon="3.0217">
        <ele>934</ele>
        <time>2021-06-20T05:06:41Z</time>
      </trkpt>
      <trkpt lat="42.47393" lon="3.02203">
        <ele>935</ele>
        <time>2021-06-20T05:06:47Z</time>
      </trkpt>
      <trkpt lat="42.47395" lon="3.02255">
        <ele>935</ele>
        <time>2021-06-20T05:06:56Z</time>
      </trkpt>
      <trkpt lat="42.47381" lon="3.02311">
        <ele>938</ele>
        <time>2021-06-20T05:07:06Z</time>
      </trkpt>
      <trkpt lat="42.4737" lon="3.02364">
        <ele>939</ele>
        <time>2021-06-20T05:07:16Z</time>
      </trkpt>
      <trkpt lat="42.47371" lon="3.02374">
        <ele>938</ele>
        <time>2021-06-20T05:07:17Z</time>
      </trkpt>
      <trkpt lat="42.47368" lon="3.02392">
        <ele>938</ele>
        <time>2021-06-20T05:07:20Z</time>
      </trkpt>
      <trkpt lat="42.47363" lon="3.02406">
        <ele>939</ele>
        <time>2021-06-20T05:07:23Z</time>
      </trkpt>
      <trkpt lat="42.47378" lon="3.02473">
        <ele>933</ele>
        <time>2021-06-20T05:07:35Z</time>
      </trkpt>
      <trkpt lat="42.47374" lon="3.02526">
        <ele>931</ele>
        <time>2021-06-20T05:07:44Z</time>
      </trkpt>
      <trkpt lat="42.47363" lon="3.02556">
        <ele>931</ele>
        <time>2021-06-20T05:07:50Z</time>
      </trkpt>
      <trkpt lat="42.47348" lon="3.02577">
        <ele>933</ele>
        <time>2021-06-20T05:07:55Z</time>
      </trkpt>
      <trkpt lat="42.47344" lon="3.02588">
        <ele>933</ele>
        <time>2021-06-20T05:07:57Z</time>
      </trkpt>
      <trkpt lat="42.47338" lon="3.02596">
        <ele>935</ele>
        <time>2021-06-20T05:07:59Z</time>
      </trkpt>
      <trkpt lat="42.47332" lon="3.02627">
        <ele>934</ele>
        <time>2021-06-20T05:08:05Z</time>
      </trkpt>
      <trkpt lat="42.47328" lon="3.0279">
        <ele>919</ele>
        <time>2021-06-20T05:08:33Z</time>
      </trkpt>
      <trkpt lat="42.47368" lon="3.02882">
        <ele>909</ele>
        <time>2021-06-20T05:08:51Z</time>
      </trkpt>
      <trkpt lat="42.47419" lon="3.02924">
        <ele>910</ele>
        <time>2021-06-20T05:09:05Z</time>
      </trkpt>
      <trkpt lat="42.47459" lon="3.0298">
        <ele>901</ele>
        <time>2021-06-20T05:09:19Z</time>
      </trkpt>
      <trkpt lat="42.47471" lon="3.03013">
        <ele>898</ele>
        <time>2021-06-20T05:09:25Z</time>
      </trkpt>
      <trkpt lat="42.47475" lon="3.03061">
        <ele>889</ele>
        <time>2021-06-20T05:09:33Z</time>
      </trkpt>
      <trkpt lat="42.47495" lon="3.03121">
        <ele>883</ele>
        <time>2021-06-20T05:09:45Z</time>
      </trkpt>
      <trkpt lat="42.4748" lon="3.03186">
        <ele>883</ele>
        <time>2021-06-20T05:09:56Z</time>
      </trkpt>
      <trkpt lat="42.47482" lon="3.0325">
        <ele>892</ele>
        <time>2021-06-20T05:10:07Z</time>
      </trkpt>
      <trkpt lat="42.47465" lon="3.03307">
        <ele>900</ele>
        <time>2021-06-20T05:10:18Z</time>
      </trkpt>
      <trkpt lat="42.47478" lon="3.03379">
        <ele>911</ele>
        <time>2021-06-20T05:10:31Z</time>
      </trkpt>
      <trkpt lat="42.47474" lon="3.03417">
        <ele>917</ele>
        <time>2021-06-20T05:10:37Z</time>
      </trkpt>
      <trkpt lat="42.47461" lon="3.03448">
        <ele>922</ele>
        <time>2021-06-20T05:10:44Z</time>
      </trkpt>
      <trkpt lat="42.47458" lon="3.03483">
        <ele>927</ele>
        <time>2021-06-20T05:10:50Z</time>
      </trkpt>
      <trkpt lat="42.47468" lon="3.03571">
        <ele>935</ele>
        <time>2021-06-20T05:11:05Z</time>
      </trkpt>
      <trkpt lat="42.47464" lon="3.03675">
        <ele>941</ele>
        <time>2021-06-20T05:11:23Z</time>
      </trkpt>
      <trkpt lat="42.47484" lon="3.03762">
        <ele>946</ele>
        <time>2021-06-20T05:11:39Z</time>
      </trkpt>
      <trkpt lat="42.47483" lon="3.03776">
        <ele>948</ele>
        <time>2021-06-20T05:11:41Z</time>
      </trkpt>
      <trkpt lat="42.47491" lon="3.03828">
        <ele>954</ele>
        <time>2021-06-20T05:11:50Z</time>
      </trkpt>
      <trkpt lat="42.47474" lon="3.03847">
        <ele>960</ele>
        <time>2021-06-20T05:11:55Z</time>
      </trkpt>
      <trkpt lat="42.47483" lon="3.03871">
        <ele>960</ele>
        <time>2021-06-20T05:12:00Z</time>
      </trkpt>
      <trkpt lat="42.47458" lon="3.039">
        <ele>967</ele>
        <time>2021-06-20T05:12:08Z</time>
      </trkpt>
      <trkpt lat="42.47462" lon="3.03931">
        <ele>967</ele>
        <time>2021-06-20T05:12:13Z</time>
      </trkpt>
      <trkpt lat="42.47494" lon="3.03947">
        <ele>964</ele>
        <time>2021-06-20T05:12:21Z</time>
      </trkpt>
      <trkpt lat="42.4754" lon="3.03962">
        <ele>958</ele>
        <time>2021-06-20T05:12:32Z</time>
      </trkpt>
      <trkpt lat="42.47589" lon="3.03998">
        <ele>958</ele>
        <time>2021-06-20T05:12:45Z</time>
      </trkpt>
      <trkpt lat="42.47618" lon="3.04014">
        <ele>956</ele>
        <time>2021-06-20T05:12:52Z</time>
      </trkpt>
      <trkpt lat="42.47633" lon="3.04029">
        <ele>955</ele>
        <time>2021-06-20T05:12:57Z</time>
      </trkpt>
      <trkpt lat="42.4765" lon="3.04059">
        <ele>951</ele>
        <time>2021-06-20T05:13:03Z</time>
      </trkpt>
      <trkpt lat="42.47659" lon="3.0407">
        <ele>950</ele>
        <time>2021-06-20T05:13:06Z</time>
      </trkpt>
      <trkpt lat="42.47663" lon="3.04081">
        <ele>948</ele>
        <time>2021-06-20T05:13:08Z</time>
      </trkpt>
      <trkpt lat="42.47665" lon="3.0412">
        <ele>937</ele>
        <time>2021-06-20T05:13:15Z</time>
      </trkpt>
      <trkpt lat="42.47658" lon="3.04133">
        <ele>934</ele>
        <time>2021-06-20T05:13:18Z</time>
      </trkpt>
      <trkpt lat="42.47641" lon="3.0414">
        <ele>931</ele>
        <time>2021-06-20T05:13:22Z</time>
      </trkpt>
      <trkpt lat="42.47626" lon="3.04155">
        <ele>926</ele>
        <time>2021-06-20T05:13:26Z</time>
      </trkpt>
      <trkpt lat="42.4762" lon="3.04156">
        <ele>925</ele>
        <time>2021-06-20T05:13:28Z</time>
      </trkpt>
      <trkpt lat="42.47604" lon="3.04165">
        <ele>921</ele>
        <time>2021-06-20T05:13:32Z</time>
      </trkpt>
      <trkpt lat="42.47589" lon="3.0417">
        <ele>918</ele>
        <time>2021-06-20T05:13:35Z</time>
      </trkpt>
      <trkpt lat="42.4758" lon="3.04169">
        <ele>918</ele>
        <time>2021-06-20T05:13:37Z</time>
      </trkpt>
      <trkpt lat="42.47574" lon="3.04174">
        <ele>917</ele>
        <time>2021-06-20T05:13:39Z</time>
      </trkpt>
      <trkpt lat="42.47557" lon="3.04181">
        <ele>916</ele>
        <time>2021-06-20T05:13:43Z</time>
      </trkpt>
      <trkpt lat="42.47536" lon="3.0418">
        <ele>919</ele>
        <time>2021-06-20T05:13:48Z</time>
      </trkpt>
      <trkpt lat="42.47521" lon="3.04185">
        <ele>918</ele>
        <time>2021-06-20T05:13:52Z</time>
      </trkpt>
      <trkpt lat="42.47509" lon="3.04199">
        <ele>913</ele>
        <time>2021-06-20T05:13:55Z</time>
      </trkpt>
      <trkpt lat="42.475" lon="3.0422">
        <ele>904</ele>
        <time>2021-06-20T05:14:00Z</time>
      </trkpt>
      <trkpt lat="42.47499" lon="3.0423">
        <ele>899</ele>
        <time>2021-06-20T05:14:01Z</time>
      </trkpt>
      <trkpt lat="42.47496" lon="3.04233">
        <ele>898</ele>
        <time>2021-06-20T05:14:02Z</time>
      </trkpt>
      <trkpt lat="42.47492" lon="3.04229">
        <ele>900</ele>
        <time>2021-06-20T05:14:03Z</time>
      </trkpt>
      <trkpt lat="42.47482" lon="3.04238">
        <ele>897</ele>
        <time>2021-06-20T05:14:06Z</time>
      </trkpt>
      <trkpt lat="42.47468" lon="3.04239">
        <ele>898</ele>
        <time>2021-06-20T05:14:09Z</time>
      </trkpt>
      <trkpt lat="42.47462" lon="3.04243">
        <ele>897</ele>
        <time>2021-06-20T05:14:11Z</time>
      </trkpt>
      <trkpt lat="42.47454" lon="3.04259">
        <ele>891</ele>
        <time>2021-06-20T05:14:14Z</time>
      </trkpt>
      <trkpt lat="42.47441" lon="3.04274">
        <ele>886</ele>
        <time>2021-06-20T05:14:18Z</time>
      </trkpt>
      <trkpt lat="42.47436" lon="3.04291">
        <ele>879</ele>
        <time>2021-06-20T05:14:21Z</time>
      </trkpt>
      <trkpt lat="42.47424" lon="3.04312">
        <ele>872</ele>
        <time>2021-06-20T05:14:26Z</time>
      </trkpt>
      <trkpt lat="42.47425" lon="3.04322">
        <ele>867</ele>
        <time>2021-06-20T05:14:28Z</time>
      </trkpt>
      <trkpt lat="42.47417" lon="3.04322">
        <ele>869</ele>
        <time>2021-06-20T05:14:30Z</time>
      </trkpt>
      <trkpt lat="42.47412" lon="3.04326">
        <ele>867</ele>
        <time>2021-06-20T05:14:31Z</time>
      </trkpt>
      <trkpt lat="42.47416" lon="3.04336">
        <ele>863</ele>
        <time>2021-06-20T05:14:33Z</time>
      </trkpt>
      <trkpt lat="42.47414" lon="3.04342">
        <ele>861</ele>
        <time>2021-06-20T05:14:34Z</time>
      </trkpt>
      <trkpt lat="42.47408" lon="3.04341">
        <ele>860</ele>
        <time>2021-06-20T05:14:35Z</time>
      </trkpt>
      <trkpt lat="42.47412" lon="3.04347">
        <ele>859</ele>
        <time>2021-06-20T05:14:37Z</time>
      </trkpt>
      <trkpt lat="42.47413" lon="3.04354">
        <ele>857</ele>
        <time>2021-06-20T05:14:38Z</time>
      </trkpt>
      <trkpt lat="42.47409" lon="3.04361">
        <ele>854</ele>
        <time>2021-06-20T05:14:40Z</time>
      </trkpt>
      <trkpt lat="42.47413" lon="3.04371">
        <ele>851</ele>
        <time>2021-06-20T05:14:42Z</time>
      </trkpt>
      <trkpt lat="42.47411" lon="3.04374">
        <ele>850</ele>
        <time>2021-06-20T05:14:42Z</time>
      </trkpt>
      <trkpt lat="42.47401" lon="3.04376">
        <ele>847</ele>
        <time>2021-06-20T05:14:45Z</time>
      </trkpt>
      <trkpt lat="42.47396" lon="3.04388">
        <ele>842</ele>
        <time>2021-06-20T05:14:47Z</time>
      </trkpt>
      <trkpt lat="42.47397" lon="3.04412">
        <ele>834</ele>
        <time>2021-06-20T05:14:51Z</time>
      </trkpt>
      <trkpt lat="42.47405" lon="3.04436">
        <ele>827</ele>
        <time>2021-06-20T05:14:56Z</time>
      </trkpt>
      <trkpt lat="42.47406" lon="3.04447">
        <ele>824</ele>
        <time>2021-06-20T05:14:58Z</time>
      </trkpt>
      <trkpt lat="42.47405" lon="3.04452">
        <ele>822</ele>
        <time>2021-06-20T05:14:58Z</time>
      </trkpt>
      <trkpt lat="42.47401" lon="3.04456">
        <ele>820</ele>
        <time>2021-06-20T05:15:00Z</time>
      </trkpt>
      <trkpt lat="42.47402" lon="3.04471">
        <ele>815</ele>
        <time>2021-06-20T05:15:02Z</time>
      </trkpt>
      <trkpt lat="42.47397" lon="3.04473">
        <ele>814</ele>
        <time>2021-06-20T05:15:03Z</time>
      </trkpt>
      <trkpt lat="42.47392" lon="3.04479">
        <ele>811</ele>
        <time>2021-06-20T05:15:05Z</time>
      </trkpt>
      <trkpt lat="42.47396" lon="3.04502">
        <ele>804</ele>
        <time>2021-06-20T05:15:09Z</time>
      </trkpt>
      <trkpt lat="42.47392" lon="3.04513">
        <ele>799</ele>
        <time>2021-06-20T05:15:11Z</time>
      </trkpt>
      <trkpt lat="42.47397" lon="3.04533">
        <ele>792</ele>
        <time>2021-06-20T05:15:15Z</time>
      </trkpt>
      <trkpt lat="42.47407" lon="3.0454">
        <ele>791</ele>
        <time>2021-06-20T05:15:17Z</time>
      </trkpt>
      <trkpt lat="42.47414" lon="3.04552">
        <ele>788</ele>
        <time>2021-06-20T05:15:20Z</time>
      </trkpt>
      <trkpt lat="42.47411" lon="3.04574">
        <ele>779</ele>
        <time>2021-06-20T05:15:24Z</time>
      </trkpt>
      <trkpt lat="42.47396" lon="3.04624">
        <ele>761</ele>
        <time>2021-06-20T05:15:33Z</time>
      </trkpt>
      <trkpt lat="42.47363" lon="3.0466">
        <ele>746</ele>
        <time>2021-06-20T05:15:43Z</time>
      </trkpt>
      <trkpt lat="42.47367" lon="3.04702">
        <ele>734</ele>
        <time>2021-06-20T05:15:50Z</time>
      </trkpt>
      <trkpt lat="42.47378" lon="3.04726">
        <ele>728</ele>
        <time>2021-06-20T05:15:55Z</time>
      </trkpt>
      <trkpt lat="42.47387" lon="3.04733">
        <ele>727</ele>
        <time>2021-06-20T05:15:58Z</time>
      </trkpt>
      <trkpt lat="42.47395" lon="3.0476">
        <ele>721</ele>
        <time>2021-06-20T05:16:03Z</time>
      </trkpt>
      <trkpt lat="42.47398" lon="3.04781">
        <ele>716</ele>
        <time>2021-06-20T05:16:06Z</time>
      </trkpt>
      <trkpt lat="42.47393" lon="3.04806">
        <ele>709</ele>
        <time>2021-06-20T05:16:11Z</time>
      </trkpt>
      <trkpt lat="42.47378" lon="3.0482">
        <ele>703</ele>
        <time>2021-06-20T05:16:15Z</time>
      </trkpt>
      <trkpt lat="42.47376" lon="3.04843">
        <ele>698</ele>
        <time>2021-06-20T05:16:19Z</time>
      </trkpt>
      <trkpt lat="42.47385" lon="3.04874">
        <ele>693</ele>
        <time>2021-06-20T05:16:25Z</time>
      </trkpt>
      <trkpt lat="42.47397" lon="3.0489">
        <ele>691</ele>
        <time>2021-06-20T05:16:29Z</time>
      </trkpt>
      <trkpt lat="42.47391" lon="3.0491">
        <ele>686</ele>
        <time>2021-06-20T05:16:33Z</time>
      </trkpt>
      <trkpt lat="42.474" lon="3.04938">
        <ele>681</ele>
        <time>2021-06-20T05:16:38Z</time>
      </trkpt>
      <trkpt lat="42.47384" lon="3.04986">
        <ele>667</ele>
        <time>2021-06-20T05:16:47Z</time>
      </trkpt>
      <trkpt lat="42.47391" lon="3.05014">
        <ele>662</ele>
        <time>2021-06-20T05:16:52Z</time>
      </trkpt>
      <trkpt lat="42.47399" lon="3.05027">
        <ele>660</ele>
        <time>2021-06-20T05:16:55Z</time>
      </trkpt>
      <trkpt lat="42.47398" lon="3.05046">
        <ele>656</ele>
        <time>2021-06-20T05:16:58Z</time>
      </trkpt>
      <trkpt lat="42.47405" lon="3.05058">
        <ele>654</ele>
        <time>2021-06-20T05:17:01Z</time>
      </trkpt>
      <trkpt lat="42.47396" lon="3.05067">
        <ele>650</ele>
        <time>2021-06-20T05:17:03Z</time>
      </trkpt>
      <trkpt lat="42.47394" lon="3.05081">
        <ele>647</ele>
        <time>2021-06-20T05:17:06Z</time>
      </trkpt>
      <trkpt lat="42.47396" lon="3.05103">
        <ele>642</ele>
        <time>2021-06-20T05:17:10Z</time>
      </trkpt>
      <trkpt lat="42.47409" lon="3.05131">
        <ele>639</ele>
        <time>2021-06-20T05:17:15Z</time>
      </trkpt>
      <trkpt lat="42.47414" lon="3.05154">
        <ele>636</ele>
        <time>2021-06-20T05:17:19Z</time>
      </trkpt>
      <trkpt lat="42.47422" lon="3.05165">
        <ele>632</ele>
        <time>2021-06-20T05:17:22Z</time>
      </trkpt>
      <trkpt lat="42.47425" lon="3.05176">
        <ele>628</ele>
        <time>2021-06-20T05:17:24Z</time>
      </trkpt>
      <trkpt lat="42.47427" lon="3.05224">
        <ele>616</ele>
        <time>2021-06-20T05:17:32Z</time>
      </trkpt>
      <trkpt lat="42.47436" lon="3.0525">
        <ele>608</ele>
        <time>2021-06-20T05:17:37Z</time>
      </trkpt>
      <trkpt lat="42.47441" lon="3.05254">
        <ele>606</ele>
        <time>2021-06-20T05:17:39Z</time>
      </trkpt>
      <trkpt lat="42.47447" lon="3.05267">
        <ele>602</ele>
        <time>2021-06-20T05:17:41Z</time>
      </trkpt>
      <trkpt lat="42.47445" lon="3.05286">
        <ele>598</ele>
        <time>2021-06-20T05:17:45Z</time>
      </trkpt>
      <trkpt lat="42.47448" lon="3.05295">
        <ele>595</ele>
        <time>2021-06-20T05:17:46Z</time>
      </trkpt>
      <trkpt lat="42.47448" lon="3.05308">
        <ele>593</ele>
        <time>2021-06-20T05:17:49Z</time>
      </trkpt>
      <trkpt lat="42.47452" lon="3.05311">
        <ele>591</ele>
        <time>2021-06-20T05:17:50Z</time>
      </trkpt>
      <trkpt lat="42.47459" lon="3.05334">
        <ele>586</ele>
        <time>2021-06-20T05:17:54Z</time>
      </trkpt>
      <trkpt lat="42.47458" lon="3.05343">
        <ele>584</ele>
        <time>2021-06-20T05:17:56Z</time>
      </trkpt>
      <trkpt lat="42.47465" lon="3.05366">
        <ele>580</ele>
        <time>2021-06-20T05:18:00Z</time>
      </trkpt>
      <trkpt lat="42.47464" lon="3.05373">
        <ele>578</ele>
        <time>2021-06-20T05:18:01Z</time>
      </trkpt>
      <trkpt lat="42.47473" lon="3.05394">
        <ele>574</ele>
        <time>2021-06-20T05:18:05Z</time>
      </trkpt>
      <trkpt lat="42.47477" lon="3.05415">
        <ele>571</ele>
        <time>2021-06-20T05:18:09Z</time>
      </trkpt>
      <trkpt lat="42.47487" lon="3.05431">
        <ele>568</ele>
        <time>2021-06-20T05:18:13Z</time>
      </trkpt>
      <trkpt lat="42.47486" lon="3.05446">
        <ele>565</ele>
        <time>2021-06-20T05:18:15Z</time>
      </trkpt>
      <trkpt lat="42.4749" lon="3.05457">
        <ele>564</ele>
        <time>2021-06-20T05:18:17Z</time>
      </trkpt>
      <trkpt lat="42.47488" lon="3.05472">
        <ele>561</ele>
        <time>2021-06-20T05:18:20Z</time>
      </trkpt>
      <trkpt lat="42.4749" lon="3.05488">
        <ele>559</ele>
        <time>2021-06-20T05:18:23Z</time>
      </trkpt>
      <trkpt lat="42.47495" lon="3.05495">
        <ele>559</ele>
        <time>2021-06-20T05:18:24Z</time>
      </trkpt>
      <trkpt lat="42.47505" lon="3.05502">
        <ele>557</ele>
        <time>2021-06-20T05:18:27Z</time>
      </trkpt>
      <trkpt lat="42.47513" lon="3.05492">
        <ele>555</ele>
        <time>2021-06-20T05:18:30Z</time>
      </trkpt>
      <trkpt lat="42.47515" lon="3.05485">
        <ele>555</ele>
        <time>2021-06-20T05:18:31Z</time>
      </trkpt>
      <trkpt lat="42.47522" lon="3.05482">
        <ele>552</ele>
        <time>2021-06-20T05:18:33Z</time>
      </trkpt>
      <trkpt lat="42.47527" lon="3.05468">
        <ele>552</ele>
        <time>2021-06-20T05:18:35Z</time>
      </trkpt>
      <trkpt lat="42.47534" lon="3.05504">
        <ele>545</ele>
        <time>2021-06-20T05:18:42Z</time>
      </trkpt>
      <trkpt lat="42.47569" lon="3.05582">
        <ele>534</ele>
        <time>2021-06-20T05:18:57Z</time>
      </trkpt>
      <trkpt lat="42.47644" lon="3.05679">
        <ele>517</ele>
        <time>2021-06-20T05:19:22Z</time>
      </trkpt>
      <trkpt lat="42.47677" lon="3.05737">
        <ele>508</ele>
        <time>2021-06-20T05:19:34Z</time>
      </trkpt>
      <trkpt lat="42.47681" lon="3.0576">
        <ele>506</ele>
        <time>2021-06-20T05:19:38Z</time>
      </trkpt>
      <trkpt lat="42.47696" lon="3.05787">
        <ele>499</ele>
        <time>2021-06-20T05:19:44Z</time>
      </trkpt>
      <trkpt lat="42.47702" lon="3.05809">
        <ele>498</ele>
        <time>2021-06-20T05:19:48Z</time>
      </trkpt>
      <trkpt lat="42.47736" lon="3.05865">
        <ele>489</ele>
        <time>2021-06-20T05:20:01Z</time>
      </trkpt>
      <trkpt lat="42.47758" lon="3.05887">
        <ele>485</ele>
        <time>2021-06-20T05:20:07Z</time>
      </trkpt>
      <trkpt lat="42.4778" lon="3.05926">
        <ele>479</ele>
        <time>2021-06-20T05:20:16Z</time>
      </trkpt>
      <trkpt lat="42.47797" lon="3.05964">
        <ele>471</ele>
        <time>2021-06-20T05:20:23Z</time>
      </trkpt>
      <trkpt lat="42.47803" lon="3.06005">
        <ele>468</ele>
        <time>2021-06-20T05:20:30Z</time>
      </trkpt>
      <trkpt lat="42.47795" lon="3.0605">
        <ele>466</ele>
        <time>2021-06-20T05:20:38Z</time>
      </trkpt>
      <trkpt lat="42.47791" lon="3.06103">
        <ele>463</ele>
        <time>2021-06-20T05:20:48Z</time>
      </trkpt>
      <trkpt lat="42.47807" lon="3.06186">
        <ele>457</ele>
        <time>2021-06-20T05:21:02Z</time>
      </trkpt>
      <trkpt lat="42.47818" lon="3.06209">
        <ele>457</ele>
        <time>2021-06-20T05:21:07Z</time>
      </trkpt>
      <trkpt lat="42.47846" lon="3.06252">
        <ele>453</ele>
        <time>2021-06-20T05:21:17Z</time>
      </trkpt>
      <trkpt lat="42.47893" lon="3.06306">
        <ele>449</ele>
        <time>2021-06-20T05:21:31Z</time>
      </trkpt>
      <trkpt lat="42.47979" lon="3.06331">
        <ele>429</ele>
        <time>2021-06-20T05:21:52Z</time>
      </trkpt>
      <trkpt lat="42.4804" lon="3.06416">
        <ele>433</ele>
        <time>2021-06-20T05:22:12Z</time>
      </trkpt>
      <trkpt lat="42.48065" lon="3.06433">
        <ele>430</ele>
        <time>2021-06-20T05:22:19Z</time>
      </trkpt>
      <trkpt lat="42.48085" lon="3.06439">
        <ele>426</ele>
        <time>2021-06-20T05:22:24Z</time>
      </trkpt>
      <trkpt lat="42.48115" lon="3.06433">
        <ele>418</ele>
        <time>2021-06-20T05:22:31Z</time>
      </trkpt>
      <trkpt lat="42.4814" lon="3.06438">
        <ele>414</ele>
        <time>2021-06-20T05:22:37Z</time>
      </trkpt>
      <trkpt lat="42.48165" lon="3.06428">
        <ele>407</ele>
        <time>2021-06-20T05:22:43Z</time>
      </trkpt>
      <trkpt lat="42.48197" lon="3.06424">
        <ele>398</ele>
        <time>2021-06-20T05:22:50Z</time>
      </trkpt>
      <trkpt lat="42.48208" lon="3.06429">
        <ele>396</ele>
        <time>2021-06-20T05:22:53Z</time>
      </trkpt>
      <trkpt lat="42.48211" lon="3.06426">
        <ele>395</ele>
        <time>2021-06-20T05:22:54Z</time>
      </trkpt>
      <trkpt lat="42.4821" lon="3.06417">
        <ele>395</ele>
        <time>2021-06-20T05:22:55Z</time>
      </trkpt>
      <trkpt lat="42.48213" lon="3.06406">
        <ele>392</ele>
        <time>2021-06-20T05:22:57Z</time>
      </trkpt>
      <trkpt lat="42.48226" lon="3.06393">
        <ele>387</ele>
        <time>2021-06-20T05:23:01Z</time>
      </trkpt>
      <trkpt lat="42.48232" lon="3.0639">
        <ele>386</ele>
        <time>2021-06-20T05:23:03Z</time>
      </trkpt>
      <trkpt lat="42.4824" lon="3.06361">
        <ele>381</ele>
        <time>2021-06-20T05:23:08Z</time>
      </trkpt>
      <trkpt lat="42.48272" lon="3.0633">
        <ele>374</ele>
        <time>2021-06-20T05:23:17Z</time>
      </trkpt>
      <trkpt lat="42.48284" lon="3.0633">
        <ele>372</ele>
        <time>2021-06-20T05:23:20Z</time>
      </trkpt>
      <trkpt lat="42.48283" lon="3.0634">
        <ele>373</ele>
        <time>2021-06-20T05:23:22Z</time>
      </trkpt>
      <trkpt lat="42.48285" lon="3.06346">
        <ele>373</ele>
        <time>2021-06-20T05:23:23Z</time>
      </trkpt>
      <trkpt lat="42.48272" lon="3.06426">
        <ele>378</ele>
        <time>2021-06-20T05:23:37Z</time>
      </trkpt>
      <trkpt lat="42.4825" lon="3.06463">
        <ele>384</ele>
        <time>2021-06-20T05:23:45Z</time>
      </trkpt>
      <trkpt lat="42.48243" lon="3.06484">
        <ele>386</ele>
        <time>2021-06-20T05:23:49Z</time>
      </trkpt>
      <trkpt lat="42.4824" lon="3.06503">
        <ele>387</ele>
        <time>2021-06-20T05:23:52Z</time>
      </trkpt>
      <trkpt lat="42.48241" lon="3.06549">
        <ele>387</ele>
        <time>2021-06-20T05:24:00Z</time>
      </trkpt>
      <trkpt lat="42.48229" lon="3.06616">
        <ele>398</ele>
        <time>2021-06-20T05:24:12Z</time>
      </trkpt>
      <trkpt lat="42.48233" lon="3.06642">
        <ele>398</ele>
        <time>2021-06-20T05:24:17Z</time>
      </trkpt>
      <trkpt lat="42.4824" lon="3.06664">
        <ele>398</ele>
        <time>2021-06-20T05:24:21Z</time>
      </trkpt>
      <trkpt lat="42.48257" lon="3.06702">
        <ele>400</ele>
        <time>2021-06-20T05:24:29Z</time>
      </trkpt>
      <trkpt lat="42.48271" lon="3.06726">
        <ele>402</ele>
        <time>2021-06-20T05:24:34Z</time>
      </trkpt>
      <trkpt lat="42.4829" lon="3.06742">
        <ele>401</ele>
        <time>2021-06-20T05:24:39Z</time>
      </trkpt>
      <trkpt lat="42.48304" lon="3.06746">
        <ele>398</ele>
        <time>2021-06-20T05:24:42Z</time>
      </trkpt>
      <trkpt lat="42.48331" lon="3.0676">
        <ele>394</ele>
        <time>2021-06-20T05:24:49Z</time>
      </trkpt>
      <trkpt lat="42.48342" lon="3.06774">
        <ele>393</ele>
        <time>2021-06-20T05:24:53Z</time>
      </trkpt>
      <trkpt lat="42.48346" lon="3.06786">
        <ele>393</ele>
        <time>2021-06-20T05:24:55Z</time>
      </trkpt>
      <trkpt lat="42.48348" lon="3.06805">
        <ele>395</ele>
        <time>2021-06-20T05:24:58Z</time>
      </trkpt>
      <trkpt lat="42.48346" lon="3.06828">
        <ele>399</ele>
        <time>2021-06-20T05:25:02Z</time>
      </trkpt>
      <trkpt lat="42.48334" lon="3.06893">
        <ele>409</ele>
        <time>2021-06-20T05:25:14Z</time>
      </trkpt>
      <trkpt lat="42.48332" lon="3.06939">
        <ele>410</ele>
        <time>2021-06-20T05:25:22Z</time>
      </trkpt>
      <trkpt lat="42.48329" lon="3.06949">
        <ele>409</ele>
        <time>2021-06-20T05:25:24Z</time>
      </trkpt>
      <trkpt lat="42.48319" lon="3.06957">
        <ele>406</ele>
        <time>2021-06-20T05:25:26Z</time>
      </trkpt>
      <trkpt lat="42.48322" lon="3.07014">
        <ele>404</ele>
        <time>2021-06-20T05:25:36Z</time>
      </trkpt>
      <trkpt lat="42.48335" lon="3.07052">
        <ele>408</ele>
        <time>2021-06-20T05:25:43Z</time>
      </trkpt>
      <trkpt lat="42.48346" lon="3.07107">
        <ele>410</ele>
        <time>2021-06-20T05:25:53Z</time>
      </trkpt>
      <trkpt lat="42.48345" lon="3.07136">
        <ele>410</ele>
        <time>2021-06-20T05:25:58Z</time>
      </trkpt>
      <trkpt lat="42.48353" lon="3.07192">
        <ele>419</ele>
        <time>2021-06-20T05:26:08Z</time>
      </trkpt>
      <trkpt lat="42.48349" lon="3.07233">
        <ele>425</ele>
        <time>2021-06-20T05:26:15Z</time>
      </trkpt>
      <trkpt lat="42.48331" lon="3.07259">
        <ele>419</ele>
        <time>2021-06-20T05:26:21Z</time>
      </trkpt>
      <trkpt lat="42.48313" lon="3.07275">
        <ele>410</ele>
        <time>2021-06-20T05:26:26Z</time>
      </trkpt>
      <trkpt lat="42.48283" lon="3.07322">
        <ele>401</ele>
        <time>2021-06-20T05:26:37Z</time>
      </trkpt>
      <trkpt lat="42.48277" lon="3.07396">
        <ele>407</ele>
        <time>2021-06-20T05:26:50Z</time>
      </trkpt>
      <trkpt lat="42.48236" lon="3.07476">
        <ele>397</ele>
        <time>2021-06-20T05:27:07Z</time>
      </trkpt>
      <trkpt lat="42.48237" lon="3.07486">
        <ele>399</ele>
        <time>2021-06-20T05:27:08Z</time>
      </trkpt>
      <trkpt lat="42.48253" lon="3.07486">
        <ele>404</ele>
        <time>2021-06-20T05:27:12Z</time>
      </trkpt>
      <trkpt lat="42.48277" lon="3.07478">
        <ele>402</ele>
        <time>2021-06-20T05:27:18Z</time>
      </trkpt>
      <trkpt lat="42.48296" lon="3.07465">
        <ele>403</ele>
        <time>2021-06-20T05:27:23Z</time>
      </trkpt>
      <trkpt lat="42.48324" lon="3.07437">
        <ele>414</ele>
        <time>2021-06-20T05:27:31Z</time>
      </trkpt>
      <trkpt lat="42.48355" lon="3.07433">
        <ele>414</ele>
        <time>2021-06-20T05:27:38Z</time>
      </trkpt>
      <trkpt lat="42.48372" lon="3.0742">
        <ele>418</ele>
        <time>2021-06-20T05:27:43Z</time>
      </trkpt>
      <trkpt lat="42.48401" lon="3.07418">
        <ele>415</ele>
        <time>2021-06-20T05:27:49Z</time>
      </trkpt>
      <trkpt lat="42.48414" lon="3.074">
        <ele>422</ele>
        <time>2021-06-20T05:27:54Z</time>
      </trkpt>
      <trkpt lat="42.48447" lon="3.07408">
        <ele>424</ele>
        <time>2021-06-20T05:28:02Z</time>
      </trkpt>
      <trkpt lat="42.4846" lon="3.07431">
        <ele>415</ele>
        <time>2021-06-20T05:28:07Z</time>
      </trkpt>
      <trkpt lat="42.48482" lon="3.0744">
        <ele>414</ele>
        <time>2021-06-20T05:28:12Z</time>
      </trkpt>
      <trkpt lat="42.485" lon="3.07455">
        <ele>410</ele>
        <time>2021-06-20T05:28:17Z</time>
      </trkpt>
      <trkpt lat="42.48551" lon="3.07453">
        <ele>425</ele>
        <time>2021-06-20T05:28:29Z</time>
      </trkpt>
      <trkpt lat="42.48561" lon="3.07462">
        <ele>424</ele>
        <time>2021-06-20T05:28:32Z</time>
      </trkpt>
      <trkpt lat="42.48582" lon="3.07505">
        <ele>415</ele>
        <time>2021-06-20T05:28:41Z</time>
      </trkpt>
      <trkpt lat="42.48622" lon="3.07565">
        <ele>422</ele>
        <time>2021-06-20T05:28:54Z</time>
      </trkpt>
      <trkpt lat="42.4861" lon="3.07607">
        <ele>409</ele>
        <time>2021-06-20T05:29:02Z</time>
      </trkpt>
      <trkpt lat="42.48606" lon="3.07636">
        <ele>404</ele>
        <time>2021-06-20T05:29:07Z</time>
      </trkpt>
      <trkpt lat="42.48627" lon="3.07681">
        <ele>416</ele>
        <time>2021-06-20T05:29:16Z</time>
      </trkpt>
      <trkpt lat="42.48619" lon="3.07707">
        <ele>415</ele>
        <time>2021-06-20T05:29:21Z</time>
      </trkpt>
      <trkpt lat="42.48606" lon="3.07733">
        <ele>410</ele>
        <time>2021-06-20T05:29:27Z</time>
      </trkpt>
      <trkpt lat="42.48575" lon="3.07753">
        <ele>395</ele>
        <time>2021-06-20T05:29:35Z</time>
      </trkpt>
      <trkpt lat="42.48555" lon="3.07792">
        <ele>389</ele>
        <time>2021-06-20T05:29:43Z</time>
      </trkpt>
      <trkpt lat="42.48545" lon="3.07824">
        <ele>388</ele>
        <time>2021-06-20T05:29:49Z</time>
      </trkpt>
      <trkpt lat="42.48545" lon="3.0785">
        <ele>386</ele>
        <time>2021-06-20T05:29:53Z</time>
      </trkpt>
      <trkpt lat="42.48564" lon="3.07877">
        <ele>391</ele>
        <time>2021-06-20T05:30:00Z</time>
      </trkpt>
      <trkpt lat="42.4859" lon="3.07899">
        <ele>401</ele>
        <time>2021-06-20T05:30:07Z</time>
      </trkpt>
      <trkpt lat="42.4861" lon="3.07946">
        <ele>410</ele>
        <time>2021-06-20T05:30:16Z</time>
      </trkpt>
      <trkpt lat="42.48605" lon="3.07978">
        <ele>406</ele>
        <time>2021-06-20T05:30:22Z</time>
      </trkpt>
      <trkpt lat="42.48584" lon="3.08009">
        <ele>392</ele>
        <time>2021-06-20T05:30:29Z</time>
      </trkpt>
      <trkpt lat="42.48567" lon="3.08048">
        <ele>385</ele>
        <time>2021-06-20T05:30:37Z</time>
      </trkpt>
      <trkpt lat="42.48565" lon="3.08084">
        <ele>388</ele>
        <time>2021-06-20T05:30:43Z</time>
      </trkpt>
      <trkpt lat="42.48573" lon="3.08122">
        <ele>394</ele>
        <time>2021-06-20T05:30:50Z</time>
      </trkpt>
      <trkpt lat="42.48581" lon="3.08143">
        <ele>400</ele>
        <time>2021-06-20T05:30:54Z</time>
      </trkpt>
      <trkpt lat="42.48561" lon="3.08173">
        <ele>391</ele>
        <time>2021-06-20T05:31:01Z</time>
      </trkpt>
      <trkpt lat="42.48554" lon="3.08214">
        <ele>399</ele>
        <time>2021-06-20T05:31:08Z</time>
      </trkpt>
      <trkpt lat="42.48544" lon="3.08238">
        <ele>402</ele>
        <time>2021-06-20T05:31:13Z</time>
      </trkpt>
      <trkpt lat="42.48522" lon="3.08262">
        <ele>401</ele>
        <time>2021-06-20T05:31:20Z</time>
      </trkpt>
      <trkpt lat="42.48496" lon="3.08271">
        <ele>394</ele>
        <time>2021-06-20T05:31:26Z</time>
      </trkpt>
      <trkpt lat="42.48463" lon="3.08272">
        <ele>379</ele>
        <time>2021-06-20T05:31:34Z</time>
      </trkpt>
      <trkpt lat="42.48453" lon="3.08277">
        <ele>376</ele>
        <time>2021-06-20T05:31:36Z</time>
      </trkpt>
      <trkpt lat="42.48443" lon="3.08308">
        <ele>384</ele>
        <time>2021-06-20T05:31:42Z</time>
      </trkpt>
      <trkpt lat="42.48432" lon="3.08329">
        <ele>387</ele>
        <time>2021-06-20T05:31:46Z</time>
      </trkpt>
      <trkpt lat="42.48414" lon="3.08344">
        <ele>383</ele>
        <time>2021-06-20T05:31:51Z</time>
      </trkpt>
      <trkpt lat="42.48384" lon="3.08359">
        <ele>370</ele>
        <time>2021-06-20T05:31:59Z</time>
      </trkpt>
      <trkpt lat="42.48375" lon="3.08369">
        <ele>367</ele>
        <time>2021-06-20T05:32:02Z</time>
      </trkpt>
      <trkpt lat="42.48368" lon="3.08398">
        <ele>372</ele>
        <time>2021-06-20T05:32:07Z</time>
      </trkpt>
      <trkpt lat="42.48365" lon="3.08429">
        <ele>377</ele>
        <time>2021-06-20T05:32:12Z</time>
      </trkpt>
      <trkpt lat="42.48366" lon="3.08452">
        <ele>379</ele>
        <time>2021-06-20T05:32:16Z</time>
      </trkpt>
      <trkpt lat="42.48353" lon="3.08517">
        <ele>379</ele>
        <time>2021-06-20T05:32:28Z</time>
      </trkpt>
      <trkpt lat="42.48364" lon="3.08522">
        <ele>380</ele>
        <time>2021-06-20T05:32:30Z</time>
      </trkpt>
      <trkpt lat="42.48359" lon="3.08538">
        <ele>378</ele>
        <time>2021-06-20T05:32:33Z</time>
      </trkpt>
      <trkpt lat="42.4835" lon="3.08591">
        <ele>375</ele>
        <time>2021-06-20T05:32:43Z</time>
      </trkpt>
      <trkpt lat="42.48354" lon="3.086">
        <ele>373</ele>
        <time>2021-06-20T05:32:45Z</time>
      </trkpt>
      <trkpt lat="42.48352" lon="3.08616">
        <ele>370</ele>
        <time>2021-06-20T05:32:47Z</time>
      </trkpt>
      <trkpt lat="42.48354" lon="3.08619">
        <ele>369</ele>
        <time>2021-06-20T05:32:48Z</time>
      </trkpt>
      <trkpt lat="42.48353" lon="3.08626">
        <ele>368</ele>
        <time>2021-06-20T05:32:49Z</time>
      </trkpt>
      <trkpt lat="42.48357" lon="3.08651">
        <ele>362</ele>
        <time>2021-06-20T05:32:54Z</time>
      </trkpt>
      <trkpt lat="42.4835" lon="3.08675">
        <ele>360</ele>
        <time>2021-06-20T05:32:58Z</time>
      </trkpt>
      <trkpt lat="42.4835" lon="3.08686">
        <ele>357</ele>
        <time>2021-06-20T05:33:00Z</time>
      </trkpt>
      <trkpt lat="42.48353" lon="3.08687">
        <ele>356</ele>
        <time>2021-06-20T05:33:01Z</time>
      </trkpt>
      <trkpt lat="42.48355" lon="3.08697">
        <ele>353</ele>
        <time>2021-06-20T05:33:03Z</time>
      </trkpt>
      <trkpt lat="42.48373" lon="3.087">
        <ele>346</ele>
        <time>2021-06-20T05:33:07Z</time>
      </trkpt>
      <trkpt lat="42.48376" lon="3.08703">
        <ele>344</ele>
        <time>2021-06-20T05:33:08Z</time>
      </trkpt>
      <trkpt lat="42.48375" lon="3.08711">
        <ele>343</ele>
        <time>2021-06-20T05:33:09Z</time>
      </trkpt>
      <trkpt lat="42.4838" lon="3.08722">
        <ele>338</ele>
        <time>2021-06-20T05:33:11Z</time>
      </trkpt>
      <trkpt lat="42.48381" lon="3.08762">
        <ele>327</ele>
        <time>2021-06-20T05:33:18Z</time>
      </trkpt>
      <trkpt lat="42.48389" lon="3.08768">
        <ele>322</ele>
        <time>2021-06-20T05:33:20Z</time>
      </trkpt>
      <trkpt lat="42.48389" lon="3.08775">
        <ele>320</ele>
        <time>2021-06-20T05:33:22Z</time>
      </trkpt>
      <trkpt lat="42.48378" lon="3.08799">
        <ele>318</ele>
        <time>2021-06-20T05:33:26Z</time>
      </trkpt>
      <trkpt lat="42.48372" lon="3.0882">
        <ele>315</ele>
        <time>2021-06-20T05:33:30Z</time>
      </trkpt>
      <trkpt lat="42.48365" lon="3.08861">
        <ele>312</ele>
        <time>2021-06-20T05:33:38Z</time>
      </trkpt>
      <trkpt lat="42.48367" lon="3.08883">
        <ele>308</ele>
        <time>2021-06-20T05:33:41Z</time>
      </trkpt>
      <trkpt lat="42.48364" lon="3.0889">
        <ele>309</ele>
        <time>2021-06-20T05:33:43Z</time>
      </trkpt>
      <trkpt lat="42.48368" lon="3.08943">
        <ele>303</ele>
        <time>2021-06-20T05:33:52Z</time>
      </trkpt>
      <trkpt lat="42.48367" lon="3.08986">
        <ele>301</ele>
        <time>2021-06-20T05:33:59Z</time>
      </trkpt>
      <trkpt lat="42.48363" lon="3.0902">
        <ele>299</ele>
        <time>2021-06-20T05:34:05Z</time>
      </trkpt>
      <trkpt lat="42.48369" lon="3.09048">
        <ele>294</ele>
        <time>2021-06-20T05:34:10Z</time>
      </trkpt>
      <trkpt lat="42.48373" lon="3.09087">
        <ele>288</ele>
        <time>2021-06-20T05:34:17Z</time>
      </trkpt>
      <trkpt lat="42.48372" lon="3.0915">
        <ele>278</ele>
        <time>2021-06-20T05:34:28Z</time>
      </trkpt>
      <trkpt lat="42.48376" lon="3.09166">
        <ele>274</ele>
        <time>2021-06-20T05:34:31Z</time>
      </trkpt>
      <trkpt lat="42.48368" lon="3.09177">
        <ele>274</ele>
        <time>2021-06-20T05:34:33Z</time>
      </trkpt>
      <trkpt lat="42.48348" lon="3.09187">
        <ele>275</ele>
        <time>2021-06-20T05:34:38Z</time>
      </trkpt>
      <trkpt lat="42.48312" lon="3.09192">
        <ele>280</ele>
        <time>2021-06-20T05:34:47Z</time>
      </trkpt>
      <trkpt lat="42.48302" lon="3.09197">
        <ele>281</ele>
        <time>2021-06-20T05:34:49Z</time>
      </trkpt>
      <trkpt lat="42.48296" lon="3.09206">
        <ele>280</ele>
        <time>2021-06-20T05:34:51Z</time>
      </trkpt>
      <trkpt lat="42.48293" lon="3.09215">
        <ele>279</ele>
        <time>2021-06-20T05:34:53Z</time>
      </trkpt>
      <trkpt lat="42.48289" lon="3.09275">
        <ele>269</ele>
        <time>2021-06-20T05:35:04Z</time>
      </trkpt>
      <trkpt lat="42.48283" lon="3.09302">
        <ele>266</ele>
        <time>2021-06-20T05:35:08Z</time>
      </trkpt>
      <trkpt lat="42.48253" lon="3.09387">
        <ele>256</ele>
        <time>2021-06-20T05:35:25Z</time>
      </trkpt>
      <trkpt lat="42.48252" lon="3.09395">
        <ele>254</ele>
        <time>2021-06-20T05:35:26Z</time>
      </trkpt>
      <trkpt lat="42.48283" lon="3.09495">
        <ele>238</ele>
        <time>2021-06-20T05:35:45Z</time>
      </trkpt>
      <trkpt lat="42.48287" lon="3.09512">
        <ele>238</ele>
        <time>2021-06-20T05:35:48Z</time>
      </trkpt>
      <trkpt lat="42.48286" lon="3.09519">
        <ele>238</ele>
        <time>2021-06-20T05:35:49Z</time>
      </trkpt>
      <trkpt lat="42.48292" lon="3.09521">
        <ele>239</ele>
        <time>2021-06-20T05:35:50Z</time>
      </trkpt>
      <trkpt lat="42.48327" lon="3.09596">
        <ele>251</ele>
        <time>2021-06-20T05:36:06Z</time>
      </trkpt>
      <trkpt lat="42.48328" lon="3.09605">
        <ele>252</ele>
        <time>2021-06-20T05:36:07Z</time>
      </trkpt>
      <trkpt lat="42.48318" lon="3.09664">
        <ele>251</ele>
        <time>2021-06-20T05:36:18Z</time>
      </trkpt>
      <trkpt lat="42.4832" lon="3.0967">
        <ele>252</ele>
        <time>2021-06-20T05:36:19Z</time>
      </trkpt>
      <trkpt lat="42.48314" lon="3.0968">
        <ele>249</ele>
        <time>2021-06-20T05:36:21Z</time>
      </trkpt>
      <trkpt lat="42.48313" lon="3.09697">
        <ele>248</ele>
        <time>2021-06-20T05:36:24Z</time>
      </trkpt>
      <trkpt lat="42.48321" lon="3.09741">
        <ele>252</ele>
        <time>2021-06-20T05:36:32Z</time>
      </trkpt>
      <trkpt lat="42.48325" lon="3.09813">
        <ele>251</ele>
        <time>2021-06-20T05:36:44Z</time>
      </trkpt>
      <trkpt lat="42.48341" lon="3.09929">
        <ele>242</ele>
        <time>2021-06-20T05:37:05Z</time>
      </trkpt>
      <trkpt lat="42.4836" lon="3.09999">
        <ele>238</ele>
        <time>2021-06-20T05:37:17Z</time>
      </trkpt>
      <trkpt lat="42.48361" lon="3.1002">
        <ele>237</ele>
        <time>2021-06-20T05:37:21Z</time>
      </trkpt>
      <trkpt lat="42.48369" lon="3.10063">
        <ele>236</ele>
        <time>2021-06-20T05:37:29Z</time>
      </trkpt>
      <trkpt lat="42.4836" lon="3.10117">
        <ele>229</ele>
        <time>2021-06-20T05:37:38Z</time>
      </trkpt>
      <trkpt lat="42.48336" lon="3.10155">
        <ele>220</ele>
        <time>2021-06-20T05:37:47Z</time>
      </trkpt>
      <trkpt lat="42.48337" lon="3.10165">
        <ele>220</ele>
        <time>2021-06-20T05:37:49Z</time>
      </trkpt>
      <trkpt lat="42.48328" lon="3.10182">
        <ele>215</ele>
        <time>2021-06-20T05:37:52Z</time>
      </trkpt>
      <trkpt lat="42.48324" lon="3.10228">
        <ele>208</ele>
        <time>2021-06-20T05:38:00Z</time>
      </trkpt>
      <trkpt lat="42.4832" lon="3.10231">
        <ele>207</ele>
        <time>2021-06-20T05:38:01Z</time>
      </trkpt>
      <trkpt lat="42.48307" lon="3.1015">
        <ele>206</ele>
        <time>2021-06-20T05:38:16Z</time>
      </trkpt>
      <trkpt lat="42.48304" lon="3.10149">
        <ele>205</ele>
        <time>2021-06-20T05:38:16Z</time>
      </trkpt>
      <trkpt lat="42.48301" lon="3.10152">
        <ele>203</ele>
        <time>2021-06-20T05:38:17Z</time>
      </trkpt>
      <trkpt lat="42.48299" lon="3.1022">
        <ele>198</ele>
        <time>2021-06-20T05:38:29Z</time>
      </trkpt>
      <trkpt lat="42.4829" lon="3.10252">
        <ele>193</ele>
        <time>2021-06-20T05:38:35Z</time>
      </trkpt>
      <trkpt lat="42.4829" lon="3.10282">
        <ele>191</ele>
        <time>2021-06-20T05:38:40Z</time>
      </trkpt>
      <trkpt lat="42.48282" lon="3.10295">
        <ele>187</ele>
        <time>2021-06-20T05:38:43Z</time>
      </trkpt>
      <trkpt lat="42.48278" lon="3.10311">
        <ele>185</ele>
        <time>2021-06-20T05:38:46Z</time>
      </trkpt>
      <trkpt lat="42.48274" lon="3.10338">
        <ele>182</ele>
        <time>2021-06-20T05:38:50Z</time>
      </trkpt>
      <trkpt lat="42.4827" lon="3.10402">
        <ele>176</ele>
        <time>2021-06-20T05:39:02Z</time>
      </trkpt>
      <trkpt lat="42.48248" lon="3.10517">
        <ele>168</ele>
        <time>2021-06-20T05:39:22Z</time>
      </trkpt>
      <trkpt lat="42.48236" lon="3.10594">
        <ele>160</ele>
        <time>2021-06-20T05:39:36Z</time>
      </trkpt>
      <trkpt lat="42.48236" lon="3.10605">
        <ele>159</ele>
        <time>2021-06-20T05:39:37Z</time>
      </trkpt>
      <trkpt lat="42.48239" lon="3.1061">
        <ele>160</ele>
        <time>2021-06-20T05:39:39Z</time>
      </trkpt>
      <trkpt lat="42.4825" lon="3.1061">
        <ele>163</ele>
        <time>2021-06-20T05:39:41Z</time>
      </trkpt>
      <trkpt lat="42.48252" lon="3.10614">
        <ele>163</ele>
        <time>2021-06-20T05:39:42Z</time>
      </trkpt>
      <trkpt lat="42.48232" lon="3.10662">
        <ele>152</ele>
        <time>2021-06-20T05:39:51Z</time>
      </trkpt>
      <trkpt lat="42.48217" lon="3.10679">
        <ele>146</ele>
        <time>2021-06-20T05:39:56Z</time>
      </trkpt>
      <trkpt lat="42.48215" lon="3.10695">
        <ele>145</ele>
        <time>2021-06-20T05:39:59Z</time>
      </trkpt>
      <trkpt lat="42.48199" lon="3.1072">
        <ele>140</ele>
        <time>2021-06-20T05:40:05Z</time>
      </trkpt>
      <trkpt lat="42.48194" lon="3.10738">
        <ele>139</ele>
        <time>2021-06-20T05:40:08Z</time>
      </trkpt>
      <trkpt lat="42.48179" lon="3.10759">
        <ele>136</ele>
        <time>2021-06-20T05:40:13Z</time>
      </trkpt>
      <trkpt lat="42.48169" lon="3.10813">
        <ele>130</ele>
        <time>2021-06-20T05:40:22Z</time>
      </trkpt>
      <trkpt lat="42.48164" lon="3.10828">
        <ele>127</ele>
        <time>2021-06-20T05:40:25Z</time>
      </trkpt>
      <trkpt lat="42.48164" lon="3.10841">
        <ele>126</ele>
        <time>2021-06-20T05:40:28Z</time>
      </trkpt>
      <trkpt lat="42.48153" lon="3.1087">
        <ele>119</ele>
        <time>2021-06-20T05:40:33Z</time>
      </trkpt>
      <trkpt lat="42.4815" lon="3.10917">
        <ele>114</ele>
        <time>2021-06-20T05:40:41Z</time>
      </trkpt>
      <trkpt lat="42.48132" lon="3.10933">
        <ele>108</ele>
        <time>2021-06-20T05:40:46Z</time>
      </trkpt>
      <trkpt lat="42.48116" lon="3.1096">
        <ele>104</ele>
        <time>2021-06-20T05:40:52Z</time>
      </trkpt>
      <trkpt lat="42.48106" lon="3.1099">
        <ele>102</ele>
        <time>2021-06-20T05:40:58Z</time>
      </trkpt>
      <trkpt lat="42.48088" lon="3.11063">
        <ele>103</ele>
        <time>2021-06-20T05:41:11Z</time>
      </trkpt>
      <trkpt lat="42.48073" lon="3.11096">
        <ele>99</ele>
        <time>2021-06-20T05:41:18Z</time>
      </trkpt>
      <trkpt lat="42.48068" lon="3.11114">
        <ele>96</ele>
        <time>2021-06-20T05:41:21Z</time>
      </trkpt>
      <trkpt lat="42.48061" lon="3.11186">
        <ele>90</ele>
        <time>2021-06-20T05:41:34Z</time>
      </trkpt>
      <trkpt lat="42.4805" lon="3.11222">
        <ele>86</ele>
        <time>2021-06-20T05:41:40Z</time>
      </trkpt>
      <trkpt lat="42.48025" lon="3.11254">
        <ele>81</ele>
        <time>2021-06-20T05:41:48Z</time>
      </trkpt>
      <trkpt lat="42.4802" lon="3.11282">
        <ele>80</ele>
        <time>2021-06-20T05:41:53Z</time>
      </trkpt>
      <trkpt lat="42.48022" lon="3.11291">
        <ele>81</ele>
        <time>2021-06-20T05:41:55Z</time>
      </trkpt>
      <trkpt lat="42.48015" lon="3.11329">
        <ele>80</ele>
        <time>2021-06-20T05:42:02Z</time>
      </trkpt>
      <trkpt lat="42.48018" lon="3.11346">
        <ele>80</ele>
        <time>2021-06-20T05:42:05Z</time>
      </trkpt>
      <trkpt lat="42.48017" lon="3.11355">
        <ele>79</ele>
        <time>2021-06-20T05:42:06Z</time>
      </trkpt>
      <trkpt lat="42.48021" lon="3.11365">
        <ele>79</ele>
        <time>2021-06-20T05:42:08Z</time>
      </trkpt>
      <trkpt lat="42.48021" lon="3.1139">
        <ele>78</ele>
        <time>2021-06-20T05:42:13Z</time>
      </trkpt>
      <trkpt lat="42.48024" lon="3.11397">
        <ele>77</ele>
        <time>2021-06-20T05:42:14Z</time>
      </trkpt>
      <trkpt lat="42.48022" lon="3.11412">
        <ele>77</ele>
        <time>2021-06-20T05:42:17Z</time>
      </trkpt>
      <trkpt lat="42.48027" lon="3.11436">
        <ele>74</ele>
        <time>2021-06-20T05:42:21Z</time>
      </trkpt>
      <trkpt lat="42.48031" lon="3.11438">
        <ele>73</ele>
        <time>2021-06-20T05:42:22Z</time>
      </trkpt>
      <trkpt lat="42.48032" lon="3.11444">
        <ele>72</ele>
        <time>2021-06-20T05:42:23Z</time>
      </trkpt>
      <trkpt lat="42.48029" lon="3.11456">
        <ele>71</ele>
        <time>2021-06-20T05:42:25Z</time>
      </trkpt>
      <trkpt lat="42.48031" lon="3.11467">
        <ele>69</ele>
        <time>2021-06-20T05:42:27Z</time>
      </trkpt>
      <trkpt lat="42.48037" lon="3.11478">
        <ele>68</ele>
        <time>2021-06-20T05:42:29Z</time>
      </trkpt>
      <trkpt lat="42.48044" lon="3.11482">
        <ele>68</ele>
        <time>2021-06-20T05:42:31Z</time>
      </trkpt>
      <trkpt lat="42.48044" lon="3.11489">
        <ele>67</ele>
        <time>2021-06-20T05:42:32Z</time>
      </trkpt>
      <trkpt lat="42.48049" lon="3.11495">
        <ele>66</ele>
        <time>2021-06-20T05:42:34Z</time>
      </trkpt>
      <trkpt lat="42.48059" lon="3.11502">
        <ele>65</ele>
        <time>2021-06-20T05:42:37Z</time>
      </trkpt>
      <trkpt lat="42.48073" lon="3.11521">
        <ele>62</ele>
        <time>2021-06-20T05:42:41Z</time>
      </trkpt>
      <trkpt lat="42.48086" lon="3.11532">
        <ele>60</ele>
        <time>2021-06-20T05:42:45Z</time>
      </trkpt>
      <trkpt lat="42.4809" lon="3.11531">
        <ele>60</ele>
        <time>2021-06-20T05:42:46Z</time>
      </trkpt>
      <trkpt lat="42.48091" lon="3.1154">
        <ele>58</ele>
        <time>2021-06-20T05:42:47Z</time>
      </trkpt>
      <trkpt lat="42.48101" lon="3.11558">
        <ele>54</ele>
        <time>2021-06-20T05:42:51Z</time>
      </trkpt>
      <trkpt lat="42.4811" lon="3.11561">
        <ele>53</ele>
        <time>2021-06-20T05:42:53Z</time>
      </trkpt>
      <trkpt lat="42.4812" lon="3.11604">
        <ele>47</ele>
        <time>2021-06-20T05:43:01Z</time>
      </trkpt>
      <trkpt lat="42.48144" lon="3.11651">
        <ele>45</ele>
        <time>2021-06-20T05:43:11Z</time>
      </trkpt>
      <trkpt lat="42.48152" lon="3.11698">
        <ele>47</ele>
        <time>2021-06-20T05:43:19Z</time>
      </trkpt>
      <trkpt lat="42.48146" lon="3.11735">
        <ele>47</ele>
        <time>2021-06-20T05:43:26Z</time>
      </trkpt>
      <trkpt lat="42.48141" lon="3.11748">
        <ele>47</ele>
        <time>2021-06-20T05:43:28Z</time>
      </trkpt>
      <trkpt lat="42.48101" lon="3.11805">
        <ele>41</ele>
        <time>2021-06-20T05:43:42Z</time>
      </trkpt>
      <trkpt lat="42.48059" lon="3.11901">
        <ele>38</ele>
        <time>2021-06-20T05:44:01Z</time>
      </trkpt>
      <trkpt lat="42.48059" lon="3.11922">
        <ele>39</ele>
        <time>2021-06-20T05:44:05Z</time>
      </trkpt>
      <trkpt lat="42.48048" lon="3.11984">
        <ele>35</ele>
        <time>2021-06-20T05:44:16Z</time>
      </trkpt>
      <trkpt lat="42.48043" lon="3.12082">
        <ele>28</ele>
        <time>2021-06-20T05:44:33Z</time>
      </trkpt>
      <trkpt lat="42.48045" lon="3.12122">
        <ele>25</ele>
        <time>2021-06-20T05:44:40Z</time>
      </trkpt>
      <trkpt lat="42.48039" lon="3.12186">
        <ele>21</ele>
        <time>2021-06-20T05:44:51Z</time>
      </trkpt>
      <trkpt lat="42.48035" lon="3.12214">
        <ele>20</ele>
        <time>2021-06-20T05:44:56Z</time>
      </trkpt>
      <trkpt lat="42.48029" lon="3.12235">
        <ele>19</ele>
        <time>2021-06-20T05:44:59Z</time>
      </trkpt>
      <trkpt lat="42.48002" lon="3.12282">
        <ele>17</ele>
        <time>2021-06-20T05:45:10Z</time>
      </trkpt>
      <trkpt lat="42.47976" lon="3.12298">
        <ele>14</ele>
        <time>2021-06-20T05:45:16Z</time>
      </trkpt>
      <trkpt lat="42.47948" lon="3.12298">
        <ele>11</ele>
        <time>2021-06-20T05:45:23Z</time>
      </trkpt>
      <trkpt lat="42.47943" lon="3.12301">
        <ele>10</ele>
        <time>2021-06-20T05:45:24Z</time>
      </trkpt>
      <trkpt lat="42.47942" lon="3.12305">
        <ele>10</ele>
        <time>2021-06-20T05:45:25Z</time>
      </trkpt>
      <trkpt lat="42.47961" lon="3.12315">
        <ele>12</ele>
        <time>2021-06-20T05:45:30Z</time>
      </trkpt>
      <trkpt lat="42.47967" lon="3.12322">
        <ele>12</ele>
        <time>2021-06-20T05:45:32Z</time>
      </trkpt>
      <trkpt lat="42.47967" lon="3.12329">
        <ele>12</ele>
        <time>2021-06-20T05:45:33Z</time>
      </trkpt>
      <trkpt lat="42.47941" lon="3.12439">
        <ele>7</ele>
        <time>2021-06-20T05:45:53Z</time>
      </trkpt>
      <trkpt lat="42.47898" lon="3.12515">
        <ele>6</ele>
        <time>2021-06-20T05:46:09Z</time>
      </trkpt>
      <trkpt lat="42.47891" lon="3.12602">
        <ele>6</ele>
        <time>2021-06-20T05:46:24Z</time>
      </trkpt>
      <trkpt lat="42.47902" lon="3.12612">
        <ele>6</ele>
        <time>2021-06-20T05:46:27Z</time>
      </trkpt>
      <trkpt lat="42.47925" lon="3.12624">
        <ele>6</ele>
        <time>2021-06-20T05:46:33Z</time>
      </trkpt>
      <trkpt lat="42.47994" lon="3.12677">
        <ele>5</ele>
        <time>2021-06-20T05:46:52Z</time>
      </trkpt>
      <trkpt lat="42.48035" lon="3.12727">
        <ele>5</ele>
        <time>2021-06-20T05:47:04Z</time>
      </trkpt>
      <trkpt lat="42.48026" lon="3.12753">
        <ele>4</ele>
        <time>2021-06-20T05:47:09Z</time>
      </trkpt>
      <trkpt lat="42.48056" lon="3.12769">
        <ele>5</ele>
        <time>2021-06-20T05:47:17Z</time>
      </trkpt>
      <trkpt lat="42.48067" lon="3.1278">
        <ele>5</ele>
        <time>2021-06-20T05:47:20Z</time>
      </trkpt>
      <trkpt lat="42.48079" lon="3.12794">
        <ele>5</ele>
        <time>2021-06-20T05:47:24Z</time>
      </trkpt>
      <trkpt lat="42.48117" lon="3.12857">
        <ele>6</ele>
        <time>2021-06-20T05:47:38Z</time>
      </trkpt>
      <trkpt lat="42.48129" lon="3.12872">
        <ele>6</ele>
        <time>2021-06-20T05:47:42Z</time>
      </trkpt>
      <trkpt lat="42.48121" lon="3.12879">
        <ele>6</ele>
        <time>2021-06-20T05:47:44Z</time>
      </trkpt>
      <trkpt lat="42.4812" lon="3.12884">
        <ele>6</ele>
        <time>2021-06-20T05:47:45Z</time>
      </trkpt>
      <trkpt lat="42.48123" lon="3.12911">
        <ele>6</ele>
        <time>2021-06-20T05:47:49Z</time>
      </trkpt>
      <trkpt lat="42.48121" lon="3.1292">
        <ele>5</ele>
        <time>2021-06-20T05:47:51Z</time>
      </trkpt>
      <trkpt lat="42.48143" lon="3.12942">
        <ele>5</ele>
        <time>2021-06-20T05:47:57Z</time>
      </trkpt>
      <trkpt lat="42.48142" lon="3.12952">
        <ele>4</ele>
        <time>2021-06-20T05:47:59Z</time>
      </trkpt>
      <trkpt lat="42.48136" lon="3.1296">
        <ele>4</ele>
        <time>2021-06-20T05:48:01Z</time>
      </trkpt>
    </trkseg>
  </trk>
</gpx>